<?xml version='1.0' encoding='UTF-8'?><gpx version="1.1" creator="JPX - https://github.com/jenetics/jpx" xmlns="http://www.topografix.com/GPX/1/1"><trk><trkseg><trkpt lat="14.558266112818442" lon="120.99543290456177"><ele>9.0</ele><time>2026-04-17T03:13:33Z</time></trkpt><trkpt lat="14.558310912858184" lon="120.99549643330026"><ele>9.0</ele><time>2026-04-17T03:13:36Z</time></trkpt><trkpt lat="14.558315190081752" lon="120.99556926133576"><ele>9.0</ele><time>2026-04-17T03:13:38Z</time></trkpt><trkpt lat="14.558295625316035" lon="120.99563389510317"><ele>9.0</ele><time>2026-04-17T03:13:40Z</time></trkpt><trkpt lat="14.558237624053039" lon="120.99570849280762"><ele>9.0</ele><time>2026-04-17T03:13:42Z</time></trkpt><trkpt lat="14.558206447415126" lon="120.99577723466483"><ele>9.0</ele><time>2026-04-17T03:13:44Z</time></trkpt><trkpt lat="14.558174526186997" lon="120.99584777523829"><ele>9.0</ele><time>2026-04-17T03:13:46.054Z</time></trkpt><trkpt lat="14.558143744149858" lon="120.99591609956501"><ele>9.0</ele><time>2026-04-17T03:13:48.051Z</time></trkpt><trkpt lat="14.558113284842142" lon="120.99598385150425"><ele>9.0</ele><time>2026-04-17T03:13:50.04Z</time></trkpt><trkpt lat="14.558083041106684" lon="120.99605155479716"><ele>9.0</ele><time>2026-04-17T03:13:52.038Z</time></trkpt><trkpt lat="14.558052713667978" lon="120.99611934351013"><ele>9.0</ele><time>2026-04-17T03:13:54.036Z</time></trkpt><trkpt lat="14.55808976603856" lon="120.99617703876756"><ele>9.0</ele><time>2026-04-17T03:15:00.999Z</time></trkpt><trkpt lat="14.558021687449358" lon="120.99624347713588"><ele>9.0</ele><time>2026-04-17T03:15:04.999Z</time></trkpt><trkpt lat="14.557895336067755" lon="120.99625449868192"><ele>9.0</ele><time>2026-04-17T03:15:06.999Z</time></trkpt><trkpt lat="14.557829319403321" lon="120.99627468967385"><ele>9.0</ele><time>2026-04-17T03:15:08Z</time></trkpt><trkpt lat="14.55775306981201" lon="120.99630870522928"><ele>9.0</ele><time>2026-04-17T03:15:09Z</time></trkpt><trkpt lat="14.557685391806807" lon="120.99633097618197"><ele>9.0</ele><time>2026-04-17T03:15:10Z</time></trkpt><trkpt lat="14.557621753008567" lon="120.99633955388677"><ele>9.0</ele><time>2026-04-17T03:15:11Z</time></trkpt><trkpt lat="14.557524937333975" lon="120.9963608439287"><ele>8.833333333333334</ele><time>2026-04-17T03:15:13Z</time></trkpt><trkpt lat="14.557430876924522" lon="120.99637114217263"><ele>8.666666666666666</ele><time>2026-04-17T03:15:15Z</time></trkpt><trkpt lat="14.557366220879752" lon="120.99637974197174"><ele>8.5</ele><time>2026-04-17T03:15:16Z</time></trkpt><trkpt lat="14.557262413897567" lon="120.99640303983577"><ele>8.333333333333332</ele><time>2026-04-17T03:15:18Z</time></trkpt><trkpt lat="14.557172542546178" lon="120.99642190698918"><ele>8.166666666666666</ele><time>2026-04-17T03:15:20Z</time></trkpt><trkpt lat="14.5570940607349" lon="120.9963956057932"><ele>8.0</ele><time>2026-04-17T03:15:21Z</time></trkpt><trkpt lat="14.556986933109247" lon="120.99640942518757"><ele>7.999999999999999</ele><time>2026-04-17T03:15:24Z</time></trkpt><trkpt lat="14.556918619254619" lon="120.9964255976835"><ele>8.0</ele><time>2026-04-17T03:15:25Z</time></trkpt><trkpt lat="14.55685899353395" lon="120.99644971602679"><ele>8.0</ele><time>2026-04-17T03:15:26Z</time></trkpt><trkpt lat="14.556786159507714" lon="120.9964573721583"><ele>8.0</ele><time>2026-04-17T03:15:27Z</time></trkpt><trkpt lat="14.556699911616752" lon="120.99647604191364"><ele>7.999999999999999</ele><time>2026-04-17T03:15:28Z</time></trkpt><trkpt lat="14.556572324037038" lon="120.99652255935727"><ele>8.0</ele><time>2026-04-17T03:15:29Z</time></trkpt><trkpt lat="14.556451855919544" lon="120.99660022142541"><ele>8.0</ele><time>2026-04-17T03:15:30Z</time></trkpt><trkpt lat="14.556354106580596" lon="120.99661375026058"><ele>8.0</ele><time>2026-04-17T03:15:31Z</time></trkpt><trkpt lat="14.556276217803106" lon="120.9965985953486"><ele>8.0</ele><time>2026-04-17T03:15:32Z</time></trkpt><trkpt lat="14.556161978407202" lon="120.99661349521274"><ele>8.0</ele><time>2026-04-17T03:15:34Z</time></trkpt><trkpt lat="14.556055796989098" lon="120.99665381340964"><ele>8.0</ele><time>2026-04-17T03:15:36Z</time></trkpt><trkpt lat="14.555991871241673" lon="120.99668371647321"><ele>8.166666666666666</ele><time>2026-04-17T03:15:37Z</time></trkpt><trkpt lat="14.555914499746107" lon="120.99670461427539"><ele>8.333333333333332</ele><time>2026-04-17T03:15:39Z</time></trkpt><trkpt lat="14.555852015339891" lon="120.99671861803597"><ele>8.5</ele><time>2026-04-17T03:15:53Z</time></trkpt><trkpt lat="14.555776301825512" lon="120.99672804094484"><ele>8.666666666666666</ele><time>2026-04-17T03:15:56Z</time></trkpt><trkpt lat="14.555686533633596" lon="120.99673495136228"><ele>8.833333333333334</ele><time>2026-04-17T03:15:58Z</time></trkpt><trkpt lat="14.555618445188761" lon="120.99674785328358"><ele>9.0</ele><time>2026-04-17T03:16:00Z</time></trkpt><trkpt lat="14.555513638632386" lon="120.99677533009817"><ele>9.0</ele><time>2026-04-17T03:16:02Z</time></trkpt><trkpt lat="14.555451227705632" lon="120.99678798544596"><ele>9.0</ele><time>2026-04-17T03:16:03Z</time></trkpt><trkpt lat="14.555384745007435" lon="120.9968046467828"><ele>9.0</ele><time>2026-04-17T03:16:04Z</time></trkpt><trkpt lat="14.555314829310174" lon="120.99681902562628"><ele>9.0</ele><time>2026-04-17T03:16:05Z</time></trkpt><trkpt lat="14.555200540697527" lon="120.99683611631244"><ele>9.0</ele><time>2026-04-17T03:16:07Z</time></trkpt><trkpt lat="14.55507736164117" lon="120.99687165223281"><ele>9.0</ele><time>2026-04-17T03:16:09Z</time></trkpt><trkpt lat="14.555014144576807" lon="120.99689667251666"><ele>9.0</ele><time>2026-04-17T03:16:10Z</time></trkpt><trkpt lat="14.554901066891519" lon="120.9969248883561"><ele>9.0</ele><time>2026-04-17T03:16:12Z</time></trkpt><trkpt lat="14.554814216355846" lon="120.99694252726185"><ele>9.0</ele><time>2026-04-17T03:16:14Z</time></trkpt><trkpt lat="14.5547300189383" lon="120.99695883660465"><ele>9.0</ele><time>2026-04-17T03:16:16Z</time></trkpt><trkpt lat="14.554660346682027" lon="120.99694597290586"><ele>9.0</ele><time>2026-04-17T03:16:18Z</time></trkpt><trkpt lat="14.554543400014024" lon="120.99697063259994"><ele>8.4</ele><time>2026-04-17T03:16:20Z</time></trkpt><trkpt lat="14.554415065284893" lon="120.99700125021546"><ele>7.800000000000001</ele><time>2026-04-17T03:16:22Z</time></trkpt><trkpt lat="14.5543388046897" lon="120.9970063852373"><ele>7.199999999999999</ele><time>2026-04-17T03:16:23Z</time></trkpt><trkpt lat="14.554268734985879" lon="120.9970347226573"><ele>6.6</ele><time>2026-04-17T03:16:24Z</time></trkpt><trkpt lat="14.5542022039094" lon="120.9970499413627"><ele>6.0</ele><time>2026-04-17T03:16:25Z</time></trkpt><trkpt lat="14.55408356781232" lon="120.9969048952137"><ele>6.0</ele><time>2026-04-17T03:16:28Z</time></trkpt><trkpt lat="14.554042746745615" lon="120.99683967068232"><ele>6.0</ele><time>2026-04-17T03:16:29Z</time></trkpt><trkpt lat="14.554013068188224" lon="120.99673544086248"><ele>6.0</ele><time>2026-04-17T03:16:31Z</time></trkpt><trkpt lat="14.553992742525674" lon="120.99666146369825"><ele>6.0</ele><time>2026-04-17T03:16:33Z</time></trkpt><trkpt lat="14.553946751866789" lon="120.99659385314959"><ele>6.0</ele><time>2026-04-17T03:16:36Z</time></trkpt><trkpt lat="14.553930262735763" lon="120.99652714106479"><ele>6.0</ele><time>2026-04-17T03:16:39Z</time></trkpt><trkpt lat="14.553908662179614" lon="120.99645550977615"><ele>6.6</ele><time>2026-04-17T03:16:41Z</time></trkpt><trkpt lat="14.553950829971132" lon="120.99638560771632"><ele>7.199999999999999</ele><time>2026-04-17T03:16:42Z</time></trkpt><trkpt lat="14.553921097713125" lon="120.99625576676839"><ele>7.800000000000001</ele><time>2026-04-17T03:16:44Z</time></trkpt><trkpt lat="14.5539035938135" lon="120.99617932714955"><ele>8.4</ele><time>2026-04-17T03:16:45Z</time></trkpt><trkpt lat="14.553885702954485" lon="120.99610119766177"><ele>9.0</ele><time>2026-04-17T03:16:46Z</time></trkpt><trkpt lat="14.553864192927561" lon="120.99600726325328"><ele>9.0</ele><time>2026-04-17T03:16:47Z</time></trkpt><trkpt lat="14.553843491535025" lon="120.99591686015187"><ele>9.0</ele><time>2026-04-17T03:16:48.001Z</time></trkpt><trkpt lat="14.553820695817961" lon="120.99581799857485"><ele>9.0</ele><time>2026-04-17T03:16:49.001Z</time></trkpt><trkpt lat="14.553801246258546" lon="120.99573506626157"><ele>9.0</ele><time>2026-04-17T03:16:50.001Z</time></trkpt><trkpt lat="14.553782332995317" lon="120.99565442069239"><ele>9.0</ele><time>2026-04-17T03:16:51.001Z</time></trkpt><trkpt lat="14.553762919423104" lon="120.99555986829904"><ele>9.0</ele><time>2026-04-17T03:16:53.001Z</time></trkpt><trkpt lat="14.553738424396066" lon="120.9954665331222"><ele>9.166666666666666</ele><time>2026-04-17T03:16:55.001Z</time></trkpt><trkpt lat="14.553720690385493" lon="120.99538077654032"><ele>9.333333333333334</ele><time>2026-04-17T03:16:57.001Z</time></trkpt><trkpt lat="14.553716949261764" lon="120.99530267287257"><ele>9.5</ele><time>2026-04-17T03:16:59.001Z</time></trkpt><trkpt lat="14.553701205803923" lon="120.99518298522415"><ele>9.666666666666668</ele><time>2026-04-17T03:17:01.001Z</time></trkpt><trkpt lat="14.553691324619484" lon="120.99510786476223"><ele>9.833333333333334</ele><time>2026-04-17T03:17:02.001Z</time></trkpt><trkpt lat="14.553681765329754" lon="120.9950325179623"><ele>10.0</ele><time>2026-04-17T03:17:03.001Z</time></trkpt><trkpt lat="14.553672462793259" lon="120.99495893251229"><ele>9.5</ele><time>2026-04-17T03:17:04Z</time></trkpt><trkpt lat="14.553656207180923" lon="120.99483034644365"><ele>9.0</ele><time>2026-04-17T03:17:06Z</time></trkpt><trkpt lat="14.553647895806948" lon="120.99476364318828"><ele>8.5</ele><time>2026-04-17T03:17:07Z</time></trkpt><trkpt lat="14.553637488011018" lon="120.99467849215303"><ele>8.0</ele><time>2026-04-17T03:17:08Z</time></trkpt><trkpt lat="14.553626407071306" lon="120.99458783379004"><ele>7.500000000000001</ele><time>2026-04-17T03:17:09Z</time></trkpt><trkpt lat="14.553616256126896" lon="120.99450413326036"><ele>7.0</ele><time>2026-04-17T03:17:10Z</time></trkpt><trkpt lat="14.553602918945817" lon="120.99440733214672"><ele>7.000000000000001</ele><time>2026-04-17T03:17:11Z</time></trkpt><trkpt lat="14.553590571533164" lon="120.9943250282503"><ele>7.0</ele><time>2026-04-17T03:17:12Z</time></trkpt><trkpt lat="14.553579270758146" lon="120.99424970089302"><ele>7.0</ele><time>2026-04-17T03:17:13Z</time></trkpt><trkpt lat="14.553567351054353" lon="120.99416164872848"><ele>7.0</ele><time>2026-04-17T03:17:14Z</time></trkpt><trkpt lat="14.553555796665087" lon="120.9940748468196"><ele>7.000000000000001</ele><time>2026-04-17T03:17:15Z</time></trkpt><trkpt lat="14.553545647627368" lon="120.99399860260993"><ele>7.0</ele><time>2026-04-17T03:17:16Z</time></trkpt><trkpt lat="14.553533053549405" lon="120.99390345911377"><ele>7.6</ele><time>2026-04-17T03:17:17Z</time></trkpt><trkpt lat="14.553523222132629" lon="120.99380839409315"><ele>8.2</ele><time>2026-04-17T03:17:18Z</time></trkpt><trkpt lat="14.553512557518427" lon="120.99370527237859"><ele>8.8</ele><time>2026-04-17T03:17:19Z</time></trkpt><trkpt lat="14.553501584895505" lon="120.99359917247507"><ele>9.4</ele><time>2026-04-17T03:17:20Z</time></trkpt><trkpt lat="14.553485410962145" lon="120.9934798932268"><ele>10.0</ele><time>2026-04-17T03:17:21Z</time></trkpt><trkpt lat="14.553467654479489" lon="120.99335962531171"><ele>9.75</ele><time>2026-04-17T03:17:22Z</time></trkpt><trkpt lat="14.553449534976005" lon="120.99323689860933"><ele>9.5</ele><time>2026-04-17T03:17:23Z</time></trkpt><trkpt lat="14.553430531961906" lon="120.99310818771035"><ele>9.25</ele><time>2026-04-17T03:17:24Z</time></trkpt><trkpt lat="14.553404200876892" lon="120.99297449876993"><ele>9.0</ele><time>2026-04-17T03:17:25Z</time></trkpt><trkpt lat="14.553377143117597" lon="120.99284150251754"><ele>9.0</ele><time>2026-04-17T03:17:26Z</time></trkpt><trkpt lat="14.55334454535936" lon="120.99270254063258"><ele>9.0</ele><time>2026-04-17T03:17:27Z</time></trkpt><trkpt lat="14.553308182917744" lon="120.99256372845042"><ele>9.0</ele><time>2026-04-17T03:17:28Z</time></trkpt><trkpt lat="14.553272309835732" lon="120.9924257001663"><ele>9.0</ele><time>2026-04-17T03:17:29Z</time></trkpt><trkpt lat="14.553235267018174" lon="120.99228953434596"><ele>9.25</ele><time>2026-04-17T03:17:30Z</time></trkpt><trkpt lat="14.553198881907116" lon="120.99216242850913"><ele>9.5</ele><time>2026-04-17T03:17:31Z</time></trkpt><trkpt lat="14.553165763839019" lon="120.99204673566081"><ele>9.75</ele><time>2026-04-17T03:17:32Z</time></trkpt><trkpt lat="14.553132530590116" lon="120.99193861336275"><ele>10.0</ele><time>2026-04-17T03:17:33Z</time></trkpt><trkpt lat="14.553098419741307" lon="120.9918255153614"><ele>10.0</ele><time>2026-04-17T03:17:34Z</time></trkpt><trkpt lat="14.5530616551347" lon="120.9917069237455"><ele>10.0</ele><time>2026-04-17T03:17:35Z</time></trkpt><trkpt lat="14.553023033558661" lon="120.99158252758127"><ele>10.0</ele><time>2026-04-17T03:17:36Z</time></trkpt><trkpt lat="14.552985794882389" lon="120.99146258559458"><ele>10.0</ele><time>2026-04-17T03:17:37Z</time></trkpt><trkpt lat="14.552948179443451" lon="120.99133971213217"><ele>10.0</ele><time>2026-04-17T03:17:38Z</time></trkpt><trkpt lat="14.552909378026342" lon="120.99121352604185"><ele>10.0</ele><time>2026-04-17T03:17:39Z</time></trkpt><trkpt lat="14.552859506456123" lon="120.99108790692983"><ele>10.0</ele><time>2026-04-17T03:17:40Z</time></trkpt><trkpt lat="14.552819722030755" lon="120.99095401702"><ele>10.0</ele><time>2026-04-17T03:17:41Z</time></trkpt><trkpt lat="14.552782861106355" lon="120.99082392511683"><ele>10.0</ele><time>2026-04-17T03:17:42Z</time></trkpt><trkpt lat="14.552741571409893" lon="120.9906908067302"><ele>10.0</ele><time>2026-04-17T03:17:43Z</time></trkpt><trkpt lat="14.55269923836682" lon="120.99055716872341"><ele>10.0</ele><time>2026-04-17T03:17:44Z</time></trkpt><trkpt lat="14.552658779389965" lon="120.99043155454264"><ele>10.0</ele><time>2026-04-17T03:17:45Z</time></trkpt><trkpt lat="14.552622761057002" lon="120.99031199001608"><ele>10.0</ele><time>2026-04-17T03:17:46Z</time></trkpt><trkpt lat="14.552586375520901" lon="120.9902035574748"><ele>10.0</ele><time>2026-04-17T03:17:47Z</time></trkpt><trkpt lat="14.552552102761979" lon="120.99009600456853"><ele>10.0</ele><time>2026-04-17T03:17:48Z</time></trkpt><trkpt lat="14.552520805710106" lon="120.98999386311453"><ele>10.0</ele><time>2026-04-17T03:17:49Z</time></trkpt><trkpt lat="14.552483531435572" lon="120.98988972937009"><ele>10.0</ele><time>2026-04-17T03:17:50Z</time></trkpt><trkpt lat="14.552455621541336" lon="120.98979107919494"><ele>10.0</ele><time>2026-04-17T03:17:51Z</time></trkpt><trkpt lat="14.552426965941914" lon="120.9897013099362"><ele>10.0</ele><time>2026-04-17T03:17:52Z</time></trkpt><trkpt lat="14.552399460760077" lon="120.98960619402264"><ele>10.0</ele><time>2026-04-17T03:17:53Z</time></trkpt><trkpt lat="14.552366270631145" lon="120.98951007053071"><ele>10.0</ele><time>2026-04-17T03:17:54Z</time></trkpt><trkpt lat="14.552342582416633" lon="120.9894147020725"><ele>10.0</ele><time>2026-04-17T03:17:55Z</time></trkpt><trkpt lat="14.55231234691556" lon="120.98930333250206"><ele>10.0</ele><time>2026-04-17T03:17:56Z</time></trkpt><trkpt lat="14.552283653727544" lon="120.98919612872571"><ele>10.0</ele><time>2026-04-17T03:17:57Z</time></trkpt><trkpt lat="14.55225518113069" lon="120.98909568646931"><ele>10.0</ele><time>2026-04-17T03:17:58Z</time></trkpt><trkpt lat="14.552228606093378" lon="120.98900684897072"><ele>10.0</ele><time>2026-04-17T03:17:59Z</time></trkpt><trkpt lat="14.552203766881807" lon="120.98892133418988"><ele>10.0</ele><time>2026-04-17T03:18:00Z</time></trkpt><trkpt lat="14.552196345441036" lon="120.98883837216776"><ele>9.333333333333334</ele><time>2026-04-17T03:18:01Z</time></trkpt><trkpt lat="14.552179427831339" lon="120.98877081563833"><ele>8.666666666666668</ele><time>2026-04-17T03:18:02Z</time></trkpt><trkpt lat="14.552163306197075" lon="120.98870720003576"><ele>8.0</ele><time>2026-04-17T03:18:03Z</time></trkpt><trkpt lat="14.552133207502498" lon="120.98858843128153"><ele>7.333333333333334</ele><time>2026-04-17T03:18:05Z</time></trkpt><trkpt lat="14.552107244837648" lon="120.98848598322364"><ele>6.666666666666667</ele><time>2026-04-17T03:18:07Z</time></trkpt><trkpt lat="14.552086533698514" lon="120.98840425765663"><ele>6.0</ele><time>2026-04-17T03:18:10Z</time></trkpt><trkpt lat="14.552004705090633" lon="120.9883566972085"><ele>5.8</ele><time>2026-04-17T03:18:12Z</time></trkpt><trkpt lat="14.551918333832345" lon="120.9883676209024"><ele>5.6</ele><time>2026-04-17T03:18:15.001Z</time></trkpt><trkpt lat="14.551853410273514" lon="120.98841861155756"><ele>5.4</ele><time>2026-04-17T03:18:20.001Z</time></trkpt><trkpt lat="14.551874096181177" lon="120.98853318008905"><ele>5.2</ele><time>2026-04-17T03:18:21.001Z</time></trkpt><trkpt lat="14.551887379213989" lon="120.98861936361793"><ele>5.0</ele><time>2026-04-17T03:18:22.001Z</time></trkpt><trkpt lat="14.551904377836788" lon="120.98871540082496"><ele>5.0</ele><time>2026-04-17T03:18:23.001Z</time></trkpt><trkpt lat="14.551919205650663" lon="120.98881328273374"><ele>5.0</ele><time>2026-04-17T03:18:24.001Z</time></trkpt><trkpt lat="14.551941996678629" lon="120.98891885265111"><ele>5.0</ele><time>2026-04-17T03:18:25.001Z</time></trkpt><trkpt lat="14.551987858842805" lon="120.98901568413001"><ele>5.0</ele><time>2026-04-17T03:18:26.001Z</time></trkpt><trkpt lat="14.552021647385844" lon="120.98912130508138"><ele>5.0</ele><time>2026-04-17T03:18:27.001Z</time></trkpt><trkpt lat="14.552049149723478" lon="120.98920727568779"><ele>5.8</ele><time>2026-04-17T03:18:28.001Z</time></trkpt><trkpt lat="14.552077459952695" lon="120.98929188242582"><ele>6.6</ele><time>2026-04-17T03:18:29.001Z</time></trkpt><trkpt lat="14.552100095151564" lon="120.98936188835408"><ele>7.4</ele><time>2026-04-17T03:18:30.001Z</time></trkpt><trkpt lat="14.55211826607787" lon="120.98942418869561"><ele>8.2</ele><time>2026-04-17T03:18:32.001Z</time></trkpt><trkpt lat="14.551970573280794" lon="120.98947649238849"><ele>9.0</ele><time>2026-04-17T03:18:33.001Z</time></trkpt><trkpt lat="14.551848269667339" lon="120.98950995903247"><ele>9.0</ele><time>2026-04-17T03:18:35.001Z</time></trkpt><trkpt lat="14.551774972813043" lon="120.98952059663542"><ele>9.0</ele><time>2026-04-17T03:18:36.001Z</time></trkpt><trkpt lat="14.551694377830302" lon="120.98953920270561"><ele>9.0</ele><time>2026-04-17T03:18:37.001Z</time></trkpt><trkpt lat="14.551602239861502" lon="120.98956389798676"><ele>9.0</ele><time>2026-04-17T03:18:38.001Z</time></trkpt><trkpt lat="14.5515073722609" lon="120.98958239706883"><ele>9.0</ele><time>2026-04-17T03:18:39.001Z</time></trkpt><trkpt lat="14.551403129460402" lon="120.9896109282196"><ele>9.0</ele><time>2026-04-17T03:18:40.001Z</time></trkpt><trkpt lat="14.551298277161973" lon="120.98963507043767"><ele>9.0</ele><time>2026-04-17T03:18:41.001Z</time></trkpt><trkpt lat="14.551190441901088" lon="120.98965797169548"><ele>9.0</ele><time>2026-04-17T03:18:42.001Z</time></trkpt><trkpt lat="14.551074843928664" lon="120.98968982683758"><ele>9.0</ele><time>2026-04-17T03:18:43.001Z</time></trkpt><trkpt lat="14.550955268287229" lon="120.98972001928291"><ele>8.5</ele><time>2026-04-17T03:18:44.001Z</time></trkpt><trkpt lat="14.550836320748049" lon="120.98974355570357"><ele>8.0</ele><time>2026-04-17T03:18:45.001Z</time></trkpt><trkpt lat="14.550709808391272" lon="120.9897780199248"><ele>7.5</ele><time>2026-04-17T03:18:46.001Z</time></trkpt><trkpt lat="14.550580635774256" lon="120.98980359339798"><ele>7.0</ele><time>2026-04-17T03:18:47.001Z</time></trkpt><trkpt lat="14.550450213439799" lon="120.98982609764448"><ele>7.25</ele><time>2026-04-17T03:18:48.001Z</time></trkpt><trkpt lat="14.550318217097665" lon="120.98985046347264"><ele>7.5</ele><time>2026-04-17T03:18:49.001Z</time></trkpt><trkpt lat="14.55018444231704" lon="120.98987900851382"><ele>7.75</ele><time>2026-04-17T03:18:50.001Z</time></trkpt><trkpt lat="14.550050120926466" lon="120.98991009926337"><ele>8.0</ele><time>2026-04-17T03:18:51.001Z</time></trkpt><trkpt lat="14.549909736579409" lon="120.98994173996337"><ele>8.0</ele><time>2026-04-17T03:18:52.001Z</time></trkpt><trkpt lat="14.549771135433726" lon="120.989970840028"><ele>8.0</ele><time>2026-04-17T03:18:53.001Z</time></trkpt><trkpt lat="14.549625278069666" lon="120.99001367486923"><ele>8.0</ele><time>2026-04-17T03:18:54.001Z</time></trkpt><trkpt lat="14.54949099956576" lon="120.99005280271405"><ele>8.0</ele><time>2026-04-17T03:18:55.001Z</time></trkpt><trkpt lat="14.549367975158034" lon="120.99008649136958"><ele>8.0</ele><time>2026-04-17T03:18:56.001Z</time></trkpt><trkpt lat="14.549254687770066" lon="120.99011977730196"><ele>8.0</ele><time>2026-04-17T03:18:57.001Z</time></trkpt><trkpt lat="14.549145296522584" lon="120.99015484501749"><ele>8.0</ele><time>2026-04-17T03:18:58.001Z</time></trkpt><trkpt lat="14.549026533441472" lon="120.9901963466815"><ele>8.0</ele><time>2026-04-17T03:18:59.001Z</time></trkpt><trkpt lat="14.548907376389318" lon="120.99023213747883"><ele>8.0</ele><time>2026-04-17T03:19:00.001Z</time></trkpt><trkpt lat="14.548785497636052" lon="120.99027428669234"><ele>8.0</ele><time>2026-04-17T03:19:01.001Z</time></trkpt><trkpt lat="14.548655982497985" lon="120.99032180356333"><ele>8.0</ele><time>2026-04-17T03:19:02.001Z</time></trkpt><trkpt lat="14.548523544551015" lon="120.99036312110572"><ele>8.0</ele><time>2026-04-17T03:19:03.001Z</time></trkpt><trkpt lat="14.548395145056986" lon="120.99039324125475"><ele>8.0</ele><time>2026-04-17T03:19:04.001Z</time></trkpt><trkpt lat="14.548243903289658" lon="120.99043052563088"><ele>8.0</ele><time>2026-04-17T03:19:05.001Z</time></trkpt><trkpt lat="14.548105598751558" lon="120.99047288022572"><ele>8.0</ele><time>2026-04-17T03:19:06.001Z</time></trkpt><trkpt lat="14.547961930589514" lon="120.99051357299919"><ele>8.0</ele><time>2026-04-17T03:19:07.001Z</time></trkpt><trkpt lat="14.547815763490291" lon="120.99055409600777"><ele>8.0</ele><time>2026-04-17T03:19:08.001Z</time></trkpt><trkpt lat="14.547660737225675" lon="120.99059388835694"><ele>8.0</ele><time>2026-04-17T03:19:09.001Z</time></trkpt><trkpt lat="14.547500089214862" lon="120.99063668734762"><ele>8.0</ele><time>2026-04-17T03:19:10Z</time></trkpt><trkpt lat="14.547338778509388" lon="120.99067920550777"><ele>8.0</ele><time>2026-04-17T03:19:11Z</time></trkpt><trkpt lat="14.547181000376316" lon="120.99072681926712"><ele>8.0</ele><time>2026-04-17T03:19:12Z</time></trkpt><trkpt lat="14.547017290497177" lon="120.99077046397501"><ele>8.0</ele><time>2026-04-17T03:19:13Z</time></trkpt><trkpt lat="14.54685437814525" lon="120.99081212693733"><ele>9.333333333333332</ele><time>2026-04-17T03:19:14Z</time></trkpt><trkpt lat="14.546689487572497" lon="120.99084508169602"><ele>10.666666666666666</ele><time>2026-04-17T03:19:15Z</time></trkpt><trkpt lat="14.546522127551883" lon="120.99087880430324"><ele>12.0</ele><time>2026-04-17T03:19:16Z</time></trkpt><trkpt lat="14.546355324676362" lon="120.99091466724491"><ele>10.333333333333334</ele><time>2026-04-17T03:19:17Z</time></trkpt><trkpt lat="14.546185957343743" lon="120.99095552736202"><ele>8.666666666666668</ele><time>2026-04-17T03:19:18Z</time></trkpt><trkpt lat="14.546016262792032" lon="120.99099737272134"><ele>7.0</ele><time>2026-04-17T03:19:19Z</time></trkpt><trkpt lat="14.545845506698127" lon="120.9910419919832"><ele>7.0</ele><time>2026-04-17T03:19:20Z</time></trkpt><trkpt lat="14.545676540180528" lon="120.99108603756108"><ele>7.0</ele><time>2026-04-17T03:19:21Z</time></trkpt><trkpt lat="14.545505952918578" lon="120.99112682513213"><ele>7.0</ele><time>2026-04-17T03:19:22Z</time></trkpt><trkpt lat="14.545333864129292" lon="120.99117159359827"><ele>8.333333333333334</ele><time>2026-04-17T03:19:23Z</time></trkpt><trkpt lat="14.545163113742495" lon="120.99121235731076"><ele>9.666666666666666</ele><time>2026-04-17T03:19:24Z</time></trkpt><trkpt lat="14.544992724663999" lon="120.99125527948914"><ele>11.0</ele><time>2026-04-17T03:19:25Z</time></trkpt><trkpt lat="14.54482294079365" lon="120.9912930543016"><ele>11.0</ele><time>2026-04-17T03:19:26Z</time></trkpt><trkpt lat="14.544648396819793" lon="120.99132133615245"><ele>11.0</ele><time>2026-04-17T03:19:27Z</time></trkpt><trkpt lat="14.544481422439702" lon="120.99134812895947"><ele>11.0</ele><time>2026-04-17T03:19:28Z</time></trkpt><trkpt lat="14.544312030402093" lon="120.99138319175776"><ele>10.0</ele><time>2026-04-17T03:19:29Z</time></trkpt><trkpt lat="14.544137858370357" lon="120.99141113607809"><ele>9.0</ele><time>2026-04-17T03:19:30Z</time></trkpt><trkpt lat="14.543960292653118" lon="120.99143749559015"><ele>8.0</ele><time>2026-04-17T03:19:31Z</time></trkpt><trkpt lat="14.54379376894955" lon="120.99147818226488"><ele>7.333333333333333</ele><time>2026-04-17T03:19:32Z</time></trkpt><trkpt lat="14.543621742535613" lon="120.9915244703542"><ele>6.666666666666666</ele><time>2026-04-17T03:19:33Z</time></trkpt><trkpt lat="14.543441445109387" lon="120.99154169522835"><ele>6.0</ele><time>2026-04-17T03:19:34Z</time></trkpt><trkpt lat="14.54326837217875" lon="120.99157539446541"><ele>6.0</ele><time>2026-04-17T03:19:35Z</time></trkpt><trkpt lat="14.543087906432774" lon="120.99160352359603"><ele>6.0</ele><time>2026-04-17T03:19:36Z</time></trkpt><trkpt lat="14.542909097743497" lon="120.99163287091976"><ele>6.0</ele><time>2026-04-17T03:19:37Z</time></trkpt><trkpt lat="14.542742068114556" lon="120.99167206356873"><ele>6.666666666666666</ele><time>2026-04-17T03:19:38Z</time></trkpt><trkpt lat="14.54256206806348" lon="120.99169962048987"><ele>7.333333333333333</ele><time>2026-04-17T03:19:39Z</time></trkpt><trkpt lat="14.542376672852594" lon="120.99172496748754"><ele>8.0</ele><time>2026-04-17T03:19:40Z</time></trkpt><trkpt lat="14.54219581747733" lon="120.99176085483833"><ele>7.666666666666666</ele><time>2026-04-17T03:19:41Z</time></trkpt><trkpt lat="14.542017121156873" lon="120.99179904993663"><ele>7.333333333333334</ele><time>2026-04-17T03:19:42Z</time></trkpt><trkpt lat="14.541829019852582" lon="120.99183202652425"><ele>7.0</ele><time>2026-04-17T03:19:43Z</time></trkpt><trkpt lat="14.541645853287411" lon="120.9918669416807"><ele>7.0</ele><time>2026-04-17T03:19:44Z</time></trkpt><trkpt lat="14.54146905603638" lon="120.9919050350616"><ele>7.0</ele><time>2026-04-17T03:19:45Z</time></trkpt><trkpt lat="14.541278513365798" lon="120.99192501212418"><ele>7.0</ele><time>2026-04-17T03:19:46Z</time></trkpt><trkpt lat="14.541098959181632" lon="120.99195951852404"><ele>11.333333333333334</ele><time>2026-04-17T03:19:47Z</time></trkpt><trkpt lat="14.540920387355799" lon="120.9919848787448"><ele>15.666666666666668</ele><time>2026-04-17T03:19:48Z</time></trkpt><trkpt lat="14.540743676213603" lon="120.99201660143542"><ele>20.0</ele><time>2026-04-17T03:19:49Z</time></trkpt><trkpt lat="14.540569451947281" lon="120.99204547541385"><ele>20.0</ele><time>2026-04-17T03:19:50Z</time></trkpt><trkpt lat="14.540404470388593" lon="120.99206982567685"><ele>20.0</ele><time>2026-04-17T03:19:51Z</time></trkpt><trkpt lat="14.540238899927877" lon="120.99208688940216"><ele>20.0</ele><time>2026-04-17T03:19:52Z</time></trkpt><trkpt lat="14.54008752175454" lon="120.99210768360925"><ele>16.333333333333336</ele><time>2026-04-17T03:19:53Z</time></trkpt><trkpt lat="14.53991677199034" lon="120.99211563099935"><ele>12.666666666666668</ele><time>2026-04-17T03:19:54.001Z</time></trkpt><trkpt lat="14.539758835675103" lon="120.99212652843958"><ele>9.0</ele><time>2026-04-17T03:19:55.001Z</time></trkpt><trkpt lat="14.539601138989987" lon="120.99214308491779"><ele>8.0</ele><time>2026-04-17T03:19:56.001Z</time></trkpt><trkpt lat="14.53944026475978" lon="120.99216199241914"><ele>7.0</ele><time>2026-04-17T03:19:57.001Z</time></trkpt><trkpt lat="14.539285496136804" lon="120.99217374622621"><ele>6.0</ele><time>2026-04-17T03:19:58.001Z</time></trkpt><trkpt lat="14.539139717550407" lon="120.9922032054851"><ele>6.0</ele><time>2026-04-17T03:19:59.001Z</time></trkpt><trkpt lat="14.538992910564385" lon="120.99222704162871"><ele>6.0</ele><time>2026-04-17T03:20:00.001Z</time></trkpt><trkpt lat="14.538848691272726" lon="120.99224529049907"><ele>6.0</ele><time>2026-04-17T03:20:01.001Z</time></trkpt><trkpt lat="14.538705070588021" lon="120.99225978100355"><ele>6.0</ele><time>2026-04-17T03:20:02.001Z</time></trkpt><trkpt lat="14.538559698933645" lon="120.99227836657684"><ele>6.75</ele><time>2026-04-17T03:20:03.001Z</time></trkpt><trkpt lat="14.538416025328711" lon="120.99229551627984"><ele>7.5</ele><time>2026-04-17T03:20:04.001Z</time></trkpt><trkpt lat="14.53827446327288" lon="120.99231034191445"><ele>8.25</ele><time>2026-04-17T03:20:05.001Z</time></trkpt><trkpt lat="14.538132321059761" lon="120.9923300347366"><ele>9.0</ele><time>2026-04-17T03:20:06.001Z</time></trkpt><trkpt lat="14.537984272594507" lon="120.99234424443857"><ele>8.0</ele><time>2026-04-17T03:20:07.001Z</time></trkpt><trkpt lat="14.537837122091945" lon="120.99236041755498"><ele>7.0</ele><time>2026-04-17T03:20:08.001Z</time></trkpt><trkpt lat="14.537697999623276" lon="120.99237302199951"><ele>6.0</ele><time>2026-04-17T03:20:09.001Z</time></trkpt><trkpt lat="14.537562900851192" lon="120.99239305340663"><ele>5.0</ele><time>2026-04-17T03:20:10.001Z</time></trkpt><trkpt lat="14.537425865955672" lon="120.99240477382001"><ele>5.0</ele><time>2026-04-17T03:20:11.001Z</time></trkpt><trkpt lat="14.537287343169414" lon="120.99242089077575"><ele>5.0</ele><time>2026-04-17T03:20:12.001Z</time></trkpt><trkpt lat="14.537147619402834" lon="120.99243476580168"><ele>5.0</ele><time>2026-04-17T03:20:13.001Z</time></trkpt><trkpt lat="14.537006904931191" lon="120.99245684458141"><ele>5.0</ele><time>2026-04-17T03:20:14.001Z</time></trkpt><trkpt lat="14.536864496812958" lon="120.99247257254098"><ele>4.75</ele><time>2026-04-17T03:20:15.001Z</time></trkpt><trkpt lat="14.536721425765844" lon="120.9924879467925"><ele>4.5</ele><time>2026-04-17T03:20:16.001Z</time></trkpt><trkpt lat="14.536576510242766" lon="120.99250366577984"><ele>4.25</ele><time>2026-04-17T03:20:17.001Z</time></trkpt><trkpt lat="14.536430304730297" lon="120.99252095502347"><ele>4.0</ele><time>2026-04-17T03:20:18.001Z</time></trkpt><trkpt lat="14.536281908888185" lon="120.99254472225964"><ele>5.25</ele><time>2026-04-17T03:20:19.001Z</time></trkpt><trkpt lat="14.536136670280762" lon="120.99255710671773"><ele>6.5</ele><time>2026-04-17T03:20:20.001Z</time></trkpt><trkpt lat="14.535991970160634" lon="120.99257206997373"><ele>7.75</ele><time>2026-04-17T03:20:21.001Z</time></trkpt><trkpt lat="14.535853651762475" lon="120.99259310496798"><ele>9.0</ele><time>2026-04-17T03:20:22.001Z</time></trkpt><trkpt lat="14.535718461028523" lon="120.99260947399337"><ele>9.0</ele><time>2026-04-17T03:20:23.001Z</time></trkpt><trkpt lat="14.535587927667745" lon="120.99262305138951"><ele>9.0</ele><time>2026-04-17T03:20:24.001Z</time></trkpt><trkpt lat="14.535454081291924" lon="120.99263849488104"><ele>9.0</ele><time>2026-04-17T03:20:25.001Z</time></trkpt><trkpt lat="14.535313390132504" lon="120.99265305871394"><ele>9.0</ele><time>2026-04-17T03:20:26.001Z</time></trkpt><trkpt lat="14.535167131768436" lon="120.99267455247957"><ele>9.0</ele><time>2026-04-17T03:20:27.001Z</time></trkpt><trkpt lat="14.535028863671121" lon="120.99268620137393"><ele>9.0</ele><time>2026-04-17T03:20:28.001Z</time></trkpt><trkpt lat="14.534905719127176" lon="120.99269131657522"><ele>9.0</ele><time>2026-04-17T03:20:29.001Z</time></trkpt><trkpt lat="14.53479274416496" lon="120.99270295225172"><ele>9.0</ele><time>2026-04-17T03:20:30.001Z</time></trkpt><trkpt lat="14.534672516149323" lon="120.99271690584193"><ele>8.5</ele><time>2026-04-17T03:20:31.001Z</time></trkpt><trkpt lat="14.534549274440232" lon="120.99272058577392"><ele>8.0</ele><time>2026-04-17T03:20:32.001Z</time></trkpt><trkpt lat="14.534417371328855" lon="120.99273644565405"><ele>7.5</ele><time>2026-04-17T03:20:33.001Z</time></trkpt><trkpt lat="14.53428481051438" lon="120.99274851560756"><ele>7.0</ele><time>2026-04-17T03:20:34.001Z</time></trkpt><trkpt lat="14.534143208585277" lon="120.99276712574202"><ele>7.0</ele><time>2026-04-17T03:20:35.001Z</time></trkpt><trkpt lat="14.53400505132437" lon="120.99277748124852"><ele>7.0</ele><time>2026-04-17T03:20:36.001Z</time></trkpt><trkpt lat="14.533862764068445" lon="120.9927903905572"><ele>7.0</ele><time>2026-04-17T03:20:37.001Z</time></trkpt><trkpt lat="14.533714841452909" lon="120.99280366747303"><ele>7.0</ele><time>2026-04-17T03:20:38.001Z</time></trkpt><trkpt lat="14.533572293626275" lon="120.99281410771351"><ele>8.5</ele><time>2026-04-17T03:20:39.001Z</time></trkpt><trkpt lat="14.53341970845329" lon="120.99282873971129"><ele>10.0</ele><time>2026-04-17T03:20:40.001Z</time></trkpt><trkpt lat="14.533281448890753" lon="120.99284046150221"><ele>11.5</ele><time>2026-04-17T03:20:41.001Z</time></trkpt><trkpt lat="14.533144226456194" lon="120.9928539435941"><ele>13.0</ele><time>2026-04-17T03:20:42.001Z</time></trkpt><trkpt lat="14.533004406344652" lon="120.99288507787902"><ele>11.75</ele><time>2026-04-17T03:20:43.001Z</time></trkpt><trkpt lat="14.532885763139438" lon="120.99288352554672"><ele>10.5</ele><time>2026-04-17T03:20:44.001Z</time></trkpt><trkpt lat="14.532774275635601" lon="120.99285788049222"><ele>9.25</ele><time>2026-04-17T03:20:45.001Z</time></trkpt><trkpt lat="14.532645065055682" lon="120.99288836896058"><ele>8.0</ele><time>2026-04-17T03:20:46.001Z</time></trkpt><trkpt lat="14.532506141626243" lon="120.99294156162182"><ele>8.0</ele><time>2026-04-17T03:20:47.001Z</time></trkpt><trkpt lat="14.532373053241344" lon="120.99296000362271"><ele>8.0</ele><time>2026-04-17T03:20:48.001Z</time></trkpt><trkpt lat="14.532243833375713" lon="120.99297301413363"><ele>8.0</ele><time>2026-04-17T03:20:49.001Z</time></trkpt><trkpt lat="14.532113590447224" lon="120.99299225010641"><ele>8.0</ele><time>2026-04-17T03:20:50.001Z</time></trkpt><trkpt lat="14.531983509412422" lon="120.99300542194725"><ele>7.5</ele><time>2026-04-17T03:20:51.001Z</time></trkpt><trkpt lat="14.531851435645104" lon="120.99302398244843"><ele>7.0</ele><time>2026-04-17T03:20:52.001Z</time></trkpt><trkpt lat="14.531726068884513" lon="120.99303864615534"><ele>6.5</ele><time>2026-04-17T03:20:53.001Z</time></trkpt><trkpt lat="14.531613404572287" lon="120.9930553290757"><ele>6.0</ele><time>2026-04-17T03:20:54.001Z</time></trkpt><trkpt lat="14.531501635029853" lon="120.99307313438273"><ele>6.0</ele><time>2026-04-17T03:20:55.001Z</time></trkpt><trkpt lat="14.531401978016387" lon="120.99308866254184"><ele>6.0</ele><time>2026-04-17T03:20:56.001Z</time></trkpt><trkpt lat="14.531286606297172" lon="120.99310076997158"><ele>6.0</ele><time>2026-04-17T03:20:57.001Z</time></trkpt><trkpt lat="14.531193122444211" lon="120.99312147515452"><ele>6.0</ele><time>2026-04-17T03:20:58.001Z</time></trkpt><trkpt lat="14.531102978234129" lon="120.99313504059964"><ele>6.0</ele><time>2026-04-17T03:20:59.001Z</time></trkpt><trkpt lat="14.531001848318427" lon="120.99314618586678"><ele>5.3999999999999995</ele><time>2026-04-17T03:21:00.001Z</time></trkpt><trkpt lat="14.530897397113101" lon="120.99314699744747"><ele>4.8</ele><time>2026-04-17T03:21:01.001Z</time></trkpt><trkpt lat="14.530799929750097" lon="120.99315228029168"><ele>4.199999999999999</ele><time>2026-04-17T03:21:02.001Z</time></trkpt><trkpt lat="14.5306994329343" lon="120.99316470777939"><ele>3.5999999999999996</ele><time>2026-04-17T03:21:03.001Z</time></trkpt><trkpt lat="14.530596437165853" lon="120.99317186705325"><ele>3.0</ele><time>2026-04-17T03:21:04.001Z</time></trkpt><trkpt lat="14.5304978725465" lon="120.9931825225589"><ele>3.0</ele><time>2026-04-17T03:21:05.001Z</time></trkpt><trkpt lat="14.530410001288963" lon="120.99318130919744"><ele>3.0</ele><time>2026-04-17T03:21:06.001Z</time></trkpt><trkpt lat="14.530316855699512" lon="120.99317497207795"><ele>3.0</ele><time>2026-04-17T03:21:07.001Z</time></trkpt><trkpt lat="14.530220944982853" lon="120.99317795251585"><ele>3.0</ele><time>2026-04-17T03:21:08.001Z</time></trkpt><trkpt lat="14.530123086887375" lon="120.99318442621588"><ele>3.0</ele><time>2026-04-17T03:21:09.001Z</time></trkpt><trkpt lat="14.530023977435125" lon="120.99319319448105"><ele>3.8</ele><time>2026-04-17T03:21:10.001Z</time></trkpt><trkpt lat="14.52993052600159" lon="120.9932032006753"><ele>4.6</ele><time>2026-04-17T03:21:11.001Z</time></trkpt><trkpt lat="14.529848864452893" lon="120.99321226961489"><ele>5.3999999999999995</ele><time>2026-04-17T03:21:12.001Z</time></trkpt><trkpt lat="14.529786172713912" lon="120.99322063731812"><ele>6.199999999999999</ele><time>2026-04-17T03:21:13.001Z</time></trkpt><trkpt lat="14.529687004470958" lon="120.99322896995206"><ele>7.0</ele><time>2026-04-17T03:21:15.001Z</time></trkpt><trkpt lat="14.529610950227891" lon="120.99309876761693"><ele>7.000000000000001</ele><time>2026-04-17T03:21:17Z</time></trkpt><trkpt lat="14.529576160596775" lon="120.99303724649566"><ele>7.0</ele><time>2026-04-17T03:21:18Z</time></trkpt><trkpt lat="14.5295610042607" lon="120.99292589290627"><ele>7.0</ele><time>2026-04-17T03:21:20Z</time></trkpt><trkpt lat="14.529563227423102" lon="120.99282810647502"><ele>7.0</ele><time>2026-04-17T03:21:21Z</time></trkpt><trkpt lat="14.529558995781553" lon="120.99274262790367"><ele>7.000000000000001</ele><time>2026-04-17T03:21:22Z</time></trkpt><trkpt lat="14.529584311430671" lon="120.99267455166009"><ele>7.0</ele><time>2026-04-17T03:21:23Z</time></trkpt><trkpt lat="14.529574564257693" lon="120.99258600147073"><ele>6.666666666666667</ele><time>2026-04-17T03:21:24Z</time></trkpt><trkpt lat="14.529550329604328" lon="120.99251324318439"><ele>6.333333333333334</ele><time>2026-04-17T03:21:25Z</time></trkpt><trkpt lat="14.52956512083764" lon="120.9924317575667"><ele>6.0</ele><time>2026-04-17T03:21:26Z</time></trkpt><trkpt lat="14.529553359351091" lon="120.99235425003697"><ele>5.666666666666667</ele><time>2026-04-17T03:21:27Z</time></trkpt><trkpt lat="14.529546253084892" lon="120.9922414745093"><ele>5.333333333333334</ele><time>2026-04-17T03:21:29Z</time></trkpt><trkpt lat="14.529540564490262" lon="120.99217600621112"><ele>5.0</ele><time>2026-04-17T03:21:32Z</time></trkpt><trkpt lat="14.529523237613255" lon="120.99209719385811"><ele>4.8</ele><time>2026-04-17T03:22:02.001Z</time></trkpt><trkpt lat="14.52950239454948" lon="120.99196490760733"><ele>4.6</ele><time>2026-04-17T03:22:04.001Z</time></trkpt><trkpt lat="14.52949246449152" lon="120.991889404982"><ele>4.4</ele><time>2026-04-17T03:22:05.001Z</time></trkpt><trkpt lat="14.529482130279439" lon="120.99180642924114"><ele>4.2</ele><time>2026-04-17T03:22:06.001Z</time></trkpt><trkpt lat="14.52947206721182" lon="120.99171965362636"><ele>4.0</ele><time>2026-04-17T03:22:07.001Z</time></trkpt><trkpt lat="14.529456289437096" lon="120.99162241901058"><ele>3.9999999999999996</ele><time>2026-04-17T03:22:08.001Z</time></trkpt><trkpt lat="14.529444108335047" lon="120.99152620687937"><ele>4.0</ele><time>2026-04-17T03:22:09.001Z</time></trkpt><trkpt lat="14.529440192135612" lon="120.99143654173595"><ele>4.0</ele><time>2026-04-17T03:22:10.001Z</time></trkpt><trkpt lat="14.529433042191986" lon="120.99135092185828"><ele>4.0</ele><time>2026-04-17T03:22:12.001Z</time></trkpt><trkpt lat="14.529425439704932" lon="120.99126762577366"><ele>3.9999999999999996</ele><time>2026-04-17T03:22:14.001Z</time></trkpt><trkpt lat="14.529417731768762" lon="120.99119968912385"><ele>4.0</ele><time>2026-04-17T03:22:15.001Z</time></trkpt><trkpt lat="14.529414561802357" lon="120.99111722364077"><ele>3.9999999999999996</ele><time>2026-04-17T03:22:16.001Z</time></trkpt><trkpt lat="14.529411828215684" lon="120.99103424202252"><ele>4.0</ele><time>2026-04-17T03:22:17.001Z</time></trkpt><trkpt lat="14.529402157944846" lon="120.99094019489371"><ele>4.0</ele><time>2026-04-17T03:22:18.001Z</time></trkpt><trkpt lat="14.529391436515468" lon="120.99084829551977"><ele>4.0</ele><time>2026-04-17T03:22:19.001Z</time></trkpt><trkpt lat="14.529380910009857" lon="120.99074634552409"><ele>3.9999999999999996</ele><time>2026-04-17T03:22:20.001Z</time></trkpt><trkpt lat="14.529368695823237" lon="120.9906587540554"><ele>4.0</ele><time>2026-04-17T03:22:21.001Z</time></trkpt><trkpt lat="14.529360505890384" lon="120.9905769381888"><ele>3.8000000000000003</ele><time>2026-04-17T03:22:22.001Z</time></trkpt><trkpt lat="14.529353804006856" lon="120.99050093208002"><ele>3.6000000000000005</ele><time>2026-04-17T03:22:23.001Z</time></trkpt><trkpt lat="14.529343580693562" lon="120.99037167973886"><ele>3.4</ele><time>2026-04-17T03:22:25.001Z</time></trkpt><trkpt lat="14.529326736228116" lon="120.99024344544355"><ele>3.2</ele><time>2026-04-17T03:22:27.001Z</time></trkpt><trkpt lat="14.529314899699097" lon="120.99017216996891"><ele>3.0</ele><time>2026-04-17T03:22:28.001Z</time></trkpt><trkpt lat="14.529304181795867" lon="120.9900936537155"><ele>3.0</ele><time>2026-04-17T03:22:29.001Z</time></trkpt><trkpt lat="14.52929727062738" lon="120.99001979217063"><ele>3.0</ele><time>2026-04-17T03:22:30.001Z</time></trkpt><trkpt lat="14.529289474045314" lon="120.9899405999593"><ele>3.0</ele><time>2026-04-17T03:22:31.001Z</time></trkpt><trkpt lat="14.52927451037075" lon="120.9898730754244"><ele>3.0</ele><time>2026-04-17T03:22:32.001Z</time></trkpt><trkpt lat="14.529260047488114" lon="120.98980272501933"><ele>3.0</ele><time>2026-04-17T03:22:33.001Z</time></trkpt><trkpt lat="14.529250229046571" lon="120.98970793106534"><ele>3.0</ele><time>2026-04-17T03:22:34.001Z</time></trkpt><trkpt lat="14.529252785049943" lon="120.98962461674081"><ele>2.8333333333333335</ele><time>2026-04-17T03:22:35.001Z</time></trkpt><trkpt lat="14.529242866948001" lon="120.98953702270406"><ele>2.6666666666666665</ele><time>2026-04-17T03:22:36.001Z</time></trkpt><trkpt lat="14.529233337390144" lon="120.98944962658935"><ele>2.5</ele><time>2026-04-17T03:22:37.001Z</time></trkpt><trkpt lat="14.529223276269947" lon="120.98935487029665"><ele>2.333333333333333</ele><time>2026-04-17T03:22:38.001Z</time></trkpt><trkpt lat="14.52921364867894" lon="120.98926419707932"><ele>2.1666666666666665</ele><time>2026-04-17T03:22:39.001Z</time></trkpt><trkpt lat="14.529203529463459" lon="120.98916889365525"><ele>2.0</ele><time>2026-04-17T03:22:40.001Z</time></trkpt><trkpt lat="14.529176446187362" lon="120.98907448105231"><ele>2.0</ele><time>2026-04-17T03:22:41.001Z</time></trkpt><trkpt lat="14.529167425743186" lon="120.98897072777736"><ele>2.0</ele><time>2026-04-17T03:22:42.001Z</time></trkpt><trkpt lat="14.529155983030753" lon="120.98887165989123"><ele>2.0</ele><time>2026-04-17T03:22:43.001Z</time></trkpt><trkpt lat="14.529143988086913" lon="120.98876719565257"><ele>2.0</ele><time>2026-04-17T03:22:44.001Z</time></trkpt><trkpt lat="14.529126133767983" lon="120.98866583319311"><ele>2.0</ele><time>2026-04-17T03:22:45.001Z</time></trkpt><trkpt lat="14.529123934214077" lon="120.98856332413679"><ele>2.0</ele><time>2026-04-17T03:22:46.001Z</time></trkpt><trkpt lat="14.529112416296375" lon="120.98846754518341"><ele>2.0</ele><time>2026-04-17T03:22:47.001Z</time></trkpt><trkpt lat="14.529103788912135" lon="120.98837272876426"><ele>2.0</ele><time>2026-04-17T03:22:48.001Z</time></trkpt><trkpt lat="14.529099529198504" lon="120.98827811090459"><ele>2.0</ele><time>2026-04-17T03:22:49.001Z</time></trkpt><trkpt lat="14.52908591460568" lon="120.98817841663964"><ele>2.0</ele><time>2026-04-17T03:22:50.001Z</time></trkpt><trkpt lat="14.529074093632113" lon="120.98807573974466"><ele>2.0</ele><time>2026-04-17T03:22:51.001Z</time></trkpt><trkpt lat="14.529064344547848" lon="120.98796508138953"><ele>2.0</ele><time>2026-04-17T03:22:52.001Z</time></trkpt><trkpt lat="14.529050732736" lon="120.98785864525277"><ele>2.0</ele><time>2026-04-17T03:22:53.001Z</time></trkpt><trkpt lat="14.529042161968041" lon="120.98774570522747"><ele>2.0</ele><time>2026-04-17T03:22:54.001Z</time></trkpt><trkpt lat="14.529027246849765" lon="120.98763110656765"><ele>2.0</ele><time>2026-04-17T03:22:55.001Z</time></trkpt><trkpt lat="14.529008529412467" lon="120.9875225356373"><ele>3.75</ele><time>2026-04-17T03:22:56.001Z</time></trkpt><trkpt lat="14.528999530365773" lon="120.9874020349794"><ele>5.5</ele><time>2026-04-17T03:22:57.001Z</time></trkpt><trkpt lat="14.528995007354697" lon="120.98727952405623"><ele>7.25</ele><time>2026-04-17T03:22:58.001Z</time></trkpt><trkpt lat="14.52897936092958" lon="120.98716151936847"><ele>9.0</ele><time>2026-04-17T03:22:59.001Z</time></trkpt><trkpt lat="14.528967144433802" lon="120.98704252431652"><ele>9.0</ele><time>2026-04-17T03:23:00.001Z</time></trkpt><trkpt lat="14.528953655247765" lon="120.98692877927324"><ele>9.0</ele><time>2026-04-17T03:23:01.001Z</time></trkpt><trkpt lat="14.52893718920966" lon="120.98680663050264"><ele>9.0</ele><time>2026-04-17T03:23:02.001Z</time></trkpt><trkpt lat="14.528929058019365" lon="120.98668340165217"><ele>9.0</ele><time>2026-04-17T03:23:03.001Z</time></trkpt><trkpt lat="14.528920449502431" lon="120.98656377746937"><ele>8.0</ele><time>2026-04-17T03:23:04.001Z</time></trkpt><trkpt lat="14.528908922277697" lon="120.986440918062"><ele>7.0</ele><time>2026-04-17T03:23:05.001Z</time></trkpt><trkpt lat="14.528896537106553" lon="120.98632652621448"><ele>6.0</ele><time>2026-04-17T03:23:06.001Z</time></trkpt><trkpt lat="14.528887137261368" lon="120.98619681332987"><ele>5.0</ele><time>2026-04-17T03:23:07.001Z</time></trkpt><trkpt lat="14.52887407202456" lon="120.98608016570392"><ele>5.0</ele><time>2026-04-17T03:23:08.001Z</time></trkpt><trkpt lat="14.528863574951794" lon="120.98595993274509"><ele>5.0</ele><time>2026-04-17T03:23:09.001Z</time></trkpt><trkpt lat="14.528853659592542" lon="120.98583826998134"><ele>5.0</ele><time>2026-04-17T03:23:10.001Z</time></trkpt><trkpt lat="14.528839080256729" lon="120.98571825122413"><ele>5.0</ele><time>2026-04-17T03:23:11.001Z</time></trkpt><trkpt lat="14.52882169184121" lon="120.98561771749317"><ele>5.6</ele><time>2026-04-17T03:23:12.001Z</time></trkpt><trkpt lat="14.528808641732267" lon="120.98552183411452"><ele>6.2</ele><time>2026-04-17T03:23:13.001Z</time></trkpt><trkpt lat="14.52879600254647" lon="120.9854311884111"><ele>6.800000000000001</ele><time>2026-04-17T03:23:14.001Z</time></trkpt><trkpt lat="14.528784874033459" lon="120.98534981336553"><ele>7.4</ele><time>2026-04-17T03:23:15.001Z</time></trkpt><trkpt lat="14.528778124026537" lon="120.98527205928976"><ele>8.0</ele><time>2026-04-17T03:23:16.001Z</time></trkpt><trkpt lat="14.528763355648868" lon="120.98515279414796"><ele>7.999999999999999</ele><time>2026-04-17T03:23:18.001Z</time></trkpt><trkpt lat="14.528744674507898" lon="120.98503072542493"><ele>8.0</ele><time>2026-04-17T03:23:20.001Z</time></trkpt><trkpt lat="14.528731831779984" lon="120.98496222575471"><ele>8.0</ele><time>2026-04-17T03:23:21.001Z</time></trkpt><trkpt lat="14.528738646846824" lon="120.98489043991891"><ele>8.0</ele><time>2026-04-17T03:23:22Z</time></trkpt><trkpt lat="14.52873075833198" lon="120.9848228394073"><ele>7.999999999999999</ele><time>2026-04-17T03:23:23Z</time></trkpt><trkpt lat="14.528720166908833" lon="120.98472996078128"><ele>8.0</ele><time>2026-04-17T03:23:25Z</time></trkpt><trkpt lat="14.528506302611452" lon="120.98471970391056"><ele>7.4</ele><time>2026-04-17T03:23:26Z</time></trkpt><trkpt lat="14.528421910248825" lon="120.98472936767217"><ele>6.800000000000001</ele><time>2026-04-17T03:23:27Z</time></trkpt><trkpt lat="14.528335606600189" lon="120.98473869886132"><ele>6.2</ele><time>2026-04-17T03:23:28Z</time></trkpt><trkpt lat="14.528243601752143" lon="120.98474864646562"><ele>5.6</ele><time>2026-04-17T03:23:29Z</time></trkpt><trkpt lat="14.528142307406288" lon="120.9847512757639"><ele>5.0</ele><time>2026-04-17T03:23:30Z</time></trkpt><trkpt lat="14.528036204760447" lon="120.98476479705378"><ele>5.0</ele><time>2026-04-17T03:23:31Z</time></trkpt><trkpt lat="14.527921670465588" lon="120.98478224861854"><ele>5.0</ele><time>2026-04-17T03:23:32Z</time></trkpt><trkpt lat="14.527813574699483" lon="120.98479136782028"><ele>5.0</ele><time>2026-04-17T03:23:33Z</time></trkpt><trkpt lat="14.527694430887566" lon="120.98480569584702"><ele>5.0</ele><time>2026-04-17T03:23:34Z</time></trkpt><trkpt lat="14.527572197495278" lon="120.98481895207179"><ele>3.5</ele><time>2026-04-17T03:23:35Z</time></trkpt><trkpt lat="14.527445354367513" lon="120.98483547215847"><ele>2.0</ele><time>2026-04-17T03:23:36Z</time></trkpt><trkpt lat="14.527324967119442" lon="120.9848480959097"><ele>0.5</ele><time>2026-04-17T03:23:37Z</time></trkpt><trkpt lat="14.527197767681658" lon="120.98486453670216"><ele>-1.0</ele><time>2026-04-17T03:23:38Z</time></trkpt><trkpt lat="14.527069646175296" lon="120.98487961933965"><ele>-0.25</ele><time>2026-04-17T03:23:39Z</time></trkpt><trkpt lat="14.526944203683135" lon="120.98489156114326"><ele>0.5</ele><time>2026-04-17T03:23:40Z</time></trkpt><trkpt lat="14.526816446128262" lon="120.98490473379677"><ele>1.25</ele><time>2026-04-17T03:23:41Z</time></trkpt><trkpt lat="14.526687114489244" lon="120.98492145840638"><ele>2.0</ele><time>2026-04-17T03:23:42Z</time></trkpt><trkpt lat="14.526555829918234" lon="120.98493819131389"><ele>2.0</ele><time>2026-04-17T03:23:43Z</time></trkpt><trkpt lat="14.526426713168316" lon="120.9849516952235"><ele>2.0</ele><time>2026-04-17T03:23:44Z</time></trkpt><trkpt lat="14.526295429347872" lon="120.98496601763136"><ele>2.0</ele><time>2026-04-17T03:23:45Z</time></trkpt><trkpt lat="14.52616492520967" lon="120.98497870382435"><ele>2.0</ele><time>2026-04-17T03:23:46Z</time></trkpt><trkpt lat="14.52602946291672" lon="120.98499703757743"><ele>2.0</ele><time>2026-04-17T03:23:47Z</time></trkpt><trkpt lat="14.525896631352861" lon="120.98500612222847"><ele>2.0</ele><time>2026-04-17T03:23:48Z</time></trkpt><trkpt lat="14.525760612035985" lon="120.98502118508415"><ele>2.0</ele><time>2026-04-17T03:23:49Z</time></trkpt><trkpt lat="14.525625990051799" lon="120.98503384877415"><ele>2.0</ele><time>2026-04-17T03:23:50Z</time></trkpt><trkpt lat="14.525493788514659" lon="120.98505302107172"><ele>1.4000000000000001</ele><time>2026-04-17T03:23:51Z</time></trkpt><trkpt lat="14.52537287984499" lon="120.98506693330587"><ele>0.8000000000000002</ele><time>2026-04-17T03:23:52Z</time></trkpt><trkpt lat="14.525260374918217" lon="120.98508024022291"><ele>0.19999999999999996</ele><time>2026-04-17T03:23:53Z</time></trkpt><trkpt lat="14.525158737447407" lon="120.98508764139486"><ele>-0.4</ele><time>2026-04-17T03:23:54Z</time></trkpt><trkpt lat="14.525058168409887" lon="120.98510167261861"><ele>-1.0</ele><time>2026-04-17T03:23:55Z</time></trkpt><trkpt lat="14.524966038040638" lon="120.98511181345863"><ele>-1.0</ele><time>2026-04-17T03:23:56Z</time></trkpt><trkpt lat="14.524874551983075" lon="120.98512141302264"><ele>-1.0</ele><time>2026-04-17T03:23:57Z</time></trkpt><trkpt lat="14.524793912465183" lon="120.98512668939662"><ele>-1.0</ele><time>2026-04-17T03:23:58Z</time></trkpt><trkpt lat="14.524715951086552" lon="120.98517341653213"><ele>-1.0</ele><time>2026-04-17T03:24:00Z</time></trkpt><trkpt lat="14.52468118940295" lon="120.98503693623456"><ele>-1.0</ele><time>2026-04-17T03:24:01Z</time></trkpt><trkpt lat="14.524673691803368" lon="120.98496076241811"><ele>0.16666666666666674</ele><time>2026-04-17T03:24:02Z</time></trkpt><trkpt lat="14.524666092463166" lon="120.98488416382321"><ele>1.3333333333333335</ele><time>2026-04-17T03:24:03Z</time></trkpt><trkpt lat="14.524649233729487" lon="120.9848012785174"><ele>2.5</ele><time>2026-04-17T03:24:04Z</time></trkpt><trkpt lat="14.524655080255833" lon="120.9847104306354"><ele>3.6666666666666665</ele><time>2026-04-17T03:24:05Z</time></trkpt><trkpt lat="14.52465587844671" lon="120.98461658264232"><ele>4.833333333333333</ele><time>2026-04-17T03:24:06Z</time></trkpt><trkpt lat="14.524654835325464" lon="120.98452029122743"><ele>6.0</ele><time>2026-04-17T03:24:07Z</time></trkpt><trkpt lat="14.52465104658458" lon="120.9844191221979"><ele>6.0</ele><time>2026-04-17T03:24:08Z</time></trkpt><trkpt lat="14.524627483905332" lon="120.98433318194635"><ele>6.0</ele><time>2026-04-17T03:24:09Z</time></trkpt><trkpt lat="14.524620129577139" lon="120.98425920410448"><ele>6.0</ele><time>2026-04-17T03:24:10Z</time></trkpt><trkpt lat="14.524613359868656" lon="120.98419016475837"><ele>6.0</ele><time>2026-04-17T03:24:11Z</time></trkpt><trkpt lat="14.524606589468613" lon="120.98411956743288"><ele>6.0</ele><time>2026-04-17T03:24:12Z</time></trkpt><trkpt lat="14.524599588678639" lon="120.98404866482818"><ele>6.0</ele><time>2026-04-17T03:24:13Z</time></trkpt><trkpt lat="14.524587869767618" lon="120.98393186522333"><ele>6.166666666666667</ele><time>2026-04-17T03:24:15Z</time></trkpt><trkpt lat="14.524579070375259" lon="120.98384418858788"><ele>6.333333333333334</ele><time>2026-04-17T03:24:17.001Z</time></trkpt><trkpt lat="14.524571195648896" lon="120.9837657252682"><ele>6.5</ele><time>2026-04-17T03:24:19.001Z</time></trkpt><trkpt lat="14.524563601827397" lon="120.98369006086654"><ele>6.666666666666667</ele><time>2026-04-17T03:24:37.001Z</time></trkpt><trkpt lat="14.524572121397796" lon="120.98360906241119"><ele>6.833333333333334</ele><time>2026-04-17T03:24:39.001Z</time></trkpt><trkpt lat="14.524529953736666" lon="120.98349634498663"><ele>7.0</ele><time>2026-04-17T03:24:41.001Z</time></trkpt><trkpt lat="14.524510220029802" lon="120.98342927574775"><ele>6.833333333333334</ele><time>2026-04-17T03:24:42.001Z</time></trkpt><trkpt lat="14.524512539271472" lon="120.98334932657309"><ele>6.666666666666667</ele><time>2026-04-17T03:24:43.001Z</time></trkpt><trkpt lat="14.52450414619072" lon="120.98326212154848"><ele>6.5</ele><time>2026-04-17T03:24:44.001Z</time></trkpt><trkpt lat="14.52449396880359" lon="120.98315823867057"><ele>6.333333333333334</ele><time>2026-04-17T03:24:45.001Z</time></trkpt><trkpt lat="14.524483500527523" lon="120.98306321895446"><ele>6.166666666666667</ele><time>2026-04-17T03:24:46.001Z</time></trkpt><trkpt lat="14.524473750930825" lon="120.9829767768504"><ele>6.0</ele><time>2026-04-17T03:24:47.001Z</time></trkpt><trkpt lat="14.524408590865285" lon="120.98290425750187"><ele>6.0</ele><time>2026-04-17T03:24:48.001Z</time></trkpt><trkpt lat="14.524397972937454" lon="120.98283610014785"><ele>6.0</ele><time>2026-04-17T03:24:49.001Z</time></trkpt><trkpt lat="14.524384133057323" lon="120.98276192874697"><ele>6.0</ele><time>2026-04-17T03:24:50.001Z</time></trkpt><trkpt lat="14.52438036248864" lon="120.9826939746669"><ele>6.0</ele><time>2026-04-17T03:24:51.001Z</time></trkpt><trkpt lat="14.524359571660646" lon="120.98261835423662"><ele>6.0</ele><time>2026-04-17T03:24:53.001Z</time></trkpt><trkpt lat="14.52442877513773" lon="120.982569651434"><ele>6.0</ele><time>2026-04-17T03:24:58.001Z</time></trkpt><trkpt lat="14.524317220258126" lon="120.98257013505057"><ele>6.0</ele><time>2026-04-17T03:25:03.001Z</time></trkpt><trkpt lat="14.524210824873736" lon="120.98257389987958"><ele>6.0</ele><time>2026-04-17T03:25:14.001Z</time></trkpt><trkpt lat="14.524118897295931" lon="120.9825700359943"><ele>6.0</ele><time>2026-04-17T03:25:16.001Z</time></trkpt><trkpt lat="14.524047159743416" lon="120.98257037921739"><ele>6.0</ele><time>2026-04-17T03:25:18.001Z</time></trkpt><trkpt lat="14.523937370537032" lon="120.98259327306424"><ele>6.0</ele><time>2026-04-17T03:25:20.001Z</time></trkpt><trkpt lat="14.523832264879903" lon="120.98260460569544"><ele>6.0</ele><time>2026-04-17T03:25:22.001Z</time></trkpt><trkpt lat="14.52374520665067" lon="120.9826139924291"><ele>6.0</ele><time>2026-04-17T03:25:24.001Z</time></trkpt><trkpt lat="14.523661973090704" lon="120.98262296678251"><ele>6.0</ele><time>2026-04-17T03:25:27.001Z</time></trkpt><trkpt lat="14.523595493351868" lon="120.98256396165948"><ele>6.0</ele><time>2026-04-17T03:42:04.002Z</time></trkpt><trkpt lat="14.523546104512182" lon="120.98252295940554"><ele>6.0</ele><time>2026-04-17T03:42:15.002Z</time></trkpt><trkpt lat="14.523495086452991" lon="120.98239506917385"><ele>7.5</ele><time>2026-04-17T03:43:59.002Z</time></trkpt><trkpt lat="14.523546356784212" lon="120.98243809835677"><ele>9.0</ele><time>2026-04-17T03:45:57.002Z</time></trkpt><trkpt lat="14.523541135985809" lon="120.98250356647326"><ele>10.5</ele><time>2026-04-17T03:46:11.002Z</time></trkpt><trkpt lat="14.523597650544076" lon="120.98255703079661"><ele>12.0</ele><time>2026-04-17T03:48:42.001Z</time></trkpt><trkpt lat="14.523531465038753" lon="120.98263041509529"><ele>13.5</ele><time>2026-04-17T03:49:02.001Z</time></trkpt><trkpt lat="14.523464213107792" lon="120.98265982834853"><ele>15.0</ele><time>2026-04-17T03:49:04.001Z</time></trkpt><trkpt lat="14.52336108866524" lon="120.98268202788702"><ele>15.2</ele><time>2026-04-17T03:49:06.001Z</time></trkpt><trkpt lat="14.523295703722603" lon="120.98269083238603"><ele>15.4</ele><time>2026-04-17T03:49:07.001Z</time></trkpt><trkpt lat="14.523162772068465" lon="120.98271669999366"><ele>15.600000000000001</ele><time>2026-04-17T03:49:09.001Z</time></trkpt><trkpt lat="14.523089706830792" lon="120.9827041888096"><ele>15.8</ele><time>2026-04-17T03:49:10.001Z</time></trkpt><trkpt lat="14.523028279235398" lon="120.98272383271177"><ele>16.0</ele><time>2026-04-17T03:49:11.001Z</time></trkpt><trkpt lat="14.522911462223963" lon="120.98275244954276"><ele>15.166666666666666</ele><time>2026-04-17T03:49:13.001Z</time></trkpt><trkpt lat="14.522818647969386" lon="120.98278407042488"><ele>14.333333333333332</ele><time>2026-04-17T03:49:15.001Z</time></trkpt><trkpt lat="14.522813160761105" lon="120.982850283701"><ele>13.5</ele><time>2026-04-17T03:49:16.001Z</time></trkpt><trkpt lat="14.52282185660664" lon="120.98297460788571"><ele>12.666666666666666</ele><time>2026-04-17T03:49:18.001Z</time></trkpt><trkpt lat="14.52283870176758" lon="120.98304355251867"><ele>11.833333333333332</ele><time>2026-04-17T03:49:19.001Z</time></trkpt><trkpt lat="14.522857959812127" lon="120.9831289282709"><ele>11.0</ele><time>2026-04-17T03:49:20.001Z</time></trkpt><trkpt lat="14.522879056792561" lon="120.98320343434658"><ele>11.833333333333332</ele><time>2026-04-17T03:49:21.001Z</time></trkpt><trkpt lat="14.522898215382499" lon="120.98327513382945"><ele>12.666666666666666</ele><time>2026-04-17T03:49:22.001Z</time></trkpt><trkpt lat="14.522917498186695" lon="120.9833525995688"><ele>13.5</ele><time>2026-04-17T03:49:23.001Z</time></trkpt><trkpt lat="14.522932336537986" lon="120.98343496963533"><ele>14.333333333333332</ele><time>2026-04-17T03:49:24.001Z</time></trkpt><trkpt lat="14.522946422465873" lon="120.98352065480118"><ele>15.166666666666666</ele><time>2026-04-17T03:49:25.001Z</time></trkpt><trkpt lat="14.522953855031124" lon="120.98359700685965"><ele>16.0</ele><time>2026-04-17T03:49:26.001Z</time></trkpt><trkpt lat="14.52294501232005" lon="120.98367233756424"><ele>13.4</ele><time>2026-04-17T03:49:27.001Z</time></trkpt><trkpt lat="14.522947505496404" lon="120.98376861809874"><ele>10.8</ele><time>2026-04-17T03:49:28.001Z</time></trkpt><trkpt lat="14.522975060236183" lon="120.98385320686542"><ele>8.2</ele><time>2026-04-17T03:49:29.001Z</time></trkpt><trkpt lat="14.522980430325275" lon="120.98394967739952"><ele>5.6</ele><time>2026-04-17T03:49:30.001Z</time></trkpt><trkpt lat="14.522993191951297" lon="120.98404921438568"><ele>3.0</ele><time>2026-04-17T03:49:31.001Z</time></trkpt><trkpt lat="14.523005781573715" lon="120.98415774432418"><ele>2.6</ele><time>2026-04-17T03:49:32.001Z</time></trkpt><trkpt lat="14.523009981174797" lon="120.98425784470375"><ele>2.1999999999999997</ele><time>2026-04-17T03:49:33.001Z</time></trkpt><trkpt lat="14.523066049048547" lon="120.98434234068996"><ele>1.8</ele><time>2026-04-17T03:49:34.001Z</time></trkpt><trkpt lat="14.52307325754475" lon="120.98441181880914"><ele>1.4</ele><time>2026-04-17T03:49:35.001Z</time></trkpt><trkpt lat="14.523104002689816" lon="120.9845137959944"><ele>1.0</ele><time>2026-04-17T03:49:36.001Z</time></trkpt><trkpt lat="14.523109324374365" lon="120.98461212641232"><ele>1.0</ele><time>2026-04-17T03:49:37.001Z</time></trkpt><trkpt lat="14.52311209304582" lon="120.98470958847528"><ele>1.0</ele><time>2026-04-17T03:49:38.001Z</time></trkpt><trkpt lat="14.523115126701285" lon="120.98479541302987"><ele>1.0</ele><time>2026-04-17T03:49:39.001Z</time></trkpt><trkpt lat="14.523122707613185" lon="120.9848738143106"><ele>1.0</ele><time>2026-04-17T03:49:40.001Z</time></trkpt><trkpt lat="14.523140146307384" lon="120.98502769079796"><ele>1.0</ele><time>2026-04-17T03:49:42.001Z</time></trkpt><trkpt lat="14.523129034655279" lon="120.98510492079001"><ele>1.4</ele><time>2026-04-17T03:49:43.001Z</time></trkpt><trkpt lat="14.52314963956422" lon="120.98520659996068"><ele>1.8</ele><time>2026-04-17T03:49:45.001Z</time></trkpt><trkpt lat="14.52316161993862" lon="120.98527727939761"><ele>2.1999999999999997</ele><time>2026-04-17T03:49:47.001Z</time></trkpt><trkpt lat="14.523117504527258" lon="120.98536037802565"><ele>2.6</ele><time>2026-04-17T03:49:51.001Z</time></trkpt><trkpt lat="14.523004643008356" lon="120.98539430556681"><ele>3.0</ele><time>2026-04-17T03:49:53.001Z</time></trkpt><trkpt lat="14.522930791275758" lon="120.98539895759693"><ele>2.4</ele><time>2026-04-17T03:49:54.001Z</time></trkpt><trkpt lat="14.522844221250779" lon="120.98539568499623"><ele>1.7999999999999998</ele><time>2026-04-17T03:49:55.001Z</time></trkpt><trkpt lat="14.522749243655483" lon="120.98537774727481"><ele>1.2</ele><time>2026-04-17T03:49:56.001Z</time></trkpt><trkpt lat="14.522656101923502" lon="120.9853483568601"><ele>0.6</ele><time>2026-04-17T03:49:57.001Z</time></trkpt><trkpt lat="14.522556232211336" lon="120.98531733514488"><ele>0.0</ele><time>2026-04-17T03:49:58.001Z</time></trkpt><trkpt lat="14.522470689112078" lon="120.98522861902039"><ele>0.0</ele><time>2026-04-17T03:49:59.001Z</time></trkpt><trkpt lat="14.522353488098986" lon="120.98520195321701"><ele>0.0</ele><time>2026-04-17T03:50:00.001Z</time></trkpt><trkpt lat="14.522244963153447" lon="120.98517163502223"><ele>0.0</ele><time>2026-04-17T03:50:01.001Z</time></trkpt><trkpt lat="14.522144302276168" lon="120.98510426010856"><ele>0.0</ele><time>2026-04-17T03:50:02.002Z</time></trkpt><trkpt lat="14.52207025307824" lon="120.9850138752117"><ele>-0.25</ele><time>2026-04-17T03:50:03.002Z</time></trkpt><trkpt lat="14.521978003008194" lon="120.98492042879694"><ele>-0.5</ele><time>2026-04-17T03:50:04.002Z</time></trkpt><trkpt lat="14.521899122309332" lon="120.98481592019883"><ele>-0.75</ele><time>2026-04-17T03:50:05.002Z</time></trkpt><trkpt lat="14.521809319246524" lon="120.9847083224902"><ele>-1.0</ele><time>2026-04-17T03:50:06.002Z</time></trkpt><trkpt lat="14.521719106615462" lon="120.98460023404954"><ele>-1.0</ele><time>2026-04-17T03:50:07.002Z</time></trkpt><trkpt lat="14.521627119832104" lon="120.98448976392778"><ele>-1.0</ele><time>2026-04-17T03:50:08.002Z</time></trkpt><trkpt lat="14.521532934145839" lon="120.98437652458888"><ele>-1.0</ele><time>2026-04-17T03:50:09.002Z</time></trkpt><trkpt lat="14.521436112804846" lon="120.98426022077821"><ele>-1.0</ele><time>2026-04-17T03:50:10.002Z</time></trkpt><trkpt lat="14.52133820061278" lon="120.98414340723399"><ele>-1.0</ele><time>2026-04-17T03:50:11.002Z</time></trkpt><trkpt lat="14.521239026893436" lon="120.98402434954636"><ele>-1.0</ele><time>2026-04-17T03:50:12.002Z</time></trkpt><trkpt lat="14.521138991968504" lon="120.98390413987927"><ele>-1.0</ele><time>2026-04-17T03:50:13.002Z</time></trkpt><trkpt lat="14.521036669183479" lon="120.98378118094615"><ele>-3.333333333333333</ele><time>2026-04-17T03:50:14.002Z</time></trkpt><trkpt lat="14.520933530534245" lon="120.983657241607"><ele>-5.666666666666666</ele><time>2026-04-17T03:50:15.002Z</time></trkpt><trkpt lat="14.520818974942275" lon="120.98354146142331"><ele>-8.0</ele><time>2026-04-17T03:50:16.002Z</time></trkpt><trkpt lat="14.520719757185613" lon="120.9834306197875"><ele>-7.5</ele><time>2026-04-17T03:50:17.002Z</time></trkpt><trkpt lat="14.520624094123452" lon="120.98333358848276"><ele>-7.0</ele><time>2026-04-17T03:50:18.002Z</time></trkpt><trkpt lat="14.520524241084471" lon="120.98323967067877"><ele>-6.5</ele><time>2026-04-17T03:50:19.002Z</time></trkpt><trkpt lat="14.52041856628754" lon="120.9831450790583"><ele>-6.0</ele><time>2026-04-17T03:50:20.002Z</time></trkpt><trkpt lat="14.520308104055937" lon="120.98305146178426"><ele>-5.333333333333333</ele><time>2026-04-17T03:50:21.002Z</time></trkpt><trkpt lat="14.520191911574837" lon="120.98296009921405"><ele>-4.666666666666666</ele><time>2026-04-17T03:50:22.002Z</time></trkpt><trkpt lat="14.520068711666537" lon="120.98287016403307"><ele>-4.0</ele><time>2026-04-17T03:50:23.002Z</time></trkpt><trkpt lat="14.519932590890374" lon="120.98278999275375"><ele>-4.0</ele><time>2026-04-17T03:50:24.002Z</time></trkpt><trkpt lat="14.519796477932205" lon="120.9827138711975"><ele>-4.0</ele><time>2026-04-17T03:50:25.002Z</time></trkpt><trkpt lat="14.519658933466143" lon="120.98263909014825"><ele>-4.0</ele><time>2026-04-17T03:50:26.002Z</time></trkpt><trkpt lat="14.519518834861394" lon="120.98256466799128"><ele>-2.5</ele><time>2026-04-17T03:50:27.002Z</time></trkpt><trkpt lat="14.519380989077385" lon="120.98250077645916"><ele>-1.0</ele><time>2026-04-17T03:50:28.002Z</time></trkpt><trkpt lat="14.519257044834601" lon="120.98244127900998"><ele>0.5</ele><time>2026-04-17T03:50:29.002Z</time></trkpt><trkpt lat="14.51914755258725" lon="120.9823725703466"><ele>2.0</ele><time>2026-04-17T03:50:30.002Z</time></trkpt><trkpt lat="14.519042881651949" lon="120.98231980771516"><ele>2.0</ele><time>2026-04-17T03:50:31.002Z</time></trkpt><trkpt lat="14.5189391622711" lon="120.98225882522519"><ele>2.0</ele><time>2026-04-17T03:50:32.002Z</time></trkpt><trkpt lat="14.51882520625896" lon="120.98220101340831"><ele>2.0</ele><time>2026-04-17T03:50:33.002Z</time></trkpt><trkpt lat="14.518720966321775" lon="120.98213590457377"><ele>2.0</ele><time>2026-04-17T03:50:34.002Z</time></trkpt><trkpt lat="14.518614715621782" lon="120.98208714175199"><ele>2.2</ele><time>2026-04-17T03:50:35.002Z</time></trkpt><trkpt lat="14.5185234771528" lon="120.98203698311912"><ele>2.4000000000000004</ele><time>2026-04-17T03:50:36.002Z</time></trkpt><trkpt lat="14.518436170426186" lon="120.98199140898602"><ele>2.5999999999999996</ele><time>2026-04-17T03:50:37.002Z</time></trkpt><trkpt lat="14.518349950059305" lon="120.98193404308127"><ele>2.8</ele><time>2026-04-17T03:50:38.002Z</time></trkpt><trkpt lat="14.518260810627071" lon="120.98186309262536"><ele>3.0</ele><time>2026-04-17T03:50:39.002Z</time></trkpt><trkpt lat="14.518167250773939" lon="120.9817825057858"><ele>3.0</ele><time>2026-04-17T03:50:40.001Z</time></trkpt><trkpt lat="14.518070527051602" lon="120.9817026709118"><ele>3.0</ele><time>2026-04-17T03:50:41.001Z</time></trkpt><trkpt lat="14.517965833547851" lon="120.98162207521322"><ele>3.0</ele><time>2026-04-17T03:50:42.001Z</time></trkpt><trkpt lat="14.51786684321539" lon="120.98153815572333"><ele>3.0</ele><time>2026-04-17T03:50:43.001Z</time></trkpt><trkpt lat="14.517767254497793" lon="120.98145525704987"><ele>2.4</ele><time>2026-04-17T03:50:44.001Z</time></trkpt><trkpt lat="14.517674277039058" lon="120.98137501683793"><ele>1.7999999999999998</ele><time>2026-04-17T03:50:45.001Z</time></trkpt><trkpt lat="14.517585739152091" lon="120.98129823511833"><ele>1.2</ele><time>2026-04-17T03:50:46.001Z</time></trkpt><trkpt lat="14.517527669853887" lon="120.98121628563759"><ele>0.6</ele><time>2026-04-17T03:50:47.001Z</time></trkpt><trkpt lat="14.51746238713129" lon="120.98114324948556"><ele>0.0</ele><time>2026-04-17T03:50:48.001Z</time></trkpt><trkpt lat="14.517407113700342" lon="120.98108416183541"><ele>0.0</ele><time>2026-04-17T03:50:49.001Z</time></trkpt><trkpt lat="14.517358149595973" lon="120.98103411544471"><ele>0.0</ele><time>2026-04-17T03:50:50.001Z</time></trkpt><trkpt lat="14.517305889805698" lon="120.9809807005203"><ele>0.0</ele><time>2026-04-17T03:50:52.001Z</time></trkpt><trkpt lat="14.517260696269574" lon="120.98093318792296"><ele>0.0</ele><time>2026-04-17T03:51:51.001Z</time></trkpt><trkpt lat="14.517191706043384" lon="120.98088360430566"><ele>0.0</ele><time>2026-04-17T03:51:53.001Z</time></trkpt><trkpt lat="14.51695341777678" lon="120.9809865851308"><ele>0.0</ele><time>2026-04-17T03:51:54.001Z</time></trkpt><trkpt lat="14.516910101066399" lon="120.9810477765853"><ele>0.0</ele><time>2026-04-17T03:51:55.001Z</time></trkpt><trkpt lat="14.51683187299186" lon="120.98109697116246"><ele>0.0</ele><time>2026-04-17T03:51:56.001Z</time></trkpt><trkpt lat="14.516769091413382" lon="120.98116815033522"><ele>0.0</ele><time>2026-04-17T03:51:57.001Z</time></trkpt><trkpt lat="14.516701365480897" lon="120.9812413543878"><ele>0.0</ele><time>2026-04-17T03:51:58.001Z</time></trkpt><trkpt lat="14.516620584570111" lon="120.98132708261197"><ele>0.0</ele><time>2026-04-17T03:51:59.001Z</time></trkpt><trkpt lat="14.516536821335867" lon="120.98142218634952"><ele>0.0</ele><time>2026-04-17T03:52:00.001Z</time></trkpt><trkpt lat="14.516466497780575" lon="120.98151158595817"><ele>0.0</ele><time>2026-04-17T03:52:01.001Z</time></trkpt><trkpt lat="14.516386279321456" lon="120.98161595845204"><ele>0.0</ele><time>2026-04-17T03:52:02.001Z</time></trkpt><trkpt lat="14.516308117432132" lon="120.98171852518996"><ele>0.25</ele><time>2026-04-17T03:52:03.001Z</time></trkpt><trkpt lat="14.51622329945423" lon="120.98182643690407"><ele>0.5</ele><time>2026-04-17T03:52:04.001Z</time></trkpt><trkpt lat="14.516151505960595" lon="120.98195600417579"><ele>0.75</ele><time>2026-04-17T03:52:05.001Z</time></trkpt><trkpt lat="14.51606772529695" lon="120.98207605036183"><ele>1.0</ele><time>2026-04-17T03:52:06.002Z</time></trkpt><trkpt lat="14.515970490102319" lon="120.98219315115256"><ele>1.0</ele><time>2026-04-17T03:52:07.002Z</time></trkpt><trkpt lat="14.515891647560013" lon="120.98232960849673"><ele>1.0</ele><time>2026-04-17T03:52:08.002Z</time></trkpt><trkpt lat="14.515818060349359" lon="120.98247186190453"><ele>1.0</ele><time>2026-04-17T03:52:09.002Z</time></trkpt><trkpt lat="14.515750763893118" lon="120.98261400112438"><ele>0.6666666666666666</ele><time>2026-04-17T03:52:10.002Z</time></trkpt><trkpt lat="14.515674903373878" lon="120.98276428308913"><ele>0.3333333333333333</ele><time>2026-04-17T03:52:11.002Z</time></trkpt><trkpt lat="14.515600129666947" lon="120.98291284822841"><ele>0.0</ele><time>2026-04-17T03:52:12.002Z</time></trkpt><trkpt lat="14.515529912731477" lon="120.98305737516449"><ele>0.0</ele><time>2026-04-17T03:52:13.002Z</time></trkpt><trkpt lat="14.51546546950632" lon="120.98319013445624"><ele>0.0</ele><time>2026-04-17T03:52:14.002Z</time></trkpt><trkpt lat="14.515408097545377" lon="120.98332062362887"><ele>0.0</ele><time>2026-04-17T03:52:15.002Z</time></trkpt><trkpt lat="14.515367360817086" lon="120.98344313616161"><ele>0.0</ele><time>2026-04-17T03:52:16.002Z</time></trkpt><trkpt lat="14.515334230804687" lon="120.98356731083845"><ele>0.25</ele><time>2026-04-17T03:52:17.002Z</time></trkpt><trkpt lat="14.51531064483215" lon="120.98368521648646"><ele>0.5</ele><time>2026-04-17T03:52:18.002Z</time></trkpt><trkpt lat="14.515300863423134" lon="120.9838165372431"><ele>0.75</ele><time>2026-04-17T03:52:19.002Z</time></trkpt><trkpt lat="14.515309386865418" lon="120.98394741954093"><ele>1.0</ele><time>2026-04-17T03:52:20.002Z</time></trkpt><trkpt lat="14.515340337639435" lon="120.9840836408781"><ele>1.0</ele><time>2026-04-17T03:52:21.002Z</time></trkpt><trkpt lat="14.515361844315287" lon="120.98421084963515"><ele>1.0</ele><time>2026-04-17T03:52:22.002Z</time></trkpt><trkpt lat="14.51542288920286" lon="120.98433424045554"><ele>1.0</ele><time>2026-04-17T03:52:23.002Z</time></trkpt><trkpt lat="14.515498341111046" lon="120.98445297555314"><ele>1.0</ele><time>2026-04-17T03:52:24.002Z</time></trkpt><trkpt lat="14.515599675768303" lon="120.98456160489525"><ele>1.0</ele><time>2026-04-17T03:52:25.002Z</time></trkpt><trkpt lat="14.515723457977419" lon="120.98463575942125"><ele>1.0</ele><time>2026-04-17T03:52:26.002Z</time></trkpt><trkpt lat="14.515846014427018" lon="120.98471635190502"><ele>1.0</ele><time>2026-04-17T03:52:27.002Z</time></trkpt><trkpt lat="14.515988877553399" lon="120.98477032492772"><ele>1.0</ele><time>2026-04-17T03:52:28.002Z</time></trkpt><trkpt lat="14.516139041672949" lon="120.98481231845831"><ele>1.0</ele><time>2026-04-17T03:52:29.002Z</time></trkpt><trkpt lat="14.516291148044814" lon="120.98485513573256"><ele>1.0</ele><time>2026-04-17T03:52:30.002Z</time></trkpt><trkpt lat="14.516445233205038" lon="120.98490536898305"><ele>1.0</ele><time>2026-04-17T03:52:31.002Z</time></trkpt><trkpt lat="14.516600073345694" lon="120.98495640409011"><ele>1.0</ele><time>2026-04-17T03:52:32.002Z</time></trkpt><trkpt lat="14.516756117727097" lon="120.98500289278174"><ele>1.0</ele><time>2026-04-17T03:52:33.002Z</time></trkpt><trkpt lat="14.516901649651587" lon="120.98506471841296"><ele>1.0</ele><time>2026-04-17T03:52:34.002Z</time></trkpt><trkpt lat="14.517036987203937" lon="120.98514376039812"><ele>2.0</ele><time>2026-04-17T03:52:35.002Z</time></trkpt><trkpt lat="14.517155656946283" lon="120.98524036593346"><ele>3.0</ele><time>2026-04-17T03:52:36.002Z</time></trkpt><trkpt lat="14.517256578732152" lon="120.98535059054628"><ele>4.0</ele><time>2026-04-17T03:52:37.002Z</time></trkpt><trkpt lat="14.51732904971032" lon="120.98547609551318"><ele>5.0</ele><time>2026-04-17T03:52:38.002Z</time></trkpt><trkpt lat="14.51737959027055" lon="120.98561077678725"><ele>5.0</ele><time>2026-04-17T03:52:39.002Z</time></trkpt><trkpt lat="14.51740428320869" lon="120.98575090184866"><ele>5.0</ele><time>2026-04-17T03:52:40.002Z</time></trkpt><trkpt lat="14.517409256646552" lon="120.98589584568798"><ele>5.0</ele><time>2026-04-17T03:52:41.002Z</time></trkpt><trkpt lat="14.517415424305446" lon="120.98603752870449"><ele>5.0</ele><time>2026-04-17T03:52:42.002Z</time></trkpt><trkpt lat="14.517404323012263" lon="120.98619220251041"><ele>4.75</ele><time>2026-04-17T03:52:43.002Z</time></trkpt><trkpt lat="14.51739708633627" lon="120.98634441993308"><ele>4.5</ele><time>2026-04-17T03:52:44.002Z</time></trkpt><trkpt lat="14.51738912557093" lon="120.98649939606345"><ele>4.25</ele><time>2026-04-17T03:52:45.002Z</time></trkpt><trkpt lat="14.51737745268895" lon="120.98665558913137"><ele>4.0</ele><time>2026-04-17T03:52:46.001Z</time></trkpt><trkpt lat="14.517362559869657" lon="120.98681117797335"><ele>3.6666666666666665</ele><time>2026-04-17T03:52:47.001Z</time></trkpt><trkpt lat="14.517347664576482" lon="120.98696679261734"><ele>3.333333333333333</ele><time>2026-04-17T03:52:48.001Z</time></trkpt><trkpt lat="14.517302540356019" lon="120.98711829208068"><ele>3.0</ele><time>2026-04-17T03:52:49.001Z</time></trkpt><trkpt lat="14.517290780145647" lon="120.98727055083643"><ele>3.0</ele><time>2026-04-17T03:52:50.001Z</time></trkpt><trkpt lat="14.517280139145678" lon="120.98742140585861"><ele>3.0</ele><time>2026-04-17T03:52:51.001Z</time></trkpt><trkpt lat="14.517267072797805" lon="120.98757786577728"><ele>3.0</ele><time>2026-04-17T03:52:52.001Z</time></trkpt><trkpt lat="14.517252815877887" lon="120.98773510809448"><ele>3.0</ele><time>2026-04-17T03:52:53.001Z</time></trkpt><trkpt lat="14.517238471159637" lon="120.9878976129388"><ele>3.0</ele><time>2026-04-17T03:52:54.001Z</time></trkpt><trkpt lat="14.517222799985916" lon="120.98805646551352"><ele>3.0</ele><time>2026-04-17T03:52:55.001Z</time></trkpt><trkpt lat="14.517208099207032" lon="120.9882236894711"><ele>4.0</ele><time>2026-04-17T03:52:56.001Z</time></trkpt><trkpt lat="14.517196415545534" lon="120.98838608217518"><ele>5.0</ele><time>2026-04-17T03:52:57.001Z</time></trkpt><trkpt lat="14.517188185973797" lon="120.98855513185815"><ele>6.0</ele><time>2026-04-17T03:52:58.001Z</time></trkpt><trkpt lat="14.517179404140219" lon="120.98872446045496"><ele>6.0</ele><time>2026-04-17T03:52:59.001Z</time></trkpt><trkpt lat="14.517167415509974" lon="120.9888933556395"><ele>6.0</ele><time>2026-04-17T03:53:00.001Z</time></trkpt><trkpt lat="14.51715273131254" lon="120.9890614833586"><ele>6.0</ele><time>2026-04-17T03:53:01.001Z</time></trkpt><trkpt lat="14.517138727647614" lon="120.98923159128009"><ele>6.333333333333334</ele><time>2026-04-17T03:53:02.001Z</time></trkpt><trkpt lat="14.517124358451483" lon="120.98939957776793"><ele>6.666666666666667</ele><time>2026-04-17T03:53:03.001Z</time></trkpt><trkpt lat="14.51711076080387" lon="120.9895630090208"><ele>7.0</ele><time>2026-04-17T03:53:04.001Z</time></trkpt><trkpt lat="14.517102132784707" lon="120.98973116050588"><ele>7.0</ele><time>2026-04-17T03:53:05.001Z</time></trkpt><trkpt lat="14.517092069529456" lon="120.98986548549529"><ele>7.0</ele><time>2026-04-17T03:53:06.001Z</time></trkpt><trkpt lat="14.517083289841034" lon="120.99000772931849"><ele>7.0</ele><time>2026-04-17T03:53:07.001Z</time></trkpt><trkpt lat="14.517135105138532" lon="120.99013577805091"><ele>7.0</ele><time>2026-04-17T03:53:08.001Z</time></trkpt><trkpt lat="14.517132781677017" lon="120.99024891686346"><ele>7.3999999999999995</ele><time>2026-04-17T03:53:09.001Z</time></trkpt><trkpt lat="14.517130729882703" lon="120.9903413790749"><ele>7.799999999999999</ele><time>2026-04-17T03:53:10.001Z</time></trkpt><trkpt lat="14.51699737205449" lon="120.99042680374063"><ele>8.2</ele><time>2026-04-17T03:53:11.001Z</time></trkpt><trkpt lat="14.516915094091548" lon="120.99046746636822"><ele>8.6</ele><time>2026-04-17T03:53:12.001Z</time></trkpt><trkpt lat="14.51684177186811" lon="120.99050069941912"><ele>9.0</ele><time>2026-04-17T03:53:13.001Z</time></trkpt><trkpt lat="14.516758503553644" lon="120.99052356167446"><ele>9.4</ele><time>2026-04-17T03:53:14.001Z</time></trkpt><trkpt lat="14.516656698396597" lon="120.99053164315563"><ele>9.8</ele><time>2026-04-17T03:53:15.001Z</time></trkpt><trkpt lat="14.516556315076397" lon="120.9905174545417"><ele>10.200000000000001</ele><time>2026-04-17T03:53:16.001Z</time></trkpt><trkpt lat="14.516444231660879" lon="120.99050092736522"><ele>10.600000000000001</ele><time>2026-04-17T03:53:17.001Z</time></trkpt><trkpt lat="14.51632328510218" lon="120.99048485168434"><ele>11.0</ele><time>2026-04-17T03:53:18.001Z</time></trkpt><trkpt lat="14.516189126484853" lon="120.99047045166623"><ele>12.25</ele><time>2026-04-17T03:53:19.001Z</time></trkpt><trkpt lat="14.51605612473931" lon="120.99045744547345"><ele>13.5</ele><time>2026-04-17T03:53:20.001Z</time></trkpt><trkpt lat="14.5159105100216" lon="120.9904413554411"><ele>14.75</ele><time>2026-04-17T03:53:21.001Z</time></trkpt><trkpt lat="14.515760657476608" lon="120.99042627144152"><ele>16.0</ele><time>2026-04-17T03:53:22.001Z</time></trkpt><trkpt lat="14.515610826562858" lon="120.99040738882356"><ele>16.0</ele><time>2026-04-17T03:53:23.001Z</time></trkpt><trkpt lat="14.515447430560455" lon="120.99038870286789"><ele>16.0</ele><time>2026-04-17T03:53:24.001Z</time></trkpt><trkpt lat="14.515283093988472" lon="120.99036691221143"><ele>16.0</ele><time>2026-04-17T03:53:25.001Z</time></trkpt><trkpt lat="14.515116168551966" lon="120.9903459268295"><ele>14.666666666666666</ele><time>2026-04-17T03:53:26.001Z</time></trkpt><trkpt lat="14.514943237231627" lon="120.99032586328669"><ele>13.333333333333332</ele><time>2026-04-17T03:53:27.001Z</time></trkpt><trkpt lat="14.514770983593435" lon="120.99029850806235"><ele>12.0</ele><time>2026-04-17T03:53:28.001Z</time></trkpt><trkpt lat="14.514586066780085" lon="120.99028311080758"><ele>10.333333333333334</ele><time>2026-04-17T03:53:29.001Z</time></trkpt><trkpt lat="14.514404030814267" lon="120.99026076415561"><ele>8.666666666666668</ele><time>2026-04-17T03:53:30.001Z</time></trkpt><trkpt lat="14.514214175172254" lon="120.99023918051107"><ele>7.0</ele><time>2026-04-17T03:53:31.001Z</time></trkpt><trkpt lat="14.514024319284793" lon="120.99021251407433"><ele>7.0</ele><time>2026-04-17T03:53:32.001Z</time></trkpt><trkpt lat="14.513829897169469" lon="120.9901899701411"><ele>7.0</ele><time>2026-04-17T03:53:33.001Z</time></trkpt><trkpt lat="14.513632281520415" lon="120.99016593236286"><ele>7.0</ele><time>2026-04-17T03:53:34.001Z</time></trkpt><trkpt lat="14.513435158941896" lon="120.99013737335648"><ele>6.666666666666667</ele><time>2026-04-17T03:53:35.001Z</time></trkpt><trkpt lat="14.51323050467509" lon="120.99010712106971"><ele>6.333333333333334</ele><time>2026-04-17T03:53:36.001Z</time></trkpt><trkpt lat="14.513032105466591" lon="120.99005965959576"><ele>6.0</ele><time>2026-04-17T03:53:37.001Z</time></trkpt><trkpt lat="14.512830653774882" lon="120.99000558751325"><ele>5.0</ele><time>2026-04-17T03:53:38.001Z</time></trkpt><trkpt lat="14.51263095476514" lon="120.9899508084234"><ele>4.0</ele><time>2026-04-17T03:53:39.001Z</time></trkpt><trkpt lat="14.512444572297962" lon="120.98988689208247"><ele>3.0</ele><time>2026-04-17T03:53:40.001Z</time></trkpt><trkpt lat="14.51226640014549" lon="120.98982940512933"><ele>3.0</ele><time>2026-04-17T03:53:41.001Z</time></trkpt><trkpt lat="14.5120990946904" lon="120.98978077484665"><ele>3.0</ele><time>2026-04-17T03:53:42.001Z</time></trkpt><trkpt lat="14.51193227535774" lon="120.989733340597"><ele>3.0</ele><time>2026-04-17T03:53:43.001Z</time></trkpt><trkpt lat="14.511770450776938" lon="120.98968149006113"><ele>3.0</ele><time>2026-04-17T03:53:44.001Z</time></trkpt><trkpt lat="14.511606925701782" lon="120.98963073073449"><ele>3.0</ele><time>2026-04-17T03:53:45.001Z</time></trkpt><trkpt lat="14.511450565524399" lon="120.98957672142882"><ele>3.0</ele><time>2026-04-17T03:53:46.001Z</time></trkpt><trkpt lat="14.511287528765642" lon="120.98952754713453"><ele>2.3333333333333335</ele><time>2026-04-17T03:53:47.001Z</time></trkpt><trkpt lat="14.511133419470344" lon="120.98947917375702"><ele>1.6666666666666665</ele><time>2026-04-17T03:53:48.001Z</time></trkpt><trkpt lat="14.510972357493442" lon="120.98943486848881"><ele>1.0</ele><time>2026-04-17T03:53:49.001Z</time></trkpt><trkpt lat="14.510814330429433" lon="120.98939027475792"><ele>1.0</ele><time>2026-04-17T03:53:50.001Z</time></trkpt><trkpt lat="14.510651241915701" lon="120.98934022474366"><ele>1.0</ele><time>2026-04-17T03:53:51.001Z</time></trkpt><trkpt lat="14.510497003306018" lon="120.9892931379902"><ele>1.0</ele><time>2026-04-17T03:53:52.001Z</time></trkpt><trkpt lat="14.51033248269578" lon="120.98924437738171"><ele>1.0</ele><time>2026-04-17T03:53:53.001Z</time></trkpt><trkpt lat="14.510164222051678" lon="120.98919607590366"><ele>1.0</ele><time>2026-04-17T03:53:54.001Z</time></trkpt><trkpt lat="14.510000041032908" lon="120.98914735174135"><ele>1.0</ele><time>2026-04-17T03:53:55.001Z</time></trkpt><trkpt lat="14.509830785766246" lon="120.98909913628171"><ele>2.3333333333333335</ele><time>2026-04-17T03:53:56.001Z</time></trkpt><trkpt lat="14.509663245042507" lon="120.98904750717705"><ele>3.666666666666667</ele><time>2026-04-17T03:53:57.001Z</time></trkpt><trkpt lat="14.509493025242358" lon="120.98899490497116"><ele>5.0</ele><time>2026-04-17T03:53:58.001Z</time></trkpt><trkpt lat="14.509324817460655" lon="120.98894242727721"><ele>6.333333333333334</ele><time>2026-04-17T03:53:59.001Z</time></trkpt><trkpt lat="14.509149390767046" lon="120.98888936213658"><ele>7.666666666666667</ele><time>2026-04-17T03:54:00.001Z</time></trkpt><trkpt lat="14.50897784808742" lon="120.98883478817356"><ele>9.0</ele><time>2026-04-17T03:54:01.001Z</time></trkpt><trkpt lat="14.508825553192182" lon="120.98876355662232"><ele>8.333333333333334</ele><time>2026-04-17T03:54:02.001Z</time></trkpt><trkpt lat="14.508673892345875" lon="120.9887055582019"><ele>7.666666666666667</ele><time>2026-04-17T03:54:03.001Z</time></trkpt><trkpt lat="14.508535434053751" lon="120.9886526087339"><ele>7.0</ele><time>2026-04-17T03:54:04.001Z</time></trkpt><trkpt lat="14.508402946110174" lon="120.98860194246528"><ele>7.0</ele><time>2026-04-17T03:54:05.001Z</time></trkpt><trkpt lat="14.508271926532611" lon="120.98855183771046"><ele>7.0</ele><time>2026-04-17T03:54:06.001Z</time></trkpt><trkpt lat="14.508135896418143" lon="120.98849981677137"><ele>7.0</ele><time>2026-04-17T03:54:07.001Z</time></trkpt><trkpt lat="14.5080152219302" lon="120.98845058180059"><ele>7.0</ele><time>2026-04-17T03:54:08.001Z</time></trkpt><trkpt lat="14.507901230703993" lon="120.98840440008499"><ele>7.199999999999999</ele><time>2026-04-17T03:54:09.001Z</time></trkpt><trkpt lat="14.50778895406003" lon="120.98835891299574"><ele>7.3999999999999995</ele><time>2026-04-17T03:54:10.001Z</time></trkpt><trkpt lat="14.5076751521873" lon="120.98831280800759"><ele>7.6000000000000005</ele><time>2026-04-17T03:54:11.001Z</time></trkpt><trkpt lat="14.507592189673934" lon="120.98827919708832"><ele>7.800000000000001</ele><time>2026-04-17T03:54:12.001Z</time></trkpt><trkpt lat="14.507515702513842" lon="120.98824820952943"><ele>8.0</ele><time>2026-04-17T03:54:13.001Z</time></trkpt><trkpt lat="14.507438748368326" lon="120.98821703279265"><ele>8.200000000000001</ele><time>2026-04-17T03:54:14.001Z</time></trkpt><trkpt lat="14.507352266490534" lon="120.98818199605431"><ele>8.4</ele><time>2026-04-17T03:54:15.001Z</time></trkpt><trkpt lat="14.507254512085211" lon="120.98814239243522"><ele>8.600000000000001</ele><time>2026-04-17T03:54:16.001Z</time></trkpt><trkpt lat="14.50715173891558" lon="120.98810075552909"><ele>8.8</ele><time>2026-04-17T03:54:17.001Z</time></trkpt><trkpt lat="14.507058485148777" lon="120.98806297526257"><ele>9.0</ele><time>2026-04-17T03:54:18.001Z</time></trkpt><trkpt lat="14.506960123776386" lon="120.9880231257325"><ele>9.0</ele><time>2026-04-17T03:54:19.001Z</time></trkpt><trkpt lat="14.506868174365943" lon="120.98798587391306"><ele>9.0</ele><time>2026-04-17T03:54:20.001Z</time></trkpt><trkpt lat="14.506784644051285" lon="120.98795204239804"><ele>9.0</ele><time>2026-04-17T03:54:21.001Z</time></trkpt><trkpt lat="14.50670830790624" lon="120.98792114843545"><ele>9.0</ele><time>2026-04-17T03:54:22.001Z</time></trkpt><trkpt lat="14.506640314772735" lon="120.98789363099095"><ele>9.0</ele><time>2026-04-17T03:54:23.001Z</time></trkpt><trkpt lat="14.506540412230887" lon="120.98785319948153"><ele>9.0</ele><time>2026-04-17T03:54:25.001Z</time></trkpt><trkpt lat="14.50643570510225" lon="120.98782646625226"><ele>9.0</ele><time>2026-04-17T03:54:27.002Z</time></trkpt><trkpt lat="14.506375621848845" lon="120.98779920047181"><ele>9.0</ele><time>2026-04-17T03:54:28.002Z</time></trkpt><trkpt lat="14.506287242596056" lon="120.98774981669875"><ele>9.0</ele><time>2026-04-17T03:54:30.002Z</time></trkpt><trkpt lat="14.506207984239378" lon="120.98770652977964"><ele>9.0</ele><time>2026-04-17T03:54:33.002Z</time></trkpt><trkpt lat="14.506111443224116" lon="120.98766698162025"><ele>8.8</ele><time>2026-04-17T03:54:35.002Z</time></trkpt><trkpt lat="14.506026457139123" lon="120.98761934804219"><ele>8.600000000000001</ele><time>2026-04-17T03:54:37.002Z</time></trkpt><trkpt lat="14.505968087495251" lon="120.98759174319696"><ele>8.4</ele><time>2026-04-17T03:54:38.002Z</time></trkpt><trkpt lat="14.505857677033218" lon="120.98753864893693"><ele>8.200000000000001</ele><time>2026-04-17T03:54:40.002Z</time></trkpt><trkpt lat="14.505752523007992" lon="120.98757516636724"><ele>8.0</ele><time>2026-04-17T03:54:41.002Z</time></trkpt><trkpt lat="14.505666089720156" lon="120.9875355667178"><ele>7.800000000000001</ele><time>2026-04-17T03:54:42.002Z</time></trkpt><trkpt lat="14.505583248793661" lon="120.98748992393867"><ele>7.6000000000000005</ele><time>2026-04-17T03:54:43.002Z</time></trkpt><trkpt lat="14.50549581305363" lon="120.98744240105415"><ele>7.3999999999999995</ele><time>2026-04-17T03:54:44.002Z</time></trkpt><trkpt lat="14.505392503773475" lon="120.98738557094289"><ele>7.199999999999999</ele><time>2026-04-17T03:54:45.002Z</time></trkpt><trkpt lat="14.505298372575096" lon="120.98733567950963"><ele>7.0</ele><time>2026-04-17T03:54:46.002Z</time></trkpt><trkpt lat="14.505188082796082" lon="120.9872774949068"><ele>7.0</ele><time>2026-04-17T03:54:47.002Z</time></trkpt><trkpt lat="14.505073601187819" lon="120.98721449459511"><ele>7.0</ele><time>2026-04-17T03:54:48.002Z</time></trkpt><trkpt lat="14.504967398107288" lon="120.98715695537169"><ele>7.0</ele><time>2026-04-17T03:54:49.002Z</time></trkpt><trkpt lat="14.50484572706364" lon="120.9870931614714"><ele>7.0</ele><time>2026-04-17T03:54:50.002Z</time></trkpt><trkpt lat="14.504738286848834" lon="120.9870290819328"><ele>7.0</ele><time>2026-04-17T03:54:51.002Z</time></trkpt><trkpt lat="14.504618062588582" lon="120.98696484200627"><ele>7.0</ele><time>2026-04-17T03:54:52.001Z</time></trkpt><trkpt lat="14.504499596627657" lon="120.98690046920979"><ele>7.0</ele><time>2026-04-17T03:54:53.001Z</time></trkpt><trkpt lat="14.504391657914248" lon="120.98683537309536"><ele>7.0</ele><time>2026-04-17T03:54:54.001Z</time></trkpt><trkpt lat="14.504268861736621" lon="120.98676977411397"><ele>7.3999999999999995</ele><time>2026-04-17T03:54:55.001Z</time></trkpt><trkpt lat="14.504169160611578" lon="120.98671368115585"><ele>7.799999999999999</ele><time>2026-04-17T03:54:56.001Z</time></trkpt><trkpt lat="14.50407656512144" lon="120.98665951638165"><ele>8.2</ele><time>2026-04-17T03:54:57.001Z</time></trkpt><trkpt lat="14.503982442886558" lon="120.98660958036744"><ele>8.6</ele><time>2026-04-17T03:54:58.001Z</time></trkpt><trkpt lat="14.50389152130551" lon="120.98656335600761"><ele>9.0</ele><time>2026-04-17T03:54:59.001Z</time></trkpt><trkpt lat="14.503815977346221" lon="120.98652215184632"><ele>8.2</ele><time>2026-04-17T03:55:00.001Z</time></trkpt><trkpt lat="14.503745276942219" lon="120.98648645933373"><ele>7.4</ele><time>2026-04-17T03:55:01.001Z</time></trkpt><trkpt lat="14.503629326654998" lon="120.98645506643567"><ele>6.6</ele><time>2026-04-17T03:55:03.001Z</time></trkpt><trkpt lat="14.503535372937238" lon="120.98651344136718"><ele>5.8</ele><time>2026-04-17T03:55:05.001Z</time></trkpt><trkpt lat="14.503493145658922" lon="120.98656776259725"><ele>5.0</ele><time>2026-04-17T03:55:07.001Z</time></trkpt><trkpt lat="14.50349057866191" lon="120.98670268838727"><ele>5.0</ele><time>2026-04-17T03:55:08.001Z</time></trkpt><trkpt lat="14.503472477795995" lon="120.98680171290916"><ele>5.0</ele><time>2026-04-17T03:55:09.001Z</time></trkpt><trkpt lat="14.503440778789683" lon="120.98691039531165"><ele>5.0</ele><time>2026-04-17T03:55:10.001Z</time></trkpt><trkpt lat="14.503409279176655" lon="120.98698119450809"><ele>5.0</ele><time>2026-04-17T03:55:11.001Z</time></trkpt><trkpt lat="14.50338185673013" lon="120.98706274172417"><ele>5.0</ele><time>2026-04-17T03:55:12.001Z</time></trkpt><trkpt lat="14.503354109480192" lon="120.98718463199182"><ele>5.0</ele><time>2026-04-17T03:55:14.001Z</time></trkpt><trkpt lat="14.503314321228842" lon="120.9873187888657"><ele>5.0</ele><time>2026-04-17T03:55:15.001Z</time></trkpt><trkpt lat="14.503278104532752" lon="120.98743475929274"><ele>5.0</ele><time>2026-04-17T03:55:16.001Z</time></trkpt><trkpt lat="14.503241995763755" lon="120.98754264075423"><ele>5.0</ele><time>2026-04-17T03:55:17.001Z</time></trkpt><trkpt lat="14.503212198931879" lon="120.98765442776788"><ele>5.4</ele><time>2026-04-17T03:55:18.001Z</time></trkpt><trkpt lat="14.503179869787594" lon="120.98776566591945"><ele>5.8</ele><time>2026-04-17T03:55:19.001Z</time></trkpt><trkpt lat="14.503147729943015" lon="120.9878766943814"><ele>6.199999999999999</ele><time>2026-04-17T03:55:20.001Z</time></trkpt><trkpt lat="14.50312087111672" lon="120.98797768782627"><ele>6.6</ele><time>2026-04-17T03:55:21.001Z</time></trkpt><trkpt lat="14.50309115451261" lon="120.98808823130457"><ele>7.0</ele><time>2026-04-17T03:55:22.001Z</time></trkpt><trkpt lat="14.503056156232867" lon="120.98820250509394"><ele>7.000000000000001</ele><time>2026-04-17T03:55:23.001Z</time></trkpt><trkpt lat="14.503034034802289" lon="120.98828551740559"><ele>7.0</ele><time>2026-04-17T03:55:24.001Z</time></trkpt><trkpt lat="14.503020367033447" lon="120.98837089282819"><ele>7.0</ele><time>2026-04-17T03:55:25.001Z</time></trkpt><trkpt lat="14.5029942765961" lon="120.98845703650258"><ele>7.0</ele><time>2026-04-17T03:55:26.001Z</time></trkpt><trkpt lat="14.50299725882736" lon="120.98852640078503"><ele>7.000000000000001</ele><time>2026-04-17T03:55:27.001Z</time></trkpt><trkpt lat="14.50299077257127" lon="120.98860356134206"><ele>7.0</ele><time>2026-04-17T03:55:28.001Z</time></trkpt><trkpt lat="14.502996010192549" lon="120.98868990857905"><ele>6.500000000000001</ele><time>2026-04-17T03:55:29.001Z</time></trkpt><trkpt lat="14.503011266108347" lon="120.98876382213659"><ele>6.0</ele><time>2026-04-17T03:55:30.001Z</time></trkpt><trkpt lat="14.502977907211076" lon="120.98885046064665"><ele>5.5</ele><time>2026-04-17T03:55:31.001Z</time></trkpt><trkpt lat="14.502963071752935" lon="120.98893080499961"><ele>5.0</ele><time>2026-04-17T03:55:32.001Z</time></trkpt><trkpt lat="14.502920116306564" lon="120.98901808625241"><ele>4.5</ele><time>2026-04-17T03:55:33.001Z</time></trkpt><trkpt lat="14.502880200235843" lon="120.98910754805136"><ele>4.0</ele><time>2026-04-17T03:55:34.001Z</time></trkpt><trkpt lat="14.502873531517608" lon="120.98918858935696"><ele>3.4999999999999996</ele><time>2026-04-17T03:55:35.001Z</time></trkpt><trkpt lat="14.50285043448274" lon="120.98927555415297"><ele>3.0</ele><time>2026-04-17T03:55:36.001Z</time></trkpt><trkpt lat="14.502832996549111" lon="120.98935248520147"><ele>2.5</ele><time>2026-04-17T03:55:37.001Z</time></trkpt><trkpt lat="14.50280740908516" lon="120.98941359214528"><ele>2.0</ele><time>2026-04-17T03:55:38.001Z</time></trkpt><trkpt lat="14.50276059725684" lon="120.98952647672124"><ele>1.5</ele><time>2026-04-17T03:55:40.001Z</time></trkpt><trkpt lat="14.50270934628285" lon="120.98958272212292"><ele>1.0</ele><time>2026-04-17T03:55:41.001Z</time></trkpt><trkpt lat="14.50263775950043" lon="120.98962153475959"><ele>0.9999999999999999</ele><time>2026-04-17T03:55:42.001Z</time></trkpt><trkpt lat="14.502553585114724" lon="120.98960888947873"><ele>1.0</ele><time>2026-04-17T03:55:43.001Z</time></trkpt><trkpt lat="14.502481838544462" lon="120.98959702076438"><ele>1.0</ele><time>2026-04-17T03:55:44.001Z</time></trkpt><trkpt lat="14.502409879637666" lon="120.98956858214675"><ele>1.0</ele><time>2026-04-17T03:55:45.001Z</time></trkpt><trkpt lat="14.502322791722625" lon="120.98955953512797"><ele>0.9999999999999999</ele><time>2026-04-17T03:55:46.001Z</time></trkpt><trkpt lat="14.502234773155458" lon="120.98951657958051"><ele>1.0</ele><time>2026-04-17T03:55:47.001Z</time></trkpt><trkpt lat="14.502156592841795" lon="120.98949664883924"><ele>0.9999999999999999</ele><time>2026-04-17T03:55:48.001Z</time></trkpt><trkpt lat="14.502082174946388" lon="120.98950275821068"><ele>1.0</ele><time>2026-04-17T03:55:49.001Z</time></trkpt><trkpt lat="14.501990463437918" lon="120.98949161703143"><ele>1.0</ele><time>2026-04-17T03:55:50.001Z</time></trkpt><trkpt lat="14.501903170847243" lon="120.98949500443972"><ele>1.0</ele><time>2026-04-17T03:55:51.001Z</time></trkpt><trkpt lat="14.5018068432551" lon="120.98949423433486"><ele>0.9999999999999999</ele><time>2026-04-17T03:55:52.001Z</time></trkpt><trkpt lat="14.501715977200751" lon="120.98946923468205"><ele>1.0</ele><time>2026-04-17T03:55:53.001Z</time></trkpt><trkpt lat="14.501617979887802" lon="120.98943781013755"><ele>2.0</ele><time>2026-04-17T03:55:54.001Z</time></trkpt><trkpt lat="14.50151302405858" lon="120.98940739629873"><ele>3.0</ele><time>2026-04-17T03:55:55.001Z</time></trkpt><trkpt lat="14.501405513538911" lon="120.98939367397716"><ele>4.0</ele><time>2026-04-17T03:55:56.001Z</time></trkpt><trkpt lat="14.501292735650745" lon="120.9893558976283"><ele>5.0</ele><time>2026-04-17T03:55:57.001Z</time></trkpt><trkpt lat="14.501183342788101" lon="120.98931905004098"><ele>5.8</ele><time>2026-04-17T03:55:58.001Z</time></trkpt><trkpt lat="14.501075680727082" lon="120.9892874099598"><ele>6.6</ele><time>2026-04-17T03:55:59.001Z</time></trkpt><trkpt lat="14.500978869356718" lon="120.98925467825413"><ele>7.4</ele><time>2026-04-17T03:56:00.001Z</time></trkpt><trkpt lat="14.500884918511144" lon="120.98922729440149"><ele>8.2</ele><time>2026-04-17T03:56:01.001Z</time></trkpt><trkpt lat="14.500811259831638" lon="120.98920231813263"><ele>9.0</ele><time>2026-04-17T03:56:02.001Z</time></trkpt><trkpt lat="14.500748576744481" lon="120.98918838584284"><ele>9.0</ele><time>2026-04-17T03:56:03.001Z</time></trkpt><trkpt lat="14.500663550650707" lon="120.98914692516605"><ele>9.0</ele><time>2026-04-17T03:56:06.001Z</time></trkpt><trkpt lat="14.500738633160536" lon="120.98915100981988"><ele>9.0</ele><time>2026-04-17T03:56:20.001Z</time></trkpt><trkpt lat="14.500809113422951" lon="120.98916722544615"><ele>9.0</ele><time>2026-04-17T03:56:21.001Z</time></trkpt><trkpt lat="14.500890864115608" lon="120.9891845417785"><ele>9.0</ele><time>2026-04-17T03:56:22.001Z</time></trkpt><trkpt lat="14.500977435114804" lon="120.98921211666854"><ele>9.0</ele><time>2026-04-17T03:56:23.001Z</time></trkpt><trkpt lat="14.501066390209152" lon="120.98923752111173"><ele>9.0</ele><time>2026-04-17T03:56:24.001Z</time></trkpt><trkpt lat="14.501158068008971" lon="120.9892647965184"><ele>9.0</ele><time>2026-04-17T03:56:25.001Z</time></trkpt><trkpt lat="14.501249138940677" lon="120.98929318187642"><ele>9.0</ele><time>2026-04-17T03:56:26.001Z</time></trkpt><trkpt lat="14.501346242435012" lon="120.9893166404875"><ele>9.0</ele><time>2026-04-17T03:56:27.001Z</time></trkpt><trkpt lat="14.501437508163404" lon="120.98934834158801"><ele>9.0</ele><time>2026-04-17T03:56:28.001Z</time></trkpt><trkpt lat="14.501519781302312" lon="120.98937601174372"><ele>8.333333333333334</ele><time>2026-04-17T03:56:29.001Z</time></trkpt><trkpt lat="14.50159899255073" lon="120.98940067146982"><ele>7.666666666666667</ele><time>2026-04-17T03:56:30.001Z</time></trkpt><trkpt lat="14.501665675820144" lon="120.98942179792887"><ele>7.0</ele><time>2026-04-17T03:56:31.001Z</time></trkpt><trkpt lat="14.501726296645673" lon="120.98944651276447"><ele>6.333333333333334</ele><time>2026-04-17T03:56:32.001Z</time></trkpt><trkpt lat="14.501842555689798" lon="120.9894909084326"><ele>5.666666666666667</ele><time>2026-04-17T03:56:34.001Z</time></trkpt><trkpt lat="14.501897937536196" lon="120.98952641075404"><ele>5.0</ele><time>2026-04-17T03:56:35.001Z</time></trkpt><trkpt lat="14.501972866158576" lon="120.9896122039917"><ele>5.0</ele><time>2026-04-17T03:56:37.001Z</time></trkpt><trkpt lat="14.501977777537583" lon="120.98974698470062"><ele>5.0</ele><time>2026-04-17T03:56:41.001Z</time></trkpt><trkpt lat="14.501963626860793" lon="120.98983953045787"><ele>5.0</ele><time>2026-04-17T03:56:43.001Z</time></trkpt><trkpt lat="14.501948532951134" lon="120.98993831581832"><ele>5.0</ele><time>2026-04-17T03:56:44.001Z</time></trkpt><trkpt lat="14.501935648503633" lon="120.99002251158448"><ele>5.0</ele><time>2026-04-17T03:56:45.001Z</time></trkpt><trkpt lat="14.501924386620187" lon="120.99009609878267"><ele>6.0</ele><time>2026-04-17T03:56:47.001Z</time></trkpt><trkpt lat="14.501912852220524" lon="120.99016914215055"><ele>7.0</ele><time>2026-04-17T03:56:53.001Z</time></trkpt><trkpt lat="14.501891959460865" lon="120.9902390683099"><ele>8.0</ele><time>2026-04-17T03:56:58.001Z</time></trkpt><trkpt lat="14.501809283729253" lon="120.99005934875736"><ele>9.0</ele><time>2026-04-17T03:57:00.001Z</time></trkpt><trkpt lat="14.501741200016426" lon="120.99003556328168"><ele>10.0</ele><time>2026-04-17T03:57:04.001Z</time></trkpt><trkpt lat="14.501674162956053" lon="120.99001214341871"><ele>9.857142857142858</ele><time>2026-04-17T03:57:07Z</time></trkpt><trkpt lat="14.501601628573821" lon="120.98998680303345"><ele>9.714285714285715</ele><time>2026-04-17T03:57:12Z</time></trkpt><trkpt lat="14.501541650981766" lon="120.98996584944541"><ele>9.571428571428573</ele><time>2026-04-17T03:57:16Z</time></trkpt><trkpt lat="14.501478203756523" lon="120.98994368372009"><ele>9.428571428571429</ele><time>2026-04-17T03:57:22Z</time></trkpt><trkpt lat="14.50141771282859" lon="120.98992255079217"><ele>9.285714285714286</ele><time>2026-04-17T03:57:26Z</time></trkpt><trkpt lat="14.501353995088445" lon="120.98990029056513"><ele>9.142857142857144</ele><time>2026-04-17T03:57:29.001Z</time></trkpt><trkpt lat="14.501276854348305" lon="120.98987588096045"><ele>9.0</ele><time>2026-04-17T03:57:32.001Z</time></trkpt><trkpt lat="14.501215416656432" lon="120.98985767262607"><ele>9.000000000000002</ele><time>2026-04-17T03:57:34.001Z</time></trkpt><trkpt lat="14.501151169498124" lon="120.98983863165542"><ele>9.0</ele><time>2026-04-17T03:57:36.001Z</time></trkpt><trkpt lat="14.501075789163005" lon="120.98981629112875"><ele>9.0</ele><time>2026-04-17T03:57:39.001Z</time></trkpt><trkpt lat="14.500998938579189" lon="120.98979351486646"><ele>9.0</ele><time>2026-04-17T03:57:44.001Z</time></trkpt><trkpt lat="14.500937780418905" lon="120.98977538938908"><ele>9.0</ele><time>2026-04-17T03:57:47.001Z</time></trkpt><trkpt lat="14.50085678015197" lon="120.98975138327776"><ele>9.000000000000002</ele><time>2026-04-17T03:57:49.001Z</time></trkpt><trkpt lat="14.500791635434206" lon="120.98973207629476"><ele>9.0</ele><time>2026-04-17T03:57:51.001Z</time></trkpt><trkpt lat="14.500711401133591" lon="120.98970829720076"><ele>9.0</ele><time>2026-04-17T03:57:53.001Z</time></trkpt><trkpt lat="14.500634708438417" lon="120.98968556772665"><ele>9.0</ele><time>2026-04-17T03:57:55.001Z</time></trkpt><trkpt lat="14.500556558494706" lon="120.9896624064652"><ele>9.0</ele><time>2026-04-17T03:57:59.001Z</time></trkpt><trkpt lat="14.500474682761858" lon="120.98966311391297"><ele>9.0</ele><time>2026-04-17T03:58:07.001Z</time></trkpt><trkpt lat="14.500420406867454" lon="120.98962935727256"><ele>9.0</ele><time>2026-04-17T03:58:08.001Z</time></trkpt><trkpt lat="14.500356316339694" lon="120.98957335402136"><ele>9.0</ele><time>2026-04-17T03:58:09.001Z</time></trkpt><trkpt lat="14.500278819132678" lon="120.98954939979737"><ele>8.6</ele><time>2026-04-17T03:58:10.001Z</time></trkpt><trkpt lat="14.500189365870272" lon="120.98952171945274"><ele>8.2</ele><time>2026-04-17T03:58:11.001Z</time></trkpt><trkpt lat="14.500098254420395" lon="120.98949352598967"><ele>7.799999999999999</ele><time>2026-04-17T03:58:12.001Z</time></trkpt><trkpt lat="14.500011920328532" lon="120.98946681081895"><ele>7.3999999999999995</ele><time>2026-04-17T03:58:13.001Z</time></trkpt><trkpt lat="14.499905470698584" lon="120.98943410710147"><ele>7.0</ele><time>2026-04-17T03:58:14.001Z</time></trkpt><trkpt lat="14.499806818056019" lon="120.98940382686884"><ele>7.0</ele><time>2026-04-17T03:58:15.001Z</time></trkpt><trkpt lat="14.499701189129938" lon="120.98937126059603"><ele>6.999999999999999</ele><time>2026-04-17T03:58:16.001Z</time></trkpt><trkpt lat="14.499605616112962" lon="120.98934133298089"><ele>6.999999999999999</ele><time>2026-04-17T03:58:17.001Z</time></trkpt><trkpt lat="14.49951481624727" lon="120.98931290003848"><ele>7.0</ele><time>2026-04-17T03:58:18.001Z</time></trkpt><trkpt lat="14.499408503006476" lon="120.98932009223168"><ele>7.0</ele><time>2026-04-17T03:58:19.001Z</time></trkpt><trkpt lat="14.499326205122761" lon="120.98929150463688"><ele>7.166666666666667</ele><time>2026-04-17T03:58:20.001Z</time></trkpt><trkpt lat="14.499246052613293" lon="120.98926674283285"><ele>7.333333333333334</ele><time>2026-04-17T03:58:21.001Z</time></trkpt><trkpt lat="14.499169553499486" lon="120.98924338527091"><ele>7.5</ele><time>2026-04-17T03:58:22.001Z</time></trkpt><trkpt lat="14.499094873320836" lon="120.98922163427413"><ele>7.666666666666666</ele><time>2026-04-17T03:58:23.001Z</time></trkpt><trkpt lat="14.499005777833704" lon="120.98915684818026"><ele>7.833333333333333</ele><time>2026-04-17T03:58:25.001Z</time></trkpt><trkpt lat="14.498937788468853" lon="120.98915108255166"><ele>8.0</ele><time>2026-04-17T03:58:28.001Z</time></trkpt><trkpt lat="14.498876662242521" lon="120.989117522718"><ele>7.6000000000000005</ele><time>2026-04-17T03:59:06Z</time></trkpt><trkpt lat="14.498743750328135" lon="120.98907704098897"><ele>7.200000000000001</ele><time>2026-04-17T03:59:08Z</time></trkpt><trkpt lat="14.498662858235761" lon="120.98905226186437"><ele>6.8</ele><time>2026-04-17T03:59:09Z</time></trkpt><trkpt lat="14.49856884961728" lon="120.98902304739153"><ele>6.4</ele><time>2026-04-17T03:59:10Z</time></trkpt><trkpt lat="14.49848401630938" lon="120.9889965658203"><ele>6.0</ele><time>2026-04-17T03:59:11Z</time></trkpt><trkpt lat="14.498402139410057" lon="120.98897078654588"><ele>6.0</ele><time>2026-04-17T03:59:12Z</time></trkpt><trkpt lat="14.49832083933906" lon="120.9889451888977"><ele>6.0</ele><time>2026-04-17T03:59:13Z</time></trkpt><trkpt lat="14.498240418133177" lon="120.98891986796151"><ele>6.0</ele><time>2026-04-17T03:59:14Z</time></trkpt><trkpt lat="14.498151433539403" lon="120.98889185079675"><ele>6.0</ele><time>2026-04-17T03:59:15Z</time></trkpt><trkpt lat="14.49806429614544" lon="120.98886441524633"><ele>6.0</ele><time>2026-04-17T03:59:16Z</time></trkpt><trkpt lat="14.497979765634035" lon="120.98883838552432"><ele>6.0</ele><time>2026-04-17T03:59:17Z</time></trkpt><trkpt lat="14.497892980854553" lon="120.98881189926041"><ele>6.166666666666667</ele><time>2026-04-17T03:59:18Z</time></trkpt><trkpt lat="14.497811106683088" lon="120.98878704307711"><ele>6.333333333333334</ele><time>2026-04-17T03:59:19Z</time></trkpt><trkpt lat="14.497742595327615" lon="120.98876680108103"><ele>6.5</ele><time>2026-04-17T03:59:20Z</time></trkpt><trkpt lat="14.497641901069976" lon="120.98873705049499"><ele>6.666666666666667</ele><time>2026-04-17T03:59:22Z</time></trkpt><trkpt lat="14.497558344045409" lon="120.98871236320332"><ele>6.833333333333334</ele><time>2026-04-17T03:59:24Z</time></trkpt><trkpt lat="14.497492445909385" lon="120.98869297868364"><ele>7.0</ele><time>2026-04-17T03:59:26Z</time></trkpt><trkpt lat="14.497402373806251" lon="120.9886665728603"><ele>7.000000000000001</ele><time>2026-04-17T03:59:28Z</time></trkpt><trkpt lat="14.497292565126063" lon="120.98863438101036"><ele>7.0</ele><time>2026-04-17T03:59:30Z</time></trkpt><trkpt lat="14.497190513979609" lon="120.98860446337231"><ele>7.0</ele><time>2026-04-17T03:59:32Z</time></trkpt><trkpt lat="14.49712699784232" lon="120.98858584278132"><ele>7.0</ele><time>2026-04-17T03:59:33Z</time></trkpt><trkpt lat="14.497062432489066" lon="120.98856690528538"><ele>7.000000000000001</ele><time>2026-04-17T03:59:34Z</time></trkpt><trkpt lat="14.496997185417628" lon="120.98854765739657"><ele>7.0</ele><time>2026-04-17T03:59:35Z</time></trkpt><trkpt lat="14.496897481461057" lon="120.98851824472483"><ele>7.0</ele><time>2026-04-17T03:59:37Z</time></trkpt><trkpt lat="14.496814860421061" lon="120.98849270173203"><ele>6.999999999999999</ele><time>2026-04-17T03:59:39Z</time></trkpt><trkpt lat="14.496707962714988" lon="120.98845879935094"><ele>6.999999999999999</ele><time>2026-04-17T03:59:41Z</time></trkpt><trkpt lat="14.496597541802986" lon="120.98842300196411"><ele>7.0</ele><time>2026-04-17T03:59:43Z</time></trkpt><trkpt lat="14.49653020045538" lon="120.98840039277603"><ele>7.0</ele><time>2026-04-17T03:59:44Z</time></trkpt><trkpt lat="14.49644690150052" lon="120.98837242597978"><ele>7.000000000000001</ele><time>2026-04-17T03:59:45Z</time></trkpt><trkpt lat="14.496372642429801" lon="120.98834749423276"><ele>7.0</ele><time>2026-04-17T03:59:46Z</time></trkpt><trkpt lat="14.496299520452798" lon="120.98832294460863"><ele>7.0</ele><time>2026-04-17T03:59:47Z</time></trkpt><trkpt lat="14.496233833794715" lon="120.98830089096555"><ele>7.0</ele><time>2026-04-17T03:59:48Z</time></trkpt><trkpt lat="14.49616085199032" lon="120.98827414256152"><ele>7.000000000000001</ele><time>2026-04-17T03:59:49Z</time></trkpt><trkpt lat="14.496088924783022" lon="120.98824744588657"><ele>7.0</ele><time>2026-04-17T03:59:50Z</time></trkpt><trkpt lat="14.496004769474583" lon="120.9882162105786"><ele>6.8</ele><time>2026-04-17T03:59:51Z</time></trkpt><trkpt lat="14.495918214385965" lon="120.98818408456896"><ele>6.6</ele><time>2026-04-17T03:59:52Z</time></trkpt><trkpt lat="14.49582427509876" lon="120.98814915970961"><ele>6.3999999999999995</ele><time>2026-04-17T03:59:53Z</time></trkpt><trkpt lat="14.495738023033404" lon="120.98811544381765"><ele>6.199999999999999</ele><time>2026-04-17T03:59:54Z</time></trkpt><trkpt lat="14.4956637217862" lon="120.98808639723894"><ele>6.0</ele><time>2026-04-17T03:59:55Z</time></trkpt><trkpt lat="14.4955832188727" lon="120.98805492624768"><ele>6.0</ele><time>2026-04-17T03:59:56Z</time></trkpt><trkpt lat="14.495509221605388" lon="120.98802599851426"><ele>6.0</ele><time>2026-04-17T03:59:57Z</time></trkpt><trkpt lat="14.49542383212877" lon="120.98799261720845"><ele>6.0</ele><time>2026-04-17T03:59:58Z</time></trkpt><trkpt lat="14.495328483844744" lon="120.98795534285414"><ele>6.0</ele><time>2026-04-17T03:59:59Z</time></trkpt><trkpt lat="14.495252397997065" lon="120.98791934358798"><ele>6.0</ele><time>2026-04-17T04:00:00Z</time></trkpt><trkpt lat="14.495168435061547" lon="120.98788116852923"><ele>6.0</ele><time>2026-04-17T04:00:01Z</time></trkpt><trkpt lat="14.49508315987787" lon="120.98784239685145"><ele>6.0</ele><time>2026-04-17T04:00:02Z</time></trkpt><trkpt lat="14.494992913222365" lon="120.98780155819098"><ele>6.0</ele><time>2026-04-17T04:00:03Z</time></trkpt><trkpt lat="14.494920327874931" lon="120.98776875912942"><ele>6.0</ele><time>2026-04-17T04:00:04.001Z</time></trkpt><trkpt lat="14.494842809363206" lon="120.9877337309609"><ele>6.0</ele><time>2026-04-17T04:00:05.001Z</time></trkpt><trkpt lat="14.494774817770502" lon="120.98770300769974"><ele>6.0</ele><time>2026-04-17T04:00:06.001Z</time></trkpt><trkpt lat="14.494680478591752" lon="120.98769876646789"><ele>6.0</ele><time>2026-04-17T04:00:07.001Z</time></trkpt><trkpt lat="14.49454252440614" lon="120.98763579093908"><ele>6.166666666666667</ele><time>2026-04-17T04:00:09.001Z</time></trkpt><trkpt lat="14.494475997719904" lon="120.98760463429986"><ele>6.333333333333334</ele><time>2026-04-17T04:00:10.001Z</time></trkpt><trkpt lat="14.494416001265614" lon="120.9875710401467"><ele>6.5</ele><time>2026-04-17T04:00:11.001Z</time></trkpt><trkpt lat="14.494353799750574" lon="120.9875403576302"><ele>6.666666666666667</ele><time>2026-04-17T04:00:12.001Z</time></trkpt><trkpt lat="14.49428340564263" lon="120.98750241914286"><ele>6.833333333333334</ele><time>2026-04-17T04:00:13.001Z</time></trkpt><trkpt lat="14.494186960467276" lon="120.98741817185687"><ele>7.0</ele><time>2026-04-17T04:00:15.001Z</time></trkpt><trkpt lat="14.494108486272632" lon="120.987378215173"><ele>6.833333333333334</ele><time>2026-04-17T04:00:16.001Z</time></trkpt><trkpt lat="14.494034531675338" lon="120.98734055971397"><ele>6.666666666666667</ele><time>2026-04-17T04:00:17.001Z</time></trkpt><trkpt lat="14.493958245825246" lon="120.98730171725894"><ele>6.5</ele><time>2026-04-17T04:00:18.001Z</time></trkpt><trkpt lat="14.493879886868841" lon="120.98726181925413"><ele>6.333333333333334</ele><time>2026-04-17T04:00:19.001Z</time></trkpt><trkpt lat="14.49381621939222" lon="120.98722940171128"><ele>6.166666666666667</ele><time>2026-04-17T04:00:20.001Z</time></trkpt><trkpt lat="14.493748618868226" lon="120.98719498155396"><ele>6.0</ele><time>2026-04-17T04:00:21.001Z</time></trkpt><trkpt lat="14.493688955539755" lon="120.98716460279987"><ele>6.0</ele><time>2026-04-17T04:00:22.001Z</time></trkpt><trkpt lat="14.493623651400425" lon="120.98713135188983"><ele>6.0</ele><time>2026-04-17T04:00:23.001Z</time></trkpt><trkpt lat="14.493547903113837" lon="120.98709278315341"><ele>6.0</ele><time>2026-04-17T04:00:24.001Z</time></trkpt><trkpt lat="14.493424287399828" lon="120.98702984177027"><ele>6.0</ele><time>2026-04-17T04:00:26.001Z</time></trkpt><trkpt lat="14.493366819320023" lon="120.98700058076575"><ele>6.0</ele><time>2026-04-17T04:00:27.001Z</time></trkpt><trkpt lat="14.493291977590292" lon="120.9869624736115"><ele>6.0</ele><time>2026-04-17T04:00:28.001Z</time></trkpt><trkpt lat="14.493186952930676" lon="120.98690899801902"><ele>6.0</ele><time>2026-04-17T04:00:30.001Z</time></trkpt><trkpt lat="14.493114619935804" lon="120.9868984001138"><ele>6.0</ele><time>2026-04-17T04:00:31.001Z</time></trkpt><trkpt lat="14.492993921023817" lon="120.98686632701691"><ele>6.0</ele><time>2026-04-17T04:00:33.001Z</time></trkpt><trkpt lat="14.49289206274485" lon="120.98683775916199"><ele>6.0</ele><time>2026-04-17T04:00:35.001Z</time></trkpt><trkpt lat="14.49279226165166" lon="120.98680902885876"><ele>6.0</ele><time>2026-04-17T04:00:37.001Z</time></trkpt><trkpt lat="14.492714437873488" lon="120.98678431698738"><ele>6.0</ele><time>2026-04-17T04:00:39.001Z</time></trkpt><trkpt lat="14.49263668284799" lon="120.986759626737"><ele>6.0</ele><time>2026-04-17T04:00:41.001Z</time></trkpt><trkpt lat="14.492541723501217" lon="120.98672947343681"><ele>6.0</ele><time>2026-04-17T04:00:44.001Z</time></trkpt><trkpt lat="14.492577526436811" lon="120.9866745495526"><ele>6.0</ele><time>2026-04-17T04:00:46.001Z</time></trkpt><trkpt lat="14.492603965787676" lon="120.98659102607952"><ele>6.0</ele><time>2026-04-17T04:00:48.001Z</time></trkpt><trkpt lat="14.492504366059222" lon="120.9864620493027"><ele>6.0</ele><time>2026-04-17T04:00:50.001Z</time></trkpt><trkpt lat="14.492419906393208" lon="120.98645311636731"><ele>6.0</ele><time>2026-04-17T04:00:51.001Z</time></trkpt><trkpt lat="14.492332336190854" lon="120.98641488802649"><ele>6.0</ele><time>2026-04-17T04:00:52.001Z</time></trkpt><trkpt lat="14.492241867661413" lon="120.98637099718036"><ele>6.0</ele><time>2026-04-17T04:00:53.001Z</time></trkpt><trkpt lat="14.492163413541027" lon="120.98633018065128"><ele>6.0</ele><time>2026-04-17T04:00:54.001Z</time></trkpt><trkpt lat="14.492091027240962" lon="120.98628685655473"><ele>6.6</ele><time>2026-04-17T04:00:55.001Z</time></trkpt><trkpt lat="14.492008020767795" lon="120.98623523724235"><ele>7.199999999999999</ele><time>2026-04-17T04:00:56.001Z</time></trkpt><trkpt lat="14.491936183952658" lon="120.98618547986777"><ele>7.800000000000001</ele><time>2026-04-17T04:00:57.001Z</time></trkpt><trkpt lat="14.491860439702572" lon="120.98613210815586"><ele>8.4</ele><time>2026-04-17T04:00:58.001Z</time></trkpt><trkpt lat="14.491806145930818" lon="120.98603386383576"><ele>9.0</ele><time>2026-04-17T04:00:59.001Z</time></trkpt><trkpt lat="14.491727076916025" lon="120.9859722856487"><ele>9.0</ele><time>2026-04-17T04:01:00.001Z</time></trkpt><trkpt lat="14.491650777048436" lon="120.98591134840126"><ele>9.0</ele><time>2026-04-17T04:01:01.001Z</time></trkpt><trkpt lat="14.491566909886222" lon="120.98583939370212"><ele>9.0</ele><time>2026-04-17T04:01:02.001Z</time></trkpt><trkpt lat="14.491492469783802" lon="120.98577552699139"><ele>9.0</ele><time>2026-04-17T04:01:03.001Z</time></trkpt><trkpt lat="14.491436322041828" lon="120.9857231486052"><ele>9.0</ele><time>2026-04-17T04:01:04.001Z</time></trkpt><trkpt lat="14.491380532769268" lon="120.98567255457183"><ele>8.6</ele><time>2026-04-17T04:01:05.001Z</time></trkpt><trkpt lat="14.491311535460323" lon="120.9856139041052"><ele>8.2</ele><time>2026-04-17T04:01:07.001Z</time></trkpt><trkpt lat="14.491245170128051" lon="120.9855585652031"><ele>7.799999999999999</ele><time>2026-04-17T04:01:11Z</time></trkpt><trkpt lat="14.491175377362882" lon="120.98550128812923"><ele>7.3999999999999995</ele><time>2026-04-17T04:01:13Z</time></trkpt><trkpt lat="14.491091360012376" lon="120.98544222501876"><ele>7.0</ele><time>2026-04-17T04:01:16Z</time></trkpt><trkpt lat="14.491005678777926" lon="120.98538082118385"><ele>7.0</ele><time>2026-04-17T04:01:18Z</time></trkpt><trkpt lat="14.49090970725415" lon="120.9853120428253"><ele>6.999999999999999</ele><time>2026-04-17T04:01:20Z</time></trkpt><trkpt lat="14.490837900887753" lon="120.9852706769075"><ele>6.999999999999999</ele><time>2026-04-17T04:01:22Z</time></trkpt><trkpt lat="14.490737897104879" lon="120.98521228480509"><ele>7.0</ele><time>2026-04-17T04:01:25Z</time></trkpt><trkpt lat="14.49063242366012" lon="120.98515069900054"><ele>7.0</ele><time>2026-04-17T04:01:27Z</time></trkpt><trkpt lat="14.490568807102203" lon="120.9851135533434"><ele>7.0</ele><time>2026-04-17T04:01:28Z</time></trkpt><trkpt lat="14.490463446940382" lon="120.98505203378895"><ele>6.999999999999999</ele><time>2026-04-17T04:01:30Z</time></trkpt><trkpt lat="14.490405101136107" lon="120.98501040645647"><ele>6.999999999999999</ele><time>2026-04-17T04:01:31Z</time></trkpt><trkpt lat="14.49033538041808" lon="120.98492604109738"><ele>7.0</ele><time>2026-04-17T04:01:33Z</time></trkpt><trkpt lat="14.49028013744608" lon="120.98479371577639"><ele>7.0</ele><time>2026-04-17T04:01:35Z</time></trkpt><trkpt lat="14.490241994411832" lon="120.98471384845215"><ele>6.8</ele><time>2026-04-17T04:01:36Z</time></trkpt><trkpt lat="14.490201160539934" lon="120.98462905364028"><ele>6.6</ele><time>2026-04-17T04:01:37Z</time></trkpt><trkpt lat="14.490155940851631" lon="120.98455059907351"><ele>6.3999999999999995</ele><time>2026-04-17T04:01:38Z</time></trkpt><trkpt lat="14.490100427203362" lon="120.98447697229501"><ele>6.199999999999999</ele><time>2026-04-17T04:01:39Z</time></trkpt><trkpt lat="14.490023523290903" lon="120.98441792329541"><ele>6.0</ele><time>2026-04-17T04:01:40Z</time></trkpt><trkpt lat="14.48994974508885" lon="120.9843562254908"><ele>6.0</ele><time>2026-04-17T04:01:41Z</time></trkpt><trkpt lat="14.489876262859699" lon="120.98429522190884"><ele>6.0</ele><time>2026-04-17T04:01:42Z</time></trkpt><trkpt lat="14.489805938417986" lon="120.98423683976229"><ele>6.0</ele><time>2026-04-17T04:01:43Z</time></trkpt><trkpt lat="14.48975396935614" lon="120.98419369597161"><ele>6.0</ele><time>2026-04-17T04:01:44Z</time></trkpt><trkpt lat="14.489661417944035" lon="120.98411686162594"><ele>6.0</ele><time>2026-04-17T04:01:46Z</time></trkpt><trkpt lat="14.489554392350357" lon="120.98408711302332"><ele>6.166666666666667</ele><time>2026-04-17T04:01:48Z</time></trkpt><trkpt lat="14.489491804200172" lon="120.98410393870749"><ele>6.333333333333334</ele><time>2026-04-17T04:01:49Z</time></trkpt><trkpt lat="14.489452495802855" lon="120.9841581286003"><ele>6.5</ele><time>2026-04-17T04:01:50Z</time></trkpt><trkpt lat="14.489412524737398" lon="120.98427314013071"><ele>6.666666666666667</ele><time>2026-04-17T04:01:52Z</time></trkpt><trkpt lat="14.489369883373959" lon="120.98432840631364"><ele>6.833333333333334</ele><time>2026-04-17T04:01:53Z</time></trkpt><trkpt lat="14.489355998123852" lon="120.98439754863307"><ele>7.0</ele><time>2026-04-17T04:01:54Z</time></trkpt><trkpt lat="14.48930186377764" lon="120.98445484561131"><ele>7.0</ele><time>2026-04-17T04:01:55Z</time></trkpt><trkpt lat="14.489269099853972" lon="120.98455852944127"><ele>6.999999999999999</ele><time>2026-04-17T04:01:57Z</time></trkpt><trkpt lat="14.489205188337191" lon="120.98461966398338"><ele>6.999999999999999</ele><time>2026-04-17T04:02:00Z</time></trkpt><trkpt lat="14.489110923461018" lon="120.98452506615777"><ele>7.0</ele><time>2026-04-17T04:02:03Z</time></trkpt><trkpt lat="14.489017209192042" lon="120.98450092509289"><ele>7.0</ele><time>2026-04-17T04:02:05Z</time></trkpt><trkpt lat="14.488959590606555" lon="120.9844719603827"><ele>7.000000000000001</ele><time>2026-04-17T04:02:07Z</time></trkpt><trkpt lat="14.488916874851503" lon="120.98439409298413"><ele>7.0</ele><time>2026-04-17T04:02:11Z</time></trkpt><trkpt lat="14.488840047031827" lon="120.98434582910286"><ele>7.0</ele><time>2026-04-17T04:02:13Z</time></trkpt><trkpt lat="14.488771375272574" lon="120.98430268890684"><ele>7.0</ele><time>2026-04-17T04:02:15Z</time></trkpt><trkpt lat="14.488712993458051" lon="120.98426601295743"><ele>7.000000000000001</ele><time>2026-04-17T04:02:17Z</time></trkpt><trkpt lat="14.488637342234838" lon="120.98421848821717"><ele>7.0</ele><time>2026-04-17T04:02:22Z</time></trkpt><trkpt lat="14.488545464693116" lon="120.98416044266278"><ele>7.000000000000001</ele><time>2026-04-17T04:02:24Z</time></trkpt><trkpt lat="14.48843293503888" lon="120.98408794909486"><ele>7.0</ele><time>2026-04-17T04:02:26.001Z</time></trkpt><trkpt lat="14.488375624251224" lon="120.98405102847269"><ele>7.0</ele><time>2026-04-17T04:02:27.001Z</time></trkpt><trkpt lat="14.488304977138965" lon="120.98400551637627"><ele>7.0</ele><time>2026-04-17T04:02:28.001Z</time></trkpt><trkpt lat="14.488241646816855" lon="120.98396471785945"><ele>7.000000000000001</ele><time>2026-04-17T04:02:29.001Z</time></trkpt><trkpt lat="14.488184934217793" lon="120.98392634700235"><ele>7.0</ele><time>2026-04-17T04:02:30.001Z</time></trkpt><trkpt lat="14.488133608002935" lon="120.98388837680851"><ele>7.0</ele><time>2026-04-17T04:02:31.001Z</time></trkpt><trkpt lat="14.488078254075667" lon="120.98384742694526"><ele>7.0</ele><time>2026-04-17T04:02:32.001Z</time></trkpt><trkpt lat="14.488017855504534" lon="120.98380274485612"><ele>7.0</ele><time>2026-04-17T04:02:33.001Z</time></trkpt><trkpt lat="14.487962223341555" lon="120.98375678793926"><ele>7.0</ele><time>2026-04-17T04:02:34.001Z</time></trkpt><trkpt lat="14.487908461189576" lon="120.9837143200836"><ele>7.0</ele><time>2026-04-17T04:02:35.001Z</time></trkpt><trkpt lat="14.48784685454651" lon="120.9836655363367"><ele>7.0</ele><time>2026-04-17T04:02:36.001Z</time></trkpt><trkpt lat="14.487795905403633" lon="120.98362511556054"><ele>7.0</ele><time>2026-04-17T04:02:37.001Z</time></trkpt><trkpt lat="14.487741140935249" lon="120.98358166789008"><ele>7.0</ele><time>2026-04-17T04:02:38.001Z</time></trkpt><trkpt lat="14.487661633263977" lon="120.9835185900735"><ele>6.999999999999999</ele><time>2026-04-17T04:02:39.001Z</time></trkpt><trkpt lat="14.487592283485135" lon="120.98346357106485"><ele>6.999999999999999</ele><time>2026-04-17T04:02:40.001Z</time></trkpt><trkpt lat="14.487528152003431" lon="120.9834126920157"><ele>7.0</ele><time>2026-04-17T04:02:41.001Z</time></trkpt><trkpt lat="14.487454808379113" lon="120.98335452181689"><ele>7.0</ele><time>2026-04-17T04:02:42.001Z</time></trkpt><trkpt lat="14.487372916264505" lon="120.98328960036368"><ele>7.0</ele><time>2026-04-17T04:02:43.001Z</time></trkpt><trkpt lat="14.487283352084066" lon="120.98321859671418"><ele>6.999999999999999</ele><time>2026-04-17T04:02:44.001Z</time></trkpt><trkpt lat="14.4871708378999" lon="120.98314073355486"><ele>6.999999999999999</ele><time>2026-04-17T04:02:46.001Z</time></trkpt><trkpt lat="14.487097356457278" lon="120.98308635389849"><ele>7.0</ele><time>2026-04-17T04:02:47.001Z</time></trkpt><trkpt lat="14.487027780723135" lon="120.98303266494655"><ele>7.0</ele><time>2026-04-17T04:02:48.001Z</time></trkpt><trkpt lat="14.486960559155388" lon="120.98297766493302"><ele>7.199999999999999</ele><time>2026-04-17T04:02:49.001Z</time></trkpt><trkpt lat="14.48689492632694" lon="120.98292301410598"><ele>7.3999999999999995</ele><time>2026-04-17T04:02:50.001Z</time></trkpt><trkpt lat="14.486834541781333" lon="120.9828627943084"><ele>7.6000000000000005</ele><time>2026-04-17T04:02:51.001Z</time></trkpt><trkpt lat="14.486760369914432" lon="120.9828039932249"><ele>7.800000000000001</ele><time>2026-04-17T04:02:52.001Z</time></trkpt><trkpt lat="14.48668133893544" lon="120.98274134001166"><ele>8.0</ele><time>2026-04-17T04:02:53.001Z</time></trkpt><trkpt lat="14.486592868395178" lon="120.98267120338309"><ele>8.0</ele><time>2026-04-17T04:02:54.001Z</time></trkpt><trkpt lat="14.486501426544434" lon="120.98259871153878"><ele>8.0</ele><time>2026-04-17T04:02:55.001Z</time></trkpt><trkpt lat="14.486404924617084" lon="120.98252220788086"><ele>8.0</ele><time>2026-04-17T04:02:56.001Z</time></trkpt><trkpt lat="14.486306332882025" lon="120.98245106966198"><ele>8.0</ele><time>2026-04-17T04:02:57.001Z</time></trkpt><trkpt lat="14.486203703075114" lon="120.98237789271029"><ele>7.4</ele><time>2026-04-17T04:02:58.001Z</time></trkpt><trkpt lat="14.48609509456984" lon="120.982337646289"><ele>6.800000000000001</ele><time>2026-04-17T04:02:59.001Z</time></trkpt><trkpt lat="14.485995855721082" lon="120.9822986877578"><ele>6.2</ele><time>2026-04-17T04:03:00.001Z</time></trkpt><trkpt lat="14.485893828444707" lon="120.98226336804892"><ele>5.6</ele><time>2026-04-17T04:03:01.001Z</time></trkpt><trkpt lat="14.485805461699083" lon="120.98222439221365"><ele>5.0</ele><time>2026-04-17T04:03:02.001Z</time></trkpt><trkpt lat="14.48573094939198" lon="120.9821564341299"><ele>5.0</ele><time>2026-04-17T04:03:03.001Z</time></trkpt><trkpt lat="14.48565038519749" lon="120.9820872562308"><ele>5.0</ele><time>2026-04-17T04:03:04.001Z</time></trkpt><trkpt lat="14.485570744110747" lon="120.98201887101855"><ele>5.0</ele><time>2026-04-17T04:03:05.001Z</time></trkpt><trkpt lat="14.485502112064344" lon="120.98195993892827"><ele>5.0</ele><time>2026-04-17T04:03:06.001Z</time></trkpt><trkpt lat="14.485434300444616" lon="120.98189483399884"><ele>5.0</ele><time>2026-04-17T04:03:07.001Z</time></trkpt><trkpt lat="14.485373767599564" lon="120.98183232180007"><ele>5.8</ele><time>2026-04-17T04:03:08.001Z</time></trkpt><trkpt lat="14.48530949314426" lon="120.9817659457215"><ele>6.6</ele><time>2026-04-17T04:03:09.001Z</time></trkpt><trkpt lat="14.485237221819348" lon="120.98169131118023"><ele>7.4</ele><time>2026-04-17T04:03:10.001Z</time></trkpt><trkpt lat="14.485161264915865" lon="120.98161211326875"><ele>8.2</ele><time>2026-04-17T04:03:11.001Z</time></trkpt><trkpt lat="14.485084493062086" lon="120.98153365780466"><ele>9.0</ele><time>2026-04-17T04:03:12.001Z</time></trkpt><trkpt lat="14.4849992231951" lon="120.98145674905606"><ele>9.0</ele><time>2026-04-17T04:03:13.001Z</time></trkpt><trkpt lat="14.484920420663116" lon="120.98138563485095"><ele>9.0</ele><time>2026-04-17T04:03:14.001Z</time></trkpt><trkpt lat="14.484844518994235" lon="120.9813171190051"><ele>9.0</ele><time>2026-04-17T04:03:15Z</time></trkpt><trkpt lat="14.48477938116377" lon="120.98125831961711"><ele>9.0</ele><time>2026-04-17T04:03:16Z</time></trkpt><trkpt lat="14.484722909897489" lon="120.98120734346362"><ele>9.0</ele><time>2026-04-17T04:03:17Z</time></trkpt><trkpt lat="14.48467077717732" lon="120.98116028367711"><ele>9.0</ele><time>2026-04-17T04:03:18Z</time></trkpt><trkpt lat="14.484591507174414" lon="120.98108872728096"><ele>9.0</ele><time>2026-04-17T04:03:20Z</time></trkpt><trkpt lat="14.484520370668752" lon="120.98102451292547"><ele>9.0</ele><time>2026-04-17T04:03:25Z</time></trkpt><trkpt lat="14.484470466132148" lon="120.98097960197533"><ele>9.0</ele><time>2026-04-17T04:03:26Z</time></trkpt><trkpt lat="14.484417282338379" lon="120.98093174394415"><ele>9.0</ele><time>2026-04-17T04:03:27Z</time></trkpt><trkpt lat="14.484359919057884" lon="120.98088012495865"><ele>9.0</ele><time>2026-04-17T04:03:28Z</time></trkpt><trkpt lat="14.484302558258037" lon="120.98082850818139"><ele>9.0</ele><time>2026-04-17T04:03:29Z</time></trkpt><trkpt lat="14.484246023046918" lon="120.98077763435842"><ele>9.0</ele><time>2026-04-17T04:03:30Z</time></trkpt><trkpt lat="14.484177071189992" lon="120.98071558726461"><ele>9.0</ele><time>2026-04-17T04:03:31Z</time></trkpt><trkpt lat="14.48412603259571" lon="120.98066965959524"><ele>9.0</ele><time>2026-04-17T04:03:32Z</time></trkpt><trkpt lat="14.484076309626348" lon="120.98062491583843"><ele>9.0</ele><time>2026-04-17T04:03:33Z</time></trkpt><trkpt lat="14.484026871035322" lon="120.98058042797"><ele>9.0</ele><time>2026-04-17T04:03:34Z</time></trkpt><trkpt lat="14.483935293513163" lon="120.98049802091018"><ele>9.0</ele><time>2026-04-17T04:03:36Z</time></trkpt><trkpt lat="14.483878225578747" lon="120.98044666767927"><ele>9.0</ele><time>2026-04-17T04:03:37Z</time></trkpt><trkpt lat="14.483788790467848" lon="120.98036618851805"><ele>9.0</ele><time>2026-04-17T04:03:39Z</time></trkpt><trkpt lat="14.483715665696437" lon="120.98030038636665"><ele>9.0</ele><time>2026-04-17T04:03:41Z</time></trkpt><trkpt lat="14.483644526952732" lon="120.98023637137388"><ele>9.0</ele><time>2026-04-17T04:03:43Z</time></trkpt><trkpt lat="14.483554555922336" lon="120.98015540992616"><ele>9.0</ele><time>2026-04-17T04:03:45Z</time></trkpt><trkpt lat="14.483493197827547" lon="120.98010019615566"><ele>8.8</ele><time>2026-04-17T04:03:46Z</time></trkpt><trkpt lat="14.48342950782512" lon="120.98004288400506"><ele>8.600000000000001</ele><time>2026-04-17T04:03:47Z</time></trkpt><trkpt lat="14.483376519811651" lon="120.97999520214938"><ele>8.4</ele><time>2026-04-17T04:03:48Z</time></trkpt><trkpt lat="14.48327793356491" lon="120.97990648820372"><ele>8.200000000000001</ele><time>2026-04-17T04:03:50Z</time></trkpt><trkpt lat="14.483199723454005" lon="120.97983610996579"><ele>8.0</ele><time>2026-04-17T04:03:52Z</time></trkpt><trkpt lat="14.483148451585357" lon="120.97978997240475"><ele>8.0</ele><time>2026-04-17T04:03:54Z</time></trkpt><trkpt lat="14.483084854415473" lon="120.97973274377202"><ele>8.0</ele><time>2026-04-17T04:03:57Z</time></trkpt><trkpt lat="14.483028625132098" lon="120.97968214522079"><ele>8.0</ele><time>2026-04-17T04:04:03Z</time></trkpt><trkpt lat="14.482869566662334" lon="120.97978092298148"><ele>8.0</ele><time>2026-04-17T04:04:09Z</time></trkpt><trkpt lat="14.482823602679767" lon="120.9798723047898"><ele>8.0</ele><time>2026-04-17T04:04:11Z</time></trkpt><trkpt lat="14.482762056703974" lon="120.97990300572081"><ele>8.0</ele><time>2026-04-17T04:04:13Z</time></trkpt><trkpt lat="14.482700264769106" lon="120.97995343576059"><ele>7.999999999999999</ele><time>2026-04-17T04:04:16Z</time></trkpt><trkpt lat="14.482629518341234" lon="120.98000341440502"><ele>8.0</ele><time>2026-04-17T04:04:19Z</time></trkpt><trkpt lat="14.482582011611402" lon="120.9800520526543"><ele>8.0</ele><time>2026-04-17T04:04:22Z</time></trkpt><trkpt lat="14.48253681564163" lon="120.98010455690887"><ele>7.999999999999999</ele><time>2026-04-17T04:04:24Z</time></trkpt><trkpt lat="14.482478691109856" lon="120.98015603617667"><ele>8.0</ele><time>2026-04-17T04:04:28Z</time></trkpt><trkpt lat="14.482435561026707" lon="120.98020641886366"><ele>8.0</ele><time>2026-04-17T04:04:32.001Z</time></trkpt><trkpt lat="14.48239173819008" lon="120.98027482054262"><ele>8.142857142857142</ele><time>2026-04-17T04:04:37.001Z</time></trkpt><trkpt lat="14.482339081859669" lon="120.98032089843927"><ele>8.285714285714285</ele><time>2026-04-17T04:04:41.001Z</time></trkpt><trkpt lat="14.482287673648575" lon="120.98038396910371"><ele>8.428571428571429</ele><time>2026-04-17T04:04:45.001Z</time></trkpt><trkpt lat="14.482245406713004" lon="120.98043286373597"><ele>8.571428571428571</ele><time>2026-04-17T04:04:49.001Z</time></trkpt><trkpt lat="14.482191870009492" lon="120.98048514292368"><ele>8.714285714285715</ele><time>2026-04-17T04:04:54.001Z</time></trkpt><trkpt lat="14.482146800942017" lon="120.98054842637576"><ele>8.857142857142858</ele><time>2026-04-17T04:04:58.001Z</time></trkpt><trkpt lat="14.482103485995909" lon="120.98060500123923"><ele>9.0</ele><time>2026-04-17T04:05:01.001Z</time></trkpt><trkpt lat="14.482055571577137" lon="120.98067542702522"><ele>9.142857142857144</ele><time>2026-04-17T04:05:05.001Z</time></trkpt><trkpt lat="14.482013674673688" lon="120.98072949043933"><ele>9.285714285714286</ele><time>2026-04-17T04:05:08.001Z</time></trkpt><trkpt lat="14.481953409001475" lon="120.98079627542225"><ele>9.428571428571429</ele><time>2026-04-17T04:05:11.001Z</time></trkpt><trkpt lat="14.481910349981963" lon="120.98085348764539"><ele>9.571428571428573</ele><time>2026-04-17T04:05:14.001Z</time></trkpt><trkpt lat="14.481858521296035" lon="120.98092143556606"><ele>9.714285714285715</ele><time>2026-04-17T04:05:18.001Z</time></trkpt><trkpt lat="14.481818795081834" lon="120.98098045805011"><ele>9.857142857142858</ele><time>2026-04-17T04:05:21Z</time></trkpt><trkpt lat="14.481776134221986" lon="120.98103576055323"><ele>10.0</ele><time>2026-04-17T04:05:25Z</time></trkpt><trkpt lat="14.481762841983" lon="120.98112624488104"><ele>10.333333333333334</ele><time>2026-04-17T04:05:30Z</time></trkpt><trkpt lat="14.481824309560395" lon="120.98116852832196"><ele>10.666666666666668</ele><time>2026-04-17T04:05:32Z</time></trkpt><trkpt lat="14.481875009434246" lon="120.9812115616891"><ele>11.0</ele><time>2026-04-17T04:05:34Z</time></trkpt><trkpt lat="14.481930638059707" lon="120.98128054895008"><ele>11.333333333333334</ele><time>2026-04-17T04:05:37Z</time></trkpt><trkpt lat="14.481982625926666" lon="120.98133276799769"><ele>11.666666666666666</ele><time>2026-04-17T04:05:40Z</time></trkpt><trkpt lat="14.482040208290218" lon="120.98138488482726"><ele>12.0</ele><time>2026-04-17T04:05:45Z</time></trkpt><trkpt lat="14.481981630144027" lon="120.98150588912351"><ele>12.0</ele><time>2026-04-17T04:05:50Z</time></trkpt><trkpt lat="14.481934811023423" lon="120.98155484696315"><ele>12.0</ele><time>2026-04-17T04:05:52Z</time></trkpt><trkpt lat="14.481878912110416" lon="120.98163828018836"><ele>12.0</ele><time>2026-04-17T04:05:55Z</time></trkpt><trkpt lat="14.481843067430466" lon="120.98171219263284"><ele>12.0</ele><time>2026-04-17T04:05:58Z</time></trkpt><trkpt lat="14.4817994321173" lon="120.98176897164196"><ele>12.0</ele><time>2026-04-17T04:06:00Z</time></trkpt><trkpt lat="14.481753748231682" lon="120.98182177671879"><ele>12.0</ele><time>2026-04-17T04:06:02Z</time></trkpt><trkpt lat="14.48171532560405" lon="120.9818801230372"><ele>11.4</ele><time>2026-04-17T04:06:05Z</time></trkpt><trkpt lat="14.481672876334022" lon="120.9819309366719"><ele>10.799999999999999</ele><time>2026-04-17T04:06:10Z</time></trkpt><trkpt lat="14.48160629334036" lon="120.98198859196232"><ele>10.2</ele><time>2026-04-17T04:06:13Z</time></trkpt><trkpt lat="14.481530875301688" lon="120.98205564963243"><ele>9.6</ele><time>2026-04-17T04:06:15Z</time></trkpt><trkpt lat="14.481476845386851" lon="120.98211937164048"><ele>9.0</ele><time>2026-04-17T04:06:17Z</time></trkpt><trkpt lat="14.48135723807966" lon="120.98209894730995"><ele>9.0</ele><time>2026-04-17T04:06:21Z</time></trkpt><trkpt lat="14.481310003615182" lon="120.9820532159298"><ele>9.0</ele><time>2026-04-17T04:06:22Z</time></trkpt><trkpt lat="14.481249187398545" lon="120.9820009670401"><ele>9.0</ele><time>2026-04-17T04:06:23Z</time></trkpt><trkpt lat="14.481186849956778" lon="120.98194229063955"><ele>9.0</ele><time>2026-04-17T04:06:24Z</time></trkpt><trkpt lat="14.481111149123233" lon="120.9818754886627"><ele>9.0</ele><time>2026-04-17T04:06:25Z</time></trkpt><trkpt lat="14.481046615045125" lon="120.98180751562694"><ele>9.0</ele><time>2026-04-17T04:06:26Z</time></trkpt><trkpt lat="14.480993710034188" lon="120.9817485215071"><ele>8.833333333333334</ele><time>2026-04-17T04:06:27Z</time></trkpt><trkpt lat="14.48094210460719" lon="120.98169792052664"><ele>8.666666666666666</ele><time>2026-04-17T04:06:28Z</time></trkpt><trkpt lat="14.480895219511806" lon="120.98165029852848"><ele>8.5</ele><time>2026-04-17T04:06:29Z</time></trkpt><trkpt lat="14.480827102638296" lon="120.98156444421826"><ele>8.333333333333332</ele><time>2026-04-17T04:06:31.001Z</time></trkpt><trkpt lat="14.480763027716048" lon="120.9814962328026"><ele>8.166666666666666</ele><time>2026-04-17T04:06:33.001Z</time></trkpt><trkpt lat="14.48069423388218" lon="120.9814213602196"><ele>8.0</ele><time>2026-04-17T04:06:36.001Z</time></trkpt><trkpt lat="14.480617889270752" lon="120.98131916219094"><ele>7.833333333333333</ele><time>2026-04-17T04:06:38.001Z</time></trkpt><trkpt lat="14.480563446491749" lon="120.98126257045564"><ele>7.666666666666666</ele><time>2026-04-17T04:06:39.001Z</time></trkpt><trkpt lat="14.480503560052128" lon="120.98120161095373"><ele>7.5</ele><time>2026-04-17T04:06:40.001Z</time></trkpt><trkpt lat="14.480454548836889" lon="120.98115432554602"><ele>7.333333333333334</ele><time>2026-04-17T04:06:41.001Z</time></trkpt><trkpt lat="14.480353499487387" lon="120.98106217485818"><ele>7.166666666666667</ele><time>2026-04-17T04:06:43.001Z</time></trkpt><trkpt lat="14.480299050135223" lon="120.9810115257964"><ele>7.0</ele><time>2026-04-17T04:06:44.001Z</time></trkpt><trkpt lat="14.480238771189713" lon="120.9809522132632"><ele>7.000000000000001</ele><time>2026-04-17T04:06:45.001Z</time></trkpt><trkpt lat="14.48017956283286" lon="120.98089536197054"><ele>7.0</ele><time>2026-04-17T04:06:46.001Z</time></trkpt><trkpt lat="14.480122824535867" lon="120.9808378812295"><ele>7.0</ele><time>2026-04-17T04:06:47.001Z</time></trkpt><trkpt lat="14.48007384143274" lon="120.98078990285909"><ele>7.0</ele><time>2026-04-17T04:06:48.001Z</time></trkpt><trkpt lat="14.480021767395208" lon="120.98074080968475"><ele>7.000000000000001</ele><time>2026-04-17T04:06:49.001Z</time></trkpt><trkpt lat="14.479937287537332" lon="120.98065786502852"><ele>7.0</ele><time>2026-04-17T04:06:51.001Z</time></trkpt><trkpt lat="14.479879858714687" lon="120.9806039282173"><ele>6.8</ele><time>2026-04-17T04:06:54.001Z</time></trkpt><trkpt lat="14.479813167037786" lon="120.98054439907287"><ele>6.6</ele><time>2026-04-17T04:06:56.001Z</time></trkpt><trkpt lat="14.479748336457348" lon="120.98048768081132"><ele>6.3999999999999995</ele><time>2026-04-17T04:06:57.001Z</time></trkpt><trkpt lat="14.47967221142083" lon="120.98040897032504"><ele>6.199999999999999</ele><time>2026-04-17T04:06:58.001Z</time></trkpt><trkpt lat="14.47960422677884" lon="120.98033103236412"><ele>6.0</ele><time>2026-04-17T04:06:59.001Z</time></trkpt><trkpt lat="14.479535080595122" lon="120.98026135280789"><ele>6.285714285714285</ele><time>2026-04-17T04:07:00.001Z</time></trkpt><trkpt lat="14.479476730621839" lon="120.98021509784405"><ele>6.571428571428571</ele><time>2026-04-17T04:07:01.001Z</time></trkpt><trkpt lat="14.47942851288399" lon="120.98016871924912"><ele>6.857142857142857</ele><time>2026-04-17T04:07:02.001Z</time></trkpt><trkpt lat="14.479375095690655" lon="120.9801199279576"><ele>7.142857142857142</ele><time>2026-04-17T04:07:03.001Z</time></trkpt><trkpt lat="14.479329833186084" lon="120.98007471390653"><ele>7.428571428571428</ele><time>2026-04-17T04:07:04.001Z</time></trkpt><trkpt lat="14.479267588824074" lon="120.97999879493952"><ele>7.7142857142857135</ele><time>2026-04-17T04:07:06.001Z</time></trkpt><trkpt lat="14.479213506222383" lon="120.97994264675346"><ele>8.0</ele><time>2026-04-17T04:07:07.001Z</time></trkpt><trkpt lat="14.47914508002799" lon="120.97987724741718"><ele>8.0</ele><time>2026-04-17T04:07:08.001Z</time></trkpt><trkpt lat="14.479077507623016" lon="120.97980025927964"><ele>8.0</ele><time>2026-04-17T04:07:09.001Z</time></trkpt><trkpt lat="14.479001578915886" lon="120.97971089719155"><ele>8.0</ele><time>2026-04-17T04:07:10.001Z</time></trkpt><trkpt lat="14.47892358686255" lon="120.97961830474027"><ele>8.0</ele><time>2026-04-17T04:07:11.001Z</time></trkpt><trkpt lat="14.47884275876975" lon="120.97952331734804"><ele>7.75</ele><time>2026-04-17T04:07:12.001Z</time></trkpt><trkpt lat="14.478753692091669" lon="120.97942421543756"><ele>7.5</ele><time>2026-04-17T04:07:13.001Z</time></trkpt><trkpt lat="14.478664241315556" lon="120.97932663459342"><ele>7.25</ele><time>2026-04-17T04:07:14.001Z</time></trkpt><trkpt lat="14.478576656814672" lon="120.97923256629859"><ele>7.0</ele><time>2026-04-17T04:07:15.001Z</time></trkpt><trkpt lat="14.478490066963085" lon="120.97913409327859"><ele>7.0</ele><time>2026-04-17T04:07:16.001Z</time></trkpt><trkpt lat="14.478394876524858" lon="120.97903512470566"><ele>7.0</ele><time>2026-04-17T04:07:17.001Z</time></trkpt><trkpt lat="14.478314050973738" lon="120.97892323813313"><ele>7.0</ele><time>2026-04-17T04:07:18.001Z</time></trkpt><trkpt lat="14.478231654645157" lon="120.97881833803581"><ele>7.0</ele><time>2026-04-17T04:07:19.001Z</time></trkpt><trkpt lat="14.478146865764378" lon="120.9787141544811"><ele>7.0</ele><time>2026-04-17T04:07:20.001Z</time></trkpt><trkpt lat="14.478066922949344" lon="120.97860685795703"><ele>6.999999999999999</ele><time>2026-04-17T04:07:21.001Z</time></trkpt><trkpt lat="14.477994383046896" lon="120.97851071170207"><ele>6.999999999999999</ele><time>2026-04-17T04:07:22.001Z</time></trkpt><trkpt lat="14.477934943555837" lon="120.97842749758445"><ele>7.0</ele><time>2026-04-17T04:07:23.001Z</time></trkpt><trkpt lat="14.477880328353743" lon="120.97835991540285"><ele>7.0</ele><time>2026-04-17T04:07:24.001Z</time></trkpt><trkpt lat="14.47783591091666" lon="120.97829627688203"><ele>7.142857142857142</ele><time>2026-04-17T04:07:25.001Z</time></trkpt><trkpt lat="14.47779478985937" lon="120.97823928707037"><ele>7.285714285714286</ele><time>2026-04-17T04:07:26.001Z</time></trkpt><trkpt lat="14.477755170530349" lon="120.97818754932685"><ele>7.428571428571429</ele><time>2026-04-17T04:07:27Z</time></trkpt><trkpt lat="14.477715997180548" lon="120.9781357617123"><ele>7.571428571428571</ele><time>2026-04-17T04:07:28Z</time></trkpt><trkpt lat="14.477676213017448" lon="120.97808476268665"><ele>7.7142857142857135</ele><time>2026-04-17T04:07:29Z</time></trkpt><trkpt lat="14.477634303707905" lon="120.97801983123297"><ele>7.857142857142857</ele><time>2026-04-17T04:07:30Z</time></trkpt><trkpt lat="14.477592521345148" lon="120.97796563709667"><ele>8.0</ele><time>2026-04-17T04:07:31Z</time></trkpt><trkpt lat="14.477548539139319" lon="120.97790697335199"><ele>8.0</ele><time>2026-04-17T04:07:32Z</time></trkpt><trkpt lat="14.477509367758692" lon="120.97785094447997"><ele>8.0</ele><time>2026-04-17T04:07:33Z</time></trkpt><trkpt lat="14.477469545837636" lon="120.97779827982434"><ele>8.0</ele><time>2026-04-17T04:07:34Z</time></trkpt><trkpt lat="14.477397991050792" lon="120.97770821019292"><ele>8.0</ele><time>2026-04-17T04:07:36Z</time></trkpt><trkpt lat="14.477327258786763" lon="120.97761559868887"><ele>8.0</ele><time>2026-04-17T04:07:38Z</time></trkpt><trkpt lat="14.477254529323142" lon="120.97753055207873"><ele>7.800000000000001</ele><time>2026-04-17T04:07:40Z</time></trkpt><trkpt lat="14.477158405976997" lon="120.97748097275478"><ele>7.6000000000000005</ele><time>2026-04-17T04:07:42Z</time></trkpt><trkpt lat="14.477037242631392" lon="120.97748424272815"><ele>7.3999999999999995</ele><time>2026-04-17T04:07:44Z</time></trkpt><trkpt lat="14.476974465862085" lon="120.97750445100773"><ele>7.199999999999999</ele><time>2026-04-17T04:07:45Z</time></trkpt><trkpt lat="14.476901496348866" lon="120.97754159871889"><ele>7.0</ele><time>2026-04-17T04:07:46Z</time></trkpt><trkpt lat="14.476829282380956" lon="120.97758006450258"><ele>6.666666666666667</ele><time>2026-04-17T04:07:47Z</time></trkpt><trkpt lat="14.476754791900591" lon="120.97762053600498"><ele>6.333333333333334</ele><time>2026-04-17T04:07:48Z</time></trkpt><trkpt lat="14.476694531050395" lon="120.97765158205694"><ele>6.0</ele><time>2026-04-17T04:07:49Z</time></trkpt><trkpt lat="14.476636553457046" lon="120.97768479074428"><ele>5.666666666666667</ele><time>2026-04-17T04:07:50Z</time></trkpt><trkpt lat="14.47654651067593" lon="120.97774294102526"><ele>5.333333333333334</ele><time>2026-04-17T04:07:52Z</time></trkpt><trkpt lat="14.476443850246229" lon="120.97781203473184"><ele>5.0</ele><time>2026-04-17T04:07:54Z</time></trkpt><trkpt lat="14.476385898922844" lon="120.97785154260988"><ele>5.0</ele><time>2026-04-17T04:07:55Z</time></trkpt><trkpt lat="14.476320598284705" lon="120.97789151505283"><ele>5.0</ele><time>2026-04-17T04:07:56Z</time></trkpt><trkpt lat="14.476252835525914" lon="120.97793375349652"><ele>5.0</ele><time>2026-04-17T04:07:57Z</time></trkpt><trkpt lat="14.476182943093155" lon="120.97797214185282"><ele>5.0</ele><time>2026-04-17T04:07:58Z</time></trkpt><trkpt lat="14.47611405359276" lon="120.97800662006075"><ele>5.0</ele><time>2026-04-17T04:07:59Z</time></trkpt><trkpt lat="14.476048346629812" lon="120.97804203743497"><ele>5.0</ele><time>2026-04-17T04:08:00Z</time></trkpt><trkpt lat="14.47598396093638" lon="120.97808002631076"><ele>5.0</ele><time>2026-04-17T04:08:01Z</time></trkpt><trkpt lat="14.475910567924357" lon="120.97812120688171"><ele>5.0</ele><time>2026-04-17T04:08:02Z</time></trkpt><trkpt lat="14.475834859412725" lon="120.97816354114883"><ele>5.0</ele><time>2026-04-17T04:08:03Z</time></trkpt><trkpt lat="14.475758160985615" lon="120.97819881511997"><ele>5.0</ele><time>2026-04-17T04:08:04Z</time></trkpt><trkpt lat="14.475670547860123" lon="120.97822362606071"><ele>5.0</ele><time>2026-04-17T04:08:05Z</time></trkpt><trkpt lat="14.47559466567342" lon="120.9782463184691"><ele>5.0</ele><time>2026-04-17T04:08:06Z</time></trkpt><trkpt lat="14.47552510148141" lon="120.97824784834293"><ele>5.0</ele><time>2026-04-17T04:08:07Z</time></trkpt><trkpt lat="14.475460911875226" lon="120.97825466453568"><ele>5.0</ele><time>2026-04-17T04:08:08Z</time></trkpt><trkpt lat="14.475398064604265" lon="120.9782600920859"><ele>5.0</ele><time>2026-04-17T04:08:09Z</time></trkpt><trkpt lat="14.475270330178896" lon="120.97826700439657"><ele>5.0</ele><time>2026-04-17T04:08:11Z</time></trkpt><trkpt lat="14.475189812951049" lon="120.97826863460737"><ele>5.0</ele><time>2026-04-17T04:08:12Z</time></trkpt><trkpt lat="14.475119816851391" lon="120.978263256106"><ele>5.0</ele><time>2026-04-17T04:08:13Z</time></trkpt><trkpt lat="14.475004017660373" lon="120.9782567884142"><ele>5.2</ele><time>2026-04-17T04:08:15Z</time></trkpt><trkpt lat="14.47490706534143" lon="120.9782475590452"><ele>5.4</ele><time>2026-04-17T04:08:17Z</time></trkpt><trkpt lat="14.474810073302084" lon="120.97823674041929"><ele>5.6</ele><time>2026-04-17T04:08:19Z</time></trkpt><trkpt lat="14.474669287925478" lon="120.97823265558324"><ele>5.8</ele><time>2026-04-17T04:08:21Z</time></trkpt><trkpt lat="14.474590706539587" lon="120.97823522906238"><ele>6.0</ele><time>2026-04-17T04:08:22Z</time></trkpt><trkpt lat="14.474505036457444" lon="120.97823325293169"><ele>6.0</ele><time>2026-04-17T04:08:23Z</time></trkpt><trkpt lat="14.4744131764684" lon="120.97822371484779"><ele>6.0</ele><time>2026-04-17T04:08:24Z</time></trkpt><trkpt lat="14.474339986997563" lon="120.9782117071008"><ele>6.0</ele><time>2026-04-17T04:08:25Z</time></trkpt><trkpt lat="14.474255503519975" lon="120.97818579698897"><ele>6.0</ele><time>2026-04-17T04:08:26Z</time></trkpt><trkpt lat="14.474183410298972" lon="120.97814151833539"><ele>6.0</ele><time>2026-04-17T04:08:27Z</time></trkpt><trkpt lat="14.474126463434114" lon="120.97807778824652"><ele>6.0</ele><time>2026-04-17T04:08:28Z</time></trkpt><trkpt lat="14.474086237065755" lon="120.9780214523473"><ele>5.999999999999999</ele><time>2026-04-17T04:08:29Z</time></trkpt><trkpt lat="14.474045111329591" lon="120.97795787328242"><ele>6.0</ele><time>2026-04-17T04:08:30Z</time></trkpt><trkpt lat="14.474014309509757" lon="120.97789883276862"><ele>6.0</ele><time>2026-04-17T04:08:31Z</time></trkpt><trkpt lat="14.473968749711348" lon="120.97783790951651"><ele>6.0</ele><time>2026-04-17T04:08:32Z</time></trkpt><trkpt lat="14.473925544900151" lon="120.97777032206454"><ele>6.0</ele><time>2026-04-17T04:08:33Z</time></trkpt><trkpt lat="14.473890271909735" lon="120.97770856704562"><ele>5.999999999999999</ele><time>2026-04-17T04:08:34Z</time></trkpt><trkpt lat="14.4738570632834" lon="120.97764826002174"><ele>6.0</ele><time>2026-04-17T04:08:35Z</time></trkpt><trkpt lat="14.473823890751843" lon="120.9775881831909"><ele>6.0</ele><time>2026-04-17T04:08:36Z</time></trkpt><trkpt lat="14.473787338435464" lon="120.97753090296"><ele>6.0</ele><time>2026-04-17T04:08:37Z</time></trkpt><trkpt lat="14.473724957039503" lon="120.97742768137222"><ele>6.0</ele><time>2026-04-17T04:08:39Z</time></trkpt><trkpt lat="14.473669083082447" lon="120.97732856670274"><ele>6.0</ele><time>2026-04-17T04:08:41Z</time></trkpt><trkpt lat="14.473630808076075" lon="120.97726626738859"><ele>6.0</ele><time>2026-04-17T04:08:42Z</time></trkpt><trkpt lat="14.473577074871862" lon="120.97718604071744"><ele>6.0</ele><time>2026-04-17T04:08:43Z</time></trkpt><trkpt lat="14.473524123922727" lon="120.97709779780858"><ele>6.0</ele><time>2026-04-17T04:08:44Z</time></trkpt><trkpt lat="14.473470659170886" lon="120.97700849912374"><ele>6.0</ele><time>2026-04-17T04:08:45.001Z</time></trkpt><trkpt lat="14.473422497262378" lon="120.97692917878334"><ele>6.0</ele><time>2026-04-17T04:08:46.001Z</time></trkpt><trkpt lat="14.473373972092139" lon="120.9768563585908"><ele>6.0</ele><time>2026-04-17T04:08:47.001Z</time></trkpt><trkpt lat="14.47332624219532" lon="120.97678253222169"><ele>6.0</ele><time>2026-04-17T04:08:48.001Z</time></trkpt><trkpt lat="14.473284932669507" lon="120.97671790870028"><ele>6.0</ele><time>2026-04-17T04:08:49.001Z</time></trkpt><trkpt lat="14.47324851897841" lon="120.97665283591368"><ele>6.0</ele><time>2026-04-17T04:08:51.001Z</time></trkpt><trkpt lat="14.47320732752604" lon="120.97656706377775"><ele>6.0</ele><time>2026-04-17T04:08:54.001Z</time></trkpt><trkpt lat="14.473127959814477" lon="120.97648731306819"><ele>6.0</ele><time>2026-04-17T04:08:56.001Z</time></trkpt><trkpt lat="14.473046234844228" lon="120.97640380648323"><ele>6.199999999999999</ele><time>2026-04-17T04:08:58.001Z</time></trkpt><trkpt lat="14.472998496220534" lon="120.97633572412519"><ele>6.3999999999999995</ele><time>2026-04-17T04:08:59.001Z</time></trkpt><trkpt lat="14.472941207326846" lon="120.97625876459477"><ele>6.6</ele><time>2026-04-17T04:09:00.001Z</time></trkpt><trkpt lat="14.472877796400118" lon="120.97617289351112"><ele>6.8</ele><time>2026-04-17T04:09:01.001Z</time></trkpt><trkpt lat="14.47280979493828" lon="120.97608651615934"><ele>7.0</ele><time>2026-04-17T04:09:02.001Z</time></trkpt><trkpt lat="14.472737416178003" lon="120.97600173664232"><ele>7.0</ele><time>2026-04-17T04:09:03.001Z</time></trkpt><trkpt lat="14.472662873941834" lon="120.97591161128378"><ele>7.0</ele><time>2026-04-17T04:09:04.001Z</time></trkpt><trkpt lat="14.472587322536068" lon="120.97582079047132"><ele>7.0</ele><time>2026-04-17T04:09:05.001Z</time></trkpt><trkpt lat="14.472506410864474" lon="120.97572180849278"><ele>7.0</ele><time>2026-04-17T04:09:06.001Z</time></trkpt><trkpt lat="14.472428823101861" lon="120.97562426527602"><ele>7.0</ele><time>2026-04-17T04:09:07.001Z</time></trkpt><trkpt lat="14.472349032746566" lon="120.97552015906932"><ele>6.999999999999999</ele><time>2026-04-17T04:09:08.001Z</time></trkpt><trkpt lat="14.472285867794554" lon="120.97543272008285"><ele>6.999999999999999</ele><time>2026-04-17T04:09:09.001Z</time></trkpt><trkpt lat="14.472224417008515" lon="120.97534689435038"><ele>7.0</ele><time>2026-04-17T04:09:10.001Z</time></trkpt><trkpt lat="14.472166755719002" lon="120.97526334372782"><ele>7.0</ele><time>2026-04-17T04:09:11.001Z</time></trkpt><trkpt lat="14.47210522323761" lon="120.97517454406012"><ele>7.0</ele><time>2026-04-17T04:09:12.001Z</time></trkpt><trkpt lat="14.472047631033472" lon="120.975080497455"><ele>6.999999999999999</ele><time>2026-04-17T04:09:13.001Z</time></trkpt><trkpt lat="14.471990542729078" lon="120.97498877793188"><ele>6.999999999999999</ele><time>2026-04-17T04:09:14.001Z</time></trkpt><trkpt lat="14.471937039948521" lon="120.97490013262096"><ele>7.0</ele><time>2026-04-17T04:09:15.001Z</time></trkpt><trkpt lat="14.471891507849906" lon="120.97481921491408"><ele>7.0</ele><time>2026-04-17T04:09:16.001Z</time></trkpt><trkpt lat="14.471851698212298" lon="120.97474686887186"><ele>7.0</ele><time>2026-04-17T04:09:17.001Z</time></trkpt><trkpt lat="14.471815216653148" lon="120.97468049981609"><ele>7.0</ele><time>2026-04-17T04:09:18.001Z</time></trkpt><trkpt lat="14.471784134519142" lon="120.9746238731932"><ele>7.0</ele><time>2026-04-17T04:09:19.001Z</time></trkpt><trkpt lat="14.471745657185934" lon="120.97454722649925"><ele>7.0</ele><time>2026-04-17T04:09:21.001Z</time></trkpt><trkpt lat="14.471694236450823" lon="120.97447888077053"><ele>7.0</ele><time>2026-04-17T04:09:24.001Z</time></trkpt><trkpt lat="14.471657003396256" lon="120.97441706111076"><ele>7.0</ele><time>2026-04-17T04:09:26.001Z</time></trkpt><trkpt lat="14.471628556799851" lon="120.97435671197366"><ele>7.0</ele><time>2026-04-17T04:09:28.001Z</time></trkpt><trkpt lat="14.471581722501075" lon="120.9742671316106"><ele>7.000000000000001</ele><time>2026-04-17T04:09:31.001Z</time></trkpt><trkpt lat="14.471551641844425" lon="120.9741983573722"><ele>7.0</ele><time>2026-04-17T04:09:34Z</time></trkpt><trkpt lat="14.471519797906804" lon="120.97413693777781"><ele>7.0</ele><time>2026-04-17T04:09:37Z</time></trkpt><trkpt lat="14.471478639421072" lon="120.97406378763817"><ele>7.0</ele><time>2026-04-17T04:09:40Z</time></trkpt><trkpt lat="14.471441295139941" lon="120.97399366601834"><ele>7.000000000000001</ele><time>2026-04-17T04:09:42Z</time></trkpt><trkpt lat="14.471411051914776" lon="120.97392155082153"><ele>7.0</ele><time>2026-04-17T04:09:44Z</time></trkpt><trkpt lat="14.471378336181205" lon="120.97385046018564"><ele>6.833333333333334</ele><time>2026-04-17T04:09:46Z</time></trkpt><trkpt lat="14.471345781667354" lon="120.9737788822669"><ele>6.666666666666667</ele><time>2026-04-17T04:09:48Z</time></trkpt><trkpt lat="14.471317176041712" lon="120.9737188273081"><ele>6.5</ele><time>2026-04-17T04:09:50Z</time></trkpt><trkpt lat="14.47124532752528" lon="120.97361567131932"><ele>6.333333333333334</ele><time>2026-04-17T04:09:52Z</time></trkpt><trkpt lat="14.471213005764556" lon="120.97353896492834"><ele>6.166666666666667</ele><time>2026-04-17T04:09:53Z</time></trkpt><trkpt lat="14.471174694962071" lon="120.9734539075727"><ele>6.0</ele><time>2026-04-17T04:09:54Z</time></trkpt><trkpt lat="14.471136478537534" lon="120.97337357934322"><ele>6.166666666666667</ele><time>2026-04-17T04:09:55Z</time></trkpt><trkpt lat="14.471104248096196" lon="120.97330333379432"><ele>6.333333333333334</ele><time>2026-04-17T04:09:56Z</time></trkpt><trkpt lat="14.471076341099899" lon="120.97324187934169"><ele>6.5</ele><time>2026-04-17T04:09:57Z</time></trkpt><trkpt lat="14.471033746571807" lon="120.97315782343097"><ele>6.666666666666667</ele><time>2026-04-17T04:09:59Z</time></trkpt><trkpt lat="14.470993043459062" lon="120.97307776396808"><ele>6.833333333333334</ele><time>2026-04-17T04:10:01Z</time></trkpt><trkpt lat="14.47094802975523" lon="120.97298413656607"><ele>7.0</ele><time>2026-04-17T04:10:03Z</time></trkpt><trkpt lat="14.4708994381276" lon="120.9728937724744"><ele>7.0</ele><time>2026-04-17T04:10:05Z</time></trkpt><trkpt lat="14.470851602742853" lon="120.97280038379803"><ele>6.999999999999999</ele><time>2026-04-17T04:10:07Z</time></trkpt><trkpt lat="14.470813572779905" lon="120.97271318179972"><ele>6.999999999999999</ele><time>2026-04-17T04:10:09Z</time></trkpt><trkpt lat="14.470764642911865" lon="120.97260244323856"><ele>7.0</ele><time>2026-04-17T04:10:11Z</time></trkpt><trkpt lat="14.470730050133444" lon="120.9725404376318"><ele>7.0</ele><time>2026-04-17T04:10:12Z</time></trkpt><trkpt lat="14.470697912483134" lon="120.97247430693187"><ele>7.000000000000001</ele><time>2026-04-17T04:10:13Z</time></trkpt><trkpt lat="14.470660681246212" lon="120.97240526738837"><ele>7.0</ele><time>2026-04-17T04:10:14Z</time></trkpt><trkpt lat="14.470624066499113" lon="120.97234177864021"><ele>7.0</ele><time>2026-04-17T04:10:15Z</time></trkpt><trkpt lat="14.47055377356837" lon="120.97224393902482"><ele>7.0</ele><time>2026-04-17T04:10:17Z</time></trkpt><trkpt lat="14.470493451822989" lon="120.9721683660343"><ele>7.000000000000001</ele><time>2026-04-17T04:10:19Z</time></trkpt><trkpt lat="14.470447538869614" lon="120.97209638200879"><ele>7.0</ele><time>2026-04-17T04:10:21Z</time></trkpt><trkpt lat="14.470399519185952" lon="120.97200649680104"><ele>7.0</ele><time>2026-04-17T04:10:23Z</time></trkpt><trkpt lat="14.470347693328648" lon="120.9719072528055"><ele>6.999999999999999</ele><time>2026-04-17T04:10:25Z</time></trkpt><trkpt lat="14.470288218691238" lon="120.97180908600829"><ele>6.999999999999999</ele><time>2026-04-17T04:10:27Z</time></trkpt><trkpt lat="14.470240112243932" lon="120.97174487372607"><ele>7.0</ele><time>2026-04-17T04:10:28Z</time></trkpt><trkpt lat="14.470199004036271" lon="120.97168526306837"><ele>7.0</ele><time>2026-04-17T04:10:29Z</time></trkpt><trkpt lat="14.47013894911823" lon="120.97160010894758"><ele>7.0</ele><time>2026-04-17T04:10:31Z</time></trkpt><trkpt lat="14.470089993776739" lon="120.97151183145934"><ele>6.999999999999999</ele><time>2026-04-17T04:10:33Z</time></trkpt><trkpt lat="14.47001753236812" lon="120.9714174765192"><ele>6.999999999999999</ele><time>2026-04-17T04:10:35Z</time></trkpt><trkpt lat="14.46997564559919" lon="120.97136740671856"><ele>7.0</ele><time>2026-04-17T04:10:36Z</time></trkpt><trkpt lat="14.469931422593785" lon="120.97131912290399"><ele>7.0</ele><time>2026-04-17T04:10:37Z</time></trkpt><trkpt lat="14.469854093297169" lon="120.97122941095746"><ele>7.0</ele><time>2026-04-17T04:10:39Z</time></trkpt><trkpt lat="14.469788049325725" lon="120.97115016254392"><ele>6.999999999999999</ele><time>2026-04-17T04:10:41Z</time></trkpt><trkpt lat="14.469703728164152" lon="120.97106230912502"><ele>6.999999999999999</ele><time>2026-04-17T04:10:43Z</time></trkpt><trkpt lat="14.469653963310456" lon="120.97101496225855"><ele>7.0</ele><time>2026-04-17T04:10:44Z</time></trkpt><trkpt lat="14.469600269972952" lon="120.9709554854463"><ele>7.0</ele><time>2026-04-17T04:10:45Z</time></trkpt><trkpt lat="14.469545017881334" lon="120.97088141533108"><ele>7.166666666666667</ele><time>2026-04-17T04:10:46Z</time></trkpt><trkpt lat="14.469485117391397" lon="120.97080769345816"><ele>7.333333333333334</ele><time>2026-04-17T04:10:47Z</time></trkpt><trkpt lat="14.469424256013129" lon="120.97073840568771"><ele>7.5</ele><time>2026-04-17T04:10:48.001Z</time></trkpt><trkpt lat="14.469372840952799" lon="120.97067179829692"><ele>7.666666666666666</ele><time>2026-04-17T04:10:49.001Z</time></trkpt><trkpt lat="14.46932555933218" lon="120.97060965950162"><ele>7.833333333333333</ele><time>2026-04-17T04:10:50.001Z</time></trkpt><trkpt lat="14.469273483184722" lon="120.97054923980592"><ele>8.0</ele><time>2026-04-17T04:10:51.001Z</time></trkpt><trkpt lat="14.469224639529187" lon="120.97048688946091"><ele>7.999999999999999</ele><time>2026-04-17T04:10:52.001Z</time></trkpt><trkpt lat="14.469162993127071" lon="120.97043627385014"><ele>8.0</ele><time>2026-04-17T04:10:53.001Z</time></trkpt><trkpt lat="14.469114308554893" lon="120.97038232412788"><ele>8.0</ele><time>2026-04-17T04:10:54.001Z</time></trkpt><trkpt lat="14.469027584705115" lon="120.97028792644242"><ele>8.0</ele><time>2026-04-17T04:10:56.001Z</time></trkpt><trkpt lat="14.468971797252737" lon="120.97024355637825"><ele>7.999999999999999</ele><time>2026-04-17T04:10:57.001Z</time></trkpt><trkpt lat="14.468908646561518" lon="120.97019410126185"><ele>8.0</ele><time>2026-04-17T04:10:58.001Z</time></trkpt><trkpt lat="14.468840784089448" lon="120.97014889916274"><ele>7.999999999999999</ele><time>2026-04-17T04:10:59.001Z</time></trkpt><trkpt lat="14.46877617277929" lon="120.97010991153074"><ele>8.0</ele><time>2026-04-17T04:11:00.001Z</time></trkpt><trkpt lat="14.46871176489742" lon="120.97008642471076"><ele>8.0</ele><time>2026-04-17T04:11:01.001Z</time></trkpt><trkpt lat="14.468620362561868" lon="120.97005112858713"><ele>8.0</ele><time>2026-04-17T04:11:03.001Z</time></trkpt><trkpt lat="14.468546521439988" lon="120.97001834073056"><ele>7.999999999999999</ele><time>2026-04-17T04:11:05.001Z</time></trkpt><trkpt lat="14.468457919564061" lon="120.96999028327834"><ele>8.0</ele><time>2026-04-17T04:11:07.001Z</time></trkpt><trkpt lat="14.468370104831733" lon="120.96995839085747"><ele>7.833333333333333</ele><time>2026-04-17T04:11:09.001Z</time></trkpt><trkpt lat="14.468288020155244" lon="120.96992771486852"><ele>7.666666666666666</ele><time>2026-04-17T04:11:13.001Z</time></trkpt><trkpt lat="14.468220575496947" lon="120.96990136520563"><ele>7.5</ele><time>2026-04-17T04:11:16.001Z</time></trkpt><trkpt lat="14.468142809163243" lon="120.96986086483092"><ele>7.333333333333334</ele><time>2026-04-17T04:11:19.001Z</time></trkpt><trkpt lat="14.46806274005132" lon="120.96981284000366"><ele>7.166666666666667</ele><time>2026-04-17T04:11:21.001Z</time></trkpt><trkpt lat="14.468004404855098" lon="120.9697856460287"><ele>7.0</ele><time>2026-04-17T04:11:22.001Z</time></trkpt><trkpt lat="14.467932058823633" lon="120.96975379714583"><ele>7.0</ele><time>2026-04-17T04:11:23.001Z</time></trkpt><trkpt lat="14.467845353053354" lon="120.96970400771713"><ele>6.999999999999999</ele><time>2026-04-17T04:11:24.001Z</time></trkpt><trkpt lat="14.467756655773334" lon="120.96964453028103"><ele>6.999999999999999</ele><time>2026-04-17T04:11:25.001Z</time></trkpt><trkpt lat="14.467690736609159" lon="120.96958597633902"><ele>7.0</ele><time>2026-04-17T04:11:26.001Z</time></trkpt><trkpt lat="14.467620495919743" lon="120.96953197312692"><ele>7.0</ele><time>2026-04-17T04:11:27.001Z</time></trkpt><trkpt lat="14.467546042338629" lon="120.96947263093911"><ele>7.0</ele><time>2026-04-17T04:11:28.001Z</time></trkpt><trkpt lat="14.467467729229416" lon="120.96941130366244"><ele>6.999999999999999</ele><time>2026-04-17T04:11:29.001Z</time></trkpt><trkpt lat="14.467381619696821" lon="120.96933977084055"><ele>6.999999999999999</ele><time>2026-04-17T04:11:30.001Z</time></trkpt><trkpt lat="14.467287566603684" lon="120.96926190015343"><ele>7.0</ele><time>2026-04-17T04:11:31.001Z</time></trkpt><trkpt lat="14.467194085722305" lon="120.96919017854854"><ele>7.0</ele><time>2026-04-17T04:11:32.001Z</time></trkpt><trkpt lat="14.467093507626545" lon="120.96911498552565"><ele>7.25</ele><time>2026-04-17T04:11:33.001Z</time></trkpt><trkpt lat="14.4669926861224" lon="120.96903819524297"><ele>7.5</ele><time>2026-04-17T04:11:34.001Z</time></trkpt><trkpt lat="14.46689267971457" lon="120.96895712966969"><ele>7.75</ele><time>2026-04-17T04:11:35.001Z</time></trkpt><trkpt lat="14.466812323671926" lon="120.96888777195625"><ele>8.0</ele><time>2026-04-17T04:11:36.001Z</time></trkpt><trkpt lat="14.466724564995513" lon="120.96881720567308"><ele>8.0</ele><time>2026-04-17T04:11:37.001Z</time></trkpt><trkpt lat="14.466644289727336" lon="120.96874879142308"><ele>8.0</ele><time>2026-04-17T04:11:38.001Z</time></trkpt><trkpt lat="14.466565306250276" lon="120.96867816761699"><ele>8.0</ele><time>2026-04-17T04:11:39Z</time></trkpt><trkpt lat="14.466485290510189" lon="120.96859408027491"><ele>8.0</ele><time>2026-04-17T04:11:40Z</time></trkpt><trkpt lat="14.466426558018242" lon="120.96851657433807"><ele>8.0</ele><time>2026-04-17T04:11:41Z</time></trkpt><trkpt lat="14.466366336657712" lon="120.96844242305251"><ele>7.999999999999999</ele><time>2026-04-17T04:11:42Z</time></trkpt><trkpt lat="14.466302787279984" lon="120.96837724271367"><ele>8.0</ele><time>2026-04-17T04:11:43Z</time></trkpt><trkpt lat="14.466247947091253" lon="120.96832838570394"><ele>8.0</ele><time>2026-04-17T04:11:44Z</time></trkpt><trkpt lat="14.466175058536557" lon="120.96827354928502"><ele>8.0</ele><time>2026-04-17T04:11:48Z</time></trkpt><trkpt lat="14.466114099229374" lon="120.96821304164072"><ele>7.999999999999999</ele><time>2026-04-17T04:11:50Z</time></trkpt><trkpt lat="14.466056871280347" lon="120.96816951089595"><ele>8.0</ele><time>2026-04-17T04:13:45Z</time></trkpt><trkpt lat="14.465996301568017" lon="120.96812926947558"><ele>7.75</ele><time>2026-04-17T04:13:46Z</time></trkpt><trkpt lat="14.46592019538868" lon="120.96807553550582"><ele>7.5</ele><time>2026-04-17T04:13:47Z</time></trkpt><trkpt lat="14.465838857297825" lon="120.96800672540662"><ele>7.25</ele><time>2026-04-17T04:13:48Z</time></trkpt><trkpt lat="14.46574629051027" lon="120.96792102003762"><ele>7.0</ele><time>2026-04-17T04:13:49Z</time></trkpt><trkpt lat="14.465651309965375" lon="120.96783221459089"><ele>7.0</ele><time>2026-04-17T04:13:50Z</time></trkpt><trkpt lat="14.465543153939906" lon="120.96773613411156"><ele>7.0</ele><time>2026-04-17T04:13:51Z</time></trkpt><trkpt lat="14.465423180669339" lon="120.96770343381533"><ele>7.0</ele><time>2026-04-17T04:13:52Z</time></trkpt><trkpt lat="14.46529474742581" lon="120.96760972869856"><ele>7.0</ele><time>2026-04-17T04:13:53Z</time></trkpt><trkpt lat="14.465159291256963" lon="120.96751362775572"><ele>8.333333333333334</ele><time>2026-04-17T04:13:54Z</time></trkpt><trkpt lat="14.465019570281786" lon="120.96741689236623"><ele>9.666666666666666</ele><time>2026-04-17T04:13:55Z</time></trkpt><trkpt lat="14.464870200882261" lon="120.96732029009313"><ele>11.0</ele><time>2026-04-17T04:13:56Z</time></trkpt><trkpt lat="14.464727055684898" lon="120.96722504364999"><ele>11.0</ele><time>2026-04-17T04:13:57Z</time></trkpt><trkpt lat="14.464619432908858" lon="120.96714320661367"><ele>11.0</ele><time>2026-04-17T04:13:58Z</time></trkpt><trkpt lat="14.46453678987566" lon="120.96707784891115"><ele>11.0</ele><time>2026-04-17T04:13:59Z</time></trkpt><trkpt lat="14.46445659027656" lon="120.96700391700706"><ele>11.0</ele><time>2026-04-17T04:14:00Z</time></trkpt><trkpt lat="14.464388253921724" lon="120.96690896408316"><ele>10.5</ele><time>2026-04-17T04:14:01Z</time></trkpt><trkpt lat="14.46433277075856" lon="120.96679461938781"><ele>10.0</ele><time>2026-04-17T04:14:02Z</time></trkpt><trkpt lat="14.464272721773893" lon="120.96668651726499"><ele>9.5</ele><time>2026-04-17T04:14:03Z</time></trkpt><trkpt lat="14.464207319416355" lon="120.9665913396544"><ele>9.0</ele><time>2026-04-17T04:14:04Z</time></trkpt><trkpt lat="14.464142078184143" lon="120.96648614028707"><ele>9.0</ele><time>2026-04-17T04:14:05Z</time></trkpt><trkpt lat="14.464085089595267" lon="120.96638503839519"><ele>9.0</ele><time>2026-04-17T04:14:06Z</time></trkpt><trkpt lat="14.464044443794187" lon="120.96631080466588"><ele>9.0</ele><time>2026-04-17T04:14:07Z</time></trkpt><trkpt lat="14.46399624112397" lon="120.96623529530275"><ele>9.0</ele><time>2026-04-17T04:14:09Z</time></trkpt><trkpt lat="14.463930684736255" lon="120.96615881478277"><ele>9.0</ele><time>2026-04-17T04:14:11Z</time></trkpt><trkpt lat="14.46388130868891" lon="120.96608468736598"><ele>9.0</ele><time>2026-04-17T04:14:13Z</time></trkpt><trkpt lat="14.463831235825694" lon="120.96600048555649"><ele>9.0</ele><time>2026-04-17T04:14:15Z</time></trkpt><trkpt lat="14.463763643860991" lon="120.96589119923568"><ele>9.0</ele><time>2026-04-17T04:14:17Z</time></trkpt><trkpt lat="14.4637151219235" lon="120.96581604372967"><ele>9.0</ele><time>2026-04-17T04:14:18Z</time></trkpt><trkpt lat="14.46365358727721" lon="120.96571653415339"><ele>9.0</ele><time>2026-04-17T04:14:19Z</time></trkpt><trkpt lat="14.463586483800382" lon="120.96560650008283"><ele>9.0</ele><time>2026-04-17T04:14:20Z</time></trkpt><trkpt lat="14.463516120985435" lon="120.96550694537046"><ele>9.0</ele><time>2026-04-17T04:14:21Z</time></trkpt><trkpt lat="14.463447620020165" lon="120.96540126415913"><ele>9.0</ele><time>2026-04-17T04:14:22Z</time></trkpt><trkpt lat="14.46338409724267" lon="120.96528760087199"><ele>9.0</ele><time>2026-04-17T04:14:23Z</time></trkpt><trkpt lat="14.463318153432661" lon="120.96518833369099"><ele>9.0</ele><time>2026-04-17T04:14:24Z</time></trkpt><trkpt lat="14.46325843266915" lon="120.96511080283351"><ele>9.0</ele><time>2026-04-17T04:14:25Z</time></trkpt><trkpt lat="14.463203811719907" lon="120.96503629868675"><ele>9.0</ele><time>2026-04-17T04:14:26Z</time></trkpt><trkpt lat="14.463154513018955" lon="120.96495999143553"><ele>9.0</ele><time>2026-04-17T04:14:27Z</time></trkpt><trkpt lat="14.463106932715396" lon="120.96488781132132"><ele>9.0</ele><time>2026-04-17T04:14:28Z</time></trkpt><trkpt lat="14.463060508852562" lon="120.9648178917501"><ele>9.0</ele><time>2026-04-17T04:14:29Z</time></trkpt><trkpt lat="14.463007387764888" lon="120.96474562181577"><ele>8.833333333333334</ele><time>2026-04-17T04:14:30Z</time></trkpt><trkpt lat="14.462948954405045" lon="120.96466283575313"><ele>8.666666666666666</ele><time>2026-04-17T04:14:31Z</time></trkpt><trkpt lat="14.462896907473752" lon="120.96457384209286"><ele>8.5</ele><time>2026-04-17T04:14:32Z</time></trkpt><trkpt lat="14.462856089416217" lon="120.9645021662713"><ele>8.333333333333332</ele><time>2026-04-17T04:14:33Z</time></trkpt><trkpt lat="14.462812456811607" lon="120.96443661884894"><ele>8.166666666666666</ele><time>2026-04-17T04:14:35Z</time></trkpt><trkpt lat="14.462775288860426" lon="120.96436817201659"><ele>8.0</ele><time>2026-04-17T04:14:38Z</time></trkpt><trkpt lat="14.462717050781633" lon="120.96428794914864"><ele>8.0</ele><time>2026-04-17T04:14:40Z</time></trkpt><trkpt lat="14.462666070452514" lon="120.96420426909239"><ele>8.0</ele><time>2026-04-17T04:14:43Z</time></trkpt><trkpt lat="14.462598387158957" lon="120.96409242379947"><ele>8.0</ele><time>2026-04-17T04:14:45Z</time></trkpt><trkpt lat="14.462539093119092" lon="120.96400045899287"><ele>8.0</ele><time>2026-04-17T04:14:47Z</time></trkpt><trkpt lat="14.462502533837053" lon="120.96394152969381"><ele>8.0</ele><time>2026-04-17T04:14:49Z</time></trkpt><trkpt lat="14.46245921725312" lon="120.96386659878341"><ele>8.166666666666666</ele><time>2026-04-17T04:14:57Z</time></trkpt><trkpt lat="14.462406687423274" lon="120.96379702572963"><ele>8.333333333333332</ele><time>2026-04-17T04:14:59Z</time></trkpt><trkpt lat="14.462371360277874" lon="120.9637419064679"><ele>8.5</ele><time>2026-04-17T04:15:00.001Z</time></trkpt><trkpt lat="14.46232148465982" lon="120.96366914771312"><ele>8.666666666666666</ele><time>2026-04-17T04:15:01.001Z</time></trkpt><trkpt lat="14.462281062133856" lon="120.96359950525321"><ele>8.833333333333334</ele><time>2026-04-17T04:15:02.001Z</time></trkpt><trkpt lat="14.46224107269425" lon="120.96353441406403"><ele>9.0</ele><time>2026-04-17T04:15:03.001Z</time></trkpt><trkpt lat="14.462202221196483" lon="120.96347202662493"><ele>9.0</ele><time>2026-04-17T04:15:04.001Z</time></trkpt><trkpt lat="14.462167318911614" lon="120.96341484394166"><ele>9.0</ele><time>2026-04-17T04:15:05.001Z</time></trkpt><trkpt lat="14.462098969517754" lon="120.96331130808043"><ele>9.0</ele><time>2026-04-17T04:15:07.001Z</time></trkpt><trkpt lat="14.46202236738257" lon="120.96318565206575"><ele>9.0</ele><time>2026-04-17T04:15:09.001Z</time></trkpt><trkpt lat="14.461986557530038" lon="120.96311486240133"><ele>9.0</ele><time>2026-04-17T04:15:10.001Z</time></trkpt><trkpt lat="14.461950058274883" lon="120.96305330726929"><ele>8.8</ele><time>2026-04-17T04:15:11.001Z</time></trkpt><trkpt lat="14.461911421681705" lon="120.96298284302321"><ele>8.600000000000001</ele><time>2026-04-17T04:15:12.001Z</time></trkpt><trkpt lat="14.46184368246207" lon="120.96288654195305"><ele>8.4</ele><time>2026-04-17T04:15:14.001Z</time></trkpt><trkpt lat="14.461786893594313" lon="120.9627971699192"><ele>8.200000000000001</ele><time>2026-04-17T04:15:16.001Z</time></trkpt><trkpt lat="14.461728389814489" lon="120.96271129783952"><ele>8.0</ele><time>2026-04-17T04:15:19.001Z</time></trkpt><trkpt lat="14.46168550119773" lon="120.9626474611351"><ele>7.999999999999999</ele><time>2026-04-17T04:15:21.001Z</time></trkpt><trkpt lat="14.461642082991315" lon="120.96258692149178"><ele>8.0</ele><time>2026-04-17T04:15:23.001Z</time></trkpt><trkpt lat="14.461598752301537" lon="120.96250705298185"><ele>8.0</ele><time>2026-04-17T04:15:26.001Z</time></trkpt><trkpt lat="14.461534718766442" lon="120.96240706443105"><ele>8.0</ele><time>2026-04-17T04:15:28.001Z</time></trkpt><trkpt lat="14.461497712851122" lon="120.96234662396645"><ele>7.999999999999999</ele><time>2026-04-17T04:15:29.001Z</time></trkpt><trkpt lat="14.46144647885981" lon="120.96227215800488"><ele>8.0</ele><time>2026-04-17T04:15:30.001Z</time></trkpt><trkpt lat="14.461378947206843" lon="120.96217796345249"><ele>8.0</ele><time>2026-04-17T04:15:31.001Z</time></trkpt><trkpt lat="14.46131141845776" lon="120.96208074580571"><ele>8.0</ele><time>2026-04-17T04:15:32.001Z</time></trkpt><trkpt lat="14.461255151255138" lon="120.96199934877657"><ele>8.0</ele><time>2026-04-17T04:15:33.001Z</time></trkpt><trkpt lat="14.461208170876397" lon="120.9619287897796"><ele>8.0</ele><time>2026-04-17T04:15:34.001Z</time></trkpt><trkpt lat="14.46115571273546" lon="120.96184652266722"><ele>8.0</ele><time>2026-04-17T04:15:35.001Z</time></trkpt><trkpt lat="14.46110049216502" lon="120.9617578405281"><ele>8.0</ele><time>2026-04-17T04:15:36.001Z</time></trkpt><trkpt lat="14.461047076725922" lon="120.96165828093032"><ele>8.0</ele><time>2026-04-17T04:15:37.001Z</time></trkpt><trkpt lat="14.460989103376244" lon="120.96155706403684"><ele>8.0</ele><time>2026-04-17T04:15:38.001Z</time></trkpt><trkpt lat="14.46093515880462" lon="120.96146723162677"><ele>8.0</ele><time>2026-04-17T04:15:39.001Z</time></trkpt><trkpt lat="14.4608768616914" lon="120.96137552921651"><ele>8.0</ele><time>2026-04-17T04:15:40.001Z</time></trkpt><trkpt lat="14.460815516001075" lon="120.96127968905735"><ele>8.0</ele><time>2026-04-17T04:15:41.001Z</time></trkpt><trkpt lat="14.460746009373977" lon="120.96117924307242"><ele>8.0</ele><time>2026-04-17T04:15:42.001Z</time></trkpt><trkpt lat="14.460675269734507" lon="120.96107775244725"><ele>8.0</ele><time>2026-04-17T04:15:43.001Z</time></trkpt><trkpt lat="14.460609428121073" lon="120.96097580592608"><ele>8.0</ele><time>2026-04-17T04:15:44.001Z</time></trkpt><trkpt lat="14.460539137247093" lon="120.96086784887788"><ele>8.0</ele><time>2026-04-17T04:15:45.001Z</time></trkpt><trkpt lat="14.46045927659466" lon="120.96075941679052"><ele>8.0</ele><time>2026-04-17T04:15:46.001Z</time></trkpt><trkpt lat="14.460383197739844" lon="120.96065380553381"><ele>8.0</ele><time>2026-04-17T04:15:47.001Z</time></trkpt><trkpt lat="14.460310552072809" lon="120.96055745785458"><ele>8.0</ele><time>2026-04-17T04:15:48.001Z</time></trkpt><trkpt lat="14.460238195608445" lon="120.96046898069757"><ele>8.4</ele><time>2026-04-17T04:15:49.001Z</time></trkpt><trkpt lat="14.460170049065162" lon="120.96039056645108"><ele>8.8</ele><time>2026-04-17T04:15:50.001Z</time></trkpt><trkpt lat="14.46010891626231" lon="120.96031422111436"><ele>9.2</ele><time>2026-04-17T04:15:50.999Z</time></trkpt><trkpt lat="14.460054378541528" lon="120.96025245163756"><ele>9.6</ele><time>2026-04-17T04:15:51.999Z</time></trkpt><trkpt lat="14.459980493773717" lon="120.96017202126804"><ele>10.0</ele><time>2026-04-17T04:15:53.999Z</time></trkpt><trkpt lat="14.45992700339824" lon="120.96012757549585"><ele>10.0</ele><time>2026-04-17T04:15:56.999Z</time></trkpt><trkpt lat="14.459871117495064" lon="120.96006536414313"><ele>10.0</ele><time>2026-04-17T04:17:48.001Z</time></trkpt><trkpt lat="14.45979828137518" lon="120.95999464774374"><ele>10.0</ele><time>2026-04-17T04:17:50.001Z</time></trkpt><trkpt lat="14.459747000494518" lon="120.9599472724093"><ele>10.0</ele><time>2026-04-17T04:17:51.001Z</time></trkpt><trkpt lat="14.459709331658996" lon="120.95987857342013"><ele>10.0</ele><time>2026-04-17T04:17:52.001Z</time></trkpt><trkpt lat="14.459656982702894" lon="120.95982622448999"><ele>10.0</ele><time>2026-04-17T04:17:53.001Z</time></trkpt><trkpt lat="14.459587433937521" lon="120.95978047550501"><ele>10.0</ele><time>2026-04-17T04:17:54.001Z</time></trkpt><trkpt lat="14.459484708263552" lon="120.95970262369775"><ele>10.0</ele><time>2026-04-17T04:17:56.001Z</time></trkpt><trkpt lat="14.459421647844529" lon="120.95966778863588"><ele>10.0</ele><time>2026-04-17T04:17:57Z</time></trkpt><trkpt lat="14.459363721262411" lon="120.95962980563417"><ele>10.0</ele><time>2026-04-17T04:17:58Z</time></trkpt><trkpt lat="14.459302733831937" lon="120.95958961164231"><ele>10.0</ele><time>2026-04-17T04:17:59Z</time></trkpt><trkpt lat="14.459229725467766" lon="120.95955666190105"><ele>10.0</ele><time>2026-04-17T04:18:00Z</time></trkpt><trkpt lat="14.459173007540631" lon="120.95951474588182"><ele>10.0</ele><time>2026-04-17T04:18:01Z</time></trkpt><trkpt lat="14.45907394605008" lon="120.95945220468147"><ele>10.0</ele><time>2026-04-17T04:18:03Z</time></trkpt><trkpt lat="14.45900979122115" lon="120.95940091086656"><ele>10.0</ele><time>2026-04-17T04:18:04Z</time></trkpt><trkpt lat="14.458929942131931" lon="120.95935213376362"><ele>10.0</ele><time>2026-04-17T04:18:05Z</time></trkpt><trkpt lat="14.458856819551537" lon="120.95932502808235"><ele>10.0</ele><time>2026-04-17T04:18:06Z</time></trkpt><trkpt lat="14.45879421918684" lon="120.95928501786307"><ele>10.0</ele><time>2026-04-17T04:18:07Z</time></trkpt><trkpt lat="14.458734819285862" lon="120.959244538067"><ele>9.666666666666668</ele><time>2026-04-17T04:18:08Z</time></trkpt><trkpt lat="14.45867542586287" lon="120.95921127491988"><ele>9.333333333333334</ele><time>2026-04-17T04:18:09Z</time></trkpt><trkpt lat="14.45859634881881" lon="120.95916783066554"><ele>9.0</ele><time>2026-04-17T04:18:11Z</time></trkpt><trkpt lat="14.45853604665453" lon="120.95913015277118"><ele>8.666666666666666</ele><time>2026-04-17T04:18:13Z</time></trkpt><trkpt lat="14.45847365440081" lon="120.95909944407128"><ele>8.333333333333332</ele><time>2026-04-17T04:18:14Z</time></trkpt><trkpt lat="14.458385420566563" lon="120.95906720967291"><ele>8.0</ele><time>2026-04-17T04:18:15Z</time></trkpt><trkpt lat="14.458278201346431" lon="120.95901942025789"><ele>8.0</ele><time>2026-04-17T04:18:15.999Z</time></trkpt><trkpt lat="14.458165053905258" lon="120.95896024635113"><ele>8.0</ele><time>2026-04-17T04:18:16.999Z</time></trkpt><trkpt lat="14.45804990146869" lon="120.95890075685116"><ele>8.0</ele><time>2026-04-17T04:18:17.999Z</time></trkpt><trkpt lat="14.457922239112863" lon="120.9588370180685"><ele>8.0</ele><time>2026-04-17T04:18:18.999Z</time></trkpt><trkpt lat="14.457785823651614" lon="120.95877482883184"><ele>7.0</ele><time>2026-04-17T04:18:19.999Z</time></trkpt><trkpt lat="14.457643427698144" lon="120.95870775389595"><ele>6.0</ele><time>2026-04-17T04:18:20.999Z</time></trkpt><trkpt lat="14.457491932299751" lon="120.95864376281358"><ele>5.0</ele><time>2026-04-17T04:18:21.999Z</time></trkpt><trkpt lat="14.457344407256976" lon="120.95855715397285"><ele>5.0</ele><time>2026-04-17T04:18:22.999Z</time></trkpt><trkpt lat="14.457194657183045" lon="120.95848155648082"><ele>5.0</ele><time>2026-04-17T04:18:23.999Z</time></trkpt><trkpt lat="14.457048705138464" lon="120.95840929867718"><ele>5.0</ele><time>2026-04-17T04:18:24.999Z</time></trkpt><trkpt lat="14.456910019278597" lon="120.95834173495754"><ele>5.666666666666667</ele><time>2026-04-17T04:18:25.999Z</time></trkpt><trkpt lat="14.456770769722647" lon="120.9582738966367"><ele>6.333333333333334</ele><time>2026-04-17T04:18:26.999Z</time></trkpt><trkpt lat="14.456621810076669" lon="120.95820083643063"><ele>7.0</ele><time>2026-04-17T04:18:27.999Z</time></trkpt><trkpt lat="14.456474538020661" lon="120.95813108378557"><ele>7.0</ele><time>2026-04-17T04:18:28.999Z</time></trkpt><trkpt lat="14.456312132389685" lon="120.95805471009717"><ele>7.0</ele><time>2026-04-17T04:18:29.999Z</time></trkpt><trkpt lat="14.456166525936748" lon="120.95798641194537"><ele>7.0</ele><time>2026-04-17T04:18:30.999Z</time></trkpt><trkpt lat="14.456023271035964" lon="120.9579151420036"><ele>7.5</ele><time>2026-04-17T04:18:31.999Z</time></trkpt><trkpt lat="14.455886345819646" lon="120.95785033016793"><ele>8.0</ele><time>2026-04-17T04:18:32.999Z</time></trkpt><trkpt lat="14.45575673432113" lon="120.95779071062077"><ele>8.5</ele><time>2026-04-17T04:18:33.999Z</time></trkpt><trkpt lat="14.455634238837698" lon="120.95773461296984"><ele>9.0</ele><time>2026-04-17T04:18:34.999Z</time></trkpt><trkpt lat="14.455513260542096" lon="120.95769511501237"><ele>8.75</ele><time>2026-04-17T04:18:35.999Z</time></trkpt><trkpt lat="14.455407013267024" lon="120.95763741545072"><ele>8.5</ele><time>2026-04-17T04:18:36.999Z</time></trkpt><trkpt lat="14.45530126118766" lon="120.95758592639271"><ele>8.25</ele><time>2026-04-17T04:18:37.999Z</time></trkpt><trkpt lat="14.455202849873508" lon="120.95753716582966"><ele>8.0</ele><time>2026-04-17T04:18:38.999Z</time></trkpt><trkpt lat="14.455091930061593" lon="120.9574830294182"><ele>7.5</ele><time>2026-04-17T04:18:39.999Z</time></trkpt><trkpt lat="14.454980666908828" lon="120.95743623014056"><ele>7.0</ele><time>2026-04-17T04:18:40.999Z</time></trkpt><trkpt lat="14.45487123869687" lon="120.95739120622696"><ele>6.5</ele><time>2026-04-17T04:18:41.999Z</time></trkpt><trkpt lat="14.454756656627705" lon="120.9573331217903"><ele>6.0</ele><time>2026-04-17T04:18:42.999Z</time></trkpt><trkpt lat="14.45464574186512" lon="120.95727702775314"><ele>5.5</ele><time>2026-04-17T04:18:43.999Z</time></trkpt><trkpt lat="14.454515940036579" lon="120.95721577395729"><ele>5.0</ele><time>2026-04-17T04:18:44.999Z</time></trkpt><trkpt lat="14.454399197351275" lon="120.95716037601795"><ele>4.5</ele><time>2026-04-17T04:18:45.999Z</time></trkpt><trkpt lat="14.454289055869129" lon="120.95710703377051"><ele>4.0</ele><time>2026-04-17T04:18:46.999Z</time></trkpt><trkpt lat="14.45417603595363" lon="120.95705404333057"><ele>4.0</ele><time>2026-04-17T04:18:47.999Z</time></trkpt><trkpt lat="14.45405965495943" lon="120.95699649775776"><ele>4.0</ele><time>2026-04-17T04:18:48.999Z</time></trkpt><trkpt lat="14.45395869517806" lon="120.9569305564816"><ele>4.0</ele><time>2026-04-17T04:18:49.999Z</time></trkpt><trkpt lat="14.453860411463316" lon="120.95688019798281"><ele>4.0</ele><time>2026-04-17T04:18:50.999Z</time></trkpt><trkpt lat="14.453742627908166" lon="120.95684847247382"><ele>4.0</ele><time>2026-04-17T04:18:51.999Z</time></trkpt><trkpt lat="14.45363232492342" lon="120.95680028987168"><ele>4.0</ele><time>2026-04-17T04:18:52.999Z</time></trkpt><trkpt lat="14.453518197942264" lon="120.95672716752189"><ele>4.0</ele><time>2026-04-17T04:18:53.999Z</time></trkpt><trkpt lat="14.453394335135389" lon="120.95666922247922"><ele>4.0</ele><time>2026-04-17T04:18:54.999Z</time></trkpt><trkpt lat="14.453261089216364" lon="120.95660688786356"><ele>4.0</ele><time>2026-04-17T04:18:55.999Z</time></trkpt><trkpt lat="14.453127413630085" lon="120.95654435225298"><ele>4.0</ele><time>2026-04-17T04:18:56.999Z</time></trkpt><trkpt lat="14.452994381615925" lon="120.95648272178329"><ele>4.0</ele><time>2026-04-17T04:18:57.999Z</time></trkpt><trkpt lat="14.452874866410035" lon="120.95642774812251"><ele>4.0</ele><time>2026-04-17T04:18:58.999Z</time></trkpt><trkpt lat="14.452761608737392" lon="120.9563756527515"><ele>4.0</ele><time>2026-04-17T04:18:59.999Z</time></trkpt><trkpt lat="14.452655899026013" lon="120.95632702923746"><ele>4.0</ele><time>2026-04-17T04:19:00.999Z</time></trkpt><trkpt lat="14.452550217744307" lon="120.956276550246"><ele>4.0</ele><time>2026-04-17T04:19:01.999Z</time></trkpt><trkpt lat="14.452450605817928" lon="120.95622888377646"><ele>4.0</ele><time>2026-04-17T04:19:02.999Z</time></trkpt><trkpt lat="14.452353735911323" lon="120.95618269436483"><ele>4.0</ele><time>2026-04-17T04:19:03.999Z</time></trkpt><trkpt lat="14.45224697397446" lon="120.95613183321306"><ele>4.0</ele><time>2026-04-17T04:19:04.999Z</time></trkpt><trkpt lat="14.452138421192602" lon="120.95608011890681"><ele>4.0</ele><time>2026-04-17T04:19:05.999Z</time></trkpt><trkpt lat="14.452025836462157" lon="120.95602648378927"><ele>4.0</ele><time>2026-04-17T04:19:06.999Z</time></trkpt><trkpt lat="14.45192400448866" lon="120.95597588480089"><ele>4.0</ele><time>2026-04-17T04:19:07.999Z</time></trkpt><trkpt lat="14.451827721683044" lon="120.95592967433889"><ele>4.6</ele><time>2026-04-17T04:19:08.999Z</time></trkpt><trkpt lat="14.451736908269538" lon="120.95588645607353"><ele>5.2</ele><time>2026-04-17T04:19:09.999Z</time></trkpt><trkpt lat="14.45165371481849" lon="120.95584686416159"><ele>5.799999999999999</ele><time>2026-04-17T04:19:10.999Z</time></trkpt><trkpt lat="14.45157177316927" lon="120.95580786798457"><ele>6.3999999999999995</ele><time>2026-04-17T04:19:11.999Z</time></trkpt><trkpt lat="14.45148745968954" lon="120.95576740600279"><ele>7.0</ele><time>2026-04-17T04:19:12.999Z</time></trkpt><trkpt lat="14.45141013984171" lon="120.95573031685826"><ele>7.000000000000001</ele><time>2026-04-17T04:19:13.999Z</time></trkpt><trkpt lat="14.451347950040974" lon="120.95570090485036"><ele>7.0</ele><time>2026-04-17T04:19:14.999Z</time></trkpt><trkpt lat="14.45123991009672" lon="120.95564986349746"><ele>7.0</ele><time>2026-04-17T04:19:16.999Z</time></trkpt><trkpt lat="14.451181991438931" lon="120.95562252770192"><ele>7.0</ele><time>2026-04-17T04:19:17.999Z</time></trkpt><trkpt lat="14.451117038387022" lon="120.95559567565097"><ele>7.000000000000001</ele><time>2026-04-17T04:19:18.999Z</time></trkpt><trkpt lat="14.451038475070336" lon="120.95555768892812"><ele>7.0</ele><time>2026-04-17T04:19:19.999Z</time></trkpt><trkpt lat="14.45095422411892" lon="120.95551810840736"><ele>7.0</ele><time>2026-04-17T04:19:20.999Z</time></trkpt><trkpt lat="14.450858344761851" lon="120.95547306494129"><ele>7.0</ele><time>2026-04-17T04:19:21.999Z</time></trkpt><trkpt lat="14.450753634680149" lon="120.9554238728611"><ele>7.0</ele><time>2026-04-17T04:19:22.999Z</time></trkpt><trkpt lat="14.45064670822092" lon="120.95537373352757"><ele>7.0</ele><time>2026-04-17T04:19:23.999Z</time></trkpt><trkpt lat="14.450532834045454" lon="120.95533933150003"><ele>6.75</ele><time>2026-04-17T04:19:24.999Z</time></trkpt><trkpt lat="14.45042791143164" lon="120.95527227869452"><ele>6.5</ele><time>2026-04-17T04:19:25.999Z</time></trkpt><trkpt lat="14.450317097352077" lon="120.95522082404895"><ele>6.25</ele><time>2026-04-17T04:19:26.999Z</time></trkpt><trkpt lat="14.45020141234977" lon="120.95516684250433"><ele>6.0</ele><time>2026-04-17T04:19:27.999Z</time></trkpt><trkpt lat="14.450082240852959" lon="120.95511123407302"><ele>6.0</ele><time>2026-04-17T04:19:28.999Z</time></trkpt><trkpt lat="14.449970068237766" lon="120.95505889144702"><ele>6.0</ele><time>2026-04-17T04:19:29.999Z</time></trkpt><trkpt lat="14.449860374735762" lon="120.95500226933623"><ele>6.0</ele><time>2026-04-17T04:19:30.999Z</time></trkpt><trkpt lat="14.449748571291675" lon="120.95494600905246"><ele>6.0</ele><time>2026-04-17T04:19:31.999Z</time></trkpt><trkpt lat="14.449617610888787" lon="120.95487937824447"><ele>6.333333333333334</ele><time>2026-04-17T04:19:32.999Z</time></trkpt><trkpt lat="14.449478630507024" lon="120.9548140087862"><ele>6.666666666666667</ele><time>2026-04-17T04:19:33.999Z</time></trkpt><trkpt lat="14.449339440206277" lon="120.95474797201067"><ele>7.0</ele><time>2026-04-17T04:19:34.999Z</time></trkpt><trkpt lat="14.449202243470632" lon="120.95468302004555"><ele>7.0</ele><time>2026-04-17T04:19:35.999Z</time></trkpt><trkpt lat="14.449068992170936" lon="120.9546199388128"><ele>7.0</ele><time>2026-04-17T04:19:36.999Z</time></trkpt><trkpt lat="14.448932846642963" lon="120.95455537790757"><ele>7.0</ele><time>2026-04-17T04:19:37.999Z</time></trkpt><trkpt lat="14.448798661694832" lon="120.95449264415079"><ele>7.0</ele><time>2026-04-17T04:19:38.999Z</time></trkpt><trkpt lat="14.448657821228398" lon="120.95442530299604"><ele>7.0</ele><time>2026-04-17T04:19:39.999Z</time></trkpt><trkpt lat="14.448520917811212" lon="120.95436197027833"><ele>7.0</ele><time>2026-04-17T04:19:40.999Z</time></trkpt><trkpt lat="14.448378779339595" lon="120.95431992928496"><ele>7.0</ele><time>2026-04-17T04:19:41.999Z</time></trkpt><trkpt lat="14.448258095471123" lon="120.95426224049557"><ele>7.0</ele><time>2026-04-17T04:19:42.999Z</time></trkpt><trkpt lat="14.448144704608701" lon="120.95420860441435"><ele>7.25</ele><time>2026-04-17T04:19:43.999Z</time></trkpt><trkpt lat="14.448028697270951" lon="120.95415621582417"><ele>7.5</ele><time>2026-04-17T04:19:44.999Z</time></trkpt><trkpt lat="14.4479249298314" lon="120.9540791898444"><ele>7.75</ele><time>2026-04-17T04:19:45.999Z</time></trkpt><trkpt lat="14.44782617800639" lon="120.95403227667936"><ele>8.0</ele><time>2026-04-17T04:19:46.999Z</time></trkpt><trkpt lat="14.44772726280699" lon="120.95398863386174"><ele>7.4</ele><time>2026-04-17T04:19:47.999Z</time></trkpt><trkpt lat="14.447626398435814" lon="120.95393793589622"><ele>6.800000000000001</ele><time>2026-04-17T04:19:48.999Z</time></trkpt><trkpt lat="14.447528729821423" lon="120.95389166141373"><ele>6.2</ele><time>2026-04-17T04:19:49.999Z</time></trkpt><trkpt lat="14.447429295654063" lon="120.9538448096118"><ele>5.6</ele><time>2026-04-17T04:19:51Z</time></trkpt><trkpt lat="14.447336408430981" lon="120.95380104262524"><ele>5.0</ele><time>2026-04-17T04:19:52Z</time></trkpt><trkpt lat="14.447241936308018" lon="120.9537736011057"><ele>5.0</ele><time>2026-04-17T04:19:53Z</time></trkpt><trkpt lat="14.44715323359306" lon="120.9537280373712"><ele>5.0</ele><time>2026-04-17T04:19:54Z</time></trkpt><trkpt lat="14.447066239682634" lon="120.9536846049832"><ele>5.0</ele><time>2026-04-17T04:19:55Z</time></trkpt><trkpt lat="14.446979950868595" lon="120.95364182704229"><ele>5.0</ele><time>2026-04-17T04:19:56Z</time></trkpt><trkpt lat="14.446902143451197" lon="120.95361098362656"><ele>5.0</ele><time>2026-04-17T04:19:57Z</time></trkpt><trkpt lat="14.446849952906991" lon="120.95357061549052"><ele>5.0</ele><time>2026-04-17T04:19:58Z</time></trkpt><trkpt lat="14.44676544138165" lon="120.95354106722989"><ele>5.333333333333334</ele><time>2026-04-17T04:20:00Z</time></trkpt><trkpt lat="14.446694188782168" lon="120.95348885187535"><ele>5.666666666666667</ele><time>2026-04-17T04:20:02Z</time></trkpt><trkpt lat="14.446624586439617" lon="120.95344726282131"><ele>6.0</ele><time>2026-04-17T04:20:03.998Z</time></trkpt><trkpt lat="14.446525169705083" lon="120.95340487768415"><ele>6.333333333333334</ele><time>2026-04-17T04:20:06.999Z</time></trkpt><trkpt lat="14.446463414870435" lon="120.95337056406198"><ele>6.666666666666667</ele><time>2026-04-17T04:20:08.999Z</time></trkpt><trkpt lat="14.446387334584607" lon="120.95332560821792"><ele>7.0</ele><time>2026-04-17T04:20:11.999Z</time></trkpt><trkpt lat="14.446303720569263" lon="120.95332714554448"><ele>7.166666666666667</ele><time>2026-04-17T04:20:18.999Z</time></trkpt><trkpt lat="14.446234657126324" lon="120.95329609957616"><ele>7.333333333333334</ele><time>2026-04-17T04:20:29Z</time></trkpt><trkpt lat="14.446176731109583" lon="120.95326625598025"><ele>7.5</ele><time>2026-04-17T04:20:37Z</time></trkpt><trkpt lat="14.446094694933382" lon="120.95320360291612"><ele>7.666666666666666</ele><time>2026-04-17T04:20:40Z</time></trkpt><trkpt lat="14.446036033341569" lon="120.9531798150264"><ele>7.833333333333333</ele><time>2026-04-17T04:20:41Z</time></trkpt><trkpt lat="14.445914688446708" lon="120.95312029062036"><ele>8.0</ele><time>2026-04-17T04:20:43Z</time></trkpt><trkpt lat="14.445827740253971" lon="120.95306490044959"><ele>8.0</ele><time>2026-04-17T04:20:44Z</time></trkpt><trkpt lat="14.445725992532529" lon="120.95301642064574"><ele>8.0</ele><time>2026-04-17T04:20:45Z</time></trkpt><trkpt lat="14.445603876699254" lon="120.95295430270409"><ele>8.0</ele><time>2026-04-17T04:20:47Z</time></trkpt><trkpt lat="14.445543934948178" lon="120.95291890771516"><ele>8.0</ele><time>2026-04-17T04:20:48Z</time></trkpt><trkpt lat="14.445482503011283" lon="120.95285799983638"><ele>8.0</ele><time>2026-04-17T04:20:49Z</time></trkpt><trkpt lat="14.445422206407445" lon="120.95283198770582"><ele>8.4</ele><time>2026-04-17T04:20:50Z</time></trkpt><trkpt lat="14.44536380105868" lon="120.95280543836674"><ele>8.8</ele><time>2026-04-17T04:20:51Z</time></trkpt><trkpt lat="14.445410901913013" lon="120.95262663428083"><ele>9.2</ele><time>2026-04-17T04:20:52Z</time></trkpt><trkpt lat="14.445417650705105" lon="120.95254221042772"><ele>9.6</ele><time>2026-04-17T04:20:53Z</time></trkpt><trkpt lat="14.445451737113647" lon="120.95245595849102"><ele>10.0</ele><time>2026-04-17T04:20:54Z</time></trkpt><trkpt lat="14.445458260542807" lon="120.95235884598772"><ele>9.666666666666668</ele><time>2026-04-17T04:20:55Z</time></trkpt><trkpt lat="14.445481797955047" lon="120.95226540970965"><ele>9.333333333333334</ele><time>2026-04-17T04:20:56Z</time></trkpt><trkpt lat="14.445498912934552" lon="120.9521725835964"><ele>9.0</ele><time>2026-04-17T04:20:57Z</time></trkpt><trkpt lat="14.445513985807915" lon="120.95209320531245"><ele>8.666666666666666</ele><time>2026-04-17T04:20:58Z</time></trkpt><trkpt lat="14.445527490031296" lon="120.9520245094531"><ele>8.333333333333332</ele><time>2026-04-17T04:20:59Z</time></trkpt><trkpt lat="14.445544007051394" lon="120.95195647480708"><ele>8.0</ele><time>2026-04-17T04:21:00Z</time></trkpt><trkpt lat="14.445571664668238" lon="120.95184487391695"><ele>7.999999999999999</ele><time>2026-04-17T04:21:02.001Z</time></trkpt><trkpt lat="14.44559615950357" lon="120.95177203411725"><ele>8.0</ele><time>2026-04-17T04:21:04.001Z</time></trkpt><trkpt lat="14.445609891453675" lon="120.95170589845314"><ele>8.0</ele><time>2026-04-17T04:21:06.001Z</time></trkpt><trkpt lat="14.445606481849667" lon="120.95162672174658"><ele>8.0</ele><time>2026-04-17T04:21:08.001Z</time></trkpt><trkpt lat="14.445654123896313" lon="120.95157725698209"><ele>7.999999999999999</ele><time>2026-04-17T04:21:09.001Z</time></trkpt><trkpt lat="14.445678660346472" lon="120.95146009758753"><ele>8.0</ele><time>2026-04-17T04:21:11.001Z</time></trkpt><trkpt lat="14.44570566822502" lon="120.95133252051755"><ele>8.333333333333332</ele><time>2026-04-17T04:21:13.001Z</time></trkpt><trkpt lat="14.445721264810814" lon="120.95126046403863"><ele>8.666666666666666</ele><time>2026-04-17T04:21:14.001Z</time></trkpt><trkpt lat="14.44573613466639" lon="120.95119264562484"><ele>9.0</ele><time>2026-04-17T04:21:15.001Z</time></trkpt><trkpt lat="14.445754593646173" lon="120.95110846585008"><ele>9.333333333333334</ele><time>2026-04-17T04:21:17.001Z</time></trkpt><trkpt lat="14.445776670177848" lon="120.95100783422451"><ele>9.666666666666668</ele><time>2026-04-17T04:21:19.001Z</time></trkpt><trkpt lat="14.445793635168604" lon="120.95093050265481"><ele>10.0</ele><time>2026-04-17T04:21:21.001Z</time></trkpt><trkpt lat="14.445807611218363" lon="120.95086301415004"><ele>10.0</ele><time>2026-04-17T04:21:23.001Z</time></trkpt><trkpt lat="14.445821111378336" lon="120.950798261709"><ele>10.0</ele><time>2026-04-17T04:21:25.001Z</time></trkpt><trkpt lat="14.445839030749102" lon="120.95071231277242"><ele>10.0</ele><time>2026-04-17T04:21:27.001Z</time></trkpt><trkpt lat="14.445856995531756" lon="120.95062614607848"><ele>10.0</ele><time>2026-04-17T04:21:29.001Z</time></trkpt><trkpt lat="14.445882960795323" lon="120.95050197660493"><ele>10.0</ele><time>2026-04-17T04:21:31.001Z</time></trkpt><trkpt lat="14.445897585229345" lon="120.95043212466766"><ele>10.0</ele><time>2026-04-17T04:21:32.001Z</time></trkpt><trkpt lat="14.445921940761371" lon="120.95031579347432"><ele>10.0</ele><time>2026-04-17T04:21:34.001Z</time></trkpt><trkpt lat="14.445936031394968" lon="120.95025240198517"><ele>10.0</ele><time>2026-04-17T04:21:35.001Z</time></trkpt><trkpt lat="14.445956507306573" lon="120.95015859426144"><ele>10.0</ele><time>2026-04-17T04:21:37.001Z</time></trkpt><trkpt lat="14.445972691195397" lon="120.95008180082577"><ele>10.0</ele><time>2026-04-17T04:21:43.001Z</time></trkpt><trkpt lat="14.445861506218336" lon="120.95002021434232"><ele>10.0</ele><time>2026-04-17T04:21:49.001Z</time></trkpt><trkpt lat="14.445935312051189" lon="120.9498772820838"><ele>9.75</ele><time>2026-04-17T04:21:50.001Z</time></trkpt><trkpt lat="14.44596191361661" lon="120.94977534103774"><ele>9.5</ele><time>2026-04-17T04:21:51.001Z</time></trkpt><trkpt lat="14.445992641448631" lon="120.94965901551817"><ele>9.25</ele><time>2026-04-17T04:21:52.001Z</time></trkpt><trkpt lat="14.446021422526412" lon="120.94954572788603"><ele>9.0</ele><time>2026-04-17T04:21:53.001Z</time></trkpt><trkpt lat="14.446108861731588" lon="120.9494448268271"><ele>9.0</ele><time>2026-04-17T04:21:54.001Z</time></trkpt><trkpt lat="14.446133920670428" lon="120.9493249806248"><ele>9.0</ele><time>2026-04-17T04:21:55.001Z</time></trkpt><trkpt lat="14.446158776320926" lon="120.94920581710522"><ele>9.0</ele><time>2026-04-17T04:21:56.001Z</time></trkpt><trkpt lat="14.446185262248028" lon="120.94907883851606"><ele>9.0</ele><time>2026-04-17T04:21:57.001Z</time></trkpt><trkpt lat="14.446212332742732" lon="120.94895546431611"><ele>8.8</ele><time>2026-04-17T04:21:58.001Z</time></trkpt><trkpt lat="14.446237979356425" lon="120.94883241038599"><ele>8.600000000000001</ele><time>2026-04-17T04:21:59.001Z</time></trkpt><trkpt lat="14.446260745579435" lon="120.94872166469537"><ele>8.4</ele><time>2026-04-17T04:22:00.001Z</time></trkpt><trkpt lat="14.44628295084705" lon="120.94861364892292"><ele>8.200000000000001</ele><time>2026-04-17T04:22:01.001Z</time></trkpt><trkpt lat="14.446306592383737" lon="120.94850552464722"><ele>8.0</ele><time>2026-04-17T04:22:02.001Z</time></trkpt><trkpt lat="14.446329890893551" lon="120.94839518111311"><ele>8.0</ele><time>2026-04-17T04:22:03.001Z</time></trkpt><trkpt lat="14.44635360666955" lon="120.94828254180219"><ele>8.0</ele><time>2026-04-17T04:22:04.001Z</time></trkpt><trkpt lat="14.446377984832159" lon="120.94816628552043"><ele>8.0</ele><time>2026-04-17T04:22:05.001Z</time></trkpt><trkpt lat="14.446403979463266" lon="120.94804181425953"><ele>8.0</ele><time>2026-04-17T04:22:06.001Z</time></trkpt><trkpt lat="14.446430630291099" lon="120.94791420089555"><ele>8.0</ele><time>2026-04-17T04:22:07.001Z</time></trkpt><trkpt lat="14.446458019320874" lon="120.94778305275258"><ele>8.0</ele><time>2026-04-17T04:22:08.001Z</time></trkpt><trkpt lat="14.446483889989052" lon="120.94765917506344"><ele>8.0</ele><time>2026-04-17T04:22:09Z</time></trkpt><trkpt lat="14.44644394140237" lon="120.94752987278683"><ele>8.0</ele><time>2026-04-17T04:22:10Z</time></trkpt><trkpt lat="14.446458790725922" lon="120.9474201902892"><ele>8.0</ele><time>2026-04-17T04:22:11Z</time></trkpt><trkpt lat="14.446478726864402" lon="120.94732440602242"><ele>8.0</ele><time>2026-04-17T04:22:12Z</time></trkpt><trkpt lat="14.446498366906999" lon="120.94721845126067"><ele>8.0</ele><time>2026-04-17T04:22:13Z</time></trkpt><trkpt lat="14.446513555581351" lon="120.94711243868305"><ele>8.0</ele><time>2026-04-17T04:22:14Z</time></trkpt><trkpt lat="14.446617646734003" lon="120.94702607698885"><ele>8.0</ele><time>2026-04-17T04:22:15Z</time></trkpt><trkpt lat="14.446640798299708" lon="120.94691482355084"><ele>8.0</ele><time>2026-04-17T04:22:16Z</time></trkpt><trkpt lat="14.446664267306769" lon="120.94680191357105"><ele>8.0</ele><time>2026-04-17T04:22:17Z</time></trkpt><trkpt lat="14.446687518922392" lon="120.94669004947887"><ele>8.0</ele><time>2026-04-17T04:22:18Z</time></trkpt><trkpt lat="14.446712267055883" lon="120.94657098563901"><ele>8.0</ele><time>2026-04-17T04:22:19Z</time></trkpt><trkpt lat="14.44673722392519" lon="120.94645091851814"><ele>7.75</ele><time>2026-04-17T04:22:20Z</time></trkpt><trkpt lat="14.446763128886198" lon="120.94632994241606"><ele>7.5</ele><time>2026-04-17T04:22:21Z</time></trkpt><trkpt lat="14.446789028376637" lon="120.94620805238985"><ele>7.25</ele><time>2026-04-17T04:22:22Z</time></trkpt><trkpt lat="14.446813517964173" lon="120.94609279781736"><ele>7.0</ele><time>2026-04-17T04:22:23Z</time></trkpt><trkpt lat="14.446838208969803" lon="120.94597659704256"><ele>7.25</ele><time>2026-04-17T04:22:24Z</time></trkpt><trkpt lat="14.44686106405745" lon="120.94585726301568"><ele>7.5</ele><time>2026-04-17T04:22:25Z</time></trkpt><trkpt lat="14.446811166826151" lon="120.9457191178708"><ele>7.75</ele><time>2026-04-17T04:22:26Z</time></trkpt><trkpt lat="14.446837081107697" lon="120.94558685564746"><ele>8.0</ele><time>2026-04-17T04:22:27Z</time></trkpt><trkpt lat="14.446865043327065" lon="120.94544315743754"><ele>8.0</ele><time>2026-04-17T04:22:28Z</time></trkpt><trkpt lat="14.446897717011986" lon="120.94529669278046"><ele>8.0</ele><time>2026-04-17T04:22:29Z</time></trkpt><trkpt lat="14.44693202493318" lon="120.94514247064572"><ele>8.0</ele><time>2026-04-17T04:22:30Z</time></trkpt><trkpt lat="14.446968792395424" lon="120.94498558796279"><ele>8.0</ele><time>2026-04-17T04:22:31Z</time></trkpt><trkpt lat="14.4470757409688" lon="120.94483917724051"><ele>8.0</ele><time>2026-04-17T04:22:32Z</time></trkpt><trkpt lat="14.447108720787668" lon="120.94468220563877"><ele>8.0</ele><time>2026-04-17T04:22:33Z</time></trkpt><trkpt lat="14.447139961482613" lon="120.94453351241553"><ele>7.6000000000000005</ele><time>2026-04-17T04:22:34Z</time></trkpt><trkpt lat="14.447169205782602" lon="120.94439774173965"><ele>7.200000000000001</ele><time>2026-04-17T04:22:35Z</time></trkpt><trkpt lat="14.447193382484658" lon="120.94428490270995"><ele>6.8</ele><time>2026-04-17T04:22:36Z</time></trkpt><trkpt lat="14.447212323870467" lon="120.94419276659448"><ele>6.4</ele><time>2026-04-17T04:22:37Z</time></trkpt><trkpt lat="14.447227381967298" lon="120.9441204929639"><ele>6.0</ele><time>2026-04-17T04:22:38Z</time></trkpt><trkpt lat="14.447255252682366" lon="120.94398672328035"><ele>6.0</ele><time>2026-04-17T04:22:40Z</time></trkpt><trkpt lat="14.447270699506394" lon="120.94391258394971"><ele>6.0</ele><time>2026-04-17T04:22:41Z</time></trkpt><trkpt lat="14.447295291518913" lon="120.94379455088908"><ele>6.0</ele><time>2026-04-17T04:22:43Z</time></trkpt><trkpt lat="14.447311504860984" lon="120.94371946478621"><ele>6.0</ele><time>2026-04-17T04:22:46Z</time></trkpt><trkpt lat="14.447334114230141" lon="120.9436156747601"><ele>6.0</ele><time>2026-04-17T04:22:49Z</time></trkpt><trkpt lat="14.447360052120946" lon="120.9434901101759"><ele>6.0</ele><time>2026-04-17T04:22:51Z</time></trkpt><trkpt lat="14.44737687692329" lon="120.94340944056414"><ele>6.0</ele><time>2026-04-17T04:22:52Z</time></trkpt><trkpt lat="14.447392772277174" lon="120.94333322737828"><ele>6.0</ele><time>2026-04-17T04:22:53Z</time></trkpt><trkpt lat="14.447410884380018" lon="120.94324638562996"><ele>6.0</ele><time>2026-04-17T04:22:54Z</time></trkpt><trkpt lat="14.447430471551591" lon="120.94315247126515"><ele>6.0</ele><time>2026-04-17T04:22:55Z</time></trkpt><trkpt lat="14.447449620651945" lon="120.9430608036132"><ele>6.0</ele><time>2026-04-17T04:22:56Z</time></trkpt><trkpt lat="14.447470933540615" lon="120.94295886906033"><ele>5.8</ele><time>2026-04-17T04:22:57Z</time></trkpt><trkpt lat="14.447493992167056" lon="120.94284858501311"><ele>5.6</ele><time>2026-04-17T04:22:58Z</time></trkpt><trkpt lat="14.447516170928397" lon="120.94274250907593"><ele>5.4</ele><time>2026-04-17T04:22:59Z</time></trkpt><trkpt lat="14.447539931877596" lon="120.94262886597869"><ele>5.2</ele><time>2026-04-17T04:23:00Z</time></trkpt><trkpt lat="14.447561739624371" lon="120.9425165132136"><ele>5.0</ele><time>2026-04-17T04:23:01Z</time></trkpt><trkpt lat="14.447583474236087" lon="120.94240109082995"><ele>5.75</ele><time>2026-04-17T04:23:02Z</time></trkpt><trkpt lat="14.447608947767622" lon="120.9422771299961"><ele>6.5</ele><time>2026-04-17T04:23:03Z</time></trkpt><trkpt lat="14.447634336319798" lon="120.94215280667783"><ele>7.25</ele><time>2026-04-17T04:23:04Z</time></trkpt><trkpt lat="14.447661417636155" lon="120.94202019417514"><ele>8.0</ele><time>2026-04-17T04:23:05Z</time></trkpt><trkpt lat="14.447685797568571" lon="120.9419008098602"><ele>8.0</ele><time>2026-04-17T04:23:06Z</time></trkpt><trkpt lat="14.447709043795253" lon="120.94178697746486"><ele>8.0</ele><time>2026-04-17T04:23:07Z</time></trkpt><trkpt lat="14.447733856483945" lon="120.9416749067351"><ele>8.0</ele><time>2026-04-17T04:23:08Z</time></trkpt><trkpt lat="14.447756572327478" lon="120.94156552724105"><ele>8.0</ele><time>2026-04-17T04:23:09Z</time></trkpt><trkpt lat="14.44777727795461" lon="120.94146794664455"><ele>8.0</ele><time>2026-04-17T04:23:10.001Z</time></trkpt><trkpt lat="14.44779444287455" lon="120.94138705263488"><ele>8.166666666666666</ele><time>2026-04-17T04:23:11.001Z</time></trkpt><trkpt lat="14.447809575978868" lon="120.9413157338656"><ele>8.333333333333332</ele><time>2026-04-17T04:23:12.001Z</time></trkpt><trkpt lat="14.447824727929031" lon="120.94124432637831"><ele>8.5</ele><time>2026-04-17T04:23:14.001Z</time></trkpt><trkpt lat="14.447838209014852" lon="120.94118079328143"><ele>8.666666666666666</ele><time>2026-04-17T04:23:18.001Z</time></trkpt><trkpt lat="14.447855897449003" lon="120.9410974319797"><ele>8.833333333333334</ele><time>2026-04-17T04:23:20.001Z</time></trkpt><trkpt lat="14.447881816491225" lon="120.94100618955243"><ele>9.0</ele><time>2026-04-17T04:23:21.001Z</time></trkpt><trkpt lat="14.447906487379994" lon="120.94089815614043"><ele>8.75</ele><time>2026-04-17T04:23:22.001Z</time></trkpt><trkpt lat="14.447932916746847" lon="120.94078238154195"><ele>8.5</ele><time>2026-04-17T04:23:23.001Z</time></trkpt><trkpt lat="14.44796273416614" lon="120.94065164368197"><ele>8.25</ele><time>2026-04-17T04:23:24.001Z</time></trkpt><trkpt lat="14.447990648337822" lon="120.94050702646571"><ele>8.0</ele><time>2026-04-17T04:23:25.001Z</time></trkpt><trkpt lat="14.448019914856266" lon="120.9403558850751"><ele>7.666666666666666</ele><time>2026-04-17T04:23:26.001Z</time></trkpt><trkpt lat="14.448049651380737" lon="120.94020231733177"><ele>7.333333333333334</ele><time>2026-04-17T04:23:27.001Z</time></trkpt><trkpt lat="14.448082787634304" lon="120.9400418064002"><ele>7.0</ele><time>2026-04-17T04:23:28.001Z</time></trkpt><trkpt lat="14.448110167315981" lon="120.93987721728557"><ele>6.666666666666667</ele><time>2026-04-17T04:23:29.001Z</time></trkpt><trkpt lat="14.448142195571284" lon="120.93971400596656"><ele>6.333333333333334</ele><time>2026-04-17T04:23:30.001Z</time></trkpt><trkpt lat="14.448175445023503" lon="120.93954708633451"><ele>6.0</ele><time>2026-04-17T04:23:31.001Z</time></trkpt><trkpt lat="14.448214111192303" lon="120.93937484613309"><ele>6.666666666666666</ele><time>2026-04-17T04:23:32.001Z</time></trkpt><trkpt lat="14.448252006426738" lon="120.93920604121313"><ele>7.333333333333333</ele><time>2026-04-17T04:23:33.001Z</time></trkpt><trkpt lat="14.448287116692555" lon="120.93903307763212"><ele>8.0</ele><time>2026-04-17T04:23:34.001Z</time></trkpt><trkpt lat="14.448322466405095" lon="120.9388631784732"><ele>8.0</ele><time>2026-04-17T04:23:35.001Z</time></trkpt><trkpt lat="14.448358137155653" lon="120.93869173639395"><ele>8.0</ele><time>2026-04-17T04:23:36.001Z</time></trkpt><trkpt lat="14.44839420179909" lon="120.9385184015421"><ele>8.0</ele><time>2026-04-17T04:23:37.001Z</time></trkpt><trkpt lat="14.44843088177884" lon="120.93834509562024"><ele>7.666666666666666</ele><time>2026-04-17T04:23:38.001Z</time></trkpt><trkpt lat="14.448467727594581" lon="120.93817074819503"><ele>7.333333333333334</ele><time>2026-04-17T04:23:39.001Z</time></trkpt><trkpt lat="14.448504615389663" lon="120.93799620214507"><ele>7.0</ele><time>2026-04-17T04:23:40.001Z</time></trkpt><trkpt lat="14.448541880814677" lon="120.93781993918061"><ele>7.0</ele><time>2026-04-17T04:23:41.001Z</time></trkpt><trkpt lat="14.448576516958374" lon="120.93765560266831"><ele>7.0</ele><time>2026-04-17T04:23:42.001Z</time></trkpt><trkpt lat="14.44861003067373" lon="120.93749838193882"><ele>7.0</ele><time>2026-04-17T04:23:43.001Z</time></trkpt><trkpt lat="14.448641869569542" lon="120.93734713215709"><ele>7.5</ele><time>2026-04-17T04:23:44.001Z</time></trkpt><trkpt lat="14.448672620309134" lon="120.93720126063143"><ele>8.0</ele><time>2026-04-17T04:23:45.001Z</time></trkpt><trkpt lat="14.448702415172766" lon="120.93705992348148"><ele>8.5</ele><time>2026-04-17T04:23:46.001Z</time></trkpt><trkpt lat="14.44872964958567" lon="120.93693073231047"><ele>9.0</ele><time>2026-04-17T04:23:47.001Z</time></trkpt><trkpt lat="14.44875670537696" lon="120.93680238842157"><ele>9.0</ele><time>2026-04-17T04:23:48.001Z</time></trkpt><trkpt lat="14.448783832580405" lon="120.9366737058037"><ele>9.0</ele><time>2026-04-17T04:23:49.001Z</time></trkpt><trkpt lat="14.448811242236317" lon="120.93654350947615"><ele>9.0</ele><time>2026-04-17T04:23:50.001Z</time></trkpt><trkpt lat="14.448838904053236" lon="120.93641200109109"><ele>9.0</ele><time>2026-04-17T04:23:51.001Z</time></trkpt><trkpt lat="14.448866074082842" lon="120.93628283131844"><ele>8.5</ele><time>2026-04-17T04:23:52.001Z</time></trkpt><trkpt lat="14.448892888740223" lon="120.93615164067229"><ele>8.0</ele><time>2026-04-17T04:23:53.001Z</time></trkpt><trkpt lat="14.448919893389256" lon="120.93601716991215"><ele>7.5</ele><time>2026-04-17T04:23:54.001Z</time></trkpt><trkpt lat="14.448946592863146" lon="120.93588421872334"><ele>7.0</ele><time>2026-04-17T04:23:55.001Z</time></trkpt><trkpt lat="14.448972392888281" lon="120.93575574644437"><ele>7.0</ele><time>2026-04-17T04:23:56.001Z</time></trkpt><trkpt lat="14.44899904489122" lon="120.93562303162794"><ele>7.0</ele><time>2026-04-17T04:23:57.001Z</time></trkpt><trkpt lat="14.449025224087245" lon="120.93549267118377"><ele>7.0</ele><time>2026-04-17T04:23:58.001Z</time></trkpt><trkpt lat="14.449052691431339" lon="120.93535589804901"><ele>7.0</ele><time>2026-04-17T04:23:59.001Z</time></trkpt><trkpt lat="14.449082606373223" lon="120.93521014161205"><ele>7.0</ele><time>2026-04-17T04:24:00.001Z</time></trkpt><trkpt lat="14.449110068902868" lon="120.93507333968694"><ele>7.0</ele><time>2026-04-17T04:24:01.001Z</time></trkpt><trkpt lat="14.449140531709725" lon="120.93492310542551"><ele>7.0</ele><time>2026-04-17T04:24:02.001Z</time></trkpt><trkpt lat="14.449171852415635" lon="120.93476833359232"><ele>7.0</ele><time>2026-04-17T04:24:03.001Z</time></trkpt><trkpt lat="14.449202988876708" lon="120.93461447212779"><ele>7.0</ele><time>2026-04-17T04:24:04.001Z</time></trkpt><trkpt lat="14.449236831302152" lon="120.93445199081181"><ele>7.0</ele><time>2026-04-17T04:24:05.001Z</time></trkpt><trkpt lat="14.449270924664521" lon="120.93428863282423"><ele>7.0</ele><time>2026-04-17T04:24:06.001Z</time></trkpt><trkpt lat="14.449306079228945" lon="120.93412019022543"><ele>7.0</ele><time>2026-04-17T04:24:07.001Z</time></trkpt><trkpt lat="14.449338763917702" lon="120.93396358190927"><ele>7.0</ele><time>2026-04-17T04:24:08.001Z</time></trkpt><trkpt lat="14.449373206174526" lon="120.93379855229863"><ele>7.0</ele><time>2026-04-17T04:24:09.001Z</time></trkpt><trkpt lat="14.44940780748808" lon="120.93363276053378"><ele>7.0</ele><time>2026-04-17T04:24:10.001Z</time></trkpt><trkpt lat="14.449444642168793" lon="120.93346040446484"><ele>7.0</ele><time>2026-04-17T04:24:11.001Z</time></trkpt><trkpt lat="14.449481517734284" lon="120.93328296030212"><ele>7.0</ele><time>2026-04-17T04:24:12.001Z</time></trkpt><trkpt lat="14.44951725728202" lon="120.93310857212029"><ele>7.0</ele><time>2026-04-17T04:24:13.001Z</time></trkpt><trkpt lat="14.449555151126875" lon="120.93292367265099"><ele>7.0</ele><time>2026-04-17T04:24:14.001Z</time></trkpt><trkpt lat="14.449592760731353" lon="120.93274610804804"><ele>7.0</ele><time>2026-04-17T04:24:15Z</time></trkpt><trkpt lat="14.449632039727991" lon="120.93256074087866"><ele>7.0</ele><time>2026-04-17T04:24:16Z</time></trkpt><trkpt lat="14.449671613029624" lon="120.93237883489601"><ele>7.0</ele><time>2026-04-17T04:24:17Z</time></trkpt><trkpt lat="14.449665188777132" lon="120.93218129906747"><ele>7.0</ele><time>2026-04-17T04:24:18Z</time></trkpt><trkpt lat="14.44970606640989" lon="120.931991875352"><ele>7.0</ele><time>2026-04-17T04:24:19Z</time></trkpt><trkpt lat="14.44974363218256" lon="120.93180488287004"><ele>7.0</ele><time>2026-04-17T04:24:20Z</time></trkpt><trkpt lat="14.4497793612653" lon="120.93160850360435"><ele>7.0</ele><time>2026-04-17T04:24:21Z</time></trkpt><trkpt lat="14.449862097966378" lon="120.93143370336904"><ele>7.333333333333334</ele><time>2026-04-17T04:24:22Z</time></trkpt><trkpt lat="14.449900867749996" lon="120.9312536151592"><ele>7.666666666666666</ele><time>2026-04-17T04:24:23Z</time></trkpt><trkpt lat="14.4499388616456" lon="120.93107731142035"><ele>8.0</ele><time>2026-04-17T04:24:24Z</time></trkpt><trkpt lat="14.449974709502369" lon="120.93091090471717"><ele>8.0</ele><time>2026-04-17T04:24:25Z</time></trkpt><trkpt lat="14.450008553448956" lon="120.93074585954156"><ele>8.0</ele><time>2026-04-17T04:24:26Z</time></trkpt><trkpt lat="14.450040366032411" lon="120.93058769829064"><ele>8.0</ele><time>2026-04-17T04:24:27Z</time></trkpt><trkpt lat="14.450067398825464" lon="120.93045330051837"><ele>8.0</ele><time>2026-04-17T04:24:28Z</time></trkpt><trkpt lat="14.450092109295415" lon="120.93033044853779"><ele>8.0</ele><time>2026-04-17T04:24:29Z</time></trkpt><trkpt lat="14.450117414274043" lon="120.93020464086281"><ele>8.0</ele><time>2026-04-17T04:24:30Z</time></trkpt><trkpt lat="14.450138141549385" lon="120.93010438644748"><ele>8.0</ele><time>2026-04-17T04:24:31Z</time></trkpt><trkpt lat="14.450164047568894" lon="120.92998009317517"><ele>7.5</ele><time>2026-04-17T04:24:32Z</time></trkpt><trkpt lat="14.450191073554825" lon="120.92984929134927"><ele>7.0</ele><time>2026-04-17T04:24:33Z</time></trkpt><trkpt lat="14.450217126920586" lon="120.92972203647619"><ele>6.5</ele><time>2026-04-17T04:24:34Z</time></trkpt><trkpt lat="14.45024408619545" lon="120.92959035663831"><ele>6.0</ele><time>2026-04-17T04:24:35Z</time></trkpt><trkpt lat="14.450271279512352" lon="120.92945538733929"><ele>6.0</ele><time>2026-04-17T04:24:36Z</time></trkpt><trkpt lat="14.450298696285486" lon="120.92932048183569"><ele>6.0</ele><time>2026-04-17T04:24:37Z</time></trkpt><trkpt lat="14.450325240064874" lon="120.92918987194523"><ele>6.0</ele><time>2026-04-17T04:24:38Z</time></trkpt><trkpt lat="14.450352258076489" lon="120.92905692856898"><ele>6.0</ele><time>2026-04-17T04:24:39Z</time></trkpt><trkpt lat="14.450378943087559" lon="120.92892562373734"><ele>6.25</ele><time>2026-04-17T04:24:40Z</time></trkpt><trkpt lat="14.45040514147524" lon="120.92879671336112"><ele>6.5</ele><time>2026-04-17T04:24:41Z</time></trkpt><trkpt lat="14.450428548619339" lon="120.92868153736686"><ele>6.75</ele><time>2026-04-17T04:24:42Z</time></trkpt><trkpt lat="14.45044686397623" lon="120.92857429441085"><ele>7.0</ele><time>2026-04-17T04:24:43Z</time></trkpt><trkpt lat="14.450467121443225" lon="120.9284658088941"><ele>7.199999999999999</ele><time>2026-04-17T04:24:44Z</time></trkpt><trkpt lat="14.450486961753546" lon="120.92835955737"><ele>7.3999999999999995</ele><time>2026-04-17T04:24:45Z</time></trkpt><trkpt lat="14.450506871643334" lon="120.9282529332214"><ele>7.6000000000000005</ele><time>2026-04-17T04:24:46Z</time></trkpt><trkpt lat="14.450523376551343" lon="120.92816454388027"><ele>7.800000000000001</ele><time>2026-04-17T04:24:47Z</time></trkpt><trkpt lat="14.450540479357194" lon="120.92807295246966"><ele>8.0</ele><time>2026-04-17T04:24:48Z</time></trkpt><trkpt lat="14.45052864427881" lon="120.92798433208517"><ele>7.999999999999999</ele><time>2026-04-17T04:24:49Z</time></trkpt><trkpt lat="14.450547714325934" lon="120.9278895120069"><ele>8.0</ele><time>2026-04-17T04:24:50Z</time></trkpt><trkpt lat="14.45056911439201" lon="120.92780189763616"><ele>8.0</ele><time>2026-04-17T04:24:51Z</time></trkpt><trkpt lat="14.450587545740142" lon="120.92770653924399"><ele>8.0</ele><time>2026-04-17T04:24:52Z</time></trkpt><trkpt lat="14.450603441587996" lon="120.92762375434869"><ele>7.999999999999999</ele><time>2026-04-17T04:24:53Z</time></trkpt><trkpt lat="14.45061836760995" lon="120.92754406949649"><ele>8.0</ele><time>2026-04-17T04:24:54Z</time></trkpt><trkpt lat="14.45063411738844" lon="120.9274655547972"><ele>7.6000000000000005</ele><time>2026-04-17T04:24:55Z</time></trkpt><trkpt lat="14.450648417974474" lon="120.92738512324988"><ele>7.200000000000001</ele><time>2026-04-17T04:24:56Z</time></trkpt><trkpt lat="14.450658945811073" lon="120.92729128033379"><ele>6.8</ele><time>2026-04-17T04:24:57Z</time></trkpt><trkpt lat="14.450656193081953" lon="120.92719264236068"><ele>6.4</ele><time>2026-04-17T04:24:58Z</time></trkpt><trkpt lat="14.450664691277671" lon="120.92709343850684"><ele>6.0</ele><time>2026-04-17T04:24:59Z</time></trkpt><trkpt lat="14.450655414092273" lon="120.92696297268026"><ele>6.0</ele><time>2026-04-17T04:25:00Z</time></trkpt><trkpt lat="14.450636735099652" lon="120.9268532492698"><ele>6.0</ele><time>2026-04-17T04:25:01Z</time></trkpt><trkpt lat="14.450620084360335" lon="120.92675726172861"><ele>6.0</ele><time>2026-04-17T04:25:02Z</time></trkpt><trkpt lat="14.45060523462453" lon="120.92667643504757"><ele>6.0</ele><time>2026-04-17T04:25:03Z</time></trkpt><trkpt lat="14.450592086099617" lon="120.92660486801218"><ele>6.0</ele><time>2026-04-17T04:25:04Z</time></trkpt><trkpt lat="14.450571399586888" lon="120.92650317869189"><ele>6.333333333333333</ele><time>2026-04-17T04:25:06Z</time></trkpt><trkpt lat="14.450556822982305" lon="120.92642845878733"><ele>6.666666666666666</ele><time>2026-04-17T04:25:09Z</time></trkpt><trkpt lat="14.45054126210841" lon="120.92634962368656"><ele>7.0</ele><time>2026-04-17T04:25:14Z</time></trkpt><trkpt lat="14.45052184920321" lon="120.92625272060242"><ele>7.333333333333333</ele><time>2026-04-17T04:25:16.001Z</time></trkpt><trkpt lat="14.450508147021877" lon="120.92618432364814"><ele>7.666666666666666</ele><time>2026-04-17T04:25:17.001Z</time></trkpt><trkpt lat="14.450493681012764" lon="120.92611061382713"><ele>8.0</ele><time>2026-04-17T04:25:18.001Z</time></trkpt><trkpt lat="14.450476230544911" lon="120.92602089809282"><ele>8.0</ele><time>2026-04-17T04:25:19.001Z</time></trkpt><trkpt lat="14.45045846829518" lon="120.92593409077124"><ele>8.0</ele><time>2026-04-17T04:25:20.001Z</time></trkpt><trkpt lat="14.45043672813943" lon="120.92582263467978"><ele>8.0</ele><time>2026-04-17T04:25:21.001Z</time></trkpt><trkpt lat="14.450414975209917" lon="120.92571119760919"><ele>8.0</ele><time>2026-04-17T04:25:22.001Z</time></trkpt><trkpt lat="14.450392249305045" lon="120.92559400705069"><ele>8.0</ele><time>2026-04-17T04:25:23.001Z</time></trkpt><trkpt lat="14.450371875482881" lon="120.92549477928381"><ele>7.800000000000001</ele><time>2026-04-17T04:25:24.001Z</time></trkpt><trkpt lat="14.45035229673259" lon="120.92540073983328"><ele>7.6000000000000005</ele><time>2026-04-17T04:25:25.001Z</time></trkpt><trkpt lat="14.450333928037061" lon="120.92531251244252"><ele>7.3999999999999995</ele><time>2026-04-17T04:25:26.001Z</time></trkpt><trkpt lat="14.450311880953109" lon="120.92520542753772"><ele>7.199999999999999</ele><time>2026-04-17T04:25:27.001Z</time></trkpt><trkpt lat="14.450292185798903" lon="120.92510715848073"><ele>7.0</ele><time>2026-04-17T04:25:28.001Z</time></trkpt><trkpt lat="14.450272493949795" lon="120.92500890590533"><ele>6.8</ele><time>2026-04-17T04:25:29.001Z</time></trkpt><trkpt lat="14.45024866485149" lon="120.92489001051665"><ele>6.6</ele><time>2026-04-17T04:25:30.001Z</time></trkpt><trkpt lat="14.450224275498456" lon="120.92476831973612"><ele>6.3999999999999995</ele><time>2026-04-17T04:25:31.001Z</time></trkpt><trkpt lat="14.45020980063611" lon="120.92469609734995"><ele>6.199999999999999</ele><time>2026-04-17T04:25:32.001Z</time></trkpt><trkpt lat="14.450189988826972" lon="120.92459724624266"><ele>6.0</ele><time>2026-04-17T04:25:33.001Z</time></trkpt><trkpt lat="14.450171545999629" lon="120.92450522567145"><ele>6.0</ele><time>2026-04-17T04:25:34.001Z</time></trkpt><trkpt lat="14.45015393322844" lon="120.9244173466745"><ele>6.0</ele><time>2026-04-17T04:25:35.001Z</time></trkpt><trkpt lat="14.450139659084353" lon="120.92434979974615"><ele>6.0</ele><time>2026-04-17T04:25:36.001Z</time></trkpt><trkpt lat="14.450115668071767" lon="120.92424254580979"><ele>6.0</ele><time>2026-04-17T04:25:38.001Z</time></trkpt><trkpt lat="14.450091300007701" lon="120.92413360622928"><ele>6.0</ele><time>2026-04-17T04:25:40.001Z</time></trkpt><trkpt lat="14.450067584852809" lon="120.9240275747367"><ele>5.8</ele><time>2026-04-17T04:25:42.001Z</time></trkpt><trkpt lat="14.450047375941258" lon="120.92393720071304"><ele>5.6</ele><time>2026-04-17T04:25:44.001Z</time></trkpt><trkpt lat="14.450023566189412" lon="120.92383072377463"><ele>5.4</ele><time>2026-04-17T04:25:46.001Z</time></trkpt><trkpt lat="14.449995943921138" lon="120.92370589157986"><ele>5.2</ele><time>2026-04-17T04:25:48.001Z</time></trkpt><trkpt lat="14.449981454312388" lon="120.92363871958882"><ele>5.0</ele><time>2026-04-17T04:25:49.001Z</time></trkpt><trkpt lat="14.449958131464358" lon="120.92353059780429"><ele>5.0</ele><time>2026-04-17T04:25:51.001Z</time></trkpt><trkpt lat="14.449936173452695" lon="120.92342880323714"><ele>5.0</ele><time>2026-04-17T04:25:53.001Z</time></trkpt><trkpt lat="14.449913380270754" lon="120.92332313693367"><ele>5.0</ele><time>2026-04-17T04:25:55.001Z</time></trkpt><trkpt lat="14.449893215478973" lon="120.92322965550095"><ele>5.0</ele><time>2026-04-17T04:25:57.001Z</time></trkpt><trkpt lat="14.449874303712047" lon="120.92314198293755"><ele>5.0</ele><time>2026-04-17T04:25:59.001Z</time></trkpt><trkpt lat="14.449850436760565" lon="120.92305261984716"><ele>5.2</ele><time>2026-04-17T04:26:01.001Z</time></trkpt><trkpt lat="14.449716051442724" lon="120.92306477509106"><ele>5.4</ele><time>2026-04-17T04:26:06.001Z</time></trkpt><trkpt lat="14.449642605508753" lon="120.92307081665737"><ele>5.6</ele><time>2026-04-17T04:28:03.001Z</time></trkpt><trkpt lat="14.449710462536114" lon="120.9230283682937"><ele>5.8</ele><time>2026-04-17T04:28:32Z</time></trkpt><trkpt lat="14.44974414554695" lon="120.92312913147028"><ele>6.0</ele><time>2026-04-17T04:30:42Z</time></trkpt><trkpt lat="14.449687064002706" lon="120.9231905468975"><ele>6.0</ele><time>2026-04-17T04:30:45Z</time></trkpt><trkpt lat="14.449628366772187" lon="120.92322078599899"><ele>6.0</ele><time>2026-04-17T04:30:47Z</time></trkpt><trkpt lat="14.44953358852945" lon="120.92325885180905"><ele>6.0</ele><time>2026-04-17T04:30:49Z</time></trkpt><trkpt lat="14.44943693730422" lon="120.92330129418636"><ele>6.0</ele><time>2026-04-17T04:30:51Z</time></trkpt><trkpt lat="14.449331990585408" lon="120.92334155728895"><ele>6.0</ele><time>2026-04-17T04:30:53Z</time></trkpt><trkpt lat="14.449220703218439" lon="120.92337627979663"><ele>6.199999999999999</ele><time>2026-04-17T04:30:55Z</time></trkpt><trkpt lat="14.449101699846507" lon="120.92339309375711"><ele>6.3999999999999995</ele><time>2026-04-17T04:30:57Z</time></trkpt><trkpt lat="14.44901930041906" lon="120.92338796794058"><ele>6.6</ele><time>2026-04-17T04:30:58Z</time></trkpt><trkpt lat="14.448937682831202" lon="120.92339575573146"><ele>6.8</ele><time>2026-04-17T04:30:59Z</time></trkpt><trkpt lat="14.44885435466371" lon="120.92339884468994"><ele>7.0</ele><time>2026-04-17T04:31:01Z</time></trkpt><trkpt lat="14.448733462897911" lon="120.92340348578168"><ele>7.000000000000001</ele><time>2026-04-17T04:31:03Z</time></trkpt><trkpt lat="14.448627185875537" lon="120.92340756580653"><ele>7.0</ele><time>2026-04-17T04:31:05Z</time></trkpt><trkpt lat="14.44851096731223" lon="120.92341202749117"><ele>7.0</ele><time>2026-04-17T04:31:07Z</time></trkpt><trkpt lat="14.4484435642065" lon="120.9234150114839"><ele>7.0</ele><time>2026-04-17T04:31:08Z</time></trkpt><trkpt lat="14.448380535747148" lon="120.92342018987887"><ele>7.000000000000001</ele><time>2026-04-17T04:31:09Z</time></trkpt><trkpt lat="14.448308971869324" lon="120.92343442042743"><ele>7.0</ele><time>2026-04-17T04:31:13Z</time></trkpt><trkpt lat="14.448224366370765" lon="120.92343302069835"><ele>7.0</ele><time>2026-04-17T04:31:16Z</time></trkpt><trkpt lat="14.448126720223136" lon="120.92343704188195"><ele>6.999999999999999</ele><time>2026-04-17T04:31:18Z</time></trkpt><trkpt lat="14.447991033839452" lon="120.92344337795741"><ele>6.999999999999999</ele><time>2026-04-17T04:31:20Z</time></trkpt><trkpt lat="14.447895702123843" lon="120.92344782961179"><ele>7.0</ele><time>2026-04-17T04:31:21Z</time></trkpt><trkpt lat="14.44778715784003" lon="120.92345289825198"><ele>7.0</ele><time>2026-04-17T04:31:22Z</time></trkpt><trkpt lat="14.447675458110922" lon="120.9234570004181"><ele>7.5</ele><time>2026-04-17T04:31:23Z</time></trkpt><trkpt lat="14.447551680902897" lon="120.92346192850837"><ele>8.0</ele><time>2026-04-17T04:31:24Z</time></trkpt><trkpt lat="14.44742115740023" lon="120.92346721891987"><ele>8.5</ele><time>2026-04-17T04:31:25Z</time></trkpt><trkpt lat="14.447282407108135" lon="120.92347076056605"><ele>9.0</ele><time>2026-04-17T04:31:26Z</time></trkpt><trkpt lat="14.447150838255828" lon="120.92346934966916"><ele>8.8</ele><time>2026-04-17T04:31:27Z</time></trkpt><trkpt lat="14.447029760648785" lon="120.92346434387656"><ele>8.600000000000001</ele><time>2026-04-17T04:31:28Z</time></trkpt><trkpt lat="14.446922065511387" lon="120.92345324839388"><ele>8.4</ele><time>2026-04-17T04:31:29Z</time></trkpt><trkpt lat="14.446819678679342" lon="120.92344213481097"><ele>8.200000000000001</ele><time>2026-04-17T04:31:30Z</time></trkpt><trkpt lat="14.446723393078313" lon="120.92344551377985"><ele>8.0</ele><time>2026-04-17T04:31:31Z</time></trkpt><trkpt lat="14.446637810339567" lon="120.9234331648656"><ele>8.0</ele><time>2026-04-17T04:31:32Z</time></trkpt><trkpt lat="14.446551973797057" lon="120.92340399085964"><ele>8.0</ele><time>2026-04-17T04:31:33Z</time></trkpt><trkpt lat="14.44645986816067" lon="120.92339000873243"><ele>8.0</ele><time>2026-04-17T04:31:34Z</time></trkpt><trkpt lat="14.446369848847013" lon="120.9233670529959"><ele>8.0</ele><time>2026-04-17T04:31:35Z</time></trkpt><trkpt lat="14.446277894034859" lon="120.92334684986041"><ele>8.0</ele><time>2026-04-17T04:31:36Z</time></trkpt><trkpt lat="14.44619649559872" lon="120.9233279935322"><ele>7.666666666666666</ele><time>2026-04-17T04:31:37Z</time></trkpt><trkpt lat="14.446123139717209" lon="120.92331373002249"><ele>7.333333333333333</ele><time>2026-04-17T04:31:38Z</time></trkpt><trkpt lat="14.446052944552632" lon="120.9233186510246"><ele>7.0</ele><time>2026-04-17T04:31:39.001Z</time></trkpt><trkpt lat="14.445990627433313" lon="120.92330257597732"><ele>6.666666666666666</ele><time>2026-04-17T04:31:40.001Z</time></trkpt><trkpt lat="14.445917464152785" lon="120.923306968343"><ele>6.333333333333333</ele><time>2026-04-17T04:31:41.001Z</time></trkpt><trkpt lat="14.445835031807533" lon="120.92331892448622"><ele>6.0</ele><time>2026-04-17T04:31:42.001Z</time></trkpt><trkpt lat="14.445738236432184" lon="120.92333176010229"><ele>6.0</ele><time>2026-04-17T04:31:43.001Z</time></trkpt><trkpt lat="14.445640480464979" lon="120.92334733695401"><ele>6.0</ele><time>2026-04-17T04:31:44.001Z</time></trkpt><trkpt lat="14.44553593563004" lon="120.92336700202084"><ele>6.0</ele><time>2026-04-17T04:31:45.001Z</time></trkpt><trkpt lat="14.445419206663773" lon="120.92338908943621"><ele>6.0</ele><time>2026-04-17T04:31:46.001Z</time></trkpt><trkpt lat="14.445301976146988" lon="120.92341196125778"><ele>6.0</ele><time>2026-04-17T04:31:47.001Z</time></trkpt><trkpt lat="14.445194640897839" lon="120.92342817763613"><ele>6.0</ele><time>2026-04-17T04:31:48.001Z</time></trkpt><trkpt lat="14.445083630020987" lon="120.923452149265"><ele>6.0</ele><time>2026-04-17T04:31:49.001Z</time></trkpt><trkpt lat="14.44497301837076" lon="120.9234745133968"><ele>6.0</ele><time>2026-04-17T04:31:50.001Z</time></trkpt><trkpt lat="14.444862969005724" lon="120.92349930903084"><ele>6.0</ele><time>2026-04-17T04:31:51.001Z</time></trkpt><trkpt lat="14.444746793429887" lon="120.92352105203524"><ele>6.25</ele><time>2026-04-17T04:31:52.001Z</time></trkpt><trkpt lat="14.44462199780598" lon="120.92354266222334"><ele>6.5</ele><time>2026-04-17T04:31:53.001Z</time></trkpt><trkpt lat="14.444504900456545" lon="120.9235587580242"><ele>6.75</ele><time>2026-04-17T04:31:54.001Z</time></trkpt><trkpt lat="14.444394488685571" lon="120.92358195889479"><ele>7.0</ele><time>2026-04-17T04:31:55.001Z</time></trkpt><trkpt lat="14.444293733459336" lon="120.92359971411882"><ele>7.000000000000001</ele><time>2026-04-17T04:31:56.001Z</time></trkpt><trkpt lat="14.444189902089333" lon="120.92361744311754"><ele>7.0</ele><time>2026-04-17T04:31:57.001Z</time></trkpt><trkpt lat="14.444097955380569" lon="120.9236311811655"><ele>7.0</ele><time>2026-04-17T04:31:58.001Z</time></trkpt><trkpt lat="14.44402650835463" lon="120.92363999553933"><ele>7.0</ele><time>2026-04-17T04:31:59.001Z</time></trkpt><trkpt lat="14.4439627147063" lon="120.92365060001168"><ele>7.000000000000001</ele><time>2026-04-17T04:32:00.001Z</time></trkpt><trkpt lat="14.443854120721184" lon="120.92366303361207"><ele>7.0</ele><time>2026-04-17T04:32:02.001Z</time></trkpt><trkpt lat="14.443750595827044" lon="120.92368256461262"><ele>7.166666666666667</ele><time>2026-04-17T04:32:04.001Z</time></trkpt><trkpt lat="14.443675469085418" lon="120.92370574363402"><ele>7.333333333333334</ele><time>2026-04-17T04:32:06.001Z</time></trkpt><trkpt lat="14.44361298649943" lon="120.92372708964257"><ele>7.5</ele><time>2026-04-17T04:32:08.001Z</time></trkpt><trkpt lat="14.443532759118353" lon="120.92376039307187"><ele>7.666666666666666</ele><time>2026-04-17T04:32:11.001Z</time></trkpt><trkpt lat="14.443441244564607" lon="120.92381411315372"><ele>7.833333333333333</ele><time>2026-04-17T04:32:15.001Z</time></trkpt><trkpt lat="14.443372197052714" lon="120.92384244786705"><ele>8.0</ele><time>2026-04-17T04:32:16.001Z</time></trkpt><trkpt lat="14.443293824282021" lon="120.92388610737068"><ele>8.0</ele><time>2026-04-17T04:32:17.001Z</time></trkpt><trkpt lat="14.443210849200234" lon="120.92393627497233"><ele>8.0</ele><time>2026-04-17T04:32:18.001Z</time></trkpt><trkpt lat="14.443131323273642" lon="120.92398251541286"><ele>8.0</ele><time>2026-04-17T04:32:19.001Z</time></trkpt><trkpt lat="14.44303147480901" lon="120.9240358133996"><ele>8.0</ele><time>2026-04-17T04:32:20.001Z</time></trkpt><trkpt lat="14.442928616395081" lon="120.9240915568934"><ele>8.0</ele><time>2026-04-17T04:32:21.001Z</time></trkpt><trkpt lat="14.442819096514517" lon="120.92414487496823"><ele>8.0</ele><time>2026-04-17T04:32:22.001Z</time></trkpt><trkpt lat="14.442713002110942" lon="120.9242009586348"><ele>8.0</ele><time>2026-04-17T04:32:23.001Z</time></trkpt><trkpt lat="14.442597157190159" lon="120.92426229207132"><ele>8.0</ele><time>2026-04-17T04:32:24.001Z</time></trkpt><trkpt lat="14.442491523996923" lon="120.92432170053948"><ele>8.0</ele><time>2026-04-17T04:32:25.001Z</time></trkpt><trkpt lat="14.442384176664655" lon="120.92438376688229"><ele>8.0</ele><time>2026-04-17T04:32:26.001Z</time></trkpt><trkpt lat="14.442269100776661" lon="120.9244450968888"><ele>8.0</ele><time>2026-04-17T04:32:27.001Z</time></trkpt><trkpt lat="14.442154398362637" lon="120.92450570234539"><ele>8.0</ele><time>2026-04-17T04:32:28.001Z</time></trkpt><trkpt lat="14.442046232361033" lon="120.92456416686281"><ele>8.0</ele><time>2026-04-17T04:32:29.001Z</time></trkpt><trkpt lat="14.441940594662807" lon="120.92462111616926"><ele>8.0</ele><time>2026-04-17T04:32:30.001Z</time></trkpt><trkpt lat="14.44182595723207" lon="120.92466892202"><ele>8.0</ele><time>2026-04-17T04:32:31.001Z</time></trkpt><trkpt lat="14.441708609632913" lon="120.92473322039139"><ele>8.0</ele><time>2026-04-17T04:32:32.001Z</time></trkpt><trkpt lat="14.44161041102604" lon="120.92480458438534"><ele>8.0</ele><time>2026-04-17T04:32:33.001Z</time></trkpt><trkpt lat="14.44150287859204" lon="120.92484271718955"><ele>8.0</ele><time>2026-04-17T04:32:34.001Z</time></trkpt><trkpt lat="14.441412026377883" lon="120.92489035593617"><ele>8.0</ele><time>2026-04-17T04:32:35.001Z</time></trkpt><trkpt lat="14.441328421480103" lon="120.9249365443881"><ele>8.0</ele><time>2026-04-17T04:32:36.001Z</time></trkpt><trkpt lat="14.441237331230708" lon="120.92498578239754"><ele>8.0</ele><time>2026-04-17T04:32:37.001Z</time></trkpt><trkpt lat="14.441149086944735" lon="120.92503211783331"><ele>8.0</ele><time>2026-04-17T04:32:38Z</time></trkpt><trkpt lat="14.441063118236823" lon="120.92507969609707"><ele>8.0</ele><time>2026-04-17T04:32:39Z</time></trkpt><trkpt lat="14.44097546559172" lon="120.92512761293864"><ele>8.0</ele><time>2026-04-17T04:32:40Z</time></trkpt><trkpt lat="14.440880789722405" lon="120.9251671919047"><ele>8.0</ele><time>2026-04-17T04:32:41Z</time></trkpt><trkpt lat="14.44078267012257" lon="120.9252230368956"><ele>8.0</ele><time>2026-04-17T04:32:42Z</time></trkpt><trkpt lat="14.440690006776931" lon="120.925274041536"><ele>8.0</ele><time>2026-04-17T04:32:43Z</time></trkpt><trkpt lat="14.440605427594706" lon="120.92532059641401"><ele>7.999999999999999</ele><time>2026-04-17T04:32:44Z</time></trkpt><trkpt lat="14.440534203486138" lon="120.92536027679196"><ele>8.0</ele><time>2026-04-17T04:32:45Z</time></trkpt><trkpt lat="14.440480442481809" lon="120.92540926925446"><ele>8.0</ele><time>2026-04-17T04:32:46Z</time></trkpt><trkpt lat="14.440386380432468" lon="120.92544041338756"><ele>8.0</ele><time>2026-04-17T04:32:48Z</time></trkpt><trkpt lat="14.440306926810528" lon="120.92548232740215"><ele>7.999999999999999</ele><time>2026-04-17T04:32:50Z</time></trkpt><trkpt lat="14.440252094876735" lon="120.92551826539406"><ele>8.0</ele><time>2026-04-17T04:32:52Z</time></trkpt><trkpt lat="14.44024216973386" lon="120.92540463802561"><ele>8.200000000000001</ele><time>2026-04-17T04:32:55Z</time></trkpt><trkpt lat="14.440167447241548" lon="120.92539353996877"><ele>8.4</ele><time>2026-04-17T04:32:56Z</time></trkpt><trkpt lat="14.44010577891998" lon="120.92530696588405"><ele>8.600000000000001</ele><time>2026-04-17T04:32:58Z</time></trkpt><trkpt lat="14.440038577508695" lon="120.92520698198722"><ele>8.8</ele><time>2026-04-17T04:33:00Z</time></trkpt><trkpt lat="14.44000277065865" lon="120.92507121416094"><ele>9.0</ele><time>2026-04-17T04:33:02Z</time></trkpt><trkpt lat="14.439962254243293" lon="120.9250152300753"><ele>8.6</ele><time>2026-04-17T04:33:03Z</time></trkpt><trkpt lat="14.43992049480343" lon="120.92495756554797"><ele>8.2</ele><time>2026-04-17T04:33:04Z</time></trkpt><trkpt lat="14.439851896221427" lon="120.92486407476022"><ele>7.799999999999999</ele><time>2026-04-17T04:33:06Z</time></trkpt><trkpt lat="14.439775763313204" lon="120.92476280953704"><ele>7.3999999999999995</ele><time>2026-04-17T04:33:08Z</time></trkpt><trkpt lat="14.43970184393312" lon="120.92466448855966"><ele>7.0</ele><time>2026-04-17T04:33:10Z</time></trkpt><trkpt lat="14.439628291249116" lon="120.92456665532183"><ele>6.8</ele><time>2026-04-17T04:33:12Z</time></trkpt><trkpt lat="14.439585226664317" lon="120.92450943061883"><ele>6.6</ele><time>2026-04-17T04:33:13Z</time></trkpt><trkpt lat="14.439500864059601" lon="120.92439759323612"><ele>6.3999999999999995</ele><time>2026-04-17T04:33:15Z</time></trkpt><trkpt lat="14.439456037328092" lon="120.92433802153542"><ele>6.199999999999999</ele><time>2026-04-17T04:33:16Z</time></trkpt><trkpt lat="14.439389859823692" lon="120.92425130648934"><ele>6.0</ele><time>2026-04-17T04:33:18Z</time></trkpt><trkpt lat="14.439318302876536" lon="120.92415924878745"><ele>6.0</ele><time>2026-04-17T04:33:20Z</time></trkpt><trkpt lat="14.43926267167951" lon="120.9240876794988"><ele>6.0</ele><time>2026-04-17T04:33:21Z</time></trkpt><trkpt lat="14.439196608978023" lon="120.92400269012683"><ele>6.0</ele><time>2026-04-17T04:33:22Z</time></trkpt><trkpt lat="14.439120930540836" lon="120.92390577284445"><ele>6.0</ele><time>2026-04-17T04:33:23Z</time></trkpt><trkpt lat="14.439048058002664" lon="120.92381255919685"><ele>6.0</ele><time>2026-04-17T04:33:24Z</time></trkpt><trkpt lat="14.43897588330765" lon="120.9237195012141"><ele>6.0</ele><time>2026-04-17T04:33:25Z</time></trkpt><trkpt lat="14.438906216422414" lon="120.92364555973707"><ele>6.0</ele><time>2026-04-17T04:33:26Z</time></trkpt><trkpt lat="14.438852654769612" lon="120.92359058043643"><ele>6.0</ele><time>2026-04-17T04:33:27Z</time></trkpt><trkpt lat="14.43879934912622" lon="120.92353586391053"><ele>6.0</ele><time>2026-04-17T04:33:28Z</time></trkpt><trkpt lat="14.438742249417063" lon="120.92347725283052"><ele>6.0</ele><time>2026-04-17T04:33:29Z</time></trkpt><trkpt lat="14.438626412720142" lon="120.92347377108645"><ele>6.0</ele><time>2026-04-17T04:33:30Z</time></trkpt><trkpt lat="14.438541629770086" lon="120.92346284626194"><ele>6.0</ele><time>2026-04-17T04:33:31Z</time></trkpt><trkpt lat="14.438439108120088" lon="120.92344967119772"><ele>6.0</ele><time>2026-04-17T04:33:32Z</time></trkpt><trkpt lat="14.438345737804285" lon="120.92343775580171"><ele>6.0</ele><time>2026-04-17T04:33:33Z</time></trkpt><trkpt lat="14.438266353906496" lon="120.92342779114011"><ele>6.0</ele><time>2026-04-17T04:33:34Z</time></trkpt><trkpt lat="14.438198470952209" lon="120.92341927013543"><ele>6.0</ele><time>2026-04-17T04:33:35Z</time></trkpt><trkpt lat="14.4381358438002" lon="120.92341140885719"><ele>6.0</ele><time>2026-04-17T04:33:37Z</time></trkpt><trkpt lat="14.438036436841491" lon="120.92340507201573"><ele>5.8</ele><time>2026-04-17T04:33:40Z</time></trkpt><trkpt lat="14.437919786501565" lon="120.92339627303625"><ele>5.6</ele><time>2026-04-17T04:33:42Z</time></trkpt><trkpt lat="14.437831919078612" lon="120.92338941463308"><ele>5.4</ele><time>2026-04-17T04:33:43Z</time></trkpt><trkpt lat="14.43772463529523" lon="120.92337800508263"><ele>5.2</ele><time>2026-04-17T04:33:44Z</time></trkpt><trkpt lat="14.437606182474306" lon="120.92336540771059"><ele>5.0</ele><time>2026-04-17T04:33:45Z</time></trkpt><trkpt lat="14.437477977033236" lon="120.92335177317865"><ele>5.0</ele><time>2026-04-17T04:33:47.001Z</time></trkpt><trkpt lat="14.437394288727004" lon="120.92334151472701"><ele>5.0</ele><time>2026-04-17T04:33:48.001Z</time></trkpt><trkpt lat="14.437302570237875" lon="120.92332991482245"><ele>5.0</ele><time>2026-04-17T04:33:49.001Z</time></trkpt><trkpt lat="14.437190904598841" lon="120.92331586702706"><ele>5.0</ele><time>2026-04-17T04:33:50.001Z</time></trkpt><trkpt lat="14.4370658710631" lon="120.92330062442434"><ele>5.0</ele><time>2026-04-17T04:33:51.001Z</time></trkpt><trkpt lat="14.436929523302956" lon="120.92328400252428"><ele>5.333333333333334</ele><time>2026-04-17T04:33:52.001Z</time></trkpt><trkpt lat="14.436784373326327" lon="120.92326614785314"><ele>5.666666666666667</ele><time>2026-04-17T04:33:53.001Z</time></trkpt><trkpt lat="14.436636285959223" lon="120.92324432932935"><ele>6.0</ele><time>2026-04-17T04:33:54.001Z</time></trkpt><trkpt lat="14.436482743562811" lon="120.92321607479288"><ele>6.0</ele><time>2026-04-17T04:33:55.001Z</time></trkpt><trkpt lat="14.436331953436143" lon="120.923184054486"><ele>6.0</ele><time>2026-04-17T04:33:56.001Z</time></trkpt><trkpt lat="14.436183441438413" lon="120.92315174595716"><ele>6.0</ele><time>2026-04-17T04:33:57.001Z</time></trkpt><trkpt lat="14.436039196529192" lon="120.92312008937883"><ele>6.5</ele><time>2026-04-17T04:33:58.001Z</time></trkpt><trkpt lat="14.435892709565325" lon="120.9230870583655"><ele>7.0</ele><time>2026-04-17T04:33:59.001Z</time></trkpt><trkpt lat="14.435755471713131" lon="120.92305627054127"><ele>7.5</ele><time>2026-04-17T04:34:00.001Z</time></trkpt><trkpt lat="14.43563150910989" lon="120.92302797424807"><ele>8.0</ele><time>2026-04-17T04:34:01.001Z</time></trkpt><trkpt lat="14.435521178500194" lon="120.92300171731333"><ele>8.0</ele><time>2026-04-17T04:34:02.001Z</time></trkpt><trkpt lat="14.435420058656897" lon="120.92297825134966"><ele>8.0</ele><time>2026-04-17T04:34:03.001Z</time></trkpt><trkpt lat="14.435325728874881" lon="120.92295606567824"><ele>8.0</ele><time>2026-04-17T04:34:04.001Z</time></trkpt><trkpt lat="14.435224736555941" lon="120.92292895077038"><ele>8.0</ele><time>2026-04-17T04:34:05.001Z</time></trkpt><trkpt lat="14.435116570157424" lon="120.9228992763276"><ele>8.0</ele><time>2026-04-17T04:34:06.001Z</time></trkpt><trkpt lat="14.434993850166485" lon="120.92287156433927"><ele>8.0</ele><time>2026-04-17T04:34:07.001Z</time></trkpt><trkpt lat="14.43486635072465" lon="120.92284758264053"><ele>8.0</ele><time>2026-04-17T04:34:08.001Z</time></trkpt><trkpt lat="14.434741748058801" lon="120.92280662176125"><ele>8.0</ele><time>2026-04-17T04:34:09.001Z</time></trkpt><trkpt lat="14.43463632127306" lon="120.9228073535403"><ele>8.0</ele><time>2026-04-17T04:34:10.001Z</time></trkpt><trkpt lat="14.43451222757643" lon="120.9227908220283"><ele>7.5</ele><time>2026-04-17T04:34:11.001Z</time></trkpt><trkpt lat="14.434376789347626" lon="120.92277763108736"><ele>7.0</ele><time>2026-04-17T04:34:12.001Z</time></trkpt><trkpt lat="14.434237099910195" lon="120.9227714062492"><ele>6.5</ele><time>2026-04-17T04:34:13.001Z</time></trkpt><trkpt lat="14.434096976969991" lon="120.92277011367499"><ele>6.0</ele><time>2026-04-17T04:34:14.001Z</time></trkpt><trkpt lat="14.433955192257928" lon="120.92276801471583"><ele>6.0</ele><time>2026-04-17T04:34:15.001Z</time></trkpt><trkpt lat="14.433815289620771" lon="120.92276490754138"><ele>6.0</ele><time>2026-04-17T04:34:16.001Z</time></trkpt><trkpt lat="14.433674947054342" lon="120.92275847636725"><ele>6.0</ele><time>2026-04-17T04:34:17.001Z</time></trkpt><trkpt lat="14.433532547351936" lon="120.92275181111432"><ele>6.0</ele><time>2026-04-17T04:34:18.001Z</time></trkpt><trkpt lat="14.4333880875346" lon="120.92274100693994"><ele>6.333333333333334</ele><time>2026-04-17T04:34:19.001Z</time></trkpt><trkpt lat="14.433237649581562" lon="120.92272306529911"><ele>6.666666666666667</ele><time>2026-04-17T04:34:20.001Z</time></trkpt><trkpt lat="14.433080223198088" lon="120.92270256069591"><ele>7.0</ele><time>2026-04-17T04:34:21.001Z</time></trkpt><trkpt lat="14.432916942676254" lon="120.92268207728085"><ele>7.0</ele><time>2026-04-17T04:34:22.001Z</time></trkpt><trkpt lat="14.432748002275485" lon="120.92266117988413"><ele>7.0</ele><time>2026-04-17T04:34:23.001Z</time></trkpt><trkpt lat="14.432570942253562" lon="120.92263927810758"><ele>7.0</ele><time>2026-04-17T04:34:24.001Z</time></trkpt><trkpt lat="14.432397872773839" lon="120.92261793175811"><ele>7.0</ele><time>2026-04-17T04:34:25.001Z</time></trkpt><trkpt lat="14.432241742525733" lon="120.92259858628012"><ele>7.0</ele><time>2026-04-17T04:34:26.001Z</time></trkpt><trkpt lat="14.432111661819981" lon="120.92258226106239"><ele>7.0</ele><time>2026-04-17T04:34:27.001Z</time></trkpt><trkpt lat="14.432003427377941" lon="120.92257187018161"><ele>7.0</ele><time>2026-04-17T04:34:28.001Z</time></trkpt><trkpt lat="14.43192226739368" lon="120.92254110554015"><ele>7.3999999999999995</ele><time>2026-04-17T04:34:29.001Z</time></trkpt><trkpt lat="14.431853451094307" lon="120.92252486793456"><ele>7.799999999999999</ele><time>2026-04-17T04:34:30.001Z</time></trkpt><trkpt lat="14.431780936114217" lon="120.92251297280764"><ele>8.2</ele><time>2026-04-17T04:34:31.001Z</time></trkpt><trkpt lat="14.431635866430476" lon="120.92250189878459"><ele>8.6</ele><time>2026-04-17T04:34:33.001Z</time></trkpt><trkpt lat="14.431527896602839" lon="120.92250506849213"><ele>9.0</ele><time>2026-04-17T04:34:34.001Z</time></trkpt><trkpt lat="14.431430682738407" lon="120.92250714277196"><ele>9.000000000000002</ele><time>2026-04-17T04:34:35.001Z</time></trkpt><trkpt lat="14.431354983322045" lon="120.92250983209561"><ele>9.0</ele><time>2026-04-17T04:34:36.001Z</time></trkpt><trkpt lat="14.431280005971272" lon="120.92251249577109"><ele>9.0</ele><time>2026-04-17T04:34:37.001Z</time></trkpt><trkpt lat="14.431216659318986" lon="120.92250222163511"><ele>9.0</ele><time>2026-04-17T04:34:40.001Z</time></trkpt><trkpt lat="14.431136369429838" lon="120.92249849701842"><ele>9.0</ele><time>2026-04-17T04:34:43.001Z</time></trkpt><trkpt lat="14.431075463472398" lon="120.92247587011737"><ele>9.000000000000002</ele><time>2026-04-17T04:34:44Z</time></trkpt><trkpt lat="14.430986773214677" lon="120.92247255044904"><ele>9.0</ele><time>2026-04-17T04:34:45Z</time></trkpt><trkpt lat="14.430884508722993" lon="120.92246897347755"><ele>9.0</ele><time>2026-04-17T04:34:46Z</time></trkpt><trkpt lat="14.430784223087157" lon="120.92246489611861"><ele>9.0</ele><time>2026-04-17T04:34:47Z</time></trkpt><trkpt lat="14.430668064137457" lon="120.9224583758327"><ele>9.0</ele><time>2026-04-17T04:34:48Z</time></trkpt><trkpt lat="14.430539055554407" lon="120.92245017592163"><ele>9.0</ele><time>2026-04-17T04:34:49Z</time></trkpt><trkpt lat="14.430417971527694" lon="120.92244167262784"><ele>9.0</ele><time>2026-04-17T04:34:50Z</time></trkpt><trkpt lat="14.430286559000788" lon="120.922431137063"><ele>9.0</ele><time>2026-04-17T04:34:51Z</time></trkpt><trkpt lat="14.43014470260235" lon="120.92245766157428"><ele>9.0</ele><time>2026-04-17T04:34:52Z</time></trkpt><trkpt lat="14.430018559345784" lon="120.9224385773207"><ele>9.0</ele><time>2026-04-17T04:34:53Z</time></trkpt><trkpt lat="14.429886252585439" lon="120.9224192926263"><ele>9.0</ele><time>2026-04-17T04:34:54Z</time></trkpt><trkpt lat="14.429744692269665" lon="120.9224021114692"><ele>9.0</ele><time>2026-04-17T04:34:55Z</time></trkpt><trkpt lat="14.429623420596386" lon="120.92235590656787"><ele>9.0</ele><time>2026-04-17T04:34:56Z</time></trkpt><trkpt lat="14.429491222452214" lon="120.92233938180182"><ele>9.0</ele><time>2026-04-17T04:34:57Z</time></trkpt><trkpt lat="14.429374393114877" lon="120.92232477809071"><ele>9.0</ele><time>2026-04-17T04:34:58Z</time></trkpt><trkpt lat="14.429259861055188" lon="120.92231979741393"><ele>9.0</ele><time>2026-04-17T04:34:59Z</time></trkpt><trkpt lat="14.429151548648933" lon="120.9223260236458"><ele>9.0</ele><time>2026-04-17T04:35:00Z</time></trkpt><trkpt lat="14.429059441643735" lon="120.92230978422053"><ele>9.0</ele><time>2026-04-17T04:35:01Z</time></trkpt><trkpt lat="14.428974530796843" lon="120.92229945265903"><ele>9.0</ele><time>2026-04-17T04:35:02Z</time></trkpt><trkpt lat="14.428894124904236" lon="120.92228985077334"><ele>9.0</ele><time>2026-04-17T04:35:03Z</time></trkpt><trkpt lat="14.428817148543802" lon="120.92228061754606"><ele>9.0</ele><time>2026-04-17T04:35:04Z</time></trkpt><trkpt lat="14.428743998992488" lon="120.92227184334384"><ele>9.0</ele><time>2026-04-17T04:35:05Z</time></trkpt><trkpt lat="14.428651703804485" lon="120.9222607726414"><ele>9.0</ele><time>2026-04-17T04:35:07Z</time></trkpt><trkpt lat="14.428584660456938" lon="120.92225273084338"><ele>9.0</ele><time>2026-04-17T04:35:12Z</time></trkpt><trkpt lat="14.428492222608735" lon="120.92225589630833"><ele>9.0</ele><time>2026-04-17T04:35:14Z</time></trkpt><trkpt lat="14.428427138949695" lon="120.92227244542596"><ele>9.2</ele><time>2026-04-17T04:35:15Z</time></trkpt><trkpt lat="14.428361618366136" lon="120.92226777801262"><ele>9.4</ele><time>2026-04-17T04:35:16Z</time></trkpt><trkpt lat="14.42828397328998" lon="120.92226513881198"><ele>9.6</ele><time>2026-04-17T04:35:17Z</time></trkpt><trkpt lat="14.428216239700035" lon="120.92227010910135"><ele>9.8</ele><time>2026-04-17T04:35:18Z</time></trkpt><trkpt lat="14.42809453320777" lon="120.92227974746572"><ele>10.0</ele><time>2026-04-17T04:35:20Z</time></trkpt><trkpt lat="14.42796966417658" lon="120.92226618788993"><ele>10.0</ele><time>2026-04-17T04:35:22Z</time></trkpt><trkpt lat="14.42789838465628" lon="120.9222588884164"><ele>10.0</ele><time>2026-04-17T04:35:23Z</time></trkpt><trkpt lat="14.427816234487828" lon="120.92225543862867"><ele>10.0</ele><time>2026-04-17T04:35:24Z</time></trkpt><trkpt lat="14.427737405642878" lon="120.92225552249991"><ele>10.0</ele><time>2026-04-17T04:35:25Z</time></trkpt><trkpt lat="14.427643545486895" lon="120.92225854459633"><ele>10.0</ele><time>2026-04-17T04:35:26Z</time></trkpt><trkpt lat="14.427495183391711" lon="120.92268028057963"><ele>10.0</ele><time>2026-04-17T04:35:27Z</time></trkpt><trkpt lat="14.427382008130513" lon="120.92275831736572"><ele>10.0</ele><time>2026-04-17T04:35:28Z</time></trkpt><trkpt lat="14.427279948501823" lon="120.92281689049699"><ele>10.0</ele><time>2026-04-17T04:35:29Z</time></trkpt><trkpt lat="14.427178934716029" lon="120.92288333869298"><ele>10.0</ele><time>2026-04-17T04:35:30Z</time></trkpt><trkpt lat="14.427056948521969" lon="120.92297637249251"><ele>10.0</ele><time>2026-04-17T04:35:31Z</time></trkpt><trkpt lat="14.426959432936831" lon="120.92302949785322"><ele>10.0</ele><time>2026-04-17T04:35:32Z</time></trkpt><trkpt lat="14.426867070390083" lon="120.9230863879295"><ele>10.0</ele><time>2026-04-17T04:35:33Z</time></trkpt><trkpt lat="14.426792420946102" lon="120.92313348440337"><ele>10.0</ele><time>2026-04-17T04:35:34Z</time></trkpt><trkpt lat="14.426673597922203" lon="120.92319368939313"><ele>10.0</ele><time>2026-04-17T04:35:36Z</time></trkpt><trkpt lat="14.42660164807108" lon="120.92320501964306"><ele>10.0</ele><time>2026-04-17T04:35:37Z</time></trkpt><trkpt lat="14.426513714086582" lon="120.9232127977376"><ele>10.0</ele><time>2026-04-17T04:35:38Z</time></trkpt><trkpt lat="14.426420731720478" lon="120.92321181179865"><ele>10.0</ele><time>2026-04-17T04:35:39Z</time></trkpt><trkpt lat="14.426310848688514" lon="120.9232094932157"><ele>10.0</ele><time>2026-04-17T04:35:40Z</time></trkpt><trkpt lat="14.426202936681646" lon="120.92320522615906"><ele>10.0</ele><time>2026-04-17T04:35:41Z</time></trkpt><trkpt lat="14.426099105052987" lon="120.92320202831124"><ele>10.0</ele><time>2026-04-17T04:35:42Z</time></trkpt><trkpt lat="14.42601172077325" lon="120.92319842993648"><ele>10.0</ele><time>2026-04-17T04:35:43Z</time></trkpt><trkpt lat="14.425931218286904" lon="120.92319850129245"><ele>10.0</ele><time>2026-04-17T04:35:44Z</time></trkpt><trkpt lat="14.425844886221872" lon="120.92320153721985"><ele>10.0</ele><time>2026-04-17T04:35:45Z</time></trkpt><trkpt lat="14.425769970997248" lon="120.92320247242804"><ele>10.0</ele><time>2026-04-17T04:35:46Z</time></trkpt><trkpt lat="14.425675470626654" lon="120.92320239733606"><ele>10.0</ele><time>2026-04-17T04:35:47Z</time></trkpt><trkpt lat="14.425578676780496" lon="120.92320406131934"><ele>10.4</ele><time>2026-04-17T04:35:48Z</time></trkpt><trkpt lat="14.425477148394409" lon="120.92320380339906"><ele>10.8</ele><time>2026-04-17T04:35:49Z</time></trkpt><trkpt lat="14.425382414712772" lon="120.92320458997692"><ele>11.2</ele><time>2026-04-17T04:35:50Z</time></trkpt><trkpt lat="14.425295343140085" lon="120.92320245975259"><ele>11.6</ele><time>2026-04-17T04:35:51.001Z</time></trkpt><trkpt lat="14.425197457427952" lon="120.92319309609671"><ele>12.0</ele><time>2026-04-17T04:35:52.001Z</time></trkpt><trkpt lat="14.425108815719458" lon="120.92319067650057"><ele>12.0</ele><time>2026-04-17T04:35:53.001Z</time></trkpt><trkpt lat="14.42501320843317" lon="120.92318966980484"><ele>12.0</ele><time>2026-04-17T04:35:54.001Z</time></trkpt><trkpt lat="14.42490370724658" lon="120.92318738897292"><ele>12.0</ele><time>2026-04-17T04:35:55.001Z</time></trkpt><trkpt lat="14.4247861842453" lon="120.92318651071554"><ele>12.0</ele><time>2026-04-17T04:35:56.001Z</time></trkpt><trkpt lat="14.424690178060448" lon="120.92318396810545"><ele>12.0</ele><time>2026-04-17T04:35:57.001Z</time></trkpt><trkpt lat="14.424584860470897" lon="120.9231849101814"><ele>12.0</ele><time>2026-04-17T04:35:58.001Z</time></trkpt><trkpt lat="14.424485913187016" lon="120.92318840597075"><ele>12.0</ele><time>2026-04-17T04:35:59.001Z</time></trkpt><trkpt lat="14.424384063381458" lon="120.9231945406694"><ele>12.0</ele><time>2026-04-17T04:36:00.001Z</time></trkpt><trkpt lat="14.424304330108685" lon="120.92320640419628"><ele>12.0</ele><time>2026-04-17T04:36:01.001Z</time></trkpt><trkpt lat="14.424223934188278" lon="120.92321005211925"><ele>12.0</ele><time>2026-04-17T04:36:02.001Z</time></trkpt><trkpt lat="14.424145163435677" lon="120.92321046313937"><ele>12.0</ele><time>2026-04-17T04:36:03.001Z</time></trkpt><trkpt lat="14.42406583271558" lon="120.92321141126212"><ele>12.0</ele><time>2026-04-17T04:36:04.001Z</time></trkpt><trkpt lat="14.423961246311572" lon="120.92322180143086"><ele>12.0</ele><time>2026-04-17T04:36:05.001Z</time></trkpt><trkpt lat="14.423872774120492" lon="120.92322738735488"><ele>12.0</ele><time>2026-04-17T04:36:06.001Z</time></trkpt><trkpt lat="14.423797024302859" lon="120.92322360991292"><ele>12.0</ele><time>2026-04-17T04:36:07.001Z</time></trkpt><trkpt lat="14.4237088456799" lon="120.92322911942286"><ele>12.0</ele><time>2026-04-17T04:36:08.001Z</time></trkpt><trkpt lat="14.42361943507501" lon="120.92324381891424"><ele>12.0</ele><time>2026-04-17T04:36:09.001Z</time></trkpt><trkpt lat="14.423544475156225" lon="120.92325221297217"><ele>11.833333333333334</ele><time>2026-04-17T04:36:10.001Z</time></trkpt><trkpt lat="14.423459911933909" lon="120.9232655573303"><ele>11.666666666666666</ele><time>2026-04-17T04:36:11.001Z</time></trkpt><trkpt lat="14.42339322430999" lon="120.92326367846762"><ele>11.5</ele><time>2026-04-17T04:36:12.001Z</time></trkpt><trkpt lat="14.423324403700715" lon="120.92327066428801"><ele>11.333333333333332</ele><time>2026-04-17T04:36:13.001Z</time></trkpt><trkpt lat="14.42321797353432" lon="120.92328294262833"><ele>11.166666666666666</ele><time>2026-04-17T04:36:15.001Z</time></trkpt><trkpt lat="14.423138490802016" lon="120.92327718023269"><ele>11.0</ele><time>2026-04-17T04:36:17.001Z</time></trkpt><trkpt lat="14.423073781150283" lon="120.92325635819641"><ele>11.0</ele><time>2026-04-17T04:36:20.001Z</time></trkpt><trkpt lat="14.423082540203804" lon="120.92332232296306"><ele>11.0</ele><time>2026-04-17T04:47:20Z</time></trkpt><trkpt lat="14.423147069391543" lon="120.92332184387644"><ele>11.0</ele><time>2026-04-17T04:47:21Z</time></trkpt><trkpt lat="14.423216074720571" lon="120.92331616179862"><ele>11.0</ele><time>2026-04-17T04:47:22Z</time></trkpt><trkpt lat="14.423361543728193" lon="120.92330181017641"><ele>11.0</ele><time>2026-04-17T04:47:24Z</time></trkpt><trkpt lat="14.423437227042163" lon="120.92329484083486"><ele>11.0</ele><time>2026-04-17T04:47:25Z</time></trkpt><trkpt lat="14.42351353471245" lon="120.92328609310432"><ele>11.0</ele><time>2026-04-17T04:47:26Z</time></trkpt><trkpt lat="14.423601543324194" lon="120.92327609735122"><ele>11.0</ele><time>2026-04-17T04:47:27Z</time></trkpt><trkpt lat="14.423688356288633" lon="120.92326796583822"><ele>11.0</ele><time>2026-04-17T04:47:28Z</time></trkpt><trkpt lat="14.423784977535995" lon="120.92326229034761"><ele>11.0</ele><time>2026-04-17T04:47:29Z</time></trkpt><trkpt lat="14.423874774213694" lon="120.9232535327328"><ele>11.0</ele><time>2026-04-17T04:47:30Z</time></trkpt><trkpt lat="14.423969970177552" lon="120.92324743616702"><ele>11.200000000000001</ele><time>2026-04-17T04:47:31Z</time></trkpt><trkpt lat="14.42406734020338" lon="120.92324338262638"><ele>11.4</ele><time>2026-04-17T04:47:32Z</time></trkpt><trkpt lat="14.424175934914015" lon="120.9232378573381"><ele>11.6</ele><time>2026-04-17T04:47:33Z</time></trkpt><trkpt lat="14.424270385027004" lon="120.92325063852702"><ele>11.8</ele><time>2026-04-17T04:47:34Z</time></trkpt><trkpt lat="14.424352790767509" lon="120.92324891099867"><ele>12.0</ele><time>2026-04-17T04:47:35Z</time></trkpt><trkpt lat="14.424448901196575" lon="120.92323572388196"><ele>12.0</ele><time>2026-04-17T04:47:36Z</time></trkpt><trkpt lat="14.424532226541757" lon="120.92324628831608"><ele>12.0</ele><time>2026-04-17T04:47:37Z</time></trkpt><trkpt lat="14.424667493951006" lon="120.92323691354078"><ele>12.0</ele><time>2026-04-17T04:47:38Z</time></trkpt><trkpt lat="14.424767476725155" lon="120.92323467841646"><ele>12.0</ele><time>2026-04-17T04:47:39Z</time></trkpt><trkpt lat="14.42486986805673" lon="120.92325226513887"><ele>12.0</ele><time>2026-04-17T04:47:40Z</time></trkpt><trkpt lat="14.424967555617929" lon="120.92323967139941"><ele>12.0</ele><time>2026-04-17T04:47:41Z</time></trkpt><trkpt lat="14.425058147349466" lon="120.9232407152958"><ele>12.0</ele><time>2026-04-17T04:47:42Z</time></trkpt><trkpt lat="14.425152577378102" lon="120.92323803892444"><ele>12.0</ele><time>2026-04-17T04:47:43Z</time></trkpt><trkpt lat="14.425245426918844" lon="120.92324192473902"><ele>12.0</ele><time>2026-04-17T04:47:44Z</time></trkpt><trkpt lat="14.425342571358975" lon="120.92324270195348"><ele>12.0</ele><time>2026-04-17T04:47:45Z</time></trkpt><trkpt lat="14.425441551383075" lon="120.92324148366916"><ele>11.666666666666666</ele><time>2026-04-17T04:47:46Z</time></trkpt><trkpt lat="14.425545173876158" lon="120.92324196239646"><ele>11.333333333333334</ele><time>2026-04-17T04:47:47Z</time></trkpt><trkpt lat="14.425642424923849" lon="120.92324343949717"><ele>11.0</ele><time>2026-04-17T04:47:48Z</time></trkpt><trkpt lat="14.42573046220675" lon="120.9232456551236"><ele>10.666666666666668</ele><time>2026-04-17T04:47:49Z</time></trkpt><trkpt lat="14.425808255283814" lon="120.92324601337715"><ele>10.333333333333334</ele><time>2026-04-17T04:47:50Z</time></trkpt><trkpt lat="14.425878888537028" lon="120.92324926093187"><ele>10.0</ele><time>2026-04-17T04:47:51Z</time></trkpt><trkpt lat="14.425949727292235" lon="120.9232488400479"><ele>10.0</ele><time>2026-04-17T04:47:52Z</time></trkpt><trkpt lat="14.426024448501382" lon="120.92324719857653"><ele>10.0</ele><time>2026-04-17T04:47:53Z</time></trkpt><trkpt lat="14.426105799018977" lon="120.9232433776268"><ele>10.0</ele><time>2026-04-17T04:47:54Z</time></trkpt><trkpt lat="14.426192323065747" lon="120.92323990800199"><ele>10.0</ele><time>2026-04-17T04:47:55Z</time></trkpt><trkpt lat="14.426271151468882" lon="120.92325488127223"><ele>10.0</ele><time>2026-04-17T04:47:56Z</time></trkpt><trkpt lat="14.426349491428143" lon="120.92325391649443"><ele>10.0</ele><time>2026-04-17T04:47:57Z</time></trkpt><trkpt lat="14.42642611089292" lon="120.92325297290547"><ele>10.0</ele><time>2026-04-17T04:47:58Z</time></trkpt><trkpt lat="14.426504134353472" lon="120.9232520120251"><ele>10.0</ele><time>2026-04-17T04:47:59Z</time></trkpt><trkpt lat="14.426596934563415" lon="120.9232516004523"><ele>10.0</ele><time>2026-04-17T04:48:00Z</time></trkpt><trkpt lat="14.426675629569168" lon="120.92322127213106"><ele>10.0</ele><time>2026-04-17T04:48:01Z</time></trkpt><trkpt lat="14.426766779663572" lon="120.92316741862167"><ele>10.0</ele><time>2026-04-17T04:48:02Z</time></trkpt><trkpt lat="14.426850760870414" lon="120.92312526553894"><ele>10.0</ele><time>2026-04-17T04:48:03Z</time></trkpt><trkpt lat="14.426932597946633" lon="120.92307811849813"><ele>10.0</ele><time>2026-04-17T04:48:04Z</time></trkpt><trkpt lat="14.42701401619094" lon="120.92302734509208"><ele>10.0</ele><time>2026-04-17T04:48:05Z</time></trkpt><trkpt lat="14.427099888531055" lon="120.92297748976458"><ele>10.0</ele><time>2026-04-17T04:48:06Z</time></trkpt><trkpt lat="14.427185516382512" lon="120.92292622927042"><ele>10.0</ele><time>2026-04-17T04:48:07Z</time></trkpt><trkpt lat="14.427266274483964" lon="120.92287608033875"><ele>10.166666666666668</ele><time>2026-04-17T04:48:08Z</time></trkpt><trkpt lat="14.4273470756915" lon="120.92282761527485"><ele>10.333333333333334</ele><time>2026-04-17T04:48:09Z</time></trkpt><trkpt lat="14.427419640539982" lon="120.9227817173928"><ele>10.5</ele><time>2026-04-17T04:48:10Z</time></trkpt><trkpt lat="14.427492719938396" lon="120.92273417320548"><ele>10.666666666666666</ele><time>2026-04-17T04:48:11Z</time></trkpt><trkpt lat="14.427557877189042" lon="120.92268901727205"><ele>10.833333333333332</ele><time>2026-04-17T04:48:12Z</time></trkpt><trkpt lat="14.427623516187008" lon="120.92264541789689"><ele>11.0</ele><time>2026-04-17T04:48:13Z</time></trkpt><trkpt lat="14.4277011160352" lon="120.92259672471717"><ele>10.833333333333332</ele><time>2026-04-17T04:48:14Z</time></trkpt><trkpt lat="14.427781004445011" lon="120.92255222257712"><ele>10.666666666666666</ele><time>2026-04-17T04:48:15Z</time></trkpt><trkpt lat="14.427857634941383" lon="120.92250876791348"><ele>10.5</ele><time>2026-04-17T04:48:16Z</time></trkpt><trkpt lat="14.427927701294712" lon="120.92246915557281"><ele>10.333333333333334</ele><time>2026-04-17T04:48:17Z</time></trkpt><trkpt lat="14.42798516104307" lon="120.92243939963976"><ele>10.166666666666668</ele><time>2026-04-17T04:48:18Z</time></trkpt><trkpt lat="14.428069251337815" lon="120.92239137059222"><ele>10.0</ele><time>2026-04-17T04:48:20Z</time></trkpt><trkpt lat="14.42813823401592" lon="120.92235511192548"><ele>10.0</ele><time>2026-04-17T04:48:23Z</time></trkpt><trkpt lat="14.428210606895195" lon="120.92232060344715"><ele>10.0</ele><time>2026-04-17T04:48:27Z</time></trkpt><trkpt lat="14.428289507411822" lon="120.92229727641346"><ele>10.0</ele><time>2026-04-17T04:48:30Z</time></trkpt><trkpt lat="14.42835283677382" lon="120.92231351974146"><ele>10.0</ele><time>2026-04-17T04:48:32Z</time></trkpt><trkpt lat="14.428446438419638" lon="120.92231559724324"><ele>10.0</ele><time>2026-04-17T04:48:35Z</time></trkpt><trkpt lat="14.428526531471404" lon="120.92232567359972"><ele>10.0</ele><time>2026-04-17T04:48:38Z</time></trkpt><trkpt lat="14.428622373164583" lon="120.92232627662989"><ele>10.0</ele><time>2026-04-17T04:48:41Z</time></trkpt><trkpt lat="14.428715794182233" lon="120.92234525172108"><ele>10.0</ele><time>2026-04-17T04:48:43Z</time></trkpt><trkpt lat="14.428837115389971" lon="120.92234823227264"><ele>10.0</ele><time>2026-04-17T04:48:45Z</time></trkpt><trkpt lat="14.428919656048459" lon="120.92235106619968"><ele>10.0</ele><time>2026-04-17T04:48:46Z</time></trkpt><trkpt lat="14.429007034625933" lon="120.922356540705"><ele>10.0</ele><time>2026-04-17T04:48:47Z</time></trkpt><trkpt lat="14.429103000165467" lon="120.92236606542498"><ele>9.833333333333334</ele><time>2026-04-17T04:48:48.001Z</time></trkpt><trkpt lat="14.429192326402326" lon="120.92237863260772"><ele>9.666666666666668</ele><time>2026-04-17T04:48:49.001Z</time></trkpt><trkpt lat="14.429288805983658" lon="120.92239845091245"><ele>9.5</ele><time>2026-04-17T04:48:50.001Z</time></trkpt><trkpt lat="14.429374108319065" lon="120.92240978574738"><ele>9.333333333333334</ele><time>2026-04-17T04:48:51.001Z</time></trkpt><trkpt lat="14.42946325547456" lon="120.92242414126228"><ele>9.166666666666666</ele><time>2026-04-17T04:48:52.001Z</time></trkpt><trkpt lat="14.429544727800948" lon="120.92243082150611"><ele>9.0</ele><time>2026-04-17T04:48:53.001Z</time></trkpt><trkpt lat="14.429642067205654" lon="120.92244373587938"><ele>9.0</ele><time>2026-04-17T04:48:54.001Z</time></trkpt><trkpt lat="14.429733637760066" lon="120.92245466179577"><ele>9.0</ele><time>2026-04-17T04:48:55.001Z</time></trkpt><trkpt lat="14.42982270750587" lon="120.9224635678735"><ele>9.0</ele><time>2026-04-17T04:48:56.001Z</time></trkpt><trkpt lat="14.429913737067885" lon="120.92247348060565"><ele>9.0</ele><time>2026-04-17T04:48:57.001Z</time></trkpt><trkpt lat="14.429997028655853" lon="120.92248528322393"><ele>9.0</ele><time>2026-04-17T04:48:58.001Z</time></trkpt><trkpt lat="14.43007257264352" lon="120.92249086559089"><ele>9.0</ele><time>2026-04-17T04:48:59.001Z</time></trkpt><trkpt lat="14.430152715783267" lon="120.92249830510174"><ele>9.0</ele><time>2026-04-17T04:49:00.001Z</time></trkpt><trkpt lat="14.430245725895446" lon="120.92250460421087"><ele>9.0</ele><time>2026-04-17T04:49:01.001Z</time></trkpt><trkpt lat="14.430321429110705" lon="120.9225118320198"><ele>9.0</ele><time>2026-04-17T04:49:02.001Z</time></trkpt><trkpt lat="14.430399843320211" lon="120.92251519836604"><ele>9.0</ele><time>2026-04-17T04:49:03.001Z</time></trkpt><trkpt lat="14.430496316250066" lon="120.92252290643998"><ele>9.0</ele><time>2026-04-17T04:49:04.001Z</time></trkpt><trkpt lat="14.430586447143739" lon="120.92252700097796"><ele>9.0</ele><time>2026-04-17T04:49:05.001Z</time></trkpt><trkpt lat="14.43069419154686" lon="120.92253278901785"><ele>9.2</ele><time>2026-04-17T04:49:06.001Z</time></trkpt><trkpt lat="14.430787240903078" lon="120.92253574006743"><ele>9.4</ele><time>2026-04-17T04:49:07.001Z</time></trkpt><trkpt lat="14.430879308245972" lon="120.92253339633271"><ele>9.6</ele><time>2026-04-17T04:49:08.001Z</time></trkpt><trkpt lat="14.430983003968299" lon="120.92252399272328"><ele>9.8</ele><time>2026-04-17T04:49:09.001Z</time></trkpt><trkpt lat="14.43107607425722" lon="120.92250765123931"><ele>10.0</ele><time>2026-04-17T04:49:10.001Z</time></trkpt><trkpt lat="14.431164941012803" lon="120.9224788194041"><ele>10.0</ele><time>2026-04-17T04:49:11.001Z</time></trkpt><trkpt lat="14.431257377538127" lon="120.92243599607792"><ele>10.0</ele><time>2026-04-17T04:49:12.001Z</time></trkpt><trkpt lat="14.431343072744802" lon="120.9223809500109"><ele>10.0</ele><time>2026-04-17T04:49:13.001Z</time></trkpt><trkpt lat="14.431421950042687" lon="120.92231926725523"><ele>10.0</ele><time>2026-04-17T04:49:14.001Z</time></trkpt><trkpt lat="14.431505889689417" lon="120.92224946874907"><ele>10.0</ele><time>2026-04-17T04:49:15.001Z</time></trkpt><trkpt lat="14.431586940873869" lon="120.92218107199501"><ele>9.8</ele><time>2026-04-17T04:49:16.001Z</time></trkpt><trkpt lat="14.431677380014907" lon="120.92211025400587"><ele>9.6</ele><time>2026-04-17T04:49:17.001Z</time></trkpt><trkpt lat="14.43176506628152" lon="120.92205115498757"><ele>9.4</ele><time>2026-04-17T04:49:18.001Z</time></trkpt><trkpt lat="14.431853999271187" lon="120.92198481203638"><ele>9.2</ele><time>2026-04-17T04:49:19.001Z</time></trkpt><trkpt lat="14.431930985648528" lon="120.92193692889934"><ele>9.0</ele><time>2026-04-17T04:49:20.001Z</time></trkpt><trkpt lat="14.432006222076593" lon="120.92188399935532"><ele>9.0</ele><time>2026-04-17T04:49:21.001Z</time></trkpt><trkpt lat="14.432074746670102" lon="120.92185485498375"><ele>9.0</ele><time>2026-04-17T04:49:22.001Z</time></trkpt><trkpt lat="14.432155855541577" lon="120.92181997621007"><ele>9.0</ele><time>2026-04-17T04:49:23.001Z</time></trkpt><trkpt lat="14.43223882961809" lon="120.92179814807706"><ele>9.0</ele><time>2026-04-17T04:49:24.001Z</time></trkpt><trkpt lat="14.432326577860385" lon="120.92178516682624"><ele>9.0</ele><time>2026-04-17T04:49:25Z</time></trkpt><trkpt lat="14.43242149306774" lon="120.92177269242384"><ele>9.0</ele><time>2026-04-17T04:49:26Z</time></trkpt><trkpt lat="14.43251770909673" lon="120.92177269791068"><ele>9.2</ele><time>2026-04-17T04:49:27Z</time></trkpt><trkpt lat="14.432617006458539" lon="120.92177563660016"><ele>9.4</ele><time>2026-04-17T04:49:28Z</time></trkpt><trkpt lat="14.43272270884878" lon="120.92177502286125"><ele>9.6</ele><time>2026-04-17T04:49:29Z</time></trkpt><trkpt lat="14.4328245830438" lon="120.9217777746881"><ele>9.8</ele><time>2026-04-17T04:49:30Z</time></trkpt><trkpt lat="14.4329213533444" lon="120.92177908899632"><ele>10.0</ele><time>2026-04-17T04:49:31Z</time></trkpt><trkpt lat="14.433019453507258" lon="120.9217813680102"><ele>9.6</ele><time>2026-04-17T04:49:32Z</time></trkpt><trkpt lat="14.433115964590238" lon="120.92179323827247"><ele>9.2</ele><time>2026-04-17T04:49:33Z</time></trkpt><trkpt lat="14.433211522478825" lon="120.9218146316685"><ele>8.8</ele><time>2026-04-17T04:49:34Z</time></trkpt><trkpt lat="14.43332396821442" lon="120.92183087852024"><ele>8.4</ele><time>2026-04-17T04:49:35Z</time></trkpt><trkpt lat="14.43342971644821" lon="120.92185954304055"><ele>8.0</ele><time>2026-04-17T04:49:36Z</time></trkpt><trkpt lat="14.433541324273614" lon="120.92189005048309"><ele>8.0</ele><time>2026-04-17T04:49:37Z</time></trkpt><trkpt lat="14.433651949288368" lon="120.92191527801839"><ele>8.0</ele><time>2026-04-17T04:49:38Z</time></trkpt><trkpt lat="14.433754810418366" lon="120.92193858251433"><ele>8.0</ele><time>2026-04-17T04:49:39Z</time></trkpt><trkpt lat="14.433866570708226" lon="120.92195670701899"><ele>8.0</ele><time>2026-04-17T04:49:40Z</time></trkpt><trkpt lat="14.433975276161009" lon="120.92197622584978"><ele>8.0</ele><time>2026-04-17T04:49:41Z</time></trkpt><trkpt lat="14.434088251012076" lon="120.9219937564185"><ele>7.75</ele><time>2026-04-17T04:49:42Z</time></trkpt><trkpt lat="14.434201306862166" lon="120.9220148218559"><ele>7.5</ele><time>2026-04-17T04:49:43Z</time></trkpt><trkpt lat="14.434318565030866" lon="120.92203708589712"><ele>7.25</ele><time>2026-04-17T04:49:44Z</time></trkpt><trkpt lat="14.434430905387265" lon="120.92206016219927"><ele>7.0</ele><time>2026-04-17T04:49:45Z</time></trkpt><trkpt lat="14.43455661474435" lon="120.922075819366"><ele>7.199999999999999</ele><time>2026-04-17T04:49:46Z</time></trkpt><trkpt lat="14.434674243024165" lon="120.92208961501309"><ele>7.3999999999999995</ele><time>2026-04-17T04:49:47Z</time></trkpt><trkpt lat="14.434784061933955" lon="120.92209834296224"><ele>7.6000000000000005</ele><time>2026-04-17T04:49:48Z</time></trkpt><trkpt lat="14.434880195789685" lon="120.92210699208064"><ele>7.800000000000001</ele><time>2026-04-17T04:49:49Z</time></trkpt><trkpt lat="14.434966769872517" lon="120.92211740694012"><ele>8.0</ele><time>2026-04-17T04:49:50Z</time></trkpt><trkpt lat="14.435080423155275" lon="120.92211654339009"><ele>8.0</ele><time>2026-04-17T04:49:51Z</time></trkpt><trkpt lat="14.435177166759473" lon="120.92210788219003"><ele>8.0</ele><time>2026-04-17T04:49:52Z</time></trkpt><trkpt lat="14.435260033750332" lon="120.92208057016035"><ele>8.0</ele><time>2026-04-17T04:49:53Z</time></trkpt><trkpt lat="14.435345736675856" lon="120.92202760864352"><ele>8.0</ele><time>2026-04-17T04:49:54Z</time></trkpt><trkpt lat="14.435425684710562" lon="120.92196030000608"><ele>8.0</ele><time>2026-04-17T04:49:55Z</time></trkpt><trkpt lat="14.435497566088793" lon="120.92187494449827"><ele>8.0</ele><time>2026-04-17T04:49:56Z</time></trkpt><trkpt lat="14.43556840174762" lon="120.92178474797475"><ele>8.0</ele><time>2026-04-17T04:49:57Z</time></trkpt><trkpt lat="14.435641949934555" lon="120.92170804082835"><ele>8.0</ele><time>2026-04-17T04:49:58Z</time></trkpt><trkpt lat="14.435723683666764" lon="120.92161403592345"><ele>8.0</ele><time>2026-04-17T04:49:59Z</time></trkpt><trkpt lat="14.435805186270532" lon="120.92153079138944"><ele>8.0</ele><time>2026-04-17T04:50:00Z</time></trkpt><trkpt lat="14.435889565310298" lon="120.92144499395074"><ele>8.0</ele><time>2026-04-17T04:50:01Z</time></trkpt><trkpt lat="14.435977070319664" lon="120.92135051075856"><ele>8.0</ele><time>2026-04-17T04:50:02Z</time></trkpt><trkpt lat="14.436067261534847" lon="120.92125772631591"><ele>8.0</ele><time>2026-04-17T04:50:03Z</time></trkpt><trkpt lat="14.436158515007008" lon="120.92115706793014"><ele>8.0</ele><time>2026-04-17T04:50:04Z</time></trkpt><trkpt lat="14.436253734400509" lon="120.92105880295695"><ele>8.0</ele><time>2026-04-17T04:50:05Z</time></trkpt><trkpt lat="14.436346890537685" lon="120.92094919405892"><ele>8.0</ele><time>2026-04-17T04:50:06Z</time></trkpt><trkpt lat="14.436439917782355" lon="120.9208483537543"><ele>8.0</ele><time>2026-04-17T04:50:07Z</time></trkpt><trkpt lat="14.436532767216477" lon="120.92076128705565"><ele>7.75</ele><time>2026-04-17T04:50:08Z</time></trkpt><trkpt lat="14.4366132736462" lon="120.92066933139823"><ele>7.5</ele><time>2026-04-17T04:50:09Z</time></trkpt><trkpt lat="14.436699890836637" lon="120.92058432388744"><ele>7.25</ele><time>2026-04-17T04:50:10Z</time></trkpt><trkpt lat="14.436782487965639" lon="120.92048946026017"><ele>7.0</ele><time>2026-04-17T04:50:11Z</time></trkpt><trkpt lat="14.436862525087799" lon="120.92039591475282"><ele>7.0</ele><time>2026-04-17T04:50:12Z</time></trkpt><trkpt lat="14.436947863926667" lon="120.92031216827269"><ele>7.0</ele><time>2026-04-17T04:50:13Z</time></trkpt><trkpt lat="14.437030719894862" lon="120.92022068823842"><ele>7.0</ele><time>2026-04-17T04:50:14Z</time></trkpt><trkpt lat="14.437115252893463" lon="120.92013494553377"><ele>7.0</ele><time>2026-04-17T04:50:15Z</time></trkpt><trkpt lat="14.437197165395945" lon="120.9200424876861"><ele>6.75</ele><time>2026-04-17T04:50:16Z</time></trkpt><trkpt lat="14.437282010955938" lon="120.91996373669355"><ele>6.5</ele><time>2026-04-17T04:50:17Z</time></trkpt><trkpt lat="14.437366068158132" lon="120.91987765566161"><ele>6.25</ele><time>2026-04-17T04:50:18Z</time></trkpt><trkpt lat="14.437445022616487" lon="120.9197824621195"><ele>6.0</ele><time>2026-04-17T04:50:19Z</time></trkpt><trkpt lat="14.43753241231734" lon="120.91969687541801"><ele>6.0</ele><time>2026-04-17T04:50:20Z</time></trkpt><trkpt lat="14.437620446563393" lon="120.91960593109322"><ele>6.0</ele><time>2026-04-17T04:50:21Z</time></trkpt><trkpt lat="14.437716292833944" lon="120.91951949965218"><ele>6.0</ele><time>2026-04-17T04:50:22Z</time></trkpt><trkpt lat="14.43780837682577" lon="120.91942492197867"><ele>6.0</ele><time>2026-04-17T04:50:23Z</time></trkpt><trkpt lat="14.43790462644898" lon="120.91933784265385"><ele>6.25</ele><time>2026-04-17T04:50:24Z</time></trkpt><trkpt lat="14.437996391209209" lon="120.91925128885036"><ele>6.5</ele><time>2026-04-17T04:50:25Z</time></trkpt><trkpt lat="14.438090227988143" lon="120.9191655586638"><ele>6.75</ele><time>2026-04-17T04:50:26Z</time></trkpt><trkpt lat="14.438182092230457" lon="120.91908242274927"><ele>7.0</ele><time>2026-04-17T04:50:27Z</time></trkpt><trkpt lat="14.438270210436198" lon="120.91899576902546"><ele>7.0</ele><time>2026-04-17T04:50:28Z</time></trkpt><trkpt lat="14.438364878593218" lon="120.91891969833614"><ele>7.0</ele><time>2026-04-17T04:50:29Z</time></trkpt><trkpt lat="14.438453778949006" lon="120.91882970485764"><ele>7.0</ele><time>2026-04-17T04:50:30Z</time></trkpt><trkpt lat="14.438548706347213" lon="120.91874855964429"><ele>7.0</ele><time>2026-04-17T04:50:31Z</time></trkpt><trkpt lat="14.438644494876643" lon="120.91865756872875"><ele>7.0</ele><time>2026-04-17T04:50:32Z</time></trkpt><trkpt lat="14.438739159658413" lon="120.9185614587055"><ele>7.0</ele><time>2026-04-17T04:50:33Z</time></trkpt><trkpt lat="14.438842692231576" lon="120.91847612511695"><ele>7.0</ele><time>2026-04-17T04:50:34Z</time></trkpt><trkpt lat="14.43894406518024" lon="120.9183827010047"><ele>7.0</ele><time>2026-04-17T04:50:35Z</time></trkpt><trkpt lat="14.439040845699475" lon="120.91828235429375"><ele>6.25</ele><time>2026-04-17T04:50:36Z</time></trkpt><trkpt lat="14.439151639587514" lon="120.9182021305485"><ele>5.5</ele><time>2026-04-17T04:50:37Z</time></trkpt><trkpt lat="14.43924712440347" lon="120.91810018328587"><ele>4.75</ele><time>2026-04-17T04:50:38Z</time></trkpt><trkpt lat="14.439351448697307" lon="120.91800623048515"><ele>4.0</ele><time>2026-04-17T04:50:39Z</time></trkpt><trkpt lat="14.439461905223107" lon="120.91792437260104"><ele>4.0</ele><time>2026-04-17T04:50:40Z</time></trkpt><trkpt lat="14.439558603119565" lon="120.91783695266719"><ele>4.0</ele><time>2026-04-17T04:50:41Z</time></trkpt><trkpt lat="14.439659809057003" lon="120.91774544891032"><ele>4.0</ele><time>2026-04-17T04:50:42Z</time></trkpt><trkpt lat="14.439763121614781" lon="120.9176520404857"><ele>4.0</ele><time>2026-04-17T04:50:43Z</time></trkpt><trkpt lat="14.439866930472796" lon="120.91756497412564"><ele>4.25</ele><time>2026-04-17T04:50:44Z</time></trkpt><trkpt lat="14.439974679722948" lon="120.91748356532423"><ele>4.5</ele><time>2026-04-17T04:50:45Z</time></trkpt><trkpt lat="14.440077584361752" lon="120.91741229866199"><ele>4.75</ele><time>2026-04-17T04:50:46Z</time></trkpt><trkpt lat="14.440182821225351" lon="120.91734698732606"><ele>5.0</ele><time>2026-04-17T04:50:47Z</time></trkpt><trkpt lat="14.440297449939305" lon="120.91731028442814"><ele>5.0</ele><time>2026-04-17T04:50:48Z</time></trkpt><trkpt lat="14.440402439165066" lon="120.91727988404699"><ele>5.0</ele><time>2026-04-17T04:50:49Z</time></trkpt><trkpt lat="14.440505316672189" lon="120.91725880158134"><ele>5.0</ele><time>2026-04-17T04:50:50Z</time></trkpt><trkpt lat="14.440615392641686" lon="120.91723874419138"><ele>5.0</ele><time>2026-04-17T04:50:51Z</time></trkpt><trkpt lat="14.440723492486274" lon="120.91721883340807"><ele>5.0</ele><time>2026-04-17T04:50:52Z</time></trkpt><trkpt lat="14.440834855943308" lon="120.91718438318557"><ele>5.4</ele><time>2026-04-17T04:50:53Z</time></trkpt><trkpt lat="14.44094371787711" lon="120.91716047762051"><ele>5.8</ele><time>2026-04-17T04:50:54Z</time></trkpt><trkpt lat="14.441042265564237" lon="120.91714246337436"><ele>6.199999999999999</ele><time>2026-04-17T04:50:55Z</time></trkpt><trkpt lat="14.441144123464374" lon="120.9171113198918"><ele>6.6</ele><time>2026-04-17T04:50:56Z</time></trkpt><trkpt lat="14.441257850295369" lon="120.91710246252595"><ele>7.0</ele><time>2026-04-17T04:50:57Z</time></trkpt><trkpt lat="14.441359688535831" lon="120.91707910574156"><ele>7.0</ele><time>2026-04-17T04:50:58Z</time></trkpt><trkpt lat="14.441461296324901" lon="120.917039603875"><ele>6.999999999999999</ele><time>2026-04-17T04:50:59Z</time></trkpt><trkpt lat="14.441558585171938" lon="120.91702297171173"><ele>6.999999999999999</ele><time>2026-04-17T04:51:00Z</time></trkpt><trkpt lat="14.441658190853987" lon="120.91701991511616"><ele>7.0</ele><time>2026-04-17T04:51:01Z</time></trkpt><trkpt lat="14.441756409423986" lon="120.91700201082924"><ele>7.0</ele><time>2026-04-17T04:51:02Z</time></trkpt><trkpt lat="14.441856703114924" lon="120.91698922181854"><ele>7.0</ele><time>2026-04-17T04:51:03Z</time></trkpt><trkpt lat="14.441963850302745" lon="120.91697421810672"><ele>6.999999999999999</ele><time>2026-04-17T04:51:04Z</time></trkpt><trkpt lat="14.442074920686489" lon="120.91697992947698"><ele>6.999999999999999</ele><time>2026-04-17T04:51:05Z</time></trkpt><trkpt lat="14.442186615078654" lon="120.91697386942475"><ele>7.0</ele><time>2026-04-17T04:51:06.001Z</time></trkpt><trkpt lat="14.442298526881466" lon="120.91695151962263"><ele>7.0</ele><time>2026-04-17T04:51:07.001Z</time></trkpt><trkpt lat="14.442411444162403" lon="120.9169497076191"><ele>7.25</ele><time>2026-04-17T04:51:08.001Z</time></trkpt><trkpt lat="14.44252833149774" lon="120.91695013054061"><ele>7.5</ele><time>2026-04-17T04:51:09.001Z</time></trkpt><trkpt lat="14.442648443693255" lon="120.91694263027622"><ele>7.75</ele><time>2026-04-17T04:51:10.001Z</time></trkpt><trkpt lat="14.4427689559365" lon="120.91693220580005"><ele>8.0</ele><time>2026-04-17T04:51:11.001Z</time></trkpt><trkpt lat="14.442881193769596" lon="120.91691873164642"><ele>7.800000000000001</ele><time>2026-04-17T04:51:12.001Z</time></trkpt><trkpt lat="14.442979226396732" lon="120.91690253715461"><ele>7.6000000000000005</ele><time>2026-04-17T04:51:13.001Z</time></trkpt><trkpt lat="14.44308171591991" lon="120.91689216546958"><ele>7.3999999999999995</ele><time>2026-04-17T04:51:14.001Z</time></trkpt><trkpt lat="14.443182213842997" lon="120.9168506392408"><ele>7.199999999999999</ele><time>2026-04-17T04:51:15.001Z</time></trkpt><trkpt lat="14.443277764195217" lon="120.91677935845556"><ele>7.0</ele><time>2026-04-17T04:51:16.001Z</time></trkpt><trkpt lat="14.443362861008387" lon="120.91669739873996"><ele>6.5</ele><time>2026-04-17T04:51:17.001Z</time></trkpt><trkpt lat="14.443440047738667" lon="120.91661856503153"><ele>6.0</ele><time>2026-04-17T04:51:18.001Z</time></trkpt><trkpt lat="14.44352349881964" lon="120.91653281975731"><ele>5.5</ele><time>2026-04-17T04:51:19.001Z</time></trkpt><trkpt lat="14.443601552120011" lon="120.91644474577603"><ele>5.0</ele><time>2026-04-17T04:51:20.001Z</time></trkpt><trkpt lat="14.443677764344375" lon="120.91635838334656"><ele>5.0</ele><time>2026-04-17T04:51:21.001Z</time></trkpt><trkpt lat="14.443750350601574" lon="120.9162770584212"><ele>5.0</ele><time>2026-04-17T04:51:22.001Z</time></trkpt><trkpt lat="14.443814183355043" lon="120.91619567016245"><ele>5.0</ele><time>2026-04-17T04:51:23.001Z</time></trkpt><trkpt lat="14.44387040683754" lon="120.916116209369"><ele>5.0</ele><time>2026-04-17T04:51:24.001Z</time></trkpt><trkpt lat="14.443923833422751" lon="120.91603184732669"><ele>5.0</ele><time>2026-04-17T04:51:25.001Z</time></trkpt><trkpt lat="14.44397465160184" lon="120.91594445767468"><ele>5.4</ele><time>2026-04-17T04:51:26.001Z</time></trkpt><trkpt lat="14.44402265749571" lon="120.91584534350868"><ele>5.8</ele><time>2026-04-17T04:51:27.001Z</time></trkpt><trkpt lat="14.444070875412924" lon="120.91574626115718"><ele>6.199999999999999</ele><time>2026-04-17T04:51:28.001Z</time></trkpt><trkpt lat="14.444120365598987" lon="120.9156385197075"><ele>6.6</ele><time>2026-04-17T04:51:29.001Z</time></trkpt><trkpt lat="14.444163603336484" lon="120.91554530760763"><ele>7.0</ele><time>2026-04-17T04:51:30Z</time></trkpt><trkpt lat="14.444207363389953" lon="120.91545454431805"><ele>7.000000000000001</ele><time>2026-04-17T04:51:31Z</time></trkpt><trkpt lat="14.444246930268884" lon="120.91537081444002"><ele>7.0</ele><time>2026-04-17T04:51:32Z</time></trkpt><trkpt lat="14.444296489688927" lon="120.91528212831585"><ele>7.0</ele><time>2026-04-17T04:51:33Z</time></trkpt><trkpt lat="14.444341954675515" lon="120.91520121817904"><ele>7.0</ele><time>2026-04-17T04:51:34Z</time></trkpt><trkpt lat="14.44439418053302" lon="120.91512887968955"><ele>7.000000000000001</ele><time>2026-04-17T04:51:35Z</time></trkpt><trkpt lat="14.444438994179832" lon="120.91507008466554"><ele>7.0</ele><time>2026-04-17T04:51:36Z</time></trkpt><trkpt lat="14.44448880313672" lon="120.9150125545719"><ele>6.666666666666667</ele><time>2026-04-17T04:51:37Z</time></trkpt><trkpt lat="14.444546616393136" lon="120.91494400318166"><ele>6.333333333333334</ele><time>2026-04-17T04:51:38Z</time></trkpt><trkpt lat="14.444591218565257" lon="120.91488986208691"><ele>6.0</ele><time>2026-04-17T04:51:39Z</time></trkpt><trkpt lat="14.444635249485936" lon="120.91483641435664"><ele>5.666666666666667</ele><time>2026-04-17T04:51:40Z</time></trkpt><trkpt lat="14.444704137827747" lon="120.9147527930425"><ele>5.333333333333334</ele><time>2026-04-17T04:51:42Z</time></trkpt><trkpt lat="14.444759975330618" lon="120.91468501416237"><ele>5.0</ele><time>2026-04-17T04:51:44Z</time></trkpt><trkpt lat="14.444808050337503" lon="120.91462718902088"><ele>5.0</ele><time>2026-04-17T04:51:46Z</time></trkpt><trkpt lat="14.444849354343413" lon="120.9145773680707"><ele>5.0</ele><time>2026-04-17T04:51:48Z</time></trkpt><trkpt lat="14.444897011025056" lon="120.9145198845352"><ele>5.0</ele><time>2026-04-17T04:51:51Z</time></trkpt><trkpt lat="14.444816817641906" lon="120.91438474347183"><ele>5.0</ele><time>2026-04-17T04:51:56Z</time></trkpt><trkpt lat="14.44475859853944" lon="120.91435727838447"><ele>5.0</ele><time>2026-04-17T04:51:57Z</time></trkpt><trkpt lat="14.444687002601201" lon="120.91431558396808"><ele>5.0</ele><time>2026-04-17T04:51:58Z</time></trkpt><trkpt lat="14.44461820392908" lon="120.91427264000626"><ele>4.0</ele><time>2026-04-17T04:51:59Z</time></trkpt><trkpt lat="14.444551606111052" lon="120.9142239841586"><ele>3.0</ele><time>2026-04-17T04:52:00Z</time></trkpt><trkpt lat="14.444470634816236" lon="120.914165157894"><ele>2.0</ele><time>2026-04-17T04:52:01Z</time></trkpt><trkpt lat="14.44436616214156" lon="120.91411024105373"><ele>1.0</ele><time>2026-04-17T04:52:02Z</time></trkpt><trkpt lat="14.444275467238288" lon="120.91405399153136"><ele>0.0</ele><time>2026-04-17T04:52:03Z</time></trkpt><trkpt lat="14.44418252925572" lon="120.91399581371343"><ele>0.0</ele><time>2026-04-17T04:52:04Z</time></trkpt><trkpt lat="14.444097685225955" lon="120.91393454431837"><ele>0.0</ele><time>2026-04-17T04:52:05Z</time></trkpt><trkpt lat="14.443993375406306" lon="120.91386858466649"><ele>0.0</ele><time>2026-04-17T04:52:06Z</time></trkpt><trkpt lat="14.443901212113817" lon="120.91380416332315"><ele>0.0</ele><time>2026-04-17T04:52:07Z</time></trkpt><trkpt lat="14.443811075140049" lon="120.913743881015"><ele>0.0</ele><time>2026-04-17T04:52:08Z</time></trkpt><trkpt lat="14.44372038182073" lon="120.91368204834211"><ele>1.5</ele><time>2026-04-17T04:52:09Z</time></trkpt><trkpt lat="14.443622142578356" lon="120.91361517848136"><ele>3.0</ele><time>2026-04-17T04:52:10Z</time></trkpt><trkpt lat="14.443532516899095" lon="120.91354726176365"><ele>4.5</ele><time>2026-04-17T04:52:11Z</time></trkpt><trkpt lat="14.443441396318406" lon="120.91347603808428"><ele>6.0</ele><time>2026-04-17T04:52:12Z</time></trkpt><trkpt lat="14.443361221241801" lon="120.91339177864712"><ele>6.199999999999999</ele><time>2026-04-17T04:52:13Z</time></trkpt><trkpt lat="14.443276012083338" lon="120.91332796150654"><ele>6.3999999999999995</ele><time>2026-04-17T04:52:14Z</time></trkpt><trkpt lat="14.443195068247487" lon="120.91326392240376"><ele>6.6</ele><time>2026-04-17T04:52:15Z</time></trkpt><trkpt lat="14.443110254114897" lon="120.9132003753985"><ele>6.8</ele><time>2026-04-17T04:52:16Z</time></trkpt><trkpt lat="14.44304140151188" lon="120.91314978812238"><ele>7.0</ele><time>2026-04-17T04:52:17Z</time></trkpt><trkpt lat="14.442965883335852" lon="120.91310961809988"><ele>7.166666666666667</ele><time>2026-04-17T04:52:18Z</time></trkpt><trkpt lat="14.442908251275362" lon="120.91304634394801"><ele>7.333333333333334</ele><time>2026-04-17T04:52:19Z</time></trkpt><trkpt lat="14.442835361008333" lon="120.91298971563411"><ele>7.5</ele><time>2026-04-17T04:52:20Z</time></trkpt><trkpt lat="14.44275700438337" lon="120.91295002271536"><ele>7.666666666666666</ele><time>2026-04-17T04:52:21Z</time></trkpt><trkpt lat="14.442697983393764" lon="120.91289869898993"><ele>7.833333333333333</ele><time>2026-04-17T04:52:22Z</time></trkpt><trkpt lat="14.442645558623264" lon="120.91285564715797"><ele>8.0</ele><time>2026-04-17T04:52:23Z</time></trkpt><trkpt lat="14.442593833750944" lon="120.91281216929463"><ele>8.0</ele><time>2026-04-17T04:52:24Z</time></trkpt><trkpt lat="14.442540813936331" lon="120.91276946239091"><ele>8.0</ele><time>2026-04-17T04:52:25Z</time></trkpt><trkpt lat="14.442458424212445" lon="120.91270119358839"><ele>8.0</ele><time>2026-04-17T04:52:28Z</time></trkpt><trkpt lat="14.442389665022095" lon="120.91263692400699"><ele>8.0</ele><time>2026-04-17T04:52:31Z</time></trkpt><trkpt lat="14.442324223577163" lon="120.91258050624668"><ele>8.0</ele><time>2026-04-17T04:52:33Z</time></trkpt><trkpt lat="14.442245948420696" lon="120.91250043172043"><ele>7.499999999999999</ele><time>2026-04-17T04:52:35Z</time></trkpt><trkpt lat="14.442184157734678" lon="120.91241036820554"><ele>7.0</ele><time>2026-04-17T04:52:37Z</time></trkpt><trkpt lat="14.44208069024596" lon="120.91234475510188"><ele>6.5</ele><time>2026-04-17T04:52:39Z</time></trkpt><trkpt lat="14.442028320338927" lon="120.9122995792544"><ele>6.0</ele><time>2026-04-17T04:52:40Z</time></trkpt><trkpt lat="14.441968047236282" lon="120.91225394910799"><ele>5.5</ele><time>2026-04-17T04:52:41Z</time></trkpt><trkpt lat="14.441917270153324" lon="120.91221181157677"><ele>5.0</ele><time>2026-04-17T04:52:42Z</time></trkpt><trkpt lat="14.441816207021974" lon="120.91212088610268"><ele>5.0</ele><time>2026-04-17T04:52:44Z</time></trkpt><trkpt lat="14.441759507867143" lon="120.91206384789778"><ele>5.0</ele><time>2026-04-17T04:52:45Z</time></trkpt><trkpt lat="14.441667434524978" lon="120.91196864265858"><ele>5.0</ele><time>2026-04-17T04:52:47Z</time></trkpt><trkpt lat="14.44161212431162" lon="120.91188948254025"><ele>5.0</ele><time>2026-04-17T04:52:49Z</time></trkpt><trkpt lat="14.44154446752394" lon="120.9118065001106"><ele>5.0</ele><time>2026-04-17T04:52:51Z</time></trkpt><trkpt lat="14.441499502826348" lon="120.9117579597376"><ele>5.166666666666667</ele><time>2026-04-17T04:52:52Z</time></trkpt><trkpt lat="14.441450297599888" lon="120.91171253319499"><ele>5.333333333333334</ele><time>2026-04-17T04:52:53Z</time></trkpt><trkpt lat="14.441375807753692" lon="120.91164326884721"><ele>5.5</ele><time>2026-04-17T04:52:55Z</time></trkpt><trkpt lat="14.441304532844432" lon="120.91157734697718"><ele>5.666666666666667</ele><time>2026-04-17T04:52:57Z</time></trkpt><trkpt lat="14.441249699559085" lon="120.9115261324162"><ele>5.833333333333333</ele><time>2026-04-17T04:52:59Z</time></trkpt><trkpt lat="14.441184708506317" lon="120.91150771263113"><ele>6.0</ele><time>2026-04-17T04:53:01Z</time></trkpt><trkpt lat="14.441141943832791" lon="120.91144977979971"><ele>6.0</ele><time>2026-04-17T04:53:05Z</time></trkpt><trkpt lat="14.441086506620367" lon="120.91138654956887"><ele>6.0</ele><time>2026-04-17T04:53:09.001Z</time></trkpt><trkpt lat="14.441119286480495" lon="120.9113041289374"><ele>6.0</ele><time>2026-04-17T04:53:12.001Z</time></trkpt><trkpt lat="14.441193173008338" lon="120.91126045745968"><ele>6.0</ele><time>2026-04-17T04:53:14.001Z</time></trkpt><trkpt lat="14.441263363567268" lon="120.91119000277152"><ele>6.0</ele><time>2026-04-17T04:53:17.001Z</time></trkpt><trkpt lat="14.441322999088547" lon="120.9111548114971"><ele>6.0</ele><time>2026-04-17T04:53:19.001Z</time></trkpt><trkpt lat="14.441383790503775" lon="120.91109786181707"><ele>5.999999999999999</ele><time>2026-04-17T04:53:22.001Z</time></trkpt><trkpt lat="14.441431633406326" lon="120.9110530423569"><ele>6.0</ele><time>2026-04-17T04:53:24.001Z</time></trkpt><trkpt lat="14.44149434890467" lon="120.91099429018693"><ele>6.0</ele><time>2026-04-17T04:53:26.001Z</time></trkpt><trkpt lat="14.441544348026335" lon="120.91094831289477"><ele>6.0</ele><time>2026-04-17T04:53:27.001Z</time></trkpt><trkpt lat="14.441607665405034" lon="120.91088799002128"><ele>6.0</ele><time>2026-04-17T04:53:29.001Z</time></trkpt><trkpt lat="14.441658425047654" lon="120.91083815155078"><ele>5.999999999999999</ele><time>2026-04-17T04:53:30.001Z</time></trkpt><trkpt lat="14.441704758606056" lon="120.91079265884004"><ele>6.0</ele><time>2026-04-17T04:53:31.001Z</time></trkpt><trkpt lat="14.441801404039282" lon="120.91069463461896"><ele>6.0</ele><time>2026-04-17T04:53:33.001Z</time></trkpt><trkpt lat="14.441862441461566" lon="120.91065879939153"><ele>6.0</ele><time>2026-04-17T04:53:34.001Z</time></trkpt><trkpt lat="14.441927775440599" lon="120.91062284063233"><ele>6.0</ele><time>2026-04-17T04:53:35.001Z</time></trkpt><trkpt lat="14.442002845929567" lon="120.91059818460013"><ele>6.0</ele><time>2026-04-17T04:53:36Z</time></trkpt><trkpt lat="14.442075017560764" lon="120.91056154307408"><ele>6.0</ele><time>2026-04-17T04:53:37Z</time></trkpt><trkpt lat="14.442145428671424" lon="120.9105257953772"><ele>6.0</ele><time>2026-04-17T04:53:38Z</time></trkpt><trkpt lat="14.442215036061448" lon="120.91049045572754"><ele>6.199999999999999</ele><time>2026-04-17T04:53:39Z</time></trkpt><trkpt lat="14.442314962629899" lon="120.91042374001391"><ele>6.3999999999999995</ele><time>2026-04-17T04:53:41Z</time></trkpt><trkpt lat="14.442395994769248" lon="120.91038433522083"><ele>6.6</ele><time>2026-04-17T04:53:43Z</time></trkpt><trkpt lat="14.442457562536145" lon="120.9103485428657"><ele>6.8</ele><time>2026-04-17T04:53:47Z</time></trkpt><trkpt lat="14.442552196131256" lon="120.91031900914146"><ele>7.0</ele><time>2026-04-17T04:54:04Z</time></trkpt><trkpt lat="14.442653284538693" lon="120.91026730914878"><ele>7.0</ele><time>2026-04-17T04:54:06Z</time></trkpt><trkpt lat="14.442723418303347" lon="120.91022631746831"><ele>6.999999999999999</ele><time>2026-04-17T04:54:09Z</time></trkpt><trkpt lat="14.442811129139006" lon="120.91017745434277"><ele>6.999999999999999</ele><time>2026-04-17T04:54:12Z</time></trkpt><trkpt lat="14.442866655141648" lon="120.91014652113005"><ele>7.0</ele><time>2026-04-17T04:54:13Z</time></trkpt><trkpt lat="14.442962857870812" lon="120.91008981763456"><ele>7.0</ele><time>2026-04-17T04:54:15Z</time></trkpt><trkpt lat="14.443057548599327" lon="120.91003263142699"><ele>6.3999999999999995</ele><time>2026-04-17T04:54:17Z</time></trkpt><trkpt lat="14.443123722668261" lon="120.90999203545701"><ele>5.799999999999999</ele><time>2026-04-17T04:54:19Z</time></trkpt><trkpt lat="14.443212317718054" lon="120.90993701529408"><ele>5.2</ele><time>2026-04-17T04:54:22Z</time></trkpt><trkpt lat="14.443327146302819" lon="120.90986576097835"><ele>4.6</ele><time>2026-04-17T04:54:24Z</time></trkpt><trkpt lat="14.443385971891766" lon="120.9098292580781"><ele>4.0</ele><time>2026-04-17T04:54:25Z</time></trkpt><trkpt lat="14.443461526157012" lon="120.90977356863984"><ele>3.9999999999999996</ele><time>2026-04-17T04:54:27Z</time></trkpt><trkpt lat="14.443533739835964" lon="120.90971922963206"><ele>4.0</ele><time>2026-04-17T04:54:31Z</time></trkpt><trkpt lat="14.443609293445919" lon="120.90966237734493"><ele>4.0</ele><time>2026-04-17T04:54:33Z</time></trkpt><trkpt lat="14.443677281655" lon="120.90961194759508"><ele>4.0</ele><time>2026-04-17T04:54:35Z</time></trkpt><trkpt lat="14.443762235551935" lon="120.90954864095924"><ele>3.9999999999999996</ele><time>2026-04-17T04:54:37Z</time></trkpt><trkpt lat="14.443818592045606" lon="120.90950664476748"><ele>4.0</ele><time>2026-04-17T04:54:38Z</time></trkpt><trkpt lat="14.443897385863405" lon="120.90944792855723"><ele>4.333333333333333</ele><time>2026-04-17T04:54:40Z</time></trkpt><trkpt lat="14.443970986596927" lon="120.90939308216957"><ele>4.666666666666666</ele><time>2026-04-17T04:54:44Z</time></trkpt><trkpt lat="14.444023797975627" lon="120.90935372775569"><ele>5.0</ele><time>2026-04-17T04:54:45Z</time></trkpt><trkpt lat="14.444075064730692" lon="120.9093155242774"><ele>5.333333333333333</ele><time>2026-04-17T04:54:46Z</time></trkpt><trkpt lat="14.44413490295469" lon="120.90927390983381"><ele>5.666666666666667</ele><time>2026-04-17T04:54:47Z</time></trkpt><trkpt lat="14.444204984586438" lon="120.90922375694687"><ele>6.0</ele><time>2026-04-17T04:54:48Z</time></trkpt><trkpt lat="14.444271330136385" lon="120.90917627767693"><ele>6.0</ele><time>2026-04-17T04:54:49Z</time></trkpt><trkpt lat="14.444328711330687" lon="120.90913460254501"><ele>6.0</ele><time>2026-04-17T04:54:50Z</time></trkpt><trkpt lat="14.444382901431483" lon="120.9090954227566"><ele>6.0</ele><time>2026-04-17T04:54:51Z</time></trkpt><trkpt lat="14.444466600249948" lon="120.90903490797162"><ele>6.0</ele><time>2026-04-17T04:54:52Z</time></trkpt><trkpt lat="14.444536706402596" lon="120.90898422077397"><ele>6.0</ele><time>2026-04-17T04:54:53Z</time></trkpt><trkpt lat="14.444602625668557" lon="120.90893656071893"><ele>6.0</ele><time>2026-04-17T04:54:54Z</time></trkpt><trkpt lat="14.444654352156563" lon="120.90889916213759"><ele>6.0</ele><time>2026-04-17T04:54:55Z</time></trkpt><trkpt lat="14.444712365400699" lon="120.90885721818596"><ele>6.0</ele><time>2026-04-17T04:54:57Z</time></trkpt><trkpt lat="14.444790742296114" lon="120.90880055119031"><ele>6.0</ele><time>2026-04-17T04:55:00Z</time></trkpt><trkpt lat="14.444890659448696" lon="120.90872838032462"><ele>6.0</ele><time>2026-04-17T04:55:02Z</time></trkpt><trkpt lat="14.444954997941004" lon="120.90868233338712"><ele>6.0</ele><time>2026-04-17T04:55:03Z</time></trkpt><trkpt lat="14.445024836756202" lon="120.90863232535571"><ele>6.0</ele><time>2026-04-17T04:55:04Z</time></trkpt><trkpt lat="14.445089115466478" lon="120.90858629862727"><ele>6.0</ele><time>2026-04-17T04:55:05Z</time></trkpt><trkpt lat="14.445140916920911" lon="120.9085492062277"><ele>6.0</ele><time>2026-04-17T04:55:06Z</time></trkpt><trkpt lat="14.445196159953253" lon="120.90850964949067"><ele>6.0</ele><time>2026-04-17T04:55:08Z</time></trkpt><trkpt lat="14.445268677512654" lon="120.90846127548282"><ele>6.0</ele><time>2026-04-17T04:55:10Z</time></trkpt><trkpt lat="14.44537988444975" lon="120.9083881027749"><ele>6.0</ele><time>2026-04-17T04:55:12.001Z</time></trkpt><trkpt lat="14.445482058681987" lon="120.90832126503058"><ele>6.166666666666667</ele><time>2026-04-17T04:55:14.001Z</time></trkpt><trkpt lat="14.445547019581017" lon="120.90827877055762"><ele>6.333333333333334</ele><time>2026-04-17T04:55:16.001Z</time></trkpt><trkpt lat="14.445617932668785" lon="120.90828467343762"><ele>6.5</ele><time>2026-04-17T04:55:30.001Z</time></trkpt><trkpt lat="14.445653645530344" lon="120.9083632544368"><ele>6.666666666666667</ele><time>2026-04-17T04:55:32.001Z</time></trkpt><trkpt lat="14.445682276842525" lon="120.90842337594508"><ele>6.833333333333334</ele><time>2026-04-17T04:55:33.001Z</time></trkpt><trkpt lat="14.445714796198493" lon="120.90848510269375"><ele>7.0</ele><time>2026-04-17T04:55:34.001Z</time></trkpt><trkpt lat="14.445761829994488" lon="120.90860460885517"><ele>7.000000000000001</ele><time>2026-04-17T04:55:36.001Z</time></trkpt><trkpt lat="14.445798205838612" lon="120.90867931367784"><ele>7.0</ele><time>2026-04-17T04:55:38.001Z</time></trkpt><trkpt lat="14.445852598029315" lon="120.90872123363471"><ele>7.0</ele><time>2026-04-17T04:55:42Z</time></trkpt><trkpt lat="14.445922493708899" lon="120.90871951953507"><ele>7.0</ele><time>2026-04-17T04:55:47Z</time></trkpt><trkpt lat="14.446000095108571" lon="120.90869731870183"><ele>7.000000000000001</ele><time>2026-04-17T04:55:51Z</time></trkpt><trkpt lat="14.446102502118855" lon="120.9086773592201"><ele>7.0</ele><time>2026-04-17T04:55:53Z</time></trkpt><trkpt lat="14.446164944519612" lon="120.90866461748759"><ele>7.000000000000001</ele><time>2026-04-17T04:55:54Z</time></trkpt><trkpt lat="14.446230756233605" lon="120.90865135477328"><ele>7.0</ele><time>2026-04-17T04:55:55Z</time></trkpt><trkpt lat="14.446305954875147" lon="120.90863276436652"><ele>7.0</ele><time>2026-04-17T04:55:56Z</time></trkpt><trkpt lat="14.446382135707188" lon="120.90861082223184"><ele>7.0</ele><time>2026-04-17T04:55:57Z</time></trkpt><trkpt lat="14.446465426743634" lon="120.90858914575567"><ele>7.000000000000001</ele><time>2026-04-17T04:55:58Z</time></trkpt><trkpt lat="14.446535071767387" lon="120.90857739400727"><ele>7.0</ele><time>2026-04-17T04:55:59Z</time></trkpt><trkpt lat="14.446614912859543" lon="120.90855498550275"><ele>6.6</ele><time>2026-04-17T04:56:00Z</time></trkpt><trkpt lat="14.446691172636742" lon="120.9085359240526"><ele>6.199999999999999</ele><time>2026-04-17T04:56:01Z</time></trkpt><trkpt lat="14.446812257366936" lon="120.9084932995822"><ele>5.8</ele><time>2026-04-17T04:56:03Z</time></trkpt><trkpt lat="14.446867657128351" lon="120.90846009017099"><ele>5.4</ele><time>2026-04-17T04:56:04Z</time></trkpt><trkpt lat="14.44694552317112" lon="120.90836519425343"><ele>5.0</ele><time>2026-04-17T04:56:06Z</time></trkpt><trkpt lat="14.446965883387875" lon="120.90830170641777"><ele>5.0</ele><time>2026-04-17T04:56:07Z</time></trkpt><trkpt lat="14.446977536273653" lon="120.90819456598217"><ele>5.0</ele><time>2026-04-17T04:56:09Z</time></trkpt><trkpt lat="14.446945039616836" lon="120.90806962173532"><ele>5.0</ele><time>2026-04-17T04:56:10Z</time></trkpt><trkpt lat="14.4469232291801" lon="120.90797574741991"><ele>5.0</ele><time>2026-04-17T04:56:11Z</time></trkpt><trkpt lat="14.446911805425644" lon="120.90790550429999"><ele>5.0</ele><time>2026-04-17T04:56:12Z</time></trkpt><trkpt lat="14.446893074267004" lon="120.90780985985204"><ele>5.0</ele><time>2026-04-17T04:56:13Z</time></trkpt><trkpt lat="14.44688238889138" lon="120.90771842708693"><ele>5.0</ele><time>2026-04-17T04:56:14Z</time></trkpt><trkpt lat="14.446870707354789" lon="120.9076255147178"><ele>5.0</ele><time>2026-04-17T04:56:15Z</time></trkpt><trkpt lat="14.446852837898657" lon="120.90752290442475"><ele>5.0</ele><time>2026-04-17T04:56:16Z</time></trkpt><trkpt lat="14.446837336880634" lon="120.90742294728612"><ele>5.0</ele><time>2026-04-17T04:56:17Z</time></trkpt><trkpt lat="14.446818439347602" lon="120.9073151052314"><ele>5.2</ele><time>2026-04-17T04:56:18Z</time></trkpt><trkpt lat="14.446799929556624" lon="120.90720866726902"><ele>5.4</ele><time>2026-04-17T04:56:19Z</time></trkpt><trkpt lat="14.446782040939059" lon="120.90710002090148"><ele>5.6</ele><time>2026-04-17T04:56:20Z</time></trkpt><trkpt lat="14.446770766167793" lon="120.90700335635402"><ele>5.8</ele><time>2026-04-17T04:56:21Z</time></trkpt><trkpt lat="14.446756287446352" lon="120.90690951572404"><ele>6.0</ele><time>2026-04-17T04:56:22Z</time></trkpt><trkpt lat="14.446745237773223" lon="120.90682330288432"><ele>6.166666666666667</ele><time>2026-04-17T04:56:23Z</time></trkpt><trkpt lat="14.446733998408657" lon="120.90674142537853"><ele>6.333333333333334</ele><time>2026-04-17T04:56:24Z</time></trkpt><trkpt lat="14.446714121149341" lon="120.90665994088808"><ele>6.5</ele><time>2026-04-17T04:56:25Z</time></trkpt><trkpt lat="14.446678973843147" lon="120.90658601675342"><ele>6.666666666666667</ele><time>2026-04-17T04:56:26Z</time></trkpt><trkpt lat="14.446634751741792" lon="120.9065372965994"><ele>6.833333333333334</ele><time>2026-04-17T04:56:27Z</time></trkpt><trkpt lat="14.446570521087189" lon="120.90650718533473"><ele>7.0</ele><time>2026-04-17T04:56:28Z</time></trkpt><trkpt lat="14.446495868585274" lon="120.90650133651818"><ele>7.0</ele><time>2026-04-17T04:56:29Z</time></trkpt><trkpt lat="14.446410738255517" lon="120.90650437549995"><ele>6.999999999999999</ele><time>2026-04-17T04:56:30Z</time></trkpt><trkpt lat="14.44633109806047" lon="120.90650370809755"><ele>6.999999999999999</ele><time>2026-04-17T04:56:31Z</time></trkpt><trkpt lat="14.446222418600799" lon="120.90650485875109"><ele>7.0</ele><time>2026-04-17T04:56:32Z</time></trkpt><trkpt lat="14.446113747584006" lon="120.90650112443348"><ele>7.0</ele><time>2026-04-17T04:56:33Z</time></trkpt><trkpt lat="14.446017321948142" lon="120.90649524109548"><ele>6.8</ele><time>2026-04-17T04:56:34Z</time></trkpt><trkpt lat="14.445925985743306" lon="120.90648817554572"><ele>6.6</ele><time>2026-04-17T04:56:35Z</time></trkpt><trkpt lat="14.44584401313222" lon="120.90648082540604"><ele>6.3999999999999995</ele><time>2026-04-17T04:56:36Z</time></trkpt><trkpt lat="14.445774648340226" lon="120.90647596395172"><ele>6.199999999999999</ele><time>2026-04-17T04:56:37Z</time></trkpt><trkpt lat="14.445644190916552" lon="120.90646982368915"><ele>6.0</ele><time>2026-04-17T04:56:39Z</time></trkpt><trkpt lat="14.445544385687901" lon="120.90647310365571"><ele>6.333333333333333</ele><time>2026-04-17T04:56:41Z</time></trkpt><trkpt lat="14.445460869418408" lon="120.90648295546328"><ele>6.666666666666666</ele><time>2026-04-17T04:56:43Z</time></trkpt><trkpt lat="14.44538648314552" lon="120.9064831258036"><ele>7.0</ele><time>2026-04-17T04:56:45Z</time></trkpt><trkpt lat="14.445288829161663" lon="120.90651379992178"><ele>7.333333333333333</ele><time>2026-04-17T04:56:47Z</time></trkpt><trkpt lat="14.44520879960236" lon="120.90653577321"><ele>7.666666666666666</ele><time>2026-04-17T04:56:49Z</time></trkpt><trkpt lat="14.445143978353862" lon="120.90651791677377"><ele>8.0</ele><time>2026-04-17T04:56:51Z</time></trkpt><trkpt lat="14.44509331876901" lon="120.90647852776554"><ele>7.999999999999999</ele><time>2026-04-17T04:56:53Z</time></trkpt><trkpt lat="14.445060145024055" lon="120.90640945793045"><ele>8.0</ele><time>2026-04-17T04:56:55Z</time></trkpt><trkpt lat="14.44504420333511" lon="120.90631560917105"><ele>8.0</ele><time>2026-04-17T04:56:57Z</time></trkpt><trkpt lat="14.445011050220662" lon="120.90619337748636"><ele>8.0</ele><time>2026-04-17T04:56:59Z</time></trkpt><trkpt lat="14.444992875986966" lon="120.90612546586046"><ele>7.999999999999999</ele><time>2026-04-17T04:57:00Z</time></trkpt><trkpt lat="14.444979560570168" lon="120.90606182200271"><ele>8.0</ele><time>2026-04-17T04:57:01Z</time></trkpt><trkpt lat="14.444950926772275" lon="120.90593989015483"><ele>7.800000000000001</ele><time>2026-04-17T04:57:03Z</time></trkpt><trkpt lat="14.444924061773742" lon="120.9058222499083"><ele>7.6000000000000005</ele><time>2026-04-17T04:57:05Z</time></trkpt><trkpt lat="14.44489740383578" lon="120.90572610475206"><ele>7.3999999999999995</ele><time>2026-04-17T04:57:07Z</time></trkpt><trkpt lat="14.444860196860894" lon="120.9056171448245"><ele>7.199999999999999</ele><time>2026-04-17T04:57:09Z</time></trkpt><trkpt lat="14.444830067349486" lon="120.90549877025057"><ele>7.0</ele><time>2026-04-17T04:57:11Z</time></trkpt><trkpt lat="14.444799864840757" lon="120.90537339868203"><ele>7.0</ele><time>2026-04-17T04:57:13Z</time></trkpt><trkpt lat="14.44475457117896" lon="120.9052535706087"><ele>7.0</ele><time>2026-04-17T04:57:15Z</time></trkpt><trkpt lat="14.444727352643262" lon="120.90515093671671"><ele>7.0</ele><time>2026-04-17T04:57:17Z</time></trkpt><trkpt lat="14.44469674330961" lon="120.9050501819663"><ele>7.0</ele><time>2026-04-17T04:57:19Z</time></trkpt><trkpt lat="14.44466217382958" lon="120.90492432783643"><ele>7.000000000000001</ele><time>2026-04-17T04:57:21Z</time></trkpt><trkpt lat="14.444644880989449" lon="120.90485432173621"><ele>7.0</ele><time>2026-04-17T04:57:22Z</time></trkpt><trkpt lat="14.444621462539548" lon="120.9047758500976"><ele>7.0</ele><time>2026-04-17T04:57:23Z</time></trkpt><trkpt lat="14.444590695642717" lon="120.90468396822304"><ele>7.0</ele><time>2026-04-17T04:57:24Z</time></trkpt><trkpt lat="14.444559538121126" lon="120.9045888809102"><ele>7.000000000000001</ele><time>2026-04-17T04:57:25Z</time></trkpt><trkpt lat="14.444529246084416" lon="120.90449650818799"><ele>7.0</ele><time>2026-04-17T04:57:26Z</time></trkpt><trkpt lat="14.444498641513018" lon="120.90440502515139"><ele>7.000000000000001</ele><time>2026-04-17T04:57:27Z</time></trkpt><trkpt lat="14.444476503736098" lon="120.90431842116436"><ele>7.0</ele><time>2026-04-17T04:57:28Z</time></trkpt><trkpt lat="14.44444394253531" lon="120.90422475899983"><ele>7.0</ele><time>2026-04-17T04:57:29Z</time></trkpt><trkpt lat="14.444424254489327" lon="120.9041477716146"><ele>7.0</ele><time>2026-04-17T04:57:30Z</time></trkpt><trkpt lat="14.44439829424325" lon="120.90406308868302"><ele>7.000000000000001</ele><time>2026-04-17T04:57:31.001Z</time></trkpt><trkpt lat="14.444367443633148" lon="120.90397528369584"><ele>7.0</ele><time>2026-04-17T04:57:32.001Z</time></trkpt><trkpt lat="14.444339854475041" lon="120.90389527108678"><ele>7.000000000000001</ele><time>2026-04-17T04:57:33.001Z</time></trkpt><trkpt lat="14.44431665427942" lon="120.90382591462063"><ele>7.0</ele><time>2026-04-17T04:57:34.001Z</time></trkpt><trkpt lat="14.444290428741652" lon="120.90375820886533"><ele>7.0</ele><time>2026-04-17T04:57:35.001Z</time></trkpt><trkpt lat="14.444266636507805" lon="120.90369596526622"><ele>7.0</ele><time>2026-04-17T04:57:36.001Z</time></trkpt><trkpt lat="14.444233552628255" lon="120.90358096614577"><ele>7.000000000000001</ele><time>2026-04-17T04:57:38.001Z</time></trkpt><trkpt lat="14.444212751616751" lon="120.90351423508295"><ele>7.0</ele><time>2026-04-17T04:57:39.001Z</time></trkpt><trkpt lat="14.444190549603775" lon="120.90345135556069"><ele>7.000000000000001</ele><time>2026-04-17T04:57:40.001Z</time></trkpt><trkpt lat="14.444132050893327" lon="120.90333707648601"><ele>7.0</ele><time>2026-04-17T04:57:42.001Z</time></trkpt><trkpt lat="14.444098634396275" lon="120.90327474401305"><ele>7.0</ele><time>2026-04-17T04:57:43.001Z</time></trkpt><trkpt lat="14.444059999813396" lon="120.90320432277704"><ele>7.0</ele><time>2026-04-17T04:57:44.001Z</time></trkpt><trkpt lat="14.444023541130171" lon="120.9031385153781"><ele>7.000000000000001</ele><time>2026-04-17T04:57:45.001Z</time></trkpt><trkpt lat="14.443981388844819" lon="120.90306789579559"><ele>7.0</ele><time>2026-04-17T04:57:46.001Z</time></trkpt><trkpt lat="14.443942358903282" lon="120.9029961527484"><ele>7.0</ele><time>2026-04-17T04:57:47Z</time></trkpt><trkpt lat="14.44390656306658" lon="120.90293204460664"><ele>6.999999999999999</ele><time>2026-04-17T04:57:48Z</time></trkpt><trkpt lat="14.443847057580346" lon="120.90282762262703"><ele>6.999999999999999</ele><time>2026-04-17T04:57:50Z</time></trkpt><trkpt lat="14.443795490411203" lon="120.90273538768136"><ele>7.0</ele><time>2026-04-17T04:57:52Z</time></trkpt><trkpt lat="14.443737937322487" lon="120.90264170146102"><ele>7.0</ele><time>2026-04-17T04:57:54Z</time></trkpt><trkpt lat="14.443687414042682" lon="120.90256919230055"><ele>7.000000000000001</ele><time>2026-04-17T04:57:56Z</time></trkpt><trkpt lat="14.44364300656486" lon="120.9024994578143"><ele>7.0</ele><time>2026-04-17T04:57:58Z</time></trkpt><trkpt lat="14.44360970870508" lon="120.90243556195834"><ele>7.0</ele><time>2026-04-17T04:58:00Z</time></trkpt><trkpt lat="14.443560791456798" lon="120.90236667982751"><ele>7.0</ele><time>2026-04-17T04:58:03Z</time></trkpt><trkpt lat="14.443537835606206" lon="120.90228909075492"><ele>7.000000000000001</ele><time>2026-04-17T04:58:07Z</time></trkpt><trkpt lat="14.443496849718779" lon="120.90223819899084"><ele>7.0</ele><time>2026-04-17T04:58:11Z</time></trkpt><trkpt lat="14.44344868662851" lon="120.90215167625928"><ele>7.0</ele><time>2026-04-17T04:58:13Z</time></trkpt><trkpt lat="14.443388892529526" lon="120.90204375332934"><ele>6.999999999999999</ele><time>2026-04-17T04:58:15Z</time></trkpt><trkpt lat="14.4433359566049" lon="120.90195370354365"><ele>6.999999999999999</ele><time>2026-04-17T04:58:17Z</time></trkpt><trkpt lat="14.443294240517746" lon="120.9018808783637"><ele>7.0</ele><time>2026-04-17T04:58:19Z</time></trkpt><trkpt lat="14.443258852121103" lon="120.90181808241644"><ele>7.0</ele><time>2026-04-17T04:58:21Z</time></trkpt><trkpt lat="14.443213808473743" lon="120.90173805485097"><ele>7.0</ele><time>2026-04-17T04:58:24Z</time></trkpt><trkpt lat="14.443153886165339" lon="120.90163511323564"><ele>6.999999999999999</ele><time>2026-04-17T04:58:26Z</time></trkpt><trkpt lat="14.443100093305485" lon="120.90152884654121"><ele>6.999999999999999</ele><time>2026-04-17T04:58:28Z</time></trkpt><trkpt lat="14.44305777285886" lon="120.90145690043047"><ele>7.0</ele><time>2026-04-17T04:58:30Z</time></trkpt><trkpt lat="14.44300623426223" lon="120.90136346390798"><ele>7.0</ele><time>2026-04-17T04:58:34Z</time></trkpt><trkpt lat="14.442973823810284" lon="120.90130625657986"><ele>6.8</ele><time>2026-04-17T04:58:35Z</time></trkpt><trkpt lat="14.44290807444764" lon="120.90119243614193"><ele>6.6</ele><time>2026-04-17T04:58:37Z</time></trkpt><trkpt lat="14.442851622737292" lon="120.90109456165396"><ele>6.3999999999999995</ele><time>2026-04-17T04:58:39Z</time></trkpt><trkpt lat="14.442815545113161" lon="120.90103859603289"><ele>6.199999999999999</ele><time>2026-04-17T04:58:41Z</time></trkpt><trkpt lat="14.442771670316226" lon="120.90096101727643"><ele>6.0</ele><time>2026-04-17T04:58:44Z</time></trkpt><trkpt lat="14.442704453932667" lon="120.9008491238562"><ele>5.833333333333333</ele><time>2026-04-17T04:58:46Z</time></trkpt><trkpt lat="14.442666133979241" lon="120.90078943067593"><ele>5.666666666666667</ele><time>2026-04-17T04:58:47Z</time></trkpt><trkpt lat="14.442623012586871" lon="120.90072871716988"><ele>5.5</ele><time>2026-04-17T04:58:48Z</time></trkpt><trkpt lat="14.442579403986148" lon="120.90066613101796"><ele>5.333333333333334</ele><time>2026-04-17T04:58:49Z</time></trkpt><trkpt lat="14.442542617470128" lon="120.9006031048702"><ele>5.166666666666667</ele><time>2026-04-17T04:58:50Z</time></trkpt><trkpt lat="14.442475256320582" lon="120.90050626872275"><ele>5.0</ele><time>2026-04-17T04:58:52Z</time></trkpt><trkpt lat="14.442420859376925" lon="120.90043848868196"><ele>5.0</ele><time>2026-04-17T04:58:55Z</time></trkpt><trkpt lat="14.442384097628224" lon="120.90037944449868"><ele>5.0</ele><time>2026-04-17T04:58:57Z</time></trkpt><trkpt lat="14.442338320804318" lon="120.90029402534945"><ele>5.0</ele><time>2026-04-17T04:58:59Z</time></trkpt><trkpt lat="14.442369842112196" lon="120.90022706812262"><ele>5.0</ele><time>2026-04-17T04:59:02Z</time></trkpt><trkpt lat="14.442436291992266" lon="120.90019131856968"><ele>5.0</ele><time>2026-04-17T04:59:04Z</time></trkpt><trkpt lat="14.44249772481546" lon="120.90015577748292"><ele>5.0</ele><time>2026-04-17T04:59:06Z</time></trkpt><trkpt lat="14.442589394424509" lon="120.90011149288905"><ele>5.0</ele><time>2026-04-17T04:59:10Z</time></trkpt><trkpt lat="14.442689796869498" lon="120.9000573675627"><ele>5.0</ele><time>2026-04-17T04:59:12Z</time></trkpt><trkpt lat="14.442799731827659" lon="120.8999926911496"><ele>5.0</ele><time>2026-04-17T04:59:14Z</time></trkpt><trkpt lat="14.44290822736849" lon="120.89993028974081"><ele>5.0</ele><time>2026-04-17T04:59:16Z</time></trkpt><trkpt lat="14.442982524391745" lon="120.8998864483134"><ele>4.833333333333334</ele><time>2026-04-17T04:59:18Z</time></trkpt><trkpt lat="14.443049820246054" lon="120.89984715468952"><ele>4.666666666666667</ele><time>2026-04-17T04:59:20Z</time></trkpt><trkpt lat="14.443112867464956" lon="120.89983070160189"><ele>4.5</ele><time>2026-04-17T04:59:24Z</time></trkpt><trkpt lat="14.443157835797324" lon="120.89989196259766"><ele>4.333333333333333</ele><time>2026-04-17T04:59:27Z</time></trkpt><trkpt lat="14.4431878596934" lon="120.89995745344343"><ele>4.166666666666666</ele><time>2026-04-17T04:59:31Z</time></trkpt><trkpt lat="14.443227071672592" lon="120.9000351493067"><ele>4.0</ele><time>2026-04-17T04:59:33Z</time></trkpt><trkpt lat="14.4432696341506" lon="120.90011434229791"><ele>4.333333333333333</ele><time>2026-04-17T04:59:36Z</time></trkpt><trkpt lat="14.443298284819182" lon="120.90019153493398"><ele>4.666666666666666</ele><time>2026-04-17T04:59:38Z</time></trkpt><trkpt lat="14.443327163027151" lon="120.90027192718404"><ele>5.0</ele><time>2026-04-17T04:59:40Z</time></trkpt><trkpt lat="14.443339234379755" lon="120.90034922997783"><ele>5.333333333333333</ele><time>2026-04-17T04:59:45Z</time></trkpt><trkpt lat="14.443270620496559" lon="120.90037528144191"><ele>5.666666666666667</ele><time>2026-04-17T04:59:49Z</time></trkpt><trkpt lat="14.443222416287199" lon="120.90043813152315"><ele>6.0</ele><time>2026-04-17T05:01:28Z</time></trkpt><trkpt lat="14.443115783914006" lon="120.90047046496487"><ele>5.0</ele><time>2026-04-17T05:04:18.918Z</time></trkpt><trkpt lat="14.442760451328759" lon="120.90012533289412"><ele>6.0</ele><time>2026-04-17T05:04:29.01Z</time></trkpt><trkpt lat="14.443147303692763" lon="120.90042082251304"><ele>6.0</ele><time>2026-04-17T05:04:54.504Z</time></trkpt><trkpt lat="14.443288958197565" lon="120.90045622007322"><ele>6.0</ele><time>2026-04-17T05:12:26.181Z</time></trkpt><trkpt lat="14.442766714287082" lon="120.90003855494551"><ele>5.833333333333333</ele><time>2026-04-17T06:52:23.043Z</time></trkpt><trkpt lat="14.44268849782526" lon="120.90005787377555"><ele>5.666666666666667</ele><time>2026-04-17T06:52:24.043Z</time></trkpt><trkpt lat="14.442633356576435" lon="120.90009701024007"><ele>5.5</ele><time>2026-04-17T06:52:26.043Z</time></trkpt><trkpt lat="14.442550424042723" lon="120.90015499272899"><ele>5.333333333333334</ele><time>2026-04-17T06:52:29.044Z</time></trkpt><trkpt lat="14.442492190504604" lon="120.90019617466864"><ele>5.166666666666667</ele><time>2026-04-17T06:52:32.994Z</time></trkpt><trkpt lat="14.442417791018887" lon="120.9002325462347"><ele>5.0</ele><time>2026-04-17T06:52:34.994Z</time></trkpt><trkpt lat="14.442367965462958" lon="120.90027246299647"><ele>5.0</ele><time>2026-04-17T06:52:36.995Z</time></trkpt><trkpt lat="14.442427117135026" lon="120.90035158695778"><ele>5.0</ele><time>2026-04-17T06:52:50.998Z</time></trkpt><trkpt lat="14.442465386313486" lon="120.90043038177402"><ele>5.0</ele><time>2026-04-17T06:52:52.998Z</time></trkpt><trkpt lat="14.442510497050737" lon="120.90050299717255"><ele>5.0</ele><time>2026-04-17T06:52:56.999Z</time></trkpt><trkpt lat="14.442558153816009" lon="120.90057999515206"><ele>5.0</ele><time>2026-04-17T06:52:58.999Z</time></trkpt><trkpt lat="14.442616033092001" lon="120.90066870448219"><ele>5.0</ele><time>2026-04-17T06:53:00.999Z</time></trkpt><trkpt lat="14.442686401071711" lon="120.90076960841805"><ele>5.0</ele><time>2026-04-17T06:53:02.999Z</time></trkpt><trkpt lat="14.44273472375643" lon="120.9008531953224"><ele>5.0</ele><time>2026-04-17T06:53:05Z</time></trkpt><trkpt lat="14.442775746447404" lon="120.90090596680682"><ele>5.0</ele><time>2026-04-17T06:53:06Z</time></trkpt><trkpt lat="14.442821250567677" lon="120.90098486094924"><ele>5.0</ele><time>2026-04-17T06:53:08Z</time></trkpt><trkpt lat="14.442853425568337" lon="120.90104277601792"><ele>5.0</ele><time>2026-04-17T06:53:10Z</time></trkpt><trkpt lat="14.442914812400181" lon="120.90113225777561"><ele>5.4</ele><time>2026-04-17T06:53:14Z</time></trkpt><trkpt lat="14.442965472069085" lon="120.90122329783338"><ele>5.8</ele><time>2026-04-17T06:53:16Z</time></trkpt><trkpt lat="14.44303327842706" lon="120.90133404303036"><ele>6.199999999999999</ele><time>2026-04-17T06:53:18Z</time></trkpt><trkpt lat="14.443078346487276" lon="120.90141670826117"><ele>6.6</ele><time>2026-04-17T06:53:20Z</time></trkpt><trkpt lat="14.44312192056291" lon="120.90148437072185"><ele>7.0</ele><time>2026-04-17T06:53:24Z</time></trkpt><trkpt lat="14.443161741201601" lon="120.90156631733444"><ele>7.0</ele><time>2026-04-17T06:53:26Z</time></trkpt><trkpt lat="14.443203883630739" lon="120.90166418027827"><ele>6.999999999999999</ele><time>2026-04-17T06:53:28Z</time></trkpt><trkpt lat="14.44325077438266" lon="120.90174077432091"><ele>6.999999999999999</ele><time>2026-04-17T06:53:30Z</time></trkpt><trkpt lat="14.443289867308842" lon="120.9018077318478"><ele>7.0</ele><time>2026-04-17T06:53:32Z</time></trkpt><trkpt lat="14.443340792458063" lon="120.9018861735384"><ele>7.0</ele><time>2026-04-17T06:53:36Z</time></trkpt><trkpt lat="14.443401329435517" lon="120.90198887461733"><ele>7.0</ele><time>2026-04-17T06:53:38.001Z</time></trkpt><trkpt lat="14.443465193037587" lon="120.90210130910907"><ele>6.999999999999999</ele><time>2026-04-17T06:53:40.001Z</time></trkpt><trkpt lat="14.443502414001001" lon="120.90216777106694"><ele>6.999999999999999</ele><time>2026-04-17T06:53:41.001Z</time></trkpt><trkpt lat="14.44353313285805" lon="120.90222675622405"><ele>7.0</ele><time>2026-04-17T06:53:42.001Z</time></trkpt><trkpt lat="14.44357588905682" lon="120.90232324132513"><ele>7.0</ele><time>2026-04-17T06:53:44.001Z</time></trkpt><trkpt lat="14.443622875989043" lon="120.9024043954461"><ele>7.000000000000001</ele><time>2026-04-17T06:53:46.001Z</time></trkpt><trkpt lat="14.443649356990777" lon="120.90247111860853"><ele>7.0</ele><time>2026-04-17T06:53:48.001Z</time></trkpt><trkpt lat="14.443659061482705" lon="120.90254726614127"><ele>7.0</ele><time>2026-04-17T06:53:51.001Z</time></trkpt><trkpt lat="14.443560100495837" lon="120.9025990944821"><ele>7.0</ele><time>2026-04-17T06:53:53.001Z</time></trkpt><trkpt lat="14.443457129667403" lon="120.90266973218532"><ele>7.000000000000001</ele><time>2026-04-17T06:53:55.001Z</time></trkpt><trkpt lat="14.443406987936083" lon="120.90271198762491"><ele>7.0</ele><time>2026-04-17T06:53:56.001Z</time></trkpt><trkpt lat="14.443358264998439" lon="120.90275709656503"><ele>6.8</ele><time>2026-04-17T06:53:57.001Z</time></trkpt><trkpt lat="14.44326391770358" lon="120.90283949135818"><ele>6.6</ele><time>2026-04-17T06:53:59.001Z</time></trkpt><trkpt lat="14.443172853528582" lon="120.90292438145812"><ele>6.3999999999999995</ele><time>2026-04-17T06:54:01.001Z</time></trkpt><trkpt lat="14.443121304655065" lon="120.90297145173032"><ele>6.199999999999999</ele><time>2026-04-17T06:54:02.001Z</time></trkpt><trkpt lat="14.443068742267762" lon="120.90301766796397"><ele>6.0</ele><time>2026-04-17T06:54:03.001Z</time></trkpt><trkpt lat="14.443020302393819" lon="120.90306692249874"><ele>5.833333333333333</ele><time>2026-04-17T06:54:04.001Z</time></trkpt><trkpt lat="14.442963789439196" lon="120.90312026927528"><ele>5.666666666666667</ele><time>2026-04-17T06:54:05.001Z</time></trkpt><trkpt lat="14.442910531503417" lon="120.90316838411604"><ele>5.5</ele><time>2026-04-17T06:54:06.001Z</time></trkpt><trkpt lat="14.442846065205835" lon="120.90323121954852"><ele>5.333333333333334</ele><time>2026-04-17T06:54:07.001Z</time></trkpt><trkpt lat="14.442784436491404" lon="120.90329574744034"><ele>5.166666666666667</ele><time>2026-04-17T06:54:08.001Z</time></trkpt><trkpt lat="14.442718834402003" lon="120.9033604759315"><ele>5.0</ele><time>2026-04-17T06:54:09.001Z</time></trkpt><trkpt lat="14.442656508283049" lon="120.90341995788846"><ele>4.833333333333334</ele><time>2026-04-17T06:54:10.001Z</time></trkpt><trkpt lat="14.442599221417348" lon="120.90347201654636"><ele>4.666666666666667</ele><time>2026-04-17T06:54:11.001Z</time></trkpt><trkpt lat="14.442549114762398" lon="120.90351514973145"><ele>4.5</ele><time>2026-04-17T06:54:12.001Z</time></trkpt><trkpt lat="14.442453754029636" lon="120.90357287267238"><ele>4.333333333333333</ele><time>2026-04-17T06:54:14.001Z</time></trkpt><trkpt lat="14.442364708899522" lon="120.90359629478351"><ele>4.166666666666666</ele><time>2026-04-17T06:54:16.001Z</time></trkpt><trkpt lat="14.44228615240035" lon="120.9035877698935"><ele>4.0</ele><time>2026-04-17T06:54:18.001Z</time></trkpt><trkpt lat="14.44219228446414" lon="120.9035271516123"><ele>4.2</ele><time>2026-04-17T06:54:20.001Z</time></trkpt><trkpt lat="14.44212800990039" lon="120.90341772306802"><ele>4.4</ele><time>2026-04-17T06:54:22.001Z</time></trkpt><trkpt lat="14.442059366657176" lon="120.90334304061123"><ele>4.6</ele><time>2026-04-17T06:54:24.001Z</time></trkpt><trkpt lat="14.441997589107025" lon="120.90322762645887"><ele>4.8</ele><time>2026-04-17T06:54:26.001Z</time></trkpt><trkpt lat="14.44194072749495" lon="120.90316338667421"><ele>5.0</ele><time>2026-04-17T06:54:27.001Z</time></trkpt><trkpt lat="14.441874781410545" lon="120.9031041972873"><ele>5.0</ele><time>2026-04-17T06:54:28.001Z</time></trkpt><trkpt lat="14.44181092410503" lon="120.90302707100122"><ele>5.0</ele><time>2026-04-17T06:54:29.001Z</time></trkpt><trkpt lat="14.44174792481853" lon="120.90295420006977"><ele>5.0</ele><time>2026-04-17T06:54:30.001Z</time></trkpt><trkpt lat="14.441677286900585" lon="120.9028823369925"><ele>5.0</ele><time>2026-04-17T06:54:31.001Z</time></trkpt><trkpt lat="14.441625143456584" lon="120.90280742886054"><ele>5.0</ele><time>2026-04-17T06:54:32.001Z</time></trkpt><trkpt lat="14.441564349467741" lon="120.9027404262939"><ele>5.0</ele><time>2026-04-17T06:54:33.001Z</time></trkpt><trkpt lat="14.441503775156516" lon="120.90267366583562"><ele>5.0</ele><time>2026-04-17T06:54:34.001Z</time></trkpt><trkpt lat="14.441425066794002" lon="120.90260920326574"><ele>5.0</ele><time>2026-04-17T06:54:35.001Z</time></trkpt><trkpt lat="14.441360055582058" lon="120.90253570833809"><ele>5.0</ele><time>2026-04-17T06:54:36Z</time></trkpt><trkpt lat="14.44130442958742" lon="120.90244545300791"><ele>5.0</ele><time>2026-04-17T06:54:37Z</time></trkpt><trkpt lat="14.441246770375269" lon="120.90237815350899"><ele>5.166666666666667</ele><time>2026-04-17T06:54:38Z</time></trkpt><trkpt lat="14.441194944616202" lon="120.90230920966218"><ele>5.333333333333334</ele><time>2026-04-17T06:54:39Z</time></trkpt><trkpt lat="14.441140515423584" lon="120.90223668889294"><ele>5.5</ele><time>2026-04-17T06:54:40Z</time></trkpt><trkpt lat="14.44108831059751" lon="120.90216713184346"><ele>5.666666666666667</ele><time>2026-04-17T06:54:41Z</time></trkpt><trkpt lat="14.441038419064355" lon="120.90210065699353"><ele>5.833333333333333</ele><time>2026-04-17T06:54:42Z</time></trkpt><trkpt lat="14.440971545256712" lon="120.90203501445824"><ele>6.0</ele><time>2026-04-17T06:54:43Z</time></trkpt><trkpt lat="14.440920592866272" lon="120.90196371007879"><ele>6.0</ele><time>2026-04-17T06:54:44Z</time></trkpt><trkpt lat="14.440888750529556" lon="120.90187211608044"><ele>6.0</ele><time>2026-04-17T06:54:45Z</time></trkpt><trkpt lat="14.440841385851272" lon="120.90179126684491"><ele>6.0</ele><time>2026-04-17T06:54:46Z</time></trkpt><trkpt lat="14.440796885090824" lon="120.90170710451311"><ele>6.0</ele><time>2026-04-17T06:54:47Z</time></trkpt><trkpt lat="14.440755005303581" lon="120.90162196018822"><ele>6.0</ele><time>2026-04-17T06:54:48Z</time></trkpt><trkpt lat="14.44071361551628" lon="120.90153539767701"><ele>5.6</ele><time>2026-04-17T06:54:49Z</time></trkpt><trkpt lat="14.440670360101002" lon="120.90144872652027"><ele>5.199999999999999</ele><time>2026-04-17T06:54:50Z</time></trkpt><trkpt lat="14.440627646669606" lon="120.90136319124855"><ele>4.800000000000001</ele><time>2026-04-17T06:54:51Z</time></trkpt><trkpt lat="14.4405841990716" lon="120.90127618577642"><ele>4.4</ele><time>2026-04-17T06:54:52Z</time></trkpt><trkpt lat="14.440528078494388" lon="120.90119360763795"><ele>4.0</ele><time>2026-04-17T06:54:53Z</time></trkpt><trkpt lat="14.440486831586204" lon="120.90111278818351"><ele>4.2</ele><time>2026-04-17T06:54:54Z</time></trkpt><trkpt lat="14.440443104987583" lon="120.90102243734533"><ele>4.4</ele><time>2026-04-17T06:54:55Z</time></trkpt><trkpt lat="14.440416253135144" lon="120.90091970406894"><ele>4.6</ele><time>2026-04-17T06:54:56Z</time></trkpt><trkpt lat="14.440374091490238" lon="120.90082123468024"><ele>4.8</ele><time>2026-04-17T06:54:57Z</time></trkpt><trkpt lat="14.440330414185269" lon="120.9007192254377"><ele>5.0</ele><time>2026-04-17T06:54:58Z</time></trkpt><trkpt lat="14.440284719421685" lon="120.9006125043767"><ele>5.0</ele><time>2026-04-17T06:54:59Z</time></trkpt><trkpt lat="14.44023799825" lon="120.90050075670321"><ele>5.0</ele><time>2026-04-17T06:55:00Z</time></trkpt><trkpt lat="14.440194483083793" lon="120.90038826131276"><ele>5.0</ele><time>2026-04-17T06:55:01Z</time></trkpt><trkpt lat="14.440151147096035" lon="120.90027622913483"><ele>5.0</ele><time>2026-04-17T06:55:02Z</time></trkpt><trkpt lat="14.440112454103913" lon="120.90017425437205"><ele>5.0</ele><time>2026-04-17T06:55:03Z</time></trkpt><trkpt lat="14.440072254214302" lon="120.90006799567125"><ele>5.0</ele><time>2026-04-17T06:55:04Z</time></trkpt><trkpt lat="14.440040877765686" lon="120.8999670841283"><ele>5.0</ele><time>2026-04-17T06:55:05Z</time></trkpt><trkpt lat="14.440010243692791" lon="120.89985392726621"><ele>5.0</ele><time>2026-04-17T06:55:06Z</time></trkpt><trkpt lat="14.439985201339425" lon="120.89974404781383"><ele>5.0</ele><time>2026-04-17T06:55:07Z</time></trkpt><trkpt lat="14.439963378991768" lon="120.89964476553367"><ele>5.0</ele><time>2026-04-17T06:55:08Z</time></trkpt><trkpt lat="14.439941621881733" lon="120.8995405450682"><ele>5.0</ele><time>2026-04-17T06:55:09Z</time></trkpt><trkpt lat="14.439924027773234" lon="120.8994562661531"><ele>5.0</ele><time>2026-04-17T06:55:10Z</time></trkpt><trkpt lat="14.439907816908272" lon="120.89937861312885"><ele>5.0</ele><time>2026-04-17T06:55:11Z</time></trkpt><trkpt lat="14.439891138816828" lon="120.89929872216955"><ele>5.0</ele><time>2026-04-17T06:55:12Z</time></trkpt><trkpt lat="14.439872546340137" lon="120.89921625689945"><ele>5.0</ele><time>2026-04-17T06:55:13Z</time></trkpt><trkpt lat="14.439852616180984" lon="120.89913077626686"><ele>5.333333333333334</ele><time>2026-04-17T06:55:14Z</time></trkpt><trkpt lat="14.43983219567039" lon="120.8990431924293"><ele>5.666666666666667</ele><time>2026-04-17T06:55:15Z</time></trkpt><trkpt lat="14.439815730278479" lon="120.89897257221715"><ele>6.0</ele><time>2026-04-17T06:55:16Z</time></trkpt><trkpt lat="14.439794392343748" lon="120.89888105367007"><ele>6.333333333333334</ele><time>2026-04-17T06:55:17Z</time></trkpt><trkpt lat="14.439763446012325" lon="120.89878718534784"><ele>6.666666666666667</ele><time>2026-04-17T06:55:18Z</time></trkpt><trkpt lat="14.439731384123492" lon="120.89868981398168"><ele>7.0</ele><time>2026-04-17T06:55:19Z</time></trkpt><trkpt lat="14.439699267402492" lon="120.89859227610346"><ele>7.000000000000001</ele><time>2026-04-17T06:55:20Z</time></trkpt><trkpt lat="14.439667531227038" lon="120.89849589397063"><ele>7.0</ele><time>2026-04-17T06:55:21Z</time></trkpt><trkpt lat="14.439640109870306" lon="120.89841261585512"><ele>7.0</ele><time>2026-04-17T06:55:22Z</time></trkpt><trkpt lat="14.439615609190703" lon="120.89833820775378"><ele>7.0</ele><time>2026-04-17T06:55:23Z</time></trkpt><trkpt lat="14.43958158759503" lon="120.89827216737189"><ele>7.000000000000001</ele><time>2026-04-17T06:55:24Z</time></trkpt><trkpt lat="14.439557009448187" lon="120.89819856099525"><ele>7.0</ele><time>2026-04-17T06:55:25Z</time></trkpt><trkpt lat="14.439533400007459" lon="120.89812622825804"><ele>7.0</ele><time>2026-04-17T06:55:26Z</time></trkpt><trkpt lat="14.43950254756658" lon="120.89805198301634"><ele>6.999999999999999</ele><time>2026-04-17T06:55:27Z</time></trkpt><trkpt lat="14.439471202846674" lon="120.89796997391824"><ele>6.999999999999999</ele><time>2026-04-17T06:55:28Z</time></trkpt><trkpt lat="14.439451670592435" lon="120.89787489822739"><ele>7.0</ele><time>2026-04-17T06:55:29Z</time></trkpt><trkpt lat="14.439411726369736" lon="120.89777594613685"><ele>7.0</ele><time>2026-04-17T06:55:30Z</time></trkpt><trkpt lat="14.439370102139117" lon="120.89767283222022"><ele>7.25</ele><time>2026-04-17T06:55:31Z</time></trkpt><trkpt lat="14.439325742981797" lon="120.89756294317193"><ele>7.5</ele><time>2026-04-17T06:55:32Z</time></trkpt><trkpt lat="14.43927160090835" lon="120.89745098186862"><ele>7.75</ele><time>2026-04-17T06:55:33Z</time></trkpt><trkpt lat="14.439218223196773" lon="120.89733949036183"><ele>8.0</ele><time>2026-04-17T06:55:34Z</time></trkpt><trkpt lat="14.43917075693968" lon="120.89724034628077"><ele>8.0</ele><time>2026-04-17T06:55:35Z</time></trkpt><trkpt lat="14.439123075275516" lon="120.89714055113521"><ele>8.0</ele><time>2026-04-17T06:55:36Z</time></trkpt><trkpt lat="14.439076358279614" lon="120.89704261254698"><ele>8.0</ele><time>2026-04-17T06:55:37Z</time></trkpt><trkpt lat="14.439021566007415" lon="120.89695324523568"><ele>8.0</ele><time>2026-04-17T06:55:38Z</time></trkpt><trkpt lat="14.438970716541165" lon="120.8968444176095"><ele>8.0</ele><time>2026-04-17T06:55:39Z</time></trkpt><trkpt lat="14.438920531712444" lon="120.89675086443144"><ele>8.0</ele><time>2026-04-17T06:55:40Z</time></trkpt><trkpt lat="14.43886036702751" lon="120.89664347315598"><ele>8.0</ele><time>2026-04-17T06:55:41Z</time></trkpt><trkpt lat="14.43880203114113" lon="120.8965413979168"><ele>8.0</ele><time>2026-04-17T06:55:42Z</time></trkpt><trkpt lat="14.43874515556275" lon="120.89643386166402"><ele>8.0</ele><time>2026-04-17T06:55:43Z</time></trkpt><trkpt lat="14.438689759260438" lon="120.89632943209146"><ele>8.0</ele><time>2026-04-17T06:55:44Z</time></trkpt><trkpt lat="14.43862906043831" lon="120.89622095313955"><ele>8.0</ele><time>2026-04-17T06:55:45Z</time></trkpt><trkpt lat="14.438571253357557" lon="120.89610935047125"><ele>8.0</ele><time>2026-04-17T06:55:46Z</time></trkpt><trkpt lat="14.438513574582117" lon="120.89600079294286"><ele>8.0</ele><time>2026-04-17T06:55:47Z</time></trkpt><trkpt lat="14.438452121785026" lon="120.89588815143073"><ele>7.75</ele><time>2026-04-17T06:55:48Z</time></trkpt><trkpt lat="14.438391317643447" lon="120.89576978841936"><ele>7.5</ele><time>2026-04-17T06:55:49Z</time></trkpt><trkpt lat="14.438327761150296" lon="120.89565204065319"><ele>7.25</ele><time>2026-04-17T06:55:50Z</time></trkpt><trkpt lat="14.438282075620304" lon="120.89552672388358"><ele>7.0</ele><time>2026-04-17T06:55:51Z</time></trkpt><trkpt lat="14.438221643722445" lon="120.89540791550414"><ele>7.0</ele><time>2026-04-17T06:55:52Z</time></trkpt><trkpt lat="14.438160376631641" lon="120.89528746515033"><ele>7.0</ele><time>2026-04-17T06:55:53Z</time></trkpt><trkpt lat="14.438101287718068" lon="120.89517129706924"><ele>7.0</ele><time>2026-04-17T06:55:54Z</time></trkpt><trkpt lat="14.438044777644375" lon="120.8950601989413"><ele>7.0</ele><time>2026-04-17T06:55:55Z</time></trkpt><trkpt lat="14.437986742387174" lon="120.89495062753444"><ele>6.8</ele><time>2026-04-17T06:55:56.001Z</time></trkpt><trkpt lat="14.437929504682517" lon="120.8948426406123"><ele>6.6</ele><time>2026-04-17T06:55:57.001Z</time></trkpt><trkpt lat="14.437878937725193" lon="120.89474208207852"><ele>6.3999999999999995</ele><time>2026-04-17T06:55:58.001Z</time></trkpt><trkpt lat="14.43784222349598" lon="120.89464657232777"><ele>6.199999999999999</ele><time>2026-04-17T06:55:59.001Z</time></trkpt><trkpt lat="14.437813070991067" lon="120.89454766291266"><ele>6.0</ele><time>2026-04-17T06:56:00.001Z</time></trkpt><trkpt lat="14.437814933263278" lon="120.89444138686085"><ele>6.0</ele><time>2026-04-17T06:56:01.001Z</time></trkpt><trkpt lat="14.43781604091655" lon="120.89432115453985"><ele>6.0</ele><time>2026-04-17T06:56:02.001Z</time></trkpt><trkpt lat="14.437817242395203" lon="120.8941942257915"><ele>6.0</ele><time>2026-04-17T06:56:03.001Z</time></trkpt><trkpt lat="14.437818416823587" lon="120.89407547310529"><ele>6.0</ele><time>2026-04-17T06:56:04.001Z</time></trkpt><trkpt lat="14.43781952037508" lon="120.89394290941026"><ele>6.0</ele><time>2026-04-17T06:56:05.001Z</time></trkpt><trkpt lat="14.437818847067943" lon="120.89381878209554"><ele>6.0</ele><time>2026-04-17T06:56:06.001Z</time></trkpt><trkpt lat="14.437813747493468" lon="120.89368978794431"><ele>6.0</ele><time>2026-04-17T06:56:07.001Z</time></trkpt><trkpt lat="14.437802746193254" lon="120.8935554718557"><ele>6.0</ele><time>2026-04-17T06:56:08.001Z</time></trkpt><trkpt lat="14.437784399200831" lon="120.89341866481458"><ele>6.0</ele><time>2026-04-17T06:56:09.001Z</time></trkpt><trkpt lat="14.437757238740563" lon="120.89328735687141"><ele>6.0</ele><time>2026-04-17T06:56:10.001Z</time></trkpt><trkpt lat="14.437729913399561" lon="120.89315514832383"><ele>6.0</ele><time>2026-04-17T06:56:11.001Z</time></trkpt><trkpt lat="14.437691441882409" lon="120.89302043207825"><ele>6.0</ele><time>2026-04-17T06:56:12.001Z</time></trkpt><trkpt lat="14.437644819078171" lon="120.89288313511935"><ele>6.0</ele><time>2026-04-17T06:56:13.001Z</time></trkpt><trkpt lat="14.437591228657103" lon="120.89274658299304"><ele>6.0</ele><time>2026-04-17T06:56:14.001Z</time></trkpt><trkpt lat="14.437533574172647" lon="120.89261326855728"><ele>6.0</ele><time>2026-04-17T06:56:15.001Z</time></trkpt><trkpt lat="14.437457432039936" lon="120.89248120636856"><ele>6.0</ele><time>2026-04-17T06:56:16.001Z</time></trkpt><trkpt lat="14.437408664172922" lon="120.89233372701992"><ele>6.0</ele><time>2026-04-17T06:56:17.001Z</time></trkpt><trkpt lat="14.437344222134875" lon="120.8921916894527"><ele>6.0</ele><time>2026-04-17T06:56:18.001Z</time></trkpt><trkpt lat="14.43726668717891" lon="120.89205791927186"><ele>6.0</ele><time>2026-04-17T06:56:19.001Z</time></trkpt><trkpt lat="14.43719517793771" lon="120.8919262221298"><ele>6.0</ele><time>2026-04-17T06:56:20.001Z</time></trkpt><trkpt lat="14.437126363275016" lon="120.89179904084627"><ele>6.5</ele><time>2026-04-17T06:56:21.001Z</time></trkpt><trkpt lat="14.437062932141947" lon="120.89166767495198"><ele>7.0</ele><time>2026-04-17T06:56:22.001Z</time></trkpt><trkpt lat="14.437009819945498" lon="120.8915362175537"><ele>7.5</ele><time>2026-04-17T06:56:23.001Z</time></trkpt><trkpt lat="14.436960946517926" lon="120.8914059724834"><ele>8.0</ele><time>2026-04-17T06:56:24.001Z</time></trkpt><trkpt lat="14.43691709760372" lon="120.89128911749893"><ele>8.0</ele><time>2026-04-17T06:56:25.001Z</time></trkpt><trkpt lat="14.436875187344253" lon="120.89117742890781"><ele>8.0</ele><time>2026-04-17T06:56:26.001Z</time></trkpt><trkpt lat="14.436836191781486" lon="120.89107350783095"><ele>8.0</ele><time>2026-04-17T06:56:27.001Z</time></trkpt><trkpt lat="14.436795127603638" lon="120.8909644031331"><ele>8.0</ele><time>2026-04-17T06:56:28.001Z</time></trkpt><trkpt lat="14.436753368902863" lon="120.89085589479589"><ele>8.25</ele><time>2026-04-17T06:56:29.001Z</time></trkpt><trkpt lat="14.436711423423477" lon="120.89074690112012"><ele>8.5</ele><time>2026-04-17T06:56:30.001Z</time></trkpt><trkpt lat="14.436669080153179" lon="120.89063687379986"><ele>8.75</ele><time>2026-04-17T06:56:31.001Z</time></trkpt><trkpt lat="14.436627345857" lon="120.89052499127096"><ele>9.0</ele><time>2026-04-17T06:56:32.001Z</time></trkpt><trkpt lat="14.436586007855633" lon="120.89040915900546"><ele>9.0</ele><time>2026-04-17T06:56:33.001Z</time></trkpt><trkpt lat="14.436542613829218" lon="120.89028756561127"><ele>9.0</ele><time>2026-04-17T06:56:34.001Z</time></trkpt><trkpt lat="14.436499678250822" lon="120.89016725681196"><ele>9.0</ele><time>2026-04-17T06:56:35.001Z</time></trkpt><trkpt lat="14.436455871353457" lon="120.89004450630317"><ele>9.0</ele><time>2026-04-17T06:56:36.001Z</time></trkpt><trkpt lat="14.436405567711024" lon="120.88992549450882"><ele>8.5</ele><time>2026-04-17T06:56:37.001Z</time></trkpt><trkpt lat="14.436342705189206" lon="120.88981793386854"><ele>8.0</ele><time>2026-04-17T06:56:38.001Z</time></trkpt><trkpt lat="14.436304338990688" lon="120.88969941847039"><ele>7.5</ele><time>2026-04-17T06:56:39.001Z</time></trkpt><trkpt lat="14.436219287528994" lon="120.88959100729723"><ele>7.0</ele><time>2026-04-17T06:56:40.001Z</time></trkpt><trkpt lat="14.436151344090757" lon="120.88948736109214"><ele>7.0</ele><time>2026-04-17T06:56:41.001Z</time></trkpt><trkpt lat="14.436066554192506" lon="120.88938256201759"><ele>7.0</ele><time>2026-04-17T06:56:42Z</time></trkpt><trkpt lat="14.43597427018574" lon="120.88928465653787"><ele>7.0</ele><time>2026-04-17T06:56:43Z</time></trkpt><trkpt lat="14.435885623703646" lon="120.88920238301613"><ele>7.0</ele><time>2026-04-17T06:56:44Z</time></trkpt><trkpt lat="14.435807761676726" lon="120.88913587512405"><ele>7.000000000000001</ele><time>2026-04-17T06:56:45Z</time></trkpt><trkpt lat="14.435735614489762" lon="120.88907084450413"><ele>7.0</ele><time>2026-04-17T06:56:46Z</time></trkpt><trkpt lat="14.435677369126621" lon="120.88901324490213"><ele>7.0</ele><time>2026-04-17T06:56:47Z</time></trkpt><trkpt lat="14.435610382210106" lon="120.88895235805272"><ele>7.0</ele><time>2026-04-17T06:56:52Z</time></trkpt><trkpt lat="14.43555175340839" lon="120.88889115054947"><ele>7.000000000000001</ele><time>2026-04-17T06:56:54Z</time></trkpt><trkpt lat="14.435501193289221" lon="120.8888406772751"><ele>7.0</ele><time>2026-04-17T06:56:56Z</time></trkpt><trkpt lat="14.435393026631237" lon="120.88876007261382"><ele>7.166666666666667</ele><time>2026-04-17T06:56:58Z</time></trkpt><trkpt lat="14.435328307939324" lon="120.88871024332086"><ele>7.333333333333334</ele><time>2026-04-17T06:56:59Z</time></trkpt><trkpt lat="14.435262541957826" lon="120.8886533962689"><ele>7.5</ele><time>2026-04-17T06:57:00Z</time></trkpt><trkpt lat="14.43519486429932" lon="120.88859279635282"><ele>7.666666666666666</ele><time>2026-04-17T06:57:01Z</time></trkpt><trkpt lat="14.435118873758183" lon="120.88853199042636"><ele>7.833333333333333</ele><time>2026-04-17T06:57:02Z</time></trkpt><trkpt lat="14.435055253532049" lon="120.88847953031215"><ele>8.0</ele><time>2026-04-17T06:57:03Z</time></trkpt><trkpt lat="14.434995524529313" lon="120.88842869592231"><ele>7.999999999999999</ele><time>2026-04-17T06:57:04Z</time></trkpt><trkpt lat="14.434938989149643" lon="120.8883754855213"><ele>8.0</ele><time>2026-04-17T06:57:05Z</time></trkpt><trkpt lat="14.434881125986973" lon="120.88832364428707"><ele>8.0</ele><time>2026-04-17T06:57:07Z</time></trkpt><trkpt lat="14.43482413676734" lon="120.88828597046458"><ele>8.0</ele><time>2026-04-17T06:57:10Z</time></trkpt><trkpt lat="14.434761867970213" lon="120.88823098126444"><ele>7.999999999999999</ele><time>2026-04-17T06:57:13Z</time></trkpt><trkpt lat="14.434679701157274" lon="120.8881692933685"><ele>8.0</ele><time>2026-04-17T06:57:15Z</time></trkpt><trkpt lat="14.434582254519507" lon="120.88808667904354"><ele>7.999999999999999</ele><time>2026-04-17T06:57:17Z</time></trkpt><trkpt lat="14.434533409252413" lon="120.8880421031304"><ele>8.0</ele><time>2026-04-17T06:57:18Z</time></trkpt><trkpt lat="14.434473596320338" lon="120.88799097305974"><ele>8.0</ele><time>2026-04-17T06:57:19Z</time></trkpt><trkpt lat="14.434412554334152" lon="120.88794004508233"><ele>8.0</ele><time>2026-04-17T06:57:20Z</time></trkpt><trkpt lat="14.434347433983598" lon="120.88788541329221"><ele>7.999999999999999</ele><time>2026-04-17T06:57:21Z</time></trkpt><trkpt lat="14.434280069273498" lon="120.88782690427942"><ele>8.0</ele><time>2026-04-17T06:57:22Z</time></trkpt><trkpt lat="14.434219365178388" lon="120.88777424508254"><ele>7.999999999999999</ele><time>2026-04-17T06:57:23Z</time></trkpt><trkpt lat="14.434160389922768" lon="120.88772389155005"><ele>8.0</ele><time>2026-04-17T06:57:24Z</time></trkpt><trkpt lat="14.434110653436388" lon="120.88767976103543"><ele>8.0</ele><time>2026-04-17T06:57:25Z</time></trkpt><trkpt lat="14.434032466934237" lon="120.88759986352463"><ele>8.0</ele><time>2026-04-17T06:57:27Z</time></trkpt><trkpt lat="14.433970574950754" lon="120.88754422134792"><ele>7.999999999999999</ele><time>2026-04-17T06:57:29Z</time></trkpt><trkpt lat="14.433916004631515" lon="120.8874915024505"><ele>8.0</ele><time>2026-04-17T06:57:31Z</time></trkpt><trkpt lat="14.4338586668962" lon="120.88743857950112"><ele>7.833333333333333</ele><time>2026-04-17T06:57:33Z</time></trkpt><trkpt lat="14.433793459400139" lon="120.88737913893368"><ele>7.666666666666666</ele><time>2026-04-17T06:57:35Z</time></trkpt><trkpt lat="14.433743964149775" lon="120.88732416156067"><ele>7.5</ele><time>2026-04-17T06:57:37Z</time></trkpt><trkpt lat="14.433698013193402" lon="120.8872759060837"><ele>7.333333333333334</ele><time>2026-04-17T06:57:39Z</time></trkpt><trkpt lat="14.433634835205455" lon="120.88721672354104"><ele>7.166666666666667</ele><time>2026-04-17T06:57:41Z</time></trkpt><trkpt lat="14.43357331604051" lon="120.88715606751136"><ele>7.0</ele><time>2026-04-17T06:57:43Z</time></trkpt><trkpt lat="14.433500454306216" lon="120.88709236722238"><ele>7.0</ele><time>2026-04-17T06:57:45.001Z</time></trkpt><trkpt lat="14.433421127172902" lon="120.88699124068854"><ele>6.999999999999999</ele><time>2026-04-17T06:57:47.001Z</time></trkpt><trkpt lat="14.433370497097476" lon="120.88693895505172"><ele>6.999999999999999</ele><time>2026-04-17T06:57:48.001Z</time></trkpt><trkpt lat="14.433313595602051" lon="120.88688019292285"><ele>7.0</ele><time>2026-04-17T06:57:49.001Z</time></trkpt><trkpt lat="14.43324855614166" lon="120.8868339567772"><ele>7.0</ele><time>2026-04-17T06:57:50.001Z</time></trkpt><trkpt lat="14.433190762244154" lon="120.886751243136"><ele>6.833333333333334</ele><time>2026-04-17T06:57:51.001Z</time></trkpt><trkpt lat="14.433120708025337" lon="120.8866989889414"><ele>6.666666666666667</ele><time>2026-04-17T06:57:52.001Z</time></trkpt><trkpt lat="14.433070320139274" lon="120.88662035245505"><ele>6.5</ele><time>2026-04-17T06:57:53.001Z</time></trkpt><trkpt lat="14.433009750442272" lon="120.88655452822722"><ele>6.333333333333334</ele><time>2026-04-17T06:57:54.001Z</time></trkpt><trkpt lat="14.432947540203699" lon="120.8864869211307"><ele>6.166666666666667</ele><time>2026-04-17T06:57:55.001Z</time></trkpt><trkpt lat="14.432885550838492" lon="120.88641781766694"><ele>6.0</ele><time>2026-04-17T06:57:56.001Z</time></trkpt><trkpt lat="14.432827058538308" lon="120.88635208556792"><ele>6.0</ele><time>2026-04-17T06:57:57.001Z</time></trkpt><trkpt lat="14.43277245361325" lon="120.88629072200033"><ele>6.0</ele><time>2026-04-17T06:57:58.001Z</time></trkpt><trkpt lat="14.432721592765544" lon="120.88623356592517"><ele>6.0</ele><time>2026-04-17T06:57:59.001Z</time></trkpt><trkpt lat="14.432654424953125" lon="120.88615808449215"><ele>6.0</ele><time>2026-04-17T06:58:01.001Z</time></trkpt><trkpt lat="14.432593282868966" lon="120.88608937463967"><ele>6.0</ele><time>2026-04-17T06:58:03.001Z</time></trkpt><trkpt lat="14.432509031710442" lon="120.88601453730077"><ele>6.0</ele><time>2026-04-17T06:58:05.001Z</time></trkpt><trkpt lat="14.432453068336953" lon="120.8859419931077"><ele>6.0</ele><time>2026-04-17T06:58:07.001Z</time></trkpt><trkpt lat="14.432405111409183" lon="120.8858815309611"><ele>6.0</ele><time>2026-04-17T06:58:09.001Z</time></trkpt><trkpt lat="14.432346317532494" lon="120.88581755854885"><ele>6.0</ele><time>2026-04-17T06:58:11.001Z</time></trkpt><trkpt lat="14.43226689774172" lon="120.88573582990907"><ele>6.0</ele><time>2026-04-17T06:58:13.001Z</time></trkpt><trkpt lat="14.432216808281186" lon="120.88568783753863"><ele>6.0</ele><time>2026-04-17T06:58:14.001Z</time></trkpt><trkpt lat="14.432165803130916" lon="120.88563743266877"><ele>6.333333333333333</ele><time>2026-04-17T06:58:15.001Z</time></trkpt><trkpt lat="14.432136674632613" lon="120.88557884082451"><ele>6.666666666666666</ele><time>2026-04-17T06:58:16.001Z</time></trkpt><trkpt lat="14.43205584444785" lon="120.8854856486061"><ele>7.0</ele><time>2026-04-17T06:58:18.001Z</time></trkpt><trkpt lat="14.431982251225765" lon="120.88540080017147"><ele>7.333333333333333</ele><time>2026-04-17T06:58:20.001Z</time></trkpt><trkpt lat="14.431928937411532" lon="120.88533933264961"><ele>7.666666666666666</ele><time>2026-04-17T06:58:22.001Z</time></trkpt><trkpt lat="14.431882873953153" lon="120.8852862243199"><ele>8.0</ele><time>2026-04-17T06:58:28.001Z</time></trkpt><trkpt lat="14.431825033880532" lon="120.88521888297524"><ele>7.999999999999999</ele><time>2026-04-17T06:58:30.001Z</time></trkpt><trkpt lat="14.431779808685116" lon="120.88516746449868"><ele>8.0</ele><time>2026-04-17T06:58:31.001Z</time></trkpt><trkpt lat="14.431728139823063" lon="120.88510850775151"><ele>8.0</ele><time>2026-04-17T06:58:32.001Z</time></trkpt><trkpt lat="14.431668952242" lon="120.88504097176789"><ele>8.0</ele><time>2026-04-17T06:58:33.001Z</time></trkpt><trkpt lat="14.431601652398347" lon="120.88496417931974"><ele>7.999999999999999</ele><time>2026-04-17T06:58:34.001Z</time></trkpt><trkpt lat="14.431529647448318" lon="120.88488201807591"><ele>8.0</ele><time>2026-04-17T06:58:35.001Z</time></trkpt><trkpt lat="14.43145489899589" lon="120.8847967263356"><ele>8.5</ele><time>2026-04-17T06:58:36.001Z</time></trkpt><trkpt lat="14.431372799570616" lon="120.88470601827972"><ele>9.0</ele><time>2026-04-17T06:58:37.001Z</time></trkpt><trkpt lat="14.431288509538003" lon="120.88461272640127"><ele>9.5</ele><time>2026-04-17T06:58:38.001Z</time></trkpt><trkpt lat="14.431202648006831" lon="120.8845176951882"><ele>10.0</ele><time>2026-04-17T06:58:39.001Z</time></trkpt><trkpt lat="14.431110281362635" lon="120.88441546413839"><ele>10.0</ele><time>2026-04-17T06:58:40.001Z</time></trkpt><trkpt lat="14.431013901227454" lon="120.88430879092883"><ele>10.0</ele><time>2026-04-17T06:58:41.001Z</time></trkpt><trkpt lat="14.430914982074736" lon="120.88419950047866"><ele>10.0</ele><time>2026-04-17T06:58:42.001Z</time></trkpt><trkpt lat="14.430807742644053" lon="120.88409044262816"><ele>10.0</ele><time>2026-04-17T06:58:43.001Z</time></trkpt><trkpt lat="14.430706366207282" lon="120.88398724553144"><ele>9.75</ele><time>2026-04-17T06:58:44.001Z</time></trkpt><trkpt lat="14.430597749335645" lon="120.8838900045001"><ele>9.5</ele><time>2026-04-17T06:58:45.001Z</time></trkpt><trkpt lat="14.43051056833287" lon="120.88378692728685"><ele>9.25</ele><time>2026-04-17T06:58:46.001Z</time></trkpt><trkpt lat="14.430429517133055" lon="120.88369901531705"><ele>9.0</ele><time>2026-04-17T06:58:47.001Z</time></trkpt><trkpt lat="14.430347463565981" lon="120.88360828558504"><ele>9.0</ele><time>2026-04-17T06:58:48Z</time></trkpt><trkpt lat="14.43026636242916" lon="120.88351369881083"><ele>9.0</ele><time>2026-04-17T06:58:49Z</time></trkpt><trkpt lat="14.430182646114528" lon="120.8834196108929"><ele>9.0</ele><time>2026-04-17T06:58:50Z</time></trkpt><trkpt lat="14.430093919680997" lon="120.88332556553807"><ele>9.0</ele><time>2026-04-17T06:58:51Z</time></trkpt><trkpt lat="14.430007459949394" lon="120.88323015556489"><ele>9.0</ele><time>2026-04-17T06:58:52Z</time></trkpt><trkpt lat="14.42991758643047" lon="120.88313125638594"><ele>9.0</ele><time>2026-04-17T06:58:53Z</time></trkpt><trkpt lat="14.429831570822296" lon="120.88303499661126"><ele>9.0</ele><time>2026-04-17T06:58:54Z</time></trkpt><trkpt lat="14.429751785307062" lon="120.88294777981818"><ele>9.0</ele><time>2026-04-17T06:58:55Z</time></trkpt><trkpt lat="14.42968142881943" lon="120.88286268512617"><ele>8.75</ele><time>2026-04-17T06:58:56Z</time></trkpt><trkpt lat="14.429617228907745" lon="120.88277897106373"><ele>8.5</ele><time>2026-04-17T06:58:57Z</time></trkpt><trkpt lat="14.429551333284598" lon="120.88270159096483"><ele>8.25</ele><time>2026-04-17T06:58:58Z</time></trkpt><trkpt lat="14.429474153176441" lon="120.88260177614225"><ele>8.0</ele><time>2026-04-17T06:58:59Z</time></trkpt><trkpt lat="14.429381230684353" lon="120.8825063906337"><ele>8.4</ele><time>2026-04-17T06:59:00Z</time></trkpt><trkpt lat="14.429303058704058" lon="120.88241421030048"><ele>8.8</ele><time>2026-04-17T06:59:01Z</time></trkpt><trkpt lat="14.42922111534018" lon="120.8823388733326"><ele>9.2</ele><time>2026-04-17T06:59:02Z</time></trkpt><trkpt lat="14.429166515076886" lon="120.88225756133735"><ele>9.6</ele><time>2026-04-17T06:59:03Z</time></trkpt><trkpt lat="14.429109658945885" lon="120.88219293414137"><ele>10.0</ele><time>2026-04-17T06:59:04Z</time></trkpt><trkpt lat="14.429058068122979" lon="120.88213325918483"><ele>10.0</ele><time>2026-04-17T06:59:05Z</time></trkpt><trkpt lat="14.429001960288453" lon="120.88206863757604"><ele>10.0</ele><time>2026-04-17T06:59:06Z</time></trkpt><trkpt lat="14.428937941927298" lon="120.88199568805874"><ele>10.0</ele><time>2026-04-17T06:59:07Z</time></trkpt><trkpt lat="14.428862235215037" lon="120.88190959937945"><ele>10.0</ele><time>2026-04-17T06:59:08Z</time></trkpt><trkpt lat="14.42877635347853" lon="120.88181183103075"><ele>10.0</ele><time>2026-04-17T06:59:09Z</time></trkpt><trkpt lat="14.428693743282423" lon="120.88171778638792"><ele>10.0</ele><time>2026-04-17T06:59:10Z</time></trkpt><trkpt lat="14.4286118184274" lon="120.88162452194862"><ele>10.0</ele><time>2026-04-17T06:59:11Z</time></trkpt><trkpt lat="14.428541204567441" lon="120.8815441341123"><ele>10.0</ele><time>2026-04-17T06:59:12Z</time></trkpt><trkpt lat="14.42847174318161" lon="120.88146505826036"><ele>10.0</ele><time>2026-04-17T06:59:13Z</time></trkpt><trkpt lat="14.428400528073695" lon="120.88138430085672"><ele>10.0</ele><time>2026-04-17T06:59:14Z</time></trkpt><trkpt lat="14.428327046352099" lon="120.88129966347229"><ele>10.0</ele><time>2026-04-17T06:59:15Z</time></trkpt><trkpt lat="14.428256661144353" lon="120.88121886648695"><ele>10.0</ele><time>2026-04-17T06:59:16Z</time></trkpt><trkpt lat="14.428185444364129" lon="120.88113962684797"><ele>10.0</ele><time>2026-04-17T06:59:17Z</time></trkpt><trkpt lat="14.428125377416231" lon="120.88107096562376"><ele>10.0</ele><time>2026-04-17T06:59:18Z</time></trkpt><trkpt lat="14.428072864893343" lon="120.88101093967559"><ele>10.0</ele><time>2026-04-17T06:59:19Z</time></trkpt><trkpt lat="14.42802046270051" lon="120.880951039866"><ele>10.0</ele><time>2026-04-17T06:59:20Z</time></trkpt><trkpt lat="14.427973332193268" lon="120.88089606376037"><ele>10.0</ele><time>2026-04-17T06:59:21Z</time></trkpt><trkpt lat="14.427986054690729" lon="120.8808249459486"><ele>10.0</ele><time>2026-04-17T06:59:22Z</time></trkpt><trkpt lat="14.427978761908717" lon="120.8807545769935"><ele>10.0</ele><time>2026-04-17T06:59:23Z</time></trkpt><trkpt lat="14.427971257249935" lon="120.88068216361395"><ele>10.0</ele><time>2026-04-17T06:59:24Z</time></trkpt><trkpt lat="14.42794793988633" lon="120.88059973096524"><ele>10.0</ele><time>2026-04-17T06:59:25Z</time></trkpt><trkpt lat="14.427942482498674" lon="120.88051815455752"><ele>10.0</ele><time>2026-04-17T06:59:26Z</time></trkpt><trkpt lat="14.427934348701946" lon="120.88042982204902"><ele>9.833333333333334</ele><time>2026-04-17T06:59:27Z</time></trkpt><trkpt lat="14.42793934824272" lon="120.8803586462911"><ele>9.666666666666668</ele><time>2026-04-17T06:59:28Z</time></trkpt><trkpt lat="14.427932670922397" lon="120.88029266688979"><ele>9.5</ele><time>2026-04-17T06:59:29Z</time></trkpt><trkpt lat="14.427925622970092" lon="120.88022302523544"><ele>9.333333333333334</ele><time>2026-04-17T06:59:30Z</time></trkpt><trkpt lat="14.427933030195872" lon="120.88011443792267"><ele>9.166666666666666</ele><time>2026-04-17T06:59:32Z</time></trkpt><trkpt lat="14.428023532218416" lon="120.88004160697875"><ele>9.0</ele><time>2026-04-17T06:59:34Z</time></trkpt><trkpt lat="14.428083270497416" lon="120.88001431641779"><ele>9.0</ele><time>2026-04-17T06:59:36Z</time></trkpt><trkpt lat="14.42815455310653" lon="120.87996959878492"><ele>9.0</ele><time>2026-04-17T06:59:37Z</time></trkpt><trkpt lat="14.428216799711599" lon="120.87993456568712"><ele>9.0</ele><time>2026-04-17T06:59:38Z</time></trkpt><trkpt lat="14.428309888242495" lon="120.87989420995991"><ele>9.0</ele><time>2026-04-17T06:59:40Z</time></trkpt><trkpt lat="14.428409196721953" lon="120.87984651481729"><ele>9.0</ele><time>2026-04-17T06:59:42.001Z</time></trkpt><trkpt lat="14.428510751225586" lon="120.8798037693272"><ele>9.0</ele><time>2026-04-17T06:59:44.001Z</time></trkpt><trkpt lat="14.428623945617728" lon="120.87974998783976"><ele>9.0</ele><time>2026-04-17T06:59:46.001Z</time></trkpt><trkpt lat="14.428719475130976" lon="120.87970828742732"><ele>9.0</ele><time>2026-04-17T06:59:48.001Z</time></trkpt><trkpt lat="14.428819125417066" lon="120.87966185707315"><ele>9.0</ele><time>2026-04-17T06:59:50.001Z</time></trkpt><trkpt lat="14.428882707315696" lon="120.87965260448937"><ele>9.0</ele><time>2026-04-17T06:59:52.001Z</time></trkpt><trkpt lat="14.428944512862307" lon="120.87962795221696"><ele>9.0</ele><time>2026-04-17T06:59:54.001Z</time></trkpt><trkpt lat="14.429038107995195" lon="120.87959192128808"><ele>9.0</ele><time>2026-04-17T06:59:56.001Z</time></trkpt><trkpt lat="14.429105562022894" lon="120.87956595379461"><ele>9.0</ele><time>2026-04-17T06:59:57.001Z</time></trkpt><trkpt lat="14.429245633113407" lon="120.87951927219697"><ele>9.0</ele><time>2026-04-17T06:59:59.001Z</time></trkpt><trkpt lat="14.42932269405157" lon="120.87948506183913"><ele>9.0</ele><time>2026-04-17T07:00:00.001Z</time></trkpt><trkpt lat="14.429419222190647" lon="120.8794563867053"><ele>9.0</ele><time>2026-04-17T07:00:01.001Z</time></trkpt><trkpt lat="14.429511306393977" lon="120.87943211840735"><ele>9.0</ele><time>2026-04-17T07:00:02.001Z</time></trkpt><trkpt lat="14.429610801795908" lon="120.87940971815712"><ele>9.0</ele><time>2026-04-17T07:00:03.001Z</time></trkpt><trkpt lat="14.429712247300515" lon="120.87938447244795"><ele>9.0</ele><time>2026-04-17T07:00:04.001Z</time></trkpt><trkpt lat="14.429803235654163" lon="120.87936341904295"><ele>9.0</ele><time>2026-04-17T07:00:05.001Z</time></trkpt><trkpt lat="14.429890357827801" lon="120.87934058179698"><ele>9.0</ele><time>2026-04-17T07:00:06.001Z</time></trkpt><trkpt lat="14.429987512180903" lon="120.87931431817424"><ele>9.0</ele><time>2026-04-17T07:00:07.001Z</time></trkpt><trkpt lat="14.430083156442757" lon="120.87929016697885"><ele>9.0</ele><time>2026-04-17T07:00:08.001Z</time></trkpt><trkpt lat="14.430192767328323" lon="120.8792802809125"><ele>9.0</ele><time>2026-04-17T07:00:09.001Z</time></trkpt><trkpt lat="14.430285635148342" lon="120.87925744907817"><ele>9.0</ele><time>2026-04-17T07:00:10.001Z</time></trkpt><trkpt lat="14.430388594581935" lon="120.87923193061762"><ele>8.833333333333334</ele><time>2026-04-17T07:00:11.001Z</time></trkpt><trkpt lat="14.43048663944246" lon="120.8792076302369"><ele>8.666666666666666</ele><time>2026-04-17T07:00:12.001Z</time></trkpt><trkpt lat="14.430570965333912" lon="120.87918673009747"><ele>8.5</ele><time>2026-04-17T07:00:13.001Z</time></trkpt><trkpt lat="14.430648019353134" lon="120.87916763228664"><ele>8.333333333333332</ele><time>2026-04-17T07:00:14.001Z</time></trkpt><trkpt lat="14.430731306665885" lon="120.87914698955748"><ele>8.166666666666666</ele><time>2026-04-17T07:00:15.001Z</time></trkpt><trkpt lat="14.43081152345458" lon="120.87912710785508"><ele>8.0</ele><time>2026-04-17T07:00:16.001Z</time></trkpt><trkpt lat="14.430890145641587" lon="120.87910762137372"><ele>8.0</ele><time>2026-04-17T07:00:17.001Z</time></trkpt><trkpt lat="14.430958043086695" lon="120.8790907930161"><ele>8.0</ele><time>2026-04-17T07:00:18.001Z</time></trkpt><trkpt lat="14.431054055417185" lon="120.87906699639649"><ele>8.0</ele><time>2026-04-17T07:00:20.001Z</time></trkpt><trkpt lat="14.431132889478604" lon="120.87904745740039"><ele>8.0</ele><time>2026-04-17T07:00:22.001Z</time></trkpt><trkpt lat="14.431232441919423" lon="120.87899736796383"><ele>8.0</ele><time>2026-04-17T07:00:24.001Z</time></trkpt><trkpt lat="14.431325252115363" lon="120.87897406471309"><ele>7.6000000000000005</ele><time>2026-04-17T07:00:26.001Z</time></trkpt><trkpt lat="14.43145380788546" lon="120.87894436089346"><ele>7.200000000000001</ele><time>2026-04-17T07:00:28.001Z</time></trkpt><trkpt lat="14.431529247713751" lon="120.87894655840886"><ele>6.8</ele><time>2026-04-17T07:00:29.001Z</time></trkpt><trkpt lat="14.431601829137136" lon="120.87892758081226"><ele>6.4</ele><time>2026-04-17T07:00:30.001Z</time></trkpt><trkpt lat="14.43166983218424" lon="120.8789115426352"><ele>6.0</ele><time>2026-04-17T07:00:31.001Z</time></trkpt><trkpt lat="14.431781271426185" lon="120.87888409066852"><ele>6.0</ele><time>2026-04-17T07:00:33.001Z</time></trkpt><trkpt lat="14.431902466285804" lon="120.87885565368046"><ele>6.0</ele><time>2026-04-17T07:00:35.001Z</time></trkpt><trkpt lat="14.432014071592759" lon="120.87882951877057"><ele>6.0</ele><time>2026-04-17T07:00:37.001Z</time></trkpt><trkpt lat="14.432117761067067" lon="120.87880523753253"><ele>6.0</ele><time>2026-04-17T07:00:39.001Z</time></trkpt><trkpt lat="14.432233124279968" lon="120.87877822262737"><ele>6.0</ele><time>2026-04-17T07:00:41.001Z</time></trkpt><trkpt lat="14.432296590041714" lon="120.87876336068558"><ele>6.0</ele><time>2026-04-17T07:00:42.001Z</time></trkpt><trkpt lat="14.43240657476967" lon="120.87873760527086"><ele>6.0</ele><time>2026-04-17T07:00:44.001Z</time></trkpt><trkpt lat="14.432501320601247" lon="120.87871541838882"><ele>6.0</ele><time>2026-04-17T07:00:46.001Z</time></trkpt><trkpt lat="14.432600142593776" lon="120.87869227698533"><ele>6.0</ele><time>2026-04-17T07:00:48.001Z</time></trkpt><trkpt lat="14.432726819527486" lon="120.87866261271135"><ele>6.0</ele><time>2026-04-17T07:00:50.001Z</time></trkpt><trkpt lat="14.432804391025734" lon="120.87864444759175"><ele>6.0</ele><time>2026-04-17T07:00:51.001Z</time></trkpt><trkpt lat="14.432877255491867" lon="120.87862738472472"><ele>6.0</ele><time>2026-04-17T07:00:52.001Z</time></trkpt><trkpt lat="14.432951305644535" lon="120.87861004420598"><ele>6.0</ele><time>2026-04-17T07:00:53.001Z</time></trkpt><trkpt lat="14.433013259971515" lon="120.87859553619603"><ele>6.0</ele><time>2026-04-17T07:00:54Z</time></trkpt><trkpt lat="14.43312183524952" lon="120.87856572636761"><ele>6.0</ele><time>2026-04-17T07:00:56Z</time></trkpt><trkpt lat="14.433187987035403" lon="120.87854713886398"><ele>6.0</ele><time>2026-04-17T07:00:57Z</time></trkpt><trkpt lat="14.433288246551424" lon="120.87851896767587"><ele>6.0</ele><time>2026-04-17T07:00:59Z</time></trkpt><trkpt lat="14.433369151533455" lon="120.87849623477922"><ele>6.0</ele><time>2026-04-17T07:01:01Z</time></trkpt><trkpt lat="14.433469183061044" lon="120.87846812765167"><ele>6.0</ele><time>2026-04-17T07:01:03Z</time></trkpt><trkpt lat="14.433568617132472" lon="120.87844018840136"><ele>6.0</ele><time>2026-04-17T07:01:05Z</time></trkpt><trkpt lat="14.43365573044228" lon="120.87841571107151"><ele>6.0</ele><time>2026-04-17T07:01:07Z</time></trkpt><trkpt lat="14.433754274827194" lon="120.87838802180221"><ele>6.0</ele><time>2026-04-17T07:01:09Z</time></trkpt><trkpt lat="14.433841243326011" lon="120.87836358516111"><ele>6.0</ele><time>2026-04-17T07:01:11Z</time></trkpt><trkpt lat="14.433931623278168" lon="120.87833818996701"><ele>6.0</ele><time>2026-04-17T07:01:13Z</time></trkpt><trkpt lat="14.433999507186996" lon="120.87831911604525"><ele>6.0</ele><time>2026-04-17T07:01:15Z</time></trkpt><trkpt lat="14.434073940713022" lon="120.87830466008083"><ele>6.0</ele><time>2026-04-17T07:01:17Z</time></trkpt><trkpt lat="14.434154576990483" lon="120.87828379586855"><ele>6.166666666666667</ele><time>2026-04-17T07:01:19Z</time></trkpt><trkpt lat="14.434230972000707" lon="120.8782640290662"><ele>6.333333333333334</ele><time>2026-04-17T07:01:21Z</time></trkpt><trkpt lat="14.43430261663101" lon="120.87824549139789"><ele>6.5</ele><time>2026-04-17T07:01:23Z</time></trkpt><trkpt lat="14.434373098659991" lon="120.87822725454951"><ele>6.666666666666667</ele><time>2026-04-17T07:01:25Z</time></trkpt><trkpt lat="14.43445755077395" lon="120.87820540302043"><ele>6.833333333333334</ele><time>2026-04-17T07:01:27Z</time></trkpt><trkpt lat="14.434536256868979" lon="120.8781850382273"><ele>7.0</ele><time>2026-04-17T07:01:29Z</time></trkpt><trkpt lat="14.434630955191965" lon="120.87816053553944"><ele>7.0</ele><time>2026-04-17T07:01:31Z</time></trkpt><trkpt lat="14.434715963377682" lon="120.87813842341174"><ele>6.999999999999999</ele><time>2026-04-17T07:01:33Z</time></trkpt><trkpt lat="14.434823143722005" lon="120.87811029454957"><ele>6.999999999999999</ele><time>2026-04-17T07:01:35Z</time></trkpt><trkpt lat="14.434896506790645" lon="120.87808895701114"><ele>7.0</ele><time>2026-04-17T07:01:36Z</time></trkpt><trkpt lat="14.434986250515347" lon="120.87806724799367"><ele>7.0</ele><time>2026-04-17T07:01:37Z</time></trkpt><trkpt lat="14.435068950971633" lon="120.87804724274578"><ele>7.000000000000001</ele><time>2026-04-17T07:01:38Z</time></trkpt><trkpt lat="14.435153189527691" lon="120.87802686542715"><ele>7.0</ele><time>2026-04-17T07:01:39Z</time></trkpt><trkpt lat="14.435266448853223" lon="120.87799952416827"><ele>7.0</ele><time>2026-04-17T07:01:40Z</time></trkpt><trkpt lat="14.435350676952067" lon="120.87797937227008"><ele>7.0</ele><time>2026-04-17T07:01:41Z</time></trkpt><trkpt lat="14.435425206709096" lon="120.87796135312642"><ele>7.000000000000001</ele><time>2026-04-17T07:01:42Z</time></trkpt><trkpt lat="14.435493051110493" lon="120.87794489654382"><ele>7.0</ele><time>2026-04-17T07:01:43Z</time></trkpt><trkpt lat="14.435557509374858" lon="120.87792926131242"><ele>7.000000000000001</ele><time>2026-04-17T07:01:44Z</time></trkpt><trkpt lat="14.435624211050907" lon="120.87791308190846"><ele>7.0</ele><time>2026-04-17T07:01:45.001Z</time></trkpt><trkpt lat="14.435692720223258" lon="120.87789646407514"><ele>7.0</ele><time>2026-04-17T07:01:46.001Z</time></trkpt><trkpt lat="14.435767429094195" lon="120.8778784319739"><ele>7.0</ele><time>2026-04-17T07:01:47.001Z</time></trkpt><trkpt lat="14.435843265861916" lon="120.87786013003587"><ele>7.000000000000001</ele><time>2026-04-17T07:01:48.001Z</time></trkpt><trkpt lat="14.435924653532505" lon="120.877840488478"><ele>7.0</ele><time>2026-04-17T07:01:49.001Z</time></trkpt><trkpt lat="14.436010774515731" lon="120.87781968037375"><ele>7.0</ele><time>2026-04-17T07:01:50.001Z</time></trkpt><trkpt lat="14.43610683267649" lon="120.87779579438828"><ele>6.999999999999999</ele><time>2026-04-17T07:01:51.001Z</time></trkpt><trkpt lat="14.436207000630727" lon="120.8777713898321"><ele>6.999999999999999</ele><time>2026-04-17T07:01:52.001Z</time></trkpt><trkpt lat="14.436304646815223" lon="120.87774759962483"><ele>7.0</ele><time>2026-04-17T07:01:53.001Z</time></trkpt><trkpt lat="14.436396306945646" lon="120.87773021791229"><ele>7.0</ele><time>2026-04-17T07:01:54.001Z</time></trkpt><trkpt lat="14.436486503584531" lon="120.87771144296123"><ele>6.8</ele><time>2026-04-17T07:01:55.001Z</time></trkpt><trkpt lat="14.436578770201661" lon="120.8776922371269"><ele>6.6</ele><time>2026-04-17T07:01:56.001Z</time></trkpt><trkpt lat="14.436670102081887" lon="120.87768359636293"><ele>6.3999999999999995</ele><time>2026-04-17T07:01:57.001Z</time></trkpt><trkpt lat="14.43676531013709" lon="120.87767526952886"><ele>6.199999999999999</ele><time>2026-04-17T07:01:58.001Z</time></trkpt><trkpt lat="14.436860351817312" lon="120.87766695724606"><ele>6.0</ele><time>2026-04-17T07:01:59.001Z</time></trkpt><trkpt lat="14.436956854640052" lon="120.87766657339043"><ele>6.0</ele><time>2026-04-17T07:02:00.001Z</time></trkpt><trkpt lat="14.437058833969832" lon="120.87767028172962"><ele>6.0</ele><time>2026-04-17T07:02:01.001Z</time></trkpt><trkpt lat="14.437148992912265" lon="120.877677957437"><ele>6.0</ele><time>2026-04-17T07:02:02.001Z</time></trkpt><trkpt lat="14.437257390199383" lon="120.87768902200786"><ele>6.0</ele><time>2026-04-17T07:02:03.001Z</time></trkpt><trkpt lat="14.437366366698992" lon="120.87771341667447"><ele>6.0</ele><time>2026-04-17T07:02:04.001Z</time></trkpt><trkpt lat="14.437477291943292" lon="120.87774373537083"><ele>6.0</ele><time>2026-04-17T07:02:05.001Z</time></trkpt><trkpt lat="14.437594432739532" lon="120.87777728470228"><ele>6.0</ele><time>2026-04-17T07:02:06.001Z</time></trkpt><trkpt lat="14.4377074732149" lon="120.8778067815266"><ele>6.0</ele><time>2026-04-17T07:02:07.001Z</time></trkpt><trkpt lat="14.43781486775999" lon="120.87784046076378"><ele>6.0</ele><time>2026-04-17T07:02:08.001Z</time></trkpt><trkpt lat="14.437908328759006" lon="120.87787245255683"><ele>6.0</ele><time>2026-04-17T07:02:09.001Z</time></trkpt><trkpt lat="14.437990186293485" lon="120.8779011128389"><ele>6.0</ele><time>2026-04-17T07:02:10.001Z</time></trkpt><trkpt lat="14.438076518607138" lon="120.87793133985015"><ele>6.0</ele><time>2026-04-17T07:02:11.001Z</time></trkpt><trkpt lat="14.438171340428495" lon="120.8779645392473"><ele>6.0</ele><time>2026-04-17T07:02:12.001Z</time></trkpt><trkpt lat="14.438271393814327" lon="120.87799957033184"><ele>6.0</ele><time>2026-04-17T07:02:13.001Z</time></trkpt><trkpt lat="14.438380905331224" lon="120.87803791294247"><ele>6.0</ele><time>2026-04-17T07:02:14.001Z</time></trkpt><trkpt lat="14.43849233342344" lon="120.87807692658589"><ele>6.0</ele><time>2026-04-17T07:02:15.001Z</time></trkpt><trkpt lat="14.438599560003178" lon="120.87811444238183"><ele>6.0</ele><time>2026-04-17T07:02:16.001Z</time></trkpt><trkpt lat="14.438700898204278" lon="120.87815023489135"><ele>6.0</ele><time>2026-04-17T07:02:17.001Z</time></trkpt><trkpt lat="14.438789536217826" lon="120.87818105591236"><ele>6.0</ele><time>2026-04-17T07:02:18.001Z</time></trkpt><trkpt lat="14.438871650382685" lon="120.87820919178455"><ele>6.0</ele><time>2026-04-17T07:02:19.001Z</time></trkpt><trkpt lat="14.438955288253377" lon="120.87823784971278"><ele>6.0</ele><time>2026-04-17T07:02:20.001Z</time></trkpt><trkpt lat="14.439044550485194" lon="120.87826843466739"><ele>6.0</ele><time>2026-04-17T07:02:21.001Z</time></trkpt><trkpt lat="14.439151874248703" lon="120.87830064543824"><ele>6.0</ele><time>2026-04-17T07:02:22.001Z</time></trkpt><trkpt lat="14.439261335552194" lon="120.87833408112836"><ele>6.0</ele><time>2026-04-17T07:02:23.001Z</time></trkpt><trkpt lat="14.439371259439431" lon="120.87836765808866"><ele>6.0</ele><time>2026-04-17T07:02:24.001Z</time></trkpt><trkpt lat="14.439480380502864" lon="120.87840098987279"><ele>5.75</ele><time>2026-04-17T07:02:25.001Z</time></trkpt><trkpt lat="14.43960060208709" lon="120.87843771236534"><ele>5.5</ele><time>2026-04-17T07:02:26.001Z</time></trkpt><trkpt lat="14.439723360165479" lon="120.87847520999564"><ele>5.25</ele><time>2026-04-17T07:02:27.001Z</time></trkpt><trkpt lat="14.439852838695112" lon="120.8785023479897"><ele>5.0</ele><time>2026-04-17T07:02:28.001Z</time></trkpt><trkpt lat="14.439982020989696" lon="120.87854967782653"><ele>5.0</ele><time>2026-04-17T07:02:29.001Z</time></trkpt><trkpt lat="14.440108460850253" lon="120.87859523624046"><ele>5.0</ele><time>2026-04-17T07:02:30.001Z</time></trkpt><trkpt lat="14.440235131388636" lon="120.87864126898519"><ele>5.0</ele><time>2026-04-17T07:02:31.001Z</time></trkpt><trkpt lat="14.440357115620088" lon="120.87868312622611"><ele>5.0</ele><time>2026-04-17T07:02:32.001Z</time></trkpt><trkpt lat="14.440471136474606" lon="120.87872553743217"><ele>5.25</ele><time>2026-04-17T07:02:33.001Z</time></trkpt><trkpt lat="14.440594966796452" lon="120.87876705279176"><ele>5.5</ele><time>2026-04-17T07:02:34.001Z</time></trkpt><trkpt lat="14.440703601291357" lon="120.87880766862811"><ele>5.75</ele><time>2026-04-17T07:02:35.001Z</time></trkpt><trkpt lat="14.440809310208147" lon="120.8788443056243"><ele>6.0</ele><time>2026-04-17T07:02:36.001Z</time></trkpt><trkpt lat="14.440903405773899" lon="120.87887397985624"><ele>6.0</ele><time>2026-04-17T07:02:37.001Z</time></trkpt><trkpt lat="14.440995538807062" lon="120.87890322482954"><ele>6.0</ele><time>2026-04-17T07:02:38.001Z</time></trkpt><trkpt lat="14.441078770791602" lon="120.87892982094849"><ele>6.0</ele><time>2026-04-17T07:02:39.001Z</time></trkpt><trkpt lat="14.441151113135783" lon="120.87895390924137"><ele>6.0</ele><time>2026-04-17T07:02:40.001Z</time></trkpt><trkpt lat="14.44121798143693" lon="120.87897794170726"><ele>6.0</ele><time>2026-04-17T07:02:41.001Z</time></trkpt><trkpt lat="14.441321160285996" lon="120.87900948474001"><ele>6.0</ele><time>2026-04-17T07:02:43.001Z</time></trkpt><trkpt lat="14.441384573033137" lon="120.87903499924231"><ele>6.0</ele><time>2026-04-17T07:02:45.001Z</time></trkpt><trkpt lat="14.441469504729156" lon="120.87906063289797"><ele>6.0</ele><time>2026-04-17T07:03:15Z</time></trkpt><trkpt lat="14.441573541695606" lon="120.87908003746239"><ele>6.0</ele><time>2026-04-17T07:03:17Z</time></trkpt><trkpt lat="14.441714721217673" lon="120.87911440429285"><ele>6.0</ele><time>2026-04-17T07:03:19Z</time></trkpt><trkpt lat="14.441807850756012" lon="120.879137841094"><ele>6.0</ele><time>2026-04-17T07:03:20Z</time></trkpt><trkpt lat="14.441899062194663" lon="120.87916259221234"><ele>6.0</ele><time>2026-04-17T07:03:21Z</time></trkpt><trkpt lat="14.44199535838134" lon="120.87918992159337"><ele>6.0</ele><time>2026-04-17T07:03:22Z</time></trkpt><trkpt lat="14.442101883773159" lon="120.87921743363097"><ele>6.0</ele><time>2026-04-17T07:03:23Z</time></trkpt><trkpt lat="14.442217564739773" lon="120.87924349297201"><ele>6.0</ele><time>2026-04-17T07:03:24Z</time></trkpt><trkpt lat="14.442323965062663" lon="120.87927366317042"><ele>6.0</ele><time>2026-04-17T07:03:25Z</time></trkpt><trkpt lat="14.442436154001554" lon="120.87930265478133"><ele>6.0</ele><time>2026-04-17T07:03:26Z</time></trkpt><trkpt lat="14.442557331963323" lon="120.87933338009404"><ele>6.0</ele><time>2026-04-17T07:03:27Z</time></trkpt><trkpt lat="14.44267232844071" lon="120.8793645218111"><ele>6.0</ele><time>2026-04-17T07:03:28Z</time></trkpt><trkpt lat="14.442787643135352" lon="120.87939435357202"><ele>6.0</ele><time>2026-04-17T07:03:29Z</time></trkpt><trkpt lat="14.442912397403118" lon="120.87942494728017"><ele>5.5</ele><time>2026-04-17T07:03:30Z</time></trkpt><trkpt lat="14.443029645524348" lon="120.87945868483004"><ele>5.0</ele><time>2026-04-17T07:03:31Z</time></trkpt><trkpt lat="14.443148642579205" lon="120.87949131761916"><ele>4.5</ele><time>2026-04-17T07:03:32Z</time></trkpt><trkpt lat="14.443271944652382" lon="120.87952247631537"><ele>4.0</ele><time>2026-04-17T07:03:33Z</time></trkpt><trkpt lat="14.443386808260348" lon="120.87955593381228"><ele>4.0</ele><time>2026-04-17T07:03:34Z</time></trkpt><trkpt lat="14.443508285007875" lon="120.87958823401124"><ele>4.0</ele><time>2026-04-17T07:03:35Z</time></trkpt><trkpt lat="14.443617490962787" lon="120.8796191624116"><ele>4.0</ele><time>2026-04-17T07:03:36Z</time></trkpt><trkpt lat="14.443740201439311" lon="120.87965058604058"><ele>4.0</ele><time>2026-04-17T07:03:37Z</time></trkpt><trkpt lat="14.443850881482383" lon="120.8796797162134"><ele>4.0</ele><time>2026-04-17T07:03:38Z</time></trkpt><trkpt lat="14.44396690170521" lon="120.87970549700972"><ele>4.0</ele><time>2026-04-17T07:03:39Z</time></trkpt><trkpt lat="14.444072695478928" lon="120.87975051470893"><ele>4.0</ele><time>2026-04-17T07:03:40Z</time></trkpt><trkpt lat="14.444184101350407" lon="120.87976243735338"><ele>4.0</ele><time>2026-04-17T07:03:41Z</time></trkpt><trkpt lat="14.444280731418925" lon="120.87980526427751"><ele>4.0</ele><time>2026-04-17T07:03:42Z</time></trkpt><trkpt lat="14.444378443946697" lon="120.87983155229114"><ele>4.0</ele><time>2026-04-17T07:03:43Z</time></trkpt><trkpt lat="14.444469501309785" lon="120.87985604989069"><ele>4.0</ele><time>2026-04-17T07:03:44Z</time></trkpt><trkpt lat="14.444563631705938" lon="120.87988137459206"><ele>4.0</ele><time>2026-04-17T07:03:45Z</time></trkpt><trkpt lat="14.444655278850624" lon="120.87990603085186"><ele>4.0</ele><time>2026-04-17T07:03:46Z</time></trkpt><trkpt lat="14.444754656774656" lon="120.87993276695843"><ele>3.8000000000000003</ele><time>2026-04-17T07:03:47Z</time></trkpt><trkpt lat="14.444845137490185" lon="120.87995710940734"><ele>3.6000000000000005</ele><time>2026-04-17T07:03:48Z</time></trkpt><trkpt lat="14.44495793047422" lon="120.87998745463037"><ele>3.4</ele><time>2026-04-17T07:03:49Z</time></trkpt><trkpt lat="14.445065576690189" lon="120.88001641519519"><ele>3.2</ele><time>2026-04-17T07:03:50Z</time></trkpt><trkpt lat="14.445181243573977" lon="120.88004751879642"><ele>3.0</ele><time>2026-04-17T07:03:51Z</time></trkpt><trkpt lat="14.445275444442682" lon="120.88006476387253"><ele>3.0</ele><time>2026-04-17T07:03:52Z</time></trkpt><trkpt lat="14.4453715334071" lon="120.88009734738078"><ele>3.0</ele><time>2026-04-17T07:03:53Z</time></trkpt><trkpt lat="14.44544881047056" lon="120.88012333714734"><ele>3.0</ele><time>2026-04-17T07:03:54Z</time></trkpt><trkpt lat="14.445532861328774" lon="120.88014567705467"><ele>3.0</ele><time>2026-04-17T07:03:55Z</time></trkpt><trkpt lat="14.445621393302476" lon="120.88017191775913"><ele>3.0</ele><time>2026-04-17T07:03:56.001Z</time></trkpt><trkpt lat="14.44570964040347" lon="120.88019595136514"><ele>3.0</ele><time>2026-04-17T07:03:57.001Z</time></trkpt><trkpt lat="14.445796285344482" lon="120.88021981310665"><ele>3.0</ele><time>2026-04-17T07:03:58.001Z</time></trkpt><trkpt lat="14.445879535165096" lon="120.88024497765585"><ele>3.0</ele><time>2026-04-17T07:03:59.001Z</time></trkpt><trkpt lat="14.445965302146815" lon="120.88026817460099"><ele>3.0</ele><time>2026-04-17T07:04:00.001Z</time></trkpt><trkpt lat="14.446045083120058" lon="120.88028857379169"><ele>3.0</ele><time>2026-04-17T07:04:01.001Z</time></trkpt><trkpt lat="14.446117801385556" lon="120.88030733566775"><ele>3.0</ele><time>2026-04-17T07:04:02.001Z</time></trkpt><trkpt lat="14.44619475232189" lon="120.88032768304087"><ele>3.0</ele><time>2026-04-17T07:04:03.001Z</time></trkpt><trkpt lat="14.446274062470806" lon="120.8803443782883"><ele>3.0</ele><time>2026-04-17T07:04:04.001Z</time></trkpt><trkpt lat="14.446356550425179" lon="120.8803655708236"><ele>3.0</ele><time>2026-04-17T07:04:05.001Z</time></trkpt><trkpt lat="14.446452932172976" lon="120.88038772589397"><ele>3.0</ele><time>2026-04-17T07:04:06.001Z</time></trkpt><trkpt lat="14.44655905744839" lon="120.88041313697829"><ele>3.0</ele><time>2026-04-17T07:04:07.001Z</time></trkpt><trkpt lat="14.446671176736166" lon="120.88044120955553"><ele>3.25</ele><time>2026-04-17T07:04:08.001Z</time></trkpt><trkpt lat="14.446773884768513" lon="120.88046659885278"><ele>3.5</ele><time>2026-04-17T07:04:09.001Z</time></trkpt><trkpt lat="14.446894073817335" lon="120.88048367627042"><ele>3.75</ele><time>2026-04-17T07:04:10.001Z</time></trkpt><trkpt lat="14.447005762570006" lon="120.88049328539753"><ele>4.0</ele><time>2026-04-17T07:04:11.001Z</time></trkpt><trkpt lat="14.447129463643279" lon="120.88048443042958"><ele>5.0</ele><time>2026-04-17T07:04:12.001Z</time></trkpt><trkpt lat="14.447236788785746" lon="120.88047337721974"><ele>6.0</ele><time>2026-04-17T07:04:13.001Z</time></trkpt><trkpt lat="14.447343492033418" lon="120.8804765768807"><ele>7.0</ele><time>2026-04-17T07:04:14.001Z</time></trkpt><trkpt lat="14.447458698403056" lon="120.88044457839523"><ele>8.0</ele><time>2026-04-17T07:04:15.001Z</time></trkpt><trkpt lat="14.447570265615955" lon="120.88041127475012"><ele>8.0</ele><time>2026-04-17T07:04:16.001Z</time></trkpt><trkpt lat="14.447689533071687" lon="120.88037567252388"><ele>8.0</ele><time>2026-04-17T07:04:17.001Z</time></trkpt><trkpt lat="14.447802625012693" lon="120.88034187844609"><ele>8.0</ele><time>2026-04-17T07:04:18.001Z</time></trkpt><trkpt lat="14.447910063268283" lon="120.8803096469722"><ele>8.0</ele><time>2026-04-17T07:04:19.001Z</time></trkpt><trkpt lat="14.448013400503102" lon="120.88027885016245"><ele>7.2</ele><time>2026-04-17T07:04:20.001Z</time></trkpt><trkpt lat="14.44810784181946" lon="120.88025075192044"><ele>6.4</ele><time>2026-04-17T07:04:21.001Z</time></trkpt><trkpt lat="14.448200190171477" lon="120.88022367972427"><ele>5.6000000000000005</ele><time>2026-04-17T07:04:22.001Z</time></trkpt><trkpt lat="14.448274500374218" lon="120.88020233147577"><ele>4.800000000000001</ele><time>2026-04-17T07:04:23.001Z</time></trkpt><trkpt lat="14.448363499924785" lon="120.88017676319531"><ele>4.0</ele><time>2026-04-17T07:04:24.001Z</time></trkpt><trkpt lat="14.448447912776086" lon="120.88015251260033"><ele>3.9999999999999996</ele><time>2026-04-17T07:04:25.001Z</time></trkpt><trkpt lat="14.44853071489649" lon="120.88012872475346"><ele>4.0</ele><time>2026-04-17T07:04:26.001Z</time></trkpt><trkpt lat="14.448614257974297" lon="120.88010472403495"><ele>4.0</ele><time>2026-04-17T07:04:27.001Z</time></trkpt><trkpt lat="14.448692204034844" lon="120.88008233126155"><ele>4.0</ele><time>2026-04-17T07:04:28.001Z</time></trkpt><trkpt lat="14.44876952945717" lon="120.88006011678773"><ele>3.9999999999999996</ele><time>2026-04-17T07:04:29.001Z</time></trkpt><trkpt lat="14.448841608903624" lon="120.88003940943304"><ele>4.0</ele><time>2026-04-17T07:04:30.001Z</time></trkpt><trkpt lat="14.448928361687393" lon="120.88001206225665"><ele>3.6</ele><time>2026-04-17T07:04:31.001Z</time></trkpt><trkpt lat="14.44900405150527" lon="120.87998725879046"><ele>3.2</ele><time>2026-04-17T07:04:32.001Z</time></trkpt><trkpt lat="14.449087790276733" lon="120.8799667121326"><ele>2.8000000000000003</ele><time>2026-04-17T07:04:33.001Z</time></trkpt><trkpt lat="14.449178288853345" lon="120.87994000918863"><ele>2.4000000000000004</ele><time>2026-04-17T07:04:34.001Z</time></trkpt><trkpt lat="14.449275409855035" lon="120.87991046877254"><ele>2.0</ele><time>2026-04-17T07:04:35.001Z</time></trkpt><trkpt lat="14.44936918826603" lon="120.87987108352652"><ele>2.0</ele><time>2026-04-17T07:04:36.001Z</time></trkpt><trkpt lat="14.449468447644332" lon="120.87981356898841"><ele>2.0</ele><time>2026-04-17T07:04:37.001Z</time></trkpt><trkpt lat="14.449552960465345" lon="120.8797636823975"><ele>2.0</ele><time>2026-04-17T07:04:38.001Z</time></trkpt><trkpt lat="14.449641951068651" lon="120.87967962696192"><ele>2.0</ele><time>2026-04-17T07:04:39.001Z</time></trkpt><trkpt lat="14.449723159376912" lon="120.87960154127563"><ele>2.0</ele><time>2026-04-17T07:04:40.001Z</time></trkpt><trkpt lat="14.449798586032575" lon="120.87952472387708"><ele>2.25</ele><time>2026-04-17T07:04:41.001Z</time></trkpt><trkpt lat="14.449868707747182" lon="120.8794257359544"><ele>2.5</ele><time>2026-04-17T07:04:42.001Z</time></trkpt><trkpt lat="14.449929442865182" lon="120.87932244297396"><ele>2.75</ele><time>2026-04-17T07:04:43.001Z</time></trkpt><trkpt lat="14.449986080746875" lon="120.87921838835301"><ele>3.0</ele><time>2026-04-17T07:04:44.001Z</time></trkpt><trkpt lat="14.450045864196753" lon="120.87910711773715"><ele>3.0</ele><time>2026-04-17T07:04:45.001Z</time></trkpt><trkpt lat="14.45010060931468" lon="120.87900522461275"><ele>3.0</ele><time>2026-04-17T07:04:46.001Z</time></trkpt><trkpt lat="14.450150126105687" lon="120.87891306259439"><ele>3.0</ele><time>2026-04-17T07:04:47.001Z</time></trkpt><trkpt lat="14.450200976817094" lon="120.8788184178466"><ele>3.0</ele><time>2026-04-17T07:04:48.001Z</time></trkpt><trkpt lat="14.450253829464483" lon="120.87872004703468"><ele>3.0</ele><time>2026-04-17T07:04:49.001Z</time></trkpt><trkpt lat="14.450320135965798" lon="120.87863156499562"><ele>3.0</ele><time>2026-04-17T07:04:50.001Z</time></trkpt><trkpt lat="14.450379161867957" lon="120.87855207362043"><ele>3.0</ele><time>2026-04-17T07:04:51.001Z</time></trkpt><trkpt lat="14.450441772034129" lon="120.87846775523029"><ele>3.0</ele><time>2026-04-17T07:04:52.001Z</time></trkpt><trkpt lat="14.450521114966362" lon="120.87840879372081"><ele>3.0</ele><time>2026-04-17T07:04:53.001Z</time></trkpt><trkpt lat="14.450605249232925" lon="120.87834726938254"><ele>3.0</ele><time>2026-04-17T07:04:54.001Z</time></trkpt><trkpt lat="14.450688185020134" lon="120.87829615225547"><ele>3.4</ele><time>2026-04-17T07:04:55.001Z</time></trkpt><trkpt lat="14.450785303090132" lon="120.87822857967193"><ele>3.8</ele><time>2026-04-17T07:04:56.001Z</time></trkpt><trkpt lat="14.450876622025259" lon="120.87820913727951"><ele>4.2</ele><time>2026-04-17T07:04:57.001Z</time></trkpt><trkpt lat="14.45099483118896" lon="120.87819383046529"><ele>4.6</ele><time>2026-04-17T07:04:58.001Z</time></trkpt><trkpt lat="14.451098601974238" lon="120.87819771677604"><ele>5.0</ele><time>2026-04-17T07:04:59.001Z</time></trkpt><trkpt lat="14.451204898952597" lon="120.87820105592297"><ele>5.0</ele><time>2026-04-17T07:05:00.001Z</time></trkpt><trkpt lat="14.451282015097632" lon="120.87820684375583"><ele>5.0</ele><time>2026-04-17T07:05:01.001Z</time></trkpt><trkpt lat="14.451360103546476" lon="120.8782270463965"><ele>5.0</ele><time>2026-04-17T07:05:03.001Z</time></trkpt><trkpt lat="14.451488171035344" lon="120.87826551881972"><ele>5.0</ele><time>2026-04-17T07:05:05.001Z</time></trkpt><trkpt lat="14.451574250652579" lon="120.87829287501869"><ele>5.0</ele><time>2026-04-17T07:05:06Z</time></trkpt><trkpt lat="14.451665937205009" lon="120.87832715607077"><ele>4.5</ele><time>2026-04-17T07:05:07Z</time></trkpt><trkpt lat="14.451763901489935" lon="120.87836101202929"><ele>4.0</ele><time>2026-04-17T07:05:08Z</time></trkpt><trkpt lat="14.451870426434205" lon="120.87839450177827"><ele>3.5</ele><time>2026-04-17T07:05:09Z</time></trkpt><trkpt lat="14.451985944690218" lon="120.87842799554333"><ele>3.0</ele><time>2026-04-17T07:05:10Z</time></trkpt><trkpt lat="14.45210638406328" lon="120.87846276519343"><ele>3.5</ele><time>2026-04-17T07:05:11Z</time></trkpt><trkpt lat="14.452220830823995" lon="120.87850001617186"><ele>4.0</ele><time>2026-04-17T07:05:12Z</time></trkpt><trkpt lat="14.452344152981835" lon="120.87853938314322"><ele>4.5</ele><time>2026-04-17T07:05:13Z</time></trkpt><trkpt lat="14.452471133578548" lon="120.87858164604977"><ele>5.0</ele><time>2026-04-17T07:05:14Z</time></trkpt><trkpt lat="14.452607365075943" lon="120.87862138957021"><ele>5.0</ele><time>2026-04-17T07:05:15Z</time></trkpt><trkpt lat="14.452740017068274" lon="120.87866272561557"><ele>5.0</ele><time>2026-04-17T07:05:16Z</time></trkpt><trkpt lat="14.452878160142975" lon="120.87870524680606"><ele>5.0</ele><time>2026-04-17T07:05:17Z</time></trkpt><trkpt lat="14.45302406609644" lon="120.87875235572358"><ele>5.0</ele><time>2026-04-17T07:05:18Z</time></trkpt><trkpt lat="14.453161158595965" lon="120.87879825272255"><ele>5.333333333333334</ele><time>2026-04-17T07:05:19Z</time></trkpt><trkpt lat="14.453308402107728" lon="120.87884408537909"><ele>5.666666666666667</ele><time>2026-04-17T07:05:20Z</time></trkpt><trkpt lat="14.453442298145928" lon="120.8788923284473"><ele>6.0</ele><time>2026-04-17T07:05:21Z</time></trkpt><trkpt lat="14.453586605329415" lon="120.87895009857797"><ele>6.0</ele><time>2026-04-17T07:05:22Z</time></trkpt><trkpt lat="14.453722534752664" lon="120.87901552241256"><ele>6.0</ele><time>2026-04-17T07:05:23Z</time></trkpt><trkpt lat="14.453852656555313" lon="120.87908739389688"><ele>6.0</ele><time>2026-04-17T07:05:24Z</time></trkpt><trkpt lat="14.453976052186743" lon="120.87915871843587"><ele>6.0</ele><time>2026-04-17T07:05:25Z</time></trkpt><trkpt lat="14.454096628702574" lon="120.87922437234074"><ele>5.5</ele><time>2026-04-17T07:05:26Z</time></trkpt><trkpt lat="14.454241280497547" lon="120.87930149206936"><ele>5.0</ele><time>2026-04-17T07:05:27Z</time></trkpt><trkpt lat="14.454362842611287" lon="120.87936295817553"><ele>4.5</ele><time>2026-04-17T07:05:28Z</time></trkpt><trkpt lat="14.454489885808753" lon="120.87942661259584"><ele>4.0</ele><time>2026-04-17T07:05:29Z</time></trkpt><trkpt lat="14.454626893266441" lon="120.8794875864357"><ele>4.0</ele><time>2026-04-17T07:05:30Z</time></trkpt><trkpt lat="14.454768789885065" lon="120.87954126138122"><ele>4.0</ele><time>2026-04-17T07:05:31Z</time></trkpt><trkpt lat="14.454912776982505" lon="120.87959018985308"><ele>4.0</ele><time>2026-04-17T07:05:32Z</time></trkpt><trkpt lat="14.455057101691503" lon="120.87964906940174"><ele>4.0</ele><time>2026-04-17T07:05:33Z</time></trkpt><trkpt lat="14.45520612485817" lon="120.87969359255871"><ele>4.0</ele><time>2026-04-17T07:05:34Z</time></trkpt><trkpt lat="14.455359800854625" lon="120.87973733553615"><ele>4.0</ele><time>2026-04-17T07:05:35Z</time></trkpt><trkpt lat="14.455514982336133" lon="120.87978379923221"><ele>5.333333333333333</ele><time>2026-04-17T07:05:36Z</time></trkpt><trkpt lat="14.455673153132842" lon="120.8798349491142"><ele>6.666666666666666</ele><time>2026-04-17T07:05:37Z</time></trkpt><trkpt lat="14.455820427661797" lon="120.87987373147632"><ele>8.0</ele><time>2026-04-17T07:05:38Z</time></trkpt><trkpt lat="14.45598227910854" lon="120.87992723824678"><ele>8.0</ele><time>2026-04-17T07:05:39Z</time></trkpt><trkpt lat="14.456135441315531" lon="120.87997228426897"><ele>8.0</ele><time>2026-04-17T07:05:40Z</time></trkpt><trkpt lat="14.45628990073275" lon="120.88001949951416"><ele>8.0</ele><time>2026-04-17T07:05:41Z</time></trkpt><trkpt lat="14.456443308943246" lon="120.88006843352403"><ele>7.5</ele><time>2026-04-17T07:05:42Z</time></trkpt><trkpt lat="14.45659261805731" lon="120.88010900371032"><ele>7.0</ele><time>2026-04-17T07:05:43Z</time></trkpt><trkpt lat="14.45674175022863" lon="120.88015634295284"><ele>6.5</ele><time>2026-04-17T07:05:44Z</time></trkpt><trkpt lat="14.456875707100087" lon="120.88019418577059"><ele>6.0</ele><time>2026-04-17T07:05:45Z</time></trkpt><trkpt lat="14.457015979395672" lon="120.88024792239021"><ele>6.25</ele><time>2026-04-17T07:05:46Z</time></trkpt><trkpt lat="14.457147320825017" lon="120.880282540751"><ele>6.5</ele><time>2026-04-17T07:05:47Z</time></trkpt><trkpt lat="14.45728610364844" lon="120.88032760706513"><ele>6.75</ele><time>2026-04-17T07:05:48Z</time></trkpt><trkpt lat="14.457413740070967" lon="120.8803580020798"><ele>7.0</ele><time>2026-04-17T07:05:49Z</time></trkpt><trkpt lat="14.457547873735901" lon="120.88040197665865"><ele>7.0</ele><time>2026-04-17T07:05:50Z</time></trkpt><trkpt lat="14.457670613939202" lon="120.88043309637625"><ele>7.0</ele><time>2026-04-17T07:05:51Z</time></trkpt><trkpt lat="14.457790986698765" lon="120.88047821978904"><ele>7.0</ele><time>2026-04-17T07:05:52Z</time></trkpt><trkpt lat="14.457903106603313" lon="120.8805226200915"><ele>7.0</ele><time>2026-04-17T07:05:53Z</time></trkpt><trkpt lat="14.458009430184088" lon="120.88054960140875"><ele>6.5</ele><time>2026-04-17T07:05:54Z</time></trkpt><trkpt lat="14.458119904901412" lon="120.88057187793012"><ele>6.0</ele><time>2026-04-17T07:05:55Z</time></trkpt><trkpt lat="14.458249597556375" lon="120.88062482332728"><ele>5.5</ele><time>2026-04-17T07:05:56Z</time></trkpt><trkpt lat="14.458382250279822" lon="120.88066450819682"><ele>5.0</ele><time>2026-04-17T07:05:57Z</time></trkpt><trkpt lat="14.458520877763833" lon="120.88070598049879"><ele>5.0</ele><time>2026-04-17T07:05:58Z</time></trkpt><trkpt lat="14.458667673458626" lon="120.88074775654685"><ele>5.0</ele><time>2026-04-17T07:05:59Z</time></trkpt><trkpt lat="14.458818845124554" lon="120.88078358175841"><ele>5.0</ele><time>2026-04-17T07:06:00Z</time></trkpt><trkpt lat="14.45897105858964" lon="120.88081725672838"><ele>5.0</ele><time>2026-04-17T07:06:01Z</time></trkpt><trkpt lat="14.45913398449814" lon="120.88084668713648"><ele>5.0</ele><time>2026-04-17T07:06:02Z</time></trkpt><trkpt lat="14.459298213671113" lon="120.88087663517454"><ele>5.0</ele><time>2026-04-17T07:06:03Z</time></trkpt><trkpt lat="14.45945589022935" lon="120.88091269701432"><ele>4.333333333333334</ele><time>2026-04-17T07:06:04Z</time></trkpt><trkpt lat="14.459622752745625" lon="120.8809526636709"><ele>3.666666666666667</ele><time>2026-04-17T07:06:05Z</time></trkpt><trkpt lat="14.45977885838182" lon="120.88099005385439"><ele>3.0</ele><time>2026-04-17T07:06:06Z</time></trkpt><trkpt lat="14.459946332218266" lon="120.88103338901276"><ele>3.0</ele><time>2026-04-17T07:06:07Z</time></trkpt><trkpt lat="14.460105123781737" lon="120.88107786407267"><ele>3.0</ele><time>2026-04-17T07:06:08Z</time></trkpt><trkpt lat="14.460268775470274" lon="120.88112316793145"><ele>3.0</ele><time>2026-04-17T07:06:09Z</time></trkpt><trkpt lat="14.460430082255208" lon="120.88116950030957"><ele>3.333333333333333</ele><time>2026-04-17T07:06:10Z</time></trkpt><trkpt lat="14.460588061898939" lon="120.88122142940031"><ele>3.6666666666666665</ele><time>2026-04-17T07:06:11Z</time></trkpt><trkpt lat="14.460734827908608" lon="120.88125219474323"><ele>4.0</ele><time>2026-04-17T07:06:12Z</time></trkpt><trkpt lat="14.460862378898382" lon="120.88129768113586"><ele>3.9999999999999996</ele><time>2026-04-17T07:06:13Z</time></trkpt><trkpt lat="14.46096880768408" lon="120.88133989654978"><ele>4.0</ele><time>2026-04-17T07:06:14Z</time></trkpt><trkpt lat="14.461053924704457" lon="120.88137259832794"><ele>4.0</ele><time>2026-04-17T07:06:15Z</time></trkpt><trkpt lat="14.461132560859287" lon="120.8813992794667"><ele>4.0</ele><time>2026-04-17T07:06:16Z</time></trkpt><trkpt lat="14.46120329346588" lon="120.88142249153991"><ele>3.9999999999999996</ele><time>2026-04-17T07:06:17Z</time></trkpt><trkpt lat="14.461273515701563" lon="120.88146408607163"><ele>4.0</ele><time>2026-04-17T07:06:18Z</time></trkpt><trkpt lat="14.461351643706587" lon="120.88147462053898"><ele>4.166666666666666</ele><time>2026-04-17T07:06:19Z</time></trkpt><trkpt lat="14.46140991544842" lon="120.88150270557438"><ele>4.333333333333333</ele><time>2026-04-17T07:06:20.001Z</time></trkpt><trkpt lat="14.461486928304604" lon="120.88153055889155"><ele>4.5</ele><time>2026-04-17T07:06:21.001Z</time></trkpt><trkpt lat="14.461562108292659" lon="120.88156001723878"><ele>4.666666666666667</ele><time>2026-04-17T07:06:22.001Z</time></trkpt><trkpt lat="14.461637281865913" lon="120.88158718115103"><ele>4.833333333333334</ele><time>2026-04-17T07:06:23.001Z</time></trkpt><trkpt lat="14.46171805588914" lon="120.88161533989431"><ele>5.0</ele><time>2026-04-17T07:06:24.001Z</time></trkpt><trkpt lat="14.461795812763905" lon="120.8816452002519"><ele>5.0</ele><time>2026-04-17T07:06:25.001Z</time></trkpt><trkpt lat="14.46187372393869" lon="120.88167546027954"><ele>5.0</ele><time>2026-04-17T07:06:26.001Z</time></trkpt><trkpt lat="14.461944510681688" lon="120.8817031082251"><ele>5.0</ele><time>2026-04-17T07:06:27.001Z</time></trkpt><trkpt lat="14.462016264940473" lon="120.88173053647546"><ele>5.0</ele><time>2026-04-17T07:06:28.001Z</time></trkpt><trkpt lat="14.462101389194222" lon="120.88176498222148"><ele>5.0</ele><time>2026-04-17T07:06:29.001Z</time></trkpt><trkpt lat="14.462184123140844" lon="120.88179896245572"><ele>5.0</ele><time>2026-04-17T07:06:30.001Z</time></trkpt><trkpt lat="14.462265362493874" lon="120.88182832730408"><ele>5.166666666666667</ele><time>2026-04-17T07:06:31.001Z</time></trkpt><trkpt lat="14.462343327580136" lon="120.88185719341533"><ele>5.333333333333334</ele><time>2026-04-17T07:06:32.001Z</time></trkpt><trkpt lat="14.462426444323492" lon="120.88188796482696"><ele>5.5</ele><time>2026-04-17T07:06:33.001Z</time></trkpt><trkpt lat="14.462506932556032" lon="120.8819169130512"><ele>5.666666666666667</ele><time>2026-04-17T07:06:34.001Z</time></trkpt><trkpt lat="14.462588804285156" lon="120.88194784684902"><ele>5.833333333333333</ele><time>2026-04-17T07:06:35.001Z</time></trkpt><trkpt lat="14.462663675077359" lon="120.88197513562108"><ele>6.0</ele><time>2026-04-17T07:06:36.001Z</time></trkpt><trkpt lat="14.462730270445821" lon="120.88200090014482"><ele>6.0</ele><time>2026-04-17T07:06:37.001Z</time></trkpt><trkpt lat="14.462792617897776" lon="120.88202331454545"><ele>6.0</ele><time>2026-04-17T07:06:38.001Z</time></trkpt><trkpt lat="14.462857038902273" lon="120.88204561643352"><ele>6.0</ele><time>2026-04-17T07:06:39.001Z</time></trkpt><trkpt lat="14.462922377799165" lon="120.88207244595009"><ele>6.0</ele><time>2026-04-17T07:06:40.001Z</time></trkpt><trkpt lat="14.463056838484928" lon="120.88213365682067"><ele>6.0</ele><time>2026-04-17T07:06:42.001Z</time></trkpt><trkpt lat="14.463116743518357" lon="120.88215458533669"><ele>6.0</ele><time>2026-04-17T07:06:43.001Z</time></trkpt><trkpt lat="14.46318345691813" lon="120.88217953958082"><ele>5.833333333333333</ele><time>2026-04-17T07:06:44.001Z</time></trkpt><trkpt lat="14.463250000235465" lon="120.88220596612285"><ele>5.666666666666667</ele><time>2026-04-17T07:06:45.001Z</time></trkpt><trkpt lat="14.463320024671788" lon="120.8822364629221"><ele>5.5</ele><time>2026-04-17T07:06:46.001Z</time></trkpt><trkpt lat="14.463388213891651" lon="120.88226628486358"><ele>5.333333333333334</ele><time>2026-04-17T07:06:47.001Z</time></trkpt><trkpt lat="14.4634585516341" lon="120.88230027472852"><ele>5.166666666666667</ele><time>2026-04-17T07:06:48.001Z</time></trkpt><trkpt lat="14.463535019516335" lon="120.88233625583312"><ele>5.0</ele><time>2026-04-17T07:06:49.001Z</time></trkpt><trkpt lat="14.463618669982173" lon="120.88238679000096"><ele>5.0</ele><time>2026-04-17T07:06:50.001Z</time></trkpt><trkpt lat="14.463700840905341" lon="120.88245079099691"><ele>5.0</ele><time>2026-04-17T07:06:51.001Z</time></trkpt><trkpt lat="14.46377241422463" lon="120.88249827479918"><ele>5.0</ele><time>2026-04-17T07:06:52.001Z</time></trkpt><trkpt lat="14.463844757867312" lon="120.88254931454772"><ele>5.0</ele><time>2026-04-17T07:06:53.001Z</time></trkpt><trkpt lat="14.46392018380981" lon="120.88259747932058"><ele>5.0</ele><time>2026-04-17T07:06:54.001Z</time></trkpt><trkpt lat="14.464003382039067" lon="120.88265826906769"><ele>5.2</ele><time>2026-04-17T07:06:55.001Z</time></trkpt><trkpt lat="14.464090124122338" lon="120.88271832712913"><ele>5.4</ele><time>2026-04-17T07:06:56.001Z</time></trkpt><trkpt lat="14.464170148561887" lon="120.8827696315863"><ele>5.6</ele><time>2026-04-17T07:06:57.001Z</time></trkpt><trkpt lat="14.46423475789647" lon="120.8828369328997"><ele>5.8</ele><time>2026-04-17T07:06:58.001Z</time></trkpt><trkpt lat="14.464311343812614" lon="120.88289104543762"><ele>6.0</ele><time>2026-04-17T07:06:59.001Z</time></trkpt><trkpt lat="14.464391108829677" lon="120.88294561737072"><ele>6.0</ele><time>2026-04-17T07:07:00.001Z</time></trkpt><trkpt lat="14.464467727035858" lon="120.8829980364188"><ele>6.0</ele><time>2026-04-17T07:07:01.001Z</time></trkpt><trkpt lat="14.464550751360317" lon="120.88305483824574"><ele>6.0</ele><time>2026-04-17T07:07:02.001Z</time></trkpt><trkpt lat="14.464630165438784" lon="120.88310917009795"><ele>6.0</ele><time>2026-04-17T07:07:03.001Z</time></trkpt><trkpt lat="14.464705512599703" lon="120.88316071952755"><ele>6.0</ele><time>2026-04-17T07:07:04.001Z</time></trkpt><trkpt lat="14.464784271760013" lon="120.88321460330643"><ele>5.833333333333333</ele><time>2026-04-17T07:07:05.001Z</time></trkpt><trkpt lat="14.464851987730425" lon="120.88326093178999"><ele>5.666666666666667</ele><time>2026-04-17T07:07:06.001Z</time></trkpt><trkpt lat="14.46491000810605" lon="120.88330209344373"><ele>5.5</ele><time>2026-04-17T07:07:07.001Z</time></trkpt><trkpt lat="14.464984808181566" lon="120.88335630971763"><ele>5.333333333333334</ele><time>2026-04-17T07:07:08.001Z</time></trkpt><trkpt lat="14.465058897209385" lon="120.88340242150969"><ele>5.166666666666667</ele><time>2026-04-17T07:07:09.001Z</time></trkpt><trkpt lat="14.465142628602795" lon="120.88345770534728"><ele>5.0</ele><time>2026-04-17T07:07:10.001Z</time></trkpt><trkpt lat="14.465223462101957" lon="120.88351213540092"><ele>5.0</ele><time>2026-04-17T07:07:11.001Z</time></trkpt><trkpt lat="14.465306707421941" lon="120.8835639795477"><ele>5.0</ele><time>2026-04-17T07:07:12Z</time></trkpt><trkpt lat="14.46540418348965" lon="120.88363237436175"><ele>5.0</ele><time>2026-04-17T07:07:13Z</time></trkpt><trkpt lat="14.465485772868872" lon="120.88368962215603"><ele>5.0</ele><time>2026-04-17T07:07:14Z</time></trkpt><trkpt lat="14.465570944674038" lon="120.88374938355092"><ele>5.0</ele><time>2026-04-17T07:07:15Z</time></trkpt><trkpt lat="14.465664696596667" lon="120.88381078957097"><ele>4.8</ele><time>2026-04-17T07:07:16Z</time></trkpt><trkpt lat="14.46575508107186" lon="120.8838706945853"><ele>4.6</ele><time>2026-04-17T07:07:17Z</time></trkpt><trkpt lat="14.465852972453355" lon="120.88393557503211"><ele>4.4</ele><time>2026-04-17T07:07:18Z</time></trkpt><trkpt lat="14.465944298811316" lon="120.88399610430973"><ele>4.2</ele><time>2026-04-17T07:07:19Z</time></trkpt><trkpt lat="14.466038581436434" lon="120.88405859293971"><ele>4.0</ele><time>2026-04-17T07:07:20Z</time></trkpt><trkpt lat="14.46613475874516" lon="120.88412250399132"><ele>4.0</ele><time>2026-04-17T07:07:21Z</time></trkpt><trkpt lat="14.466230260060998" lon="120.88418617797012"><ele>4.0</ele><time>2026-04-17T07:07:22Z</time></trkpt><trkpt lat="14.466324999294747" lon="120.88424934383922"><ele>4.0</ele><time>2026-04-17T07:07:23Z</time></trkpt><trkpt lat="14.466419045451254" lon="120.88431204761253"><ele>4.0</ele><time>2026-04-17T07:07:24Z</time></trkpt><trkpt lat="14.466510754258328" lon="120.88437319299256"><ele>4.0</ele><time>2026-04-17T07:07:25Z</time></trkpt><trkpt lat="14.466598431923298" lon="120.88443160678835"><ele>4.0</ele><time>2026-04-17T07:07:26Z</time></trkpt><trkpt lat="14.46669492128094" lon="120.88449555526438"><ele>4.0</ele><time>2026-04-17T07:07:27Z</time></trkpt><trkpt lat="14.466786559843612" lon="120.88455628887996"><ele>4.0</ele><time>2026-04-17T07:07:28Z</time></trkpt><trkpt lat="14.4668815368982" lon="120.8846192350813"><ele>4.0</ele><time>2026-04-17T07:07:29Z</time></trkpt><trkpt lat="14.466982225060237" lon="120.88468596632767"><ele>4.0</ele><time>2026-04-17T07:07:30Z</time></trkpt><trkpt lat="14.467088846932254" lon="120.88475663015691"><ele>4.0</ele><time>2026-04-17T07:07:31Z</time></trkpt><trkpt lat="14.467192698135088" lon="120.88482658032282"><ele>4.0</ele><time>2026-04-17T07:07:32Z</time></trkpt><trkpt lat="14.46729832540476" lon="120.88489684771494"><ele>4.0</ele><time>2026-04-17T07:07:33Z</time></trkpt><trkpt lat="14.467396561404973" lon="120.88496223752864"><ele>4.0</ele><time>2026-04-17T07:07:34Z</time></trkpt><trkpt lat="14.467496426910587" lon="120.88502870869776"><ele>4.0</ele><time>2026-04-17T07:07:35Z</time></trkpt><trkpt lat="14.46759258374742" lon="120.88509245288876"><ele>4.0</ele><time>2026-04-17T07:07:36Z</time></trkpt><trkpt lat="14.467693782748139" lon="120.88515953962602"><ele>4.0</ele><time>2026-04-17T07:07:37Z</time></trkpt><trkpt lat="14.467797218873416" lon="120.8852281093927"><ele>4.0</ele><time>2026-04-17T07:07:38Z</time></trkpt><trkpt lat="14.467894940634327" lon="120.88529289100056"><ele>4.0</ele><time>2026-04-17T07:07:39Z</time></trkpt><trkpt lat="14.467999741370184" lon="120.88536236533845"><ele>4.0</ele><time>2026-04-17T07:07:40Z</time></trkpt><trkpt lat="14.468105984259715" lon="120.88543335376131"><ele>4.0</ele><time>2026-04-17T07:07:41Z</time></trkpt><trkpt lat="14.468203192574393" lon="120.88549495108137"><ele>4.25</ele><time>2026-04-17T07:07:42Z</time></trkpt><trkpt lat="14.468305541512098" lon="120.88556100124732"><ele>4.5</ele><time>2026-04-17T07:07:43Z</time></trkpt><trkpt lat="14.468413520554243" lon="120.88562863983046"><ele>4.75</ele><time>2026-04-17T07:07:44Z</time></trkpt><trkpt lat="14.468517432881647" lon="120.88569362162488"><ele>5.0</ele><time>2026-04-17T07:07:45Z</time></trkpt><trkpt lat="14.468618368404877" lon="120.88575674187088"><ele>5.0</ele><time>2026-04-17T07:07:46Z</time></trkpt><trkpt lat="14.468703219303064" lon="120.88580980343782"><ele>5.0</ele><time>2026-04-17T07:07:47Z</time></trkpt><trkpt lat="14.468801804809631" lon="120.88587435402252"><ele>5.0</ele><time>2026-04-17T07:07:48Z</time></trkpt><trkpt lat="14.468902579265924" lon="120.88593399630706"><ele>5.0</ele><time>2026-04-17T07:07:49Z</time></trkpt><trkpt lat="14.468996282457086" lon="120.88598945354725"><ele>5.0</ele><time>2026-04-17T07:07:50Z</time></trkpt><trkpt lat="14.469080429294568" lon="120.88603925527181"><ele>5.333333333333334</ele><time>2026-04-17T07:07:51Z</time></trkpt><trkpt lat="14.46916687888574" lon="120.88609041954373"><ele>5.666666666666667</ele><time>2026-04-17T07:07:52Z</time></trkpt><trkpt lat="14.46925872017417" lon="120.88614477482854"><ele>6.0</ele><time>2026-04-17T07:07:53Z</time></trkpt><trkpt lat="14.469334124249118" lon="120.88618940192731"><ele>6.333333333333334</ele><time>2026-04-17T07:07:54Z</time></trkpt><trkpt lat="14.46940108157378" lon="120.88622902990754"><ele>6.666666666666667</ele><time>2026-04-17T07:07:55Z</time></trkpt><trkpt lat="14.469462112630023" lon="120.88626515048729"><ele>7.0</ele><time>2026-04-17T07:07:56Z</time></trkpt><trkpt lat="14.4695548407276" lon="120.88632003060401"><ele>6.8</ele><time>2026-04-17T07:07:58Z</time></trkpt><trkpt lat="14.46962330238525" lon="120.8863596643982"><ele>6.6</ele><time>2026-04-17T07:08:00Z</time></trkpt><trkpt lat="14.469711387166393" lon="120.88641087328651"><ele>6.3999999999999995</ele><time>2026-04-17T07:08:02Z</time></trkpt><trkpt lat="14.46982045535558" lon="120.88647428107349"><ele>6.199999999999999</ele><time>2026-04-17T07:08:04Z</time></trkpt><trkpt lat="14.46988595191004" lon="120.88651235805226"><ele>6.0</ele><time>2026-04-17T07:08:05Z</time></trkpt><trkpt lat="14.469952633779053" lon="120.88654905062025"><ele>6.0</ele><time>2026-04-17T07:08:06Z</time></trkpt><trkpt lat="14.470012482512196" lon="120.8865825062682"><ele>6.0</ele><time>2026-04-17T07:08:07Z</time></trkpt><trkpt lat="14.470074024712805" lon="120.88661690856766"><ele>6.0</ele><time>2026-04-17T07:08:08Z</time></trkpt><trkpt lat="14.470173260156312" lon="120.8866723815152"><ele>6.0</ele><time>2026-04-17T07:08:10Z</time></trkpt><trkpt lat="14.470274518246065" lon="120.88672898513249"><ele>6.0</ele><time>2026-04-17T07:08:12Z</time></trkpt><trkpt lat="14.470365140602267" lon="120.88677828820201"><ele>6.333333333333333</ele><time>2026-04-17T07:08:14Z</time></trkpt><trkpt lat="14.470464047471607" lon="120.8868314673997"><ele>6.666666666666666</ele><time>2026-04-17T07:08:16Z</time></trkpt><trkpt lat="14.470542754699586" lon="120.8868740839876"><ele>7.0</ele><time>2026-04-17T07:08:18Z</time></trkpt><trkpt lat="14.470610204910342" lon="120.88691070549743"><ele>7.333333333333333</ele><time>2026-04-17T07:08:20Z</time></trkpt><trkpt lat="14.470671729590336" lon="120.88694547242913"><ele>7.666666666666666</ele><time>2026-04-17T07:08:22Z</time></trkpt><trkpt lat="14.47074085936989" lon="120.8869836729663"><ele>8.0</ele><time>2026-04-17T07:08:24Z</time></trkpt><trkpt lat="14.47082718008352" lon="120.8870313730694"><ele>8.0</ele><time>2026-04-17T07:08:26Z</time></trkpt><trkpt lat="14.470915386000339" lon="120.88708011492089"><ele>8.0</ele><time>2026-04-17T07:08:28Z</time></trkpt><trkpt lat="14.47100037860042" lon="120.88712708111814"><ele>8.0</ele><time>2026-04-17T07:08:30Z</time></trkpt><trkpt lat="14.471117171153683" lon="120.88719161968046"><ele>8.0</ele><time>2026-04-17T07:08:32Z</time></trkpt><trkpt lat="14.471188699702177" lon="120.8872292220135"><ele>8.0</ele><time>2026-04-17T07:08:33Z</time></trkpt><trkpt lat="14.47128359829731" lon="120.88727978619336"><ele>7.800000000000001</ele><time>2026-04-17T07:08:35Z</time></trkpt><trkpt lat="14.471390222794996" lon="120.88733659821204"><ele>7.6000000000000005</ele><time>2026-04-17T07:08:37Z</time></trkpt><trkpt lat="14.471473181813494" lon="120.88738080070961"><ele>7.3999999999999995</ele><time>2026-04-17T07:08:39Z</time></trkpt><trkpt lat="14.471590691915631" lon="120.88743568710339"><ele>7.199999999999999</ele><time>2026-04-17T07:08:42.001Z</time></trkpt><trkpt lat="14.471671389446405" lon="120.8874720174808"><ele>7.0</ele><time>2026-04-17T07:08:44.001Z</time></trkpt><trkpt lat="14.47176967471478" lon="120.88751626593647"><ele>7.0</ele><time>2026-04-17T07:08:46.001Z</time></trkpt><trkpt lat="14.471864598747256" lon="120.88755900114758"><ele>6.999999999999999</ele><time>2026-04-17T07:08:48.001Z</time></trkpt><trkpt lat="14.471929206838514" lon="120.88758808799204"><ele>6.999999999999999</ele><time>2026-04-17T07:08:50.001Z</time></trkpt><trkpt lat="14.472020601133073" lon="120.88760109541269"><ele>7.0</ele><time>2026-04-17T07:08:52.001Z</time></trkpt><trkpt lat="14.472116065595873" lon="120.887640576769"><ele>7.0</ele><time>2026-04-17T07:08:54.001Z</time></trkpt><trkpt lat="14.472210735056667" lon="120.88767877954895"><ele>6.833333333333334</ele><time>2026-04-17T07:08:56.001Z</time></trkpt><trkpt lat="14.472286091005914" lon="120.88770921571907"><ele>6.666666666666667</ele><time>2026-04-17T07:08:58.001Z</time></trkpt><trkpt lat="14.47236111873752" lon="120.88774313524557"><ele>6.5</ele><time>2026-04-17T07:09:00.001Z</time></trkpt><trkpt lat="14.472426105802196" lon="120.88778987473762"><ele>6.333333333333334</ele><time>2026-04-17T07:09:02.001Z</time></trkpt><trkpt lat="14.472509538075688" lon="120.8878112781913"><ele>6.166666666666667</ele><time>2026-04-17T07:09:04.001Z</time></trkpt><trkpt lat="14.472573859373412" lon="120.88784649329273"><ele>6.0</ele><time>2026-04-17T07:09:06.001Z</time></trkpt><trkpt lat="14.472652399025863" lon="120.88789114051909"><ele>6.0</ele><time>2026-04-17T07:09:08.001Z</time></trkpt><trkpt lat="14.472719306379386" lon="120.8879318095868"><ele>6.0</ele><time>2026-04-17T07:09:10.001Z</time></trkpt><trkpt lat="14.472816464656068" lon="120.88798418954582"><ele>6.0</ele><time>2026-04-17T07:09:12.001Z</time></trkpt><trkpt lat="14.472902281243199" lon="120.88802615866244"><ele>6.0</ele><time>2026-04-17T07:09:14.001Z</time></trkpt><trkpt lat="14.472989162989675" lon="120.88807043386551"><ele>6.0</ele><time>2026-04-17T07:09:16.001Z</time></trkpt><trkpt lat="14.473066357907486" lon="120.88810580375406"><ele>6.142857142857142</ele><time>2026-04-17T07:09:18Z</time></trkpt><trkpt lat="14.47313987888827" lon="120.88813846357287"><ele>6.285714285714286</ele><time>2026-04-17T07:09:20Z</time></trkpt><trkpt lat="14.473215291380622" lon="120.88816822225321"><ele>6.428571428571429</ele><time>2026-04-17T07:09:22Z</time></trkpt><trkpt lat="14.473280022436093" lon="120.88819828998406"><ele>6.571428571428571</ele><time>2026-04-17T07:09:23Z</time></trkpt><trkpt lat="14.473346500312436" lon="120.8882342787972"><ele>6.714285714285714</ele><time>2026-04-17T07:09:25Z</time></trkpt><trkpt lat="14.47341435828857" lon="120.8882608842259"><ele>6.857142857142857</ele><time>2026-04-17T07:09:27Z</time></trkpt><trkpt lat="14.473474698138276" lon="120.88828790715573"><ele>7.0</ele><time>2026-04-17T07:09:29Z</time></trkpt><trkpt lat="14.473542315496987" lon="120.88831759764093"><ele>7.000000000000001</ele><time>2026-04-17T07:09:31Z</time></trkpt><trkpt lat="14.473647951408024" lon="120.88836775741436"><ele>7.0</ele><time>2026-04-17T07:09:33Z</time></trkpt><trkpt lat="14.47370951163316" lon="120.88839622940634"><ele>7.0</ele><time>2026-04-17T07:09:34Z</time></trkpt><trkpt lat="14.473774978665269" lon="120.88842415294752"><ele>7.0</ele><time>2026-04-17T07:09:35Z</time></trkpt><trkpt lat="14.47385133222917" lon="120.88845969364648"><ele>7.000000000000001</ele><time>2026-04-17T07:09:36Z</time></trkpt><trkpt lat="14.47392805958588" lon="120.88849387751156"><ele>7.0</ele><time>2026-04-17T07:09:37Z</time></trkpt><trkpt lat="14.47400472377154" lon="120.88853098193702"><ele>7.166666666666667</ele><time>2026-04-17T07:09:38Z</time></trkpt><trkpt lat="14.4740844382605" lon="120.88856642923847"><ele>7.333333333333334</ele><time>2026-04-17T07:09:39Z</time></trkpt><trkpt lat="14.474176659243211" lon="120.88860916601908"><ele>7.5</ele><time>2026-04-17T07:09:40Z</time></trkpt><trkpt lat="14.474243418402363" lon="120.88864101368667"><ele>7.666666666666666</ele><time>2026-04-17T07:09:41Z</time></trkpt><trkpt lat="14.474319097576963" lon="120.88867323507664"><ele>7.833333333333333</ele><time>2026-04-17T07:09:42Z</time></trkpt><trkpt lat="14.474389483116404" lon="120.88870861045751"><ele>8.0</ele><time>2026-04-17T07:09:43Z</time></trkpt><trkpt lat="14.474471383574775" lon="120.88874855597622"><ele>8.0</ele><time>2026-04-17T07:09:44Z</time></trkpt><trkpt lat="14.474556228277274" lon="120.88878571287458"><ele>8.0</ele><time>2026-04-17T07:09:45Z</time></trkpt><trkpt lat="14.474638333911532" lon="120.88882452299133"><ele>8.0</ele><time>2026-04-17T07:09:46Z</time></trkpt><trkpt lat="14.47472945767978" lon="120.88886646487487"><ele>8.0</ele><time>2026-04-17T07:09:47Z</time></trkpt><trkpt lat="14.474819221977555" lon="120.88890939069896"><ele>8.0</ele><time>2026-04-17T07:09:48Z</time></trkpt><trkpt lat="14.474907983270711" lon="120.88895304995472"><ele>7.666666666666666</ele><time>2026-04-17T07:09:49Z</time></trkpt><trkpt lat="14.474997657381465" lon="120.88899407537403"><ele>7.333333333333333</ele><time>2026-04-17T07:09:50Z</time></trkpt><trkpt lat="14.475077729602287" lon="120.88903167956586"><ele>7.0</ele><time>2026-04-17T07:09:51Z</time></trkpt><trkpt lat="14.47514586457565" lon="120.8890677192738"><ele>6.666666666666666</ele><time>2026-04-17T07:09:52Z</time></trkpt><trkpt lat="14.475213916750103" lon="120.88909890676825"><ele>6.333333333333333</ele><time>2026-04-17T07:09:53Z</time></trkpt><trkpt lat="14.475277494335137" lon="120.8891267176604"><ele>6.0</ele><time>2026-04-17T07:09:54Z</time></trkpt><trkpt lat="14.475379664862412" lon="120.88917102115964"><ele>6.166666666666667</ele><time>2026-04-17T07:09:56Z</time></trkpt><trkpt lat="14.475450329135478" lon="120.88920638493012"><ele>6.333333333333334</ele><time>2026-04-17T07:09:58Z</time></trkpt><trkpt lat="14.475533550619403" lon="120.8892525557288"><ele>6.5</ele><time>2026-04-17T07:10:01Z</time></trkpt><trkpt lat="14.475596406047831" lon="120.88927509968934"><ele>6.666666666666667</ele><time>2026-04-17T07:10:04Z</time></trkpt><trkpt lat="14.47568141146367" lon="120.88930244024826"><ele>6.833333333333334</ele><time>2026-04-17T07:10:09Z</time></trkpt><trkpt lat="14.475744263563476" lon="120.88934203539031"><ele>7.0</ele><time>2026-04-17T07:10:11Z</time></trkpt><trkpt lat="14.475827005766657" lon="120.8893822250627"><ele>7.0</ele><time>2026-04-17T07:10:13Z</time></trkpt><trkpt lat="14.475898369171457" lon="120.88941688780976"><ele>6.999999999999999</ele><time>2026-04-17T07:10:18Z</time></trkpt><trkpt lat="14.47599244048848" lon="120.88945672132863"><ele>6.999999999999999</ele><time>2026-04-17T07:10:20Z</time></trkpt><trkpt lat="14.47603779164826" lon="120.88951463330751"><ele>7.0</ele><time>2026-04-17T07:10:21Z</time></trkpt><trkpt lat="14.476100424334197" lon="120.88963024908476"><ele>7.0</ele><time>2026-04-17T07:10:23Z</time></trkpt><trkpt lat="14.476145066542243" lon="120.88977131345005"><ele>7.000000000000001</ele><time>2026-04-17T07:10:25Z</time></trkpt><trkpt lat="14.476188262014295" lon="120.88983122652928"><ele>7.0</ele><time>2026-04-17T07:10:26Z</time></trkpt><trkpt lat="14.476218194628348" lon="120.88990464264887"><ele>7.0</ele><time>2026-04-17T07:10:27Z</time></trkpt><trkpt lat="14.476256020513924" lon="120.88999158874853"><ele>7.0</ele><time>2026-04-17T07:10:28Z</time></trkpt><trkpt lat="14.476292371534333" lon="120.89008169419016"><ele>7.000000000000001</ele><time>2026-04-17T07:10:29Z</time></trkpt><trkpt lat="14.476326875862085" lon="120.89016734012895"><ele>7.0</ele><time>2026-04-17T07:10:30Z</time></trkpt><trkpt lat="14.476358864459671" lon="120.89023888150086"><ele>6.8</ele><time>2026-04-17T07:10:31Z</time></trkpt><trkpt lat="14.476391972865512" lon="120.89030967764228"><ele>6.6</ele><time>2026-04-17T07:10:32Z</time></trkpt><trkpt lat="14.47643690680466" lon="120.89038878427937"><ele>6.3999999999999995</ele><time>2026-04-17T07:10:33Z</time></trkpt><trkpt lat="14.476470014741889" lon="120.89046324839119"><ele>6.199999999999999</ele><time>2026-04-17T07:10:34Z</time></trkpt><trkpt lat="14.476494669147394" lon="120.8905321130577"><ele>6.0</ele><time>2026-04-17T07:10:35Z</time></trkpt><trkpt lat="14.476568403548614" lon="120.89070735073936"><ele>6.0</ele><time>2026-04-17T07:10:37Z</time></trkpt><trkpt lat="14.476603848462952" lon="120.89078912468108"><ele>6.0</ele><time>2026-04-17T07:10:38Z</time></trkpt><trkpt lat="14.476640193867535" lon="120.89087052719373"><ele>6.0</ele><time>2026-04-17T07:10:39Z</time></trkpt><trkpt lat="14.476673684641566" lon="120.89095820241934"><ele>6.0</ele><time>2026-04-17T07:10:40Z</time></trkpt><trkpt lat="14.476708615669274" lon="120.89104386823068"><ele>6.0</ele><time>2026-04-17T07:10:41Z</time></trkpt><trkpt lat="14.47674595156432" lon="120.89113115570007"><ele>6.0</ele><time>2026-04-17T07:10:42Z</time></trkpt><trkpt lat="14.476780100373649" lon="120.89122309510938"><ele>5.6</ele><time>2026-04-17T07:10:43Z</time></trkpt><trkpt lat="14.476815027727024" lon="120.89131392512189"><ele>5.199999999999999</ele><time>2026-04-17T07:10:44Z</time></trkpt><trkpt lat="14.476853864008266" lon="120.89139848468625"><ele>4.800000000000001</ele><time>2026-04-17T07:10:45Z</time></trkpt><trkpt lat="14.476888338941391" lon="120.89149116299623"><ele>4.4</ele><time>2026-04-17T07:10:46Z</time></trkpt><trkpt lat="14.476930545515104" lon="120.89159196930856"><ele>4.0</ele><time>2026-04-17T07:10:47Z</time></trkpt><trkpt lat="14.476971506477943" lon="120.89169208774271"><ele>4.4</ele><time>2026-04-17T07:10:48Z</time></trkpt><trkpt lat="14.477012433927023" lon="120.89179138570377"><ele>4.800000000000001</ele><time>2026-04-17T07:10:49Z</time></trkpt><trkpt lat="14.477050448941132" lon="120.89189267856652"><ele>5.199999999999999</ele><time>2026-04-17T07:10:50Z</time></trkpt><trkpt lat="14.4770882040113" lon="120.8919901143199"><ele>5.6</ele><time>2026-04-17T07:10:51Z</time></trkpt><trkpt lat="14.47712112816269" lon="120.8920881881465"><ele>6.0</ele><time>2026-04-17T07:10:52Z</time></trkpt><trkpt lat="14.477157221649788" lon="120.89217967904278"><ele>6.0</ele><time>2026-04-17T07:10:53Z</time></trkpt><trkpt lat="14.477195307564127" lon="120.89227523358818"><ele>6.0</ele><time>2026-04-17T07:10:54Z</time></trkpt><trkpt lat="14.477234107965751" lon="120.89237170861175"><ele>6.0</ele><time>2026-04-17T07:10:55Z</time></trkpt><trkpt lat="14.477274737977506" lon="120.89246482135721"><ele>6.0</ele><time>2026-04-17T07:10:56Z</time></trkpt><trkpt lat="14.477317291527754" lon="120.89255871417392"><ele>6.0</ele><time>2026-04-17T07:10:57Z</time></trkpt><trkpt lat="14.477352943748498" lon="120.89264885812668"><ele>6.166666666666667</ele><time>2026-04-17T07:10:58Z</time></trkpt><trkpt lat="14.477395841796088" lon="120.89272238782527"><ele>6.333333333333334</ele><time>2026-04-17T07:10:59Z</time></trkpt><trkpt lat="14.477430754915362" lon="120.89279893803001"><ele>6.5</ele><time>2026-04-17T07:11:00Z</time></trkpt><trkpt lat="14.477466399859727" lon="120.89289064955383"><ele>6.666666666666667</ele><time>2026-04-17T07:11:01Z</time></trkpt><trkpt lat="14.477496167775675" lon="120.89297183458515"><ele>6.833333333333334</ele><time>2026-04-17T07:11:02Z</time></trkpt><trkpt lat="14.477526507836053" lon="120.89305381569362"><ele>7.0</ele><time>2026-04-17T07:11:03Z</time></trkpt><trkpt lat="14.477564842058065" lon="120.8931251659918"><ele>7.0</ele><time>2026-04-17T07:11:04Z</time></trkpt><trkpt lat="14.47759877363898" lon="120.89320711450355"><ele>6.999999999999999</ele><time>2026-04-17T07:11:05Z</time></trkpt><trkpt lat="14.47763677612475" lon="120.89328683726039"><ele>6.999999999999999</ele><time>2026-04-17T07:11:06Z</time></trkpt><trkpt lat="14.477657561648329" lon="120.8933736899999"><ele>7.0</ele><time>2026-04-17T07:11:07Z</time></trkpt><trkpt lat="14.47769577543728" lon="120.89346301072429"><ele>7.0</ele><time>2026-04-17T07:11:08Z</time></trkpt><trkpt lat="14.477715198777624" lon="120.89356403693047"><ele>6.6</ele><time>2026-04-17T07:11:09Z</time></trkpt><trkpt lat="14.477780671467684" lon="120.89367078560147"><ele>6.199999999999999</ele><time>2026-04-17T07:11:11Z</time></trkpt><trkpt lat="14.477811370101914" lon="120.89376015216928"><ele>5.8</ele><time>2026-04-17T07:11:12Z</time></trkpt><trkpt lat="14.477842450446177" lon="120.89384656290245"><ele>5.4</ele><time>2026-04-17T07:11:13.001Z</time></trkpt><trkpt lat="14.477880094415346" lon="120.89394472055264"><ele>5.0</ele><time>2026-04-17T07:11:14.001Z</time></trkpt><trkpt lat="14.477923462704773" lon="120.8940498940748"><ele>5.4</ele><time>2026-04-17T07:11:15.001Z</time></trkpt><trkpt lat="14.477968415178218" lon="120.89414972982054"><ele>5.8</ele><time>2026-04-17T07:11:16.001Z</time></trkpt><trkpt lat="14.47800990345334" lon="120.89425160475587"><ele>6.199999999999999</ele><time>2026-04-17T07:11:17.001Z</time></trkpt><trkpt lat="14.478049933378147" lon="120.8943535678681"><ele>6.6</ele><time>2026-04-17T07:11:18.001Z</time></trkpt><trkpt lat="14.478082781808045" lon="120.8944532179977"><ele>7.0</ele><time>2026-04-17T07:11:19.001Z</time></trkpt><trkpt lat="14.478117794448925" lon="120.89453463821573"><ele>7.0</ele><time>2026-04-17T07:11:20.001Z</time></trkpt><trkpt lat="14.478144813749685" lon="120.89461321764622"><ele>6.999999999999999</ele><time>2026-04-17T07:11:21.001Z</time></trkpt><trkpt lat="14.478173864722617" lon="120.89471148019601"><ele>6.999999999999999</ele><time>2026-04-17T07:11:23.001Z</time></trkpt><trkpt lat="14.47822987107277" lon="120.89482108154198"><ele>7.0</ele><time>2026-04-17T07:11:25Z</time></trkpt><trkpt lat="14.478276767272211" lon="120.89494740541572"><ele>7.0</ele><time>2026-04-17T07:11:27Z</time></trkpt><trkpt lat="14.47830540693202" lon="120.89502023005437"><ele>6.8</ele><time>2026-04-17T07:11:28Z</time></trkpt><trkpt lat="14.478335912099405" lon="120.89510735152248"><ele>6.6</ele><time>2026-04-17T07:11:29Z</time></trkpt><trkpt lat="14.478370037475607" lon="120.89519542530003"><ele>6.3999999999999995</ele><time>2026-04-17T07:11:30Z</time></trkpt><trkpt lat="14.478398206643138" lon="120.89526478307893"><ele>6.199999999999999</ele><time>2026-04-17T07:11:31Z</time></trkpt><trkpt lat="14.478424124964125" lon="120.8953282760229"><ele>6.0</ele><time>2026-04-17T07:11:32Z</time></trkpt><trkpt lat="14.478475017210958" lon="120.89545551814962"><ele>6.0</ele><time>2026-04-17T07:11:34Z</time></trkpt><trkpt lat="14.478500789759755" lon="120.89552745770328"><ele>6.0</ele><time>2026-04-17T07:11:35Z</time></trkpt><trkpt lat="14.478530107992373" lon="120.89560726894484"><ele>6.0</ele><time>2026-04-17T07:11:36Z</time></trkpt><trkpt lat="14.478559391748698" lon="120.8956912982172"><ele>6.0</ele><time>2026-04-17T07:11:37Z</time></trkpt><trkpt lat="14.478595952380342" lon="120.89578541404877"><ele>6.0</ele><time>2026-04-17T07:11:38Z</time></trkpt><trkpt lat="14.478639717405764" lon="120.89588242484818"><ele>6.0</ele><time>2026-04-17T07:11:39Z</time></trkpt><trkpt lat="14.47867937406348" lon="120.89598011151311"><ele>6.0</ele><time>2026-04-17T07:11:40Z</time></trkpt><trkpt lat="14.478716765580604" lon="120.89606949243728"><ele>6.0</ele><time>2026-04-17T07:11:41Z</time></trkpt><trkpt lat="14.478750510838486" lon="120.89614984394139"><ele>6.0</ele><time>2026-04-17T07:11:42Z</time></trkpt><trkpt lat="14.478783258364885" lon="120.89622671643964"><ele>6.0</ele><time>2026-04-17T07:11:43Z</time></trkpt><trkpt lat="14.478812096096084" lon="120.89629506220798"><ele>6.0</ele><time>2026-04-17T07:11:44Z</time></trkpt><trkpt lat="14.478833917874535" lon="120.89636258157378"><ele>6.0</ele><time>2026-04-17T07:11:45Z</time></trkpt><trkpt lat="14.478863283851348" lon="120.89644353210407"><ele>6.4</ele><time>2026-04-17T07:11:46Z</time></trkpt><trkpt lat="14.478896856293748" lon="120.8965341922886"><ele>6.8</ele><time>2026-04-17T07:11:47Z</time></trkpt><trkpt lat="14.478942353426056" lon="120.8966395848113"><ele>7.200000000000001</ele><time>2026-04-17T07:11:48Z</time></trkpt><trkpt lat="14.478977512439613" lon="120.89672476557861"><ele>7.6000000000000005</ele><time>2026-04-17T07:11:49Z</time></trkpt><trkpt lat="14.479015301194407" lon="120.89679492726772"><ele>8.0</ele><time>2026-04-17T07:11:50Z</time></trkpt><trkpt lat="14.479052976974268" lon="120.89687232616643"><ele>7.999999999999999</ele><time>2026-04-17T07:11:51Z</time></trkpt><trkpt lat="14.479086551846747" lon="120.89695778751782"><ele>8.0</ele><time>2026-04-17T07:11:52Z</time></trkpt><trkpt lat="14.479117991412458" lon="120.89702965154044"><ele>8.0</ele><time>2026-04-17T07:11:53Z</time></trkpt><trkpt lat="14.47914696063537" lon="120.89709925173646"><ele>8.0</ele><time>2026-04-17T07:11:54Z</time></trkpt><trkpt lat="14.479179453999341" lon="120.89716977716891"><ele>7.999999999999999</ele><time>2026-04-17T07:11:55Z</time></trkpt><trkpt lat="14.479211514740273" lon="120.89724366454764"><ele>8.0</ele><time>2026-04-17T07:11:56Z</time></trkpt><trkpt lat="14.479243350663413" lon="120.89731070893947"><ele>8.0</ele><time>2026-04-17T07:11:57Z</time></trkpt><trkpt lat="14.479271407902132" lon="120.89737300335246"><ele>8.0</ele><time>2026-04-17T07:11:58Z</time></trkpt><trkpt lat="14.479315535158026" lon="120.89748115723617"><ele>8.0</ele><time>2026-04-17T07:12:00Z</time></trkpt><trkpt lat="14.479361452771537" lon="120.89759284479265"><ele>8.0</ele><time>2026-04-17T07:12:02Z</time></trkpt><trkpt lat="14.479413539365062" lon="120.89771317651801"><ele>8.0</ele><time>2026-04-17T07:12:04Z</time></trkpt><trkpt lat="14.479439522451132" lon="120.89777898136929"><ele>8.0</ele><time>2026-04-17T07:12:05Z</time></trkpt><trkpt lat="14.479465431113532" lon="120.89784265791636"><ele>7.999999999999999</ele><time>2026-04-17T07:12:06Z</time></trkpt><trkpt lat="14.479491296039463" lon="120.89790381807278"><ele>8.0</ele><time>2026-04-17T07:12:07Z</time></trkpt><trkpt lat="14.479519655696063" lon="120.89797057922598"><ele>8.0</ele><time>2026-04-17T07:12:08Z</time></trkpt><trkpt lat="14.479548296382859" lon="120.89803663790684"><ele>7.999999999999999</ele><time>2026-04-17T07:12:09Z</time></trkpt><trkpt lat="14.479572144936709" lon="120.89810384354983"><ele>8.0</ele><time>2026-04-17T07:12:10Z</time></trkpt><trkpt lat="14.47960198333988" lon="120.89817476848272"><ele>8.0</ele><time>2026-04-17T07:12:11Z</time></trkpt><trkpt lat="14.479635571424948" lon="120.89824847091558"><ele>7.999999999999999</ele><time>2026-04-17T07:12:12Z</time></trkpt><trkpt lat="14.479666963192754" lon="120.89831318615775"><ele>8.0</ele><time>2026-04-17T07:12:13Z</time></trkpt><trkpt lat="14.479707933477732" lon="120.89842195131548"><ele>8.0</ele><time>2026-04-17T07:12:15Z</time></trkpt><trkpt lat="14.479731108357104" lon="120.89848329294722"><ele>8.0</ele><time>2026-04-17T07:12:16Z</time></trkpt><trkpt lat="14.479757603346885" lon="120.89854242275668"><ele>7.999999999999999</ele><time>2026-04-17T07:12:17Z</time></trkpt><trkpt lat="14.479788075538476" lon="120.89861400707139"><ele>8.0</ele><time>2026-04-17T07:12:18Z</time></trkpt><trkpt lat="14.47981726484991" lon="120.89868286440368"><ele>7.800000000000001</ele><time>2026-04-17T07:12:19Z</time></trkpt><trkpt lat="14.479851924979375" lon="120.89879558431062"><ele>7.6000000000000005</ele><time>2026-04-17T07:12:21Z</time></trkpt><trkpt lat="14.479845780284828" lon="120.89888593120403"><ele>7.3999999999999995</ele><time>2026-04-17T07:12:23Z</time></trkpt><trkpt lat="14.479743672273552" lon="120.89894017077339"><ele>7.199999999999999</ele><time>2026-04-17T07:12:25Z</time></trkpt><trkpt lat="14.479649803810391" lon="120.89897905880481"><ele>7.0</ele><time>2026-04-17T07:12:27Z</time></trkpt><trkpt lat="14.479585753810717" lon="120.89900490855159"><ele>6.833333333333334</ele><time>2026-04-17T07:12:29Z</time></trkpt><trkpt lat="14.479483152164555" lon="120.899029613708"><ele>6.666666666666667</ele><time>2026-04-17T07:12:33Z</time></trkpt><trkpt lat="14.479378918597925" lon="120.89907035652931"><ele>6.5</ele><time>2026-04-17T07:12:35Z</time></trkpt><trkpt lat="14.479315684191198" lon="120.89909207268003"><ele>6.333333333333334</ele><time>2026-04-17T07:12:36Z</time></trkpt><trkpt lat="14.479248634225382" lon="120.8991181753329"><ele>6.166666666666667</ele><time>2026-04-17T07:12:37Z</time></trkpt><trkpt lat="14.479182850620294" lon="120.89914579351172"><ele>6.0</ele><time>2026-04-17T07:12:38Z</time></trkpt><trkpt lat="14.479106649163812" lon="120.89918041137612"><ele>6.0</ele><time>2026-04-17T07:12:39Z</time></trkpt><trkpt lat="14.479042774065933" lon="120.89920806070991"><ele>6.0</ele><time>2026-04-17T07:12:40Z</time></trkpt><trkpt lat="14.478977143686338" lon="120.89923315825428"><ele>6.0</ele><time>2026-04-17T07:12:41Z</time></trkpt><trkpt lat="14.47884563013122" lon="120.89927594096517"><ele>6.0</ele><time>2026-04-17T07:12:43Z</time></trkpt><trkpt lat="14.478780898264741" lon="120.899291434063"><ele>6.0</ele><time>2026-04-17T07:12:44Z</time></trkpt><trkpt lat="14.478717136249326" lon="120.899313255567"><ele>6.0</ele><time>2026-04-17T07:12:45Z</time></trkpt><trkpt lat="14.478644024199394" lon="120.89933355774693"><ele>5.2</ele><time>2026-04-17T07:12:46Z</time></trkpt><trkpt lat="14.478573271315492" lon="120.899352652549"><ele>4.3999999999999995</ele><time>2026-04-17T07:12:47Z</time></trkpt><trkpt lat="14.478510693291971" lon="120.89937543392244"><ele>3.6</ele><time>2026-04-17T07:12:48Z</time></trkpt><trkpt lat="14.478431873696781" lon="120.89941487844166"><ele>2.8</ele><time>2026-04-17T07:12:50Z</time></trkpt><trkpt lat="14.478377531743538" lon="120.89927139050423"><ele>2.0</ele><time>2026-04-17T07:12:56Z</time></trkpt><trkpt lat="14.478344887275094" lon="120.8991846736533"><ele>1.9999999999999998</ele><time>2026-04-17T07:12:58Z</time></trkpt><trkpt lat="14.478319740584444" lon="120.89911787389643"><ele>2.0</ele><time>2026-04-17T07:13:00Z</time></trkpt><trkpt lat="14.478296853313763" lon="120.89905707608499"><ele>2.0</ele><time>2026-04-17T07:13:03Z</time></trkpt><trkpt lat="14.478261183757757" lon="120.89896280175753"><ele>2.0</ele><time>2026-04-17T07:13:06Z</time></trkpt><trkpt lat="14.478228949919473" lon="120.89887768785388"><ele>1.9999999999999998</ele><time>2026-04-17T07:13:08Z</time></trkpt><trkpt lat="14.47819382007937" lon="120.89878492704072"><ele>2.0</ele><time>2026-04-17T07:13:10Z</time></trkpt><trkpt lat="14.47816394569791" lon="120.89870604332313"><ele>1.9999999999999998</ele><time>2026-04-17T07:13:12Z</time></trkpt><trkpt lat="14.478140268958368" lon="120.89864352457649"><ele>2.0</ele><time>2026-04-17T07:13:16Z</time></trkpt><trkpt lat="14.478176685549844" lon="120.89875155477812"><ele>2.0</ele><time>2026-04-17T07:14:07Z</time></trkpt><trkpt lat="14.478205735623739" lon="120.89881892678585"><ele>2.0</ele><time>2026-04-17T07:14:08Z</time></trkpt><trkpt lat="14.478198857250472" lon="120.8988978014415"><ele>1.9999999999999998</ele><time>2026-04-17T07:14:09Z</time></trkpt><trkpt lat="14.478224723326576" lon="120.89896556855814"><ele>2.0</ele><time>2026-04-17T07:14:10Z</time></trkpt><trkpt lat="14.478247802628397" lon="120.89903423036554"><ele>2.0</ele><time>2026-04-17T07:14:11Z</time></trkpt><trkpt lat="14.478290565259996" lon="120.89914210236171"><ele>2.0</ele><time>2026-04-17T07:14:13Z</time></trkpt><trkpt lat="14.478337185535919" lon="120.8992359295099"><ele>2.0</ele><time>2026-04-17T07:14:15Z</time></trkpt><trkpt lat="14.478366507013352" lon="120.89931574174535"><ele>2.0</ele><time>2026-04-17T07:14:17Z</time></trkpt><trkpt lat="14.47842950938504" lon="120.89938170793747"><ele>2.0</ele><time>2026-04-17T07:14:40Z</time></trkpt><trkpt lat="14.478520549964928" lon="120.89939358871098"><ele>1.6666666666666665</ele><time>2026-04-17T07:14:42Z</time></trkpt><trkpt lat="14.478590396850297" lon="120.89939224340883"><ele>1.3333333333333333</ele><time>2026-04-17T07:14:43Z</time></trkpt><trkpt lat="14.47866369097406" lon="120.89936935809662"><ele>1.0</ele><time>2026-04-17T07:14:44Z</time></trkpt><trkpt lat="14.478745058648823" lon="120.89934447632078"><ele>0.6666666666666666</ele><time>2026-04-17T07:14:45Z</time></trkpt><trkpt lat="14.478831135562288" lon="120.89931815448195"><ele>0.3333333333333333</ele><time>2026-04-17T07:14:46Z</time></trkpt><trkpt lat="14.478919187500479" lon="120.89929122869027"><ele>0.0</ele><time>2026-04-17T07:14:47Z</time></trkpt><trkpt lat="14.479007816176322" lon="120.89926311656444"><ele>1.2</ele><time>2026-04-17T07:14:48Z</time></trkpt><trkpt lat="14.479105588605455" lon="120.8992255320209"><ele>2.4</ele><time>2026-04-17T07:14:49Z</time></trkpt><trkpt lat="14.479197951308114" lon="120.89918737480075"><ele>3.5999999999999996</ele><time>2026-04-17T07:14:50Z</time></trkpt><trkpt lat="14.47928805220626" lon="120.89915015199847"><ele>4.8</ele><time>2026-04-17T07:14:51Z</time></trkpt><trkpt lat="14.479366755363424" lon="120.89911763794336"><ele>6.0</ele><time>2026-04-17T07:14:52Z</time></trkpt><trkpt lat="14.479439320121381" lon="120.89908647510555"><ele>6.0</ele><time>2026-04-17T07:14:53Z</time></trkpt><trkpt lat="14.479503968081854" lon="120.89905902196082"><ele>6.0</ele><time>2026-04-17T07:14:54Z</time></trkpt><trkpt lat="14.479566671824106" lon="120.8990331198099"><ele>6.0</ele><time>2026-04-17T07:14:55Z</time></trkpt><trkpt lat="14.479653392684952" lon="120.89899692058708"><ele>6.0</ele><time>2026-04-17T07:14:57Z</time></trkpt><trkpt lat="14.479726121036562" lon="120.89895275603415"><ele>6.0</ele><time>2026-04-17T07:14:59Z</time></trkpt><trkpt lat="14.479789283793586" lon="120.89894221819435"><ele>6.0</ele><time>2026-04-17T07:15:00Z</time></trkpt><trkpt lat="14.47988082121605" lon="120.89894855542074"><ele>6.166666666666667</ele><time>2026-04-17T07:15:02Z</time></trkpt><trkpt lat="14.479952878062898" lon="120.89900206515183"><ele>6.333333333333334</ele><time>2026-04-17T07:15:04Z</time></trkpt><trkpt lat="14.479962721471892" lon="120.89906985764738"><ele>6.5</ele><time>2026-04-17T07:15:05Z</time></trkpt><trkpt lat="14.47998330663516" lon="120.89913364563616"><ele>6.666666666666667</ele><time>2026-04-17T07:15:06Z</time></trkpt><trkpt lat="14.480002622446078" lon="120.89919615898543"><ele>6.833333333333334</ele><time>2026-04-17T07:15:07Z</time></trkpt><trkpt lat="14.480027274742431" lon="120.89930253638057"><ele>7.0</ele><time>2026-04-17T07:15:09Z</time></trkpt><trkpt lat="14.480059844995491" lon="120.89941543071141"><ele>7.0</ele><time>2026-04-17T07:15:11Z</time></trkpt><trkpt lat="14.480089224286534" lon="120.89951352252486"><ele>6.999999999999999</ele><time>2026-04-17T07:15:13Z</time></trkpt><trkpt lat="14.480108233286304" lon="120.89960588827867"><ele>6.999999999999999</ele><time>2026-04-17T07:15:15Z</time></trkpt><trkpt lat="14.480132818495436" lon="120.89971714915367"><ele>7.0</ele><time>2026-04-17T07:15:17Z</time></trkpt><trkpt lat="14.480154511565377" lon="120.89983721591913"><ele>7.0</ele><time>2026-04-17T07:15:19Z</time></trkpt><trkpt lat="14.480171381752792" lon="120.89993256842723"><ele>7.0</ele><time>2026-04-17T07:15:21Z</time></trkpt><trkpt lat="14.48018860475093" lon="120.90001894296617"><ele>6.999999999999999</ele><time>2026-04-17T07:15:23Z</time></trkpt><trkpt lat="14.480210676655174" lon="120.90011906671786"><ele>6.999999999999999</ele><time>2026-04-17T07:15:25Z</time></trkpt><trkpt lat="14.480232244563915" lon="120.90021695342938"><ele>7.0</ele><time>2026-04-17T07:15:27Z</time></trkpt><trkpt lat="14.48024974772204" lon="120.90030889183444"><ele>7.0</ele><time>2026-04-17T07:15:29Z</time></trkpt><trkpt lat="14.480270449118594" lon="120.90040419808776"><ele>7.0</ele><time>2026-04-17T07:15:31Z</time></trkpt><trkpt lat="14.480290237192843" lon="120.90048385001035"><ele>7.0</ele><time>2026-04-17T07:15:33Z</time></trkpt><trkpt lat="14.480297505497889" lon="120.90055444480642"><ele>7.0</ele><time>2026-04-17T07:15:36Z</time></trkpt><trkpt lat="14.480300204757137" lon="120.900643851868"><ele>7.0</ele><time>2026-04-17T07:15:39Z</time></trkpt><trkpt lat="14.480309179327621" lon="120.90057543895792"><ele>7.0</ele><time>2026-04-17T07:16:09Z</time></trkpt><trkpt lat="14.480310591503208" lon="120.90050972919914"><ele>7.0</ele><time>2026-04-17T07:16:14Z</time></trkpt><trkpt lat="14.480299151035807" lon="120.90043942440957"><ele>7.0</ele><time>2026-04-17T07:16:43Z</time></trkpt><trkpt lat="14.480272011880812" lon="120.90054933506565"><ele>7.000000000000001</ele><time>2026-04-17T07:17:21Z</time></trkpt><trkpt lat="14.48029208694973" lon="120.90063481586675"><ele>7.0</ele><time>2026-04-17T07:17:22Z</time></trkpt><trkpt lat="14.480304971179642" lon="120.9007158743118"><ele>7.0</ele><time>2026-04-17T07:17:23Z</time></trkpt><trkpt lat="14.48031769305435" lon="120.90079978938715"><ele>7.0</ele><time>2026-04-17T07:17:24Z</time></trkpt><trkpt lat="14.480321236367638" lon="120.90086860234162"><ele>7.000000000000001</ele><time>2026-04-17T07:17:25Z</time></trkpt><trkpt lat="14.480322624317745" lon="120.90095228102948"><ele>7.0</ele><time>2026-04-17T07:17:27Z</time></trkpt><trkpt lat="14.480298920334663" lon="120.90101922796562"><ele>7.000000000000001</ele><time>2026-04-17T07:17:31Z</time></trkpt><trkpt lat="14.480323388876887" lon="120.90108225078306"><ele>7.0</ele><time>2026-04-17T07:17:35Z</time></trkpt><trkpt lat="14.480333679881936" lon="120.90115012862263"><ele>7.0</ele><time>2026-04-17T07:17:44.999Z</time></trkpt><trkpt lat="14.48037113295223" lon="120.90121770688567"><ele>7.0</ele><time>2026-04-17T07:17:54.999Z</time></trkpt><trkpt lat="14.480406770548324" lon="120.90128466601463"><ele>7.000000000000001</ele><time>2026-04-17T07:17:58.999Z</time></trkpt><trkpt lat="14.480442214659714" lon="120.90137345118626"><ele>7.0</ele><time>2026-04-17T07:18:01.999Z</time></trkpt><trkpt lat="14.48046132537061" lon="120.9014544452074"><ele>7.0</ele><time>2026-04-17T07:18:03.999Z</time></trkpt><trkpt lat="14.480491056246564" lon="120.9015308284758"><ele>7.0</ele><time>2026-04-17T07:18:05.999Z</time></trkpt><trkpt lat="14.480521212697163" lon="120.90159532883708"><ele>7.0</ele><time>2026-04-17T07:18:08Z</time></trkpt><trkpt lat="14.480543766233751" lon="120.90169764026409"><ele>7.0</ele><time>2026-04-17T07:18:10Z</time></trkpt><trkpt lat="14.480554424721367" lon="120.90176196037667"><ele>7.0</ele><time>2026-04-17T07:18:11Z</time></trkpt><trkpt lat="14.480559213561861" lon="120.90182799918436"><ele>7.0</ele><time>2026-04-17T07:18:12Z</time></trkpt><trkpt lat="14.48056290313439" lon="120.90189430829727"><ele>7.0</ele><time>2026-04-17T07:18:13Z</time></trkpt><trkpt lat="14.480568615447833" lon="120.90195999989182"><ele>7.0</ele><time>2026-04-17T07:18:14Z</time></trkpt><trkpt lat="14.48057201767071" lon="120.90207657486829"><ele>6.999999999999999</ele><time>2026-04-17T07:18:16Z</time></trkpt><trkpt lat="14.48057888602542" lon="120.90218463108204"><ele>6.999999999999999</ele><time>2026-04-17T07:18:18Z</time></trkpt><trkpt lat="14.480589067458137" lon="120.9022877072257"><ele>7.0</ele><time>2026-04-17T07:18:20Z</time></trkpt><trkpt lat="14.480594076505133" lon="120.90236936428647"><ele>7.0</ele><time>2026-04-17T07:18:22Z</time></trkpt><trkpt lat="14.480599059380545" lon="120.90244937930224"><ele>7.0</ele><time>2026-04-17T07:18:24Z</time></trkpt><trkpt lat="14.480600651033676" lon="120.90253361205974"><ele>6.999999999999999</ele><time>2026-04-17T07:18:26Z</time></trkpt><trkpt lat="14.480604807028543" lon="120.90262168899403"><ele>6.999999999999999</ele><time>2026-04-17T07:18:28Z</time></trkpt><trkpt lat="14.480607814434315" lon="120.90273275170634"><ele>7.0</ele><time>2026-04-17T07:18:30Z</time></trkpt><trkpt lat="14.480612844439296" lon="120.90279815199845"><ele>7.0</ele><time>2026-04-17T07:18:31Z</time></trkpt><trkpt lat="14.480621047732264" lon="120.9029188378494"><ele>7.000000000000001</ele><time>2026-04-17T07:18:33Z</time></trkpt><trkpt lat="14.48063029179304" lon="120.90303906287286"><ele>7.0</ele><time>2026-04-17T07:18:35Z</time></trkpt><trkpt lat="14.480640363972569" lon="120.90313164960695"><ele>7.0</ele><time>2026-04-17T07:18:37Z</time></trkpt><trkpt lat="14.480645641810455" lon="120.90322128773506"><ele>7.0</ele><time>2026-04-17T07:18:39Z</time></trkpt><trkpt lat="14.480648884658905" lon="120.90329163110611"><ele>7.000000000000001</ele><time>2026-04-17T07:18:41Z</time></trkpt><trkpt lat="14.480655032128064" lon="120.90335887151606"><ele>7.0</ele><time>2026-04-17T07:18:43Z</time></trkpt><trkpt lat="14.480662207855021" lon="120.9034457901688"><ele>7.000000000000001</ele><time>2026-04-17T07:18:46Z</time></trkpt><trkpt lat="14.48066752434995" lon="120.90351587366106"><ele>7.0</ele><time>2026-04-17T07:18:48Z</time></trkpt><trkpt lat="14.480676598447833" lon="120.90359053704715"><ele>7.0</ele><time>2026-04-17T07:18:51Z</time></trkpt><trkpt lat="14.480694547994577" lon="120.9036923681046"><ele>7.0</ele><time>2026-04-17T07:18:53Z</time></trkpt><trkpt lat="14.480712813195519" lon="120.90379974522408"><ele>7.000000000000001</ele><time>2026-04-17T07:18:55Z</time></trkpt><trkpt lat="14.480727403904213" lon="120.90389840932953"><ele>7.0</ele><time>2026-04-17T07:18:57Z</time></trkpt><trkpt lat="14.480743893852475" lon="120.90397119117056"><ele>7.0</ele><time>2026-04-17T07:18:58Z</time></trkpt><trkpt lat="14.48076183426525" lon="120.90406727713744"><ele>6.999999999999999</ele><time>2026-04-17T07:19:00Z</time></trkpt><trkpt lat="14.480778239874919" lon="120.90416369363201"><ele>6.999999999999999</ele><time>2026-04-17T07:19:02Z</time></trkpt><trkpt lat="14.48080357818217" lon="120.90428275154736"><ele>7.0</ele><time>2026-04-17T07:19:04Z</time></trkpt><trkpt lat="14.480815831853903" lon="120.90434653623679"><ele>7.0</ele><time>2026-04-17T07:19:05Z</time></trkpt><trkpt lat="14.480829901440353" lon="120.90442688351835"><ele>6.8</ele><time>2026-04-17T07:19:06Z</time></trkpt><trkpt lat="14.480854492303958" lon="120.90455345273432"><ele>6.6</ele><time>2026-04-17T07:19:08Z</time></trkpt><trkpt lat="14.480894087644662" lon="120.90467205431341"><ele>6.3999999999999995</ele><time>2026-04-17T07:19:10Z</time></trkpt><trkpt lat="14.480941021373603" lon="120.9047994097159"><ele>6.199999999999999</ele><time>2026-04-17T07:19:12Z</time></trkpt><trkpt lat="14.480968629943069" lon="120.9048632848273"><ele>6.0</ele><time>2026-04-17T07:19:13Z</time></trkpt><trkpt lat="14.480997095603076" lon="120.90493368035197"><ele>5.999999999999999</ele><time>2026-04-17T07:19:14Z</time></trkpt><trkpt lat="14.48102497816317" lon="120.90499609756804"><ele>6.0</ele><time>2026-04-17T07:19:15Z</time></trkpt><trkpt lat="14.481053467343902" lon="120.90506710310869"><ele>6.0</ele><time>2026-04-17T07:19:16Z</time></trkpt><trkpt lat="14.481083788358" lon="120.90514318435845"><ele>6.0</ele><time>2026-04-17T07:19:17Z</time></trkpt><trkpt lat="14.481110336955853" lon="120.9052097075654"><ele>6.0</ele><time>2026-04-17T07:19:18Z</time></trkpt><trkpt lat="14.481134029773783" lon="120.90527551061622"><ele>5.999999999999999</ele><time>2026-04-17T07:19:19Z</time></trkpt><trkpt lat="14.481158130994723" lon="120.9053413529343"><ele>6.0</ele><time>2026-04-17T07:19:20Z</time></trkpt><trkpt lat="14.481198896139405" lon="120.90546021142286"><ele>5.6</ele><time>2026-04-17T07:19:22Z</time></trkpt><trkpt lat="14.481235318785043" lon="120.9055681792553"><ele>5.199999999999999</ele><time>2026-04-17T07:19:24Z</time></trkpt><trkpt lat="14.481242764862538" lon="120.90565878976383"><ele>4.800000000000001</ele><time>2026-04-17T07:19:26Z</time></trkpt><trkpt lat="14.481234796348632" lon="120.90578079768315"><ele>4.4</ele><time>2026-04-17T07:19:28Z</time></trkpt><trkpt lat="14.481243973470832" lon="120.90585104348203"><ele>4.0</ele><time>2026-04-17T07:19:30Z</time></trkpt><trkpt lat="14.481229031586183" lon="120.90592344758353"><ele>3.333333333333333</ele><time>2026-04-17T07:19:38Z</time></trkpt><trkpt lat="14.481234533954954" lon="120.90600610615321"><ele>2.6666666666666665</ele><time>2026-04-17T07:19:41Z</time></trkpt><trkpt lat="14.481236629780467" lon="120.90608191169588"><ele>2.0</ele><time>2026-04-17T07:19:43Z</time></trkpt><trkpt lat="14.48124196647695" lon="120.90619394895329"><ele>1.3333333333333333</ele><time>2026-04-17T07:19:45Z</time></trkpt><trkpt lat="14.481248545227833" lon="120.90626258083692"><ele>0.6666666666666666</ele><time>2026-04-17T07:19:45.998Z</time></trkpt><trkpt lat="14.481254180619038" lon="120.90633069072223"><ele>0.0</ele><time>2026-04-17T07:19:46.998Z</time></trkpt><trkpt lat="14.481258319794325" lon="120.9063969319448"><ele>1.0</ele><time>2026-04-17T07:19:47.998Z</time></trkpt><trkpt lat="14.481267729857871" lon="120.90651890037392"><ele>2.0</ele><time>2026-04-17T07:19:49.998Z</time></trkpt><trkpt lat="14.481271890449714" lon="120.90661565476749"><ele>3.0</ele><time>2026-04-17T07:19:51.998Z</time></trkpt><trkpt lat="14.481275204566263" lon="120.90671806763855"><ele>4.0</ele><time>2026-04-17T07:19:53.998Z</time></trkpt><trkpt lat="14.481286286518495" lon="120.90684185074885"><ele>5.0</ele><time>2026-04-17T07:19:55.999Z</time></trkpt><trkpt lat="14.481291430472156" lon="120.90691068159593"><ele>5.0</ele><time>2026-04-17T07:19:56.999Z</time></trkpt><trkpt lat="14.481299969239501" lon="120.9070304692059"><ele>5.0</ele><time>2026-04-17T07:19:58.999Z</time></trkpt><trkpt lat="14.481307003975873" lon="120.90712368147571"><ele>5.0</ele><time>2026-04-17T07:20:00.999Z</time></trkpt><trkpt lat="14.481316073416256" lon="120.90719201789092"><ele>5.0</ele><time>2026-04-17T07:20:02.999Z</time></trkpt><trkpt lat="14.48131765685019" lon="120.90730680437565"><ele>5.0</ele><time>2026-04-17T07:20:04.999Z</time></trkpt><trkpt lat="14.481322238080415" lon="120.90737785781157"><ele>5.0</ele><time>2026-04-17T07:20:05.999Z</time></trkpt><trkpt lat="14.481327454985836" lon="120.90744267978647"><ele>5.0</ele><time>2026-04-17T07:20:06.999Z</time></trkpt><trkpt lat="14.48133502232402" lon="120.90751931064374"><ele>5.0</ele><time>2026-04-17T07:20:07.999Z</time></trkpt><trkpt lat="14.48133900241453" lon="120.90758446976325"><ele>5.0</ele><time>2026-04-17T07:20:08.999Z</time></trkpt><trkpt lat="14.48134210478624" lon="120.90765046624968"><ele>5.0</ele><time>2026-04-17T07:20:09.999Z</time></trkpt><trkpt lat="14.481349088588189" lon="120.907720765619"><ele>5.0</ele><time>2026-04-17T07:20:10.999Z</time></trkpt><trkpt lat="14.481358755676798" lon="120.90782770925844"><ele>5.0</ele><time>2026-04-17T07:20:12.999Z</time></trkpt><trkpt lat="14.481363390005837" lon="120.90794108541571"><ele>4.8</ele><time>2026-04-17T07:20:14.999Z</time></trkpt><trkpt lat="14.481333781913403" lon="120.90804430158342"><ele>4.6</ele><time>2026-04-17T07:20:16.999Z</time></trkpt><trkpt lat="14.481298494399743" lon="120.9081414542598"><ele>4.4</ele><time>2026-04-17T07:20:18.999Z</time></trkpt><trkpt lat="14.481264133724235" lon="120.90824383854368"><ele>4.2</ele><time>2026-04-17T07:20:20.999Z</time></trkpt><trkpt lat="14.48122905510452" lon="120.9083619947973"><ele>4.0</ele><time>2026-04-17T07:20:22.999Z</time></trkpt><trkpt lat="14.481188980197008" lon="120.9084608976251"><ele>4.4</ele><time>2026-04-17T07:20:24.999Z</time></trkpt><trkpt lat="14.481157237243906" lon="120.90857153633661"><ele>4.800000000000001</ele><time>2026-04-17T07:20:26.999Z</time></trkpt><trkpt lat="14.48113784379264" lon="120.90867562581063"><ele>5.199999999999999</ele><time>2026-04-17T07:20:28.999Z</time></trkpt><trkpt lat="14.48113044673035" lon="120.9087714368103"><ele>5.6</ele><time>2026-04-17T07:20:30.999Z</time></trkpt><trkpt lat="14.481125727853634" lon="120.90888078960477"><ele>6.0</ele><time>2026-04-17T07:20:32.999Z</time></trkpt><trkpt lat="14.481127442946677" lon="120.90898653283992"><ele>6.0</ele><time>2026-04-17T07:20:34.999Z</time></trkpt><trkpt lat="14.481166989056721" lon="120.90908748810241"><ele>6.0</ele><time>2026-04-17T07:20:36.999Z</time></trkpt><trkpt lat="14.481243913153502" lon="120.90917721973601"><ele>6.0</ele><time>2026-04-17T07:20:38.999Z</time></trkpt><trkpt lat="14.48128608052978" lon="120.90926931247444"><ele>6.0</ele><time>2026-04-17T07:20:40.999Z</time></trkpt><trkpt lat="14.481332017549036" lon="120.9093453510048"><ele>6.0</ele><time>2026-04-17T07:20:42.999Z</time></trkpt><trkpt lat="14.48137535556702" lon="120.90941708739074"><ele>6.199999999999999</ele><time>2026-04-17T07:20:44.999Z</time></trkpt><trkpt lat="14.481482140500615" lon="120.90939480547746"><ele>6.3999999999999995</ele><time>2026-04-17T07:20:45.999Z</time></trkpt><trkpt lat="14.481574615384734" lon="120.90940343785728"><ele>6.6</ele><time>2026-04-17T07:20:48Z</time></trkpt><trkpt lat="14.481674506742923" lon="120.90940805694629"><ele>6.8</ele><time>2026-04-17T07:20:50Z</time></trkpt><trkpt lat="14.4817865415467" lon="120.9094046752286"><ele>7.0</ele><time>2026-04-17T07:20:52Z</time></trkpt><trkpt lat="14.481882411608913" lon="120.90939949473184"><ele>7.0</ele><time>2026-04-17T07:20:54Z</time></trkpt><trkpt lat="14.481985037833747" lon="120.90939253960983"><ele>6.999999999999999</ele><time>2026-04-17T07:20:56Z</time></trkpt><trkpt lat="14.48207352631328" lon="120.90938798713347"><ele>6.999999999999999</ele><time>2026-04-17T07:20:58Z</time></trkpt><trkpt lat="14.482173476753134" lon="120.90938660480374"><ele>7.0</ele><time>2026-04-17T07:21:00Z</time></trkpt><trkpt lat="14.482270715355387" lon="120.90937471280493"><ele>7.0</ele><time>2026-04-17T07:21:02Z</time></trkpt><trkpt lat="14.482351398906212" lon="120.90937008737104"><ele>7.166666666666667</ele><time>2026-04-17T07:21:04Z</time></trkpt><trkpt lat="14.48241406912059" lon="120.90934190427949"><ele>7.333333333333334</ele><time>2026-04-17T07:26:33Z</time></trkpt><trkpt lat="14.482471568509746" lon="120.90937274098519"><ele>7.5</ele><time>2026-04-17T07:46:45Z</time></trkpt><trkpt lat="14.482554598146725" lon="120.90935818797952"><ele>7.666666666666666</ele><time>2026-04-17T07:46:47Z</time></trkpt><trkpt lat="14.482639026282627" lon="120.90935535794321"><ele>7.833333333333333</ele><time>2026-04-17T07:46:49Z</time></trkpt><trkpt lat="14.482721553180536" lon="120.90934886696499"><ele>8.0</ele><time>2026-04-17T07:46:51Z</time></trkpt><trkpt lat="14.4828025120814" lon="120.90933454014844"><ele>7.999999999999999</ele><time>2026-04-17T07:46:54Z</time></trkpt><trkpt lat="14.482858234802709" lon="120.90929461248986"><ele>8.0</ele><time>2026-04-17T07:47:29Z</time></trkpt><trkpt lat="14.48287716727555" lon="120.90920404530812"><ele>8.0</ele><time>2026-04-17T07:47:32Z</time></trkpt><trkpt lat="14.482876948771743" lon="120.90911938448775"><ele>8.0</ele><time>2026-04-17T07:47:34Z</time></trkpt><trkpt lat="14.482885148224923" lon="120.90902154425935"><ele>7.999999999999999</ele><time>2026-04-17T07:47:36Z</time></trkpt><trkpt lat="14.482879689542385" lon="120.90893187209983"><ele>8.0</ele><time>2026-04-17T07:47:39Z</time></trkpt><trkpt lat="14.482887829323749" lon="120.90884607225203"><ele>8.200000000000001</ele><time>2026-04-17T07:47:42Z</time></trkpt><trkpt lat="14.482877752230477" lon="120.90873628954475"><ele>8.4</ele><time>2026-04-17T07:47:44Z</time></trkpt><trkpt lat="14.482845715795879" lon="120.90865474405966"><ele>8.600000000000001</ele><time>2026-04-17T07:47:46Z</time></trkpt><trkpt lat="14.482776882827899" lon="120.90858056538791"><ele>8.8</ele><time>2026-04-17T07:47:49Z</time></trkpt><trkpt lat="14.482695748028934" lon="120.90851520247405"><ele>9.0</ele><time>2026-04-17T07:47:51Z</time></trkpt><trkpt lat="14.48261267341872" lon="120.90846386188636"><ele>9.0</ele><time>2026-04-17T07:47:53Z</time></trkpt><trkpt lat="14.482507414993426" lon="120.90842092331881"><ele>9.0</ele><time>2026-04-17T07:47:55Z</time></trkpt><trkpt lat="14.482382545541789" lon="120.90839769374253"><ele>9.0</ele><time>2026-04-17T07:47:57Z</time></trkpt><trkpt lat="14.48231077592287" lon="120.90838434237821"><ele>9.0</ele><time>2026-04-17T07:47:58Z</time></trkpt><trkpt lat="14.482245121289946" lon="120.90838663104026"><ele>9.0</ele><time>2026-04-17T07:47:59Z</time></trkpt><trkpt lat="14.482173472183069" lon="120.90837178951854"><ele>8.666666666666666</ele><time>2026-04-17T07:48:00Z</time></trkpt><trkpt lat="14.482094723615537" lon="120.90836033652451"><ele>8.333333333333334</ele><time>2026-04-17T07:48:01Z</time></trkpt><trkpt lat="14.482034597848417" lon="120.90833915506569"><ele>8.0</ele><time>2026-04-17T07:48:02Z</time></trkpt><trkpt lat="14.48195423164273" lon="120.90832711590815"><ele>7.666666666666667</ele><time>2026-04-17T07:48:03Z</time></trkpt><trkpt lat="14.481879125597224" lon="120.9083118129438"><ele>7.333333333333334</ele><time>2026-04-17T07:48:04Z</time></trkpt><trkpt lat="14.481813555035712" lon="120.90830021978081"><ele>7.0</ele><time>2026-04-17T07:48:05Z</time></trkpt><trkpt lat="14.48170407126975" lon="120.90828067984685"><ele>7.0</ele><time>2026-04-17T07:48:07Z</time></trkpt><trkpt lat="14.481612070536093" lon="120.90825658857929"><ele>6.999999999999999</ele><time>2026-04-17T07:48:09Z</time></trkpt><trkpt lat="14.481528284729938" lon="120.90821197252761"><ele>6.999999999999999</ele><time>2026-04-17T07:48:11Z</time></trkpt><trkpt lat="14.481495964047024" lon="120.90811150006881"><ele>7.0</ele><time>2026-04-17T07:48:13Z</time></trkpt><trkpt lat="14.481478462436526" lon="120.90804662054516"><ele>7.0</ele><time>2026-04-17T07:48:14Z</time></trkpt><trkpt lat="14.481455052746794" lon="120.90793635095395"><ele>7.0</ele><time>2026-04-17T07:48:16Z</time></trkpt><trkpt lat="14.481430851622124" lon="120.90781967784504"><ele>6.999999999999999</ele><time>2026-04-17T07:48:18Z</time></trkpt><trkpt lat="14.481417689439752" lon="120.9076911464467"><ele>6.999999999999999</ele><time>2026-04-17T07:48:20Z</time></trkpt><trkpt lat="14.481412892222037" lon="120.90761784845708"><ele>7.0</ele><time>2026-04-17T07:48:21Z</time></trkpt><trkpt lat="14.481405025854436" lon="120.90754908562195"><ele>7.0</ele><time>2026-04-17T07:48:22Z</time></trkpt><trkpt lat="14.481387694471472" lon="120.9074728813851"><ele>6.6</ele><time>2026-04-17T07:48:23Z</time></trkpt><trkpt lat="14.481389273215765" lon="120.90740683221036"><ele>6.199999999999999</ele><time>2026-04-17T07:48:24Z</time></trkpt><trkpt lat="14.481385633697549" lon="120.90728073951325"><ele>5.8</ele><time>2026-04-17T07:48:26Z</time></trkpt><trkpt lat="14.481376636227935" lon="120.90718149045752"><ele>5.4</ele><time>2026-04-17T07:48:28Z</time></trkpt><trkpt lat="14.481374954942835" lon="120.90710141745365"><ele>5.0</ele><time>2026-04-17T07:48:30Z</time></trkpt><trkpt lat="14.481372550985805" lon="120.90700608526132"><ele>5.0</ele><time>2026-04-17T07:48:32Z</time></trkpt><trkpt lat="14.48137011580546" lon="120.90690586358501"><ele>5.0</ele><time>2026-04-17T07:48:34Z</time></trkpt><trkpt lat="14.481361267098908" lon="120.90679372575399"><ele>5.0</ele><time>2026-04-17T07:48:36Z</time></trkpt><trkpt lat="14.481353740735937" lon="120.90667871998406"><ele>5.0</ele><time>2026-04-17T07:48:38Z</time></trkpt><trkpt lat="14.48134753283595" lon="120.90661118296113"><ele>5.0</ele><time>2026-04-17T07:48:39Z</time></trkpt><trkpt lat="14.48134896513755" lon="120.90650849373098"><ele>5.166666666666667</ele><time>2026-04-17T07:48:41Z</time></trkpt><trkpt lat="14.481340488541235" lon="120.90642386073944"><ele>5.333333333333334</ele><time>2026-04-17T07:48:43Z</time></trkpt><trkpt lat="14.48133727100907" lon="120.90633780935426"><ele>5.5</ele><time>2026-04-17T07:48:45Z</time></trkpt><trkpt lat="14.481356361288654" lon="120.90624677812751"><ele>5.666666666666667</ele><time>2026-04-17T07:48:47Z</time></trkpt><trkpt lat="14.481353316094111" lon="120.90615526775848"><ele>5.833333333333333</ele><time>2026-04-17T07:48:49Z</time></trkpt><trkpt lat="14.48136769813657" lon="120.90604916547166"><ele>6.0</ele><time>2026-04-17T07:48:51Z</time></trkpt><trkpt lat="14.481414276890721" lon="120.90593832811899"><ele>5.8</ele><time>2026-04-17T07:48:53Z</time></trkpt><trkpt lat="14.48145514374737" lon="120.9058438404408"><ele>5.6</ele><time>2026-04-17T07:48:55Z</time></trkpt><trkpt lat="14.481505203617786" lon="120.90572809774315"><ele>5.4</ele><time>2026-04-17T07:48:57Z</time></trkpt><trkpt lat="14.481547969339923" lon="120.90562921981005"><ele>5.2</ele><time>2026-04-17T07:48:59Z</time></trkpt><trkpt lat="14.481552091973311" lon="120.9055397822371"><ele>5.0</ele><time>2026-04-17T07:49:01Z</time></trkpt><trkpt lat="14.481549088935301" lon="120.90543415965631"><ele>5.0</ele><time>2026-04-17T07:49:03Z</time></trkpt><trkpt lat="14.481522772764546" lon="120.90530874917859"><ele>5.0</ele><time>2026-04-17T07:49:05Z</time></trkpt><trkpt lat="14.481508023419021" lon="120.90524042841852"><ele>5.0</ele><time>2026-04-17T07:49:06Z</time></trkpt><trkpt lat="14.48148332901167" lon="120.90511648877343"><ele>5.0</ele><time>2026-04-17T07:49:08Z</time></trkpt><trkpt lat="14.481454263519792" lon="120.9050100800808"><ele>5.0</ele><time>2026-04-17T07:49:10Z</time></trkpt><trkpt lat="14.481431479700909" lon="120.90491937825594"><ele>5.4</ele><time>2026-04-17T07:49:12Z</time></trkpt><trkpt lat="14.481402813357546" lon="120.9048133338051"><ele>5.8</ele><time>2026-04-17T07:49:14Z</time></trkpt><trkpt lat="14.481383352241906" lon="120.90474797085386"><ele>6.199999999999999</ele><time>2026-04-17T07:49:15Z</time></trkpt><trkpt lat="14.481354244426884" lon="120.90463878320425"><ele>6.6</ele><time>2026-04-17T07:49:17Z</time></trkpt><trkpt lat="14.481325604812476" lon="120.90452274860463"><ele>7.0</ele><time>2026-04-17T07:49:19Z</time></trkpt><trkpt lat="14.48130624451414" lon="120.90442992371996"><ele>7.0</ele><time>2026-04-17T07:49:21Z</time></trkpt><trkpt lat="14.48128256076958" lon="120.9043275200935"><ele>7.0</ele><time>2026-04-17T07:49:23Z</time></trkpt><trkpt lat="14.481256715226863" lon="120.90420123221269"><ele>7.0</ele><time>2026-04-17T07:49:25Z</time></trkpt><trkpt lat="14.481233973432333" lon="120.90407462252247"><ele>7.0</ele><time>2026-04-17T07:49:27Z</time></trkpt><trkpt lat="14.481215726982766" lon="120.90395449575979"><ele>7.0</ele><time>2026-04-17T07:49:29Z</time></trkpt><trkpt lat="14.481195949990363" lon="120.90383414302896"><ele>6.999999999999999</ele><time>2026-04-17T07:49:31Z</time></trkpt><trkpt lat="14.481181626829267" lon="120.90373715510766"><ele>6.999999999999999</ele><time>2026-04-17T07:49:33Z</time></trkpt><trkpt lat="14.481168758843319" lon="120.90362627243445"><ele>7.0</ele><time>2026-04-17T07:49:35Z</time></trkpt><trkpt lat="14.481150271505383" lon="120.90349983954566"><ele>7.0</ele><time>2026-04-17T07:49:37Z</time></trkpt><trkpt lat="14.481139928465296" lon="120.90343118121729"><ele>7.199999999999999</ele><time>2026-04-17T07:49:38Z</time></trkpt><trkpt lat="14.481119886585896" lon="120.90331353732373"><ele>7.3999999999999995</ele><time>2026-04-17T07:49:40Z</time></trkpt><trkpt lat="14.481108820928911" lon="120.9031967936133"><ele>7.6000000000000005</ele><time>2026-04-17T07:49:42Z</time></trkpt><trkpt lat="14.481101047054864" lon="120.90307668589408"><ele>7.800000000000001</ele><time>2026-04-17T07:49:44Z</time></trkpt><trkpt lat="14.481096694623847" lon="120.90300691346452"><ele>8.0</ele><time>2026-04-17T07:49:45Z</time></trkpt><trkpt lat="14.481090272703598" lon="120.90288213870588"><ele>7.999999999999999</ele><time>2026-04-17T07:49:47Z</time></trkpt><trkpt lat="14.481074305127375" lon="120.90276144538365"><ele>8.0</ele><time>2026-04-17T07:49:49Z</time></trkpt><trkpt lat="14.481069210011679" lon="120.90263638218181"><ele>8.0</ele><time>2026-04-17T07:49:51Z</time></trkpt><trkpt lat="14.481064991877048" lon="120.90257132602979"><ele>8.0</ele><time>2026-04-17T07:49:52Z</time></trkpt><trkpt lat="14.481059349263962" lon="120.90250259863154"><ele>7.999999999999999</ele><time>2026-04-17T07:49:53Z</time></trkpt><trkpt lat="14.481052615712292" lon="120.90242972563279"><ele>8.0</ele><time>2026-04-17T07:49:54Z</time></trkpt><trkpt lat="14.481046690031116" lon="120.90236006820659"><ele>7.833333333333333</ele><time>2026-04-17T07:49:55Z</time></trkpt><trkpt lat="14.481044084265307" lon="120.9022902129998"><ele>7.666666666666666</ele><time>2026-04-17T07:49:56Z</time></trkpt><trkpt lat="14.481036610628596" lon="120.9021591413402"><ele>7.5</ele><time>2026-04-17T07:49:58Z</time></trkpt><trkpt lat="14.481030288947348" lon="120.90209373402196"><ele>7.333333333333334</ele><time>2026-04-17T07:49:59Z</time></trkpt><trkpt lat="14.481022757182775" lon="120.90197258428493"><ele>7.166666666666667</ele><time>2026-04-17T07:50:01Z</time></trkpt><trkpt lat="14.48101717470047" lon="120.90190746804737"><ele>7.0</ele><time>2026-04-17T07:50:02Z</time></trkpt><trkpt lat="14.481002681063565" lon="120.90180670187554"><ele>7.0</ele><time>2026-04-17T07:50:04Z</time></trkpt><trkpt lat="14.480987205832363" lon="120.90170264427985"><ele>6.999999999999999</ele><time>2026-04-17T07:50:06Z</time></trkpt><trkpt lat="14.4809795594569" lon="120.90160308788126"><ele>6.999999999999999</ele><time>2026-04-17T07:50:08Z</time></trkpt><trkpt lat="14.480992113186728" lon="120.90153530916352"><ele>7.0</ele><time>2026-04-17T07:50:10Z</time></trkpt><trkpt lat="14.481075105387681" lon="120.90150220916756"><ele>7.0</ele><time>2026-04-17T07:50:13Z</time></trkpt><trkpt lat="14.4811814736788" lon="120.90147719624198"><ele>7.0</ele><time>2026-04-17T07:50:15Z</time></trkpt><trkpt lat="14.481291480195889" lon="120.90146832139605"><ele>6.999999999999999</ele><time>2026-04-17T07:50:17Z</time></trkpt><trkpt lat="14.481369313337701" lon="120.90147773106247"><ele>6.999999999999999</ele><time>2026-04-17T07:50:19Z</time></trkpt><trkpt lat="14.481440894575861" lon="120.90147177550216"><ele>7.0</ele><time>2026-04-17T07:50:23Z</time></trkpt><trkpt lat="14.481514908108219" lon="120.90132701401488"><ele>7.0</ele><time>2026-04-17T07:50:26Z</time></trkpt><trkpt lat="14.48151042127259" lon="120.90121080498803"><ele>7.0</ele><time>2026-04-17T07:50:28Z</time></trkpt><trkpt lat="14.48150605524944" lon="120.90109772502822"><ele>6.999999999999999</ele><time>2026-04-17T07:50:30Z</time></trkpt><trkpt lat="14.481502413420799" lon="120.90103100780476"><ele>6.999999999999999</ele><time>2026-04-17T07:50:31Z</time></trkpt><trkpt lat="14.48149713449937" lon="120.90092906996607"><ele>7.0</ele><time>2026-04-17T07:50:33Z</time></trkpt><trkpt lat="14.48149199782771" lon="120.90080873962665"><ele>7.0</ele><time>2026-04-17T07:50:35Z</time></trkpt><trkpt lat="14.481491285375846" lon="120.90074184843182"><ele>6.714285714285714</ele><time>2026-04-17T07:50:36Z</time></trkpt><trkpt lat="14.481490427781804" lon="120.90066132984924"><ele>6.428571428571429</ele><time>2026-04-17T07:50:37Z</time></trkpt><trkpt lat="14.481489591148245" lon="120.90058277908118"><ele>6.142857142857142</ele><time>2026-04-17T07:50:38Z</time></trkpt><trkpt lat="14.481488749852733" lon="120.90050379081086"><ele>5.857142857142858</ele><time>2026-04-17T07:50:39Z</time></trkpt><trkpt lat="14.481487976270362" lon="120.9004311598781"><ele>5.571428571428571</ele><time>2026-04-17T07:50:40Z</time></trkpt><trkpt lat="14.481487137554275" lon="120.90035241380967"><ele>5.285714285714286</ele><time>2026-04-17T07:50:41Z</time></trkpt><trkpt lat="14.481486368079896" lon="120.90028016866492"><ele>5.0</ele><time>2026-04-17T07:50:42Z</time></trkpt><trkpt lat="14.481485480911408" lon="120.90019687317242"><ele>5.0</ele><time>2026-04-17T07:50:43Z</time></trkpt><trkpt lat="14.481484224734215" lon="120.90007893209776"><ele>5.0</ele><time>2026-04-17T07:50:45Z</time></trkpt><trkpt lat="14.48148314146378" lon="120.89997722491754"><ele>5.0</ele><time>2026-04-17T07:50:47Z</time></trkpt><trkpt lat="14.481482335153869" lon="120.8999015212795"><ele>5.0</ele><time>2026-04-17T07:50:48Z</time></trkpt><trkpt lat="14.481481205962462" lon="120.89979550275558"><ele>5.0</ele><time>2026-04-17T07:50:50Z</time></trkpt><trkpt lat="14.48148017804019" lon="120.8996989919316"><ele>5.0</ele><time>2026-04-17T07:50:52Z</time></trkpt><trkpt lat="14.481481103591227" lon="120.89960785939141"><ele>5.0</ele><time>2026-04-17T07:50:54Z</time></trkpt><trkpt lat="14.481481358757808" lon="120.8995132122641"><ele>5.0</ele><time>2026-04-17T07:50:56Z</time></trkpt><trkpt lat="14.481481629576262" lon="120.89941275912098"><ele>5.0</ele><time>2026-04-17T07:50:58Z</time></trkpt><trkpt lat="14.48148180838066" lon="120.89934643660463"><ele>5.0</ele><time>2026-04-17T07:50:59Z</time></trkpt><trkpt lat="14.481482007073053" lon="120.89927273679142"><ele>5.0</ele><time>2026-04-17T07:51:00Z</time></trkpt><trkpt lat="14.481482216671317" lon="120.89919499230433"><ele>5.333333333333334</ele><time>2026-04-17T07:51:01Z</time></trkpt><trkpt lat="14.481482404728228" lon="120.89912523752554"><ele>5.666666666666667</ele><time>2026-04-17T07:51:02Z</time></trkpt><trkpt lat="14.481482730677653" lon="120.89900433559463"><ele>6.0</ele><time>2026-04-17T07:51:04Z</time></trkpt><trkpt lat="14.481482928870502" lon="120.89893082132949"><ele>6.333333333333334</ele><time>2026-04-17T07:51:05Z</time></trkpt><trkpt lat="14.481483107016013" lon="120.89886474257521"><ele>6.666666666666667</ele><time>2026-04-17T07:51:06Z</time></trkpt><trkpt lat="14.481483436239598" lon="120.89874262755922"><ele>7.0</ele><time>2026-04-17T07:51:08Z</time></trkpt><trkpt lat="14.481477357830684" lon="120.8986777102973"><ele>7.0</ele><time>2026-04-17T07:51:09Z</time></trkpt><trkpt lat="14.481457121287553" lon="120.89859652295152"><ele>6.999999999999999</ele><time>2026-04-17T07:51:10Z</time></trkpt><trkpt lat="14.481465677884401" lon="120.89846732151094"><ele>6.999999999999999</ele><time>2026-04-17T07:51:12Z</time></trkpt><trkpt lat="14.481461433198415" lon="120.89839086276982"><ele>7.0</ele><time>2026-04-17T07:51:13Z</time></trkpt><trkpt lat="14.481454351015255" lon="120.8982632927159"><ele>7.0</ele><time>2026-04-17T07:51:15Z</time></trkpt><trkpt lat="14.481450208465903" lon="120.89818867405576"><ele>7.0</ele><time>2026-04-17T07:51:16Z</time></trkpt><trkpt lat="14.481435292809225" lon="120.8981148536006"><ele>6.999999999999999</ele><time>2026-04-17T07:51:17Z</time></trkpt><trkpt lat="14.481417964002542" lon="120.89799864184381"><ele>6.999999999999999</ele><time>2026-04-17T07:51:19Z</time></trkpt><trkpt lat="14.481398726033353" lon="120.89786962674121"><ele>7.0</ele><time>2026-04-17T07:51:21Z</time></trkpt><trkpt lat="14.481388395723643" lon="120.8978003488668"><ele>7.0</ele><time>2026-04-17T07:51:22Z</time></trkpt><trkpt lat="14.481376989082355" lon="120.89772385281347"><ele>7.0</ele><time>2026-04-17T07:51:23Z</time></trkpt><trkpt lat="14.481365786143407" lon="120.89764872283385"><ele>7.0</ele><time>2026-04-17T07:51:24Z</time></trkpt><trkpt lat="14.481354533557374" lon="120.89757325990514"><ele>7.0</ele><time>2026-04-17T07:51:25Z</time></trkpt><trkpt lat="14.48134278037207" lon="120.89749443984678"><ele>7.0</ele><time>2026-04-17T07:51:26Z</time></trkpt><trkpt lat="14.481331517272478" lon="120.89741890663686"><ele>7.0</ele><time>2026-04-17T07:51:27Z</time></trkpt><trkpt lat="14.48131892101298" lon="120.89734031567004"><ele>7.0</ele><time>2026-04-17T07:51:28Z</time></trkpt><trkpt lat="14.481309650903777" lon="120.89726942232043"><ele>7.0</ele><time>2026-04-17T07:51:29Z</time></trkpt><trkpt lat="14.481300503175873" lon="120.897201317785"><ele>7.000000000000001</ele><time>2026-04-17T07:51:30Z</time></trkpt><trkpt lat="14.481290852847462" lon="120.89712947140157"><ele>7.0</ele><time>2026-04-17T07:51:31Z</time></trkpt><trkpt lat="14.481279173397539" lon="120.89704251826002"><ele>7.0</ele><time>2026-04-17T07:51:32Z</time></trkpt><trkpt lat="14.481268336696292" lon="120.89696183935456"><ele>7.0</ele><time>2026-04-17T07:51:33Z</time></trkpt><trkpt lat="14.481257113428017" lon="120.8968782824782"><ele>7.000000000000001</ele><time>2026-04-17T07:51:34Z</time></trkpt><trkpt lat="14.481243910667459" lon="120.89680045809293"><ele>7.0</ele><time>2026-04-17T07:51:35Z</time></trkpt><trkpt lat="14.481227851097422" lon="120.89670577549822"><ele>6.833333333333334</ele><time>2026-04-17T07:51:36Z</time></trkpt><trkpt lat="14.481213338129628" lon="120.8966202112275"><ele>6.666666666666667</ele><time>2026-04-17T07:51:37Z</time></trkpt><trkpt lat="14.481199069514483" lon="120.89653608759176"><ele>6.5</ele><time>2026-04-17T07:51:38Z</time></trkpt><trkpt lat="14.481184091432292" lon="120.8964477811422"><ele>6.333333333333334</ele><time>2026-04-17T07:51:39Z</time></trkpt><trkpt lat="14.481169662106767" lon="120.8963627100073"><ele>6.166666666666667</ele><time>2026-04-17T07:51:40Z</time></trkpt><trkpt lat="14.481155325607027" lon="120.89627818615148"><ele>6.0</ele><time>2026-04-17T07:51:41Z</time></trkpt><trkpt lat="14.481139806693337" lon="120.8962011214506"><ele>6.0</ele><time>2026-04-17T07:51:42Z</time></trkpt><trkpt lat="14.481122899633398" lon="120.89611813288921"><ele>6.0</ele><time>2026-04-17T07:51:43Z</time></trkpt><trkpt lat="14.481106846961753" lon="120.89603933811627"><ele>6.0</ele><time>2026-04-17T07:51:44Z</time></trkpt><trkpt lat="14.481089459466864" lon="120.89595399134946"><ele>6.0</ele><time>2026-04-17T07:51:45Z</time></trkpt><trkpt lat="14.481073106036034" lon="120.89587372029341"><ele>6.0</ele><time>2026-04-17T07:51:46Z</time></trkpt><trkpt lat="14.481055101837176" lon="120.89578534642092"><ele>6.0</ele><time>2026-04-17T07:51:47Z</time></trkpt><trkpt lat="14.481038360179438" lon="120.89570316987864"><ele>5.999999999999999</ele><time>2026-04-17T07:51:48Z</time></trkpt><trkpt lat="14.481022515303259" lon="120.89563010340002"><ele>6.0</ele><time>2026-04-17T07:51:49Z</time></trkpt><trkpt lat="14.481005359465819" lon="120.8955496621973"><ele>6.0</ele><time>2026-04-17T07:51:50Z</time></trkpt><trkpt lat="14.480989159692632" lon="120.89547370383096"><ele>6.0</ele><time>2026-04-17T07:51:51Z</time></trkpt><trkpt lat="14.480971624898572" lon="120.89539148576739"><ele>6.0</ele><time>2026-04-17T07:51:52Z</time></trkpt><trkpt lat="14.480957529094447" lon="120.89532539259994"><ele>5.999999999999999</ele><time>2026-04-17T07:51:53Z</time></trkpt><trkpt lat="14.480941973700899" lon="120.89525245564568"><ele>6.0</ele><time>2026-04-17T07:51:54Z</time></trkpt><trkpt lat="14.480915480618188" lon="120.8951282335518"><ele>6.333333333333333</ele><time>2026-04-17T07:51:56Z</time></trkpt><trkpt lat="14.480848055255864" lon="120.89506461242432"><ele>6.666666666666666</ele><time>2026-04-17T07:51:57Z</time></trkpt><trkpt lat="14.480791964212566" lon="120.89500341113319"><ele>7.0</ele><time>2026-04-17T07:51:59Z</time></trkpt><trkpt lat="14.480739373650787" lon="120.89494602924229"><ele>7.333333333333333</ele><time>2026-04-17T07:52:01Z</time></trkpt><trkpt lat="14.48068776333478" lon="120.89488971690167"><ele>7.666666666666666</ele><time>2026-04-17T07:52:03Z</time></trkpt><trkpt lat="14.480641618418478" lon="120.89483936789279"><ele>8.0</ele><time>2026-04-17T07:52:06Z</time></trkpt><trkpt lat="14.48059560509738" lon="120.8947891627227"><ele>8.0</ele><time>2026-04-17T07:52:09Z</time></trkpt><trkpt lat="14.480540587482258" lon="120.89468195977896"><ele>8.0</ele><time>2026-04-17T07:52:11Z</time></trkpt><trkpt lat="14.480491475030114" lon="120.89460494715797"><ele>8.0</ele><time>2026-04-17T07:52:13Z</time></trkpt><trkpt lat="14.48053157864908" lon="120.89466783315639"><ele>8.0</ele><time>2026-04-17T07:52:28Z</time></trkpt><trkpt lat="14.480579290806421" lon="120.89474264990716"><ele>8.0</ele><time>2026-04-17T07:52:30Z</time></trkpt><trkpt lat="14.480625992038982" lon="120.89481588169652"><ele>8.0</ele><time>2026-04-17T07:52:33Z</time></trkpt><trkpt lat="14.480484432447463" lon="120.89486545497161"><ele>8.0</ele><time>2026-04-17T07:52:36Z</time></trkpt><trkpt lat="14.480362045903282" lon="120.89489600742986"><ele>8.0</ele><time>2026-04-17T07:52:38Z</time></trkpt><trkpt lat="14.48026680145393" lon="120.89491978415948"><ele>8.0</ele><time>2026-04-17T07:52:40Z</time></trkpt><trkpt lat="14.48017245353233" lon="120.89494333708446"><ele>7.666666666666666</ele><time>2026-04-17T07:52:42Z</time></trkpt><trkpt lat="14.480101966080115" lon="120.89496093350282"><ele>7.333333333333333</ele><time>2026-04-17T07:52:46Z</time></trkpt><trkpt lat="14.480029344939158" lon="120.89497906257115"><ele>7.0</ele><time>2026-04-17T07:52:50Z</time></trkpt><trkpt lat="14.479930441270566" lon="120.89500355180353"><ele>6.666666666666666</ele><time>2026-04-17T07:52:52Z</time></trkpt><trkpt lat="14.479824558773766" lon="120.89502994532359"><ele>6.333333333333333</ele><time>2026-04-17T07:52:54Z</time></trkpt><trkpt lat="14.479760391953889" lon="120.89504655130858"><ele>6.0</ele><time>2026-04-17T07:52:57Z</time></trkpt><trkpt lat="14.479684074975966" lon="120.89506902625429"><ele>6.0</ele><time>2026-04-17T08:05:54Z</time></trkpt><trkpt lat="14.479612633149053" lon="120.89508411981352"><ele>6.0</ele><time>2026-04-17T08:05:58Z</time></trkpt><trkpt lat="14.47954245405808" lon="120.89510900899901"><ele>6.0</ele><time>2026-04-17T08:06:01Z</time></trkpt><trkpt lat="14.479463018098645" lon="120.89513759621863"><ele>6.0</ele><time>2026-04-17T08:06:03Z</time></trkpt><trkpt lat="14.479364899114273" lon="120.8951422476224"><ele>6.0</ele><time>2026-04-17T08:06:05Z</time></trkpt><trkpt lat="14.47925292608046" lon="120.89517651838835"><ele>6.0</ele><time>2026-04-17T08:06:07Z</time></trkpt><trkpt lat="14.479129304315169" lon="120.89521520246856"><ele>6.0</ele><time>2026-04-17T08:06:09Z</time></trkpt><trkpt lat="14.479058848695734" lon="120.89523456513538"><ele>6.0</ele><time>2026-04-17T08:06:10Z</time></trkpt><trkpt lat="14.478951138190734" lon="120.89525213785373"><ele>6.0</ele><time>2026-04-17T08:06:12Z</time></trkpt><trkpt lat="14.478842998260165" lon="120.89529804707651"><ele>6.0</ele><time>2026-04-17T08:06:14Z</time></trkpt><trkpt lat="14.478759748554305" lon="120.89531452303726"><ele>6.0</ele><time>2026-04-17T08:06:16Z</time></trkpt><trkpt lat="14.478679632048934" lon="120.89533303209733"><ele>6.0</ele><time>2026-04-17T08:06:18Z</time></trkpt><trkpt lat="14.478597776370645" lon="120.89535260118804"><ele>6.0</ele><time>2026-04-17T08:06:21Z</time></trkpt><trkpt lat="14.478527451651107" lon="120.89537694384303"><ele>6.0</ele><time>2026-04-17T08:06:24Z</time></trkpt><trkpt lat="14.478465382145739" lon="120.8953923650144"><ele>6.0</ele><time>2026-04-17T08:06:27Z</time></trkpt><trkpt lat="14.478430818667883" lon="120.8952739802404"><ele>6.0</ele><time>2026-04-17T08:06:32Z</time></trkpt><trkpt lat="14.47840596723037" lon="120.89521092022615"><ele>6.0</ele><time>2026-04-17T08:06:33Z</time></trkpt><trkpt lat="14.478356895303854" lon="120.89508640112126"><ele>6.199999999999999</ele><time>2026-04-17T08:06:35Z</time></trkpt><trkpt lat="14.478328855593016" lon="120.89501525089408"><ele>6.3999999999999995</ele><time>2026-04-17T08:06:36Z</time></trkpt><trkpt lat="14.478299213747254" lon="120.89494003527862"><ele>6.6</ele><time>2026-04-17T08:06:37Z</time></trkpt><trkpt lat="14.478271335425344" lon="120.89486929468445"><ele>6.8</ele><time>2026-04-17T08:06:38Z</time></trkpt><trkpt lat="14.47823040536055" lon="120.89476409521275"><ele>7.0</ele><time>2026-04-17T08:06:40Z</time></trkpt><trkpt lat="14.478186858613489" lon="120.89465244075589"><ele>7.0</ele><time>2026-04-17T08:06:42Z</time></trkpt><trkpt lat="14.478147869695984" lon="120.89455267431157"><ele>6.999999999999999</ele><time>2026-04-17T08:06:44Z</time></trkpt><trkpt lat="14.47810749277932" lon="120.89444961403501"><ele>6.999999999999999</ele><time>2026-04-17T08:06:46Z</time></trkpt><trkpt lat="14.478067054276412" lon="120.89434639655897"><ele>7.0</ele><time>2026-04-17T08:06:48Z</time></trkpt><trkpt lat="14.478022662909826" lon="120.89423308957934"><ele>7.0</ele><time>2026-04-17T08:06:50Z</time></trkpt><trkpt lat="14.477996487516247" lon="120.89416627805329"><ele>7.199999999999999</ele><time>2026-04-17T08:06:51Z</time></trkpt><trkpt lat="14.477956876352053" lon="120.89410417310054"><ele>7.3999999999999995</ele><time>2026-04-17T08:06:52Z</time></trkpt><trkpt lat="14.477926270694676" lon="120.89398741880873"><ele>7.6000000000000005</ele><time>2026-04-17T08:06:54Z</time></trkpt><trkpt lat="14.477894661235396" lon="120.89390693044398"><ele>7.800000000000001</ele><time>2026-04-17T08:06:56Z</time></trkpt><trkpt lat="14.477864523415347" lon="120.89383018939458"><ele>8.0</ele><time>2026-04-17T08:06:58Z</time></trkpt><trkpt lat="14.477801832599825" lon="120.89371241969609"><ele>7.833333333333333</ele><time>2026-04-17T08:07:00Z</time></trkpt><trkpt lat="14.47777409183564" lon="120.89362998999358"><ele>7.666666666666666</ele><time>2026-04-17T08:07:01Z</time></trkpt><trkpt lat="14.477743344657936" lon="120.8935495513117"><ele>7.5</ele><time>2026-04-17T08:07:02Z</time></trkpt><trkpt lat="14.477730660617548" lon="120.8934731587748"><ele>7.333333333333334</ele><time>2026-04-17T08:07:03Z</time></trkpt><trkpt lat="14.477700587128117" lon="120.89339289846461"><ele>7.166666666666667</ele><time>2026-04-17T08:07:04Z</time></trkpt><trkpt lat="14.477669059446292" lon="120.8933088651894"><ele>7.0</ele><time>2026-04-17T08:07:05Z</time></trkpt><trkpt lat="14.477638988274684" lon="120.89322888312131"><ele>7.0</ele><time>2026-04-17T08:07:06Z</time></trkpt><trkpt lat="14.477611552580505" lon="120.89316083010216"><ele>6.999999999999999</ele><time>2026-04-17T08:07:07Z</time></trkpt><trkpt lat="14.477558279491063" lon="120.89302649986743"><ele>6.999999999999999</ele><time>2026-04-17T08:07:09Z</time></trkpt><trkpt lat="14.47752747597824" lon="120.89294882757153"><ele>7.0</ele><time>2026-04-17T08:07:10Z</time></trkpt><trkpt lat="14.477497038453016" lon="120.89287207811108"><ele>7.0</ele><time>2026-04-17T08:07:11Z</time></trkpt><trkpt lat="14.477461190543803" lon="120.89278491283572"><ele>7.0</ele><time>2026-04-17T08:07:12Z</time></trkpt><trkpt lat="14.477422659373962" lon="120.8926915626381"><ele>6.999999999999999</ele><time>2026-04-17T08:07:13Z</time></trkpt><trkpt lat="14.477384474373396" lon="120.89259905112425"><ele>6.999999999999999</ele><time>2026-04-17T08:07:14Z</time></trkpt><trkpt lat="14.477346481256786" lon="120.89250700448171"><ele>7.0</ele><time>2026-04-17T08:07:15Z</time></trkpt><trkpt lat="14.477307285927996" lon="120.8924125775965"><ele>7.0</ele><time>2026-04-17T08:07:16Z</time></trkpt><trkpt lat="14.477274037888677" lon="120.89233179383986"><ele>6.833333333333334</ele><time>2026-04-17T08:07:17Z</time></trkpt><trkpt lat="14.477241499664881" lon="120.89225294416252"><ele>6.666666666666667</ele><time>2026-04-17T08:07:18Z</time></trkpt><trkpt lat="14.47721137062072" lon="120.89217971434084"><ele>6.5</ele><time>2026-04-17T08:07:19Z</time></trkpt><trkpt lat="14.477182610085054" lon="120.89210955606093"><ele>6.333333333333334</ele><time>2026-04-17T08:07:20Z</time></trkpt><trkpt lat="14.477152535830626" lon="120.89203618647268"><ele>6.166666666666667</ele><time>2026-04-17T08:07:21Z</time></trkpt><trkpt lat="14.477120141036936" lon="120.89195889026325"><ele>6.0</ele><time>2026-04-17T08:07:22Z</time></trkpt><trkpt lat="14.477087501642652" lon="120.8918816283423"><ele>6.0</ele><time>2026-04-17T08:07:23Z</time></trkpt><trkpt lat="14.477058998164406" lon="120.89181649460193"><ele>6.0</ele><time>2026-04-17T08:07:24Z</time></trkpt><trkpt lat="14.477013089036067" lon="120.89171080221278"><ele>6.0</ele><time>2026-04-17T08:07:26Z</time></trkpt><trkpt lat="14.476965685643377" lon="120.89160166974895"><ele>6.0</ele><time>2026-04-17T08:07:28Z</time></trkpt><trkpt lat="14.476938462589683" lon="120.89153899661747"><ele>6.0</ele><time>2026-04-17T08:07:29Z</time></trkpt><trkpt lat="14.476914088413874" lon="120.89147729403454"><ele>6.0</ele><time>2026-04-17T08:07:30Z</time></trkpt><trkpt lat="14.476887342243662" lon="120.89140907849814"><ele>5.6</ele><time>2026-04-17T08:07:31Z</time></trkpt><trkpt lat="14.47685790243433" lon="120.89133399289602"><ele>5.199999999999999</ele><time>2026-04-17T08:07:32Z</time></trkpt><trkpt lat="14.476809560827427" lon="120.89121069865455"><ele>4.800000000000001</ele><time>2026-04-17T08:07:34Z</time></trkpt><trkpt lat="14.476781054175246" lon="120.89113799304724"><ele>4.4</ele><time>2026-04-17T08:07:35Z</time></trkpt><trkpt lat="14.476756801229856" lon="120.89107613642174"><ele>4.0</ele><time>2026-04-17T08:07:36Z</time></trkpt><trkpt lat="14.47671747869263" lon="120.8909758451282"><ele>4.333333333333333</ele><time>2026-04-17T08:07:38Z</time></trkpt><trkpt lat="14.476691309803314" lon="120.89091380749925"><ele>4.666666666666666</ele><time>2026-04-17T08:07:39Z</time></trkpt><trkpt lat="14.476663867723246" lon="120.89085217067472"><ele>5.0</ele><time>2026-04-17T08:07:40Z</time></trkpt><trkpt lat="14.476605806876353" lon="120.89072176194682"><ele>5.333333333333333</ele><time>2026-04-17T08:07:42Z</time></trkpt><trkpt lat="14.476578428905627" lon="120.89066026911664"><ele>5.666666666666667</ele><time>2026-04-17T08:07:43Z</time></trkpt><trkpt lat="14.476535230168002" lon="120.89056324172249"><ele>6.0</ele><time>2026-04-17T08:07:45Z</time></trkpt><trkpt lat="14.476490944196014" lon="120.89046377233865"><ele>6.0</ele><time>2026-04-17T08:07:47Z</time></trkpt><trkpt lat="14.476439252961232" lon="120.89034767020725"><ele>6.0</ele><time>2026-04-17T08:07:49Z</time></trkpt><trkpt lat="14.47639541558605" lon="120.89024920839299"><ele>6.0</ele><time>2026-04-17T08:07:51Z</time></trkpt><trkpt lat="14.47635078655374" lon="120.89014971667201"><ele>6.0</ele><time>2026-04-17T08:07:53Z</time></trkpt><trkpt lat="14.47629692026287" lon="120.89002964289557"><ele>6.166666666666667</ele><time>2026-04-17T08:07:55Z</time></trkpt><trkpt lat="14.47626886645409" lon="120.88996710815833"><ele>6.333333333333334</ele><time>2026-04-17T08:07:56Z</time></trkpt><trkpt lat="14.476231706369784" lon="120.88988332271329"><ele>6.5</ele><time>2026-04-17T08:07:58Z</time></trkpt><trkpt lat="14.476194214691468" lon="120.88979912057519"><ele>6.666666666666667</ele><time>2026-04-17T08:08:01Z</time></trkpt><trkpt lat="14.476157138068906" lon="120.88971585057112"><ele>6.833333333333334</ele><time>2026-04-17T08:08:03Z</time></trkpt><trkpt lat="14.476116025635724" lon="120.88966302043117"><ele>7.0</ele><time>2026-04-17T08:08:05Z</time></trkpt><trkpt lat="14.476096685626379" lon="120.88957995775817"><ele>7.0</ele><time>2026-04-17T08:08:19Z</time></trkpt><trkpt lat="14.476069950389201" lon="120.88951985648333"><ele>6.999999999999999</ele><time>2026-04-17T08:08:23Z</time></trkpt><trkpt lat="14.476031934905839" lon="120.88944416791414"><ele>6.999999999999999</ele><time>2026-04-17T08:08:26Z</time></trkpt><trkpt lat="14.475984282561868" lon="120.88933506560363"><ele>7.0</ele><time>2026-04-17T08:08:28Z</time></trkpt><trkpt lat="14.475935057556615" lon="120.8892569066725"><ele>7.0</ele><time>2026-04-17T08:08:30Z</time></trkpt><trkpt lat="14.475886176033915" lon="120.88916272250137"><ele>7.0</ele><time>2026-04-17T08:08:32Z</time></trkpt><trkpt lat="14.47586239114858" lon="120.88910100759146"><ele>7.0</ele><time>2026-04-17T08:08:33Z</time></trkpt><trkpt lat="14.47583607410403" lon="120.88903551471098"><ele>7.0</ele><time>2026-04-17T08:08:34Z</time></trkpt><trkpt lat="14.47581011785309" lon="120.88896481380665"><ele>7.0</ele><time>2026-04-17T08:08:35Z</time></trkpt><trkpt lat="14.475784869653683" lon="120.88889432980605"><ele>7.0</ele><time>2026-04-17T08:08:36Z</time></trkpt><trkpt lat="14.47576379954537" lon="120.88882678824676"><ele>7.0</ele><time>2026-04-17T08:08:37Z</time></trkpt><trkpt lat="14.475736530661814" lon="120.8887552066943"><ele>7.0</ele><time>2026-04-17T08:08:38Z</time></trkpt><trkpt lat="14.47570705374694" lon="120.88868128358438"><ele>7.000000000000001</ele><time>2026-04-17T08:08:39Z</time></trkpt><trkpt lat="14.475680894063425" lon="120.88861685387974"><ele>7.0</ele><time>2026-04-17T08:08:40Z</time></trkpt><trkpt lat="14.475627838915969" lon="120.88849316590125"><ele>7.0</ele><time>2026-04-17T08:08:42Z</time></trkpt><trkpt lat="14.475600845955501" lon="120.88843080481426"><ele>7.0</ele><time>2026-04-17T08:08:43Z</time></trkpt><trkpt lat="14.475568475213374" lon="120.88836127282035"><ele>7.000000000000001</ele><time>2026-04-17T08:08:44Z</time></trkpt><trkpt lat="14.475536930732906" lon="120.8882885765349"><ele>7.0</ele><time>2026-04-17T08:08:45Z</time></trkpt><trkpt lat="14.475504609297952" lon="120.88822474708887"><ele>6.714285714285714</ele><time>2026-04-17T08:08:46Z</time></trkpt><trkpt lat="14.475464688837402" lon="120.88816817269282"><ele>6.428571428571429</ele><time>2026-04-17T08:08:47Z</time></trkpt><trkpt lat="14.475429471685572" lon="120.88808486883174"><ele>6.142857142857142</ele><time>2026-04-17T08:08:48Z</time></trkpt><trkpt lat="14.47539258582049" lon="120.88802703969984"><ele>5.857142857142858</ele><time>2026-04-17T08:08:49Z</time></trkpt><trkpt lat="14.475351162430579" lon="120.88797546911422"><ele>5.571428571428571</ele><time>2026-04-17T08:08:50Z</time></trkpt><trkpt lat="14.475301721935823" lon="120.88792633845267"><ele>5.285714285714286</ele><time>2026-04-17T08:08:51Z</time></trkpt><trkpt lat="14.47524650064093" lon="120.88787749591235"><ele>5.0</ele><time>2026-04-17T08:08:52Z</time></trkpt><trkpt lat="14.475176921658177" lon="120.88782617736526"><ele>5.0</ele><time>2026-04-17T08:08:53Z</time></trkpt><trkpt lat="14.475100158582343" lon="120.88778293168988"><ele>5.0</ele><time>2026-04-17T08:08:54Z</time></trkpt><trkpt lat="14.475022799358786" lon="120.88774372066666"><ele>5.0</ele><time>2026-04-17T08:08:55Z</time></trkpt><trkpt lat="14.474940393105895" lon="120.88771132324936"><ele>5.0</ele><time>2026-04-17T08:08:56Z</time></trkpt><trkpt lat="14.47484628152517" lon="120.88768132348383"><ele>5.0</ele><time>2026-04-17T08:08:57Z</time></trkpt><trkpt lat="14.47475091280035" lon="120.88765199137102"><ele>5.0</ele><time>2026-04-17T08:08:58Z</time></trkpt><trkpt lat="14.474659375165734" lon="120.88763011443217"><ele>5.0</ele><time>2026-04-17T08:08:59Z</time></trkpt><trkpt lat="14.47455255010847" lon="120.88760787129729"><ele>5.0</ele><time>2026-04-17T08:09:00Z</time></trkpt><trkpt lat="14.474445401429927" lon="120.88758476750537"><ele>5.0</ele><time>2026-04-17T08:09:01Z</time></trkpt><trkpt lat="14.474342855476184" lon="120.88756492805832"><ele>5.0</ele><time>2026-04-17T08:09:02Z</time></trkpt><trkpt lat="14.474253361107953" lon="120.88754579705517"><ele>5.0</ele><time>2026-04-17T08:09:03Z</time></trkpt><trkpt lat="14.47416812635753" lon="120.8875285558543"><ele>5.0</ele><time>2026-04-17T08:09:04Z</time></trkpt><trkpt lat="14.474090471083743" lon="120.88751292543063"><ele>5.0</ele><time>2026-04-17T08:09:05Z</time></trkpt><trkpt lat="14.474006290639917" lon="120.88751228802859"><ele>5.0</ele><time>2026-04-17T08:09:06Z</time></trkpt><trkpt lat="14.47392225499686" lon="120.88751782697214"><ele>5.0</ele><time>2026-04-17T08:09:07Z</time></trkpt><trkpt lat="14.473822118299099" lon="120.88753054665301"><ele>5.0</ele><time>2026-04-17T08:09:08Z</time></trkpt><trkpt lat="14.473716811196724" lon="120.8875456683268"><ele>5.5</ele><time>2026-04-17T08:09:09Z</time></trkpt><trkpt lat="14.473599970190541" lon="120.88756060604068"><ele>6.0</ele><time>2026-04-17T08:09:10Z</time></trkpt><trkpt lat="14.473480752138716" lon="120.88757104012804"><ele>6.5</ele><time>2026-04-17T08:09:11Z</time></trkpt><trkpt lat="14.473355669541187" lon="120.88757911302501"><ele>7.0</ele><time>2026-04-17T08:09:12Z</time></trkpt><trkpt lat="14.473235844232942" lon="120.88758358106304"><ele>7.0</ele><time>2026-04-17T08:09:13Z</time></trkpt><trkpt lat="14.473121363334245" lon="120.88759300611677"><ele>7.0</ele><time>2026-04-17T08:09:14Z</time></trkpt><trkpt lat="14.473003073597718" lon="120.88760885407257"><ele>7.0</ele><time>2026-04-17T08:09:15Z</time></trkpt><trkpt lat="14.472888653222585" lon="120.88762477446713"><ele>7.0</ele><time>2026-04-17T08:09:16Z</time></trkpt><trkpt lat="14.47277966889032" lon="120.88764299034534"><ele>6.833333333333334</ele><time>2026-04-17T08:09:17Z</time></trkpt><trkpt lat="14.472686068458298" lon="120.88765332202708"><ele>6.666666666666667</ele><time>2026-04-17T08:09:18Z</time></trkpt><trkpt lat="14.472595797883054" lon="120.88766353767275"><ele>6.5</ele><time>2026-04-17T08:09:19Z</time></trkpt><trkpt lat="14.472510973641196" lon="120.8876669675971"><ele>6.333333333333334</ele><time>2026-04-17T08:09:20Z</time></trkpt><trkpt lat="14.472424522044946" lon="120.88766134937953"><ele>6.166666666666667</ele><time>2026-04-17T08:09:21Z</time></trkpt><trkpt lat="14.472332457165386" lon="120.88764909715916"><ele>6.0</ele><time>2026-04-17T08:09:22Z</time></trkpt><trkpt lat="14.472235997426349" lon="120.88763640750689"><ele>6.0</ele><time>2026-04-17T08:09:23Z</time></trkpt><trkpt lat="14.472140698209586" lon="120.88762111234614"><ele>6.0</ele><time>2026-04-17T08:09:24Z</time></trkpt><trkpt lat="14.472054452874266" lon="120.88760326170065"><ele>6.0</ele><time>2026-04-17T08:09:25Z</time></trkpt><trkpt lat="14.47196986445019" lon="120.8875824321599"><ele>6.0</ele><time>2026-04-17T08:09:26Z</time></trkpt><trkpt lat="14.471904212009548" lon="120.8875341732267"><ele>6.0</ele><time>2026-04-17T08:09:27Z</time></trkpt><trkpt lat="14.471823381893604" lon="120.88751980190445"><ele>6.0</ele><time>2026-04-17T08:09:28Z</time></trkpt><trkpt lat="14.47175834531726" lon="120.88748930434078"><ele>6.166666666666667</ele><time>2026-04-17T08:09:29Z</time></trkpt><trkpt lat="14.47168774373754" lon="120.88745569599165"><ele>6.333333333333334</ele><time>2026-04-17T08:09:30Z</time></trkpt><trkpt lat="14.471578733649359" lon="120.88738502687409"><ele>6.5</ele><time>2026-04-17T08:09:32Z</time></trkpt><trkpt lat="14.471520827228723" lon="120.88735079679"><ele>6.666666666666667</ele><time>2026-04-17T08:09:33Z</time></trkpt><trkpt lat="14.47144383742458" lon="120.8873057114161"><ele>6.833333333333334</ele><time>2026-04-17T08:09:34Z</time></trkpt><trkpt lat="14.471369153810722" lon="120.88726320949785"><ele>7.0</ele><time>2026-04-17T08:09:35Z</time></trkpt><trkpt lat="14.471287170445757" lon="120.88721894928423"><ele>7.199999999999999</ele><time>2026-04-17T08:09:36Z</time></trkpt><trkpt lat="14.4712048842968" lon="120.88717565664948"><ele>7.3999999999999995</ele><time>2026-04-17T08:09:37Z</time></trkpt><trkpt lat="14.471113449201196" lon="120.88712857520889"><ele>7.6000000000000005</ele><time>2026-04-17T08:09:38Z</time></trkpt><trkpt lat="14.471021738937287" lon="120.8870775986503"><ele>7.800000000000001</ele><time>2026-04-17T08:09:39Z</time></trkpt><trkpt lat="14.470928506024745" lon="120.88702437542884"><ele>8.0</ele><time>2026-04-17T08:09:40Z</time></trkpt><trkpt lat="14.470864478772182" lon="120.8869921038439"><ele>8.0</ele><time>2026-04-17T08:09:41Z</time></trkpt><trkpt lat="14.470801699434485" lon="120.8869687652732"><ele>8.0</ele><time>2026-04-17T08:09:43Z</time></trkpt><trkpt lat="14.47069194038566" lon="120.88692449412527"><ele>8.0</ele><time>2026-04-17T08:09:46Z</time></trkpt><trkpt lat="14.470618346936234" lon="120.88688158020629"><ele>8.0</ele><time>2026-04-17T08:09:47Z</time></trkpt><trkpt lat="14.470538284871138" lon="120.8868344585315"><ele>8.0</ele><time>2026-04-17T08:09:48Z</time></trkpt><trkpt lat="14.470448957598029" lon="120.88678594722134"><ele>7.5</ele><time>2026-04-17T08:09:49Z</time></trkpt><trkpt lat="14.470343821093048" lon="120.886728926761"><ele>7.0</ele><time>2026-04-17T08:09:50Z</time></trkpt><trkpt lat="14.470247423228658" lon="120.88667241606261"><ele>6.5</ele><time>2026-04-17T08:09:51Z</time></trkpt><trkpt lat="14.470138188262128" lon="120.88661457948514"><ele>6.0</ele><time>2026-04-17T08:09:52Z</time></trkpt><trkpt lat="14.470032979759987" lon="120.88655571985245"><ele>6.0</ele><time>2026-04-17T08:09:53Z</time></trkpt><trkpt lat="14.469951344525409" lon="120.88650604048148"><ele>6.0</ele><time>2026-04-17T08:09:54Z</time></trkpt><trkpt lat="14.469858886831574" lon="120.88645989702245"><ele>6.0</ele><time>2026-04-17T08:09:55Z</time></trkpt><trkpt lat="14.469784039942144" lon="120.88641781024508"><ele>6.0</ele><time>2026-04-17T08:09:56Z</time></trkpt><trkpt lat="14.469713321873957" lon="120.88637850391532"><ele>6.0</ele><time>2026-04-17T08:09:57Z</time></trkpt><trkpt lat="14.469652939488588" lon="120.88634195155839"><ele>6.0</ele><time>2026-04-17T08:09:58Z</time></trkpt><trkpt lat="14.469588987687876" lon="120.886306899067"><ele>6.166666666666667</ele><time>2026-04-17T08:09:59Z</time></trkpt><trkpt lat="14.469524583104182" lon="120.8862658945577"><ele>6.333333333333334</ele><time>2026-04-17T08:10:00Z</time></trkpt><trkpt lat="14.469458184222406" lon="120.88622855018257"><ele>6.5</ele><time>2026-04-17T08:10:01Z</time></trkpt><trkpt lat="14.469401843368393" lon="120.88619580553211"><ele>6.666666666666667</ele><time>2026-04-17T08:10:02Z</time></trkpt><trkpt lat="14.469308454339167" lon="120.88614747421632"><ele>6.833333333333334</ele><time>2026-04-17T08:10:04Z</time></trkpt><trkpt lat="14.469221037174897" lon="120.88609557454213"><ele>7.0</ele><time>2026-04-17T08:10:06Z</time></trkpt><trkpt lat="14.469166842017163" lon="120.88606150592801"><ele>7.0</ele><time>2026-04-17T08:10:07Z</time></trkpt><trkpt lat="14.469062647859664" lon="120.88600025248472"><ele>6.999999999999999</ele><time>2026-04-17T08:10:09Z</time></trkpt><trkpt lat="14.468991935511907" lon="120.88596322489003"><ele>6.999999999999999</ele><time>2026-04-17T08:10:11Z</time></trkpt><trkpt lat="14.46892794246185" lon="120.88590939049517"><ele>7.0</ele><time>2026-04-17T08:10:13Z</time></trkpt><trkpt lat="14.46881891778477" lon="120.88584486539871"><ele>7.0</ele><time>2026-04-17T08:10:15Z</time></trkpt><trkpt lat="14.468756404358416" lon="120.885807867541"><ele>6.666666666666667</ele><time>2026-04-17T08:10:16Z</time></trkpt><trkpt lat="14.46869706155734" lon="120.88576747028151"><ele>6.333333333333334</ele><time>2026-04-17T08:10:17Z</time></trkpt><trkpt lat="14.46864047094874" lon="120.88573010254143"><ele>6.0</ele><time>2026-04-17T08:10:18Z</time></trkpt><trkpt lat="14.468581019950484" lon="120.88569319758521"><ele>5.666666666666667</ele><time>2026-04-17T08:10:19Z</time></trkpt><trkpt lat="14.468479390289358" lon="120.88562964325871"><ele>5.333333333333334</ele><time>2026-04-17T08:10:21Z</time></trkpt><trkpt lat="14.468384071660084" lon="120.88558676059345"><ele>5.0</ele><time>2026-04-17T08:10:23Z</time></trkpt><trkpt lat="14.468276487456667" lon="120.88552071794308"><ele>5.0</ele><time>2026-04-17T08:10:25Z</time></trkpt><trkpt lat="14.468225002849085" lon="120.88546843970964"><ele>5.0</ele><time>2026-04-17T08:10:26Z</time></trkpt><trkpt lat="14.468167818755436" lon="120.88543220231747"><ele>5.0</ele><time>2026-04-17T08:10:27Z</time></trkpt><trkpt lat="14.468109385494309" lon="120.88539517537752"><ele>5.0</ele><time>2026-04-17T08:10:28Z</time></trkpt><trkpt lat="14.468039146628088" lon="120.88534450702214"><ele>5.0</ele><time>2026-04-17T08:10:29Z</time></trkpt><trkpt lat="14.46796053666964" lon="120.88529688914383"><ele>5.0</ele><time>2026-04-17T08:10:30Z</time></trkpt><trkpt lat="14.467895253690475" lon="120.88525224238758"><ele>5.0</ele><time>2026-04-17T08:10:31Z</time></trkpt><trkpt lat="14.467813176473232" lon="120.8851978318562"><ele>5.0</ele><time>2026-04-17T08:10:32Z</time></trkpt><trkpt lat="14.4677365033274" lon="120.88514700376938"><ele>5.0</ele><time>2026-04-17T08:10:33Z</time></trkpt><trkpt lat="14.467657492515029" lon="120.88509462600568"><ele>5.0</ele><time>2026-04-17T08:10:34Z</time></trkpt><trkpt lat="14.46758559255078" lon="120.88504696215367"><ele>5.0</ele><time>2026-04-17T08:10:35Z</time></trkpt><trkpt lat="14.467512668986021" lon="120.88501772287499"><ele>5.0</ele><time>2026-04-17T08:10:36Z</time></trkpt><trkpt lat="14.467459165266433" lon="120.88496300356921"><ele>5.0</ele><time>2026-04-17T08:10:37Z</time></trkpt><trkpt lat="14.46739344500906" lon="120.88493856829379"><ele>5.0</ele><time>2026-04-17T08:10:38Z</time></trkpt><trkpt lat="14.467298822303645" lon="120.88487161262026"><ele>5.0</ele><time>2026-04-17T08:10:40Z</time></trkpt><trkpt lat="14.467218483578058" lon="120.8848184717414"><ele>5.0</ele><time>2026-04-17T08:10:42Z</time></trkpt><trkpt lat="14.467150550099154" lon="120.88477062858826"><ele>5.0</ele><time>2026-04-17T08:10:44Z</time></trkpt><trkpt lat="14.467068975063723" lon="120.88472255891878"><ele>4.833333333333334</ele><time>2026-04-17T08:10:46Z</time></trkpt><trkpt lat="14.466993736713945" lon="120.88465274259046"><ele>4.666666666666667</ele><time>2026-04-17T08:10:48Z</time></trkpt><trkpt lat="14.466897568094259" lon="120.88458900668455"><ele>4.5</ele><time>2026-04-17T08:10:50Z</time></trkpt><trkpt lat="14.46684057386009" lon="120.88455123365783"><ele>4.333333333333333</ele><time>2026-04-17T08:10:51Z</time></trkpt><trkpt lat="14.466781297025358" lon="120.8845119478343"><ele>4.166666666666666</ele><time>2026-04-17T08:10:52Z</time></trkpt><trkpt lat="14.4667205995323" lon="120.88449075333868"><ele>4.0</ele><time>2026-04-17T08:10:53Z</time></trkpt><trkpt lat="14.466609653388764" lon="120.88440830165064"><ele>4.0</ele><time>2026-04-17T08:10:55Z</time></trkpt><trkpt lat="14.46654514469973" lon="120.88436937213845"><ele>4.0</ele><time>2026-04-17T08:10:56Z</time></trkpt><trkpt lat="14.466470238684616" lon="120.8843229442192"><ele>4.0</ele><time>2026-04-17T08:10:57Z</time></trkpt><trkpt lat="14.466395741090382" lon="120.88425558430905"><ele>4.0</ele><time>2026-04-17T08:10:58Z</time></trkpt><trkpt lat="14.466313840404343" lon="120.8842009783318"><ele>4.0</ele><time>2026-04-17T08:10:59Z</time></trkpt><trkpt lat="14.466224688481775" lon="120.88414153770404"><ele>4.0</ele><time>2026-04-17T08:11:00Z</time></trkpt><trkpt lat="14.466124794079102" lon="120.88407493469842"><ele>4.0</ele><time>2026-04-17T08:11:01Z</time></trkpt><trkpt lat="14.466031652131354" lon="120.88401314671673"><ele>4.0</ele><time>2026-04-17T08:11:02Z</time></trkpt><trkpt lat="14.465939066308021" lon="120.88396639073228"><ele>4.0</ele><time>2026-04-17T08:11:03Z</time></trkpt><trkpt lat="14.465878266237622" lon="120.88392149853942"><ele>4.0</ele><time>2026-04-17T08:11:04Z</time></trkpt><trkpt lat="14.46578474259459" lon="120.88385782607918"><ele>4.0</ele><time>2026-04-17T08:11:06Z</time></trkpt><trkpt lat="14.465706374870068" lon="120.88380284452735"><ele>4.0</ele><time>2026-04-17T08:11:08Z</time></trkpt><trkpt lat="14.465620839067903" lon="120.88374485145407"><ele>4.0</ele><time>2026-04-17T08:11:10Z</time></trkpt><trkpt lat="14.465520317181046" lon="120.88367808677454"><ele>4.0</ele><time>2026-04-17T08:11:12Z</time></trkpt><trkpt lat="14.465450185837478" lon="120.88363355264934"><ele>4.0</ele><time>2026-04-17T08:11:13Z</time></trkpt><trkpt lat="14.46537876320211" lon="120.88358328610767"><ele>4.166666666666666</ele><time>2026-04-17T08:11:14Z</time></trkpt><trkpt lat="14.465308088036751" lon="120.8835417278677"><ele>4.333333333333333</ele><time>2026-04-17T08:11:15Z</time></trkpt><trkpt lat="14.465244378545043" lon="120.8835005744559"><ele>4.5</ele><time>2026-04-17T08:11:17Z</time></trkpt><trkpt lat="14.465186057874256" lon="120.88346367467953"><ele>4.666666666666667</ele><time>2026-04-17T08:11:19Z</time></trkpt><trkpt lat="14.465119457171445" lon="120.88342064270921"><ele>4.833333333333334</ele><time>2026-04-17T08:11:20Z</time></trkpt><trkpt lat="14.465046068888922" lon="120.88336894839232"><ele>5.0</ele><time>2026-04-17T08:11:21Z</time></trkpt><trkpt lat="14.464968680950397" lon="120.88331723984685"><ele>5.0</ele><time>2026-04-17T08:11:22Z</time></trkpt><trkpt lat="14.464895830027524" lon="120.88326296988191"><ele>5.0</ele><time>2026-04-17T08:11:23Z</time></trkpt><trkpt lat="14.464833874192625" lon="120.88321378369292"><ele>5.0</ele><time>2026-04-17T08:11:24Z</time></trkpt><trkpt lat="14.464780722956458" lon="120.88317594770692"><ele>5.0</ele><time>2026-04-17T08:11:25Z</time></trkpt><trkpt lat="14.464712857511785" lon="120.8831318297785"><ele>5.0</ele><time>2026-04-17T08:11:26Z</time></trkpt><trkpt lat="14.464646515950058" lon="120.88308825752631"><ele>5.0</ele><time>2026-04-17T08:11:27Z</time></trkpt><trkpt lat="14.46458858424081" lon="120.88304596081338"><ele>5.166666666666667</ele><time>2026-04-17T08:11:28Z</time></trkpt><trkpt lat="14.464517155222957" lon="120.88299798878468"><ele>5.333333333333334</ele><time>2026-04-17T08:11:29Z</time></trkpt><trkpt lat="14.464456109238137" lon="120.88294240255"><ele>5.5</ele><time>2026-04-17T08:11:30Z</time></trkpt><trkpt lat="14.464397321900325" lon="120.88289091149846"><ele>5.666666666666667</ele><time>2026-04-17T08:11:31Z</time></trkpt><trkpt lat="14.46433053054236" lon="120.88284280806648"><ele>5.833333333333333</ele><time>2026-04-17T08:11:32Z</time></trkpt><trkpt lat="14.464259674677834" lon="120.88279731263123"><ele>6.0</ele><time>2026-04-17T08:11:33Z</time></trkpt><trkpt lat="14.464192883787948" lon="120.88275668789329"><ele>6.0</ele><time>2026-04-17T08:11:34Z</time></trkpt><trkpt lat="14.46414098052806" lon="120.88271960682485"><ele>6.0</ele><time>2026-04-17T08:11:35Z</time></trkpt><trkpt lat="14.464040299424163" lon="120.8826668779892"><ele>6.0</ele><time>2026-04-17T08:11:37Z</time></trkpt><trkpt lat="14.463980673003862" lon="120.88260473506732"><ele>6.0</ele><time>2026-04-17T08:11:39Z</time></trkpt><trkpt lat="14.463927182564895" lon="120.88256478763356"><ele>6.0</ele><time>2026-04-17T08:11:41Z</time></trkpt><trkpt lat="14.463873270747056" lon="120.88252567663106"><ele>6.0</ele><time>2026-04-17T08:11:43Z</time></trkpt><trkpt lat="14.463814389077603" lon="120.88248263846192"><ele>5.833333333333333</ele><time>2026-04-17T08:11:45Z</time></trkpt><trkpt lat="14.46374434091477" lon="120.8824314384853"><ele>5.666666666666667</ele><time>2026-04-17T08:11:47Z</time></trkpt><trkpt lat="14.46367682104436" lon="120.88239051552101"><ele>5.5</ele><time>2026-04-17T08:11:49Z</time></trkpt><trkpt lat="14.463596670111686" lon="120.88234392759473"><ele>5.333333333333334</ele><time>2026-04-17T08:11:51Z</time></trkpt><trkpt lat="14.463501616639824" lon="120.88228762563493"><ele>5.166666666666667</ele><time>2026-04-17T08:11:53Z</time></trkpt><trkpt lat="14.463431420277333" lon="120.8822517405047"><ele>5.0</ele><time>2026-04-17T08:11:54Z</time></trkpt><trkpt lat="14.463350954037127" lon="120.88221061899311"><ele>5.0</ele><time>2026-04-17T08:11:55Z</time></trkpt><trkpt lat="14.463282236152612" lon="120.88217554671272"><ele>5.0</ele><time>2026-04-17T08:11:56Z</time></trkpt><trkpt lat="14.46319167349502" lon="120.88213282239937"><ele>5.0</ele><time>2026-04-17T08:11:58Z</time></trkpt><trkpt lat="14.46307232273353" lon="120.88208834239356"><ele>5.0</ele><time>2026-04-17T08:12:00Z</time></trkpt><trkpt lat="14.463003160478564" lon="120.8820751704525"><ele>5.0</ele><time>2026-04-17T08:12:01Z</time></trkpt><trkpt lat="14.462937062809818" lon="120.88203859900119"><ele>5.0</ele><time>2026-04-17T08:12:02Z</time></trkpt><trkpt lat="14.462879095428374" lon="120.88201196349138"><ele>5.166666666666667</ele><time>2026-04-17T08:12:03Z</time></trkpt><trkpt lat="14.462798500496348" lon="120.88199140128656"><ele>5.333333333333334</ele><time>2026-04-17T08:12:04Z</time></trkpt><trkpt lat="14.462717669295822" lon="120.88196564266343"><ele>5.5</ele><time>2026-04-17T08:12:05Z</time></trkpt><trkpt lat="14.462633679643105" lon="120.88193479441703"><ele>5.666666666666667</ele><time>2026-04-17T08:12:06Z</time></trkpt><trkpt lat="14.462553440537041" lon="120.88190420340882"><ele>5.833333333333333</ele><time>2026-04-17T08:12:07Z</time></trkpt><trkpt lat="14.462459924915649" lon="120.8818634580928"><ele>6.0</ele><time>2026-04-17T08:12:08Z</time></trkpt><trkpt lat="14.462363980672578" lon="120.88182178461764"><ele>6.0</ele><time>2026-04-17T08:12:09Z</time></trkpt><trkpt lat="14.462265419821154" lon="120.88178567709292"><ele>6.0</ele><time>2026-04-17T08:12:10Z</time></trkpt><trkpt lat="14.4621628712792" lon="120.88175076320705"><ele>6.0</ele><time>2026-04-17T08:12:11Z</time></trkpt><trkpt lat="14.462061035449636" lon="120.88171104753427"><ele>6.0</ele><time>2026-04-17T08:12:12Z</time></trkpt><trkpt lat="14.461962911394574" lon="120.88166759661301"><ele>6.0</ele><time>2026-04-17T08:12:13Z</time></trkpt><trkpt lat="14.461854298451728" lon="120.88162405632276"><ele>5.75</ele><time>2026-04-17T08:12:14Z</time></trkpt><trkpt lat="14.461743989888626" lon="120.88158192158073"><ele>5.5</ele><time>2026-04-17T08:12:15Z</time></trkpt><trkpt lat="14.46163028627859" lon="120.88154368113938"><ele>5.25</ele><time>2026-04-17T08:12:16Z</time></trkpt><trkpt lat="14.4615218182119" lon="120.88150229115838"><ele>5.0</ele><time>2026-04-17T08:12:17Z</time></trkpt><trkpt lat="14.461411131966265" lon="120.8814633944013"><ele>5.0</ele><time>2026-04-17T08:12:18Z</time></trkpt><trkpt lat="14.46129297055942" lon="120.88142650202822"><ele>5.0</ele><time>2026-04-17T08:12:19Z</time></trkpt><trkpt lat="14.46118912156609" lon="120.88138637340597"><ele>5.0</ele><time>2026-04-17T08:12:20Z</time></trkpt><trkpt lat="14.461072013494332" lon="120.88134270656082"><ele>5.0</ele><time>2026-04-17T08:12:21Z</time></trkpt><trkpt lat="14.460953365471518" lon="120.88130190706569"><ele>4.75</ele><time>2026-04-17T08:12:22Z</time></trkpt><trkpt lat="14.460833879750457" lon="120.88125945280186"><ele>4.5</ele><time>2026-04-17T08:12:23Z</time></trkpt><trkpt lat="14.460717498788247" lon="120.88121518819612"><ele>4.25</ele><time>2026-04-17T08:12:24Z</time></trkpt><trkpt lat="14.4605939572016" lon="120.88117352124662"><ele>4.0</ele><time>2026-04-17T08:12:25Z</time></trkpt><trkpt lat="14.460461652135821" lon="120.88113480139177"><ele>3.75</ele><time>2026-04-17T08:12:26Z</time></trkpt><trkpt lat="14.460333161348467" lon="120.88109624157717"><ele>3.5</ele><time>2026-04-17T08:12:27Z</time></trkpt><trkpt lat="14.460206061852789" lon="120.88106041797438"><ele>3.25</ele><time>2026-04-17T08:12:28Z</time></trkpt><trkpt lat="14.460082601592454" lon="120.88103058359465"><ele>3.0</ele><time>2026-04-17T08:12:29Z</time></trkpt><trkpt lat="14.459968014348606" lon="120.8810019653993"><ele>3.0</ele><time>2026-04-17T08:12:30Z</time></trkpt><trkpt lat="14.45986427855928" lon="120.88097468247062"><ele>3.0</ele><time>2026-04-17T08:12:31Z</time></trkpt><trkpt lat="14.459765403395005" lon="120.880954040155"><ele>3.0</ele><time>2026-04-17T08:12:32Z</time></trkpt><trkpt lat="14.459675383829913" lon="120.88093578134358"><ele>3.0</ele><time>2026-04-17T08:12:33Z</time></trkpt><trkpt lat="14.45957983407667" lon="120.88091790705568"><ele>3.0</ele><time>2026-04-17T08:12:34Z</time></trkpt><trkpt lat="14.459475691880536" lon="120.88088219983028"><ele>3.5</ele><time>2026-04-17T08:12:35Z</time></trkpt><trkpt lat="14.459361117709664" lon="120.88085475720032"><ele>4.0</ele><time>2026-04-17T08:12:36Z</time></trkpt><trkpt lat="14.45922438455162" lon="120.88082855378272"><ele>4.5</ele><time>2026-04-17T08:12:37Z</time></trkpt><trkpt lat="14.459088792162076" lon="120.88080325698144"><ele>5.0</ele><time>2026-04-17T08:12:38Z</time></trkpt><trkpt lat="14.458983228010815" lon="120.8807837300653"><ele>5.0</ele><time>2026-04-17T08:12:39Z</time></trkpt><trkpt lat="14.458902420345163" lon="120.8807836608957"><ele>5.0</ele><time>2026-04-17T08:12:40Z</time></trkpt><trkpt lat="14.458797484219964" lon="120.88075880639576"><ele>5.0</ele><time>2026-04-17T08:12:42Z</time></trkpt><trkpt lat="14.458704432565364" lon="120.88073656870218"><ele>5.0</ele><time>2026-04-17T08:12:44Z</time></trkpt><trkpt lat="14.458575726307147" lon="120.88070021574602"><ele>5.0</ele><time>2026-04-17T08:12:46Z</time></trkpt><trkpt lat="14.45849123629874" lon="120.88067659778012"><ele>5.0</ele><time>2026-04-17T08:12:47Z</time></trkpt><trkpt lat="14.458405765115527" lon="120.8806517129529"><ele>5.0</ele><time>2026-04-17T08:12:48Z</time></trkpt><trkpt lat="14.458310731922333" lon="120.88060736667158"><ele>5.0</ele><time>2026-04-17T08:12:49.001Z</time></trkpt><trkpt lat="14.458204756445205" lon="120.88057566266187"><ele>5.0</ele><time>2026-04-17T08:12:50.001Z</time></trkpt><trkpt lat="14.458079352192788" lon="120.88053751556133"><ele>5.0</ele><time>2026-04-17T08:12:51.001Z</time></trkpt><trkpt lat="14.457960906125555" lon="120.88050127157393"><ele>5.5</ele><time>2026-04-17T08:12:52.001Z</time></trkpt><trkpt lat="14.457839669057076" lon="120.88046370958102"><ele>6.0</ele><time>2026-04-17T08:12:53.001Z</time></trkpt><trkpt lat="14.45771261641459" lon="120.88042434620417"><ele>6.5</ele><time>2026-04-17T08:12:54.001Z</time></trkpt><trkpt lat="14.457597057760998" lon="120.88038889987972"><ele>7.0</ele><time>2026-04-17T08:12:55.001Z</time></trkpt><trkpt lat="14.457482214910883" lon="120.88035367311687"><ele>7.0</ele><time>2026-04-17T08:12:56.001Z</time></trkpt><trkpt lat="14.457366662174612" lon="120.88031822860457"><ele>7.0</ele><time>2026-04-17T08:12:57.001Z</time></trkpt><trkpt lat="14.457258275720845" lon="120.88028498227155"><ele>7.0</ele><time>2026-04-17T08:12:58.001Z</time></trkpt><trkpt lat="14.457137350235978" lon="120.88024771011898"><ele>7.0</ele><time>2026-04-17T08:12:59.001Z</time></trkpt><trkpt lat="14.457019627781778" lon="120.88021119159197"><ele>6.75</ele><time>2026-04-17T08:13:00.001Z</time></trkpt><trkpt lat="14.45688643048149" lon="120.88016987263283"><ele>6.5</ele><time>2026-04-17T08:13:01.001Z</time></trkpt><trkpt lat="14.456752063348942" lon="120.880127923271"><ele>6.25</ele><time>2026-04-17T08:13:02.001Z</time></trkpt><trkpt lat="14.456617594828153" lon="120.88008577393315"><ele>6.0</ele><time>2026-04-17T08:13:03.001Z</time></trkpt><trkpt lat="14.45649129980241" lon="120.88004618658765"><ele>6.4</ele><time>2026-04-17T08:13:04.001Z</time></trkpt><trkpt lat="14.456373754440035" lon="120.88000934184126"><ele>6.8</ele><time>2026-04-17T08:13:05.001Z</time></trkpt><trkpt lat="14.45626256095919" lon="120.87999074617935"><ele>7.200000000000001</ele><time>2026-04-17T08:13:06.001Z</time></trkpt><trkpt lat="14.456162746888468" lon="120.87995917233533"><ele>7.6000000000000005</ele><time>2026-04-17T08:13:07.001Z</time></trkpt><trkpt lat="14.456077736680225" lon="120.8799306044327"><ele>8.0</ele><time>2026-04-17T08:13:08.001Z</time></trkpt><trkpt lat="14.45599863588261" lon="120.87990809247239"><ele>8.0</ele><time>2026-04-17T08:13:09.001Z</time></trkpt><trkpt lat="14.455935362817362" lon="120.87988637211433"><ele>8.0</ele><time>2026-04-17T08:13:10.001Z</time></trkpt><trkpt lat="14.455835743910294" lon="120.87985713894292"><ele>8.0</ele><time>2026-04-17T08:13:12.001Z</time></trkpt><trkpt lat="14.455742101272643" lon="120.87983000174188"><ele>8.0</ele><time>2026-04-17T08:13:14.001Z</time></trkpt><trkpt lat="14.455662566351023" lon="120.87980400419528"><ele>8.0</ele><time>2026-04-17T08:13:16.001Z</time></trkpt><trkpt lat="14.45554381898662" lon="120.8797715253029"><ele>8.0</ele><time>2026-04-17T08:13:18.001Z</time></trkpt><trkpt lat="14.45546293618797" lon="120.87974915687013"><ele>8.0</ele><time>2026-04-17T08:13:19.001Z</time></trkpt><trkpt lat="14.45537055418547" lon="120.87972775362687"><ele>8.0</ele><time>2026-04-17T08:13:20.001Z</time></trkpt><trkpt lat="14.455275172295822" lon="120.87970014644829"><ele>8.0</ele><time>2026-04-17T08:13:21.001Z</time></trkpt><trkpt lat="14.455178431360187" lon="120.87967260943444"><ele>8.0</ele><time>2026-04-17T08:13:22.001Z</time></trkpt><trkpt lat="14.455077013209554" lon="120.87964368374374"><ele>7.2</ele><time>2026-04-17T08:13:23.001Z</time></trkpt><trkpt lat="14.454986033641136" lon="120.87957917662119"><ele>6.4</ele><time>2026-04-17T08:13:25.001Z</time></trkpt><trkpt lat="14.454896139679084" lon="120.8795670130214"><ele>5.6000000000000005</ele><time>2026-04-17T08:13:26.001Z</time></trkpt><trkpt lat="14.45480470590262" lon="120.87952684194816"><ele>4.800000000000001</ele><time>2026-04-17T08:13:27.001Z</time></trkpt><trkpt lat="14.454704428189544" lon="120.87948752826344"><ele>4.0</ele><time>2026-04-17T08:13:28.001Z</time></trkpt><trkpt lat="14.454597467945408" lon="120.87944647640964"><ele>3.75</ele><time>2026-04-17T08:13:29.001Z</time></trkpt><trkpt lat="14.454493324247693" lon="120.87939866740471"><ele>3.5</ele><time>2026-04-17T08:13:30.001Z</time></trkpt><trkpt lat="14.454395274630803" lon="120.87932984457076"><ele>3.25</ele><time>2026-04-17T08:13:31.001Z</time></trkpt><trkpt lat="14.454278839932783" lon="120.87926837448569"><ele>3.0</ele><time>2026-04-17T08:13:32.001Z</time></trkpt><trkpt lat="14.45415741074737" lon="120.87920426770103"><ele>3.5</ele><time>2026-04-17T08:13:33.001Z</time></trkpt><trkpt lat="14.454033842382067" lon="120.87914019621967"><ele>4.0</ele><time>2026-04-17T08:13:34.001Z</time></trkpt><trkpt lat="14.453913306552625" lon="120.87907761536236"><ele>4.5</ele><time>2026-04-17T08:13:35.001Z</time></trkpt><trkpt lat="14.453785885187804" lon="120.87901936395046"><ele>5.0</ele><time>2026-04-17T08:13:36.001Z</time></trkpt><trkpt lat="14.453658607289873" lon="120.87895385923282"><ele>5.25</ele><time>2026-04-17T08:13:37.001Z</time></trkpt><trkpt lat="14.453530383815442" lon="120.87889108633502"><ele>5.5</ele><time>2026-04-17T08:13:38.001Z</time></trkpt><trkpt lat="14.453406168921745" lon="120.87883926122839"><ele>5.75</ele><time>2026-04-17T08:13:39.001Z</time></trkpt><trkpt lat="14.453274390948192" lon="120.87879421047693"><ele>6.0</ele><time>2026-04-17T08:13:40.001Z</time></trkpt><trkpt lat="14.453145118190761" lon="120.87875527642618"><ele>6.0</ele><time>2026-04-17T08:13:41.001Z</time></trkpt><trkpt lat="14.453006816071937" lon="120.87871562022396"><ele>6.0</ele><time>2026-04-17T08:13:42.001Z</time></trkpt><trkpt lat="14.452871965246695" lon="120.87867744119806"><ele>6.0</ele><time>2026-04-17T08:13:43.001Z</time></trkpt><trkpt lat="14.452733293790203" lon="120.878637100089"><ele>6.0</ele><time>2026-04-17T08:13:44.001Z</time></trkpt><trkpt lat="14.45259242992455" lon="120.87858773378962"><ele>5.75</ele><time>2026-04-17T08:13:45.001Z</time></trkpt><trkpt lat="14.452461502476869" lon="120.87854370572629"><ele>5.5</ele><time>2026-04-17T08:13:46.001Z</time></trkpt><trkpt lat="14.452321749350327" lon="120.87850406475926"><ele>5.25</ele><time>2026-04-17T08:13:47.001Z</time></trkpt><trkpt lat="14.452188313661663" lon="120.87846477096035"><ele>5.0</ele><time>2026-04-17T08:13:48.001Z</time></trkpt><trkpt lat="14.452057872959848" lon="120.87842262559766"><ele>4.5</ele><time>2026-04-17T08:13:49.001Z</time></trkpt><trkpt lat="14.451919937801316" lon="120.87837807358027"><ele>4.0</ele><time>2026-04-17T08:13:50.001Z</time></trkpt><trkpt lat="14.451782730862242" lon="120.87833302097968"><ele>3.5</ele><time>2026-04-17T08:13:51.001Z</time></trkpt><trkpt lat="14.451639105025572" lon="120.87828712472505"><ele>3.0</ele><time>2026-04-17T08:13:52.001Z</time></trkpt><trkpt lat="14.451497760901209" lon="120.87824166620275"><ele>3.0</ele><time>2026-04-17T08:13:53.001Z</time></trkpt><trkpt lat="14.451364954544836" lon="120.87820146729734"><ele>3.0</ele><time>2026-04-17T08:13:54.001Z</time></trkpt><trkpt lat="14.451232304267322" lon="120.87817272940768"><ele>3.0</ele><time>2026-04-17T08:13:55.001Z</time></trkpt><trkpt lat="14.451103213414445" lon="120.87815599544929"><ele>3.0</ele><time>2026-04-17T08:13:56.001Z</time></trkpt><trkpt lat="14.450978470612046" lon="120.87815650499982"><ele>3.5</ele><time>2026-04-17T08:13:57.001Z</time></trkpt><trkpt lat="14.450854278206338" lon="120.8781723918533"><ele>4.0</ele><time>2026-04-17T08:13:58.001Z</time></trkpt><trkpt lat="14.450732481232613" lon="120.87820190164965"><ele>4.5</ele><time>2026-04-17T08:13:59.001Z</time></trkpt><trkpt lat="14.450621336669828" lon="120.8782443786333"><ele>5.0</ele><time>2026-04-17T08:14:00.001Z</time></trkpt><trkpt lat="14.450514668398844" lon="120.87831360348162"><ele>5.25</ele><time>2026-04-17T08:14:01.001Z</time></trkpt><trkpt lat="14.450409216534377" lon="120.87839946426276"><ele>5.5</ele><time>2026-04-17T08:14:02.001Z</time></trkpt><trkpt lat="14.450316673717094" lon="120.87848884810604"><ele>5.75</ele><time>2026-04-17T08:14:03.001Z</time></trkpt><trkpt lat="14.450233824957243" lon="120.87859693248846"><ele>6.0</ele><time>2026-04-17T08:14:04.001Z</time></trkpt><trkpt lat="14.450163373285534" lon="120.87872002074708"><ele>5.25</ele><time>2026-04-17T08:14:05.001Z</time></trkpt><trkpt lat="14.450096722469041" lon="120.8788520174185"><ele>4.5</ele><time>2026-04-17T08:14:06.001Z</time></trkpt><trkpt lat="14.450033671832161" lon="120.87898102535493"><ele>3.75</ele><time>2026-04-17T08:14:07.001Z</time></trkpt><trkpt lat="14.449971076063044" lon="120.87910729677417"><ele>3.0</ele><time>2026-04-17T08:14:08.001Z</time></trkpt><trkpt lat="14.449906353012095" lon="120.8792408470091"><ele>3.25</ele><time>2026-04-17T08:14:09.001Z</time></trkpt><trkpt lat="14.449837857868294" lon="120.87936675761708"><ele>3.5</ele><time>2026-04-17T08:14:10.001Z</time></trkpt><trkpt lat="14.449759035839524" lon="120.87948987588678"><ele>3.75</ele><time>2026-04-17T08:14:11.001Z</time></trkpt><trkpt lat="14.449666000884706" lon="120.87960525406564"><ele>4.0</ele><time>2026-04-17T08:14:12.001Z</time></trkpt><trkpt lat="14.449560515466297" lon="120.87969366694188"><ele>3.5</ele><time>2026-04-17T08:14:13.001Z</time></trkpt><trkpt lat="14.449441303333632" lon="120.87978123223677"><ele>3.0</ele><time>2026-04-17T08:14:14.001Z</time></trkpt><trkpt lat="14.449314428102115" lon="120.87984781671234"><ele>2.5</ele><time>2026-04-17T08:14:15.001Z</time></trkpt><trkpt lat="14.449179993565773" lon="120.87989815704113"><ele>2.0</ele><time>2026-04-17T08:14:16.001Z</time></trkpt><trkpt lat="14.449033928124317" lon="120.87994227159705"><ele>2.0</ele><time>2026-04-17T08:14:17.001Z</time></trkpt><trkpt lat="14.448888339501519" lon="120.87997954907499"><ele>2.0</ele><time>2026-04-17T08:14:18.001Z</time></trkpt><trkpt lat="14.448750074225188" lon="120.88000991389862"><ele>2.0</ele><time>2026-04-17T08:14:19.001Z</time></trkpt><trkpt lat="14.448605381053072" lon="120.8800495289147"><ele>2.0</ele><time>2026-04-17T08:14:20.001Z</time></trkpt><trkpt lat="14.448480431828791" lon="120.88008221900036"><ele>2.5</ele><time>2026-04-17T08:14:21.001Z</time></trkpt><trkpt lat="14.44834206287291" lon="120.8801252372072"><ele>3.0</ele><time>2026-04-17T08:14:22.001Z</time></trkpt><trkpt lat="14.44820306844609" lon="120.88016382296956"><ele>3.5</ele><time>2026-04-17T08:14:23.001Z</time></trkpt><trkpt lat="14.448055746939627" lon="120.88020948037813"><ele>4.0</ele><time>2026-04-17T08:14:24.001Z</time></trkpt><trkpt lat="14.447911159777265" lon="120.8802512858637"><ele>5.333333333333333</ele><time>2026-04-17T08:14:25.001Z</time></trkpt><trkpt lat="14.44776307279601" lon="120.88029094277206"><ele>6.666666666666666</ele><time>2026-04-17T08:14:26.001Z</time></trkpt><trkpt lat="14.447616028585466" lon="120.88033106923554"><ele>8.0</ele><time>2026-04-17T08:14:27.001Z</time></trkpt><trkpt lat="14.447469839879505" lon="120.88037640264278"><ele>8.0</ele><time>2026-04-17T08:14:28.001Z</time></trkpt><trkpt lat="14.447337269332136" lon="120.88041326513063"><ele>8.0</ele><time>2026-04-17T08:14:29.001Z</time></trkpt><trkpt lat="14.447199665182165" lon="120.88044582633349"><ele>8.0</ele><time>2026-04-17T08:14:30.001Z</time></trkpt><trkpt lat="14.44705616006584" lon="120.88046439761102"><ele>8.0</ele><time>2026-04-17T08:14:31.001Z</time></trkpt><trkpt lat="14.446911433564797" lon="120.88045776199982"><ele>6.666666666666666</ele><time>2026-04-17T08:14:32.001Z</time></trkpt><trkpt lat="14.446767997972328" lon="120.88043381634961"><ele>5.333333333333333</ele><time>2026-04-17T08:14:33.001Z</time></trkpt><trkpt lat="14.446617625439972" lon="120.88040276813932"><ele>4.0</ele><time>2026-04-17T08:14:34.001Z</time></trkpt><trkpt lat="14.44646757006489" lon="120.88036331800392"><ele>4.0</ele><time>2026-04-17T08:14:35.001Z</time></trkpt><trkpt lat="14.446313560594797" lon="120.88032216937961"><ele>4.0</ele><time>2026-04-17T08:14:36.001Z</time></trkpt><trkpt lat="14.446168913090172" lon="120.88028116042622"><ele>4.0</ele><time>2026-04-17T08:14:37.001Z</time></trkpt><trkpt lat="14.446011470848314" lon="120.880241545139"><ele>3.6666666666666665</ele><time>2026-04-17T08:14:38.001Z</time></trkpt><trkpt lat="14.445845603763258" lon="120.88020093037574"><ele>3.333333333333333</ele><time>2026-04-17T08:14:39.001Z</time></trkpt><trkpt lat="14.445678338610211" lon="120.88015834104813"><ele>3.0</ele><time>2026-04-17T08:14:40.001Z</time></trkpt><trkpt lat="14.44551620257099" lon="120.8801114932584"><ele>3.0</ele><time>2026-04-17T08:14:41.001Z</time></trkpt><trkpt lat="14.445343596669018" lon="120.88006168611332"><ele>3.0</ele><time>2026-04-17T08:14:42.001Z</time></trkpt><trkpt lat="14.445184397470427" lon="120.88001173576352"><ele>3.0</ele><time>2026-04-17T08:14:43.001Z</time></trkpt><trkpt lat="14.445024528231398" lon="120.87996505538273"><ele>3.0</ele><time>2026-04-17T08:14:44.001Z</time></trkpt><trkpt lat="14.444863397226694" lon="120.87992095962846"><ele>3.0</ele><time>2026-04-17T08:14:45.001Z</time></trkpt><trkpt lat="14.444702466139667" lon="120.87987834790651"><ele>3.0</ele><time>2026-04-17T08:14:46.001Z</time></trkpt><trkpt lat="14.444547162798939" lon="120.87983738031895"><ele>3.333333333333333</ele><time>2026-04-17T08:14:47.001Z</time></trkpt><trkpt lat="14.444378839359297" lon="120.8797950523706"><ele>3.6666666666666665</ele><time>2026-04-17T08:14:48.001Z</time></trkpt><trkpt lat="14.44421582383649" lon="120.87975444690626"><ele>4.0</ele><time>2026-04-17T08:14:49.001Z</time></trkpt><trkpt lat="14.444049141880821" lon="120.87971519732513"><ele>4.0</ele><time>2026-04-17T08:14:50.001Z</time></trkpt><trkpt lat="14.443884004903792" lon="120.879672272312"><ele>4.0</ele><time>2026-04-17T08:14:51.001Z</time></trkpt><trkpt lat="14.443719348904931" lon="120.8796297052484"><ele>4.0</ele><time>2026-04-17T08:14:52.001Z</time></trkpt><trkpt lat="14.443558315049195" lon="120.8795859775853"><ele>4.0</ele><time>2026-04-17T08:14:53.001Z</time></trkpt><trkpt lat="14.443391669146155" lon="120.87954002298927"><ele>4.0</ele><time>2026-04-17T08:14:54.001Z</time></trkpt><trkpt lat="14.44322434458241" lon="120.8794958900192"><ele>4.0</ele><time>2026-04-17T08:14:55.001Z</time></trkpt><trkpt lat="14.443058816477828" lon="120.87943537488427"><ele>4.666666666666666</ele><time>2026-04-17T08:14:56.001Z</time></trkpt><trkpt lat="14.442886659003975" lon="120.87940458988139"><ele>5.333333333333333</ele><time>2026-04-17T08:14:57.001Z</time></trkpt><trkpt lat="14.442711970486066" lon="120.87935743766589"><ele>6.0</ele><time>2026-04-17T08:14:58.001Z</time></trkpt><trkpt lat="14.442538076166487" lon="120.87929066803082"><ele>6.0</ele><time>2026-04-17T08:14:59.001Z</time></trkpt><trkpt lat="14.442361957121594" lon="120.87924004170745"><ele>6.0</ele><time>2026-04-17T08:15:00.001Z</time></trkpt><trkpt lat="14.442186375295174" lon="120.87918924116478"><ele>6.0</ele><time>2026-04-17T08:15:01.001Z</time></trkpt><trkpt lat="14.442012842263946" lon="120.87913900459382"><ele>6.0</ele><time>2026-04-17T08:15:02.001Z</time></trkpt><trkpt lat="14.44184304547392" lon="120.87908984891544"><ele>6.0</ele><time>2026-04-17T08:15:03.001Z</time></trkpt><trkpt lat="14.441693569632237" lon="120.87904728462479"><ele>6.0</ele><time>2026-04-17T08:15:04.001Z</time></trkpt><trkpt lat="14.441554855819058" lon="120.87900989007268"><ele>6.0</ele><time>2026-04-17T08:15:05.001Z</time></trkpt><trkpt lat="14.441425660798853" lon="120.87897359381648"><ele>6.0</ele><time>2026-04-17T08:15:06.001Z</time></trkpt><trkpt lat="14.441297218004177" lon="120.87893714562553"><ele>6.0</ele><time>2026-04-17T08:15:07.001Z</time></trkpt><trkpt lat="14.44116204448941" lon="120.8789007493581"><ele>6.0</ele><time>2026-04-17T08:15:08.001Z</time></trkpt><trkpt lat="14.441036199158441" lon="120.87886191348592"><ele>6.0</ele><time>2026-04-17T08:15:09.001Z</time></trkpt><trkpt lat="14.440911279150733" lon="120.87882336317173"><ele>6.0</ele><time>2026-04-17T08:15:10.001Z</time></trkpt><trkpt lat="14.44078829989661" lon="120.87878541177466"><ele>6.0</ele><time>2026-04-17T08:15:11.001Z</time></trkpt><trkpt lat="14.44066965543701" lon="120.87874793731352"><ele>6.0</ele><time>2026-04-17T08:15:12.001Z</time></trkpt><trkpt lat="14.440547293926434" lon="120.87870762059154"><ele>5.75</ele><time>2026-04-17T08:15:13.001Z</time></trkpt><trkpt lat="14.440424663137144" lon="120.87866721551832"><ele>5.5</ele><time>2026-04-17T08:15:14.001Z</time></trkpt><trkpt lat="14.440296476303363" lon="120.87862473200362"><ele>5.25</ele><time>2026-04-17T08:15:15.001Z</time></trkpt><trkpt lat="14.440167247607697" lon="120.87858152163224"><ele>5.0</ele><time>2026-04-17T08:15:16.001Z</time></trkpt><trkpt lat="14.440031868960915" lon="120.87853707058746"><ele>5.0</ele><time>2026-04-17T08:15:17.001Z</time></trkpt><trkpt lat="14.439888672705253" lon="120.87849005266706"><ele>5.0</ele><time>2026-04-17T08:15:18.001Z</time></trkpt><trkpt lat="14.43974312351954" lon="120.87844544401428"><ele>5.0</ele><time>2026-04-17T08:15:19.001Z</time></trkpt><trkpt lat="14.439601102903032" lon="120.87840206286862"><ele>5.25</ele><time>2026-04-17T08:15:20.001Z</time></trkpt><trkpt lat="14.439453974156493" lon="120.87835712140686"><ele>5.5</ele><time>2026-04-17T08:15:21.001Z</time></trkpt><trkpt lat="14.439316843798725" lon="120.87831523402308"><ele>5.75</ele><time>2026-04-17T08:15:22.001Z</time></trkpt><trkpt lat="14.439182872135417" lon="120.87828696461898"><ele>6.0</ele><time>2026-04-17T08:15:23.001Z</time></trkpt><trkpt lat="14.439077697677666" lon="120.87824578786085"><ele>6.0</ele><time>2026-04-17T08:15:24.001Z</time></trkpt><trkpt lat="14.43896907238652" lon="120.87820951823625"><ele>6.0</ele><time>2026-04-17T08:15:25.001Z</time></trkpt><trkpt lat="14.438871796151824" lon="120.87817454137218"><ele>6.0</ele><time>2026-04-17T08:15:26.001Z</time></trkpt><trkpt lat="14.438792789149561" lon="120.87815081739883"><ele>6.0</ele><time>2026-04-17T08:15:27.001Z</time></trkpt><trkpt lat="14.438718825213435" lon="120.87812909262344"><ele>6.0</ele><time>2026-04-17T08:15:28.001Z</time></trkpt><trkpt lat="14.438616820391056" lon="120.87810222108008"><ele>6.0</ele><time>2026-04-17T08:15:29.001Z</time></trkpt><trkpt lat="14.438509526627186" lon="120.87804668941861"><ele>6.0</ele><time>2026-04-17T08:15:30.001Z</time></trkpt><trkpt lat="14.438427533001414" lon="120.87803152958554"><ele>6.0</ele><time>2026-04-17T08:15:31.001Z</time></trkpt><trkpt lat="14.43831184411071" lon="120.87798509606466"><ele>6.0</ele><time>2026-04-17T08:15:32.001Z</time></trkpt><trkpt lat="14.43818551563213" lon="120.87793557144546"><ele>6.0</ele><time>2026-04-17T08:15:33.001Z</time></trkpt><trkpt lat="14.438060768164647" lon="120.8778871282097"><ele>6.0</ele><time>2026-04-17T08:15:34.001Z</time></trkpt><trkpt lat="14.437942601241794" lon="120.87785034616057"><ele>6.0</ele><time>2026-04-17T08:15:35.001Z</time></trkpt><trkpt lat="14.437832134191526" lon="120.87781608936089"><ele>6.0</ele><time>2026-04-17T08:15:36.001Z</time></trkpt><trkpt lat="14.437731364654693" lon="120.87778503092576"><ele>6.0</ele><time>2026-04-17T08:15:37.001Z</time></trkpt><trkpt lat="14.437642444739895" lon="120.87775142264506"><ele>6.0</ele><time>2026-04-17T08:15:38.001Z</time></trkpt><trkpt lat="14.437558433577829" lon="120.8777226359257"><ele>6.0</ele><time>2026-04-17T08:15:39.001Z</time></trkpt><trkpt lat="14.437479593511492" lon="120.87769927593538"><ele>6.0</ele><time>2026-04-17T08:15:40.001Z</time></trkpt><trkpt lat="14.437387269526237" lon="120.877676619208"><ele>6.0</ele><time>2026-04-17T08:15:41.001Z</time></trkpt><trkpt lat="14.43729171836446" lon="120.87765427454812"><ele>6.0</ele><time>2026-04-17T08:15:42.001Z</time></trkpt><trkpt lat="14.437198942830504" lon="120.87763473725832"><ele>6.0</ele><time>2026-04-17T08:15:43.001Z</time></trkpt><trkpt lat="14.437096752797897" lon="120.87761970969964"><ele>6.0</ele><time>2026-04-17T08:15:44.001Z</time></trkpt><trkpt lat="14.436995679555677" lon="120.87761133482915"><ele>6.0</ele><time>2026-04-17T08:15:45.001Z</time></trkpt><trkpt lat="14.43689127823772" lon="120.87760864416366"><ele>6.0</ele><time>2026-04-17T08:15:46.001Z</time></trkpt><trkpt lat="14.436794021935688" lon="120.87761102318663"><ele>6.0</ele><time>2026-04-17T08:15:47.001Z</time></trkpt><trkpt lat="14.436709328524948" lon="120.8776257076372"><ele>6.0</ele><time>2026-04-17T08:15:48.001Z</time></trkpt><trkpt lat="14.436628108663582" lon="120.87764003008954"><ele>6.0</ele><time>2026-04-17T08:15:49.001Z</time></trkpt><trkpt lat="14.43654294599643" lon="120.87765894803566"><ele>6.0</ele><time>2026-04-17T08:15:50.001Z</time></trkpt><trkpt lat="14.436450962369838" lon="120.87767307442437"><ele>6.0</ele><time>2026-04-17T08:15:51.001Z</time></trkpt><trkpt lat="14.43636218277624" lon="120.87770221228492"><ele>6.0</ele><time>2026-04-17T08:15:52.001Z</time></trkpt><trkpt lat="14.436260685547508" lon="120.87771054127917"><ele>6.199999999999999</ele><time>2026-04-17T08:15:53.001Z</time></trkpt><trkpt lat="14.436167604316863" lon="120.87774397723946"><ele>6.3999999999999995</ele><time>2026-04-17T08:15:54.001Z</time></trkpt><trkpt lat="14.43607193485643" lon="120.87777174603855"><ele>6.6</ele><time>2026-04-17T08:15:55.001Z</time></trkpt><trkpt lat="14.435983834766454" lon="120.8777991638733"><ele>6.8</ele><time>2026-04-17T08:15:56.001Z</time></trkpt><trkpt lat="14.435903238945272" lon="120.87782563054701"><ele>7.0</ele><time>2026-04-17T08:15:57.001Z</time></trkpt><trkpt lat="14.435824114189604" lon="120.87783566065657"><ele>7.000000000000001</ele><time>2026-04-17T08:15:58.001Z</time></trkpt><trkpt lat="14.435741931344225" lon="120.87785860258663"><ele>7.0</ele><time>2026-04-17T08:15:59.001Z</time></trkpt><trkpt lat="14.435662129242017" lon="120.87787070634317"><ele>7.0</ele><time>2026-04-17T08:16:00.001Z</time></trkpt><trkpt lat="14.435582450696625" lon="120.87789066543021"><ele>7.0</ele><time>2026-04-17T08:16:01.001Z</time></trkpt><trkpt lat="14.435506175439603" lon="120.87790743650937"><ele>7.000000000000001</ele><time>2026-04-17T08:16:02.001Z</time></trkpt><trkpt lat="14.43542478059087" lon="120.87792138951481"><ele>7.0</ele><time>2026-04-17T08:16:03.001Z</time></trkpt><trkpt lat="14.435340756306449" lon="120.87793596345261"><ele>7.000000000000001</ele><time>2026-04-17T08:16:04.001Z</time></trkpt><trkpt lat="14.435256536169595" lon="120.87796128664229"><ele>7.0</ele><time>2026-04-17T08:16:05.001Z</time></trkpt><trkpt lat="14.435185168980814" lon="120.87797613580058"><ele>7.0</ele><time>2026-04-17T08:16:06.001Z</time></trkpt><trkpt lat="14.435096490758758" lon="120.87800146964268"><ele>7.0</ele><time>2026-04-17T08:16:07.001Z</time></trkpt><trkpt lat="14.435021583180946" lon="120.87801548474397"><ele>7.000000000000001</ele><time>2026-04-17T08:16:08.001Z</time></trkpt><trkpt lat="14.434947101676382" lon="120.87803526135758"><ele>7.0</ele><time>2026-04-17T08:16:09.001Z</time></trkpt><trkpt lat="14.434880228975942" lon="120.87804819802174"><ele>7.0</ele><time>2026-04-17T08:16:10.001Z</time></trkpt><trkpt lat="14.43479910293161" lon="120.87806967432259"><ele>7.0</ele><time>2026-04-17T08:16:11.001Z</time></trkpt><trkpt lat="14.434729317262574" lon="120.87808893681247"><ele>7.0</ele><time>2026-04-17T08:16:12.001Z</time></trkpt><trkpt lat="14.434666158294679" lon="120.87810850905562"><ele>7.0</ele><time>2026-04-17T08:16:13.001Z</time></trkpt><trkpt lat="14.43459963715712" lon="120.87813242196239"><ele>7.0</ele><time>2026-04-17T08:16:14.001Z</time></trkpt><trkpt lat="14.434535347928028" lon="120.87815050081447"><ele>7.0</ele><time>2026-04-17T08:16:15.001Z</time></trkpt><trkpt lat="14.434471791304121" lon="120.87816816317026"><ele>7.0</ele><time>2026-04-17T08:16:16.001Z</time></trkpt><trkpt lat="14.434374117760061" lon="120.87819623322864"><ele>7.000000000000001</ele><time>2026-04-17T08:16:18.001Z</time></trkpt><trkpt lat="14.434268419689348" lon="120.87822647899216"><ele>7.0</ele><time>2026-04-17T08:16:20.001Z</time></trkpt><trkpt lat="14.43416607651219" lon="120.87826040702215"><ele>7.0</ele><time>2026-04-17T08:16:22.001Z</time></trkpt><trkpt lat="14.434105342307713" lon="120.87827876205698"><ele>7.0</ele><time>2026-04-17T08:16:23.001Z</time></trkpt><trkpt lat="14.434029025823213" lon="120.8782799608907"><ele>7.000000000000001</ele><time>2026-04-17T08:16:24.001Z</time></trkpt><trkpt lat="14.433950042752286" lon="120.87829832072833"><ele>7.0</ele><time>2026-04-17T08:16:25.001Z</time></trkpt><trkpt lat="14.433865797140518" lon="120.87831790393139"><ele>7.0</ele><time>2026-04-17T08:16:26.001Z</time></trkpt><trkpt lat="14.433762890368325" lon="120.87836534358755"><ele>6.999999999999999</ele><time>2026-04-17T08:16:27.001Z</time></trkpt><trkpt lat="14.43366377305519" lon="120.87839024411669"><ele>6.999999999999999</ele><time>2026-04-17T08:16:28.001Z</time></trkpt><trkpt lat="14.433554193801012" lon="120.87841981484999"><ele>7.0</ele><time>2026-04-17T08:16:29.001Z</time></trkpt><trkpt lat="14.433447953620899" lon="120.87844826150322"><ele>7.0</ele><time>2026-04-17T08:16:30.001Z</time></trkpt><trkpt lat="14.433330711174351" lon="120.87847954604801"><ele>7.0</ele><time>2026-04-17T08:16:31.001Z</time></trkpt><trkpt lat="14.43322250810564" lon="120.87850791843148"><ele>6.999999999999999</ele><time>2026-04-17T08:16:32.001Z</time></trkpt><trkpt lat="14.433118295848843" lon="120.87853660992972"><ele>6.999999999999999</ele><time>2026-04-17T08:16:33.001Z</time></trkpt><trkpt lat="14.433031487439603" lon="120.87856215264739"><ele>7.0</ele><time>2026-04-17T08:16:34.001Z</time></trkpt><trkpt lat="14.432941796023107" lon="120.87858133105895"><ele>7.0</ele><time>2026-04-17T08:16:35.001Z</time></trkpt><trkpt lat="14.432861697280298" lon="120.87859738634029"><ele>6.8</ele><time>2026-04-17T08:16:36.001Z</time></trkpt><trkpt lat="14.432772824838517" lon="120.87862008699743"><ele>6.6</ele><time>2026-04-17T08:16:37.001Z</time></trkpt><trkpt lat="14.432685578959656" lon="120.87864272055604"><ele>6.3999999999999995</ele><time>2026-04-17T08:16:38.001Z</time></trkpt><trkpt lat="14.432597779744485" lon="120.87866555549196"><ele>6.199999999999999</ele><time>2026-04-17T08:16:39.001Z</time></trkpt><trkpt lat="14.432507904195855" lon="120.87868417194936"><ele>6.0</ele><time>2026-04-17T08:16:40.001Z</time></trkpt><trkpt lat="14.432420146894971" lon="120.87870018758086"><ele>6.0</ele><time>2026-04-17T08:16:41.001Z</time></trkpt><trkpt lat="14.432342735323227" lon="120.87872324815416"><ele>6.0</ele><time>2026-04-17T08:16:42.001Z</time></trkpt><trkpt lat="14.432272863874822" lon="120.87874284355155"><ele>6.0</ele><time>2026-04-17T08:16:43.001Z</time></trkpt><trkpt lat="14.432160800558444" lon="120.87877440402863"><ele>6.0</ele><time>2026-04-17T08:16:45.001Z</time></trkpt><trkpt lat="14.432070607943059" lon="120.87878108362631"><ele>6.0</ele><time>2026-04-17T08:16:47.001Z</time></trkpt><trkpt lat="14.431963644807203" lon="120.87880613146514"><ele>6.0</ele><time>2026-04-17T08:16:49.001Z</time></trkpt><trkpt lat="14.43184988643001" lon="120.8788327705661"><ele>6.0</ele><time>2026-04-17T08:16:51.001Z</time></trkpt><trkpt lat="14.431714565812914" lon="120.8788652466869"><ele>6.0</ele><time>2026-04-17T08:16:53.001Z</time></trkpt><trkpt lat="14.431640100215544" lon="120.87888357300501"><ele>6.0</ele><time>2026-04-17T08:16:54.001Z</time></trkpt><trkpt lat="14.431542794169387" lon="120.87890752046823"><ele>6.0</ele><time>2026-04-17T08:16:55.001Z</time></trkpt><trkpt lat="14.431471645551277" lon="120.87894218746324"><ele>6.0</ele><time>2026-04-17T08:16:56.001Z</time></trkpt><trkpt lat="14.431412294143536" lon="120.87896508078867"><ele>6.0</ele><time>2026-04-17T08:16:57.001Z</time></trkpt><trkpt lat="14.431296183883527" lon="120.87899090504466"><ele>6.0</ele><time>2026-04-17T08:16:59.001Z</time></trkpt><trkpt lat="14.43121665421375" lon="120.87899136658253"><ele>6.0</ele><time>2026-04-17T08:17:01.001Z</time></trkpt><trkpt lat="14.431128990569986" lon="120.87901312328765"><ele>6.0</ele><time>2026-04-17T08:17:06.001Z</time></trkpt><trkpt lat="14.431059448724834" lon="120.87903035921248"><ele>6.0</ele><time>2026-04-17T08:17:08.001Z</time></trkpt><trkpt lat="14.430972035219117" lon="120.87905202461663"><ele>6.4</ele><time>2026-04-17T08:17:10.001Z</time></trkpt><trkpt lat="14.430866778661045" lon="120.87909502429757"><ele>6.8</ele><time>2026-04-17T08:17:12.001Z</time></trkpt><trkpt lat="14.430740965569967" lon="120.87910929550159"><ele>7.200000000000001</ele><time>2026-04-17T08:17:14.001Z</time></trkpt><trkpt lat="14.430672801754264" lon="120.87912618988699"><ele>7.6000000000000005</ele><time>2026-04-17T08:17:15.001Z</time></trkpt><trkpt lat="14.430603661326165" lon="120.8791433263036"><ele>8.0</ele><time>2026-04-17T08:17:16.001Z</time></trkpt><trkpt lat="14.430527741387918" lon="120.87916214303432"><ele>7.999999999999999</ele><time>2026-04-17T08:17:17.001Z</time></trkpt><trkpt lat="14.43046575298309" lon="120.87917750684095"><ele>8.0</ele><time>2026-04-17T08:17:18.001Z</time></trkpt><trkpt lat="14.430383283802938" lon="120.87919794679303"><ele>8.0</ele><time>2026-04-17T08:17:19.001Z</time></trkpt><trkpt lat="14.430297410630832" lon="120.87921923042444"><ele>8.0</ele><time>2026-04-17T08:17:20.001Z</time></trkpt><trkpt lat="14.43022177865292" lon="120.87923786369343"><ele>7.999999999999999</ele><time>2026-04-17T08:17:21.001Z</time></trkpt><trkpt lat="14.43014795788912" lon="120.87925601318855"><ele>8.0</ele><time>2026-04-17T08:17:22.001Z</time></trkpt><trkpt lat="14.430066810264467" lon="120.87927596405893"><ele>8.142857142857142</ele><time>2026-04-17T08:17:23.001Z</time></trkpt><trkpt lat="14.42999511159484" lon="120.87929359181875"><ele>8.285714285714285</ele><time>2026-04-17T08:17:24.001Z</time></trkpt><trkpt lat="14.429924005211587" lon="120.87931107395836"><ele>8.428571428571429</ele><time>2026-04-17T08:17:25.001Z</time></trkpt><trkpt lat="14.429859503835287" lon="120.87932693219706"><ele>8.571428571428571</ele><time>2026-04-17T08:17:26.001Z</time></trkpt><trkpt lat="14.429779087329464" lon="120.87934670331673"><ele>8.714285714285715</ele><time>2026-04-17T08:17:27.001Z</time></trkpt><trkpt lat="14.429709710259154" lon="120.87936376028799"><ele>8.857142857142858</ele><time>2026-04-17T08:17:28.001Z</time></trkpt><trkpt lat="14.42964608595324" lon="120.87937940289349"><ele>9.0</ele><time>2026-04-17T08:17:29.001Z</time></trkpt><trkpt lat="14.429570251315715" lon="120.87939804751964"><ele>9.0</ele><time>2026-04-17T08:17:30.001Z</time></trkpt><trkpt lat="14.42949599580662" lon="120.8794163039002"><ele>9.0</ele><time>2026-04-17T08:17:31.001Z</time></trkpt><trkpt lat="14.429417938052469" lon="120.87943549509664"><ele>9.0</ele><time>2026-04-17T08:17:32.001Z</time></trkpt><trkpt lat="14.429339678794085" lon="120.87945473583574"><ele>9.0</ele><time>2026-04-17T08:17:33.001Z</time></trkpt><trkpt lat="14.429260823987718" lon="120.87947842738247"><ele>9.0</ele><time>2026-04-17T08:17:34.001Z</time></trkpt><trkpt lat="14.429174070435222" lon="120.8795063282404"><ele>9.0</ele><time>2026-04-17T08:17:35.001Z</time></trkpt><trkpt lat="14.429099691122822" lon="120.87953024944309"><ele>9.0</ele><time>2026-04-17T08:17:36.001Z</time></trkpt><trkpt lat="14.429026299579148" lon="120.87955981839006"><ele>9.0</ele><time>2026-04-17T08:17:37.001Z</time></trkpt><trkpt lat="14.428965615303811" lon="120.87959850550475"><ele>9.0</ele><time>2026-04-17T08:17:38.001Z</time></trkpt><trkpt lat="14.428903687124155" lon="120.87962516559271"><ele>9.0</ele><time>2026-04-17T08:17:39.001Z</time></trkpt><trkpt lat="14.428795601442152" lon="120.879651653505"><ele>9.0</ele><time>2026-04-17T08:17:41.001Z</time></trkpt><trkpt lat="14.428718132279078" lon="120.87968371342275"><ele>9.0</ele><time>2026-04-17T08:17:43.001Z</time></trkpt><trkpt lat="14.42865479641202" lon="120.87970992440059"><ele>9.0</ele><time>2026-04-17T08:17:45.001Z</time></trkpt><trkpt lat="14.428560601497487" lon="120.87974890611632"><ele>9.0</ele><time>2026-04-17T08:17:48.001Z</time></trkpt><trkpt lat="14.428485291479992" lon="120.87978161117756"><ele>9.0</ele><time>2026-04-17T08:17:50.001Z</time></trkpt><trkpt lat="14.428418888358834" lon="120.87981095348519"><ele>9.0</ele><time>2026-04-17T08:17:53.001Z</time></trkpt><trkpt lat="14.428340703383931" lon="120.87984550196663"><ele>9.0</ele><time>2026-04-17T08:17:55.001Z</time></trkpt><trkpt lat="14.428272376800633" lon="120.87987569420959"><ele>9.0</ele><time>2026-04-17T08:17:57.001Z</time></trkpt><trkpt lat="14.428207439815061" lon="120.87990438865604"><ele>9.0</ele><time>2026-04-17T08:17:59.001Z</time></trkpt><trkpt lat="14.428147540051862" lon="120.8799345631738"><ele>9.0</ele><time>2026-04-17T08:18:01.001Z</time></trkpt><trkpt lat="14.428078969798218" lon="120.87996922529956"><ele>9.0</ele><time>2026-04-17T08:18:03.001Z</time></trkpt><trkpt lat="14.428011624130109" lon="120.88000326839716"><ele>9.0</ele><time>2026-04-17T08:18:06.001Z</time></trkpt><trkpt lat="14.427926600330292" lon="120.88004624775486"><ele>9.0</ele><time>2026-04-17T08:18:11.001Z</time></trkpt><trkpt lat="14.427868449250864" lon="120.88007564304334"><ele>9.0</ele><time>2026-04-17T08:18:13.001Z</time></trkpt><trkpt lat="14.427783764205918" lon="120.88017264906375"><ele>9.0</ele><time>2026-04-17T08:18:16.001Z</time></trkpt><trkpt lat="14.427882379837355" lon="120.88030135606509"><ele>9.0</ele><time>2026-04-17T08:18:17.001Z</time></trkpt><trkpt lat="14.427889217156704" lon="120.88038210378254"><ele>9.0</ele><time>2026-04-17T08:18:19.001Z</time></trkpt><trkpt lat="14.427890987529922" lon="120.88047749003042"><ele>9.0</ele><time>2026-04-17T08:18:21.001Z</time></trkpt><trkpt lat="14.427889934681785" lon="120.88054737540703"><ele>9.0</ele><time>2026-04-17T08:18:23.001Z</time></trkpt><trkpt lat="14.427899427543238" lon="120.8806258243434"><ele>9.0</ele><time>2026-04-17T08:18:25.001Z</time></trkpt><trkpt lat="14.42790837798215" lon="120.88071087562108"><ele>9.0</ele><time>2026-04-17T08:18:27.001Z</time></trkpt><trkpt lat="14.427912915965742" lon="120.88079114647175"><ele>9.0</ele><time>2026-04-17T08:18:29.001Z</time></trkpt><trkpt lat="14.427921078354956" lon="120.8808775796078"><ele>9.0</ele><time>2026-04-17T08:18:32.001Z</time></trkpt><trkpt lat="14.427895054936982" lon="120.88099178605155"><ele>9.0</ele><time>2026-04-17T08:18:34.001Z</time></trkpt><trkpt lat="14.427864971039872" lon="120.88105220552305"><ele>9.0</ele><time>2026-04-17T08:18:35.001Z</time></trkpt><trkpt lat="14.427822066566582" lon="120.88111509224981"><ele>9.0</ele><time>2026-04-17T08:18:36.001Z</time></trkpt><trkpt lat="14.42777588551668" lon="120.88117528605919"><ele>9.0</ele><time>2026-04-17T08:18:37.001Z</time></trkpt><trkpt lat="14.42772632729801" lon="120.88124622467627"><ele>9.0</ele><time>2026-04-17T08:18:38.001Z</time></trkpt><trkpt lat="14.427668770109012" lon="120.88131154877331"><ele>9.0</ele><time>2026-04-17T08:18:40.001Z</time></trkpt><trkpt lat="14.427607924540819" lon="120.88135254410315"><ele>9.0</ele><time>2026-04-17T08:18:41.001Z</time></trkpt><trkpt lat="14.427545279583512" lon="120.8814102829731"><ele>9.0</ele><time>2026-04-17T08:18:43.001Z</time></trkpt><trkpt lat="14.42748321464052" lon="120.88144714572758"><ele>9.0</ele><time>2026-04-17T08:18:50.001Z</time></trkpt><trkpt lat="14.4273917333584" lon="120.88150648581325"><ele>9.0</ele><time>2026-04-17T08:18:52.001Z</time></trkpt><trkpt lat="14.427334706416033" lon="120.88155949999528"><ele>9.0</ele><time>2026-04-17T08:18:53.001Z</time></trkpt><trkpt lat="14.427261555481028" lon="120.88159957149074"><ele>9.0</ele><time>2026-04-17T08:18:54.001Z</time></trkpt><trkpt lat="14.427191435154867" lon="120.88164442716679"><ele>9.0</ele><time>2026-04-17T08:18:55.001Z</time></trkpt><trkpt lat="14.42712804093868" lon="120.88168825206779"><ele>9.0</ele><time>2026-04-17T08:18:56.001Z</time></trkpt><trkpt lat="14.427060053835309" lon="120.88172027464132"><ele>9.000000000000002</ele><time>2026-04-17T08:18:57.001Z</time></trkpt><trkpt lat="14.42699758583627" lon="120.88175951172015"><ele>9.0</ele><time>2026-04-17T08:18:58.001Z</time></trkpt><trkpt lat="14.426933435598633" lon="120.8817973564484"><ele>9.0</ele><time>2026-04-17T08:18:59.001Z</time></trkpt><trkpt lat="14.42686931769196" lon="120.88183514038853"><ele>9.0</ele><time>2026-04-17T08:19:00.001Z</time></trkpt><trkpt lat="14.42680613182335" lon="120.88188010857196"><ele>9.0</ele><time>2026-04-17T08:19:01.001Z</time></trkpt><trkpt lat="14.426751680411828" lon="120.88191501077341"><ele>9.000000000000002</ele><time>2026-04-17T08:19:02.001Z</time></trkpt><trkpt lat="14.426700325517379" lon="120.88195395246028"><ele>9.0</ele><time>2026-04-17T08:19:04.001Z</time></trkpt><trkpt lat="14.426812209245908" lon="120.88213469906142"><ele>9.166666666666666</ele><time>2026-04-17T08:19:06.001Z</time></trkpt><trkpt lat="14.426858691861362" lon="120.88218756368389"><ele>9.333333333333334</ele><time>2026-04-17T08:19:07.001Z</time></trkpt><trkpt lat="14.426915737645599" lon="120.88224579465022"><ele>9.5</ele><time>2026-04-17T08:19:08.001Z</time></trkpt><trkpt lat="14.426977749679294" lon="120.88230904653676"><ele>9.666666666666668</ele><time>2026-04-17T08:19:09.001Z</time></trkpt><trkpt lat="14.427043912365935" lon="120.8823740741547"><ele>9.833333333333334</ele><time>2026-04-17T08:19:10.001Z</time></trkpt><trkpt lat="14.42709996289533" lon="120.88245766771166"><ele>10.0</ele><time>2026-04-17T08:19:11.001Z</time></trkpt><trkpt lat="14.427168814556767" lon="120.88253206447061"><ele>9.6</ele><time>2026-04-17T08:19:12.001Z</time></trkpt><trkpt lat="14.427238720749319" lon="120.88260792308849"><ele>9.2</ele><time>2026-04-17T08:19:13.001Z</time></trkpt><trkpt lat="14.427308978047638" lon="120.88268504632072"><ele>8.8</ele><time>2026-04-17T08:19:14.001Z</time></trkpt><trkpt lat="14.42737725516483" lon="120.8827600972246"><ele>8.4</ele><time>2026-04-17T08:19:15.001Z</time></trkpt><trkpt lat="14.427446526857207" lon="120.8828362413809"><ele>8.0</ele><time>2026-04-17T08:19:16.001Z</time></trkpt><trkpt lat="14.42751396081595" lon="120.88291020061901"><ele>7.999999999999999</ele><time>2026-04-17T08:19:17.001Z</time></trkpt><trkpt lat="14.427575082896245" lon="120.88297720402065"><ele>8.0</ele><time>2026-04-17T08:19:18.001Z</time></trkpt><trkpt lat="14.427629357214732" lon="120.88303670073262"><ele>8.0</ele><time>2026-04-17T08:19:19.001Z</time></trkpt><trkpt lat="14.427680726922294" lon="120.8830930133687"><ele>8.0</ele><time>2026-04-17T08:19:20.001Z</time></trkpt><trkpt lat="14.427736534733953" lon="120.88313486269254"><ele>7.999999999999999</ele><time>2026-04-17T08:19:21.001Z</time></trkpt><trkpt lat="14.427815487104308" lon="120.88322845106458"><ele>8.0</ele><time>2026-04-17T08:19:23.001Z</time></trkpt><trkpt lat="14.427884645449316" lon="120.88329397250793"><ele>8.0</ele><time>2026-04-17T08:19:25.001Z</time></trkpt><trkpt lat="14.427974822196552" lon="120.88338874749003"><ele>8.0</ele><time>2026-04-17T08:19:27.001Z</time></trkpt><trkpt lat="14.42803505902583" lon="120.88343774747757"><ele>8.0</ele><time>2026-04-17T08:19:28.001Z</time></trkpt><trkpt lat="14.428109584573452" lon="120.88349374143739"><ele>8.0</ele><time>2026-04-17T08:19:29.001Z</time></trkpt><trkpt lat="14.428192531165077" lon="120.88354892682152"><ele>8.0</ele><time>2026-04-17T08:19:30.001Z</time></trkpt><trkpt lat="14.428283523846828" lon="120.8836094653602"><ele>8.0</ele><time>2026-04-17T08:19:31.001Z</time></trkpt><trkpt lat="14.428372739103967" lon="120.8836688213692"><ele>8.0</ele><time>2026-04-17T08:19:32.001Z</time></trkpt><trkpt lat="14.428473236784592" lon="120.88373568369512"><ele>8.0</ele><time>2026-04-17T08:19:33.001Z</time></trkpt><trkpt lat="14.428556810135186" lon="120.88379218569209"><ele>8.0</ele><time>2026-04-17T08:19:34.001Z</time></trkpt><trkpt lat="14.428634852562862" lon="120.8838507316757"><ele>8.0</ele><time>2026-04-17T08:19:35.001Z</time></trkpt><trkpt lat="14.428715037603919" lon="120.88389646205027"><ele>7.999999999999999</ele><time>2026-04-17T08:19:36.001Z</time></trkpt><trkpt lat="14.42874644729495" lon="120.88399105062396"><ele>8.0</ele><time>2026-04-17T08:19:37.001Z</time></trkpt><trkpt lat="14.428806090551793" lon="120.88406654366352"><ele>8.0</ele><time>2026-04-17T08:19:38.001Z</time></trkpt><trkpt lat="14.428852734070054" lon="120.88414945343865"><ele>8.0</ele><time>2026-04-17T08:19:39.001Z</time></trkpt><trkpt lat="14.428878623139655" lon="120.88422316839262"><ele>7.999999999999999</ele><time>2026-04-17T08:19:40.001Z</time></trkpt><trkpt lat="14.42892809431527" lon="120.88428897192534"><ele>8.0</ele><time>2026-04-17T08:19:41.001Z</time></trkpt><trkpt lat="14.428975226375881" lon="120.88435186087627"><ele>7.833333333333333</ele><time>2026-04-17T08:19:42.001Z</time></trkpt><trkpt lat="14.429024633544241" lon="120.8844177855461"><ele>7.666666666666666</ele><time>2026-04-17T08:19:43.001Z</time></trkpt><trkpt lat="14.429070952714145" lon="120.88447958984814"><ele>7.5</ele><time>2026-04-17T08:19:44.001Z</time></trkpt><trkpt lat="14.429115491146804" lon="120.8845390182319"><ele>7.333333333333334</ele><time>2026-04-17T08:19:45.001Z</time></trkpt><trkpt lat="14.429177157232202" lon="120.88458419634159"><ele>7.166666666666667</ele><time>2026-04-17T08:19:46.001Z</time></trkpt><trkpt lat="14.429228358862108" lon="120.8846288533978"><ele>7.0</ele><time>2026-04-17T08:19:47.001Z</time></trkpt><trkpt lat="14.42928913118872" lon="120.88468185783726"><ele>7.000000000000001</ele><time>2026-04-17T08:19:48.001Z</time></trkpt><trkpt lat="14.429359639504643" lon="120.88473453673657"><ele>7.0</ele><time>2026-04-17T08:19:49.001Z</time></trkpt><trkpt lat="14.429428924257476" lon="120.88477783628667"><ele>7.0</ele><time>2026-04-17T08:19:50.001Z</time></trkpt><trkpt lat="14.429498619854794" lon="120.88482139259625"><ele>7.0</ele><time>2026-04-17T08:19:51.001Z</time></trkpt><trkpt lat="14.429565328390884" lon="120.88486308213791"><ele>7.000000000000001</ele><time>2026-04-17T08:19:52.001Z</time></trkpt><trkpt lat="14.429629239835938" lon="120.88489964319889"><ele>7.0</ele><time>2026-04-17T08:19:53.001Z</time></trkpt><trkpt lat="14.429687744987723" lon="120.88493228876456"><ele>7.166666666666667</ele><time>2026-04-17T08:19:54.001Z</time></trkpt><trkpt lat="14.429751507350307" lon="120.88496786783169"><ele>7.333333333333334</ele><time>2026-04-17T08:19:55.001Z</time></trkpt><trkpt lat="14.429814271878913" lon="120.88500289011164"><ele>7.5</ele><time>2026-04-17T08:19:56.001Z</time></trkpt><trkpt lat="14.429876999205138" lon="120.88503789162999"><ele>7.666666666666666</ele><time>2026-04-17T08:19:57.001Z</time></trkpt><trkpt lat="14.429951907642927" lon="120.88508207862536"><ele>7.833333333333333</ele><time>2026-04-17T08:19:58.001Z</time></trkpt><trkpt lat="14.43002107253093" lon="120.88512310927806"><ele>8.0</ele><time>2026-04-17T08:19:59.001Z</time></trkpt><trkpt lat="14.430089676075244" lon="120.88516380693235"><ele>8.166666666666666</ele><time>2026-04-17T08:20:00.001Z</time></trkpt><trkpt lat="14.430149051419816" lon="120.88519903015235"><ele>8.333333333333332</ele><time>2026-04-17T08:20:01.001Z</time></trkpt><trkpt lat="14.430262896318396" lon="120.88526656633555"><ele>8.5</ele><time>2026-04-17T08:20:03.001Z</time></trkpt><trkpt lat="14.430316599745622" lon="120.88530453659456"><ele>8.666666666666666</ele><time>2026-04-17T08:20:04.001Z</time></trkpt><trkpt lat="14.430380503919684" lon="120.88534829037695"><ele>8.833333333333334</ele><time>2026-04-17T08:20:05.001Z</time></trkpt><trkpt lat="14.430433318917798" lon="120.88539104128206"><ele>9.0</ele><time>2026-04-17T08:20:06.001Z</time></trkpt><trkpt lat="14.430486550859866" lon="120.88543457624714"><ele>9.0</ele><time>2026-04-17T08:20:07.001Z</time></trkpt><trkpt lat="14.430541441029249" lon="120.88547946744669"><ele>9.0</ele><time>2026-04-17T08:20:08.001Z</time></trkpt><trkpt lat="14.430591570127275" lon="120.88552711591886"><ele>9.0</ele><time>2026-04-17T08:20:09.001Z</time></trkpt><trkpt lat="14.430645286425476" lon="120.88557878572102"><ele>9.0</ele><time>2026-04-17T08:20:10.001Z</time></trkpt><trkpt lat="14.430704526389835" lon="120.8856389554409"><ele>9.0</ele><time>2026-04-17T08:20:11.001Z</time></trkpt><trkpt lat="14.430764678152837" lon="120.88570005125842"><ele>9.0</ele><time>2026-04-17T08:20:12.001Z</time></trkpt><trkpt lat="14.430826974965255" lon="120.88576332578309"><ele>9.000000000000002</ele><time>2026-04-17T08:20:13.001Z</time></trkpt><trkpt lat="14.430888215302163" lon="120.88582552726817"><ele>9.0</ele><time>2026-04-17T08:20:14.001Z</time></trkpt><trkpt lat="14.430945217067599" lon="120.88588342365261"><ele>9.0</ele><time>2026-04-17T08:20:15.001Z</time></trkpt><trkpt lat="14.430994612211512" lon="120.88593359404072"><ele>9.0</ele><time>2026-04-17T08:20:16.001Z</time></trkpt><trkpt lat="14.431039536364105" lon="120.8859792232525"><ele>9.0</ele><time>2026-04-17T08:20:17.001Z</time></trkpt><trkpt lat="14.431087998190653" lon="120.88602844566677"><ele>9.000000000000002</ele><time>2026-04-17T08:20:18.001Z</time></trkpt><trkpt lat="14.431138111920653" lon="120.88608083790385"><ele>9.0</ele><time>2026-04-17T08:20:19.001Z</time></trkpt><trkpt lat="14.431192723860892" lon="120.88613794772708"><ele>8.833333333333334</ele><time>2026-04-17T08:20:20.001Z</time></trkpt><trkpt lat="14.431238121357882" lon="120.88618471832235"><ele>8.666666666666666</ele><time>2026-04-17T08:20:21.001Z</time></trkpt><trkpt lat="14.431329076838415" lon="120.88627863872067"><ele>8.5</ele><time>2026-04-17T08:20:23.001Z</time></trkpt><trkpt lat="14.431379214591606" lon="120.88633041083958"><ele>8.333333333333332</ele><time>2026-04-17T08:20:24.001Z</time></trkpt><trkpt lat="14.431435811728914" lon="120.88638885290484"><ele>8.166666666666666</ele><time>2026-04-17T08:20:25.001Z</time></trkpt><trkpt lat="14.43150545187848" lon="120.88646076315179"><ele>8.0</ele><time>2026-04-17T08:20:26.001Z</time></trkpt><trkpt lat="14.431571584119874" lon="120.88652905114336"><ele>7.999999999999999</ele><time>2026-04-17T08:20:27.001Z</time></trkpt><trkpt lat="14.431639610277454" lon="120.88659926533141"><ele>8.0</ele><time>2026-04-17T08:20:28.001Z</time></trkpt><trkpt lat="14.431702338626257" lon="120.88666769945695"><ele>8.0</ele><time>2026-04-17T08:20:29.001Z</time></trkpt><trkpt lat="14.431757850450301" lon="120.88672996168246"><ele>8.0</ele><time>2026-04-17T08:20:30.001Z</time></trkpt><trkpt lat="14.431807389910887" lon="120.88678552527966"><ele>7.999999999999999</ele><time>2026-04-17T08:20:31.001Z</time></trkpt><trkpt lat="14.43185776007657" lon="120.88684202058785"><ele>8.0</ele><time>2026-04-17T08:20:32.001Z</time></trkpt><trkpt lat="14.431908873678964" lon="120.88689934975005"><ele>7.999999999999999</ele><time>2026-04-17T08:20:33.001Z</time></trkpt><trkpt lat="14.431962868239339" lon="120.88695866772301"><ele>8.0</ele><time>2026-04-17T08:20:34.001Z</time></trkpt><trkpt lat="14.432019677389086" lon="120.88701761113617"><ele>8.0</ele><time>2026-04-17T08:20:35.001Z</time></trkpt><trkpt lat="14.432082094828347" lon="120.88708237354315"><ele>8.0</ele><time>2026-04-17T08:20:36Z</time></trkpt><trkpt lat="14.432134740081459" lon="120.88713699662178"><ele>7.999999999999999</ele><time>2026-04-17T08:20:37Z</time></trkpt><trkpt lat="14.43218599198587" lon="120.88719017401375"><ele>8.0</ele><time>2026-04-17T08:20:38Z</time></trkpt><trkpt lat="14.432233339174523" lon="120.88723870630851"><ele>8.0</ele><time>2026-04-17T08:20:39Z</time></trkpt><trkpt lat="14.43231098413045" lon="120.88731582815325"><ele>8.0</ele><time>2026-04-17T08:20:41Z</time></trkpt><trkpt lat="14.432372455735164" lon="120.88737386319967"><ele>8.0</ele><time>2026-04-17T08:20:43Z</time></trkpt><trkpt lat="14.432429065351293" lon="120.88742654831945"><ele>8.0</ele><time>2026-04-17T08:20:45Z</time></trkpt><trkpt lat="14.432505189214446" lon="120.88748679289772"><ele>8.0</ele><time>2026-04-17T08:20:47Z</time></trkpt><trkpt lat="14.432584557195272" lon="120.88753707736136"><ele>8.0</ele><time>2026-04-17T08:20:49Z</time></trkpt><trkpt lat="14.432631189744782" lon="120.8875815549252"><ele>8.0</ele><time>2026-04-17T08:20:51Z</time></trkpt><trkpt lat="14.432538210835329" lon="120.88753267302269"><ele>8.0</ele><time>2026-04-17T08:28:23.001Z</time></trkpt><trkpt lat="14.432424184060897" lon="120.88756150478251"><ele>8.0</ele><time>2026-04-17T08:28:25.001Z</time></trkpt><trkpt lat="14.43231982504988" lon="120.88760568047022"><ele>8.0</ele><time>2026-04-17T08:28:27.001Z</time></trkpt><trkpt lat="14.432256565821573" lon="120.88763113853967"><ele>7.833333333333333</ele><time>2026-04-17T08:28:28.001Z</time></trkpt><trkpt lat="14.43218642278747" lon="120.88765585957427"><ele>7.666666666666666</ele><time>2026-04-17T08:28:29.001Z</time></trkpt><trkpt lat="14.432115530454046" lon="120.8876791343587"><ele>7.5</ele><time>2026-04-17T08:28:30.001Z</time></trkpt><trkpt lat="14.432055053101763" lon="120.88769987266996"><ele>7.333333333333334</ele><time>2026-04-17T08:28:31.001Z</time></trkpt><trkpt lat="14.431969894863377" lon="120.88772464700759"><ele>7.166666666666667</ele><time>2026-04-17T08:28:33.001Z</time></trkpt><trkpt lat="14.431868439015188" lon="120.88775667205692"><ele>7.0</ele><time>2026-04-17T08:28:35.001Z</time></trkpt><trkpt lat="14.431755998983936" lon="120.88779255950597"><ele>7.000000000000001</ele><time>2026-04-17T08:28:37.001Z</time></trkpt><trkpt lat="14.431680159185433" lon="120.88782067189977"><ele>7.0</ele><time>2026-04-17T08:28:38.001Z</time></trkpt><trkpt lat="14.431609824579644" lon="120.88784111298425"><ele>7.0</ele><time>2026-04-17T08:28:39.001Z</time></trkpt><trkpt lat="14.431532846420053" lon="120.88786288927587"><ele>7.0</ele><time>2026-04-17T08:28:40.001Z</time></trkpt><trkpt lat="14.431457107393916" lon="120.88788930684667"><ele>7.000000000000001</ele><time>2026-04-17T08:28:41.001Z</time></trkpt><trkpt lat="14.431367755377192" lon="120.88791550242551"><ele>7.0</ele><time>2026-04-17T08:28:42.001Z</time></trkpt><trkpt lat="14.431278236872705" lon="120.88794602712422"><ele>6.6</ele><time>2026-04-17T08:28:43.001Z</time></trkpt><trkpt lat="14.4311836342624" lon="120.88797693463256"><ele>6.199999999999999</ele><time>2026-04-17T08:28:44.001Z</time></trkpt><trkpt lat="14.431087728106846" lon="120.88801233968915"><ele>5.8</ele><time>2026-04-17T08:28:45.001Z</time></trkpt><trkpt lat="14.430992975108792" lon="120.88804395398759"><ele>5.4</ele><time>2026-04-17T08:28:46.001Z</time></trkpt><trkpt lat="14.430898680129655" lon="120.88807268046595"><ele>5.0</ele><time>2026-04-17T08:28:47.001Z</time></trkpt><trkpt lat="14.430798527402386" lon="120.88810335237503"><ele>5.0</ele><time>2026-04-17T08:28:48.001Z</time></trkpt><trkpt lat="14.430696016761797" lon="120.88813399253775"><ele>5.0</ele><time>2026-04-17T08:28:49.001Z</time></trkpt><trkpt lat="14.430590374256312" lon="120.88816752805664"><ele>5.0</ele><time>2026-04-17T08:28:50.001Z</time></trkpt><trkpt lat="14.430475630626173" lon="120.88820151549575"><ele>5.0</ele><time>2026-04-17T08:28:51.001Z</time></trkpt><trkpt lat="14.430359266787487" lon="120.88823912951409"><ele>5.0</ele><time>2026-04-17T08:28:52.001Z</time></trkpt><trkpt lat="14.43023827098148" lon="120.88828020899733"><ele>5.0</ele><time>2026-04-17T08:28:53.001Z</time></trkpt><trkpt lat="14.430111800669142" lon="120.88832189157503"><ele>5.0</ele><time>2026-04-17T08:28:54.001Z</time></trkpt><trkpt lat="14.429987634319186" lon="120.88836599329957"><ele>5.0</ele><time>2026-04-17T08:28:55.001Z</time></trkpt><trkpt lat="14.429860063596351" lon="120.88840706521147"><ele>5.0</ele><time>2026-04-17T08:28:56.001Z</time></trkpt><trkpt lat="14.429732072441372" lon="120.88844613830413"><ele>5.0</ele><time>2026-04-17T08:28:57.001Z</time></trkpt><trkpt lat="14.429604671627006" lon="120.88848563378812"><ele>5.0</ele><time>2026-04-17T08:28:58.001Z</time></trkpt><trkpt lat="14.429476879747272" lon="120.88852519402964"><ele>5.0</ele><time>2026-04-17T08:28:59.001Z</time></trkpt><trkpt lat="14.429339985366575" lon="120.88856805995081"><ele>5.0</ele><time>2026-04-17T08:29:00Z</time></trkpt><trkpt lat="14.429201752112643" lon="120.88861472148207"><ele>5.0</ele><time>2026-04-17T08:29:01Z</time></trkpt><trkpt lat="14.42907127245965" lon="120.88865509392454"><ele>5.0</ele><time>2026-04-17T08:29:02Z</time></trkpt><trkpt lat="14.428965079340129" lon="120.88869372113747"><ele>5.0</ele><time>2026-04-17T08:29:03Z</time></trkpt><trkpt lat="14.42887725726389" lon="120.8887255613501"><ele>5.0</ele><time>2026-04-17T08:29:04Z</time></trkpt><trkpt lat="14.428799161723322" lon="120.88875512837973"><ele>5.0</ele><time>2026-04-17T08:29:05Z</time></trkpt><trkpt lat="14.428718152517693" lon="120.88878103505478"><ele>5.0</ele><time>2026-04-17T08:29:06Z</time></trkpt><trkpt lat="14.428627784156886" lon="120.88880768977374"><ele>5.0</ele><time>2026-04-17T08:29:07Z</time></trkpt><trkpt lat="14.428525371605147" lon="120.88884089381737"><ele>5.0</ele><time>2026-04-17T08:29:08Z</time></trkpt><trkpt lat="14.42841660159978" lon="120.88887574889212"><ele>5.0</ele><time>2026-04-17T08:29:09Z</time></trkpt><trkpt lat="14.428298880207258" lon="120.88891281355188"><ele>5.0</ele><time>2026-04-17T08:29:10Z</time></trkpt><trkpt lat="14.428178942920907" lon="120.88894954065272"><ele>5.0</ele><time>2026-04-17T08:29:11Z</time></trkpt><trkpt lat="14.428049216437504" lon="120.88899263817888"><ele>5.0</ele><time>2026-04-17T08:29:12Z</time></trkpt><trkpt lat="14.427913168513596" lon="120.88903872364958"><ele>5.25</ele><time>2026-04-17T08:29:13Z</time></trkpt><trkpt lat="14.427780182211299" lon="120.88907978007066"><ele>5.5</ele><time>2026-04-17T08:29:14Z</time></trkpt><trkpt lat="14.427640644372968" lon="120.88912576659183"><ele>5.75</ele><time>2026-04-17T08:29:15Z</time></trkpt><trkpt lat="14.427499154077648" lon="120.88917342335522"><ele>6.0</ele><time>2026-04-17T08:29:16Z</time></trkpt><trkpt lat="14.427362030980188" lon="120.88921350074521"><ele>6.0</ele><time>2026-04-17T08:29:17Z</time></trkpt><trkpt lat="14.427226422305557" lon="120.88925283961719"><ele>6.0</ele><time>2026-04-17T08:29:18Z</time></trkpt><trkpt lat="14.427094618647926" lon="120.88929456858834"><ele>6.0</ele><time>2026-04-17T08:29:19Z</time></trkpt><trkpt lat="14.426958522508304" lon="120.88933859730274"><ele>6.0</ele><time>2026-04-17T08:29:20Z</time></trkpt><trkpt lat="14.426827663854324" lon="120.88937916498769"><ele>6.25</ele><time>2026-04-17T08:29:21Z</time></trkpt><trkpt lat="14.426689820693484" lon="120.88942593849399"><ele>6.5</ele><time>2026-04-17T08:29:22Z</time></trkpt><trkpt lat="14.426548592952456" lon="120.8894693018664"><ele>6.75</ele><time>2026-04-17T08:29:23Z</time></trkpt><trkpt lat="14.426406634691947" lon="120.88951303071548"><ele>7.0</ele><time>2026-04-17T08:29:24Z</time></trkpt><trkpt lat="14.426267621596438" lon="120.88955549978591"><ele>7.0</ele><time>2026-04-17T08:29:25Z</time></trkpt><trkpt lat="14.42612455997013" lon="120.8895993189545"><ele>7.0</ele><time>2026-04-17T08:29:26Z</time></trkpt><trkpt lat="14.42599130210932" lon="120.88964172831062"><ele>7.0</ele><time>2026-04-17T08:29:27Z</time></trkpt><trkpt lat="14.425857975612157" lon="120.88968395728219"><ele>7.0</ele><time>2026-04-17T08:29:28Z</time></trkpt><trkpt lat="14.425736435893313" lon="120.88972161097459"><ele>7.0</ele><time>2026-04-17T08:29:29Z</time></trkpt><trkpt lat="14.425625644313618" lon="120.88975397305371"><ele>6.999999999999999</ele><time>2026-04-17T08:29:30Z</time></trkpt><trkpt lat="14.42551740132653" lon="120.88978578671144"><ele>6.999999999999999</ele><time>2026-04-17T08:29:31Z</time></trkpt><trkpt lat="14.425416766385867" lon="120.8898095337941"><ele>7.0</ele><time>2026-04-17T08:29:32Z</time></trkpt><trkpt lat="14.42532321098301" lon="120.88982800514412"><ele>7.0</ele><time>2026-04-17T08:29:33Z</time></trkpt><trkpt lat="14.425242130386902" lon="120.88983455386855"><ele>7.333333333333334</ele><time>2026-04-17T08:29:34Z</time></trkpt><trkpt lat="14.425169891967833" lon="120.88983549761846"><ele>7.666666666666667</ele><time>2026-04-17T08:29:35Z</time></trkpt><trkpt lat="14.425103423548313" lon="120.88983261962305"><ele>8.0</ele><time>2026-04-17T08:29:36Z</time></trkpt><trkpt lat="14.425002274722186" lon="120.88980909010759"><ele>8.333333333333334</ele><time>2026-04-17T08:29:38Z</time></trkpt><trkpt lat="14.424925998911029" lon="120.88980220470738"><ele>8.666666666666666</ele><time>2026-04-17T08:29:41Z</time></trkpt><trkpt lat="14.424854083805577" lon="120.88979553141539"><ele>9.0</ele><time>2026-04-17T08:29:46Z</time></trkpt><trkpt lat="14.424797251451151" lon="120.88982707491877"><ele>9.0</ele><time>2026-04-17T08:29:54Z</time></trkpt><trkpt lat="14.424756041026336" lon="120.8898892235762"><ele>9.0</ele><time>2026-04-17T08:29:56Z</time></trkpt><trkpt lat="14.424815213776835" lon="120.89000147688895"><ele>9.0</ele><time>2026-04-17T08:29:57Z</time></trkpt><trkpt lat="14.424889870231794" lon="120.89011130137291"><ele>9.0</ele><time>2026-04-17T08:29:59Z</time></trkpt><trkpt lat="14.424950092576719" lon="120.89019445118012"><ele>9.0</ele><time>2026-04-17T08:30:00Z</time></trkpt><trkpt lat="14.425014672882774" lon="120.89027533054235"><ele>8.0</ele><time>2026-04-17T08:30:01Z</time></trkpt><trkpt lat="14.42508506060382" lon="120.89036966218977"><ele>7.0</ele><time>2026-04-17T08:30:02Z</time></trkpt><trkpt lat="14.425148380251937" lon="120.8904538345451"><ele>6.0</ele><time>2026-04-17T08:30:03Z</time></trkpt><trkpt lat="14.425233809650287" lon="120.89054914817604"><ele>5.0</ele><time>2026-04-17T08:30:04Z</time></trkpt><trkpt lat="14.425318384716444" lon="120.89064407099676"><ele>5.0</ele><time>2026-04-17T08:30:05Z</time></trkpt><trkpt lat="14.425405003607269" lon="120.89074313741816"><ele>5.0</ele><time>2026-04-17T08:30:06Z</time></trkpt><trkpt lat="14.425494929827709" lon="120.8908471838854"><ele>5.0</ele><time>2026-04-17T08:30:07Z</time></trkpt><trkpt lat="14.425594882632982" lon="120.89095401170293"><ele>5.0</ele><time>2026-04-17T08:30:08Z</time></trkpt><trkpt lat="14.425706054018779" lon="120.89106766933337"><ele>6.0</ele><time>2026-04-17T08:30:09Z</time></trkpt><trkpt lat="14.425818265026532" lon="120.89118739091678"><ele>7.0</ele><time>2026-04-17T08:30:10Z</time></trkpt><trkpt lat="14.42592554981735" lon="120.8913133436091"><ele>8.0</ele><time>2026-04-17T08:30:11.001Z</time></trkpt><trkpt lat="14.426049056650294" lon="120.89144229974077"><ele>8.0</ele><time>2026-04-17T08:30:12.001Z</time></trkpt><trkpt lat="14.426176232297294" lon="120.89157926784785"><ele>8.0</ele><time>2026-04-17T08:30:13.001Z</time></trkpt><trkpt lat="14.42630715595461" lon="120.89171791566758"><ele>8.0</ele><time>2026-04-17T08:30:14.001Z</time></trkpt><trkpt lat="14.426444818505802" lon="120.8918618462899"><ele>7.666666666666666</ele><time>2026-04-17T08:30:15.001Z</time></trkpt><trkpt lat="14.426570883675954" lon="120.89200090055046"><ele>7.333333333333334</ele><time>2026-04-17T08:30:16.001Z</time></trkpt><trkpt lat="14.426691062150796" lon="120.89213314477124"><ele>7.0</ele><time>2026-04-17T08:30:17.001Z</time></trkpt><trkpt lat="14.42680976422553" lon="120.89225966948108"><ele>7.0</ele><time>2026-04-17T08:30:18.001Z</time></trkpt><trkpt lat="14.426919642439021" lon="120.89238071442351"><ele>7.0</ele><time>2026-04-17T08:30:19.001Z</time></trkpt><trkpt lat="14.427022656020903" lon="120.89249498203381"><ele>7.0</ele><time>2026-04-17T08:30:20.001Z</time></trkpt><trkpt lat="14.427116683238145" lon="120.89260383087685"><ele>7.199999999999999</ele><time>2026-04-17T08:30:21.001Z</time></trkpt><trkpt lat="14.42720279911787" lon="120.89269641490331"><ele>7.3999999999999995</ele><time>2026-04-17T08:30:22.001Z</time></trkpt><trkpt lat="14.427281559951453" lon="120.89277640671655"><ele>7.6000000000000005</ele><time>2026-04-17T08:30:23.001Z</time></trkpt><trkpt lat="14.42734587349349" lon="120.89284997654515"><ele>7.800000000000001</ele><time>2026-04-17T08:30:24.001Z</time></trkpt><trkpt lat="14.427411366265439" lon="120.89291877988651"><ele>8.0</ele><time>2026-04-17T08:30:25.001Z</time></trkpt><trkpt lat="14.427472403480285" lon="120.89298407997707"><ele>7.999999999999999</ele><time>2026-04-17T08:30:26.001Z</time></trkpt><trkpt lat="14.427513353275382" lon="120.89303839568504"><ele>8.0</ele><time>2026-04-17T08:30:27.001Z</time></trkpt><trkpt lat="14.42756195510619" lon="120.89309193067024"><ele>8.0</ele><time>2026-04-17T08:30:28.001Z</time></trkpt><trkpt lat="14.427613163725237" lon="120.89314072006206"><ele>8.0</ele><time>2026-04-17T08:30:29.001Z</time></trkpt><trkpt lat="14.42767075452359" lon="120.89321447081498"><ele>7.999999999999999</ele><time>2026-04-17T08:30:31.001Z</time></trkpt><trkpt lat="14.427717552066218" lon="120.8932853299323"><ele>8.0</ele><time>2026-04-17T08:30:33.001Z</time></trkpt><trkpt lat="14.427782340721082" lon="120.89335849716801"><ele>7.666666666666666</ele><time>2026-04-17T08:30:35.001Z</time></trkpt><trkpt lat="14.427837041287003" lon="120.89343230265591"><ele>7.333333333333333</ele><time>2026-04-17T08:30:37.001Z</time></trkpt><trkpt lat="14.427892533819769" lon="120.89349862698562"><ele>7.0</ele><time>2026-04-17T08:30:40.001Z</time></trkpt><trkpt lat="14.42795866267372" lon="120.89354536060262"><ele>6.666666666666666</ele><time>2026-04-17T08:30:44.001Z</time></trkpt><trkpt lat="14.428013071416968" lon="120.89358223441607"><ele>6.333333333333333</ele><time>2026-04-17T08:30:47.001Z</time></trkpt><trkpt lat="14.428068485800765" lon="120.89363059192313"><ele>6.0</ele><time>2026-04-17T08:30:59.001Z</time></trkpt><trkpt lat="14.428122234447976" lon="120.89368628032543"><ele>6.0</ele><time>2026-04-17T08:31:04.001Z</time></trkpt><trkpt lat="14.42818824040504" lon="120.89375095964134"><ele>6.0</ele><time>2026-04-17T08:31:06Z</time></trkpt><trkpt lat="14.428252305205746" lon="120.89381874917825"><ele>6.0</ele><time>2026-04-17T08:31:08Z</time></trkpt><trkpt lat="14.428323754549913" lon="120.8938899769812"><ele>6.0</ele><time>2026-04-17T08:31:10Z</time></trkpt><trkpt lat="14.428390591424135" lon="120.89396377171245"><ele>6.0</ele><time>2026-04-17T08:31:12Z</time></trkpt><trkpt lat="14.428466329613368" lon="120.89404782355406"><ele>6.0</ele><time>2026-04-17T08:31:14Z</time></trkpt><trkpt lat="14.42855184642038" lon="120.8941472134473"><ele>6.0</ele><time>2026-04-17T08:31:16Z</time></trkpt><trkpt lat="14.428603024107874" lon="120.89421475544391"><ele>6.0</ele><time>2026-04-17T08:31:17Z</time></trkpt><trkpt lat="14.428665322294563" lon="120.89428740554979"><ele>6.0</ele><time>2026-04-17T08:31:18Z</time></trkpt><trkpt lat="14.42873334840037" lon="120.89436347908371"><ele>6.0</ele><time>2026-04-17T08:31:19Z</time></trkpt><trkpt lat="14.428808278701009" lon="120.89444893174338"><ele>6.25</ele><time>2026-04-17T08:31:20Z</time></trkpt><trkpt lat="14.428887998412963" lon="120.89453563169047"><ele>6.5</ele><time>2026-04-17T08:31:21Z</time></trkpt><trkpt lat="14.428973100608884" lon="120.89462617191869"><ele>6.75</ele><time>2026-04-17T08:31:22Z</time></trkpt><trkpt lat="14.429062675157393" lon="120.89471566318848"><ele>7.0</ele><time>2026-04-17T08:31:23Z</time></trkpt><trkpt lat="14.42915692688456" lon="120.89481134771674"><ele>7.0</ele><time>2026-04-17T08:31:24Z</time></trkpt><trkpt lat="14.429254120476381" lon="120.8949107364829"><ele>7.0</ele><time>2026-04-17T08:31:25Z</time></trkpt><trkpt lat="14.429354797797762" lon="120.89501638311908"><ele>7.0</ele><time>2026-04-17T08:31:26Z</time></trkpt><trkpt lat="14.429462866775404" lon="120.89512148770545"><ele>7.0</ele><time>2026-04-17T08:31:27Z</time></trkpt><trkpt lat="14.429567553018318" lon="120.89522553053727"><ele>6.666666666666667</ele><time>2026-04-17T08:31:28Z</time></trkpt><trkpt lat="14.429673598921186" lon="120.89533525695735"><ele>6.333333333333334</ele><time>2026-04-17T08:31:29Z</time></trkpt><trkpt lat="14.429781103586905" lon="120.89544920211846"><ele>6.0</ele><time>2026-04-17T08:31:30Z</time></trkpt><trkpt lat="14.429887873421562" lon="120.89556700551663"><ele>6.0</ele><time>2026-04-17T08:31:31Z</time></trkpt><trkpt lat="14.42999617455419" lon="120.89568588920866"><ele>6.0</ele><time>2026-04-17T08:31:32Z</time></trkpt><trkpt lat="14.430099640159186" lon="120.89578991948159"><ele>6.0</ele><time>2026-04-17T08:31:33Z</time></trkpt><trkpt lat="14.430201943121249" lon="120.89590206387784"><ele>6.25</ele><time>2026-04-17T08:31:34Z</time></trkpt><trkpt lat="14.43030274594058" lon="120.89600768997093"><ele>6.5</ele><time>2026-04-17T08:31:35Z</time></trkpt><trkpt lat="14.430401665639925" lon="120.89611481122178"><ele>6.75</ele><time>2026-04-17T08:31:36Z</time></trkpt><trkpt lat="14.430498809467005" lon="120.89622381798682"><ele>7.0</ele><time>2026-04-17T08:31:37Z</time></trkpt><trkpt lat="14.430598177999906" lon="120.89633125325496"><ele>7.0</ele><time>2026-04-17T08:31:38Z</time></trkpt><trkpt lat="14.430698846619018" lon="120.89643981039978"><ele>7.0</ele><time>2026-04-17T08:31:39Z</time></trkpt><trkpt lat="14.43080069499019" lon="120.89655129226188"><ele>7.0</ele><time>2026-04-17T08:31:40Z</time></trkpt><trkpt lat="14.43090296369262" lon="120.89665647610845"><ele>7.0</ele><time>2026-04-17T08:31:41Z</time></trkpt><trkpt lat="14.430997312242003" lon="120.89675164285029"><ele>7.0</ele><time>2026-04-17T08:31:42Z</time></trkpt><trkpt lat="14.43108284070962" lon="120.8968412959715"><ele>6.999999999999999</ele><time>2026-04-17T08:31:43Z</time></trkpt><trkpt lat="14.431155093059129" lon="120.89692071001247"><ele>6.999999999999999</ele><time>2026-04-17T08:31:44Z</time></trkpt><trkpt lat="14.43122625026003" lon="120.89699941574287"><ele>7.0</ele><time>2026-04-17T08:31:45Z</time></trkpt><trkpt lat="14.431292630426459" lon="120.89707560687438"><ele>7.0</ele><time>2026-04-17T08:31:46Z</time></trkpt><trkpt lat="14.431354440106398" lon="120.89715110373679"><ele>7.3999999999999995</ele><time>2026-04-17T08:31:47Z</time></trkpt><trkpt lat="14.4314210020071" lon="120.89723255594656"><ele>7.799999999999999</ele><time>2026-04-17T08:31:48Z</time></trkpt><trkpt lat="14.431486801413289" lon="120.89731579609668"><ele>8.2</ele><time>2026-04-17T08:31:49Z</time></trkpt><trkpt lat="14.431562151080751" lon="120.89740583125331"><ele>8.6</ele><time>2026-04-17T08:31:50Z</time></trkpt><trkpt lat="14.431638819484302" lon="120.89749161760386"><ele>9.0</ele><time>2026-04-17T08:31:51Z</time></trkpt><trkpt lat="14.431718380831649" lon="120.89758539690312"><ele>9.75</ele><time>2026-04-17T08:31:52Z</time></trkpt><trkpt lat="14.431805030481316" lon="120.89768877559936"><ele>10.5</ele><time>2026-04-17T08:31:53Z</time></trkpt><trkpt lat="14.43189491145384" lon="120.89779971866298"><ele>11.25</ele><time>2026-04-17T08:31:54Z</time></trkpt><trkpt lat="14.431986136905868" lon="120.8979082232066"><ele>12.0</ele><time>2026-04-17T08:31:55.001Z</time></trkpt><trkpt lat="14.432081259438116" lon="120.8980218080447"><ele>11.5</ele><time>2026-04-17T08:31:56.001Z</time></trkpt><trkpt lat="14.432172135466757" lon="120.89813352516099"><ele>11.0</ele><time>2026-04-17T08:31:57.001Z</time></trkpt><trkpt lat="14.432261019787937" lon="120.89824629416472"><ele>10.5</ele><time>2026-04-17T08:31:58.001Z</time></trkpt><trkpt lat="14.43234910794093" lon="120.89836299696222"><ele>10.0</ele><time>2026-04-17T08:31:59.001Z</time></trkpt><trkpt lat="14.4324385930493" lon="120.89848320463217"><ele>9.0</ele><time>2026-04-17T08:32:00.001Z</time></trkpt><trkpt lat="14.43252610036406" lon="120.89860484509838"><ele>8.0</ele><time>2026-04-17T08:32:01.001Z</time></trkpt><trkpt lat="14.43261089987471" lon="120.8987212098621"><ele>7.0</ele><time>2026-04-17T08:32:02.001Z</time></trkpt><trkpt lat="14.432687885707834" lon="120.89883104546745"><ele>6.0</ele><time>2026-04-17T08:32:03.001Z</time></trkpt><trkpt lat="14.4327592812176" lon="120.89893474219421"><ele>6.0</ele><time>2026-04-17T08:32:04.001Z</time></trkpt><trkpt lat="14.432831086472458" lon="120.8990382797635"><ele>6.0</ele><time>2026-04-17T08:32:05.001Z</time></trkpt><trkpt lat="14.432915863992601" lon="120.89914971566934"><ele>6.0</ele><time>2026-04-17T08:32:06.001Z</time></trkpt><trkpt lat="14.432989626440042" lon="120.89926065989806"><ele>6.0</ele><time>2026-04-17T08:32:07.001Z</time></trkpt><trkpt lat="14.433063205248944" lon="120.8993747262703"><ele>5.5</ele><time>2026-04-17T08:32:08.001Z</time></trkpt><trkpt lat="14.433135625400514" lon="120.89948297427415"><ele>5.0</ele><time>2026-04-17T08:32:09.001Z</time></trkpt><trkpt lat="14.433205198417788" lon="120.89958489121439"><ele>4.5</ele><time>2026-04-17T08:32:10.001Z</time></trkpt><trkpt lat="14.43327314295356" lon="120.89968351899854"><ele>4.0</ele><time>2026-04-17T08:32:11.001Z</time></trkpt><trkpt lat="14.433352104634798" lon="120.89979342228311"><ele>4.0</ele><time>2026-04-17T08:32:12.001Z</time></trkpt><trkpt lat="14.433410148619325" lon="120.8998937625378"><ele>4.0</ele><time>2026-04-17T08:32:13.001Z</time></trkpt><trkpt lat="14.433487163297215" lon="120.90000439409465"><ele>4.0</ele><time>2026-04-17T08:32:14.001Z</time></trkpt><trkpt lat="14.433566204685862" lon="120.90011716996275"><ele>4.0</ele><time>2026-04-17T08:32:15.001Z</time></trkpt><trkpt lat="14.433632687235118" lon="120.90022510771713"><ele>4.25</ele><time>2026-04-17T08:32:16.001Z</time></trkpt><trkpt lat="14.433704154110599" lon="120.90033889159248"><ele>4.5</ele><time>2026-04-17T08:32:17.001Z</time></trkpt><trkpt lat="14.4337762275075" lon="120.90044850008807"><ele>4.75</ele><time>2026-04-17T08:32:18.001Z</time></trkpt><trkpt lat="14.433847339893228" lon="120.9005563829275"><ele>5.0</ele><time>2026-04-17T08:32:19.001Z</time></trkpt><trkpt lat="14.433916237103453" lon="120.90066293668043"><ele>5.0</ele><time>2026-04-17T08:32:20.001Z</time></trkpt><trkpt lat="14.433981193845975" lon="120.90076666445471"><ele>5.0</ele><time>2026-04-17T08:32:21.001Z</time></trkpt><trkpt lat="14.434053384966319" lon="120.90087386286355"><ele>5.0</ele><time>2026-04-17T08:32:22.001Z</time></trkpt><trkpt lat="14.43411908713788" lon="120.90098215649395"><ele>5.0</ele><time>2026-04-17T08:32:23.001Z</time></trkpt><trkpt lat="14.434178339155325" lon="120.90108647945465"><ele>5.25</ele><time>2026-04-17T08:32:24.001Z</time></trkpt><trkpt lat="14.434247339585424" lon="120.90119704848746"><ele>5.5</ele><time>2026-04-17T08:32:25.001Z</time></trkpt><trkpt lat="14.434314795547419" lon="120.90130676042476"><ele>5.75</ele><time>2026-04-17T08:32:26.001Z</time></trkpt><trkpt lat="14.434383331768954" lon="120.90141859820962"><ele>6.0</ele><time>2026-04-17T08:32:27.001Z</time></trkpt><trkpt lat="14.43445145827108" lon="120.90153239794536"><ele>6.0</ele><time>2026-04-17T08:32:28.001Z</time></trkpt><trkpt lat="14.434520477527274" lon="120.90165375596104"><ele>6.0</ele><time>2026-04-17T08:32:29.001Z</time></trkpt><trkpt lat="14.434588153835245" lon="120.90178161021278"><ele>6.0</ele><time>2026-04-17T08:32:30.001Z</time></trkpt><trkpt lat="14.434659803383974" lon="120.9019131378717"><ele>6.0</ele><time>2026-04-17T08:32:31.001Z</time></trkpt><trkpt lat="14.43473264445749" lon="120.90204492710876"><ele>6.0</ele><time>2026-04-17T08:32:32.001Z</time></trkpt><trkpt lat="14.434808449191388" lon="120.90218707138952"><ele>6.0</ele><time>2026-04-17T08:32:33.001Z</time></trkpt><trkpt lat="14.434883638151375" lon="120.90233008669186"><ele>6.0</ele><time>2026-04-17T08:32:34.001Z</time></trkpt><trkpt lat="14.434962828529137" lon="120.90248174524669"><ele>5.333333333333333</ele><time>2026-04-17T08:32:35.001Z</time></trkpt><trkpt lat="14.43504448824923" lon="120.90263360675702"><ele>4.666666666666666</ele><time>2026-04-17T08:32:36.001Z</time></trkpt><trkpt lat="14.43513159129576" lon="120.90279057089664"><ele>4.0</ele><time>2026-04-17T08:32:37.001Z</time></trkpt><trkpt lat="14.435219912202538" lon="120.90294651318793"><ele>4.0</ele><time>2026-04-17T08:32:38.001Z</time></trkpt><trkpt lat="14.43530502885741" lon="120.90309931629301"><ele>4.0</ele><time>2026-04-17T08:32:39.001Z</time></trkpt><trkpt lat="14.435389749357808" lon="120.9032557383583"><ele>4.0</ele><time>2026-04-17T08:32:40.001Z</time></trkpt><trkpt lat="14.435472115913758" lon="120.90341031996107"><ele>4.666666666666666</ele><time>2026-04-17T08:32:41.001Z</time></trkpt><trkpt lat="14.435554451148537" lon="120.90356073087683"><ele>5.333333333333333</ele><time>2026-04-17T08:32:42.001Z</time></trkpt><trkpt lat="14.435637117310273" lon="120.90371067207688"><ele>6.0</ele><time>2026-04-17T08:32:43.001Z</time></trkpt><trkpt lat="14.435714723962835" lon="120.90385706061399"><ele>6.0</ele><time>2026-04-17T08:32:44.001Z</time></trkpt><trkpt lat="14.435792486350694" lon="120.9040075261834"><ele>6.0</ele><time>2026-04-17T08:32:45.001Z</time></trkpt><trkpt lat="14.43586912775494" lon="120.90415328928992"><ele>6.0</ele><time>2026-04-17T08:32:46.001Z</time></trkpt><trkpt lat="14.435947803068881" lon="120.90430112310708"><ele>7.333333333333334</ele><time>2026-04-17T08:32:47.001Z</time></trkpt><trkpt lat="14.436028053829393" lon="120.90445358961558"><ele>8.666666666666668</ele><time>2026-04-17T08:32:48.001Z</time></trkpt><trkpt lat="14.436105243989848" lon="120.90459807807359"><ele>10.0</ele><time>2026-04-17T08:32:49.001Z</time></trkpt><trkpt lat="14.436179129770684" lon="120.90473462992662"><ele>10.0</ele><time>2026-04-17T08:32:50.001Z</time></trkpt><trkpt lat="14.436247179518324" lon="120.9048606900244"><ele>10.0</ele><time>2026-04-17T08:32:51.001Z</time></trkpt><trkpt lat="14.436308107205907" lon="120.90497308296467"><ele>10.0</ele><time>2026-04-17T08:32:52.001Z</time></trkpt><trkpt lat="14.436375871318369" lon="120.90508697196348"><ele>10.0</ele><time>2026-04-17T08:32:53.001Z</time></trkpt><trkpt lat="14.436440706564344" lon="120.90520047599937"><ele>8.5</ele><time>2026-04-17T08:32:54.001Z</time></trkpt><trkpt lat="14.436503646604837" lon="120.90531312673976"><ele>7.0</ele><time>2026-04-17T08:32:55.001Z</time></trkpt><trkpt lat="14.43656071563106" lon="120.9054105824914"><ele>5.5</ele><time>2026-04-17T08:32:56.001Z</time></trkpt><trkpt lat="14.436617180344792" lon="120.9055070867519"><ele>4.0</ele><time>2026-04-17T08:32:57.001Z</time></trkpt><trkpt lat="14.43667502538721" lon="120.90560487065729"><ele>4.0</ele><time>2026-04-17T08:32:58.001Z</time></trkpt><trkpt lat="14.436731472123594" lon="120.9057080850758"><ele>4.0</ele><time>2026-04-17T08:32:59.001Z</time></trkpt><trkpt lat="14.436785193527799" lon="120.90581151687175"><ele>4.0</ele><time>2026-04-17T08:33:00.001Z</time></trkpt><trkpt lat="14.436838912573219" lon="120.90591662703757"><ele>4.0</ele><time>2026-04-17T08:33:01.001Z</time></trkpt><trkpt lat="14.436887955837337" lon="120.90601136367397"><ele>4.0</ele><time>2026-04-17T08:33:02.001Z</time></trkpt><trkpt lat="14.436941024040413" lon="120.90610864410755"><ele>4.4</ele><time>2026-04-17T08:33:03.001Z</time></trkpt><trkpt lat="14.436986110539118" lon="120.90619798073736"><ele>4.800000000000001</ele><time>2026-04-17T08:33:04.001Z</time></trkpt><trkpt lat="14.437031199392301" lon="120.9062867122594"><ele>5.199999999999999</ele><time>2026-04-17T08:33:05.001Z</time></trkpt><trkpt lat="14.437077643872586" lon="120.906369240926"><ele>5.6</ele><time>2026-04-17T08:33:06.001Z</time></trkpt><trkpt lat="14.437125715477453" lon="120.90645589552561"><ele>6.0</ele><time>2026-04-17T08:33:07.001Z</time></trkpt><trkpt lat="14.437166724518558" lon="120.90653150751888"><ele>6.0</ele><time>2026-04-17T08:33:08.001Z</time></trkpt><trkpt lat="14.43720835658696" lon="120.90660498445553"><ele>6.0</ele><time>2026-04-17T08:33:09.001Z</time></trkpt><trkpt lat="14.437240195123424" lon="120.90666530651126"><ele>6.0</ele><time>2026-04-17T08:33:10.001Z</time></trkpt><trkpt lat="14.437289824179452" lon="120.9067530689034"><ele>6.0</ele><time>2026-04-17T08:33:12Z</time></trkpt><trkpt lat="14.437358732528555" lon="120.90687261207697"><ele>6.0</ele><time>2026-04-17T08:33:14Z</time></trkpt><trkpt lat="14.43740230454205" lon="120.90694988373912"><ele>5.8</ele><time>2026-04-17T08:33:15Z</time></trkpt><trkpt lat="14.437452610650519" lon="120.90703989763776"><ele>5.6</ele><time>2026-04-17T08:33:16Z</time></trkpt><trkpt lat="14.4375098965333" lon="120.9071398628845"><ele>5.4</ele><time>2026-04-17T08:33:17Z</time></trkpt><trkpt lat="14.437567871667387" lon="120.9072433936899"><ele>5.2</ele><time>2026-04-17T08:33:18Z</time></trkpt><trkpt lat="14.43762806859403" lon="120.90735103816306"><ele>5.0</ele><time>2026-04-17T08:33:19Z</time></trkpt><trkpt lat="14.437687246676598" lon="120.90745827455979"><ele>5.0</ele><time>2026-04-17T08:33:20Z</time></trkpt><trkpt lat="14.43774638922289" lon="120.90756713058671"><ele>5.0</ele><time>2026-04-17T08:33:21Z</time></trkpt><trkpt lat="14.437811164244557" lon="120.90768676618646"><ele>5.0</ele><time>2026-04-17T08:33:22Z</time></trkpt><trkpt lat="14.437885573925142" lon="120.90781058675553"><ele>5.0</ele><time>2026-04-17T08:33:23Z</time></trkpt><trkpt lat="14.43797242601651" lon="120.9079432343327"><ele>4.75</ele><time>2026-04-17T08:33:24Z</time></trkpt><trkpt lat="14.438053134705113" lon="120.90806762755662"><ele>4.5</ele><time>2026-04-17T08:33:25Z</time></trkpt><trkpt lat="14.438128551382917" lon="120.90818501736474"><ele>4.25</ele><time>2026-04-17T08:33:26Z</time></trkpt><trkpt lat="14.43820100669495" lon="120.90829488261177"><ele>4.0</ele><time>2026-04-17T08:33:27Z</time></trkpt><trkpt lat="14.43826778244565" lon="120.90840010212366"><ele>4.25</ele><time>2026-04-17T08:33:28Z</time></trkpt><trkpt lat="14.438340470374007" lon="120.90850506389373"><ele>4.5</ele><time>2026-04-17T08:33:29Z</time></trkpt><trkpt lat="14.438414494366723" lon="120.90860741630058"><ele>4.75</ele><time>2026-04-17T08:33:30Z</time></trkpt><trkpt lat="14.438493793076237" lon="120.9087071469635"><ele>5.0</ele><time>2026-04-17T08:33:31Z</time></trkpt><trkpt lat="14.438570666757482" lon="120.90879928546659"><ele>5.0</ele><time>2026-04-17T08:33:32Z</time></trkpt><trkpt lat="14.438644764698344" lon="120.90890573471086"><ele>5.0</ele><time>2026-04-17T08:33:33Z</time></trkpt><trkpt lat="14.438726812441752" lon="120.90902589414985"><ele>5.0</ele><time>2026-04-17T08:33:34Z</time></trkpt><trkpt lat="14.438807805873903" lon="120.90914825880705"><ele>5.0</ele><time>2026-04-17T08:33:35Z</time></trkpt><trkpt lat="14.43889751991662" lon="120.90927019779473"><ele>4.333333333333334</ele><time>2026-04-17T08:33:36Z</time></trkpt><trkpt lat="14.4389909014551" lon="120.90939313480823"><ele>3.666666666666667</ele><time>2026-04-17T08:33:37Z</time></trkpt><trkpt lat="14.43909051913241" lon="120.90951760080353"><ele>3.0</ele><time>2026-04-17T08:33:38Z</time></trkpt><trkpt lat="14.439186227400874" lon="120.9096399375332"><ele>3.0</ele><time>2026-04-17T08:33:39Z</time></trkpt><trkpt lat="14.439287284569865" lon="120.90976813040005"><ele>3.0</ele><time>2026-04-17T08:33:40Z</time></trkpt><trkpt lat="14.43939783832631" lon="120.9098993759913"><ele>3.0</ele><time>2026-04-17T08:33:41Z</time></trkpt><trkpt lat="14.439501373037219" lon="120.91002511587489"><ele>3.333333333333333</ele><time>2026-04-17T08:33:42Z</time></trkpt><trkpt lat="14.439610270116086" lon="120.91015255190631"><ele>3.6666666666666665</ele><time>2026-04-17T08:33:43Z</time></trkpt><trkpt lat="14.43971362875479" lon="120.91027118915915"><ele>4.0</ele><time>2026-04-17T08:33:44Z</time></trkpt><trkpt lat="14.439822073878755" lon="120.91038863830164"><ele>4.666666666666666</ele><time>2026-04-17T08:33:45Z</time></trkpt><trkpt lat="14.439929230233485" lon="120.91050739186547"><ele>5.333333333333333</ele><time>2026-04-17T08:33:46Z</time></trkpt><trkpt lat="14.44003642279049" lon="120.9106206771494"><ele>6.0</ele><time>2026-04-17T08:33:47Z</time></trkpt><trkpt lat="14.440143456723465" lon="120.91072097018933"><ele>6.0</ele><time>2026-04-17T08:33:48Z</time></trkpt><trkpt lat="14.440254934239652" lon="120.91081113441695"><ele>6.0</ele><time>2026-04-17T08:33:49Z</time></trkpt><trkpt lat="14.440368883128906" lon="120.91089776026678"><ele>6.0</ele><time>2026-04-17T08:33:50Z</time></trkpt><trkpt lat="14.440481698688956" lon="120.91098316621974"><ele>6.0</ele><time>2026-04-17T08:33:51Z</time></trkpt><trkpt lat="14.440594111004513" lon="120.9110694827373"><ele>6.5</ele><time>2026-04-17T08:33:52Z</time></trkpt><trkpt lat="14.440700508594194" lon="120.9111491267233"><ele>7.0</ele><time>2026-04-17T08:33:53Z</time></trkpt><trkpt lat="14.44079480983517" lon="120.91122196552045"><ele>7.5</ele><time>2026-04-17T08:33:54Z</time></trkpt><trkpt lat="14.440886886115385" lon="120.91129304656633"><ele>8.0</ele><time>2026-04-17T08:33:55Z</time></trkpt><trkpt lat="14.44097036460118" lon="120.91136220231982"><ele>8.0</ele><time>2026-04-17T08:33:56Z</time></trkpt><trkpt lat="14.44105877501803" lon="120.91143377481272"><ele>8.0</ele><time>2026-04-17T08:33:57Z</time></trkpt><trkpt lat="14.441151442110142" lon="120.91151349593831"><ele>8.0</ele><time>2026-04-17T08:33:58Z</time></trkpt><trkpt lat="14.441241054245843" lon="120.91160596554022"><ele>8.0</ele><time>2026-04-17T08:33:59Z</time></trkpt><trkpt lat="14.441336391812756" lon="120.91170654265643"><ele>7.25</ele><time>2026-04-17T08:34:00.001Z</time></trkpt><trkpt lat="14.441434477835134" lon="120.91180861283544"><ele>6.5</ele><time>2026-04-17T08:34:01.001Z</time></trkpt><trkpt lat="14.44153403091786" lon="120.91191367579188"><ele>5.75</ele><time>2026-04-17T08:34:02.001Z</time></trkpt><trkpt lat="14.441646196002852" lon="120.91203115771397"><ele>5.0</ele><time>2026-04-17T08:34:03.001Z</time></trkpt><trkpt lat="14.441759286511575" lon="120.91214359805223"><ele>5.0</ele><time>2026-04-17T08:34:04.001Z</time></trkpt><trkpt lat="14.441860620959822" lon="120.91225289228875"><ele>5.0</ele><time>2026-04-17T08:34:05.001Z</time></trkpt><trkpt lat="14.441976104665036" lon="120.91237209679487"><ele>5.0</ele><time>2026-04-17T08:34:06.001Z</time></trkpt><trkpt lat="14.442081816906995" lon="120.91249416295221"><ele>5.75</ele><time>2026-04-17T08:34:07.001Z</time></trkpt><trkpt lat="14.442205386523428" lon="120.91258351812368"><ele>6.5</ele><time>2026-04-17T08:34:08.001Z</time></trkpt><trkpt lat="14.442312663052224" lon="120.91267315678864"><ele>7.25</ele><time>2026-04-17T08:34:09.001Z</time></trkpt><trkpt lat="14.442432755375286" lon="120.91276458954181"><ele>8.0</ele><time>2026-04-17T08:34:10.001Z</time></trkpt><trkpt lat="14.44253421690744" lon="120.9128502447099"><ele>8.0</ele><time>2026-04-17T08:34:11.001Z</time></trkpt><trkpt lat="14.442632509504179" lon="120.91293661990956"><ele>8.0</ele><time>2026-04-17T08:34:12.001Z</time></trkpt><trkpt lat="14.442726203568075" lon="120.91301473495481"><ele>8.0</ele><time>2026-04-17T08:34:13.001Z</time></trkpt><trkpt lat="14.442816027486867" lon="120.91309049100155"><ele>8.0</ele><time>2026-04-17T08:34:14.001Z</time></trkpt><trkpt lat="14.442910955204344" lon="120.91316232647857"><ele>7.75</ele><time>2026-04-17T08:34:15.001Z</time></trkpt><trkpt lat="14.44299932247959" lon="120.91322991476073"><ele>7.5</ele><time>2026-04-17T08:34:16.001Z</time></trkpt><trkpt lat="14.443093088563225" lon="120.9133029238855"><ele>7.25</ele><time>2026-04-17T08:34:17.001Z</time></trkpt><trkpt lat="14.443178873493968" lon="120.91337285178713"><ele>7.0</ele><time>2026-04-17T08:34:18.001Z</time></trkpt><trkpt lat="14.443276838469584" lon="120.91344597697213"><ele>6.75</ele><time>2026-04-17T08:34:19.001Z</time></trkpt><trkpt lat="14.44337666453676" lon="120.91351973335333"><ele>6.5</ele><time>2026-04-17T08:34:20.001Z</time></trkpt><trkpt lat="14.443473083166417" lon="120.9135926301224"><ele>6.25</ele><time>2026-04-17T08:34:21.001Z</time></trkpt><trkpt lat="14.443582212548424" lon="120.91366311391711"><ele>6.0</ele><time>2026-04-17T08:34:22.001Z</time></trkpt><trkpt lat="14.443676435872586" lon="120.91372698116281"><ele>6.0</ele><time>2026-04-17T08:34:23.001Z</time></trkpt><trkpt lat="14.443762900915877" lon="120.91378468288777"><ele>6.0</ele><time>2026-04-17T08:34:24.001Z</time></trkpt><trkpt lat="14.443844577724146" lon="120.91384460921203"><ele>6.0</ele><time>2026-04-17T08:34:25.001Z</time></trkpt><trkpt lat="14.443919664755358" lon="120.91389999565288"><ele>6.0</ele><time>2026-04-17T08:34:26.001Z</time></trkpt><trkpt lat="14.443998125478117" lon="120.91395221313053"><ele>6.0</ele><time>2026-04-17T08:34:27.001Z</time></trkpt><trkpt lat="14.444073475085595" lon="120.91400622911237"><ele>5.666666666666667</ele><time>2026-04-17T08:34:28.001Z</time></trkpt><trkpt lat="14.444155221416171" lon="120.91406138686024"><ele>5.333333333333333</ele><time>2026-04-17T08:34:29.001Z</time></trkpt><trkpt lat="14.44422708525197" lon="120.91410884518034"><ele>5.0</ele><time>2026-04-17T08:34:30.001Z</time></trkpt><trkpt lat="14.44428845112685" lon="120.91415018590307"><ele>4.666666666666666</ele><time>2026-04-17T08:34:31.001Z</time></trkpt><trkpt lat="14.444350277986521" lon="120.91418880178327"><ele>4.333333333333333</ele><time>2026-04-17T08:34:32.001Z</time></trkpt><trkpt lat="14.444412084040126" lon="120.91422800061473"><ele>4.0</ele><time>2026-04-17T08:34:33.001Z</time></trkpt><trkpt lat="14.444472346628338" lon="120.91426759947393"><ele>3.9999999999999996</ele><time>2026-04-17T08:34:34.001Z</time></trkpt><trkpt lat="14.444570787184732" lon="120.91432718317728"><ele>4.0</ele><time>2026-04-17T08:34:36.001Z</time></trkpt><trkpt lat="14.444625308100756" lon="120.91436911436985"><ele>4.0</ele><time>2026-04-17T08:34:39.001Z</time></trkpt><trkpt lat="14.444692073513187" lon="120.91440218923012"><ele>4.0</ele><time>2026-04-17T08:34:51.001Z</time></trkpt><trkpt lat="14.444765735602253" lon="120.91443993158907"><ele>3.9999999999999996</ele><time>2026-04-17T08:34:54.001Z</time></trkpt><trkpt lat="14.444814528129296" lon="120.9144826820846"><ele>4.0</ele><time>2026-04-17T08:34:58.001Z</time></trkpt><trkpt lat="14.444773281610415" lon="120.9145835457196"><ele>3.9999999999999996</ele><time>2026-04-17T08:34:59.001Z</time></trkpt><trkpt lat="14.444716009511634" lon="120.9146390809423"><ele>4.0</ele><time>2026-04-17T08:35:00.001Z</time></trkpt><trkpt lat="14.444657867562395" lon="120.91470377488415"><ele>4.0</ele><time>2026-04-17T08:35:01.001Z</time></trkpt><trkpt lat="14.444606757735395" lon="120.91476784469936"><ele>4.0</ele><time>2026-04-17T08:35:02.001Z</time></trkpt><trkpt lat="14.444547668794234" lon="120.91484256531707"><ele>3.9999999999999996</ele><time>2026-04-17T08:35:03.001Z</time></trkpt><trkpt lat="14.444486985012153" lon="120.91491517474662"><ele>4.0</ele><time>2026-04-17T08:35:04.001Z</time></trkpt><trkpt lat="14.444421195714662" lon="120.91500389169448"><ele>4.6</ele><time>2026-04-17T08:35:05.001Z</time></trkpt><trkpt lat="14.444357299155554" lon="120.91508838005458"><ele>5.2</ele><time>2026-04-17T08:35:06.001Z</time></trkpt><trkpt lat="14.444298423868938" lon="120.9151619888069"><ele>5.799999999999999</ele><time>2026-04-17T08:35:07.001Z</time></trkpt><trkpt lat="14.444238131901255" lon="120.915248661765"><ele>6.3999999999999995</ele><time>2026-04-17T08:35:08.001Z</time></trkpt><trkpt lat="14.444183675770102" lon="120.91534529767117"><ele>7.0</ele><time>2026-04-17T08:35:09.001Z</time></trkpt><trkpt lat="14.444128387123788" lon="120.91545527022082"><ele>7.0</ele><time>2026-04-17T08:35:10.001Z</time></trkpt><trkpt lat="14.444075372457648" lon="120.91557523768503"><ele>7.0</ele><time>2026-04-17T08:35:11.001Z</time></trkpt><trkpt lat="14.444024942584045" lon="120.91568844372807"><ele>7.0</ele><time>2026-04-17T08:35:12.001Z</time></trkpt><trkpt lat="14.443973556081891" lon="120.91581066627094"><ele>7.0</ele><time>2026-04-17T08:35:13.001Z</time></trkpt><trkpt lat="14.443915465988015" lon="120.91591965620829"><ele>6.75</ele><time>2026-04-17T08:35:14.001Z</time></trkpt><trkpt lat="14.443852668835438" lon="120.9160235233401"><ele>6.5</ele><time>2026-04-17T08:35:15.001Z</time></trkpt><trkpt lat="14.44378708969387" lon="120.91611593317361"><ele>6.25</ele><time>2026-04-17T08:35:16.001Z</time></trkpt><trkpt lat="14.443711449630253" lon="120.91620728906746"><ele>6.0</ele><time>2026-04-17T08:35:17.001Z</time></trkpt><trkpt lat="14.443630609422584" lon="120.91630250509436"><ele>5.75</ele><time>2026-04-17T08:35:18Z</time></trkpt><trkpt lat="14.443549748305777" lon="120.91639135542341"><ele>5.5</ele><time>2026-04-17T08:35:19Z</time></trkpt><trkpt lat="14.443464126543631" lon="120.91648157340342"><ele>5.25</ele><time>2026-04-17T08:35:20Z</time></trkpt><trkpt lat="14.443377959705092" lon="120.91657173868005"><ele>5.0</ele><time>2026-04-17T08:35:21Z</time></trkpt><trkpt lat="14.44328773471942" lon="120.91667174187288"><ele>5.5</ele><time>2026-04-17T08:35:22Z</time></trkpt><trkpt lat="14.44320537465022" lon="120.91675305947926"><ele>6.0</ele><time>2026-04-17T08:35:23Z</time></trkpt><trkpt lat="14.443106186394687" lon="120.91683320409679"><ele>6.5</ele><time>2026-04-17T08:35:24Z</time></trkpt><trkpt lat="14.442998903142641" lon="120.91687991564605"><ele>7.0</ele><time>2026-04-17T08:35:25Z</time></trkpt><trkpt lat="14.44288143280816" lon="120.91689949956974"><ele>7.199999999999999</ele><time>2026-04-17T08:35:26Z</time></trkpt><trkpt lat="14.442771295172816" lon="120.91690422075426"><ele>7.3999999999999995</ele><time>2026-04-17T08:35:27Z</time></trkpt><trkpt lat="14.442663146908682" lon="120.91690626414152"><ele>7.6000000000000005</ele><time>2026-04-17T08:35:28Z</time></trkpt><trkpt lat="14.442567538621967" lon="120.91691015246435"><ele>7.800000000000001</ele><time>2026-04-17T08:35:29Z</time></trkpt><trkpt lat="14.442479308856466" lon="120.91691544661496"><ele>8.0</ele><time>2026-04-17T08:35:30Z</time></trkpt><trkpt lat="14.442376185661919" lon="120.9169220084072"><ele>7.999999999999999</ele><time>2026-04-17T08:35:31Z</time></trkpt><trkpt lat="14.44227518751639" lon="120.91692323923324"><ele>8.0</ele><time>2026-04-17T08:35:32Z</time></trkpt><trkpt lat="14.442176415604651" lon="120.91692613965387"><ele>8.0</ele><time>2026-04-17T08:35:33Z</time></trkpt><trkpt lat="14.442091242679128" lon="120.9169323991009"><ele>8.0</ele><time>2026-04-17T08:35:34Z</time></trkpt><trkpt lat="14.44201582005926" lon="120.91693580875267"><ele>7.999999999999999</ele><time>2026-04-17T08:35:35Z</time></trkpt><trkpt lat="14.441940665716123" lon="120.91694684098239"><ele>8.0</ele><time>2026-04-17T08:35:36Z</time></trkpt><trkpt lat="14.44182432761205" lon="120.91696404605895"><ele>7.800000000000001</ele><time>2026-04-17T08:35:38Z</time></trkpt><trkpt lat="14.441695900547893" lon="120.91697521533918"><ele>7.6000000000000005</ele><time>2026-04-17T08:35:40Z</time></trkpt><trkpt lat="14.441625282832293" lon="120.91698118026176"><ele>7.3999999999999995</ele><time>2026-04-17T08:35:41Z</time></trkpt><trkpt lat="14.441543485794858" lon="120.91699503506537"><ele>7.199999999999999</ele><time>2026-04-17T08:35:42Z</time></trkpt><trkpt lat="14.441452585217435" lon="120.91701387354317"><ele>7.0</ele><time>2026-04-17T08:35:43Z</time></trkpt><trkpt lat="14.441353416101567" lon="120.91703512084617"><ele>7.0</ele><time>2026-04-17T08:35:44Z</time></trkpt><trkpt lat="14.441252054886727" lon="120.91705660576096"><ele>7.0</ele><time>2026-04-17T08:35:45Z</time></trkpt><trkpt lat="14.441145017828386" lon="120.91708084223316"><ele>7.0</ele><time>2026-04-17T08:35:46Z</time></trkpt><trkpt lat="14.441030907181622" lon="120.91710833039669"><ele>7.0</ele><time>2026-04-17T08:35:47Z</time></trkpt><trkpt lat="14.44090801649452" lon="120.91714042617865"><ele>7.0</ele><time>2026-04-17T08:35:48Z</time></trkpt><trkpt lat="14.44078887340508" lon="120.91716093739338"><ele>7.0</ele><time>2026-04-17T08:35:49Z</time></trkpt><trkpt lat="14.440656490359242" lon="120.9171842076783"><ele>7.0</ele><time>2026-04-17T08:35:50Z</time></trkpt><trkpt lat="14.440519102311885" lon="120.91721544095898"><ele>7.0</ele><time>2026-04-17T08:35:51Z</time></trkpt><trkpt lat="14.440394441549811" lon="120.91723729523456"><ele>6.5</ele><time>2026-04-17T08:35:52Z</time></trkpt><trkpt lat="14.440267218969293" lon="120.91728046723749"><ele>6.0</ele><time>2026-04-17T08:35:53Z</time></trkpt><trkpt lat="14.440143881510407" lon="120.9173352570344"><ele>5.5</ele><time>2026-04-17T08:35:54Z</time></trkpt><trkpt lat="14.44001944831077" lon="120.91740753526345"><ele>5.0</ele><time>2026-04-17T08:35:55Z</time></trkpt><trkpt lat="14.439902915704728" lon="120.91749476286228"><ele>4.75</ele><time>2026-04-17T08:35:56Z</time></trkpt><trkpt lat="14.439787617813039" lon="120.91758395802634"><ele>4.5</ele><time>2026-04-17T08:35:57Z</time></trkpt><trkpt lat="14.43967287078315" lon="120.91767935030683"><ele>4.25</ele><time>2026-04-17T08:35:58Z</time></trkpt><trkpt lat="14.439559679297066" lon="120.9177740589974"><ele>4.0</ele><time>2026-04-17T08:35:59Z</time></trkpt><trkpt lat="14.43944729307275" lon="120.91788751971747"><ele>4.0</ele><time>2026-04-17T08:36:00Z</time></trkpt><trkpt lat="14.43933595644795" lon="120.91799280034601"><ele>4.0</ele><time>2026-04-17T08:36:01Z</time></trkpt><trkpt lat="14.439223213469358" lon="120.91810134689797"><ele>4.0</ele><time>2026-04-17T08:36:02Z</time></trkpt><trkpt lat="14.439107392687887" lon="120.91820902403508"><ele>4.0</ele><time>2026-04-17T08:36:03Z</time></trkpt><trkpt lat="14.438990985422885" lon="120.91831045417786"><ele>4.0</ele><time>2026-04-17T08:36:04Z</time></trkpt><trkpt lat="14.438867986621682" lon="120.9184179788436"><ele>4.0</ele><time>2026-04-17T08:36:05Z</time></trkpt><trkpt lat="14.4387458915887" lon="120.918518216215"><ele>5.0</ele><time>2026-04-17T08:36:06Z</time></trkpt><trkpt lat="14.438623355501711" lon="120.91862728647648"><ele>6.0</ele><time>2026-04-17T08:36:07Z</time></trkpt><trkpt lat="14.438502093181347" lon="120.91874351291854"><ele>7.0</ele><time>2026-04-17T08:36:08Z</time></trkpt><trkpt lat="14.438376326431703" lon="120.91886026024352"><ele>7.0</ele><time>2026-04-17T08:36:09Z</time></trkpt><trkpt lat="14.438250822051836" lon="120.91897078399684"><ele>7.0</ele><time>2026-04-17T08:36:10Z</time></trkpt><trkpt lat="14.438127709385796" lon="120.91908070708881"><ele>7.0</ele><time>2026-04-17T08:36:11Z</time></trkpt><trkpt lat="14.43800075491724" lon="120.91919980510966"><ele>6.666666666666667</ele><time>2026-04-17T08:36:12Z</time></trkpt><trkpt lat="14.437870279334666" lon="120.91931537561165"><ele>6.333333333333334</ele><time>2026-04-17T08:36:13.001Z</time></trkpt><trkpt lat="14.43773909513574" lon="120.91943733990924"><ele>6.0</ele><time>2026-04-17T08:36:14.001Z</time></trkpt><trkpt lat="14.437606129468147" lon="120.91957036014513"><ele>6.0</ele><time>2026-04-17T08:36:15.001Z</time></trkpt><trkpt lat="14.437476055751205" lon="120.91970200067827"><ele>6.0</ele><time>2026-04-17T08:36:16.001Z</time></trkpt><trkpt lat="14.437339254080419" lon="120.91985358773728"><ele>6.0</ele><time>2026-04-17T08:36:17.001Z</time></trkpt><trkpt lat="14.437208303747672" lon="120.91998840291619"><ele>6.333333333333334</ele><time>2026-04-17T08:36:18.001Z</time></trkpt><trkpt lat="14.437068515032262" lon="120.92014552667548"><ele>6.666666666666667</ele><time>2026-04-17T08:36:19.001Z</time></trkpt><trkpt lat="14.436925491076916" lon="120.92029262222822"><ele>7.0</ele><time>2026-04-17T08:36:20.001Z</time></trkpt><trkpt lat="14.436785284955333" lon="120.92043505981863"><ele>7.0</ele><time>2026-04-17T08:36:21.001Z</time></trkpt><trkpt lat="14.436651034176721" lon="120.92058668451098"><ele>7.0</ele><time>2026-04-17T08:36:22.001Z</time></trkpt><trkpt lat="14.436530557065034" lon="120.92071848557615"><ele>7.0</ele><time>2026-04-17T08:36:23.001Z</time></trkpt><trkpt lat="14.436420247202944" lon="120.92084248414493"><ele>7.0</ele><time>2026-04-17T08:36:24.001Z</time></trkpt><trkpt lat="14.436311928141324" lon="120.92096262411025"><ele>7.0</ele><time>2026-04-17T08:36:25.001Z</time></trkpt><trkpt lat="14.436203704277917" lon="120.92107627768526"><ele>7.0</ele><time>2026-04-17T08:36:26.001Z</time></trkpt><trkpt lat="14.43609218652251" lon="120.92119618449848"><ele>7.25</ele><time>2026-04-17T08:36:27.001Z</time></trkpt><trkpt lat="14.435991224581628" lon="120.92129839752577"><ele>7.5</ele><time>2026-04-17T08:36:28.001Z</time></trkpt><trkpt lat="14.435896802970374" lon="120.92140160478498"><ele>7.75</ele><time>2026-04-17T08:36:29.001Z</time></trkpt><trkpt lat="14.43580595010032" lon="120.92149650740791"><ele>8.0</ele><time>2026-04-17T08:36:30.001Z</time></trkpt><trkpt lat="14.435720550914333" lon="120.92157960392417"><ele>8.0</ele><time>2026-04-17T08:36:31.001Z</time></trkpt><trkpt lat="14.43563711047375" lon="120.92166883484211"><ele>8.0</ele><time>2026-04-17T08:36:32.001Z</time></trkpt><trkpt lat="14.435549772579387" lon="120.92175383286249"><ele>8.0</ele><time>2026-04-17T08:36:33.001Z</time></trkpt><trkpt lat="14.435463117160669" lon="120.92184643946203"><ele>8.0</ele><time>2026-04-17T08:36:34.001Z</time></trkpt><trkpt lat="14.435380207413218" lon="120.921921530368"><ele>8.0</ele><time>2026-04-17T08:36:35.001Z</time></trkpt><trkpt lat="14.43529674688025" lon="120.92198519742776"><ele>8.0</ele><time>2026-04-17T08:36:36.001Z</time></trkpt><trkpt lat="14.435198483241978" lon="120.92203237906504"><ele>8.0</ele><time>2026-04-17T08:36:37.001Z</time></trkpt><trkpt lat="14.435088951656931" lon="120.9220548879584"><ele>8.0</ele><time>2026-04-17T08:36:38.001Z</time></trkpt><trkpt lat="14.4349746926605" lon="120.92203730190877"><ele>8.0</ele><time>2026-04-17T08:36:39.001Z</time></trkpt><trkpt lat="14.434861911432213" lon="120.92203558077566"><ele>8.0</ele><time>2026-04-17T08:36:40.001Z</time></trkpt><trkpt lat="14.434737429005384" lon="120.9220145287819"><ele>8.0</ele><time>2026-04-17T08:36:41.001Z</time></trkpt><trkpt lat="14.434611262977997" lon="120.92199561551271"><ele>8.0</ele><time>2026-04-17T08:36:42.001Z</time></trkpt><trkpt lat="14.434474208515297" lon="120.92197737392475"><ele>8.0</ele><time>2026-04-17T08:36:43.001Z</time></trkpt><trkpt lat="14.434335074486883" lon="120.92196051815857"><ele>7.75</ele><time>2026-04-17T08:36:44.001Z</time></trkpt><trkpt lat="14.434208589673032" lon="120.92193611927233"><ele>7.5</ele><time>2026-04-17T08:36:45.001Z</time></trkpt><trkpt lat="14.43407586898845" lon="120.92191258491133"><ele>7.25</ele><time>2026-04-17T08:36:46.001Z</time></trkpt><trkpt lat="14.43394403092917" lon="120.92188925110861"><ele>7.0</ele><time>2026-04-17T08:36:47.001Z</time></trkpt><trkpt lat="14.433821739104797" lon="120.92186621418011"><ele>7.25</ele><time>2026-04-17T08:36:48.001Z</time></trkpt><trkpt lat="14.433700124549077" lon="120.92184418331898"><ele>7.5</ele><time>2026-04-17T08:36:49.001Z</time></trkpt><trkpt lat="14.433571490925035" lon="120.92181848957472"><ele>7.75</ele><time>2026-04-17T08:36:50.001Z</time></trkpt><trkpt lat="14.43344580113513" lon="120.92179052879214"><ele>8.0</ele><time>2026-04-17T08:36:51.001Z</time></trkpt><trkpt lat="14.433332551685115" lon="120.92176621140457"><ele>8.0</ele><time>2026-04-17T08:36:52.001Z</time></trkpt><trkpt lat="14.433220664202828" lon="120.92174248043342"><ele>8.0</ele><time>2026-04-17T08:36:53.001Z</time></trkpt><trkpt lat="14.433107264035774" lon="120.92172059793252"><ele>8.0</ele><time>2026-04-17T08:36:54.001Z</time></trkpt><trkpt lat="14.433005307838854" lon="120.92170242952525"><ele>8.0</ele><time>2026-04-17T08:36:55.001Z</time></trkpt><trkpt lat="14.432894609777236" lon="120.92169832641716"><ele>8.0</ele><time>2026-04-17T08:36:56.001Z</time></trkpt><trkpt lat="14.432785678813739" lon="120.92169920492762"><ele>8.200000000000001</ele><time>2026-04-17T08:36:57.001Z</time></trkpt><trkpt lat="14.43267714680248" lon="120.92170173144203"><ele>8.4</ele><time>2026-04-17T08:36:58.001Z</time></trkpt><trkpt lat="14.432562688816967" lon="120.92170344044607"><ele>8.600000000000001</ele><time>2026-04-17T08:36:59.001Z</time></trkpt><trkpt lat="14.432451699717102" lon="120.921703477617"><ele>8.8</ele><time>2026-04-17T08:37:00.001Z</time></trkpt><trkpt lat="14.432358727025635" lon="120.92170300386071"><ele>9.0</ele><time>2026-04-17T08:37:01.001Z</time></trkpt><trkpt lat="14.432246502545238" lon="120.92172026501258"><ele>9.0</ele><time>2026-04-17T08:37:02.001Z</time></trkpt><trkpt lat="14.432144828830365" lon="120.9217530285631"><ele>9.0</ele><time>2026-04-17T08:37:03.001Z</time></trkpt><trkpt lat="14.432040987335133" lon="120.9218030963569"><ele>9.0</ele><time>2026-04-17T08:37:04.001Z</time></trkpt><trkpt lat="14.431939577316419" lon="120.92186213785388"><ele>9.0</ele><time>2026-04-17T08:37:05.001Z</time></trkpt><trkpt lat="14.431841648783868" lon="120.92193831442637"><ele>9.0</ele><time>2026-04-17T08:37:06.001Z</time></trkpt><trkpt lat="14.431733920964474" lon="120.922028200947"><ele>9.0</ele><time>2026-04-17T08:37:07.001Z</time></trkpt><trkpt lat="14.431629874604479" lon="120.92211837306107"><ele>9.0</ele><time>2026-04-17T08:37:08.001Z</time></trkpt><trkpt lat="14.431530489823041" lon="120.9221900461874"><ele>9.0</ele><time>2026-04-17T08:37:09.001Z</time></trkpt><trkpt lat="14.431434448068472" lon="120.9222700593772"><ele>9.0</ele><time>2026-04-17T08:37:10.001Z</time></trkpt><trkpt lat="14.431350378323424" lon="120.92232614718785"><ele>9.0</ele><time>2026-04-17T08:37:11.001Z</time></trkpt><trkpt lat="14.431269546894194" lon="120.92239097257766"><ele>9.0</ele><time>2026-04-17T08:37:12.001Z</time></trkpt><trkpt lat="14.431202621838382" lon="120.92243755965913"><ele>9.0</ele><time>2026-04-17T08:37:13.001Z</time></trkpt><trkpt lat="14.43113361851858" lon="120.9224628850316"><ele>9.0</ele><time>2026-04-17T08:37:14.001Z</time></trkpt><trkpt lat="14.431049486733672" lon="120.9224763040573"><ele>9.0</ele><time>2026-04-17T08:37:15.001Z</time></trkpt><trkpt lat="14.430950506808086" lon="120.92247724425144"><ele>9.2</ele><time>2026-04-17T08:37:16.001Z</time></trkpt><trkpt lat="14.430853684559057" lon="120.92247110545527"><ele>9.4</ele><time>2026-04-17T08:37:17.001Z</time></trkpt><trkpt lat="14.430749139302344" lon="120.92247265072751"><ele>9.6</ele><time>2026-04-17T08:37:18.001Z</time></trkpt><trkpt lat="14.430646982895537" lon="120.92247418713836"><ele>9.8</ele><time>2026-04-17T08:37:19.001Z</time></trkpt><trkpt lat="14.430561211651314" lon="120.92245158420353"><ele>10.0</ele><time>2026-04-17T08:37:20.001Z</time></trkpt><trkpt lat="14.430480731753162" lon="120.92244633219654"><ele>9.833333333333334</ele><time>2026-04-17T08:37:21.001Z</time></trkpt><trkpt lat="14.43041361492301" lon="120.92245521008113"><ele>9.666666666666668</ele><time>2026-04-17T08:37:22.001Z</time></trkpt><trkpt lat="14.43035003369959" lon="120.9224438409317"><ele>9.5</ele><time>2026-04-17T08:37:23.001Z</time></trkpt><trkpt lat="14.430283133321053" lon="120.9224379463841"><ele>9.333333333333334</ele><time>2026-04-17T08:37:24Z</time></trkpt><trkpt lat="14.43015881296" lon="120.92243313978531"><ele>9.166666666666666</ele><time>2026-04-17T08:37:26Z</time></trkpt><trkpt lat="14.430086061223182" lon="120.92241179711547"><ele>9.0</ele><time>2026-04-17T08:37:27Z</time></trkpt><trkpt lat="14.430005312251305" lon="120.92241752338279"><ele>9.0</ele><time>2026-04-17T08:37:28Z</time></trkpt><trkpt lat="14.429923746160082" lon="120.92239983831686"><ele>9.0</ele><time>2026-04-17T08:37:29Z</time></trkpt><trkpt lat="14.42983802610148" lon="120.92239022155566"><ele>9.0</ele><time>2026-04-17T08:37:30Z</time></trkpt><trkpt lat="14.429764943968141" lon="120.92237996849326"><ele>9.0</ele><time>2026-04-17T08:37:31Z</time></trkpt><trkpt lat="14.429647959558729" lon="120.92236718830539"><ele>9.0</ele><time>2026-04-17T08:37:33Z</time></trkpt><trkpt lat="14.429579838123152" lon="120.92236215026308"><ele>9.0</ele><time>2026-04-17T08:37:34Z</time></trkpt><trkpt lat="14.429506662097323" lon="120.9223504837716"><ele>9.0</ele><time>2026-04-17T08:37:35Z</time></trkpt><trkpt lat="14.429424497035727" lon="120.92233592141051"><ele>9.0</ele><time>2026-04-17T08:37:36Z</time></trkpt><trkpt lat="14.429352392285814" lon="120.92232360989063"><ele>9.0</ele><time>2026-04-17T08:37:37Z</time></trkpt><trkpt lat="14.429246545159405" lon="120.92231405519031"><ele>9.0</ele><time>2026-04-17T08:37:39Z</time></trkpt><trkpt lat="14.429157822028863" lon="120.92231354686594"><ele>9.0</ele><time>2026-04-17T08:37:41Z</time></trkpt><trkpt lat="14.429094688098983" lon="120.9223166231073"><ele>9.0</ele><time>2026-04-17T08:37:43Z</time></trkpt><trkpt lat="14.429027526003347" lon="120.92230590090578"><ele>9.0</ele><time>2026-04-17T08:37:48Z</time></trkpt><trkpt lat="14.428938988984129" lon="120.92230901113358"><ele>9.0</ele><time>2026-04-17T08:37:51Z</time></trkpt><trkpt lat="14.428871329447274" lon="120.92230114104419"><ele>9.0</ele><time>2026-04-17T08:37:55Z</time></trkpt><trkpt lat="14.428777229441636" lon="120.92227582931675"><ele>9.0</ele><time>2026-04-17T08:37:58Z</time></trkpt><trkpt lat="14.428703049378601" lon="120.92226693150174"><ele>9.0</ele><time>2026-04-17T08:38:01Z</time></trkpt><trkpt lat="14.428639492435302" lon="120.92225930791864"><ele>9.0</ele><time>2026-04-17T08:38:04Z</time></trkpt><trkpt lat="14.428572917991719" lon="120.92225132235357"><ele>9.166666666666666</ele><time>2026-04-17T08:38:06Z</time></trkpt><trkpt lat="14.428483312687446" lon="120.92225593171867"><ele>9.333333333333334</ele><time>2026-04-17T08:38:08Z</time></trkpt><trkpt lat="14.428359507443421" lon="120.92226996459863"><ele>9.5</ele><time>2026-04-17T08:38:10Z</time></trkpt><trkpt lat="14.428289172571432" lon="120.92226484749175"><ele>9.666666666666668</ele><time>2026-04-17T08:38:11Z</time></trkpt><trkpt lat="14.428223701189301" lon="120.92227671171479"><ele>9.833333333333334</ele><time>2026-04-17T08:38:12Z</time></trkpt><trkpt lat="14.428157397842156" lon="120.92229931416072"><ele>10.0</ele><time>2026-04-17T08:38:13Z</time></trkpt><trkpt lat="14.428084106011784" lon="120.92227861514795"><ele>10.0</ele><time>2026-04-17T08:38:14Z</time></trkpt><trkpt lat="14.427965193368378" lon="120.92226570236042"><ele>10.0</ele><time>2026-04-17T08:38:16Z</time></trkpt><trkpt lat="14.427892629708262" lon="120.92225852095603"><ele>10.0</ele><time>2026-04-17T08:38:17Z</time></trkpt><trkpt lat="14.427814915567392" lon="120.92225605656753"><ele>10.0</ele><time>2026-04-17T08:38:18Z</time></trkpt><trkpt lat="14.427728293639788" lon="120.92225664650542"><ele>10.0</ele><time>2026-04-17T08:38:19Z</time></trkpt><trkpt lat="14.427645800691067" lon="120.92226069832192"><ele>10.0</ele><time>2026-04-17T08:38:20Z</time></trkpt><trkpt lat="14.427496937438436" lon="120.92269985118597"><ele>10.0</ele><time>2026-04-17T08:38:21Z</time></trkpt><trkpt lat="14.427402793966305" lon="120.92275958079"><ele>10.0</ele><time>2026-04-17T08:38:22Z</time></trkpt><trkpt lat="14.427300926318498" lon="120.92282490595734"><ele>10.0</ele><time>2026-04-17T08:38:23Z</time></trkpt><trkpt lat="14.427201608191986" lon="120.92289075383027"><ele>10.0</ele><time>2026-04-17T08:38:24Z</time></trkpt><trkpt lat="14.427096639015796" lon="120.92296230106534"><ele>10.0</ele><time>2026-04-17T08:38:25Z</time></trkpt><trkpt lat="14.42700521321927" lon="120.9230166950184"><ele>10.0</ele><time>2026-04-17T08:38:26.001Z</time></trkpt><trkpt lat="14.426918343881125" lon="120.92306841161808"><ele>10.0</ele><time>2026-04-17T08:38:27.001Z</time></trkpt><trkpt lat="14.42683415876189" lon="120.92311575930019"><ele>10.0</ele><time>2026-04-17T08:38:28.001Z</time></trkpt><trkpt lat="14.426751703969513" lon="120.92315653822463"><ele>10.0</ele><time>2026-04-17T08:38:29.001Z</time></trkpt><trkpt lat="14.426678542694678" lon="120.92319019499617"><ele>10.0</ele><time>2026-04-17T08:38:30.001Z</time></trkpt><trkpt lat="14.426617304889612" lon="120.92321460769583"><ele>10.0</ele><time>2026-04-17T08:38:31.001Z</time></trkpt><trkpt lat="14.426547017989586" lon="120.9232244116698"><ele>10.0</ele><time>2026-04-17T08:38:32.001Z</time></trkpt><trkpt lat="14.426468670292854" lon="120.92321897947785"><ele>10.0</ele><time>2026-04-17T08:38:33.001Z</time></trkpt><trkpt lat="14.42636622683822" lon="120.92320946151796"><ele>10.0</ele><time>2026-04-17T08:38:34.001Z</time></trkpt><trkpt lat="14.426264198574376" lon="120.92320567226072"><ele>10.0</ele><time>2026-04-17T08:38:35.001Z</time></trkpt><trkpt lat="14.426147779576372" lon="120.92319981265784"><ele>10.0</ele><time>2026-04-17T08:38:36.001Z</time></trkpt><trkpt lat="14.426013151240879" lon="120.9231951571031"><ele>10.0</ele><time>2026-04-17T08:38:37.001Z</time></trkpt><trkpt lat="14.425892939093446" lon="120.92318608973119"><ele>10.0</ele><time>2026-04-17T08:38:38.001Z</time></trkpt><trkpt lat="14.425752059219418" lon="120.9231837999092"><ele>10.0</ele><time>2026-04-17T08:38:39.001Z</time></trkpt><trkpt lat="14.42561276219082" lon="120.92318595699098"><ele>10.5</ele><time>2026-04-17T08:38:40.001Z</time></trkpt><trkpt lat="14.425466685444365" lon="120.92318555986941"><ele>11.0</ele><time>2026-04-17T08:38:41.001Z</time></trkpt><trkpt lat="14.425319164078651" lon="120.92318904343124"><ele>11.5</ele><time>2026-04-17T08:38:42.001Z</time></trkpt><trkpt lat="14.425168289193184" lon="120.92319655899946"><ele>12.0</ele><time>2026-04-17T08:38:43.001Z</time></trkpt><trkpt lat="14.425039876695482" lon="120.923181942602"><ele>12.0</ele><time>2026-04-17T08:38:44.001Z</time></trkpt><trkpt lat="14.424894439178157" lon="120.92317916553252"><ele>12.0</ele><time>2026-04-17T08:38:45.001Z</time></trkpt><trkpt lat="14.424749245146788" lon="120.92318164669297"><ele>12.0</ele><time>2026-04-17T08:38:46.001Z</time></trkpt><trkpt lat="14.42460839728455" lon="120.92318038181926"><ele>12.0</ele><time>2026-04-17T08:38:47.001Z</time></trkpt><trkpt lat="14.424463172066247" lon="120.92320392943324"><ele>12.0</ele><time>2026-04-17T08:38:48.001Z</time></trkpt><trkpt lat="14.4243332536547" lon="120.92319507058694"><ele>12.0</ele><time>2026-04-17T08:38:49.001Z</time></trkpt><trkpt lat="14.424211583571685" lon="120.92319561381883"><ele>12.0</ele><time>2026-04-17T08:38:50.001Z</time></trkpt><trkpt lat="14.424090744372688" lon="120.9232105381148"><ele>12.0</ele><time>2026-04-17T08:38:51.001Z</time></trkpt><trkpt lat="14.423976344079335" lon="120.92322553303383"><ele>12.0</ele><time>2026-04-17T08:38:52.001Z</time></trkpt><trkpt lat="14.423872489574126" lon="120.92323569091498"><ele>12.0</ele><time>2026-04-17T08:38:53.001Z</time></trkpt><trkpt lat="14.423774148350885" lon="120.92323790278814"><ele>12.0</ele><time>2026-04-17T08:38:54.001Z</time></trkpt><trkpt lat="14.42368508893811" lon="120.92323434747682"><ele>12.0</ele><time>2026-04-17T08:38:55.001Z</time></trkpt><trkpt lat="14.423602120009251" lon="120.92324686733478"><ele>12.0</ele><time>2026-04-17T08:38:56.001Z</time></trkpt><trkpt lat="14.423527000284112" lon="120.92326125319066"><ele>11.833333333333334</ele><time>2026-04-17T08:38:57.001Z</time></trkpt><trkpt lat="14.4234548797229" lon="120.92326717558937"><ele>11.666666666666666</ele><time>2026-04-17T08:38:58.001Z</time></trkpt><trkpt lat="14.423381203296689" lon="120.92327258744687"><ele>11.5</ele><time>2026-04-17T08:38:59.001Z</time></trkpt><trkpt lat="14.42331548206122" lon="120.9232756273724"><ele>11.333333333333332</ele><time>2026-04-17T08:39:00.001Z</time></trkpt><trkpt lat="14.423210132333725" lon="120.92328020102836"><ele>11.166666666666666</ele><time>2026-04-17T08:39:02.001Z</time></trkpt><trkpt lat="14.423136412041305" lon="120.92327808673947"><ele>11.0</ele><time>2026-04-17T08:39:04.001Z</time></trkpt><trkpt lat="14.423070653337913" lon="120.92326623421054"><ele>11.0</ele><time>2026-04-17T08:39:07.001Z</time></trkpt><trkpt lat="14.423088207896473" lon="120.92333901121576"><ele>11.0</ele><time>2026-04-17T08:39:36Z</time></trkpt><trkpt lat="14.423141838748123" lon="120.92337729140232"><ele>11.0</ele><time>2026-04-17T08:39:40Z</time></trkpt><trkpt lat="14.423135537547376" lon="120.92330091500563"><ele>11.0</ele><time>2026-04-17T08:40:05Z</time></trkpt><trkpt lat="14.423121844547168" lon="120.92341179773949"><ele>11.0</ele><time>2026-04-17T08:41:05Z</time></trkpt><trkpt lat="14.423187951654763" lon="120.92338815024024"><ele>11.0</ele><time>2026-04-17T08:45:57Z</time></trkpt><trkpt lat="14.423124426327464" lon="120.92340951579081"><ele>11.0</ele><time>2026-04-17T08:50:25Z</time></trkpt><trkpt lat="14.42313507490879" lon="120.9234738527387"><ele>11.0</ele><time>2026-04-17T09:25:27.001Z</time></trkpt><trkpt lat="14.42313975245809" lon="120.92340561630942"><ele>11.0</ele><time>2026-04-17T09:46:12Z</time></trkpt><trkpt lat="14.423086524722818" lon="120.92334863783445"><ele>11.0</ele><time>2026-04-17T10:16:34Z</time></trkpt><trkpt lat="14.423011880947604" lon="120.92331925621032"><ele>11.0</ele><time>2026-04-17T10:16:36Z</time></trkpt><trkpt lat="14.422894808507841" lon="120.92333202542464"><ele>11.0</ele><time>2026-04-17T10:16:38Z</time></trkpt><trkpt lat="14.422825120065907" lon="120.92334483314029"><ele>11.0</ele><time>2026-04-17T10:16:39Z</time></trkpt><trkpt lat="14.422742757250948" lon="120.92335950331035"><ele>11.0</ele><time>2026-04-17T10:16:40Z</time></trkpt><trkpt lat="14.422665575124833" lon="120.92336930107889"><ele>11.0</ele><time>2026-04-17T10:16:41Z</time></trkpt><trkpt lat="14.422588793363467" lon="120.92338045786224"><ele>11.0</ele><time>2026-04-17T10:16:42Z</time></trkpt><trkpt lat="14.422511781606671" lon="120.92339535039285"><ele>11.0</ele><time>2026-04-17T10:16:43Z</time></trkpt><trkpt lat="14.422449211562338" lon="120.92340560637841"><ele>11.0</ele><time>2026-04-17T10:16:44Z</time></trkpt><trkpt lat="14.422335371392434" lon="120.92342946994485"><ele>10.8</ele><time>2026-04-17T10:16:45Z</time></trkpt><trkpt lat="14.422235843864152" lon="120.92345186826226"><ele>10.600000000000001</ele><time>2026-04-17T10:16:46Z</time></trkpt><trkpt lat="14.422142076645308" lon="120.92346243430035"><ele>10.4</ele><time>2026-04-17T10:16:47Z</time></trkpt><trkpt lat="14.422041577532212" lon="120.9234749353734"><ele>10.2</ele><time>2026-04-17T10:16:48Z</time></trkpt><trkpt lat="14.421936215757732" lon="120.92348758469488"><ele>10.0</ele><time>2026-04-17T10:16:49Z</time></trkpt><trkpt lat="14.421837166756491" lon="120.92349618347345"><ele>10.0</ele><time>2026-04-17T10:16:50Z</time></trkpt><trkpt lat="14.421729682166353" lon="120.92351047417871"><ele>10.0</ele><time>2026-04-17T10:16:51Z</time></trkpt><trkpt lat="14.421634846423792" lon="120.92351214929606"><ele>10.0</ele><time>2026-04-17T10:16:52Z</time></trkpt><trkpt lat="14.421533812043394" lon="120.92351694998956"><ele>10.0</ele><time>2026-04-17T10:16:53Z</time></trkpt><trkpt lat="14.421439335464148" lon="120.92351296226576"><ele>10.0</ele><time>2026-04-17T10:16:54Z</time></trkpt><trkpt lat="14.421338445600375" lon="120.92350729461505"><ele>10.0</ele><time>2026-04-17T10:16:55Z</time></trkpt><trkpt lat="14.421243690284829" lon="120.92350127724644"><ele>10.0</ele><time>2026-04-17T10:16:56Z</time></trkpt><trkpt lat="14.421165948368257" lon="120.92348974218454"><ele>10.0</ele><time>2026-04-17T10:16:57Z</time></trkpt><trkpt lat="14.421073692005075" lon="120.92349938235957"><ele>10.0</ele><time>2026-04-17T10:16:58Z</time></trkpt><trkpt lat="14.420993889544711" lon="120.92349163657053"><ele>10.0</ele><time>2026-04-17T10:16:59Z</time></trkpt><trkpt lat="14.420902919356738" lon="120.92349317773335"><ele>10.0</ele><time>2026-04-17T10:17:00Z</time></trkpt><trkpt lat="14.420818965400883" lon="120.92349445537353"><ele>10.0</ele><time>2026-04-17T10:17:01Z</time></trkpt><trkpt lat="14.420716089218919" lon="120.92350571093334"><ele>10.0</ele><time>2026-04-17T10:17:02Z</time></trkpt><trkpt lat="14.420626818990884" lon="120.9235148756091"><ele>10.0</ele><time>2026-04-17T10:17:03Z</time></trkpt><trkpt lat="14.420536340627343" lon="120.92353098872265"><ele>10.0</ele><time>2026-04-17T10:17:04Z</time></trkpt><trkpt lat="14.420461307580226" lon="120.92352497951084"><ele>10.0</ele><time>2026-04-17T10:17:05Z</time></trkpt><trkpt lat="14.420374821374866" lon="120.92352885698126"><ele>10.0</ele><time>2026-04-17T10:17:06Z</time></trkpt><trkpt lat="14.420283622769308" lon="120.92353945867116"><ele>10.2</ele><time>2026-04-17T10:17:07Z</time></trkpt><trkpt lat="14.420181607894353" lon="120.92355338044592"><ele>10.4</ele><time>2026-04-17T10:17:08Z</time></trkpt><trkpt lat="14.420080243848272" lon="120.92356534691706"><ele>10.600000000000001</ele><time>2026-04-17T10:17:09Z</time></trkpt><trkpt lat="14.419970868259373" lon="120.92357909287222"><ele>10.8</ele><time>2026-04-17T10:17:10Z</time></trkpt><trkpt lat="14.419857999631287" lon="120.92359013211954"><ele>11.0</ele><time>2026-04-17T10:17:11Z</time></trkpt><trkpt lat="14.419751117742724" lon="120.92359122348441"><ele>11.5</ele><time>2026-04-17T10:17:12Z</time></trkpt><trkpt lat="14.41963368882069" lon="120.92359944077724"><ele>12.0</ele><time>2026-04-17T10:17:13Z</time></trkpt><trkpt lat="14.419515741048654" lon="120.92360801021505"><ele>12.5</ele><time>2026-04-17T10:17:14Z</time></trkpt><trkpt lat="14.419395098070444" lon="120.92361981367293"><ele>13.0</ele><time>2026-04-17T10:17:15Z</time></trkpt><trkpt lat="14.419271862835872" lon="120.92362384539587"><ele>13.0</ele><time>2026-04-17T10:17:16Z</time></trkpt><trkpt lat="14.419142501443009" lon="120.9236320725474"><ele>13.0</ele><time>2026-04-17T10:17:17Z</time></trkpt><trkpt lat="14.419015896938" lon="120.9236331103225"><ele>13.0</ele><time>2026-04-17T10:17:18Z</time></trkpt><trkpt lat="14.41887653482247" lon="120.9236440806748"><ele>13.0</ele><time>2026-04-17T10:17:19Z</time></trkpt><trkpt lat="14.418736022240664" lon="120.92365573247575"><ele>13.25</ele><time>2026-04-17T10:17:20Z</time></trkpt><trkpt lat="14.418605935845493" lon="120.9236473978758"><ele>13.5</ele><time>2026-04-17T10:17:21Z</time></trkpt><trkpt lat="14.418474374614867" lon="120.92365460097332"><ele>13.75</ele><time>2026-04-17T10:17:22Z</time></trkpt><trkpt lat="14.41834516328627" lon="120.92366350633193"><ele>14.0</ele><time>2026-04-17T10:17:23Z</time></trkpt><trkpt lat="14.418217205527315" lon="120.92367929239086"><ele>14.0</ele><time>2026-04-17T10:17:24Z</time></trkpt><trkpt lat="14.418089653415826" lon="120.9236911072152"><ele>13.999999999999998</ele><time>2026-04-17T10:17:25Z</time></trkpt><trkpt lat="14.41796829171146" lon="120.92370618979338"><ele>13.999999999999998</ele><time>2026-04-17T10:17:26Z</time></trkpt><trkpt lat="14.417863014435953" lon="120.92371516827339"><ele>14.0</ele><time>2026-04-17T10:17:27Z</time></trkpt><trkpt lat="14.417770949200595" lon="120.92372505705751"><ele>14.0</ele><time>2026-04-17T10:17:28Z</time></trkpt><trkpt lat="14.417693844394861" lon="120.92373137549619"><ele>14.0</ele><time>2026-04-17T10:17:29Z</time></trkpt><trkpt lat="14.417619104857152" lon="120.92373691727181"><ele>14.0</ele><time>2026-04-17T10:17:30Z</time></trkpt><trkpt lat="14.417555347486951" lon="120.92374150227448"><ele>14.0</ele><time>2026-04-17T10:17:31Z</time></trkpt><trkpt lat="14.417484772189614" lon="120.92374860844481"><ele>14.0</ele><time>2026-04-17T10:17:32Z</time></trkpt><trkpt lat="14.417408652382202" lon="120.92375568891305"><ele>14.0</ele><time>2026-04-17T10:17:33Z</time></trkpt><trkpt lat="14.417329358761783" lon="120.92375978568752"><ele>14.0</ele><time>2026-04-17T10:17:34Z</time></trkpt><trkpt lat="14.417247358875697" lon="120.92375873140217"><ele>14.0</ele><time>2026-04-17T10:17:35Z</time></trkpt><trkpt lat="14.417169936512595" lon="120.92376617844307"><ele>13.833333333333334</ele><time>2026-04-17T10:17:36Z</time></trkpt><trkpt lat="14.417100077257766" lon="120.92377078947541"><ele>13.666666666666668</ele><time>2026-04-17T10:17:37Z</time></trkpt><trkpt lat="14.417025812380631" lon="120.92377100098733"><ele>13.5</ele><time>2026-04-17T10:17:38Z</time></trkpt><trkpt lat="14.416947071309778" lon="120.92378114864225"><ele>13.333333333333332</ele><time>2026-04-17T10:17:39Z</time></trkpt><trkpt lat="14.416880222141778" lon="120.92379131636982"><ele>13.166666666666666</ele><time>2026-04-17T10:17:40.001Z</time></trkpt><trkpt lat="14.416775502048209" lon="120.92380579578045"><ele>13.0</ele><time>2026-04-17T10:17:42.001Z</time></trkpt><trkpt lat="14.41665959465702" lon="120.92382176414213"><ele>13.0</ele><time>2026-04-17T10:17:44.001Z</time></trkpt><trkpt lat="14.416521904741005" lon="120.92383839882984"><ele>13.0</ele><time>2026-04-17T10:17:46.001Z</time></trkpt><trkpt lat="14.41643231037722" lon="120.92384911168106"><ele>13.0</ele><time>2026-04-17T10:17:47.001Z</time></trkpt><trkpt lat="14.416334656725967" lon="120.92386345859558"><ele>13.0</ele><time>2026-04-17T10:17:48.001Z</time></trkpt><trkpt lat="14.416244442386104" lon="120.92387140259626"><ele>13.0</ele><time>2026-04-17T10:17:49.001Z</time></trkpt><trkpt lat="14.416157914230471" lon="120.92387946594954"><ele>13.0</ele><time>2026-04-17T10:17:50.001Z</time></trkpt><trkpt lat="14.41606067506055" lon="120.92388782084359"><ele>13.0</ele><time>2026-04-17T10:17:51.001Z</time></trkpt><trkpt lat="14.415960608557725" lon="120.92389593647543"><ele>13.0</ele><time>2026-04-17T10:17:52.001Z</time></trkpt><trkpt lat="14.41585585547464" lon="120.92390404465242"><ele>13.0</ele><time>2026-04-17T10:17:53.001Z</time></trkpt><trkpt lat="14.41575545068488" lon="120.92390791706664"><ele>13.0</ele><time>2026-04-17T10:17:54.001Z</time></trkpt><trkpt lat="14.415666867896544" lon="120.92390924833089"><ele>13.0</ele><time>2026-04-17T10:17:55.001Z</time></trkpt><trkpt lat="14.415587034866105" lon="120.92390995975506"><ele>13.0</ele><time>2026-04-17T10:17:56.001Z</time></trkpt><trkpt lat="14.415517672516799" lon="120.9239167189084"><ele>13.0</ele><time>2026-04-17T10:17:57.001Z</time></trkpt><trkpt lat="14.415453457992344" lon="120.92391177336256"><ele>13.0</ele><time>2026-04-17T10:17:58.001Z</time></trkpt><trkpt lat="14.415380280363555" lon="120.92390876401683"><ele>13.0</ele><time>2026-04-17T10:17:59.001Z</time></trkpt><trkpt lat="14.415311167979" lon="120.92390170109955"><ele>13.0</ele><time>2026-04-17T10:18:00.001Z</time></trkpt><trkpt lat="14.41522565503606" lon="120.92390450706398"><ele>13.0</ele><time>2026-04-17T10:18:01.001Z</time></trkpt><trkpt lat="14.415131580308591" lon="120.92391173884975"><ele>13.2</ele><time>2026-04-17T10:18:02.001Z</time></trkpt><trkpt lat="14.415047768170188" lon="120.92391690697539"><ele>13.4</ele><time>2026-04-17T10:18:03.001Z</time></trkpt><trkpt lat="14.414959080091167" lon="120.9239272604692"><ele>13.599999999999998</ele><time>2026-04-17T10:18:04.001Z</time></trkpt><trkpt lat="14.414856184420163" lon="120.92394917072238"><ele>13.799999999999999</ele><time>2026-04-17T10:18:05.001Z</time></trkpt><trkpt lat="14.414749671260948" lon="120.92396895030518"><ele>14.0</ele><time>2026-04-17T10:18:06.001Z</time></trkpt><trkpt lat="14.414657007919983" lon="120.92399811182118"><ele>14.75</ele><time>2026-04-17T10:18:07.001Z</time></trkpt><trkpt lat="14.414534822814407" lon="120.92402451220654"><ele>15.5</ele><time>2026-04-17T10:18:08.001Z</time></trkpt><trkpt lat="14.414419905245468" lon="120.92404284858401"><ele>16.25</ele><time>2026-04-17T10:18:09.001Z</time></trkpt><trkpt lat="14.414301748738795" lon="120.92407383933048"><ele>17.0</ele><time>2026-04-17T10:18:10Z</time></trkpt><trkpt lat="14.414183571052863" lon="120.9241050253128"><ele>17.0</ele><time>2026-04-17T10:18:11Z</time></trkpt><trkpt lat="14.414065043530805" lon="120.92413815457672"><ele>17.0</ele><time>2026-04-17T10:18:12Z</time></trkpt><trkpt lat="14.413946655793904" lon="120.92416985937547"><ele>17.0</ele><time>2026-04-17T10:18:13Z</time></trkpt><trkpt lat="14.413829073078384" lon="120.92420298409662"><ele>17.0</ele><time>2026-04-17T10:18:14Z</time></trkpt><trkpt lat="14.413725753319492" lon="120.9242284170141"><ele>16.6</ele><time>2026-04-17T10:18:15Z</time></trkpt><trkpt lat="14.413624524386647" lon="120.92425881808357"><ele>16.2</ele><time>2026-04-17T10:18:16Z</time></trkpt><trkpt lat="14.413519303830123" lon="120.92428130800043"><ele>15.8</ele><time>2026-04-17T10:18:17Z</time></trkpt><trkpt lat="14.413415422767208" lon="120.92429097027518"><ele>15.4</ele><time>2026-04-17T10:18:18Z</time></trkpt><trkpt lat="14.41331066837648" lon="120.92428037163855"><ele>15.0</ele><time>2026-04-17T10:18:19Z</time></trkpt><trkpt lat="14.413220878872679" lon="120.9242658869019"><ele>15.0</ele><time>2026-04-17T10:18:20Z</time></trkpt><trkpt lat="14.413140152898125" lon="120.92424729090601"><ele>15.0</ele><time>2026-04-17T10:18:21Z</time></trkpt><trkpt lat="14.413063099714442" lon="120.92423114458938"><ele>15.0</ele><time>2026-04-17T10:18:22Z</time></trkpt><trkpt lat="14.412976112626389" lon="120.92421853955524"><ele>15.0</ele><time>2026-04-17T10:18:23Z</time></trkpt><trkpt lat="14.41288713362218" lon="120.92420356562022"><ele>15.0</ele><time>2026-04-17T10:18:24Z</time></trkpt><trkpt lat="14.412793633718874" lon="120.92417507953"><ele>15.0</ele><time>2026-04-17T10:18:25Z</time></trkpt><trkpt lat="14.412697520632722" lon="120.92414505331192"><ele>15.2</ele><time>2026-04-17T10:18:26Z</time></trkpt><trkpt lat="14.412603805765807" lon="120.92411972346076"><ele>15.4</ele><time>2026-04-17T10:18:27Z</time></trkpt><trkpt lat="14.412499730795696" lon="120.92410221350237"><ele>15.600000000000001</ele><time>2026-04-17T10:18:28Z</time></trkpt><trkpt lat="14.412396851710032" lon="120.92408592545017"><ele>15.8</ele><time>2026-04-17T10:18:29Z</time></trkpt><trkpt lat="14.41228786512612" lon="120.9240699299368"><ele>16.0</ele><time>2026-04-17T10:18:30Z</time></trkpt><trkpt lat="14.412177842493655" lon="120.92405523970562"><ele>16.6</ele><time>2026-04-17T10:18:31Z</time></trkpt><trkpt lat="14.412067314716365" lon="120.9240419168918"><ele>17.200000000000003</ele><time>2026-04-17T10:18:32Z</time></trkpt><trkpt lat="14.411955021450156" lon="120.92403502052107"><ele>17.799999999999997</ele><time>2026-04-17T10:18:33Z</time></trkpt><trkpt lat="14.41184444592824" lon="120.92402704837924"><ele>18.4</ele><time>2026-04-17T10:18:34Z</time></trkpt><trkpt lat="14.41173388760169" lon="120.92401986108841"><ele>19.0</ele><time>2026-04-17T10:18:35Z</time></trkpt><trkpt lat="14.411625552711644" lon="120.92401243625012"><ele>19.0</ele><time>2026-04-17T10:18:36Z</time></trkpt><trkpt lat="14.411512485074747" lon="120.92400516707394"><ele>19.0</ele><time>2026-04-17T10:18:37Z</time></trkpt><trkpt lat="14.411396132189568" lon="120.92399783439545"><ele>19.0</ele><time>2026-04-17T10:18:38Z</time></trkpt><trkpt lat="14.411284980466368" lon="120.92398823313682"><ele>19.0</ele><time>2026-04-17T10:18:39Z</time></trkpt><trkpt lat="14.41118503863313" lon="120.92398944205257"><ele>19.0</ele><time>2026-04-17T10:18:40Z</time></trkpt><trkpt lat="14.411101198993311" lon="120.92399349013118"><ele>19.333333333333332</ele><time>2026-04-17T10:18:41Z</time></trkpt><trkpt lat="14.411021407282607" lon="120.92400962806504"><ele>19.666666666666664</ele><time>2026-04-17T10:18:42Z</time></trkpt><trkpt lat="14.41093736061454" lon="120.92403304345888"><ele>20.0</ele><time>2026-04-17T10:18:43Z</time></trkpt><trkpt lat="14.410844851110827" lon="120.92406395786956"><ele>20.333333333333332</ele><time>2026-04-17T10:18:44Z</time></trkpt><trkpt lat="14.410758964632763" lon="120.92408852697996"><ele>20.666666666666668</ele><time>2026-04-17T10:18:45Z</time></trkpt><trkpt lat="14.410682711226805" lon="120.92412543930692"><ele>21.0</ele><time>2026-04-17T10:18:46Z</time></trkpt><trkpt lat="14.410609267530166" lon="120.92415301469374"><ele>21.0</ele><time>2026-04-17T10:18:47Z</time></trkpt><trkpt lat="14.410536716278946" lon="120.92418358521853"><ele>21.0</ele><time>2026-04-17T10:18:48Z</time></trkpt><trkpt lat="14.410478419379011" lon="120.92421107006336"><ele>21.0</ele><time>2026-04-17T10:18:49Z</time></trkpt><trkpt lat="14.410388509290916" lon="120.92424683647741"><ele>21.0</ele><time>2026-04-17T10:18:51Z</time></trkpt><trkpt lat="14.410296388714073" lon="120.92429152910331"><ele>21.0</ele><time>2026-04-17T10:18:53Z</time></trkpt><trkpt lat="14.410205870165774" lon="120.92433660509275"><ele>21.0</ele><time>2026-04-17T10:18:55Z</time></trkpt><trkpt lat="14.410132518916111" lon="120.92436890257562"><ele>20.666666666666668</ele><time>2026-04-17T10:18:57Z</time></trkpt><trkpt lat="14.410068405645275" lon="120.92440011424507"><ele>20.333333333333332</ele><time>2026-04-17T10:18:59Z</time></trkpt><trkpt lat="14.409961622977544" lon="120.9244385427856"><ele>20.0</ele><time>2026-04-17T10:19:01Z</time></trkpt><trkpt lat="14.409897006277957" lon="120.92446354088699"><ele>19.666666666666664</ele><time>2026-04-17T10:19:02Z</time></trkpt><trkpt lat="14.409832063706654" lon="120.92449183676138"><ele>19.333333333333332</ele><time>2026-04-17T10:19:03Z</time></trkpt><trkpt lat="14.409731811873334" lon="120.92453580867631"><ele>19.0</ele><time>2026-04-17T10:19:05Z</time></trkpt><trkpt lat="14.40964776688914" lon="120.92456664640797"><ele>18.666666666666664</ele><time>2026-04-17T10:19:07Z</time></trkpt><trkpt lat="14.409571416218022" lon="120.92459740600634"><ele>18.333333333333332</ele><time>2026-04-17T10:19:09Z</time></trkpt><trkpt lat="14.409510932067036" lon="120.92461729066397"><ele>18.0</ele><time>2026-04-17T10:19:11Z</time></trkpt><trkpt lat="14.40943155662556" lon="120.92464805032955"><ele>17.666666666666668</ele><time>2026-04-17T10:19:13Z</time></trkpt><trkpt lat="14.40934739187324" lon="120.92466635998532"><ele>17.333333333333336</ele><time>2026-04-17T10:19:15Z</time></trkpt><trkpt lat="14.40927589456121" lon="120.92463836431669"><ele>17.0</ele><time>2026-04-17T10:19:18Z</time></trkpt><trkpt lat="14.409228329289357" lon="120.9245827780376"><ele>17.0</ele><time>2026-04-17T10:19:21Z</time></trkpt><trkpt lat="14.40923698926962" lon="120.92447906741711"><ele>17.0</ele><time>2026-04-17T10:19:23Z</time></trkpt><trkpt lat="14.409200105633735" lon="120.92433738442577"><ele>17.0</ele><time>2026-04-17T10:19:25Z</time></trkpt><trkpt lat="14.409186084088278" lon="120.92424180410896"><ele>17.0</ele><time>2026-04-17T10:19:26Z</time></trkpt><trkpt lat="14.409161987927957" lon="120.92412739356249"><ele>16.6</ele><time>2026-04-17T10:19:27Z</time></trkpt><trkpt lat="14.409150872784064" lon="120.92402810364362"><ele>16.2</ele><time>2026-04-17T10:19:28Z</time></trkpt><trkpt lat="14.40913398065312" lon="120.92392711116175"><ele>15.8</ele><time>2026-04-17T10:19:29Z</time></trkpt><trkpt lat="14.409114867176818" lon="120.92382181365716"><ele>15.4</ele><time>2026-04-17T10:19:30Z</time></trkpt><trkpt lat="14.409101188338182" lon="120.92372590316782"><ele>15.0</ele><time>2026-04-17T10:19:31Z</time></trkpt><trkpt lat="14.40908821689697" lon="120.92363937724414"><ele>15.0</ele><time>2026-04-17T10:19:32Z</time></trkpt><trkpt lat="14.40907404497344" lon="120.92355740376522"><ele>15.0</ele><time>2026-04-17T10:19:33Z</time></trkpt><trkpt lat="14.409061917827499" lon="120.92349158012414"><ele>15.0</ele><time>2026-04-17T10:19:34Z</time></trkpt><trkpt lat="14.409066739460878" lon="120.92342078607692"><ele>15.0</ele><time>2026-04-17T10:19:35Z</time></trkpt><trkpt lat="14.409056456514408" lon="120.92334870075426"><ele>15.0</ele><time>2026-04-17T10:19:36Z</time></trkpt><trkpt lat="14.409044887200395" lon="120.92326759776509"><ele>15.0</ele><time>2026-04-17T10:19:37Z</time></trkpt><trkpt lat="14.409034504332471" lon="120.92319481198952"><ele>15.0</ele><time>2026-04-17T10:19:38Z</time></trkpt><trkpt lat="14.409024423065592" lon="120.92312414064888"><ele>15.166666666666666</ele><time>2026-04-17T10:19:39Z</time></trkpt><trkpt lat="14.409015343159233" lon="120.92305666543976"><ele>15.333333333333332</ele><time>2026-04-17T10:19:40Z</time></trkpt><trkpt lat="14.409000059357886" lon="120.92294457497579"><ele>15.5</ele><time>2026-04-17T10:19:42Z</time></trkpt><trkpt lat="14.40899118683954" lon="120.92287950432915"><ele>15.666666666666666</ele><time>2026-04-17T10:19:44Z</time></trkpt><trkpt lat="14.408982337785277" lon="120.92281460586848"><ele>15.833333333333332</ele><time>2026-04-17T10:19:46Z</time></trkpt><trkpt lat="14.408961960697061" lon="120.92270806833294"><ele>16.0</ele><time>2026-04-17T10:19:48Z</time></trkpt><trkpt lat="14.408934384641372" lon="120.92261846217993"><ele>15.999999999999998</ele><time>2026-04-17T10:19:50Z</time></trkpt><trkpt lat="14.408888582262401" lon="120.92253362644576"><ele>16.0</ele><time>2026-04-17T10:19:52Z</time></trkpt><trkpt lat="14.408848315570651" lon="120.92246732380508"><ele>16.0</ele><time>2026-04-17T10:19:54Z</time></trkpt><trkpt lat="14.408775130936952" lon="120.92246079297826"><ele>16.0</ele><time>2026-04-17T10:19:55Z</time></trkpt><trkpt lat="14.40870876476417" lon="120.92243904416007"><ele>15.999999999999998</ele><time>2026-04-17T10:19:56Z</time></trkpt><trkpt lat="14.408642408158613" lon="120.92242392454877"><ele>16.0</ele><time>2026-04-17T10:19:57Z</time></trkpt><trkpt lat="14.40855501451807" lon="120.92238989500204"><ele>16.0</ele><time>2026-04-17T10:19:59.001Z</time></trkpt><trkpt lat="14.408506764770667" lon="120.92234792232489"><ele>15.999999999999998</ele><time>2026-04-17T10:20:01.001Z</time></trkpt><trkpt lat="14.408470824084082" lon="120.92229299168383"><ele>16.0</ele><time>2026-04-17T10:20:03.001Z</time></trkpt><trkpt lat="14.40844278260956" lon="120.92219610899589"><ele>16.0</ele><time>2026-04-17T10:20:06.001Z</time></trkpt><trkpt lat="14.408428369457983" lon="120.92210905878544"><ele>15.999999999999998</ele><time>2026-04-17T10:20:09.001Z</time></trkpt><trkpt lat="14.408434070812133" lon="120.9220424179878"><ele>16.0</ele><time>2026-04-17T10:20:56Z</time></trkpt><trkpt lat="14.40842377726064" lon="120.92197757237183"><ele>16.0</ele><time>2026-04-17T10:20:59Z</time></trkpt><trkpt lat="14.408400206062682" lon="120.92187151350362"><ele>16.0</ele><time>2026-04-17T10:21:04Z</time></trkpt><trkpt lat="14.408381043096451" lon="120.92177852998458"><ele>16.0</ele><time>2026-04-17T10:21:06Z</time></trkpt><trkpt lat="14.408363343292002" lon="120.92169251599807"><ele>16.0</ele><time>2026-04-17T10:21:07Z</time></trkpt><trkpt lat="14.408344060678397" lon="120.92159881016981"><ele>16.0</ele><time>2026-04-17T10:21:08Z</time></trkpt><trkpt lat="14.408322666069942" lon="120.92149484089656"><ele>16.0</ele><time>2026-04-17T10:21:09Z</time></trkpt><trkpt lat="14.408300051353775" lon="120.92138494241566"><ele>16.5</ele><time>2026-04-17T10:21:10Z</time></trkpt><trkpt lat="14.408274475496704" lon="120.92126065359231"><ele>17.0</ele><time>2026-04-17T10:21:11Z</time></trkpt><trkpt lat="14.408245697425874" lon="120.92114969555155"><ele>17.5</ele><time>2026-04-17T10:21:12Z</time></trkpt><trkpt lat="14.408216777141336" lon="120.92103552715922"><ele>18.0</ele><time>2026-04-17T10:21:13Z</time></trkpt><trkpt lat="14.408184997346389" lon="120.92091007025094"><ele>17.75</ele><time>2026-04-17T10:21:14Z</time></trkpt><trkpt lat="14.408158823290183" lon="120.920789783925"><ele>17.5</ele><time>2026-04-17T10:21:15Z</time></trkpt><trkpt lat="14.408134537075522" lon="120.9206743401623"><ele>17.25</ele><time>2026-04-17T10:21:16Z</time></trkpt><trkpt lat="14.40811130672635" lon="120.92055416173801"><ele>17.0</ele><time>2026-04-17T10:21:17Z</time></trkpt><trkpt lat="14.408094997308575" lon="120.92043547937975"><ele>17.0</ele><time>2026-04-17T10:21:18Z</time></trkpt><trkpt lat="14.408083339633874" lon="120.92032126202416"><ele>17.0</ele><time>2026-04-17T10:21:19Z</time></trkpt><trkpt lat="14.408074296737542" lon="120.92020579312428"><ele>17.0</ele><time>2026-04-17T10:21:20Z</time></trkpt><trkpt lat="14.408067037078107" lon="120.92006881690631"><ele>17.0</ele><time>2026-04-17T10:21:21Z</time></trkpt><trkpt lat="14.408060263883476" lon="120.91993701904136"><ele>16.75</ele><time>2026-04-17T10:21:22Z</time></trkpt><trkpt lat="14.40805306057643" lon="120.91979607960165"><ele>16.5</ele><time>2026-04-17T10:21:23Z</time></trkpt><trkpt lat="14.40804468808695" lon="120.91963226406827"><ele>16.25</ele><time>2026-04-17T10:21:24Z</time></trkpt><trkpt lat="14.408036986954208" lon="120.91948158420779"><ele>16.0</ele><time>2026-04-17T10:21:25Z</time></trkpt><trkpt lat="14.408029287558211" lon="120.91933110308605"><ele>15.666666666666666</ele><time>2026-04-17T10:21:26Z</time></trkpt><trkpt lat="14.40802117479057" lon="120.91917669209032"><ele>15.333333333333332</ele><time>2026-04-17T10:21:27Z</time></trkpt><trkpt lat="14.408012851341198" lon="120.919018271054"><ele>15.0</ele><time>2026-04-17T10:21:28Z</time></trkpt><trkpt lat="14.408004357421017" lon="120.91885660562029"><ele>15.0</ele><time>2026-04-17T10:21:29Z</time></trkpt><trkpt lat="14.407996243559067" lon="120.91869998583151"><ele>15.0</ele><time>2026-04-17T10:21:30Z</time></trkpt><trkpt lat="14.407988122278569" lon="120.91854252512634"><ele>15.0</ele><time>2026-04-17T10:21:31Z</time></trkpt><trkpt lat="14.40798034812712" lon="120.9183917946721"><ele>15.75</ele><time>2026-04-17T10:21:32Z</time></trkpt><trkpt lat="14.40797321282233" lon="120.91825063984918"><ele>16.5</ele><time>2026-04-17T10:21:33Z</time></trkpt><trkpt lat="14.40796689663135" lon="120.91812421886365"><ele>17.25</ele><time>2026-04-17T10:21:34Z</time></trkpt><trkpt lat="14.407960687950638" lon="120.9179999497178"><ele>18.0</ele><time>2026-04-17T10:21:35Z</time></trkpt><trkpt lat="14.407949865932649" lon="120.91788610061023"><ele>18.0</ele><time>2026-04-17T10:21:36Z</time></trkpt><trkpt lat="14.407921822235481" lon="120.91778997958907"><ele>18.0</ele><time>2026-04-17T10:21:37Z</time></trkpt><trkpt lat="14.407881343296811" lon="120.91771784621112"><ele>18.0</ele><time>2026-04-17T10:21:38Z</time></trkpt><trkpt lat="14.407803728963176" lon="120.91765835106148"><ele>18.0</ele><time>2026-04-17T10:21:39Z</time></trkpt><trkpt lat="14.407718493684149" lon="120.91763226382083"><ele>18.0</ele><time>2026-04-17T10:21:40Z</time></trkpt><trkpt lat="14.407640126729957" lon="120.91757004325122"><ele>18.0</ele><time>2026-04-17T10:21:41Z</time></trkpt><trkpt lat="14.407536532415364" lon="120.91755836341676"><ele>18.0</ele><time>2026-04-17T10:21:42Z</time></trkpt><trkpt lat="14.40744637714527" lon="120.91754685639896"><ele>18.0</ele><time>2026-04-17T10:21:43Z</time></trkpt><trkpt lat="14.407342371339386" lon="120.91755359631284"><ele>18.0</ele><time>2026-04-17T10:21:44Z</time></trkpt><trkpt lat="14.407250422882948" lon="120.91757653361954"><ele>18.0</ele><time>2026-04-17T10:21:45Z</time></trkpt><trkpt lat="14.40714627098637" lon="120.91760523791733"><ele>17.75</ele><time>2026-04-17T10:21:46Z</time></trkpt><trkpt lat="14.40703875862368" lon="120.91763178130054"><ele>17.5</ele><time>2026-04-17T10:21:47Z</time></trkpt><trkpt lat="14.406914396066904" lon="120.91765820802269"><ele>17.25</ele><time>2026-04-17T10:21:48Z</time></trkpt><trkpt lat="14.406792318805733" lon="120.91768472946194"><ele>17.0</ele><time>2026-04-17T10:21:49Z</time></trkpt><trkpt lat="14.4066621658124" lon="120.91771612438662"><ele>17.0</ele><time>2026-04-17T10:21:50Z</time></trkpt><trkpt lat="14.40653733415072" lon="120.9177461895849"><ele>17.0</ele><time>2026-04-17T10:21:51Z</time></trkpt><trkpt lat="14.406411637380513" lon="120.91777668688518"><ele>17.0</ele><time>2026-04-17T10:21:52Z</time></trkpt><trkpt lat="14.40628293649863" lon="120.91779940816902"><ele>17.0</ele><time>2026-04-17T10:21:53Z</time></trkpt><trkpt lat="14.40617492312543" lon="120.91780733236078"><ele>17.4</ele><time>2026-04-17T10:21:54Z</time></trkpt><trkpt lat="14.406061734970207" lon="120.91780182894783"><ele>17.799999999999997</ele><time>2026-04-17T10:21:55Z</time></trkpt><trkpt lat="14.405960319343874" lon="120.9177880422716"><ele>18.2</ele><time>2026-04-17T10:21:56Z</time></trkpt><trkpt lat="14.405874993334814" lon="120.91776740749728"><ele>18.599999999999998</ele><time>2026-04-17T10:21:57Z</time></trkpt><trkpt lat="14.405798076481423" lon="120.9177336036575"><ele>19.0</ele><time>2026-04-17T10:21:58Z</time></trkpt><trkpt lat="14.405751334558566" lon="120.91763815784348"><ele>19.0</ele><time>2026-04-17T10:21:59.001Z</time></trkpt><trkpt lat="14.4056826500982" lon="120.91757129725686"><ele>19.0</ele><time>2026-04-17T10:22:00.001Z</time></trkpt><trkpt lat="14.405625402621961" lon="120.9175259793073"><ele>19.0</ele><time>2026-04-17T10:22:01.001Z</time></trkpt><trkpt lat="14.40554603450413" lon="120.91749097996006"><ele>19.0</ele><time>2026-04-17T10:22:02.001Z</time></trkpt><trkpt lat="14.405445009237312" lon="120.91751909699978"><ele>19.0</ele><time>2026-04-17T10:22:03.001Z</time></trkpt><trkpt lat="14.405362520890122" lon="120.91749421734924"><ele>19.0</ele><time>2026-04-17T10:22:04.001Z</time></trkpt><trkpt lat="14.405277107924046" lon="120.91757683552888"><ele>18.599999999999998</ele><time>2026-04-17T10:22:05.001Z</time></trkpt><trkpt lat="14.405204468663891" lon="120.91763532786878"><ele>18.2</ele><time>2026-04-17T10:22:06.001Z</time></trkpt><trkpt lat="14.405135207809508" lon="120.9177196702909"><ele>17.799999999999997</ele><time>2026-04-17T10:22:07.001Z</time></trkpt><trkpt lat="14.405047885476108" lon="120.91777098536816"><ele>17.4</ele><time>2026-04-17T10:22:08.001Z</time></trkpt><trkpt lat="14.404940882235026" lon="120.91774814348369"><ele>17.0</ele><time>2026-04-17T10:22:09.001Z</time></trkpt><trkpt lat="14.404830222624035" lon="120.9177512075174"><ele>17.0</ele><time>2026-04-17T10:22:10.001Z</time></trkpt><trkpt lat="14.404722052112472" lon="120.9177435121743"><ele>17.0</ele><time>2026-04-17T10:22:11.001Z</time></trkpt><trkpt lat="14.404612765402035" lon="120.91773676340412"><ele>17.0</ele><time>2026-04-17T10:22:12.001Z</time></trkpt><trkpt lat="14.404513692588468" lon="120.91772368669307"><ele>17.0</ele><time>2026-04-17T10:22:13.001Z</time></trkpt><trkpt lat="14.40440732068294" lon="120.91771363408846"><ele>17.0</ele><time>2026-04-17T10:22:14.001Z</time></trkpt><trkpt lat="14.404304087550916" lon="120.91770617696558"><ele>17.0</ele><time>2026-04-17T10:22:15.001Z</time></trkpt><trkpt lat="14.404200412537145" lon="120.91770124937246"><ele>17.0</ele><time>2026-04-17T10:22:16.001Z</time></trkpt><trkpt lat="14.404112249097793" lon="120.91769519960044"><ele>17.0</ele><time>2026-04-17T10:22:17.001Z</time></trkpt><trkpt lat="14.404034151907977" lon="120.9176914195942"><ele>17.0</ele><time>2026-04-17T10:22:18.001Z</time></trkpt><trkpt lat="14.403962562738599" lon="120.91768714180157"><ele>17.0</ele><time>2026-04-17T10:22:19.001Z</time></trkpt><trkpt lat="14.403899395406814" lon="120.91768100117316"><ele>17.0</ele><time>2026-04-17T10:22:20.001Z</time></trkpt><trkpt lat="14.403835979485716" lon="120.91767721141458"><ele>17.166666666666668</ele><time>2026-04-17T10:22:21.001Z</time></trkpt><trkpt lat="14.403764026086515" lon="120.91767639982172"><ele>17.333333333333336</ele><time>2026-04-17T10:22:22Z</time></trkpt><trkpt lat="14.403687670717511" lon="120.91767634330793"><ele>17.5</ele><time>2026-04-17T10:22:23Z</time></trkpt><trkpt lat="14.403608752692698" lon="120.91767826868411"><ele>17.666666666666668</ele><time>2026-04-17T10:22:24Z</time></trkpt><trkpt lat="14.403514514615368" lon="120.91767850288245"><ele>17.833333333333332</ele><time>2026-04-17T10:22:25Z</time></trkpt><trkpt lat="14.403417415637934" lon="120.91767704428277"><ele>18.0</ele><time>2026-04-17T10:22:26Z</time></trkpt><trkpt lat="14.40332983492035" lon="120.91767410426205"><ele>18.000000000000004</ele><time>2026-04-17T10:22:27Z</time></trkpt><trkpt lat="14.403258175504138" lon="120.91766531675566"><ele>18.0</ele><time>2026-04-17T10:22:28Z</time></trkpt><trkpt lat="14.403171321123303" lon="120.91766282210743"><ele>18.0</ele><time>2026-04-17T10:22:29Z</time></trkpt><trkpt lat="14.403102590769066" lon="120.9176559030865"><ele>18.0</ele><time>2026-04-17T10:22:30Z</time></trkpt><trkpt lat="14.403034655948556" lon="120.91765200683983"><ele>18.0</ele><time>2026-04-17T10:22:31Z</time></trkpt><trkpt lat="14.402963292700244" lon="120.91765300364322"><ele>18.000000000000004</ele><time>2026-04-17T10:22:32Z</time></trkpt><trkpt lat="14.402891803519656" lon="120.91765266912081"><ele>18.0</ele><time>2026-04-17T10:22:33Z</time></trkpt><trkpt lat="14.402746134405735" lon="120.91764108846773"><ele>17.75</ele><time>2026-04-17T10:22:35Z</time></trkpt><trkpt lat="14.402639315696508" lon="120.91762891930271"><ele>17.5</ele><time>2026-04-17T10:22:36Z</time></trkpt><trkpt lat="14.402533249719522" lon="120.91761166503775"><ele>17.25</ele><time>2026-04-17T10:22:37Z</time></trkpt><trkpt lat="14.402414259803063" lon="120.91761486827878"><ele>17.0</ele><time>2026-04-17T10:22:38Z</time></trkpt><trkpt lat="14.40228432513849" lon="120.91762449361278"><ele>17.5</ele><time>2026-04-17T10:22:39Z</time></trkpt><trkpt lat="14.40214569177022" lon="120.91761752769807"><ele>18.0</ele><time>2026-04-17T10:22:40Z</time></trkpt><trkpt lat="14.402008330354148" lon="120.91760563765094"><ele>18.5</ele><time>2026-04-17T10:22:41Z</time></trkpt><trkpt lat="14.40185241658619" lon="120.91759992497015"><ele>19.0</ele><time>2026-04-17T10:22:42Z</time></trkpt><trkpt lat="14.401695831178193" lon="120.91759241543376"><ele>19.0</ele><time>2026-04-17T10:22:43Z</time></trkpt><trkpt lat="14.401545814941835" lon="120.9175788679949"><ele>19.0</ele><time>2026-04-17T10:22:44Z</time></trkpt><trkpt lat="14.401406847565898" lon="120.91755057536292"><ele>19.0</ele><time>2026-04-17T10:22:45Z</time></trkpt><trkpt lat="14.401283558805533" lon="120.91750875961885"><ele>19.0</ele><time>2026-04-17T10:22:46Z</time></trkpt><trkpt lat="14.401164943170112" lon="120.91746305600618"><ele>19.75</ele><time>2026-04-17T10:22:47Z</time></trkpt><trkpt lat="14.40103700583824" lon="120.9174224720193"><ele>20.5</ele><time>2026-04-17T10:22:48Z</time></trkpt><trkpt lat="14.400901354134094" lon="120.91742782078755"><ele>21.25</ele><time>2026-04-17T10:22:49Z</time></trkpt><trkpt lat="14.400814485947151" lon="120.91742685291656"><ele>22.0</ele><time>2026-04-17T10:22:50Z</time></trkpt><trkpt lat="14.400698077316473" lon="120.91745295765439"><ele>22.0</ele><time>2026-04-17T10:22:51Z</time></trkpt><trkpt lat="14.400579085873533" lon="120.91749379745042"><ele>22.0</ele><time>2026-04-17T10:22:52Z</time></trkpt><trkpt lat="14.400453275838162" lon="120.91752730834025"><ele>22.0</ele><time>2026-04-17T10:22:53Z</time></trkpt><trkpt lat="14.400313084276139" lon="120.91755004353872"><ele>22.0</ele><time>2026-04-17T10:22:54Z</time></trkpt><trkpt lat="14.400171849745188" lon="120.91756648797383"><ele>21.333333333333332</ele><time>2026-04-17T10:22:55Z</time></trkpt><trkpt lat="14.400026192189923" lon="120.91758536776021"><ele>20.666666666666668</ele><time>2026-04-17T10:22:56Z</time></trkpt><trkpt lat="14.399870246918015" lon="120.91759448342845"><ele>20.0</ele><time>2026-04-17T10:22:57Z</time></trkpt><trkpt lat="14.399717827983743" lon="120.91761179415808"><ele>19.666666666666668</ele><time>2026-04-17T10:22:58Z</time></trkpt><trkpt lat="14.399555726762872" lon="120.91762531719708"><ele>19.333333333333332</ele><time>2026-04-17T10:22:59Z</time></trkpt><trkpt lat="14.399394479876486" lon="120.91764260758973"><ele>19.0</ele><time>2026-04-17T10:23:00Z</time></trkpt><trkpt lat="14.399227201970643" lon="120.91765771857352"><ele>19.0</ele><time>2026-04-17T10:23:01Z</time></trkpt><trkpt lat="14.39905628402757" lon="120.91767302121157"><ele>19.0</ele><time>2026-04-17T10:23:02Z</time></trkpt><trkpt lat="14.398884985590344" lon="120.91768403745296"><ele>19.0</ele><time>2026-04-17T10:23:03Z</time></trkpt><trkpt lat="14.39871440212056" lon="120.91769051538333"><ele>19.666666666666664</ele><time>2026-04-17T10:23:04Z</time></trkpt><trkpt lat="14.398543163424439" lon="120.91769821287218"><ele>20.333333333333332</ele><time>2026-04-17T10:23:05Z</time></trkpt><trkpt lat="14.398392049650647" lon="120.9176978368385"><ele>21.0</ele><time>2026-04-17T10:23:06Z</time></trkpt><trkpt lat="14.398246094135935" lon="120.91769665591303"><ele>21.0</ele><time>2026-04-17T10:23:07Z</time></trkpt><trkpt lat="14.398102792632077" lon="120.91770102687839"><ele>21.0</ele><time>2026-04-17T10:23:08Z</time></trkpt><trkpt lat="14.397963194157992" lon="120.9176950535295"><ele>21.0</ele><time>2026-04-17T10:23:09Z</time></trkpt><trkpt lat="14.397843179378162" lon="120.91769509849286"><ele>21.0</ele><time>2026-04-17T10:23:10Z</time></trkpt><trkpt lat="14.397727162129" lon="120.91769558468216"><ele>21.0</ele><time>2026-04-17T10:23:11Z</time></trkpt><trkpt lat="14.397614486091722" lon="120.91769663986614"><ele>21.0</ele><time>2026-04-17T10:23:12Z</time></trkpt><trkpt lat="14.397493633340067" lon="120.9176945593973"><ele>21.0</ele><time>2026-04-17T10:23:13Z</time></trkpt><trkpt lat="14.397361450001503" lon="120.91769464406075"><ele>21.0</ele><time>2026-04-17T10:23:14Z</time></trkpt><trkpt lat="14.397238795469008" lon="120.9176941477098"><ele>21.0</ele><time>2026-04-17T10:23:15Z</time></trkpt><trkpt lat="14.39710675323137" lon="120.91769398469138"><ele>21.0</ele><time>2026-04-17T10:23:16Z</time></trkpt><trkpt lat="14.396974419027035" lon="120.91769361850862"><ele>21.0</ele><time>2026-04-17T10:23:17Z</time></trkpt><trkpt lat="14.396829501475784" lon="120.91769202918123"><ele>21.0</ele><time>2026-04-17T10:23:18Z</time></trkpt><trkpt lat="14.396686555552895" lon="120.91769131826833"><ele>21.0</ele><time>2026-04-17T10:23:19Z</time></trkpt><trkpt lat="14.39654644561957" lon="120.91768605291982"><ele>21.0</ele><time>2026-04-17T10:23:20Z</time></trkpt><trkpt lat="14.396425345157809" lon="120.91767559148597"><ele>21.0</ele><time>2026-04-17T10:23:21Z</time></trkpt><trkpt lat="14.396307998743495" lon="120.91766740454024"><ele>21.0</ele><time>2026-04-17T10:23:22Z</time></trkpt><trkpt lat="14.396196338429444" lon="120.91766501353612"><ele>21.0</ele><time>2026-04-17T10:23:23Z</time></trkpt><trkpt lat="14.396070628753717" lon="120.91767650303164"><ele>21.0</ele><time>2026-04-17T10:23:24Z</time></trkpt><trkpt lat="14.395961497076698" lon="120.91768113781481"><ele>21.0</ele><time>2026-04-17T10:23:25Z</time></trkpt><trkpt lat="14.395848047575866" lon="120.91768401761"><ele>21.0</ele><time>2026-04-17T10:23:26Z</time></trkpt><trkpt lat="14.39572636470683" lon="120.91769069177266"><ele>21.0</ele><time>2026-04-17T10:23:27Z</time></trkpt><trkpt lat="14.395615783103302" lon="120.91769665625401"><ele>21.0</ele><time>2026-04-17T10:23:28Z</time></trkpt><trkpt lat="14.395511014488987" lon="120.91770436386386"><ele>21.0</ele><time>2026-04-17T10:23:29Z</time></trkpt><trkpt lat="14.395397190374865" lon="120.91770882656174"><ele>21.0</ele><time>2026-04-17T10:23:30Z</time></trkpt><trkpt lat="14.39527078686472" lon="120.91771594608788"><ele>21.25</ele><time>2026-04-17T10:23:31Z</time></trkpt><trkpt lat="14.39513953748524" lon="120.9177237329456"><ele>21.5</ele><time>2026-04-17T10:23:32Z</time></trkpt><trkpt lat="14.394994134418313" lon="120.91773167032622"><ele>21.75</ele><time>2026-04-17T10:23:33Z</time></trkpt><trkpt lat="14.394838437444545" lon="120.91773407350306"><ele>22.0</ele><time>2026-04-17T10:23:34Z</time></trkpt><trkpt lat="14.394674499035446" lon="120.91773881516792"><ele>21.666666666666664</ele><time>2026-04-17T10:23:35Z</time></trkpt><trkpt lat="14.394500928729858" lon="120.91774291457854"><ele>21.333333333333332</ele><time>2026-04-17T10:23:36Z</time></trkpt><trkpt lat="14.394342053192164" lon="120.91774720326774"><ele>21.0</ele><time>2026-04-17T10:23:37Z</time></trkpt><trkpt lat="14.394184978164647" lon="120.9177493076122"><ele>21.0</ele><time>2026-04-17T10:23:38Z</time></trkpt><trkpt lat="14.39402840869227" lon="120.91775024149918"><ele>21.0</ele><time>2026-04-17T10:23:39Z</time></trkpt><trkpt lat="14.393882836776433" lon="120.9177580892441"><ele>21.0</ele><time>2026-04-17T10:23:40Z</time></trkpt><trkpt lat="14.393725214702553" lon="120.9177671832681"><ele>21.25</ele><time>2026-04-17T10:23:41Z</time></trkpt><trkpt lat="14.393581994198108" lon="120.91777473619278"><ele>21.5</ele><time>2026-04-17T10:23:42Z</time></trkpt><trkpt lat="14.39343465206252" lon="120.91777988200438"><ele>21.75</ele><time>2026-04-17T10:23:43Z</time></trkpt><trkpt lat="14.393284673329642" lon="120.91777968113597"><ele>22.0</ele><time>2026-04-17T10:23:44Z</time></trkpt><trkpt lat="14.393131541630362" lon="120.91778248169622"><ele>22.666666666666664</ele><time>2026-04-17T10:23:45Z</time></trkpt><trkpt lat="14.39297217628405" lon="120.91778723114237"><ele>23.333333333333332</ele><time>2026-04-17T10:23:46Z</time></trkpt><trkpt lat="14.392818453616272" lon="120.91779397352782"><ele>24.0</ele><time>2026-04-17T10:23:47Z</time></trkpt><trkpt lat="14.392658032927677" lon="120.91780336656763"><ele>24.0</ele><time>2026-04-17T10:23:48Z</time></trkpt><trkpt lat="14.392486758833224" lon="120.91781131135873"><ele>24.0</ele><time>2026-04-17T10:23:49Z</time></trkpt><trkpt lat="14.392320138305564" lon="120.91781462969603"><ele>24.0</ele><time>2026-04-17T10:23:50Z</time></trkpt><trkpt lat="14.392158876688272" lon="120.917820522042"><ele>23.75</ele><time>2026-04-17T10:23:51Z</time></trkpt><trkpt lat="14.392002071947902" lon="120.91782662482333"><ele>23.5</ele><time>2026-04-17T10:23:52Z</time></trkpt><trkpt lat="14.391863276271357" lon="120.91782925139779"><ele>23.25</ele><time>2026-04-17T10:23:53Z</time></trkpt><trkpt lat="14.391726160008457" lon="120.91783461782114"><ele>23.0</ele><time>2026-04-17T10:23:54Z</time></trkpt><trkpt lat="14.391602088609885" lon="120.9178433102912"><ele>23.0</ele><time>2026-04-17T10:23:55Z</time></trkpt><trkpt lat="14.391470784837061" lon="120.91786707680689"><ele>23.0</ele><time>2026-04-17T10:23:56Z</time></trkpt><trkpt lat="14.391338988951281" lon="120.91790791643695"><ele>23.0</ele><time>2026-04-17T10:23:57Z</time></trkpt><trkpt lat="14.391210459270537" lon="120.91795664939742"><ele>23.0</ele><time>2026-04-17T10:23:58Z</time></trkpt><trkpt lat="14.391073231864436" lon="120.91801136985598"><ele>23.25</ele><time>2026-04-17T10:23:59Z</time></trkpt><trkpt lat="14.390937419273747" lon="120.91806768627396"><ele>23.5</ele><time>2026-04-17T10:24:00Z</time></trkpt><trkpt lat="14.39081821300366" lon="120.91811546014017"><ele>23.75</ele><time>2026-04-17T10:24:01Z</time></trkpt><trkpt lat="14.390706317628107" lon="120.91815943788717"><ele>24.0</ele><time>2026-04-17T10:24:02Z</time></trkpt><trkpt lat="14.390610628602817" lon="120.91820436152145"><ele>24.0</ele><time>2026-04-17T10:24:03Z</time></trkpt><trkpt lat="14.390510886262293" lon="120.91826102027036"><ele>24.0</ele><time>2026-04-17T10:24:04Z</time></trkpt><trkpt lat="14.390423774575263" lon="120.91833178160165"><ele>24.0</ele><time>2026-04-17T10:24:05.001Z</time></trkpt><trkpt lat="14.390338634658455" lon="120.9184144018268"><ele>24.0</ele><time>2026-04-17T10:24:06.001Z</time></trkpt><trkpt lat="14.39024961011696" lon="120.91849929929752"><ele>24.0</ele><time>2026-04-17T10:24:07.001Z</time></trkpt><trkpt lat="14.390151759002672" lon="120.91858384642349"><ele>24.0</ele><time>2026-04-17T10:24:08.001Z</time></trkpt><trkpt lat="14.390065878662725" lon="120.9186511041342"><ele>24.0</ele><time>2026-04-17T10:24:09.001Z</time></trkpt><trkpt lat="14.389979677335777" lon="120.9187130465226"><ele>24.0</ele><time>2026-04-17T10:24:10.001Z</time></trkpt><trkpt lat="14.389893880915768" lon="120.91875627341588"><ele>24.0</ele><time>2026-04-17T10:24:11.001Z</time></trkpt><trkpt lat="14.389796723844244" lon="120.91877766746653"><ele>24.0</ele><time>2026-04-17T10:24:12.001Z</time></trkpt><trkpt lat="14.389689732808256" lon="120.91878590413498"><ele>24.0</ele><time>2026-04-17T10:24:13.001Z</time></trkpt><trkpt lat="14.389573910645808" lon="120.91879076728341"><ele>24.0</ele><time>2026-04-17T10:24:14.001Z</time></trkpt><trkpt lat="14.389452700307329" lon="120.91880311917"><ele>24.0</ele><time>2026-04-17T10:24:15.001Z</time></trkpt><trkpt lat="14.389322206570295" lon="120.91881882253317"><ele>24.0</ele><time>2026-04-17T10:24:16.001Z</time></trkpt><trkpt lat="14.389196128014994" lon="120.91882977013802"><ele>24.0</ele><time>2026-04-17T10:24:17.001Z</time></trkpt><trkpt lat="14.38906305046179" lon="120.91884323680829"><ele>24.0</ele><time>2026-04-17T10:24:18.001Z</time></trkpt><trkpt lat="14.388916382072003" lon="120.91885485005258"><ele>24.0</ele><time>2026-04-17T10:24:19.001Z</time></trkpt><trkpt lat="14.38877243040504" lon="120.91885581772102"><ele>24.25</ele><time>2026-04-17T10:24:20.001Z</time></trkpt><trkpt lat="14.388634097634359" lon="120.9188495093302"><ele>24.5</ele><time>2026-04-17T10:24:21.001Z</time></trkpt><trkpt lat="14.388490569945175" lon="120.91883910387959"><ele>24.75</ele><time>2026-04-17T10:24:22.001Z</time></trkpt><trkpt lat="14.388347782778093" lon="120.918822131011"><ele>25.0</ele><time>2026-04-17T10:24:23.001Z</time></trkpt><trkpt lat="14.388221106662467" lon="120.9187982605308"><ele>25.0</ele><time>2026-04-17T10:24:24.001Z</time></trkpt><trkpt lat="14.388084867275055" lon="120.91878149046944"><ele>25.0</ele><time>2026-04-17T10:24:25.001Z</time></trkpt><trkpt lat="14.387951791258782" lon="120.91878160875707"><ele>25.0</ele><time>2026-04-17T10:24:26.001Z</time></trkpt><trkpt lat="14.387808853721566" lon="120.9187925063369"><ele>25.0</ele><time>2026-04-17T10:24:27.001Z</time></trkpt><trkpt lat="14.387661055320914" lon="120.91880195766952"><ele>24.5</ele><time>2026-04-17T10:24:28Z</time></trkpt><trkpt lat="14.387518560723969" lon="120.91880940847147"><ele>24.0</ele><time>2026-04-17T10:24:29Z</time></trkpt><trkpt lat="14.387371652179382" lon="120.91881555700408"><ele>23.5</ele><time>2026-04-17T10:24:30Z</time></trkpt><trkpt lat="14.387223609132572" lon="120.91882343143409"><ele>23.0</ele><time>2026-04-17T10:24:31Z</time></trkpt><trkpt lat="14.387069566511624" lon="120.91883197220706"><ele>24.0</ele><time>2026-04-17T10:24:32Z</time></trkpt><trkpt lat="14.386935557010434" lon="120.91884389291377"><ele>25.0</ele><time>2026-04-17T10:24:33Z</time></trkpt><trkpt lat="14.386809006347969" lon="120.91885515284618"><ele>26.0</ele><time>2026-04-17T10:24:34Z</time></trkpt><trkpt lat="14.386695207483886" lon="120.9188625555718"><ele>27.0</ele><time>2026-04-17T10:24:35Z</time></trkpt><trkpt lat="14.38658708873568" lon="120.91885353806393"><ele>27.0</ele><time>2026-04-17T10:24:36Z</time></trkpt><trkpt lat="14.386486674767609" lon="120.91882111730794"><ele>27.0</ele><time>2026-04-17T10:24:37Z</time></trkpt><trkpt lat="14.386382920517947" lon="120.91876394501448"><ele>27.0</ele><time>2026-04-17T10:24:38Z</time></trkpt><trkpt lat="14.38629552793881" lon="120.91868876188695"><ele>27.0</ele><time>2026-04-17T10:24:39Z</time></trkpt><trkpt lat="14.386213355570685" lon="120.91860158415805"><ele>27.0</ele><time>2026-04-17T10:24:40Z</time></trkpt><trkpt lat="14.386129910642797" lon="120.91850089920004"><ele>27.0</ele><time>2026-04-17T10:24:41Z</time></trkpt><trkpt lat="14.386042205824555" lon="120.91839779414133"><ele>27.0</ele><time>2026-04-17T10:24:42Z</time></trkpt><trkpt lat="14.385959619894995" lon="120.91831061433683"><ele>27.0</ele><time>2026-04-17T10:24:43Z</time></trkpt><trkpt lat="14.38588622156095" lon="120.91822968153707"><ele>27.0</ele><time>2026-04-17T10:24:44Z</time></trkpt><trkpt lat="14.385815021192768" lon="120.91814361294296"><ele>27.000000000000004</ele><time>2026-04-17T10:24:45Z</time></trkpt><trkpt lat="14.38573801874273" lon="120.91806674245436"><ele>27.000000000000004</ele><time>2026-04-17T10:24:46Z</time></trkpt><trkpt lat="14.385656208545466" lon="120.91798814988083"><ele>27.0</ele><time>2026-04-17T10:24:47Z</time></trkpt><trkpt lat="14.385572439068815" lon="120.91790908762506"><ele>27.0</ele><time>2026-04-17T10:24:48Z</time></trkpt><trkpt lat="14.38549187453189" lon="120.91782318114028"><ele>27.0</ele><time>2026-04-17T10:24:49Z</time></trkpt><trkpt lat="14.385404269860434" lon="120.91772371879779"><ele>27.0</ele><time>2026-04-17T10:24:50Z</time></trkpt><trkpt lat="14.385322162065812" lon="120.9176299236911"><ele>27.0</ele><time>2026-04-17T10:24:51Z</time></trkpt><trkpt lat="14.385236412429549" lon="120.91752652873238"><ele>27.0</ele><time>2026-04-17T10:24:52Z</time></trkpt><trkpt lat="14.385158128428632" lon="120.91742628392531"><ele>27.25</ele><time>2026-04-17T10:24:53Z</time></trkpt><trkpt lat="14.38507142071897" lon="120.91731829443727"><ele>27.5</ele><time>2026-04-17T10:24:54Z</time></trkpt><trkpt lat="14.384988710182634" lon="120.91721710976435"><ele>27.75</ele><time>2026-04-17T10:24:55Z</time></trkpt><trkpt lat="14.384901125120717" lon="120.91711265332714"><ele>28.0</ele><time>2026-04-17T10:24:56Z</time></trkpt><trkpt lat="14.384817246786719" lon="120.9170109058251"><ele>28.0</ele><time>2026-04-17T10:24:57Z</time></trkpt><trkpt lat="14.38473365071858" lon="120.91690425830622"><ele>28.0</ele><time>2026-04-17T10:24:58Z</time></trkpt><trkpt lat="14.38465135456532" lon="120.91680267001662"><ele>28.0</ele><time>2026-04-17T10:24:59Z</time></trkpt><trkpt lat="14.38457326125101" lon="120.91670094834629"><ele>28.0</ele><time>2026-04-17T10:25:00Z</time></trkpt><trkpt lat="14.384510920753877" lon="120.91659913011576"><ele>28.599999999999998</ele><time>2026-04-17T10:25:01Z</time></trkpt><trkpt lat="14.384461710473051" lon="120.91650938945703"><ele>29.199999999999996</ele><time>2026-04-17T10:25:02Z</time></trkpt><trkpt lat="14.38441216512777" lon="120.91641998335507"><ele>29.8</ele><time>2026-04-17T10:25:03Z</time></trkpt><trkpt lat="14.384360655200231" lon="120.91633969494416"><ele>30.4</ele><time>2026-04-17T10:25:04Z</time></trkpt><trkpt lat="14.384303938401167" lon="120.91626544798072"><ele>31.0</ele><time>2026-04-17T10:25:05Z</time></trkpt><trkpt lat="14.38424256062947" lon="120.91620587976459"><ele>31.000000000000004</ele><time>2026-04-17T10:25:06Z</time></trkpt><trkpt lat="14.384175642302242" lon="120.91616123755286"><ele>31.0</ele><time>2026-04-17T10:25:07Z</time></trkpt><trkpt lat="14.384095684824574" lon="120.91612697677151"><ele>31.0</ele><time>2026-04-17T10:25:08Z</time></trkpt><trkpt lat="14.384010176080563" lon="120.91611388108961"><ele>31.0</ele><time>2026-04-17T10:25:09Z</time></trkpt><trkpt lat="14.383926754841017" lon="120.91615254304966"><ele>31.000000000000004</ele><time>2026-04-17T10:25:10Z</time></trkpt><trkpt lat="14.383838115413093" lon="120.91616237374814"><ele>31.0</ele><time>2026-04-17T10:25:11Z</time></trkpt><trkpt lat="14.383752170902328" lon="120.91617092259769"><ele>30.833333333333336</ele><time>2026-04-17T10:25:12Z</time></trkpt><trkpt lat="14.383679510244509" lon="120.91617673544566"><ele>30.666666666666668</ele><time>2026-04-17T10:25:13Z</time></trkpt><trkpt lat="14.383610433652303" lon="120.91617444598396"><ele>30.5</ele><time>2026-04-17T10:25:14Z</time></trkpt><trkpt lat="14.383532267285654" lon="120.91617257349657"><ele>30.333333333333336</ele><time>2026-04-17T10:25:16Z</time></trkpt><trkpt lat="14.383467483753062" lon="120.91617102160032"><ele>30.166666666666668</ele><time>2026-04-17T10:25:40Z</time></trkpt><trkpt lat="14.383353778738057" lon="120.91616829777934"><ele>30.0</ele><time>2026-04-17T10:25:42Z</time></trkpt><trkpt lat="14.38327819800693" lon="120.91616655162159"><ele>30.0</ele><time>2026-04-17T10:25:43Z</time></trkpt><trkpt lat="14.383191306207657" lon="120.91616481465189"><ele>30.0</ele><time>2026-04-17T10:25:44Z</time></trkpt><trkpt lat="14.383093361021782" lon="120.9161457585982"><ele>30.0</ele><time>2026-04-17T10:25:45Z</time></trkpt><trkpt lat="14.382959491001746" lon="120.91616018066797"><ele>30.0</ele><time>2026-04-17T10:25:47Z</time></trkpt><trkpt lat="14.382849503784298" lon="120.91614668647587"><ele>30.0</ele><time>2026-04-17T10:25:48Z</time></trkpt><trkpt lat="14.382730272317819" lon="120.91615022372605"><ele>30.0</ele><time>2026-04-17T10:25:49Z</time></trkpt><trkpt lat="14.38260447349297" lon="120.91615904657702"><ele>30.0</ele><time>2026-04-17T10:25:50Z</time></trkpt><trkpt lat="14.382472324611834" lon="120.91616717287594"><ele>30.0</ele><time>2026-04-17T10:25:51Z</time></trkpt><trkpt lat="14.382337444665396" lon="120.9161794413419"><ele>30.0</ele><time>2026-04-17T10:25:52Z</time></trkpt><trkpt lat="14.382194573985357" lon="120.9161917617309"><ele>30.25</ele><time>2026-04-17T10:25:53Z</time></trkpt><trkpt lat="14.382054723682492" lon="120.9162043278281"><ele>30.5</ele><time>2026-04-17T10:25:54Z</time></trkpt><trkpt lat="14.381919670935048" lon="120.91621597870859"><ele>30.75</ele><time>2026-04-17T10:25:55Z</time></trkpt><trkpt lat="14.381796172483126" lon="120.9162263290199"><ele>31.0</ele><time>2026-04-17T10:25:56Z</time></trkpt><trkpt lat="14.381680178732807" lon="120.91623628878321"><ele>31.0</ele><time>2026-04-17T10:25:57Z</time></trkpt><trkpt lat="14.381574144009633" lon="120.91624572130917"><ele>31.0</ele><time>2026-04-17T10:25:58Z</time></trkpt><trkpt lat="14.381473831947513" lon="120.91625657717614"><ele>31.0</ele><time>2026-04-17T10:25:59Z</time></trkpt><trkpt lat="14.381382086648296" lon="120.9162649016113"><ele>31.0</ele><time>2026-04-17T10:26:00Z</time></trkpt><trkpt lat="14.381304384054273" lon="120.91627440173067"><ele>31.0</ele><time>2026-04-17T10:26:01Z</time></trkpt><trkpt lat="14.381231100649869" lon="120.91627955028468"><ele>31.0</ele><time>2026-04-17T10:26:02Z</time></trkpt><trkpt lat="14.381155227411655" lon="120.91627692522307"><ele>31.0</ele><time>2026-04-17T10:26:03Z</time></trkpt><trkpt lat="14.381066751010984" lon="120.91627910798131"><ele>31.0</ele><time>2026-04-17T10:26:04Z</time></trkpt><trkpt lat="14.380969891261907" lon="120.91628788683774"><ele>31.0</ele><time>2026-04-17T10:26:05Z</time></trkpt><trkpt lat="14.380864194238415" lon="120.91629982391188"><ele>31.0</ele><time>2026-04-17T10:26:06Z</time></trkpt><trkpt lat="14.38074612428414" lon="120.91630717211207"><ele>31.0</ele><time>2026-04-17T10:26:07Z</time></trkpt><trkpt lat="14.3806232367165" lon="120.91631742974171"><ele>31.0</ele><time>2026-04-17T10:26:08Z</time></trkpt><trkpt lat="14.380493990459742" lon="120.91631989968496"><ele>31.0</ele><time>2026-04-17T10:26:09Z</time></trkpt><trkpt lat="14.380359706285123" lon="120.91633514923534"><ele>31.0</ele><time>2026-04-17T10:26:10Z</time></trkpt><trkpt lat="14.380217660668334" lon="120.91633992431393"><ele>31.5</ele><time>2026-04-17T10:26:11Z</time></trkpt><trkpt lat="14.380074312026498" lon="120.91635028262674"><ele>32.0</ele><time>2026-04-17T10:26:12Z</time></trkpt><trkpt lat="14.379926694375278" lon="120.91635893188459"><ele>32.5</ele><time>2026-04-17T10:26:13Z</time></trkpt><trkpt lat="14.379773870718784" lon="120.91636481428829"><ele>33.0</ele><time>2026-04-17T10:26:14Z</time></trkpt><trkpt lat="14.37962356848265" lon="120.91637993620944"><ele>33.75</ele><time>2026-04-17T10:26:15Z</time></trkpt><trkpt lat="14.379473144901977" lon="120.91639040637043"><ele>34.5</ele><time>2026-04-17T10:26:16Z</time></trkpt><trkpt lat="14.379325885599522" lon="120.91640172175275"><ele>35.25</ele><time>2026-04-17T10:26:17Z</time></trkpt><trkpt lat="14.379180403329919" lon="120.91641358157531"><ele>36.0</ele><time>2026-04-17T10:26:18Z</time></trkpt><trkpt lat="14.379044387847307" lon="120.91643289758451"><ele>36.0</ele><time>2026-04-17T10:26:19Z</time></trkpt><trkpt lat="14.378909788747452" lon="120.91644943163881"><ele>36.0</ele><time>2026-04-17T10:26:20Z</time></trkpt><trkpt lat="14.378785923344758" lon="120.91647511716468"><ele>36.0</ele><time>2026-04-17T10:26:21Z</time></trkpt><trkpt lat="14.378661496192805" lon="120.91650250213414"><ele>36.0</ele><time>2026-04-17T10:26:22Z</time></trkpt><trkpt lat="14.378532410103032" lon="120.91653258389917"><ele>35.0</ele><time>2026-04-17T10:26:23Z</time></trkpt><trkpt lat="14.378387760518468" lon="120.91656983704101"><ele>34.0</ele><time>2026-04-17T10:26:24Z</time></trkpt><trkpt lat="14.378244902075457" lon="120.916619226725"><ele>33.0</ele><time>2026-04-17T10:26:25Z</time></trkpt><trkpt lat="14.378099079663457" lon="120.91667516109788"><ele>33.0</ele><time>2026-04-17T10:26:26Z</time></trkpt><trkpt lat="14.37794845966581" lon="120.91674234234232"><ele>33.0</ele><time>2026-04-17T10:26:27Z</time></trkpt><trkpt lat="14.37780111581046" lon="120.91681233586777"><ele>33.0</ele><time>2026-04-17T10:26:28Z</time></trkpt><trkpt lat="14.377658666057876" lon="120.91688385018797"><ele>33.0</ele><time>2026-04-17T10:26:29Z</time></trkpt><trkpt lat="14.377520889168073" lon="120.91695220409117"><ele>33.0</ele><time>2026-04-17T10:26:30Z</time></trkpt><trkpt lat="14.37739033622919" lon="120.91701815275688"><ele>33.0</ele><time>2026-04-17T10:26:31Z</time></trkpt><trkpt lat="14.377263598366754" lon="120.91709271636456"><ele>33.0</ele><time>2026-04-17T10:26:32Z</time></trkpt><trkpt lat="14.377149543395833" lon="120.9171613847925"><ele>33.5</ele><time>2026-04-17T10:26:33Z</time></trkpt><trkpt lat="14.37704791005738" lon="120.91722821595428"><ele>34.0</ele><time>2026-04-17T10:26:34Z</time></trkpt><trkpt lat="14.376939382733385" lon="120.91730235025355"><ele>34.5</ele><time>2026-04-17T10:26:35Z</time></trkpt><trkpt lat="14.3768448975126" lon="120.91736917087343"><ele>35.0</ele><time>2026-04-17T10:26:36Z</time></trkpt><trkpt lat="14.376737294461972" lon="120.91744734879425"><ele>35.0</ele><time>2026-04-17T10:26:37Z</time></trkpt><trkpt lat="14.376636256686194" lon="120.91752023299739"><ele>35.0</ele><time>2026-04-17T10:26:38Z</time></trkpt><trkpt lat="14.376531888038103" lon="120.91759238954663"><ele>35.0</ele><time>2026-04-17T10:26:39Z</time></trkpt><trkpt lat="14.376417586820422" lon="120.91765826571353"><ele>35.0</ele><time>2026-04-17T10:26:40Z</time></trkpt><trkpt lat="14.376298315730033" lon="120.91771355641059"><ele>34.75</ele><time>2026-04-17T10:26:41Z</time></trkpt><trkpt lat="14.37617485852379" lon="120.91776169289291"><ele>34.5</ele><time>2026-04-17T10:26:42Z</time></trkpt><trkpt lat="14.376047044352239" lon="120.91780754221831"><ele>34.25</ele><time>2026-04-17T10:26:43Z</time></trkpt><trkpt lat="14.375937104470124" lon="120.91784619831037"><ele>34.0</ele><time>2026-04-17T10:26:44Z</time></trkpt><trkpt lat="14.375825581569785" lon="120.91790057714266"><ele>34.0</ele><time>2026-04-17T10:26:45Z</time></trkpt><trkpt lat="14.375706332297218" lon="120.91797492068014"><ele>34.0</ele><time>2026-04-17T10:26:46Z</time></trkpt><trkpt lat="14.375596926843762" lon="120.91798319950887"><ele>34.0</ele><time>2026-04-17T10:26:47Z</time></trkpt><trkpt lat="14.375478009192102" lon="120.91800045821375"><ele>34.0</ele><time>2026-04-17T10:26:48Z</time></trkpt><trkpt lat="14.37535269210133" lon="120.91802726059207"><ele>34.5</ele><time>2026-04-17T10:26:49Z</time></trkpt><trkpt lat="14.375225245923648" lon="120.91805960161231"><ele>35.0</ele><time>2026-04-17T10:26:50Z</time></trkpt><trkpt lat="14.375088825202706" lon="120.91809368651779"><ele>35.5</ele><time>2026-04-17T10:26:51Z</time></trkpt><trkpt lat="14.374952022948873" lon="120.91812495207463"><ele>36.0</ele><time>2026-04-17T10:26:52Z</time></trkpt><trkpt lat="14.374813055379107" lon="120.91815229099636"><ele>35.75</ele><time>2026-04-17T10:26:53Z</time></trkpt><trkpt lat="14.37467445046469" lon="120.91818457223678"><ele>35.5</ele><time>2026-04-17T10:26:54Z</time></trkpt><trkpt lat="14.374532388504065" lon="120.91821483142223"><ele>35.25</ele><time>2026-04-17T10:26:55Z</time></trkpt><trkpt lat="14.374387880886717" lon="120.91824325106727"><ele>35.0</ele><time>2026-04-17T10:26:56Z</time></trkpt><trkpt lat="14.37424386722363" lon="120.91826976208483"><ele>35.0</ele><time>2026-04-17T10:26:57Z</time></trkpt><trkpt lat="14.374093847834123" lon="120.91829622838407"><ele>35.0</ele><time>2026-04-17T10:26:58Z</time></trkpt><trkpt lat="14.373941438905835" lon="120.91832267272581"><ele>35.0</ele><time>2026-04-17T10:26:59Z</time></trkpt><trkpt lat="14.373785376570735" lon="120.91834636462872"><ele>35.0</ele><time>2026-04-17T10:27:00Z</time></trkpt><trkpt lat="14.37362656931369" lon="120.9183768158379"><ele>35.0</ele><time>2026-04-17T10:27:01Z</time></trkpt><trkpt lat="14.373469326642315" lon="120.9184013005586"><ele>35.0</ele><time>2026-04-17T10:27:02Z</time></trkpt><trkpt lat="14.373311620139562" lon="120.91842208454648"><ele>35.0</ele><time>2026-04-17T10:27:03Z</time></trkpt><trkpt lat="14.373154005955573" lon="120.91843393531472"><ele>35.0</ele><time>2026-04-17T10:27:04Z</time></trkpt><trkpt lat="14.373008429284189" lon="120.91844657381822"><ele>35.0</ele><time>2026-04-17T10:27:05Z</time></trkpt><trkpt lat="14.372875744087406" lon="120.91845870033396"><ele>35.0</ele><time>2026-04-17T10:27:06Z</time></trkpt><trkpt lat="14.372746294353647" lon="120.91846850773815"><ele>35.0</ele><time>2026-04-17T10:27:07Z</time></trkpt><trkpt lat="14.372614498677486" lon="120.91847929113429"><ele>35.0</ele><time>2026-04-17T10:27:08Z</time></trkpt><trkpt lat="14.372486609950771" lon="120.91849383938096"><ele>35.0</ele><time>2026-04-17T10:27:09Z</time></trkpt><trkpt lat="14.372350606561781" lon="120.91850751336578"><ele>35.0</ele><time>2026-04-17T10:27:10Z</time></trkpt><trkpt lat="14.372214197749404" lon="120.91851695976469"><ele>35.0</ele><time>2026-04-17T10:27:11Z</time></trkpt><trkpt lat="14.372079218604178" lon="120.91852666055338"><ele>35.0</ele><time>2026-04-17T10:27:12Z</time></trkpt><trkpt lat="14.371944311859187" lon="120.91854291054231"><ele>35.0</ele><time>2026-04-17T10:27:13Z</time></trkpt><trkpt lat="14.371825796177779" lon="120.91855570617398"><ele>35.0</ele><time>2026-04-17T10:27:14Z</time></trkpt><trkpt lat="14.37169042267414" lon="120.91856887592161"><ele>35.0</ele><time>2026-04-17T10:27:15Z</time></trkpt><trkpt lat="14.371556113167687" lon="120.91857889976437"><ele>35.0</ele><time>2026-04-17T10:27:16Z</time></trkpt><trkpt lat="14.371420896697135" lon="120.91858717310377"><ele>35.0</ele><time>2026-04-17T10:27:17Z</time></trkpt><trkpt lat="14.371294866290938" lon="120.91858396667433"><ele>35.0</ele><time>2026-04-17T10:27:18Z</time></trkpt><trkpt lat="14.371188068184289" lon="120.91857568028745"><ele>35.6</ele><time>2026-04-17T10:27:19Z</time></trkpt><trkpt lat="14.371083208421883" lon="120.91856196312973"><ele>36.2</ele><time>2026-04-17T10:27:20Z</time></trkpt><trkpt lat="14.370972233277653" lon="120.91855038369141"><ele>36.8</ele><time>2026-04-17T10:27:21Z</time></trkpt><trkpt lat="14.370859025790317" lon="120.91855179152478"><ele>37.4</ele><time>2026-04-17T10:27:22Z</time></trkpt><trkpt lat="14.370742094505273" lon="120.91856813558574"><ele>38.0</ele><time>2026-04-17T10:27:23Z</time></trkpt><trkpt lat="14.37062454583135" lon="120.91858935008473"><ele>37.75</ele><time>2026-04-17T10:27:24Z</time></trkpt><trkpt lat="14.37048923758767" lon="120.91860758938212"><ele>37.5</ele><time>2026-04-17T10:27:25Z</time></trkpt><trkpt lat="14.37035873358784" lon="120.91862854403908"><ele>37.25</ele><time>2026-04-17T10:27:26Z</time></trkpt><trkpt lat="14.370234029046886" lon="120.9186461622644"><ele>37.0</ele><time>2026-04-17T10:27:27Z</time></trkpt><trkpt lat="14.370112090428142" lon="120.91866708184962"><ele>37.0</ele><time>2026-04-17T10:27:28Z</time></trkpt><trkpt lat="14.369987708314797" lon="120.91869066371041"><ele>37.0</ele><time>2026-04-17T10:27:29Z</time></trkpt><trkpt lat="14.369861761796713" lon="120.91871532331025"><ele>37.0</ele><time>2026-04-17T10:27:30Z</time></trkpt><trkpt lat="14.369726299486137" lon="120.91873561437458"><ele>37.0</ele><time>2026-04-17T10:27:31Z</time></trkpt><trkpt lat="14.369583776794483" lon="120.9187533178363"><ele>38.25</ele><time>2026-04-17T10:27:32Z</time></trkpt><trkpt lat="14.36944811964767" lon="120.918768186528"><ele>39.5</ele><time>2026-04-17T10:27:33Z</time></trkpt><trkpt lat="14.369324316276856" lon="120.91878615414002"><ele>40.75</ele><time>2026-04-17T10:27:34Z</time></trkpt><trkpt lat="14.369204292208758" lon="120.91880709887901"><ele>42.0</ele><time>2026-04-17T10:27:35Z</time></trkpt><trkpt lat="14.369094224620541" lon="120.91882495968301"><ele>42.0</ele><time>2026-04-17T10:27:36Z</time></trkpt><trkpt lat="14.368998651739076" lon="120.91885681034161"><ele>42.0</ele><time>2026-04-17T10:27:37Z</time></trkpt><trkpt lat="14.368898446057539" lon="120.91887537774666"><ele>42.0</ele><time>2026-04-17T10:27:38Z</time></trkpt><trkpt lat="14.368801859943511" lon="120.91889327446479"><ele>42.0</ele><time>2026-04-17T10:27:39Z</time></trkpt><trkpt lat="14.368704778423577" lon="120.91891126297864"><ele>42.0</ele><time>2026-04-17T10:27:40Z</time></trkpt><trkpt lat="14.368608080794612" lon="120.91892910841852"><ele>42.333333333333336</ele><time>2026-04-17T10:27:41Z</time></trkpt><trkpt lat="14.368516645784277" lon="120.9189459758979"><ele>42.666666666666664</ele><time>2026-04-17T10:27:42Z</time></trkpt><trkpt lat="14.368425218027461" lon="120.91896284202892"><ele>43.0</ele><time>2026-04-17T10:27:43Z</time></trkpt><trkpt lat="14.368340084465549" lon="120.91897854704614"><ele>43.33333333333333</ele><time>2026-04-17T10:27:44Z</time></trkpt><trkpt lat="14.368264792607473" lon="120.91899243651585"><ele>43.666666666666664</ele><time>2026-04-17T10:27:45Z</time></trkpt><trkpt lat="14.36818153568259" lon="120.91900779533171"><ele>44.0</ele><time>2026-04-17T10:27:46Z</time></trkpt><trkpt lat="14.368097457621127" lon="120.91900916094824"><ele>44.0</ele><time>2026-04-17T10:27:47Z</time></trkpt><trkpt lat="14.368031417123062" lon="120.91902881614001"><ele>44.0</ele><time>2026-04-17T10:27:48Z</time></trkpt><trkpt lat="14.367918114227155" lon="120.91905871304884"><ele>44.0</ele><time>2026-04-17T10:27:50Z</time></trkpt><trkpt lat="14.367814208731657" lon="120.91908735012008"><ele>44.0</ele><time>2026-04-17T10:27:52Z</time></trkpt><trkpt lat="14.367728480159101" lon="120.91911529365733"><ele>44.0</ele><time>2026-04-17T10:27:54Z</time></trkpt><trkpt lat="14.367657491121188" lon="120.91914275068419"><ele>44.166666666666664</ele><time>2026-04-17T10:27:56Z</time></trkpt><trkpt lat="14.36759594611076" lon="120.91916202345637"><ele>44.33333333333333</ele><time>2026-04-17T10:27:58Z</time></trkpt><trkpt lat="14.367518302062171" lon="120.91917808448028"><ele>44.5</ele><time>2026-04-17T10:28:00Z</time></trkpt><trkpt lat="14.367450367570852" lon="120.91919376232136"><ele>44.666666666666664</ele><time>2026-04-17T10:28:02Z</time></trkpt><trkpt lat="14.367369281697307" lon="120.91921738717515"><ele>44.833333333333336</ele><time>2026-04-17T10:28:04Z</time></trkpt><trkpt lat="14.367296391733236" lon="120.91924002543973"><ele>45.0</ele><time>2026-04-17T10:28:06Z</time></trkpt><trkpt lat="14.367222011745609" lon="120.9192632293714"><ele>44.833333333333336</ele><time>2026-04-17T10:28:08Z</time></trkpt><trkpt lat="14.3671390692458" lon="120.9192859592483"><ele>44.666666666666664</ele><time>2026-04-17T10:28:10Z</time></trkpt><trkpt lat="14.367044390011854" lon="120.91931548802583"><ele>44.5</ele><time>2026-04-17T10:28:12Z</time></trkpt><trkpt lat="14.366962498305785" lon="120.9193388619187"><ele>44.33333333333333</ele><time>2026-04-17T10:28:14Z</time></trkpt><trkpt lat="14.366879392209515" lon="120.91937007832125"><ele>44.166666666666664</ele><time>2026-04-17T10:28:17Z</time></trkpt><trkpt lat="14.366813799335128" lon="120.91939079644922"><ele>44.0</ele><time>2026-04-17T10:28:19Z</time></trkpt><trkpt lat="14.366724046356795" lon="120.91941518438722"><ele>44.0</ele><time>2026-04-17T10:28:22Z</time></trkpt><trkpt lat="14.36664411652627" lon="120.91939593592947"><ele>44.0</ele><time>2026-04-17T10:28:24Z</time></trkpt><trkpt lat="14.366609407646049" lon="120.91932849545005"><ele>44.0</ele><time>2026-04-17T10:28:25Z</time></trkpt><trkpt lat="14.366562447505482" lon="120.91927854687606"><ele>44.0</ele><time>2026-04-17T10:28:26Z</time></trkpt><trkpt lat="14.366516587115537" lon="120.91922422804949"><ele>44.0</ele><time>2026-04-17T10:28:27Z</time></trkpt><trkpt lat="14.366470513955555" lon="120.91916304133042"><ele>44.0</ele><time>2026-04-17T10:28:28Z</time></trkpt><trkpt lat="14.366436733625662" lon="120.91908744033316"><ele>44.0</ele><time>2026-04-17T10:28:29Z</time></trkpt><trkpt lat="14.366400523689872" lon="120.91903007257352"><ele>44.0</ele><time>2026-04-17T10:28:30Z</time></trkpt><trkpt lat="14.366361394983972" lon="120.91896808053883"><ele>44.0</ele><time>2026-04-17T10:28:31Z</time></trkpt><trkpt lat="14.366320861547097" lon="120.9189038629877"><ele>44.0</ele><time>2026-04-17T10:28:32Z</time></trkpt><trkpt lat="14.366274409472545" lon="120.91883026851897"><ele>44.0</ele><time>2026-04-17T10:28:33Z</time></trkpt><trkpt lat="14.36623745519346" lon="120.91877172147903"><ele>44.0</ele><time>2026-04-17T10:28:34Z</time></trkpt><trkpt lat="14.366184060484818" lon="120.91868712769949"><ele>44.0</ele><time>2026-04-17T10:28:36Z</time></trkpt><trkpt lat="14.366146241386637" lon="120.91862157921315"><ele>44.0</ele><time>2026-04-17T10:28:42Z</time></trkpt><trkpt lat="14.36606646387951" lon="120.91877937394048"><ele>44.0</ele><time>2026-04-17T10:28:46Z</time></trkpt><trkpt lat="14.36619097527312" lon="120.91883912786582"><ele>44.0</ele><time>2026-04-17T10:28:47Z</time></trkpt><trkpt lat="14.366238175686023" lon="120.91892263099551"><ele>44.0</ele><time>2026-04-17T10:28:48Z</time></trkpt><trkpt lat="14.36628467093312" lon="120.91901004334377"><ele>44.0</ele><time>2026-04-17T10:28:49Z</time></trkpt><trkpt lat="14.366332996575112" lon="120.9190972780907"><ele>44.0</ele><time>2026-04-17T10:28:50Z</time></trkpt><trkpt lat="14.366382935450478" lon="120.91917801828228"><ele>44.0</ele><time>2026-04-17T10:28:51Z</time></trkpt><trkpt lat="14.366433361441485" lon="120.91926030049193"><ele>44.0</ele><time>2026-04-17T10:28:52Z</time></trkpt><trkpt lat="14.366473167705252" lon="120.91932030614876"><ele>44.0</ele><time>2026-04-17T10:28:53Z</time></trkpt><trkpt lat="14.36651254081269" lon="120.91938089077688"><ele>44.0</ele><time>2026-04-17T10:28:54Z</time></trkpt><trkpt lat="14.366547560291933" lon="120.91944072813725"><ele>44.0</ele><time>2026-04-17T10:28:55Z</time></trkpt><trkpt lat="14.366581530781101" lon="120.91950877184696"><ele>44.0</ele><time>2026-04-17T10:28:56Z</time></trkpt><trkpt lat="14.366616272139403" lon="120.9196002220807"><ele>44.0</ele><time>2026-04-17T10:28:57Z</time></trkpt><trkpt lat="14.366648376606209" lon="120.9196889314868"><ele>44.0</ele><time>2026-04-17T10:28:58Z</time></trkpt><trkpt lat="14.366676372075961" lon="120.91980415529527"><ele>44.0</ele><time>2026-04-17T10:28:59Z</time></trkpt><trkpt lat="14.366708274191552" lon="120.91991197535347"><ele>44.0</ele><time>2026-04-17T10:29:00Z</time></trkpt><trkpt lat="14.36673020159965" lon="120.92004103626977"><ele>44.0</ele><time>2026-04-17T10:29:01Z</time></trkpt><trkpt lat="14.36675459325073" lon="120.92016547914778"><ele>44.0</ele><time>2026-04-17T10:29:02Z</time></trkpt><trkpt lat="14.366778309207417" lon="120.92030085539172"><ele>44.0</ele><time>2026-04-17T10:29:03Z</time></trkpt><trkpt lat="14.366804071692965" lon="120.92044205501162"><ele>43.25</ele><time>2026-04-17T10:29:04Z</time></trkpt><trkpt lat="14.36683006178413" lon="120.92058462384009"><ele>42.5</ele><time>2026-04-17T10:29:05Z</time></trkpt><trkpt lat="14.366839776304953" lon="120.92073810609519"><ele>41.75</ele><time>2026-04-17T10:29:06Z</time></trkpt><trkpt lat="14.366864138116332" lon="120.92089466210918"><ele>41.0</ele><time>2026-04-17T10:29:07Z</time></trkpt><trkpt lat="14.366889727648381" lon="120.92105774504836"><ele>40.33333333333333</ele><time>2026-04-17T10:29:08Z</time></trkpt><trkpt lat="14.366913675402778" lon="120.9212074047359"><ele>39.666666666666664</ele><time>2026-04-17T10:29:09Z</time></trkpt><trkpt lat="14.366941342277029" lon="120.92137079722976"><ele>39.0</ele><time>2026-04-17T10:29:10Z</time></trkpt><trkpt lat="14.366981804266874" lon="120.92153674284329"><ele>39.0</ele><time>2026-04-17T10:29:11Z</time></trkpt><trkpt lat="14.367006435683223" lon="120.92169515225994"><ele>39.0</ele><time>2026-04-17T10:29:12Z</time></trkpt><trkpt lat="14.367034370728598" lon="120.92185564428424"><ele>39.0</ele><time>2026-04-17T10:29:13Z</time></trkpt><trkpt lat="14.36705615964667" lon="120.922024414719"><ele>39.0</ele><time>2026-04-17T10:29:14Z</time></trkpt><trkpt lat="14.367078247169948" lon="120.92218231940319"><ele>39.0</ele><time>2026-04-17T10:29:15Z</time></trkpt><trkpt lat="14.367097473236782" lon="120.92234971481392"><ele>39.0</ele><time>2026-04-17T10:29:16Z</time></trkpt><trkpt lat="14.367117248688915" lon="120.92250726574237"><ele>39.0</ele><time>2026-04-17T10:29:17Z</time></trkpt><trkpt lat="14.367140139873745" lon="120.92265754156531"><ele>39.0</ele><time>2026-04-17T10:29:18Z</time></trkpt><trkpt lat="14.367158216737902" lon="120.92280137208334"><ele>39.0</ele><time>2026-04-17T10:29:19Z</time></trkpt><trkpt lat="14.367176841069345" lon="120.9229408374442"><ele>39.0</ele><time>2026-04-17T10:29:20Z</time></trkpt><trkpt lat="14.367198657731754" lon="120.92308671726141"><ele>39.25</ele><time>2026-04-17T10:29:21Z</time></trkpt><trkpt lat="14.367216526619666" lon="120.92323425144774"><ele>39.5</ele><time>2026-04-17T10:29:22Z</time></trkpt><trkpt lat="14.367236372045278" lon="120.92338070382293"><ele>39.75</ele><time>2026-04-17T10:29:23Z</time></trkpt><trkpt lat="14.36725688123876" lon="120.92352867711901"><ele>40.0</ele><time>2026-04-17T10:29:24Z</time></trkpt><trkpt lat="14.367284370872957" lon="120.92367139907867"><ele>40.0</ele><time>2026-04-17T10:29:25Z</time></trkpt><trkpt lat="14.367307547743675" lon="120.92381439266691"><ele>40.0</ele><time>2026-04-17T10:29:26Z</time></trkpt><trkpt lat="14.367327154314811" lon="120.92394468822445"><ele>40.0</ele><time>2026-04-17T10:29:27Z</time></trkpt><trkpt lat="14.367344828354351" lon="120.92407158204517"><ele>40.0</ele><time>2026-04-17T10:29:28Z</time></trkpt><trkpt lat="14.367369809192912" lon="120.9242022305931"><ele>40.25</ele><time>2026-04-17T10:29:29Z</time></trkpt><trkpt lat="14.367401412752546" lon="120.92433369803595"><ele>40.5</ele><time>2026-04-17T10:29:30Z</time></trkpt><trkpt lat="14.367443063233482" lon="120.92445782099269"><ele>40.75</ele><time>2026-04-17T10:29:31Z</time></trkpt><trkpt lat="14.3674908519365" lon="120.92457689507614"><ele>41.0</ele><time>2026-04-17T10:29:32Z</time></trkpt><trkpt lat="14.367535133667882" lon="120.92469276664018"><ele>41.0</ele><time>2026-04-17T10:29:33Z</time></trkpt><trkpt lat="14.367571359763987" lon="120.92479738890354"><ele>41.0</ele><time>2026-04-17T10:29:34Z</time></trkpt><trkpt lat="14.367599403966754" lon="120.92490135346341"><ele>41.0</ele><time>2026-04-17T10:29:35Z</time></trkpt><trkpt lat="14.367626340390359" lon="120.92499233919924"><ele>41.0</ele><time>2026-04-17T10:29:36Z</time></trkpt><trkpt lat="14.367644642171461" lon="120.92507776579109"><ele>41.0</ele><time>2026-04-17T10:29:37Z</time></trkpt><trkpt lat="14.367653296013675" lon="120.92517144479712"><ele>41.0</ele><time>2026-04-17T10:29:38Z</time></trkpt><trkpt lat="14.367654265266557" lon="120.92527459502031"><ele>41.0</ele><time>2026-04-17T10:29:39Z</time></trkpt><trkpt lat="14.367648701093005" lon="120.92537393400818"><ele>41.0</ele><time>2026-04-17T10:29:40Z</time></trkpt><trkpt lat="14.367645242237097" lon="120.92547762536817"><ele>41.0</ele><time>2026-04-17T10:29:41Z</time></trkpt><trkpt lat="14.367640464603348" lon="120.92558641412256"><ele>41.0</ele><time>2026-04-17T10:29:42Z</time></trkpt><trkpt lat="14.36763336723125" lon="120.92570491771119"><ele>41.0</ele><time>2026-04-17T10:29:43Z</time></trkpt><trkpt lat="14.367624610462194" lon="120.92582545762374"><ele>41.0</ele><time>2026-04-17T10:29:44Z</time></trkpt><trkpt lat="14.367615003878345" lon="120.92597289664667"><ele>41.0</ele><time>2026-04-17T10:29:45Z</time></trkpt><trkpt lat="14.367606626818402" lon="120.92612425624105"><ele>41.0</ele><time>2026-04-17T10:29:46Z</time></trkpt><trkpt lat="14.367609064285809" lon="120.9262383520975"><ele>41.25</ele><time>2026-04-17T10:29:47Z</time></trkpt><trkpt lat="14.36761951499297" lon="120.9263834991441"><ele>41.5</ele><time>2026-04-17T10:29:48Z</time></trkpt><trkpt lat="14.367638377313552" lon="120.92652683698277"><ele>41.75</ele><time>2026-04-17T10:29:49Z</time></trkpt><trkpt lat="14.367660935590244" lon="120.92666983751215"><ele>42.0</ele><time>2026-04-17T10:29:50Z</time></trkpt><trkpt lat="14.367695941763687" lon="120.92681660015664"><ele>42.0</ele><time>2026-04-17T10:29:51Z</time></trkpt><trkpt lat="14.367738543833429" lon="120.92696037976437"><ele>42.0</ele><time>2026-04-17T10:29:52Z</time></trkpt><trkpt lat="14.367776943931112" lon="120.92711432402405"><ele>42.0</ele><time>2026-04-17T10:29:53Z</time></trkpt><trkpt lat="14.367808722319865" lon="120.92726603865617"><ele>42.0</ele><time>2026-04-17T10:29:54Z</time></trkpt><trkpt lat="14.36782708766376" lon="120.92740560789767"><ele>42.0</ele><time>2026-04-17T10:29:55Z</time></trkpt><trkpt lat="14.367838655077625" lon="120.92754347723154"><ele>42.0</ele><time>2026-04-17T10:29:56Z</time></trkpt><trkpt lat="14.367825515181648" lon="120.92767847780975"><ele>42.0</ele><time>2026-04-17T10:29:57Z</time></trkpt><trkpt lat="14.367784194420464" lon="120.9278076703024"><ele>41.0</ele><time>2026-04-17T10:29:58Z</time></trkpt><trkpt lat="14.367723420921745" lon="120.92793310970023"><ele>40.0</ele><time>2026-04-17T10:29:59Z</time></trkpt><trkpt lat="14.367655167505918" lon="120.92806110641854"><ele>39.0</ele><time>2026-04-17T10:30:00Z</time></trkpt><trkpt lat="14.367597970572945" lon="120.92817641662556"><ele>38.0</ele><time>2026-04-17T10:30:01Z</time></trkpt><trkpt lat="14.3675515775896" lon="120.92827682726578"><ele>38.0</ele><time>2026-04-17T10:30:02Z</time></trkpt><trkpt lat="14.367518142668676" lon="120.92835642197956"><ele>38.0</ele><time>2026-04-17T10:30:03Z</time></trkpt><trkpt lat="14.36746198474147" lon="120.92844745245765"><ele>38.0</ele><time>2026-04-17T10:30:05Z</time></trkpt><trkpt lat="14.367409861607028" lon="120.92849721716065"><ele>38.0</ele><time>2026-04-17T10:30:07Z</time></trkpt><trkpt lat="14.367394957203384" lon="120.92861154851992"><ele>38.0</ele><time>2026-04-17T10:30:09Z</time></trkpt><trkpt lat="14.367374373560674" lon="120.9286742419"><ele>38.0</ele><time>2026-04-17T10:30:10Z</time></trkpt><trkpt lat="14.367355756853152" lon="120.92874443825384"><ele>38.5</ele><time>2026-04-17T10:30:11Z</time></trkpt><trkpt lat="14.367342979195168" lon="120.92882431252663"><ele>39.0</ele><time>2026-04-17T10:30:12Z</time></trkpt><trkpt lat="14.367339757825041" lon="120.9289130375807"><ele>39.5</ele><time>2026-04-17T10:30:13Z</time></trkpt><trkpt lat="14.367344791166978" lon="120.92900647354975"><ele>40.0</ele><time>2026-04-17T10:30:14Z</time></trkpt><trkpt lat="14.367350245251203" lon="120.92909325942"><ele>40.5</ele><time>2026-04-17T10:30:15Z</time></trkpt><trkpt lat="14.367343619233967" lon="120.92918288129799"><ele>41.0</ele><time>2026-04-17T10:30:16Z</time></trkpt><trkpt lat="14.367361917127933" lon="120.92926225307436"><ele>41.166666666666664</ele><time>2026-04-17T10:30:17Z</time></trkpt><trkpt lat="14.367368115110159" lon="120.92934952965125"><ele>41.33333333333333</ele><time>2026-04-17T10:30:18Z</time></trkpt><trkpt lat="14.367372997802255" lon="120.92941828502009"><ele>41.5</ele><time>2026-04-17T10:30:19Z</time></trkpt><trkpt lat="14.36737820225743" lon="120.9294903206049"><ele>41.666666666666664</ele><time>2026-04-17T10:30:20Z</time></trkpt><trkpt lat="14.367370303056463" lon="120.92960466278599"><ele>41.833333333333336</ele><time>2026-04-17T10:30:22Z</time></trkpt><trkpt lat="14.367391525885381" lon="120.92967290949876"><ele>42.0</ele><time>2026-04-17T10:30:23Z</time></trkpt><trkpt lat="14.367396262596818" lon="120.92973782206606"><ele>42.0</ele><time>2026-04-17T10:30:24Z</time></trkpt><trkpt lat="14.36740111132991" lon="120.92980426980552"><ele>42.0</ele><time>2026-04-17T10:30:25Z</time></trkpt><trkpt lat="14.367407008622719" lon="120.9298850871185"><ele>42.0</ele><time>2026-04-17T10:30:26Z</time></trkpt><trkpt lat="14.367412133874401" lon="120.92995532429275"><ele>42.0</ele><time>2026-04-17T10:30:27Z</time></trkpt><trkpt lat="14.36742102858736" lon="120.93007721869782"><ele>42.0</ele><time>2026-04-17T10:30:29Z</time></trkpt><trkpt lat="14.367425835405518" lon="120.93014316045435"><ele>42.0</ele><time>2026-04-17T10:30:30Z</time></trkpt><trkpt lat="14.367434940167643" lon="120.93027045202211"><ele>42.0</ele><time>2026-04-17T10:30:32Z</time></trkpt><trkpt lat="14.367440273640923" lon="120.9303450180712"><ele>42.0</ele><time>2026-04-17T10:30:33Z</time></trkpt><trkpt lat="14.367449414902755" lon="120.93047281995008"><ele>42.0</ele><time>2026-04-17T10:30:35Z</time></trkpt><trkpt lat="14.367459506391102" lon="120.93061431843896"><ele>42.0</ele><time>2026-04-17T10:30:37Z</time></trkpt><trkpt lat="14.367464449555566" lon="120.930683684648"><ele>42.0</ele><time>2026-04-17T10:30:38Z</time></trkpt><trkpt lat="14.367469148155289" lon="120.93074961894574"><ele>42.0</ele><time>2026-04-17T10:30:39Z</time></trkpt><trkpt lat="14.367478996830435" lon="120.93088782301308"><ele>42.0</ele><time>2026-04-17T10:30:41Z</time></trkpt><trkpt lat="14.367487234445058" lon="120.93100341944542"><ele>42.0</ele><time>2026-04-17T10:30:43Z</time></trkpt><trkpt lat="14.36747585579077" lon="120.931075934228"><ele>42.0</ele><time>2026-04-17T10:30:44Z</time></trkpt><trkpt lat="14.367483058927075" lon="120.93115271454951"><ele>42.0</ele><time>2026-04-17T10:30:45Z</time></trkpt><trkpt lat="14.367488175945562" lon="120.9312281909069"><ele>42.166666666666664</ele><time>2026-04-17T10:30:46Z</time></trkpt><trkpt lat="14.367495323846962" lon="120.93131459880236"><ele>42.333333333333336</ele><time>2026-04-17T10:30:47Z</time></trkpt><trkpt lat="14.367502659465554" lon="120.93140060703006"><ele>42.5</ele><time>2026-04-17T10:30:48Z</time></trkpt><trkpt lat="14.36751149125447" lon="120.93149506694283"><ele>42.66666666666667</ele><time>2026-04-17T10:30:49Z</time></trkpt><trkpt lat="14.367537238868502" lon="120.93157537353719"><ele>42.833333333333336</ele><time>2026-04-17T10:30:50Z</time></trkpt><trkpt lat="14.367549224551468" lon="120.93166455372584"><ele>43.0</ele><time>2026-04-17T10:30:51Z</time></trkpt><trkpt lat="14.367561578410779" lon="120.93175647328253"><ele>42.599999999999994</ele><time>2026-04-17T10:30:52Z</time></trkpt><trkpt lat="14.367540612847137" lon="120.93186683648108"><ele>42.199999999999996</ele><time>2026-04-17T10:30:53Z</time></trkpt><trkpt lat="14.367551645904186" lon="120.93196755881287"><ele>41.8</ele><time>2026-04-17T10:30:54Z</time></trkpt><trkpt lat="14.36755707187973" lon="120.93206847780623"><ele>41.4</ele><time>2026-04-17T10:30:55Z</time></trkpt><trkpt lat="14.36756534147482" lon="120.9321934969357"><ele>41.0</ele><time>2026-04-17T10:30:56Z</time></trkpt><trkpt lat="14.367576112186326" lon="120.93231132043535"><ele>41.0</ele><time>2026-04-17T10:30:57Z</time></trkpt><trkpt lat="14.367586851525738" lon="120.93242767501677"><ele>41.0</ele><time>2026-04-17T10:30:58Z</time></trkpt><trkpt lat="14.367600168876685" lon="120.9325423424813"><ele>41.0</ele><time>2026-04-17T10:30:59Z</time></trkpt><trkpt lat="14.367611528157774" lon="120.9326543853003"><ele>41.0</ele><time>2026-04-17T10:31:00Z</time></trkpt><trkpt lat="14.367637302735158" lon="120.93275499087068"><ele>41.0</ele><time>2026-04-17T10:31:01Z</time></trkpt><trkpt lat="14.367626130692665" lon="120.93284705658203"><ele>41.166666666666664</ele><time>2026-04-17T10:31:02Z</time></trkpt><trkpt lat="14.367640100677717" lon="120.93293689872475"><ele>41.33333333333333</ele><time>2026-04-17T10:31:03Z</time></trkpt><trkpt lat="14.367654853035916" lon="120.9330162662611"><ele>41.5</ele><time>2026-04-17T10:31:04Z</time></trkpt><trkpt lat="14.367674539261033" lon="120.93308618342819"><ele>41.666666666666664</ele><time>2026-04-17T10:31:05Z</time></trkpt><trkpt lat="14.367708189619831" lon="120.93315476846423"><ele>41.833333333333336</ele><time>2026-04-17T10:31:06Z</time></trkpt><trkpt lat="14.367751564326877" lon="120.93322607194432"><ele>42.0</ele><time>2026-04-17T10:31:07Z</time></trkpt><trkpt lat="14.36778884803785" lon="120.93329612943282"><ele>42.0</ele><time>2026-04-17T10:31:08Z</time></trkpt><trkpt lat="14.367839682748182" lon="120.93336331350855"><ele>42.0</ele><time>2026-04-17T10:31:09Z</time></trkpt><trkpt lat="14.367869033446926" lon="120.93344721730463"><ele>42.0</ele><time>2026-04-17T10:31:10Z</time></trkpt><trkpt lat="14.36791139023282" lon="120.9335172027787"><ele>42.0</ele><time>2026-04-17T10:31:11Z</time></trkpt><trkpt lat="14.367978847608297" lon="120.93363303645677"><ele>42.0</ele><time>2026-04-17T10:31:13Z</time></trkpt><trkpt lat="14.368016106881594" lon="120.93370214530147"><ele>41.5</ele><time>2026-04-17T10:31:14Z</time></trkpt><trkpt lat="14.36804370498241" lon="120.93376062228333"><ele>41.0</ele><time>2026-04-17T10:31:15Z</time></trkpt><trkpt lat="14.368094889957849" lon="120.93385008177526"><ele>40.5</ele><time>2026-04-17T10:31:17Z</time></trkpt><trkpt lat="14.368136727817005" lon="120.93391309812229"><ele>40.0</ele><time>2026-04-17T10:31:19Z</time></trkpt><trkpt lat="14.368192972933882" lon="120.93397079629793"><ele>39.5</ele><time>2026-04-17T10:31:22Z</time></trkpt><trkpt lat="14.368245517935188" lon="120.93403962141916"><ele>39.0</ele><time>2026-04-17T10:31:24Z</time></trkpt><trkpt lat="14.368288281749699" lon="120.93412337583361"><ele>39.0</ele><time>2026-04-17T10:31:26Z</time></trkpt><trkpt lat="14.368334334575046" lon="120.93420700748881"><ele>39.0</ele><time>2026-04-17T10:31:28Z</time></trkpt><trkpt lat="14.3683723324162" lon="120.93428294964068"><ele>39.0</ele><time>2026-04-17T10:31:30Z</time></trkpt><trkpt lat="14.368414574040736" lon="120.93436361355735"><ele>39.0</ele><time>2026-04-17T10:31:32Z</time></trkpt><trkpt lat="14.368463360885038" lon="120.93445105012947"><ele>39.0</ele><time>2026-04-17T10:31:34Z</time></trkpt><trkpt lat="14.368519393282888" lon="120.93455753447736"><ele>39.166666666666664</ele><time>2026-04-17T10:31:36Z</time></trkpt><trkpt lat="14.368578879297898" lon="120.93467003297602"><ele>39.333333333333336</ele><time>2026-04-17T10:31:38Z</time></trkpt><trkpt lat="14.36861142081469" lon="120.93472841188685"><ele>39.5</ele><time>2026-04-17T10:31:39Z</time></trkpt><trkpt lat="14.36864723904947" lon="120.93479140037425"><ele>39.66666666666667</ele><time>2026-04-17T10:31:40Z</time></trkpt><trkpt lat="14.368683429086529" lon="120.93485635349049"><ele>39.833333333333336</ele><time>2026-04-17T10:31:41Z</time></trkpt><trkpt lat="14.36872152005407" lon="120.93492691307824"><ele>40.0</ele><time>2026-04-17T10:31:42Z</time></trkpt><trkpt lat="14.368758095741665" lon="120.93499116014154"><ele>40.16666666666667</ele><time>2026-04-17T10:31:43Z</time></trkpt><trkpt lat="14.368790910637472" lon="120.93505479697706"><ele>40.333333333333336</ele><time>2026-04-17T10:31:44Z</time></trkpt><trkpt lat="14.368841830211077" lon="120.93515649241688"><ele>40.5</ele><time>2026-04-17T10:31:46Z</time></trkpt><trkpt lat="14.368886612742367" lon="120.93524179929533"><ele>40.666666666666664</ele><time>2026-04-17T10:31:48Z</time></trkpt><trkpt lat="14.368930310308883" lon="120.93533571475947"><ele>40.83333333333333</ele><time>2026-04-17T10:31:50Z</time></trkpt><trkpt lat="14.368960048189885" lon="120.93540125107693"><ele>41.0</ele><time>2026-04-17T10:31:51Z</time></trkpt><trkpt lat="14.36900150483898" lon="120.93550728114221"><ele>40.8</ele><time>2026-04-17T10:31:53Z</time></trkpt><trkpt lat="14.369039987290352" lon="120.93560543983693"><ele>40.599999999999994</ele><time>2026-04-17T10:31:55Z</time></trkpt><trkpt lat="14.369078342984375" lon="120.9357082465846"><ele>40.4</ele><time>2026-04-17T10:31:57Z</time></trkpt><trkpt lat="14.369116616046977" lon="120.93581119438561"><ele>40.2</ele><time>2026-04-17T10:31:59Z</time></trkpt><trkpt lat="14.369157881121305" lon="120.93591607612636"><ele>40.0</ele><time>2026-04-17T10:32:01Z</time></trkpt><trkpt lat="14.36920115322941" lon="120.9360210232728"><ele>40.0</ele><time>2026-04-17T10:32:03Z</time></trkpt><trkpt lat="14.369242337248604" lon="120.93612724761243"><ele>40.0</ele><time>2026-04-17T10:32:05Z</time></trkpt><trkpt lat="14.369281068158285" lon="120.93622570882864"><ele>40.0</ele><time>2026-04-17T10:32:07Z</time></trkpt><trkpt lat="14.369320282485043" lon="120.93632510664688"><ele>40.0</ele><time>2026-04-17T10:32:09Z</time></trkpt><trkpt lat="14.369352771639337" lon="120.93641594859395"><ele>40.0</ele><time>2026-04-17T10:32:11Z</time></trkpt><trkpt lat="14.369392994198737" lon="120.93651317251012"><ele>40.0</ele><time>2026-04-17T10:32:13Z</time></trkpt><trkpt lat="14.369435406588309" lon="120.93662802599728"><ele>40.0</ele><time>2026-04-17T10:32:15Z</time></trkpt><trkpt lat="14.369479073822898" lon="120.93674293928568"><ele>40.0</ele><time>2026-04-17T10:32:17Z</time></trkpt><trkpt lat="14.3695221531808" lon="120.93685624303541"><ele>40.0</ele><time>2026-04-17T10:32:19Z</time></trkpt><trkpt lat="14.369560673313359" lon="120.93695855890083"><ele>39.6</ele><time>2026-04-17T10:32:21Z</time></trkpt><trkpt lat="14.3695971402174" lon="120.93705363887423"><ele>39.2</ele><time>2026-04-17T10:32:23Z</time></trkpt><trkpt lat="14.369632924627446" lon="120.93714071478631"><ele>38.8</ele><time>2026-04-17T10:32:25Z</time></trkpt><trkpt lat="14.369671745184055" lon="120.93722463399337"><ele>38.4</ele><time>2026-04-17T10:32:27Z</time></trkpt><trkpt lat="14.369731703594068" lon="120.93729072269103"><ele>38.0</ele><time>2026-04-17T10:32:29Z</time></trkpt><trkpt lat="14.3698157828926" lon="120.93735674495811"><ele>38.8</ele><time>2026-04-17T10:32:31Z</time></trkpt><trkpt lat="14.369890783323099" lon="120.93740623006934"><ele>39.599999999999994</ele><time>2026-04-17T10:32:33Z</time></trkpt><trkpt lat="14.36998925974234" lon="120.93745133821912"><ele>40.400000000000006</ele><time>2026-04-17T10:32:35Z</time></trkpt><trkpt lat="14.370070717708197" lon="120.9374940399358"><ele>41.2</ele><time>2026-04-17T10:32:36Z</time></trkpt><trkpt lat="14.370161500572344" lon="120.9375469214743"><ele>42.0</ele><time>2026-04-17T10:32:37Z</time></trkpt><trkpt lat="14.370261682007968" lon="120.93761120684961"><ele>42.5</ele><time>2026-04-17T10:32:38Z</time></trkpt><trkpt lat="14.370364545149975" lon="120.93768410262504"><ele>43.0</ele><time>2026-04-17T10:32:39Z</time></trkpt><trkpt lat="14.370459401027523" lon="120.93774906310212"><ele>43.5</ele><time>2026-04-17T10:32:40Z</time></trkpt><trkpt lat="14.370570955316154" lon="120.93783509493267"><ele>44.0</ele><time>2026-04-17T10:32:41Z</time></trkpt><trkpt lat="14.370679568745752" lon="120.93791711445942"><ele>43.0</ele><time>2026-04-17T10:32:42Z</time></trkpt><trkpt lat="14.370793899690538" lon="120.93800943970665"><ele>42.0</ele><time>2026-04-17T10:32:43Z</time></trkpt><trkpt lat="14.370909178076756" lon="120.93810247436129"><ele>41.0</ele><time>2026-04-17T10:32:44Z</time></trkpt><trkpt lat="14.371029058214486" lon="120.93819581404648"><ele>40.0</ele><time>2026-04-17T10:32:45Z</time></trkpt><trkpt lat="14.371152636358165" lon="120.93829021969533"><ele>40.333333333333336</ele><time>2026-04-17T10:32:46Z</time></trkpt><trkpt lat="14.371273233943121" lon="120.93838498208491"><ele>40.666666666666664</ele><time>2026-04-17T10:32:47Z</time></trkpt><trkpt lat="14.371385279145484" lon="120.9384906551154"><ele>41.0</ele><time>2026-04-17T10:32:48Z</time></trkpt><trkpt lat="14.371488343325659" lon="120.93860022652864"><ele>41.0</ele><time>2026-04-17T10:32:49Z</time></trkpt><trkpt lat="14.371581790562951" lon="120.93871028144305"><ele>41.0</ele><time>2026-04-17T10:32:50Z</time></trkpt><trkpt lat="14.371670246405793" lon="120.93882148299036"><ele>41.0</ele><time>2026-04-17T10:32:51Z</time></trkpt><trkpt lat="14.371746477170873" lon="120.93892950374693"><ele>41.0</ele><time>2026-04-17T10:32:52Z</time></trkpt><trkpt lat="14.371815609490172" lon="120.93903064246034"><ele>41.0</ele><time>2026-04-17T10:32:53Z</time></trkpt><trkpt lat="14.37188655578111" lon="120.93913282503605"><ele>41.0</ele><time>2026-04-17T10:32:54Z</time></trkpt><trkpt lat="14.37195564475161" lon="120.93923594227552"><ele>41.0</ele><time>2026-04-17T10:32:55Z</time></trkpt><trkpt lat="14.372028190938488" lon="120.93933881936599"><ele>41.0</ele><time>2026-04-17T10:32:56Z</time></trkpt><trkpt lat="14.37210676861989" lon="120.93944826979049"><ele>41.25</ele><time>2026-04-17T10:32:57Z</time></trkpt><trkpt lat="14.372180861566326" lon="120.93955388717728"><ele>41.5</ele><time>2026-04-17T10:32:58Z</time></trkpt><trkpt lat="14.372252031939794" lon="120.93966245449167"><ele>41.75</ele><time>2026-04-17T10:32:59Z</time></trkpt><trkpt lat="14.372331515805504" lon="120.93978102588359"><ele>42.0</ele><time>2026-04-17T10:33:00Z</time></trkpt><trkpt lat="14.372408278347889" lon="120.93989599140062"><ele>42.0</ele><time>2026-04-17T10:33:01Z</time></trkpt><trkpt lat="14.372480312293385" lon="120.94000734875631"><ele>42.0</ele><time>2026-04-17T10:33:02Z</time></trkpt><trkpt lat="14.372547204289086" lon="120.94011472647185"><ele>42.0</ele><time>2026-04-17T10:33:03Z</time></trkpt><trkpt lat="14.372612804415404" lon="120.94022172032388"><ele>42.0</ele><time>2026-04-17T10:33:04Z</time></trkpt><trkpt lat="14.3726768009476" lon="120.94033314506412"><ele>42.0</ele><time>2026-04-17T10:33:05Z</time></trkpt><trkpt lat="14.37273910047549" lon="120.94044646690188"><ele>42.0</ele><time>2026-04-17T10:33:06Z</time></trkpt><trkpt lat="14.37279183433385" lon="120.94055365602618"><ele>42.0</ele><time>2026-04-17T10:33:07Z</time></trkpt><trkpt lat="14.37283384195139" lon="120.9406545986154"><ele>42.0</ele><time>2026-04-17T10:33:08Z</time></trkpt><trkpt lat="14.3728658291841" lon="120.94074236735352"><ele>42.0</ele><time>2026-04-17T10:33:09Z</time></trkpt><trkpt lat="14.372890786274292" lon="120.94082205381021"><ele>42.0</ele><time>2026-04-17T10:33:10Z</time></trkpt><trkpt lat="14.372926484523456" lon="120.94091405627235"><ele>42.0</ele><time>2026-04-17T10:33:11Z</time></trkpt><trkpt lat="14.372951171945212" lon="120.94099036403279"><ele>42.0</ele><time>2026-04-17T10:33:12Z</time></trkpt><trkpt lat="14.372976570318697" lon="120.94106254976982"><ele>42.0</ele><time>2026-04-17T10:33:13Z</time></trkpt><trkpt lat="14.373001027609023" lon="120.94113588479456"><ele>42.0</ele><time>2026-04-17T10:33:14Z</time></trkpt><trkpt lat="14.373030188061195" lon="120.94125087384477"><ele>42.0</ele><time>2026-04-17T10:33:16Z</time></trkpt><trkpt lat="14.373043654963261" lon="120.9413936231144"><ele>42.0</ele><time>2026-04-17T10:33:18Z</time></trkpt><trkpt lat="14.373056634325417" lon="120.94147436373402"><ele>42.0</ele><time>2026-04-17T10:33:19Z</time></trkpt><trkpt lat="14.373064469570712" lon="120.94155496911243"><ele>42.0</ele><time>2026-04-17T10:33:20Z</time></trkpt><trkpt lat="14.373073942622334" lon="120.94163791896659"><ele>42.0</ele><time>2026-04-17T10:33:21Z</time></trkpt><trkpt lat="14.373083155693777" lon="120.94173320701093"><ele>42.0</ele><time>2026-04-17T10:33:22Z</time></trkpt><trkpt lat="14.373090846102588" lon="120.94183943202125"><ele>42.0</ele><time>2026-04-17T10:33:23Z</time></trkpt><trkpt lat="14.373094069540088" lon="120.9419579335799"><ele>41.0</ele><time>2026-04-17T10:33:24Z</time></trkpt><trkpt lat="14.37309181097289" lon="120.94207825567284"><ele>40.0</ele><time>2026-04-17T10:33:25Z</time></trkpt><trkpt lat="14.373093225733019" lon="120.94220457226659"><ele>39.0</ele><time>2026-04-17T10:33:26Z</time></trkpt><trkpt lat="14.373090513113178" lon="120.94232691569395"><ele>38.0</ele><time>2026-04-17T10:33:27Z</time></trkpt><trkpt lat="14.373083246731518" lon="120.94244932473404"><ele>38.4</ele><time>2026-04-17T10:33:28Z</time></trkpt><trkpt lat="14.37308000212444" lon="120.94256420686558"><ele>38.8</ele><time>2026-04-17T10:33:29Z</time></trkpt><trkpt lat="14.37308331964231" lon="120.94267150207772"><ele>39.2</ele><time>2026-04-17T10:33:30Z</time></trkpt><trkpt lat="14.37308614431987" lon="120.94277390028586"><ele>39.6</ele><time>2026-04-17T10:33:31Z</time></trkpt><trkpt lat="14.373099991657256" lon="120.94287005188144"><ele>40.0</ele><time>2026-04-17T10:33:32Z</time></trkpt><trkpt lat="14.373110358817906" lon="120.94296292446177"><ele>40.0</ele><time>2026-04-17T10:33:33Z</time></trkpt><trkpt lat="14.373121176457717" lon="120.94306150324911"><ele>40.0</ele><time>2026-04-17T10:33:34Z</time></trkpt><trkpt lat="14.373144424776816" lon="120.94316624843547"><ele>40.0</ele><time>2026-04-17T10:33:35Z</time></trkpt><trkpt lat="14.373180881401106" lon="120.94328202086419"><ele>40.0</ele><time>2026-04-17T10:33:36Z</time></trkpt><trkpt lat="14.373222142227657" lon="120.94339458824223"><ele>40.0</ele><time>2026-04-17T10:33:37Z</time></trkpt><trkpt lat="14.37327275605705" lon="120.94350545218987"><ele>40.2</ele><time>2026-04-17T10:33:38Z</time></trkpt><trkpt lat="14.37333379646503" lon="120.94360950055801"><ele>40.4</ele><time>2026-04-17T10:33:39Z</time></trkpt><trkpt lat="14.373395781993358" lon="120.94370412830857"><ele>40.599999999999994</ele><time>2026-04-17T10:33:40Z</time></trkpt><trkpt lat="14.373452476248884" lon="120.94378677171335"><ele>40.8</ele><time>2026-04-17T10:33:41Z</time></trkpt><trkpt lat="14.373498105049258" lon="120.9438446317881"><ele>41.0</ele><time>2026-04-17T10:33:42Z</time></trkpt><trkpt lat="14.373536262156895" lon="120.94390413540316"><ele>41.0</ele><time>2026-04-17T10:33:43Z</time></trkpt><trkpt lat="14.373588184028078" lon="120.94396857316394"><ele>41.0</ele><time>2026-04-17T10:33:44Z</time></trkpt><trkpt lat="14.373641825414193" lon="120.94403550770659"><ele>41.0</ele><time>2026-04-17T10:33:45Z</time></trkpt><trkpt lat="14.373696992283946" lon="120.94410782641654"><ele>41.0</ele><time>2026-04-17T10:33:46Z</time></trkpt><trkpt lat="14.37376082258286" lon="120.9441898666545"><ele>41.0</ele><time>2026-04-17T10:33:47Z</time></trkpt><trkpt lat="14.373825817835993" lon="120.94427087748372"><ele>41.0</ele><time>2026-04-17T10:33:48Z</time></trkpt><trkpt lat="14.373902028169978" lon="120.94435686132816"><ele>41.0</ele><time>2026-04-17T10:33:49Z</time></trkpt><trkpt lat="14.37398106347481" lon="120.9444393480166"><ele>41.0</ele><time>2026-04-17T10:33:50Z</time></trkpt><trkpt lat="14.374072718618914" lon="120.94454078550892"><ele>41.0</ele><time>2026-04-17T10:33:51Z</time></trkpt><trkpt lat="14.37416637963116" lon="120.9446529758498"><ele>41.0</ele><time>2026-04-17T10:33:52Z</time></trkpt><trkpt lat="14.374264108039737" lon="120.94477051995928"><ele>41.0</ele><time>2026-04-17T10:33:53Z</time></trkpt><trkpt lat="14.374365316283448" lon="120.94489477294326"><ele>41.0</ele><time>2026-04-17T10:33:54Z</time></trkpt><trkpt lat="14.374470914942671" lon="120.94502319296089"><ele>41.33333333333333</ele><time>2026-04-17T10:33:55Z</time></trkpt><trkpt lat="14.374578142377038" lon="120.94515796369672"><ele>41.666666666666664</ele><time>2026-04-17T10:33:56Z</time></trkpt><trkpt lat="14.374686147550621" lon="120.94528863936836"><ele>42.0</ele><time>2026-04-17T10:33:57Z</time></trkpt><trkpt lat="14.374791879743086" lon="120.94541841477853"><ele>42.0</ele><time>2026-04-17T10:33:58Z</time></trkpt><trkpt lat="14.374895509011434" lon="120.94554655022112"><ele>42.0</ele><time>2026-04-17T10:33:59Z</time></trkpt><trkpt lat="14.374989449119136" lon="120.94566977505123"><ele>42.0</ele><time>2026-04-17T10:34:00Z</time></trkpt><trkpt lat="14.375070467990986" lon="120.94578441995436"><ele>41.6</ele><time>2026-04-17T10:34:01Z</time></trkpt><trkpt lat="14.375142043315199" lon="120.94589717138334"><ele>41.2</ele><time>2026-04-17T10:34:02Z</time></trkpt><trkpt lat="14.375199984821297" lon="120.94599518816237"><ele>40.8</ele><time>2026-04-17T10:34:03Z</time></trkpt><trkpt lat="14.375258101567969" lon="120.9460954044202"><ele>40.4</ele><time>2026-04-17T10:34:04Z</time></trkpt><trkpt lat="14.375301571936255" lon="120.94617919349153"><ele>40.0</ele><time>2026-04-17T10:34:05Z</time></trkpt><trkpt lat="14.375339620320956" lon="120.94625280433237"><ele>40.0</ele><time>2026-04-17T10:34:06Z</time></trkpt><trkpt lat="14.37537535614772" lon="120.94632616143568"><ele>40.0</ele><time>2026-04-17T10:34:07Z</time></trkpt><trkpt lat="14.375410141429231" lon="120.94639773975088"><ele>40.0</ele><time>2026-04-17T10:34:08Z</time></trkpt><trkpt lat="14.375444895651341" lon="120.94647741445192"><ele>40.0</ele><time>2026-04-17T10:34:09Z</time></trkpt><trkpt lat="14.375490921784397" lon="120.9465680323856"><ele>40.0</ele><time>2026-04-17T10:34:10Z</time></trkpt><trkpt lat="14.375543873427356" lon="120.94666718680351"><ele>39.5</ele><time>2026-04-17T10:34:11Z</time></trkpt><trkpt lat="14.37559477837905" lon="120.94677976199948"><ele>39.0</ele><time>2026-04-17T10:34:12Z</time></trkpt><trkpt lat="14.37563708980492" lon="120.9468941129451"><ele>38.5</ele><time>2026-04-17T10:34:13Z</time></trkpt><trkpt lat="14.375669874937532" lon="120.94700355474954"><ele>38.0</ele><time>2026-04-17T10:34:14Z</time></trkpt><trkpt lat="14.375702798119507" lon="120.9471122114885"><ele>38.0</ele><time>2026-04-17T10:34:15Z</time></trkpt><trkpt lat="14.375740884307596" lon="120.94722866567321"><ele>38.0</ele><time>2026-04-17T10:34:16Z</time></trkpt><trkpt lat="14.375779309802638" lon="120.94734341799429"><ele>38.0</ele><time>2026-04-17T10:34:17Z</time></trkpt><trkpt lat="14.375813707849687" lon="120.94745128629773"><ele>38.0</ele><time>2026-04-17T10:34:18Z</time></trkpt><trkpt lat="14.375853100015052" lon="120.94756060822631"><ele>37.5</ele><time>2026-04-17T10:34:19Z</time></trkpt><trkpt lat="14.375910408116265" lon="120.94768574999348"><ele>37.0</ele><time>2026-04-17T10:34:20Z</time></trkpt><trkpt lat="14.375971357174233" lon="120.9478190267945"><ele>36.5</ele><time>2026-04-17T10:34:21Z</time></trkpt><trkpt lat="14.37602960353856" lon="120.9479674407924"><ele>36.0</ele><time>2026-04-17T10:34:22Z</time></trkpt><trkpt lat="14.37608609241468" lon="120.94812266944952"><ele>36.0</ele><time>2026-04-17T10:34:23Z</time></trkpt><trkpt lat="14.37614120407936" lon="120.94828180514875"><ele>36.0</ele><time>2026-04-17T10:34:24Z</time></trkpt><trkpt lat="14.376199523214144" lon="120.94844797314173"><ele>36.0</ele><time>2026-04-17T10:34:25Z</time></trkpt><trkpt lat="14.376261617808767" lon="120.94862183528038"><ele>37.0</ele><time>2026-04-17T10:34:26Z</time></trkpt><trkpt lat="14.376322316771063" lon="120.94879090343181"><ele>38.0</ele><time>2026-04-17T10:34:27Z</time></trkpt><trkpt lat="14.376382076972032" lon="120.9489572409672"><ele>39.0</ele><time>2026-04-17T10:34:28Z</time></trkpt><trkpt lat="14.376443326577506" lon="120.94912290576943"><ele>39.0</ele><time>2026-04-17T10:34:29Z</time></trkpt><trkpt lat="14.3765057394963" lon="120.94928957933126"><ele>39.0</ele><time>2026-04-17T10:34:30Z</time></trkpt><trkpt lat="14.376568420235222" lon="120.94945918173268"><ele>39.0</ele><time>2026-04-17T10:34:31Z</time></trkpt><trkpt lat="14.376629163541534" lon="120.94962694293615"><ele>39.0</ele><time>2026-04-17T10:34:32Z</time></trkpt><trkpt lat="14.376686316228792" lon="120.94979707329325"><ele>39.0</ele><time>2026-04-17T10:34:33Z</time></trkpt><trkpt lat="14.376739907932398" lon="120.94996277180682"><ele>39.0</ele><time>2026-04-17T10:34:34Z</time></trkpt><trkpt lat="14.376795953281668" lon="120.95012040356448"><ele>40.0</ele><time>2026-04-17T10:34:35Z</time></trkpt><trkpt lat="14.37685001641679" lon="120.95027562331347"><ele>41.0</ele><time>2026-04-17T10:34:36Z</time></trkpt><trkpt lat="14.376908436068776" lon="120.9504184094623"><ele>42.0</ele><time>2026-04-17T10:34:37Z</time></trkpt><trkpt lat="14.376969379279103" lon="120.95057197782431"><ele>42.0</ele><time>2026-04-17T10:34:38Z</time></trkpt><trkpt lat="14.377026997857696" lon="120.95072107066636"><ele>42.0</ele><time>2026-04-17T10:34:39Z</time></trkpt><trkpt lat="14.377077551747508" lon="120.95086595579242"><ele>42.0</ele><time>2026-04-17T10:34:40Z</time></trkpt><trkpt lat="14.377133330824329" lon="120.95102090791113"><ele>42.333333333333336</ele><time>2026-04-17T10:34:41Z</time></trkpt><trkpt lat="14.377188174432385" lon="120.95117986941196"><ele>42.66666666666667</ele><time>2026-04-17T10:34:42Z</time></trkpt><trkpt lat="14.377241468052999" lon="120.95134229771531"><ele>43.0</ele><time>2026-04-17T10:34:43Z</time></trkpt><trkpt lat="14.377297740772978" lon="120.95151012630517"><ele>43.0</ele><time>2026-04-17T10:34:44Z</time></trkpt><trkpt lat="14.377354762205881" lon="120.95167961245161"><ele>43.0</ele><time>2026-04-17T10:34:45Z</time></trkpt><trkpt lat="14.377417284173381" lon="120.95185454788549"><ele>43.0</ele><time>2026-04-17T10:34:46Z</time></trkpt><trkpt lat="14.377480421851823" lon="120.95203174708705"><ele>43.66666666666667</ele><time>2026-04-17T10:34:47Z</time></trkpt><trkpt lat="14.377543229033614" lon="120.95220600939297"><ele>44.333333333333336</ele><time>2026-04-17T10:34:48Z</time></trkpt><trkpt lat="14.377605950602069" lon="120.95238420420216"><ele>45.0</ele><time>2026-04-17T10:34:49Z</time></trkpt><trkpt lat="14.377667568877524" lon="120.95255999755581"><ele>45.0</ele><time>2026-04-17T10:34:50Z</time></trkpt><trkpt lat="14.377735770870153" lon="120.95273464202815"><ele>45.0</ele><time>2026-04-17T10:34:51Z</time></trkpt><trkpt lat="14.377813307694616" lon="120.95290638781356"><ele>45.0</ele><time>2026-04-17T10:34:52Z</time></trkpt><trkpt lat="14.377899016156404" lon="120.95307631024814"><ele>45.0</ele><time>2026-04-17T10:34:53Z</time></trkpt><trkpt lat="14.377992420063888" lon="120.95324355033988"><ele>45.0</ele><time>2026-04-17T10:34:54Z</time></trkpt><trkpt lat="14.378099880269348" lon="120.95341168920896"><ele>45.0</ele><time>2026-04-17T10:34:55Z</time></trkpt><trkpt lat="14.378211670441924" lon="120.95357884746682"><ele>44.666666666666664</ele><time>2026-04-17T10:34:56Z</time></trkpt><trkpt lat="14.378325336299163" lon="120.95374069921145"><ele>44.33333333333333</ele><time>2026-04-17T10:34:57Z</time></trkpt><trkpt lat="14.378445343454912" lon="120.9538989200201"><ele>44.0</ele><time>2026-04-17T10:34:58Z</time></trkpt><trkpt lat="14.37857212045852" lon="120.95405205727009"><ele>44.0</ele><time>2026-04-17T10:34:59Z</time></trkpt><trkpt lat="14.378701727049947" lon="120.95419801934034"><ele>44.0</ele><time>2026-04-17T10:35:00Z</time></trkpt><trkpt lat="14.37883764411196" lon="120.95434733101519"><ele>44.0</ele><time>2026-04-17T10:35:01Z</time></trkpt><trkpt lat="14.378975101724588" lon="120.95449881689892"><ele>43.666666666666664</ele><time>2026-04-17T10:35:02Z</time></trkpt><trkpt lat="14.379111354562802" lon="120.95465112426542"><ele>43.333333333333336</ele><time>2026-04-17T10:35:03Z</time></trkpt><trkpt lat="14.379243611177644" lon="120.95480725145916"><ele>43.0</ele><time>2026-04-17T10:35:04Z</time></trkpt><trkpt lat="14.37937839675938" lon="120.95496297877378"><ele>43.333333333333336</ele><time>2026-04-17T10:35:05Z</time></trkpt><trkpt lat="14.379513901094532" lon="120.95511431706326"><ele>43.666666666666664</ele><time>2026-04-17T10:35:06Z</time></trkpt><trkpt lat="14.379646477752848" lon="120.95526371623448"><ele>44.0</ele><time>2026-04-17T10:35:07Z</time></trkpt><trkpt lat="14.3797703720926" lon="120.95540686685652"><ele>43.0</ele><time>2026-04-17T10:35:08Z</time></trkpt><trkpt lat="14.379887240077842" lon="120.95553845362981"><ele>42.0</ele><time>2026-04-17T10:35:09Z</time></trkpt><trkpt lat="14.380002238297484" lon="120.95566820111503"><ele>41.0</ele><time>2026-04-17T10:35:10Z</time></trkpt><trkpt lat="14.380112921669262" lon="120.95579441567632"><ele>41.0</ele><time>2026-04-17T10:35:11Z</time></trkpt><trkpt lat="14.380222999052732" lon="120.9559173279518"><ele>41.0</ele><time>2026-04-17T10:35:12Z</time></trkpt><trkpt lat="14.38032239316955" lon="120.95602833585605"><ele>41.0</ele><time>2026-04-17T10:35:13Z</time></trkpt><trkpt lat="14.380425032541575" lon="120.95614606929732"><ele>41.5</ele><time>2026-04-17T10:35:14Z</time></trkpt><trkpt lat="14.380523824931327" lon="120.95626127030148"><ele>42.0</ele><time>2026-04-17T10:35:15Z</time></trkpt><trkpt lat="14.380623656400665" lon="120.95637573814241"><ele>42.5</ele><time>2026-04-17T10:35:16Z</time></trkpt><trkpt lat="14.380720057893834" lon="120.95648476150112"><ele>43.0</ele><time>2026-04-17T10:35:17Z</time></trkpt><trkpt lat="14.380806927134223" lon="120.95658203541709"><ele>43.0</ele><time>2026-04-17T10:35:18Z</time></trkpt><trkpt lat="14.380892568398611" lon="120.95667293406287"><ele>43.0</ele><time>2026-04-17T10:35:19Z</time></trkpt><trkpt lat="14.380966805322014" lon="120.9567533437751"><ele>43.0</ele><time>2026-04-17T10:35:20Z</time></trkpt><trkpt lat="14.381033829731178" lon="120.95682229325"><ele>43.0</ele><time>2026-04-17T10:35:21Z</time></trkpt><trkpt lat="14.381105891848796" lon="120.95689206896522"><ele>43.0</ele><time>2026-04-17T10:35:22Z</time></trkpt><trkpt lat="14.38117434064348" lon="120.95697264496384"><ele>43.0</ele><time>2026-04-17T10:35:23Z</time></trkpt><trkpt lat="14.38124285249949" lon="120.95705474721264"><ele>43.0</ele><time>2026-04-17T10:35:24Z</time></trkpt><trkpt lat="14.381322277630238" lon="120.95713492085741"><ele>43.0</ele><time>2026-04-17T10:35:25Z</time></trkpt><trkpt lat="14.381407215391791" lon="120.9572188734114"><ele>43.0</ele><time>2026-04-17T10:35:26Z</time></trkpt><trkpt lat="14.381493656040123" lon="120.95730024135212"><ele>43.0</ele><time>2026-04-17T10:35:27Z</time></trkpt><trkpt lat="14.381578993310164" lon="120.95737910199779"><ele>43.0</ele><time>2026-04-17T10:35:28Z</time></trkpt><trkpt lat="14.381661593987298" lon="120.95745515664379"><ele>43.0</ele><time>2026-04-17T10:35:29Z</time></trkpt><trkpt lat="14.381740231985836" lon="120.95752785612082"><ele>43.0</ele><time>2026-04-17T10:35:30Z</time></trkpt><trkpt lat="14.381820918128073" lon="120.9575966458092"><ele>43.0</ele><time>2026-04-17T10:35:31Z</time></trkpt><trkpt lat="14.381900891051114" lon="120.95766041811065"><ele>42.833333333333336</ele><time>2026-04-17T10:35:32Z</time></trkpt><trkpt lat="14.38197374854839" lon="120.95772082143593"><ele>42.66666666666667</ele><time>2026-04-17T10:35:33Z</time></trkpt><trkpt lat="14.382043847307093" lon="120.95777556348777"><ele>42.5</ele><time>2026-04-17T10:35:34Z</time></trkpt><trkpt lat="14.382109246400548" lon="120.95782780663588"><ele>42.333333333333336</ele><time>2026-04-17T10:35:35Z</time></trkpt><trkpt lat="14.3821727505357" lon="120.95787527287561"><ele>42.166666666666664</ele><time>2026-04-17T10:35:36Z</time></trkpt><trkpt lat="14.382233850367895" lon="120.95792178475297"><ele>42.0</ele><time>2026-04-17T10:35:37Z</time></trkpt><trkpt lat="14.382292532706105" lon="120.95796480197895"><ele>41.833333333333336</ele><time>2026-04-17T10:35:38Z</time></trkpt><trkpt lat="14.382386773145663" lon="120.9580298832252"><ele>41.666666666666664</ele><time>2026-04-17T10:35:40Z</time></trkpt><trkpt lat="14.38245072571063" lon="120.958071695796"><ele>41.5</ele><time>2026-04-17T10:35:42Z</time></trkpt><trkpt lat="14.382498754402823" lon="120.95812761842981"><ele>41.33333333333333</ele><time>2026-04-17T10:35:45Z</time></trkpt><trkpt lat="14.382546245690262" lon="120.9581780591271"><ele>41.166666666666664</ele><time>2026-04-17T10:35:49Z</time></trkpt><trkpt lat="14.382606025611407" lon="120.95822115347909"><ele>41.0</ele><time>2026-04-17T10:36:10Z</time></trkpt><trkpt lat="14.382700893695882" lon="120.95828730668434"><ele>41.0</ele><time>2026-04-17T10:36:12Z</time></trkpt><trkpt lat="14.382769334443983" lon="120.95833517250466"><ele>41.0</ele><time>2026-04-17T10:36:13Z</time></trkpt><trkpt lat="14.382849238076638" lon="120.9584070800917"><ele>41.0</ele><time>2026-04-17T10:36:14Z</time></trkpt><trkpt lat="14.38294907781873" lon="120.95847516649245"><ele>41.0</ele><time>2026-04-17T10:36:15Z</time></trkpt><trkpt lat="14.383068719868204" lon="120.95854999398789"><ele>41.0</ele><time>2026-04-17T10:36:16Z</time></trkpt><trkpt lat="14.383190501997332" lon="120.95862739526468"><ele>41.5</ele><time>2026-04-17T10:36:17Z</time></trkpt><trkpt lat="14.383309020524582" lon="120.95870703488522"><ele>42.0</ele><time>2026-04-17T10:36:18Z</time></trkpt><trkpt lat="14.38342722689976" lon="120.95878866200479"><ele>42.5</ele><time>2026-04-17T10:36:19Z</time></trkpt><trkpt lat="14.38354427169269" lon="120.9588716508844"><ele>43.0</ele><time>2026-04-17T10:36:20Z</time></trkpt><trkpt lat="14.383666156506235" lon="120.95894988093232"><ele>43.0</ele><time>2026-04-17T10:36:21Z</time></trkpt><trkpt lat="14.383783633616687" lon="120.95903142591634"><ele>43.0</ele><time>2026-04-17T10:36:22Z</time></trkpt><trkpt lat="14.383907469755846" lon="120.95911287428605"><ele>43.0</ele><time>2026-04-17T10:36:23Z</time></trkpt><trkpt lat="14.384036267489249" lon="120.95919563427482"><ele>43.0</ele><time>2026-04-17T10:36:24Z</time></trkpt><trkpt lat="14.384161323740871" lon="120.95928107204558"><ele>42.66666666666667</ele><time>2026-04-17T10:36:25Z</time></trkpt><trkpt lat="14.384290767357587" lon="120.95937249170471"><ele>42.333333333333336</ele><time>2026-04-17T10:36:26Z</time></trkpt><trkpt lat="14.384416526290714" lon="120.95946309052799"><ele>42.0</ele><time>2026-04-17T10:36:27Z</time></trkpt><trkpt lat="14.384551957108986" lon="120.95953548289619"><ele>42.0</ele><time>2026-04-17T10:36:28Z</time></trkpt><trkpt lat="14.384669487036348" lon="120.95961479861484"><ele>42.0</ele><time>2026-04-17T10:36:29Z</time></trkpt><trkpt lat="14.38477318644469" lon="120.95968715331404"><ele>42.0</ele><time>2026-04-17T10:36:30Z</time></trkpt><trkpt lat="14.384873290288146" lon="120.95975801128274"><ele>42.0</ele><time>2026-04-17T10:36:31Z</time></trkpt><trkpt lat="14.38495263905806" lon="120.95983491402075"><ele>42.25</ele><time>2026-04-17T10:36:32Z</time></trkpt><trkpt lat="14.385047656813281" lon="120.95989789354412"><ele>42.5</ele><time>2026-04-17T10:36:33Z</time></trkpt><trkpt lat="14.38514490080903" lon="120.95995961417849"><ele>42.75</ele><time>2026-04-17T10:36:34Z</time></trkpt><trkpt lat="14.385246436624135" lon="120.9600250628754"><ele>43.0</ele><time>2026-04-17T10:36:35Z</time></trkpt><trkpt lat="14.385352780574431" lon="120.96009271308951"><ele>43.0</ele><time>2026-04-17T10:36:36Z</time></trkpt><trkpt lat="14.385454235992578" lon="120.96016351181574"><ele>43.0</ele><time>2026-04-17T10:36:37Z</time></trkpt><trkpt lat="14.385556333978514" lon="120.96024044883096"><ele>43.0</ele><time>2026-04-17T10:36:38Z</time></trkpt><trkpt lat="14.385656168445935" lon="120.96032114030615"><ele>43.0</ele><time>2026-04-17T10:36:39Z</time></trkpt><trkpt lat="14.38573917664311" lon="120.96039561592384"><ele>42.75</ele><time>2026-04-17T10:36:40Z</time></trkpt><trkpt lat="14.385832413833304" lon="120.96048097526106"><ele>42.5</ele><time>2026-04-17T10:36:41Z</time></trkpt><trkpt lat="14.385921057651093" lon="120.96056750655336"><ele>42.25</ele><time>2026-04-17T10:36:42Z</time></trkpt><trkpt lat="14.386013896562549" lon="120.9606654751486"><ele>42.0</ele><time>2026-04-17T10:36:43Z</time></trkpt><trkpt lat="14.386087150371155" lon="120.96075108414603"><ele>42.0</ele><time>2026-04-17T10:36:44Z</time></trkpt><trkpt lat="14.386157281482527" lon="120.96083411581046"><ele>42.0</ele><time>2026-04-17T10:36:45Z</time></trkpt><trkpt lat="14.38626413936382" lon="120.96094752327129"><ele>42.0</ele><time>2026-04-17T10:36:46Z</time></trkpt><trkpt lat="14.386334367860808" lon="120.9610378539636"><ele>42.0</ele><time>2026-04-17T10:36:47Z</time></trkpt><trkpt lat="14.386392234881557" lon="120.96112930210407"><ele>41.333333333333336</ele><time>2026-04-17T10:36:48Z</time></trkpt><trkpt lat="14.386440149485974" lon="120.96122787238788"><ele>40.666666666666664</ele><time>2026-04-17T10:36:49Z</time></trkpt><trkpt lat="14.38648111980762" lon="120.96131595948556"><ele>40.0</ele><time>2026-04-17T10:36:50Z</time></trkpt><trkpt lat="14.386520478464671" lon="120.96139391780284"><ele>39.33333333333333</ele><time>2026-04-17T10:36:51Z</time></trkpt><trkpt lat="14.386559685442865" lon="120.96146794519733"><ele>38.666666666666664</ele><time>2026-04-17T10:36:52Z</time></trkpt><trkpt lat="14.386595848398297" lon="120.96154009852943"><ele>38.0</ele><time>2026-04-17T10:36:53Z</time></trkpt><trkpt lat="14.38663263440687" lon="120.9616119683006"><ele>38.0</ele><time>2026-04-17T10:36:54Z</time></trkpt><trkpt lat="14.386667247304366" lon="120.96168055442797"><ele>38.0</ele><time>2026-04-17T10:36:55Z</time></trkpt><trkpt lat="14.386704318218666" lon="120.96175551927654"><ele>38.0</ele><time>2026-04-17T10:36:56Z</time></trkpt><trkpt lat="14.386745078703774" lon="120.96183916677906"><ele>38.0</ele><time>2026-04-17T10:36:57Z</time></trkpt><trkpt lat="14.386781550249056" lon="120.96191692612683"><ele>38.0</ele><time>2026-04-17T10:36:58Z</time></trkpt><trkpt lat="14.386816240348269" lon="120.96198075747337"><ele>38.0</ele><time>2026-04-17T10:36:59Z</time></trkpt><trkpt lat="14.386877756398246" lon="120.96208440310855"><ele>38.5</ele><time>2026-04-17T10:37:01Z</time></trkpt><trkpt lat="14.386926055764045" lon="120.96218821287133"><ele>39.0</ele><time>2026-04-17T10:37:03Z</time></trkpt><trkpt lat="14.386951946424183" lon="120.96225578155291"><ele>39.5</ele><time>2026-04-17T10:37:03.999Z</time></trkpt><trkpt lat="14.386988145302086" lon="120.96233613652804"><ele>40.0</ele><time>2026-04-17T10:37:04.999Z</time></trkpt><trkpt lat="14.387024557106706" lon="120.96240000158697"><ele>40.5</ele><time>2026-04-17T10:37:05.999Z</time></trkpt><trkpt lat="14.38705566997848" lon="120.96246786190854"><ele>41.0</ele><time>2026-04-17T10:37:06.999Z</time></trkpt><trkpt lat="14.387094036648463" lon="120.96254282945668"><ele>41.0</ele><time>2026-04-17T10:37:07.999Z</time></trkpt><trkpt lat="14.387127730452871" lon="120.9626173024354"><ele>41.0</ele><time>2026-04-17T10:37:08.999Z</time></trkpt><trkpt lat="14.387168040306495" lon="120.96269993708877"><ele>41.0</ele><time>2026-04-17T10:37:09.999Z</time></trkpt><trkpt lat="14.38721054464338" lon="120.96278379958653"><ele>41.0</ele><time>2026-04-17T10:37:10.999Z</time></trkpt><trkpt lat="14.38725377424559" lon="120.96287792518024"><ele>41.0</ele><time>2026-04-17T10:37:11.999Z</time></trkpt><trkpt lat="14.387300743079258" lon="120.96297944367255"><ele>41.0</ele><time>2026-04-17T10:37:12.999Z</time></trkpt><trkpt lat="14.387345415648639" lon="120.96308348247038"><ele>41.0</ele><time>2026-04-17T10:37:13.999Z</time></trkpt><trkpt lat="14.387393475451221" lon="120.96319430428012"><ele>41.0</ele><time>2026-04-17T10:37:14.999Z</time></trkpt><trkpt lat="14.387440285295975" lon="120.96330225377937"><ele>41.0</ele><time>2026-04-17T10:37:15.999Z</time></trkpt><trkpt lat="14.387485108976119" lon="120.96340388682704"><ele>41.199999999999996</ele><time>2026-04-17T10:37:16.999Z</time></trkpt><trkpt lat="14.387527545262731" lon="120.96349977518257"><ele>41.4</ele><time>2026-04-17T10:37:17.999Z</time></trkpt><trkpt lat="14.387571856029536" lon="120.96359800697824"><ele>41.6</ele><time>2026-04-17T10:37:18.999Z</time></trkpt><trkpt lat="14.387619318960535" lon="120.96369627792923"><ele>41.8</ele><time>2026-04-17T10:37:20Z</time></trkpt><trkpt lat="14.387667577134835" lon="120.9637908870302"><ele>42.0</ele><time>2026-04-17T10:37:21Z</time></trkpt><trkpt lat="14.387721373864036" lon="120.96389443763807"><ele>42.0</ele><time>2026-04-17T10:37:22Z</time></trkpt><trkpt lat="14.387772561872756" lon="120.96398952533676"><ele>42.0</ele><time>2026-04-17T10:37:23Z</time></trkpt><trkpt lat="14.387816275473554" lon="120.96407902115729"><ele>42.0</ele><time>2026-04-17T10:37:24Z</time></trkpt><trkpt lat="14.387857216862157" lon="120.96417112617513"><ele>42.0</ele><time>2026-04-17T10:37:25Z</time></trkpt><trkpt lat="14.387897182051855" lon="120.96426156958651"><ele>42.0</ele><time>2026-04-17T10:37:26Z</time></trkpt><trkpt lat="14.387937731414295" lon="120.96435347920242"><ele>42.2</ele><time>2026-04-17T10:37:27Z</time></trkpt><trkpt lat="14.387977785985587" lon="120.964445104352"><ele>42.400000000000006</ele><time>2026-04-17T10:37:28Z</time></trkpt><trkpt lat="14.388013291669111" lon="120.96453215273677"><ele>42.599999999999994</ele><time>2026-04-17T10:37:29Z</time></trkpt><trkpt lat="14.388042438155193" lon="120.96461495835787"><ele>42.8</ele><time>2026-04-17T10:37:30Z</time></trkpt><trkpt lat="14.388080485144423" lon="120.96471165204018"><ele>43.0</ele><time>2026-04-17T10:37:31Z</time></trkpt><trkpt lat="14.388109056164536" lon="120.96479696291783"><ele>43.0</ele><time>2026-04-17T10:37:32Z</time></trkpt><trkpt lat="14.388139815927412" lon="120.9648884402885"><ele>43.0</ele><time>2026-04-17T10:37:33Z</time></trkpt><trkpt lat="14.388170428619938" lon="120.96498099586178"><ele>43.0</ele><time>2026-04-17T10:37:34Z</time></trkpt><trkpt lat="14.388203706044399" lon="120.96507795375597"><ele>43.0</ele><time>2026-04-17T10:37:35Z</time></trkpt><trkpt lat="14.388227804885815" lon="120.96515247703948"><ele>43.0</ele><time>2026-04-17T10:37:36Z</time></trkpt><trkpt lat="14.388267227962244" lon="120.96525985016808"><ele>43.16666666666667</ele><time>2026-04-17T10:37:38Z</time></trkpt><trkpt lat="14.388294745391471" lon="120.96532797347359"><ele>43.333333333333336</ele><time>2026-04-17T10:37:40Z</time></trkpt><trkpt lat="14.38831958133227" lon="120.96540113223138"><ele>43.5</ele><time>2026-04-17T10:37:42Z</time></trkpt><trkpt lat="14.388345413948134" lon="120.96546813485341"><ele>43.666666666666664</ele><time>2026-04-17T10:37:43Z</time></trkpt><trkpt lat="14.38837065097231" lon="120.96554202005397"><ele>43.83333333333333</ele><time>2026-04-17T10:37:44Z</time></trkpt><trkpt lat="14.388395367210403" lon="120.96564940806931"><ele>44.0</ele><time>2026-04-17T10:37:45Z</time></trkpt><trkpt lat="14.388418603335495" lon="120.96575909669055"><ele>44.25</ele><time>2026-04-17T10:37:46Z</time></trkpt><trkpt lat="14.388442528984195" lon="120.96588056656203"><ele>44.5</ele><time>2026-04-17T10:37:47Z</time></trkpt><trkpt lat="14.388473686669291" lon="120.96601378160304"><ele>44.75</ele><time>2026-04-17T10:37:48Z</time></trkpt><trkpt lat="14.388500615333761" lon="120.96613134463834"><ele>45.0</ele><time>2026-04-17T10:37:49Z</time></trkpt><trkpt lat="14.388529604698217" lon="120.96625458030482"><ele>45.0</ele><time>2026-04-17T10:37:50Z</time></trkpt><trkpt lat="14.388556175867619" lon="120.9663697252913"><ele>45.0</ele><time>2026-04-17T10:37:51Z</time></trkpt><trkpt lat="14.388579868581667" lon="120.96647320688771"><ele>45.0</ele><time>2026-04-17T10:37:52Z</time></trkpt><trkpt lat="14.388599683893926" lon="120.96656830840168"><ele>45.0</ele><time>2026-04-17T10:37:53Z</time></trkpt><trkpt lat="14.388618671930358" lon="120.96665907132717"><ele>45.0</ele><time>2026-04-17T10:37:54Z</time></trkpt><trkpt lat="14.388637710782097" lon="120.96674568224174"><ele>45.166666666666664</ele><time>2026-04-17T10:37:55Z</time></trkpt><trkpt lat="14.388653298190118" lon="120.9668256917341"><ele>45.333333333333336</ele><time>2026-04-17T10:37:56Z</time></trkpt><trkpt lat="14.388671813948237" lon="120.96690685319265"><ele>45.5</ele><time>2026-04-17T10:37:57Z</time></trkpt><trkpt lat="14.388685301924422" lon="120.96697983671724"><ele>45.66666666666667</ele><time>2026-04-17T10:37:58Z</time></trkpt><trkpt lat="14.388695639605618" lon="120.9670452083456"><ele>45.833333333333336</ele><time>2026-04-17T10:37:59Z</time></trkpt><trkpt lat="14.388705006793728" lon="120.96715862657985"><ele>46.0</ele><time>2026-04-17T10:38:01Z</time></trkpt><trkpt lat="14.388710353318961" lon="120.96722606896299"><ele>46.0</ele><time>2026-04-17T10:38:02Z</time></trkpt><trkpt lat="14.38871659470169" lon="120.96729245199678"><ele>46.0</ele><time>2026-04-17T10:38:03Z</time></trkpt><trkpt lat="14.388723971534546" lon="120.96741319480455"><ele>46.0</ele><time>2026-04-17T10:38:05Z</time></trkpt><trkpt lat="14.388727537245217" lon="120.9674896590983"><ele>46.0</ele><time>2026-04-17T10:38:06Z</time></trkpt><trkpt lat="14.388728167093193" lon="120.96757071350751"><ele>46.0</ele><time>2026-04-17T10:38:07Z</time></trkpt><trkpt lat="14.388728468906416" lon="120.96766873004202"><ele>46.0</ele><time>2026-04-17T10:38:08Z</time></trkpt><trkpt lat="14.388728807030265" lon="120.96777515186163"><ele>45.75</ele><time>2026-04-17T10:38:09Z</time></trkpt><trkpt lat="14.388732687948677" lon="120.96789517218734"><ele>45.5</ele><time>2026-04-17T10:38:10Z</time></trkpt><trkpt lat="14.388739115398014" lon="120.96802756673911"><ele>45.25</ele><time>2026-04-17T10:38:11Z</time></trkpt><trkpt lat="14.388739664554459" lon="120.96817425965484"><ele>45.0</ele><time>2026-04-17T10:38:12Z</time></trkpt><trkpt lat="14.388737103210506" lon="120.96832526177151"><ele>44.5</ele><time>2026-04-17T10:38:13Z</time></trkpt><trkpt lat="14.388722704520278" lon="120.96847660827459"><ele>44.0</ele><time>2026-04-17T10:38:14Z</time></trkpt><trkpt lat="14.388694714006714" lon="120.96862933448314"><ele>43.5</ele><time>2026-04-17T10:38:15Z</time></trkpt><trkpt lat="14.388658647793836" lon="120.96875310727272"><ele>43.0</ele><time>2026-04-17T10:38:16Z</time></trkpt><trkpt lat="14.388621173041281" lon="120.96885026815477"><ele>43.0</ele><time>2026-04-17T10:38:17Z</time></trkpt><trkpt lat="14.3885925358162" lon="120.96894011216838"><ele>43.0</ele><time>2026-04-17T10:38:18Z</time></trkpt><trkpt lat="14.388570253521475" lon="120.96903558358161"><ele>43.0</ele><time>2026-04-17T10:38:19Z</time></trkpt><trkpt lat="14.388542720634081" lon="120.96915421607744"><ele>43.0</ele><time>2026-04-17T10:38:20Z</time></trkpt><trkpt lat="14.38851052109168" lon="120.96925876849652"><ele>43.0</ele><time>2026-04-17T10:38:21Z</time></trkpt><trkpt lat="14.388474323102333" lon="120.9693803736503"><ele>43.5</ele><time>2026-04-17T10:38:22Z</time></trkpt><trkpt lat="14.388436899339638" lon="120.96951277646276"><ele>44.0</ele><time>2026-04-17T10:38:23Z</time></trkpt><trkpt lat="14.38840354054469" lon="120.96963731157047"><ele>44.5</ele><time>2026-04-17T10:38:24Z</time></trkpt><trkpt lat="14.388363139260758" lon="120.96976293584036"><ele>45.0</ele><time>2026-04-17T10:38:25Z</time></trkpt><trkpt lat="14.3883156584527" lon="120.96988162230295"><ele>45.0</ele><time>2026-04-17T10:38:26Z</time></trkpt><trkpt lat="14.388258353988844" lon="120.96999502435587"><ele>45.0</ele><time>2026-04-17T10:38:27Z</time></trkpt><trkpt lat="14.388190737227882" lon="120.97010048310851"><ele>45.0</ele><time>2026-04-17T10:38:28Z</time></trkpt><trkpt lat="14.388119984681502" lon="120.97019545868328"><ele>45.0</ele><time>2026-04-17T10:38:29Z</time></trkpt><trkpt lat="14.388048834855296" lon="120.97028030728144"><ele>45.0</ele><time>2026-04-17T10:38:30Z</time></trkpt><trkpt lat="14.387984933118455" lon="120.97036363281183"><ele>45.0</ele><time>2026-04-17T10:38:31Z</time></trkpt><trkpt lat="14.387921433704165" lon="120.97045614672413"><ele>45.0</ele><time>2026-04-17T10:38:32Z</time></trkpt><trkpt lat="14.387866826096932" lon="120.97055072131761"><ele>45.0</ele><time>2026-04-17T10:38:33Z</time></trkpt><trkpt lat="14.387818457867125" lon="120.97065476749448"><ele>45.0</ele><time>2026-04-17T10:38:34Z</time></trkpt><trkpt lat="14.387781460017978" lon="120.97074641609152"><ele>45.0</ele><time>2026-04-17T10:38:35Z</time></trkpt><trkpt lat="14.38774781746228" lon="120.97085190464516"><ele>45.0</ele><time>2026-04-17T10:38:36Z</time></trkpt><trkpt lat="14.387718289957837" lon="120.97094224949672"><ele>45.0</ele><time>2026-04-17T10:38:37Z</time></trkpt><trkpt lat="14.387690842352484" lon="120.97105681053763"><ele>45.0</ele><time>2026-04-17T10:38:38Z</time></trkpt><trkpt lat="14.38766341788421" lon="120.97117483233248"><ele>45.0</ele><time>2026-04-17T10:38:39Z</time></trkpt><trkpt lat="14.387633264980105" lon="120.97129796004569"><ele>44.25</ele><time>2026-04-17T10:38:40Z</time></trkpt><trkpt lat="14.387600904125296" lon="120.97142332711051"><ele>43.5</ele><time>2026-04-17T10:38:41Z</time></trkpt><trkpt lat="14.387562044738038" lon="120.97155677391773"><ele>42.75</ele><time>2026-04-17T10:38:42Z</time></trkpt><trkpt lat="14.387523425515775" lon="120.97167556968235"><ele>42.0</ele><time>2026-04-17T10:38:43Z</time></trkpt><trkpt lat="14.387486485245176" lon="120.97179355331659"><ele>42.0</ele><time>2026-04-17T10:38:44Z</time></trkpt><trkpt lat="14.387454965163412" lon="120.97189402389631"><ele>42.0</ele><time>2026-04-17T10:38:45Z</time></trkpt><trkpt lat="14.387426192354813" lon="120.97199489389436"><ele>42.0</ele><time>2026-04-17T10:38:46Z</time></trkpt><trkpt lat="14.387399036969924" lon="120.97208532448442"><ele>42.0</ele><time>2026-04-17T10:38:47Z</time></trkpt><trkpt lat="14.387374652610731" lon="120.97217199221886"><ele>42.0</ele><time>2026-04-17T10:38:48Z</time></trkpt><trkpt lat="14.387350540848484" lon="120.9722634472552"><ele>42.0</ele><time>2026-04-17T10:38:49Z</time></trkpt><trkpt lat="14.387315773530801" lon="120.97236478478241"><ele>42.0</ele><time>2026-04-17T10:38:50Z</time></trkpt><trkpt lat="14.387295463804243" lon="120.97247079168667"><ele>42.0</ele><time>2026-04-17T10:38:51Z</time></trkpt><trkpt lat="14.38727155607553" lon="120.97257346581554"><ele>42.0</ele><time>2026-04-17T10:38:52Z</time></trkpt><trkpt lat="14.387242861622765" lon="120.97268578907008"><ele>42.0</ele><time>2026-04-17T10:38:53Z</time></trkpt><trkpt lat="14.387217349485343" lon="120.97279229849285"><ele>42.0</ele><time>2026-04-17T10:38:54Z</time></trkpt><trkpt lat="14.387193200831348" lon="120.97288717437372"><ele>42.0</ele><time>2026-04-17T10:38:55Z</time></trkpt><trkpt lat="14.38716752166163" lon="120.97298618667763"><ele>42.0</ele><time>2026-04-17T10:38:56Z</time></trkpt><trkpt lat="14.387134552893563" lon="120.97309168231912"><ele>42.0</ele><time>2026-04-17T10:38:57Z</time></trkpt><trkpt lat="14.387100877683777" lon="120.97320336868007"><ele>42.0</ele><time>2026-04-17T10:38:58Z</time></trkpt><trkpt lat="14.38707127959807" lon="120.97331722772758"><ele>42.75</ele><time>2026-04-17T10:38:59Z</time></trkpt><trkpt lat="14.387035832252572" lon="120.97343942747145"><ele>43.5</ele><time>2026-04-17T10:39:00Z</time></trkpt><trkpt lat="14.387000089963749" lon="120.97357336950984"><ele>44.25</ele><time>2026-04-17T10:39:01Z</time></trkpt><trkpt lat="14.386969048284708" lon="120.9737019038261"><ele>45.0</ele><time>2026-04-17T10:39:02Z</time></trkpt><trkpt lat="14.386934961056644" lon="120.97382496333138"><ele>45.0</ele><time>2026-04-17T10:39:03Z</time></trkpt><trkpt lat="14.386907545152157" lon="120.97393402102648"><ele>45.0</ele><time>2026-04-17T10:39:04Z</time></trkpt><trkpt lat="14.386882823565694" lon="120.97405173151031"><ele>45.0</ele><time>2026-04-17T10:39:05Z</time></trkpt><trkpt lat="14.38686130847851" lon="120.97417039750886"><ele>45.0</ele><time>2026-04-17T10:39:06Z</time></trkpt><trkpt lat="14.386845312868175" lon="120.97428663410972"><ele>45.4</ele><time>2026-04-17T10:39:07Z</time></trkpt><trkpt lat="14.386833803432816" lon="120.97440282411935"><ele>45.8</ele><time>2026-04-17T10:39:08Z</time></trkpt><trkpt lat="14.386819476134233" lon="120.97451913226489"><ele>46.2</ele><time>2026-04-17T10:39:09Z</time></trkpt><trkpt lat="14.386804689371756" lon="120.97461425671112"><ele>46.6</ele><time>2026-04-17T10:39:09.999Z</time></trkpt><trkpt lat="14.386778523444816" lon="120.97471051406393"><ele>47.0</ele><time>2026-04-17T10:39:10.999Z</time></trkpt><trkpt lat="14.386747215902643" lon="120.97480991169026"><ele>47.0</ele><time>2026-04-17T10:39:11.999Z</time></trkpt><trkpt lat="14.386716064536488" lon="120.97489873135056"><ele>47.0</ele><time>2026-04-17T10:39:12.999Z</time></trkpt><trkpt lat="14.386688552861921" lon="120.97498075943768"><ele>47.0</ele><time>2026-04-17T10:39:13.999Z</time></trkpt><trkpt lat="14.386659558357412" lon="120.97506774297806"><ele>47.0</ele><time>2026-04-17T10:39:14.999Z</time></trkpt><trkpt lat="14.386633834662135" lon="120.97515114776111"><ele>47.0</ele><time>2026-04-17T10:39:15.999Z</time></trkpt><trkpt lat="14.386603432942398" lon="120.97524310552228"><ele>47.0</ele><time>2026-04-17T10:39:16.999Z</time></trkpt><trkpt lat="14.38657118156551" lon="120.97534653442517"><ele>47.0</ele><time>2026-04-17T10:39:17.999Z</time></trkpt><trkpt lat="14.38654751803036" lon="120.97544134044789"><ele>47.0</ele><time>2026-04-17T10:39:18.999Z</time></trkpt><trkpt lat="14.386522785177386" lon="120.97555155221515"><ele>47.0</ele><time>2026-04-17T10:39:20Z</time></trkpt><trkpt lat="14.38649870970595" lon="120.97566291429291"><ele>47.0</ele><time>2026-04-17T10:39:20.999Z</time></trkpt><trkpt lat="14.386472371837575" lon="120.97577101200545"><ele>47.0</ele><time>2026-04-17T10:39:21.999Z</time></trkpt><trkpt lat="14.386443416464692" lon="120.97586936021214"><ele>47.0</ele><time>2026-04-17T10:39:22.999Z</time></trkpt><trkpt lat="14.386414538737865" lon="120.97597008125122"><ele>47.0</ele><time>2026-04-17T10:39:23.999Z</time></trkpt><trkpt lat="14.386392866741561" lon="120.97606580885459"><ele>47.0</ele><time>2026-04-17T10:39:24.999Z</time></trkpt><trkpt lat="14.3863724730867" lon="120.97616132373433"><ele>47.0</ele><time>2026-04-17T10:39:25.999Z</time></trkpt><trkpt lat="14.38634394411411" lon="120.97626557772023"><ele>47.0</ele><time>2026-04-17T10:39:26.999Z</time></trkpt><trkpt lat="14.386315137249898" lon="120.97638079912004"><ele>46.8</ele><time>2026-04-17T10:39:27.999Z</time></trkpt><trkpt lat="14.386282999064626" lon="120.97649114179009"><ele>46.6</ele><time>2026-04-17T10:39:28.999Z</time></trkpt><trkpt lat="14.386249511231169" lon="120.97660387988894"><ele>46.4</ele><time>2026-04-17T10:39:30Z</time></trkpt><trkpt lat="14.386215308294943" lon="120.9767131006045"><ele>46.199999999999996</ele><time>2026-04-17T10:39:31Z</time></trkpt><trkpt lat="14.386186400705839" lon="120.97680455910323"><ele>46.0</ele><time>2026-04-17T10:39:32Z</time></trkpt><trkpt lat="14.38616356771109" lon="120.97688169334936"><ele>46.0</ele><time>2026-04-17T10:39:33Z</time></trkpt><trkpt lat="14.386141773329896" lon="120.97696574905986"><ele>46.0</ele><time>2026-04-17T10:39:34Z</time></trkpt><trkpt lat="14.386121262954003" lon="120.97706006274075"><ele>46.0</ele><time>2026-04-17T10:39:35Z</time></trkpt><trkpt lat="14.386102726751641" lon="120.97713493245159"><ele>46.0</ele><time>2026-04-17T10:39:36Z</time></trkpt><trkpt lat="14.3860855031992" lon="120.97720299745977"><ele>46.0</ele><time>2026-04-17T10:39:37Z</time></trkpt><trkpt lat="14.386061495995275" lon="120.97731187339572"><ele>46.0</ele><time>2026-04-17T10:39:39Z</time></trkpt><trkpt lat="14.386045813514006" lon="120.97739905894014"><ele>46.0</ele><time>2026-04-17T10:39:41Z</time></trkpt><trkpt lat="14.386021570658308" lon="120.97749678897203"><ele>46.0</ele><time>2026-04-17T10:39:43Z</time></trkpt><trkpt lat="14.386007576637644" lon="120.9775695478723"><ele>46.0</ele><time>2026-04-17T10:39:45Z</time></trkpt><trkpt lat="14.38599605807293" lon="120.97764255288169"><ele>46.0</ele><time>2026-04-17T10:39:48Z</time></trkpt><trkpt lat="14.385988070974813" lon="120.97770733079885"><ele>46.0</ele><time>2026-04-17T10:41:00Z</time></trkpt><trkpt lat="14.385966143485259" lon="120.97783026235045"><ele>46.0</ele><time>2026-04-17T10:41:02Z</time></trkpt><trkpt lat="14.385947250340491" lon="120.97789932863671"><ele>46.4</ele><time>2026-04-17T10:41:03Z</time></trkpt><trkpt lat="14.385931709470334" lon="120.97797123550102"><ele>46.8</ele><time>2026-04-17T10:41:04Z</time></trkpt><trkpt lat="14.385920731965824" lon="120.97805308596888"><ele>47.199999999999996</ele><time>2026-04-17T10:41:05Z</time></trkpt><trkpt lat="14.385907416913833" lon="120.97815149071559"><ele>47.599999999999994</ele><time>2026-04-17T10:41:06Z</time></trkpt><trkpt lat="14.385912478266228" lon="120.97827449262331"><ele>48.0</ele><time>2026-04-17T10:41:08Z</time></trkpt><trkpt lat="14.38590394316486" lon="120.97837785354162"><ele>47.0</ele><time>2026-04-17T10:41:09Z</time></trkpt><trkpt lat="14.385886734828777" lon="120.9784862107692"><ele>46.0</ele><time>2026-04-17T10:41:10Z</time></trkpt><trkpt lat="14.385866573704972" lon="120.97860087271329"><ele>45.0</ele><time>2026-04-17T10:41:11Z</time></trkpt><trkpt lat="14.385850681615983" lon="120.97872408546567"><ele>44.0</ele><time>2026-04-17T10:41:12Z</time></trkpt><trkpt lat="14.385834851621555" lon="120.97885272959618"><ele>44.0</ele><time>2026-04-17T10:41:13Z</time></trkpt><trkpt lat="14.385817215097346" lon="120.9789856988867"><ele>44.0</ele><time>2026-04-17T10:41:14Z</time></trkpt><trkpt lat="14.385797334799296" lon="120.97911806777114"><ele>44.0</ele><time>2026-04-17T10:41:15Z</time></trkpt><trkpt lat="14.385773541932277" lon="120.9792433692787"><ele>44.0</ele><time>2026-04-17T10:41:16Z</time></trkpt><trkpt lat="14.385734704672176" lon="120.97936071467745"><ele>43.75</ele><time>2026-04-17T10:41:17Z</time></trkpt><trkpt lat="14.385681256493008" lon="120.97946667402216"><ele>43.5</ele><time>2026-04-17T10:41:18Z</time></trkpt><trkpt lat="14.385608668797397" lon="120.97956540330934"><ele>43.25</ele><time>2026-04-17T10:41:19Z</time></trkpt><trkpt lat="14.385516013308822" lon="120.97965959308712"><ele>43.0</ele><time>2026-04-17T10:41:20Z</time></trkpt><trkpt lat="14.3854127894731" lon="120.97973011867839"><ele>43.0</ele><time>2026-04-17T10:41:21Z</time></trkpt><trkpt lat="14.385306587620939" lon="120.97977842581545"><ele>43.0</ele><time>2026-04-17T10:41:22Z</time></trkpt><trkpt lat="14.385200742004022" lon="120.97980697818491"><ele>43.0</ele><time>2026-04-17T10:41:23Z</time></trkpt><trkpt lat="14.385104774261325" lon="120.97983899870343"><ele>43.0</ele><time>2026-04-17T10:41:24Z</time></trkpt><trkpt lat="14.385013897325242" lon="120.97986943430293"><ele>43.0</ele><time>2026-04-17T10:41:25Z</time></trkpt><trkpt lat="14.384925976219984" lon="120.97989745527867"><ele>43.0</ele><time>2026-04-17T10:41:26Z</time></trkpt><trkpt lat="14.384835810473188" lon="120.97992477528996"><ele>43.0</ele><time>2026-04-17T10:41:27Z</time></trkpt><trkpt lat="14.384738793992168" lon="120.97996021755058"><ele>43.0</ele><time>2026-04-17T10:41:28Z</time></trkpt><trkpt lat="14.38463692703932" lon="120.97999806614945"><ele>43.0</ele><time>2026-04-17T10:41:29Z</time></trkpt><trkpt lat="14.384521440308736" lon="120.98003793086126"><ele>43.0</ele><time>2026-04-17T10:41:30Z</time></trkpt><trkpt lat="14.38440434060019" lon="120.98008924258441"><ele>43.0</ele><time>2026-04-17T10:41:31Z</time></trkpt><trkpt lat="14.384289640785022" lon="120.98012549586103"><ele>43.0</ele><time>2026-04-17T10:41:32Z</time></trkpt><trkpt lat="14.384178109579112" lon="120.98017057129908"><ele>43.0</ele><time>2026-04-17T10:41:33Z</time></trkpt><trkpt lat="14.384073340277407" lon="120.98021014274873"><ele>43.0</ele><time>2026-04-17T10:41:34Z</time></trkpt><trkpt lat="14.383974021500036" lon="120.98024978999761"><ele>43.0</ele><time>2026-04-17T10:41:35Z</time></trkpt><trkpt lat="14.383884218306246" lon="120.98027913730573"><ele>43.0</ele><time>2026-04-17T10:41:36Z</time></trkpt><trkpt lat="14.383803796457489" lon="120.98030824442061"><ele>43.0</ele><time>2026-04-17T10:41:37Z</time></trkpt><trkpt lat="14.383736248401961" lon="120.98033293339219"><ele>43.0</ele><time>2026-04-17T10:41:38Z</time></trkpt><trkpt lat="14.38367439446515" lon="120.98035462607197"><ele>43.0</ele><time>2026-04-17T10:41:39Z</time></trkpt><trkpt lat="14.38356772293009" lon="120.98038871717296"><ele>43.0</ele><time>2026-04-17T10:41:41Z</time></trkpt><trkpt lat="14.383483866398288" lon="120.98041588636339"><ele>43.0</ele><time>2026-04-17T10:41:43Z</time></trkpt><trkpt lat="14.383401118509783" lon="120.98047108078163"><ele>43.0</ele><time>2026-04-17T10:41:45Z</time></trkpt><trkpt lat="14.383353602297735" lon="120.98057191769232"><ele>43.0</ele><time>2026-04-17T10:41:47Z</time></trkpt><trkpt lat="14.383353692608756" lon="120.98070930083944"><ele>43.0</ele><time>2026-04-17T10:41:49Z</time></trkpt><trkpt lat="14.383359344218857" lon="120.98079082044408"><ele>43.0</ele><time>2026-04-17T10:41:50Z</time></trkpt><trkpt lat="14.383361535139787" lon="120.98089378580354"><ele>43.0</ele><time>2026-04-17T10:41:51Z</time></trkpt><trkpt lat="14.383381084427047" lon="120.98099222627182"><ele>43.0</ele><time>2026-04-17T10:41:52Z</time></trkpt><trkpt lat="14.383369178254322" lon="120.98109929469173"><ele>43.0</ele><time>2026-04-17T10:41:53Z</time></trkpt><trkpt lat="14.383388043169104" lon="120.98121131615753"><ele>43.0</ele><time>2026-04-17T10:41:54Z</time></trkpt><trkpt lat="14.383391796682012" lon="120.98133097215036"><ele>43.0</ele><time>2026-04-17T10:41:55Z</time></trkpt><trkpt lat="14.383395580763658" lon="120.981446541133"><ele>43.0</ele><time>2026-04-17T10:41:56Z</time></trkpt><trkpt lat="14.383399515289286" lon="120.98157565414027"><ele>43.0</ele><time>2026-04-17T10:41:57Z</time></trkpt><trkpt lat="14.38340289012963" lon="120.98169416723951"><ele>43.0</ele><time>2026-04-17T10:41:58Z</time></trkpt><trkpt lat="14.383407740849243" lon="120.98182397601256"><ele>43.0</ele><time>2026-04-17T10:41:59Z</time></trkpt><trkpt lat="14.383411481723893" lon="120.98195735291057"><ele>43.5</ele><time>2026-04-17T10:42:00Z</time></trkpt><trkpt lat="14.383413993614152" lon="120.98207719905785"><ele>44.0</ele><time>2026-04-17T10:42:01Z</time></trkpt><trkpt lat="14.383416487210708" lon="120.9821943036717"><ele>44.5</ele><time>2026-04-17T10:42:02Z</time></trkpt><trkpt lat="14.383420033995959" lon="120.98230652753058"><ele>45.0</ele><time>2026-04-17T10:42:03Z</time></trkpt><trkpt lat="14.383422601873058" lon="120.98242344113716"><ele>45.2</ele><time>2026-04-17T10:42:04Z</time></trkpt><trkpt lat="14.38342471831547" lon="120.98252279185432"><ele>45.4</ele><time>2026-04-17T10:42:05Z</time></trkpt><trkpt lat="14.383427080835649" lon="120.98262997126062"><ele>45.599999999999994</ele><time>2026-04-17T10:42:06Z</time></trkpt><trkpt lat="14.383429453057495" lon="120.98273585439341"><ele>45.8</ele><time>2026-04-17T10:42:07Z</time></trkpt><trkpt lat="14.383431821489127" lon="120.98283847206723"><ele>46.0</ele><time>2026-04-17T10:42:08Z</time></trkpt><trkpt lat="14.383433912489274" lon="120.98292618681108"><ele>46.0</ele><time>2026-04-17T10:42:09Z</time></trkpt><trkpt lat="14.383420482073802" lon="120.9830299552369"><ele>46.0</ele><time>2026-04-17T10:42:10Z</time></trkpt><trkpt lat="14.383425415710166" lon="120.98311991890229"><ele>46.0</ele><time>2026-04-17T10:42:11Z</time></trkpt><trkpt lat="14.383425637571493" lon="120.98321389914328"><ele>46.0</ele><time>2026-04-17T10:42:12Z</time></trkpt><trkpt lat="14.383443448348542" lon="120.98330635568776"><ele>46.0</ele><time>2026-04-17T10:42:13Z</time></trkpt><trkpt lat="14.383446488953037" lon="120.98341174768117"><ele>46.199999999999996</ele><time>2026-04-17T10:42:14Z</time></trkpt><trkpt lat="14.383449135709947" lon="120.98350468530319"><ele>46.4</ele><time>2026-04-17T10:42:15Z</time></trkpt><trkpt lat="14.383451639902042" lon="120.98360286246593"><ele>46.6</ele><time>2026-04-17T10:42:16Z</time></trkpt><trkpt lat="14.383452383631518" lon="120.9837031708039"><ele>46.8</ele><time>2026-04-17T10:42:17Z</time></trkpt><trkpt lat="14.383451772491089" lon="120.98379587622617"><ele>47.0</ele><time>2026-04-17T10:42:18Z</time></trkpt><trkpt lat="14.38344854504071" lon="120.9838821527044"><ele>47.0</ele><time>2026-04-17T10:42:19Z</time></trkpt><trkpt lat="14.383441445831616" lon="120.98397943553692"><ele>47.0</ele><time>2026-04-17T10:42:20Z</time></trkpt><trkpt lat="14.38343055926759" lon="120.98407522296081"><ele>47.0</ele><time>2026-04-17T10:42:21Z</time></trkpt><trkpt lat="14.383419310559267" lon="120.9841790572045"><ele>47.0</ele><time>2026-04-17T10:42:22Z</time></trkpt><trkpt lat="14.383399004858305" lon="120.98429156654846"><ele>47.0</ele><time>2026-04-17T10:42:23Z</time></trkpt><trkpt lat="14.383375137263307" lon="120.98440465398504"><ele>45.75</ele><time>2026-04-17T10:42:24Z</time></trkpt><trkpt lat="14.383328546571233" lon="120.98452444650991"><ele>44.5</ele><time>2026-04-17T10:42:25Z</time></trkpt><trkpt lat="14.38329793969604" lon="120.98463391310922"><ele>43.25</ele><time>2026-04-17T10:42:26Z</time></trkpt><trkpt lat="14.383263392237337" lon="120.98475350359075"><ele>42.0</ele><time>2026-04-17T10:42:27Z</time></trkpt><trkpt lat="14.383223897002422" lon="120.98487592344651"><ele>42.0</ele><time>2026-04-17T10:42:28Z</time></trkpt><trkpt lat="14.383181060318066" lon="120.98500427954946"><ele>42.0</ele><time>2026-04-17T10:42:29Z</time></trkpt><trkpt lat="14.383128991668402" lon="120.98514784612276"><ele>42.0</ele><time>2026-04-17T10:42:30Z</time></trkpt><trkpt lat="14.383067111948039" lon="120.98528608583301"><ele>42.0</ele><time>2026-04-17T10:42:31Z</time></trkpt><trkpt lat="14.382999706404433" lon="120.98541702896182"><ele>42.75</ele><time>2026-04-17T10:42:32Z</time></trkpt><trkpt lat="14.382936919677846" lon="120.98554418416917"><ele>43.5</ele><time>2026-04-17T10:42:33Z</time></trkpt><trkpt lat="14.382877185777224" lon="120.98567699636939"><ele>44.25</ele><time>2026-04-17T10:42:34Z</time></trkpt><trkpt lat="14.382820952955976" lon="120.98582496159425"><ele>45.0</ele><time>2026-04-17T10:42:35Z</time></trkpt><trkpt lat="14.38276162942139" lon="120.98594272428485"><ele>45.0</ele><time>2026-04-17T10:42:36Z</time></trkpt><trkpt lat="14.382702504451853" lon="120.98608135399809"><ele>45.0</ele><time>2026-04-17T10:42:37Z</time></trkpt><trkpt lat="14.38264127379344" lon="120.98621698371592"><ele>45.0</ele><time>2026-04-17T10:42:38Z</time></trkpt><trkpt lat="14.382582885280675" lon="120.98635677518276"><ele>45.0</ele><time>2026-04-17T10:42:39Z</time></trkpt><trkpt lat="14.382523986555963" lon="120.98647896486712"><ele>45.0</ele><time>2026-04-17T10:42:40Z</time></trkpt><trkpt lat="14.382470132057875" lon="120.98659637928077"><ele>45.0</ele><time>2026-04-17T10:42:41Z</time></trkpt><trkpt lat="14.382416940695446" lon="120.98671342235814"><ele>45.0</ele><time>2026-04-17T10:42:42Z</time></trkpt><trkpt lat="14.382366826702711" lon="120.98684429178584"><ele>45.0</ele><time>2026-04-17T10:42:43Z</time></trkpt><trkpt lat="14.382307199429288" lon="120.98696582929887"><ele>45.25</ele><time>2026-04-17T10:42:44Z</time></trkpt><trkpt lat="14.382249308197574" lon="120.98707962438701"><ele>45.5</ele><time>2026-04-17T10:42:45Z</time></trkpt><trkpt lat="14.382197327816018" lon="120.98721680257881"><ele>45.75</ele><time>2026-04-17T10:42:46Z</time></trkpt><trkpt lat="14.382145236877772" lon="120.98735990796393"><ele>46.0</ele><time>2026-04-17T10:42:47Z</time></trkpt><trkpt lat="14.382085056482516" lon="120.98749274609692"><ele>45.25</ele><time>2026-04-17T10:42:48Z</time></trkpt><trkpt lat="14.38202757757795" lon="120.98761365462768"><ele>44.5</ele><time>2026-04-17T10:42:49Z</time></trkpt><trkpt lat="14.381970897105507" lon="120.98771995615641"><ele>43.75</ele><time>2026-04-17T10:42:50Z</time></trkpt><trkpt lat="14.381925918583812" lon="120.98783194193649"><ele>43.0</ele><time>2026-04-17T10:42:51Z</time></trkpt><trkpt lat="14.381881669486274" lon="120.98793381159987"><ele>43.0</ele><time>2026-04-17T10:42:52Z</time></trkpt><trkpt lat="14.381848536760412" lon="120.98803805402932"><ele>43.0</ele><time>2026-04-17T10:42:53Z</time></trkpt><trkpt lat="14.381825425331384" lon="120.98814959658056"><ele>43.0</ele><time>2026-04-17T10:42:54Z</time></trkpt><trkpt lat="14.381814222129133" lon="120.98826827985694"><ele>43.0</ele><time>2026-04-17T10:42:55Z</time></trkpt><trkpt lat="14.381826159294317" lon="120.98838378082388"><ele>43.0</ele><time>2026-04-17T10:42:56Z</time></trkpt><trkpt lat="14.381826159297056" lon="120.98850755641558"><ele>43.0</ele><time>2026-04-17T10:42:57Z</time></trkpt><trkpt lat="14.381822176254303" lon="120.9886408801345"><ele>43.0</ele><time>2026-04-17T10:42:58Z</time></trkpt><trkpt lat="14.381816692733393" lon="120.98877442508332"><ele>43.0</ele><time>2026-04-17T10:42:59Z</time></trkpt><trkpt lat="14.381812570363385" lon="120.98889644835957"><ele>43.0</ele><time>2026-04-17T10:43:00Z</time></trkpt><trkpt lat="14.381795785641687" lon="120.98902041536202"><ele>43.0</ele><time>2026-04-17T10:43:01Z</time></trkpt><trkpt lat="14.381794836028028" lon="120.98914456327725"><ele>43.0</ele><time>2026-04-17T10:43:02Z</time></trkpt><trkpt lat="14.38179117459688" lon="120.9892745473368"><ele>43.0</ele><time>2026-04-17T10:43:03Z</time></trkpt><trkpt lat="14.381793469316786" lon="120.98940559863591"><ele>43.0</ele><time>2026-04-17T10:43:04Z</time></trkpt><trkpt lat="14.381770733771377" lon="120.9895398497372"><ele>45.25</ele><time>2026-04-17T10:43:05Z</time></trkpt><trkpt lat="14.381733337411582" lon="120.98967276443663"><ele>47.5</ele><time>2026-04-17T10:43:06Z</time></trkpt><trkpt lat="14.381675144194988" lon="120.9897908908332"><ele>49.75</ele><time>2026-04-17T10:43:07Z</time></trkpt><trkpt lat="14.381639039563135" lon="120.98991360719789"><ele>52.0</ele><time>2026-04-17T10:43:08Z</time></trkpt><trkpt lat="14.381578971335149" lon="120.99001946732946"><ele>53.0</ele><time>2026-04-17T10:43:09Z</time></trkpt><trkpt lat="14.381513462571844" lon="120.9901192914283"><ele>54.0</ele><time>2026-04-17T10:43:10Z</time></trkpt><trkpt lat="14.381448228376929" lon="120.99021183161427"><ele>55.0</ele><time>2026-04-17T10:43:11Z</time></trkpt><trkpt lat="14.381384625093613" lon="120.99029699946412"><ele>56.0</ele><time>2026-04-17T10:43:12Z</time></trkpt><trkpt lat="14.381325831526361" lon="120.99037812351122"><ele>57.0</ele><time>2026-04-17T10:43:13Z</time></trkpt><trkpt lat="14.381267337860448" lon="120.99045705886917"><ele>57.166666666666664</ele><time>2026-04-17T10:43:14Z</time></trkpt><trkpt lat="14.3812151196632" lon="120.99052408054416"><ele>57.33333333333333</ele><time>2026-04-17T10:43:15Z</time></trkpt><trkpt lat="14.38116739953214" lon="120.99058532900328"><ele>57.5</ele><time>2026-04-17T10:43:16Z</time></trkpt><trkpt lat="14.381123124785828" lon="120.99064215531801"><ele>57.666666666666664</ele><time>2026-04-17T10:43:17Z</time></trkpt><trkpt lat="14.381056321259443" lon="120.99072789717351"><ele>57.83333333333333</ele><time>2026-04-17T10:43:19Z</time></trkpt><trkpt lat="14.381015318899552" lon="120.99078052333633"><ele>58.0</ele><time>2026-04-17T10:43:21.999Z</time></trkpt><trkpt lat="14.380967374065607" lon="120.99066670923193"><ele>58.0</ele><time>2026-04-17T10:43:22.999Z</time></trkpt><trkpt lat="14.380905712465426" lon="120.99063770798094"><ele>58.0</ele><time>2026-04-17T10:43:25.999Z</time></trkpt><trkpt lat="14.380807143274271" lon="120.99064615200415"><ele>58.0</ele><time>2026-04-17T10:43:28.999Z</time></trkpt><trkpt lat="14.380746861772451" lon="120.99062531940504"><ele>58.0</ele><time>2026-04-17T10:43:30.999Z</time></trkpt><trkpt lat="14.380722266029151" lon="120.99076580537975"><ele>58.0</ele><time>2026-04-17T10:43:34Z</time></trkpt><trkpt lat="14.380694516228864" lon="120.99086288198316"><ele>57.83333333333333</ele><time>2026-04-17T10:43:36Z</time></trkpt><trkpt lat="14.38062929824024" lon="120.99095044153455"><ele>57.666666666666664</ele><time>2026-04-17T10:43:38Z</time></trkpt><trkpt lat="14.380583730706757" lon="120.99100232895682"><ele>57.5</ele><time>2026-04-17T10:43:40Z</time></trkpt><trkpt lat="14.38053988954516" lon="120.9910626092754"><ele>57.33333333333333</ele><time>2026-04-17T10:43:45Z</time></trkpt><trkpt lat="14.380495917246456" lon="120.99113724535931"><ele>57.166666666666664</ele><time>2026-04-17T10:43:47Z</time></trkpt><trkpt lat="14.380452088984635" lon="120.99118619343544"><ele>57.0</ele><time>2026-04-17T10:43:50Z</time></trkpt><trkpt lat="14.380391429031839" lon="120.99121728189812"><ele>57.0</ele><time>2026-04-17T10:43:53Z</time></trkpt><trkpt lat="14.380280994412221" lon="120.99120320347126"><ele>57.0</ele><time>2026-04-17T10:43:55Z</time></trkpt><trkpt lat="14.380187046941286" lon="120.99119864169816"><ele>57.0</ele><time>2026-04-17T10:43:57Z</time></trkpt><trkpt lat="14.38008801369469" lon="120.99118499866364"><ele>57.0</ele><time>2026-04-17T10:43:59Z</time></trkpt><trkpt lat="14.37998429208997" lon="120.99118593574926"><ele>57.0</ele><time>2026-04-17T10:44:01Z</time></trkpt><trkpt lat="14.37988609651824" lon="120.99118682290843"><ele>57.0</ele><time>2026-04-17T10:44:03Z</time></trkpt><trkpt lat="14.379792427614445" lon="120.99120153972231"><ele>57.0</ele><time>2026-04-17T10:44:05Z</time></trkpt><trkpt lat="14.379705887873442" lon="120.99119878216896"><ele>57.0</ele><time>2026-04-17T10:44:07Z</time></trkpt><trkpt lat="14.379605877709686" lon="120.99119580464881"><ele>57.0</ele><time>2026-04-17T10:44:09Z</time></trkpt><trkpt lat="14.37952612228539" lon="120.9911953710202"><ele>57.0</ele><time>2026-04-17T10:44:11Z</time></trkpt><trkpt lat="14.379449039016343" lon="120.99119226151575"><ele>57.0</ele><time>2026-04-17T10:44:13Z</time></trkpt><trkpt lat="14.37936863720784" lon="120.99119312273658"><ele>57.0</ele><time>2026-04-17T10:44:15Z</time></trkpt><trkpt lat="14.379295772542083" lon="120.99120415453001"><ele>56.99999999999999</ele><time>2026-04-17T10:44:17Z</time></trkpt><trkpt lat="14.379226401627498" lon="120.99119848668505"><ele>57.0</ele><time>2026-04-17T10:44:19Z</time></trkpt><trkpt lat="14.379159403901655" lon="120.99119522140141"><ele>57.0</ele><time>2026-04-17T10:44:21Z</time></trkpt><trkpt lat="14.379092739805483" lon="120.99119347639243"><ele>56.99999999999999</ele><time>2026-04-17T10:44:23Z</time></trkpt><trkpt lat="14.379023952302349" lon="120.99120410387448"><ele>57.0</ele><time>2026-04-17T10:44:27Z</time></trkpt><trkpt lat="14.378953799683334" lon="120.99118709401617"><ele>57.0</ele><time>2026-04-17T10:44:30Z</time></trkpt><trkpt lat="14.379004209991633" lon="120.99108606815958"><ele>57.0</ele><time>2026-04-17T10:44:36Z</time></trkpt><trkpt lat="14.379004514257767" lon="120.99102013582971"><ele>57.0</ele><time>2026-04-17T10:44:46Z</time></trkpt><trkpt lat="14.379004179352037" lon="120.99109270747562"><ele>57.0</ele><time>2026-04-17T10:46:57Z</time></trkpt><trkpt lat="14.378977161888583" lon="120.99099635585802"><ele>57.0</ele><time>2026-04-17T10:56:37.078Z</time></trkpt><trkpt lat="14.378908870858442" lon="120.99095723016208"><ele>57.0</ele><time>2026-04-17T10:56:45.224Z</time></trkpt><trkpt lat="14.378990492819248" lon="120.99105000349948"><ele>57.0</ele><time>2026-04-17T10:56:52.843Z</time></trkpt><trkpt lat="14.377895436973857" lon="120.99041691398264"><ele>57.0</ele><time>2026-04-17T11:05:21.968Z</time></trkpt><trkpt lat="14.37896217340027" lon="120.9908485179369"><ele>57.0</ele><time>2026-04-17T11:05:32.706Z</time></trkpt><trkpt lat="14.378953853535805" lon="120.99100374418275"><ele>57.0</ele><time>2026-04-17T11:05:46.739Z</time></trkpt><trkpt lat="14.379013641162999" lon="120.9910601224164"><ele>57.0</ele><time>2026-04-17T12:35:31.851Z</time></trkpt><trkpt lat="14.378930177224484" lon="120.99097801510489"><ele>57.0</ele><time>2026-04-17T12:35:44Z</time></trkpt><trkpt lat="14.378875410986252" lon="120.99107963502192"><ele>57.0</ele><time>2026-04-17T12:35:47Z</time></trkpt><trkpt lat="14.378960756244776" lon="120.99115355432016"><ele>57.0</ele><time>2026-04-17T12:38:07.001Z</time></trkpt><trkpt lat="14.378978088750195" lon="120.99122575388529"><ele>57.0</ele><time>2026-04-17T12:38:10.001Z</time></trkpt><trkpt lat="14.379044343587235" lon="120.99122740613528"><ele>57.0</ele><time>2026-04-17T12:38:13.001Z</time></trkpt><trkpt lat="14.379107780604018" lon="120.99122452599447"><ele>57.0</ele><time>2026-04-17T12:38:17.001Z</time></trkpt><trkpt lat="14.379186449615407" lon="120.9912265594302"><ele>57.0</ele><time>2026-04-17T12:38:20.001Z</time></trkpt><trkpt lat="14.379272449101423" lon="120.99120811253509"><ele>57.0</ele><time>2026-04-17T12:39:00.001Z</time></trkpt><trkpt lat="14.379375217452644" lon="120.99123131177707"><ele>57.0</ele><time>2026-04-17T12:39:04.001Z</time></trkpt><trkpt lat="14.379467903247964" lon="120.99122572105678"><ele>57.0</ele><time>2026-04-17T12:39:06.001Z</time></trkpt><trkpt lat="14.37954532591675" lon="120.99122843176347"><ele>57.0</ele><time>2026-04-17T12:39:08.001Z</time></trkpt><trkpt lat="14.379623865599525" lon="120.99124323705537"><ele>57.0</ele><time>2026-04-17T12:39:10.001Z</time></trkpt><trkpt lat="14.37972345906193" lon="120.99124861385685"><ele>57.0</ele><time>2026-04-17T12:39:12.001Z</time></trkpt><trkpt lat="14.379829694077399" lon="120.9912431535168"><ele>57.0</ele><time>2026-04-17T12:39:14.001Z</time></trkpt><trkpt lat="14.379924712185925" lon="120.99124999550459"><ele>57.0</ele><time>2026-04-17T12:39:16.001Z</time></trkpt><trkpt lat="14.380024092274324" lon="120.99123402967157"><ele>57.0</ele><time>2026-04-17T12:39:18.001Z</time></trkpt><trkpt lat="14.380123845937582" lon="120.99123060387971"><ele>57.0</ele><time>2026-04-17T12:39:20.001Z</time></trkpt><trkpt lat="14.380227091045887" lon="120.9912282553817"><ele>57.0</ele><time>2026-04-17T12:39:22.001Z</time></trkpt><trkpt lat="14.380330454757013" lon="120.99121761335637"><ele>57.0</ele><time>2026-04-17T12:39:24.001Z</time></trkpt><trkpt lat="14.380405464223692" lon="120.99121609928333"><ele>57.0</ele><time>2026-04-17T12:39:26.001Z</time></trkpt><trkpt lat="14.380477043828714" lon="120.99122079276188"><ele>57.0</ele><time>2026-04-17T12:39:28.002Z</time></trkpt><trkpt lat="14.380549696645799" lon="120.99114823018157"><ele>57.0</ele><time>2026-04-17T12:39:33.002Z</time></trkpt><trkpt lat="14.38059400609214" lon="120.99108073074468"><ele>57.0</ele><time>2026-04-17T12:39:35.002Z</time></trkpt><trkpt lat="14.380630416817858" lon="120.99102526393837"><ele>57.0</ele><time>2026-04-17T12:39:39.002Z</time></trkpt><trkpt lat="14.380676073661949" lon="120.99095571192682"><ele>57.0</ele><time>2026-04-17T12:39:41.002Z</time></trkpt><trkpt lat="14.380703435260058" lon="120.9908833948841"><ele>57.0</ele><time>2026-04-17T12:39:43.001Z</time></trkpt><trkpt lat="14.380768196689237" lon="120.99080973013018"><ele>57.0</ele><time>2026-04-17T12:39:45.001Z</time></trkpt><trkpt lat="14.380787623423354" lon="120.99072413652091"><ele>57.0</ele><time>2026-04-17T12:39:47.001Z</time></trkpt><trkpt lat="14.380834440628714" lon="120.99067282118898"><ele>57.0</ele><time>2026-04-17T12:39:51.001Z</time></trkpt><trkpt lat="14.380912556166239" lon="120.990697970605"><ele>57.166666666666664</ele><time>2026-04-17T12:39:53.001Z</time></trkpt><trkpt lat="14.380970640323802" lon="120.99073920612743"><ele>57.33333333333333</ele><time>2026-04-17T12:39:56.001Z</time></trkpt><trkpt lat="14.381051438036597" lon="120.99078133282465"><ele>57.5</ele><time>2026-04-17T12:40:01.001Z</time></trkpt><trkpt lat="14.381107934408382" lon="120.9908172424374"><ele>57.666666666666664</ele><time>2026-04-17T12:40:03.001Z</time></trkpt><trkpt lat="14.381158597036498" lon="120.99077470327695"><ele>57.83333333333333</ele><time>2026-04-17T12:40:04.001Z</time></trkpt><trkpt lat="14.381239626930444" lon="120.9906855402458"><ele>58.0</ele><time>2026-04-17T12:40:06.001Z</time></trkpt><trkpt lat="14.3812813651588" lon="120.99062671918712"><ele>58.0</ele><time>2026-04-17T12:40:07.001Z</time></trkpt><trkpt lat="14.381337057504304" lon="120.9905537636006"><ele>58.0</ele><time>2026-04-17T12:40:08.001Z</time></trkpt><trkpt lat="14.381387859805228" lon="120.99047796480623"><ele>58.0</ele><time>2026-04-17T12:40:09.001Z</time></trkpt><trkpt lat="14.381446020241764" lon="120.99039584374403"><ele>58.0</ele><time>2026-04-17T12:40:10.001Z</time></trkpt><trkpt lat="14.381508876591584" lon="120.99031992295212"><ele>58.0</ele><time>2026-04-17T12:40:11.001Z</time></trkpt><trkpt lat="14.381571723115153" lon="120.99023163245745"><ele>57.75</ele><time>2026-04-17T12:40:12.001Z</time></trkpt><trkpt lat="14.381623842195017" lon="120.99013559667105"><ele>57.5</ele><time>2026-04-17T12:40:13.001Z</time></trkpt><trkpt lat="14.381695820324632" lon="120.99004216039745"><ele>57.25</ele><time>2026-04-17T12:40:14.001Z</time></trkpt><trkpt lat="14.381755182664651" lon="120.9899332448722"><ele>57.0</ele><time>2026-04-17T12:40:15.001Z</time></trkpt><trkpt lat="14.381810389255426" lon="120.98980261078736"><ele>55.75</ele><time>2026-04-17T12:40:16.001Z</time></trkpt><trkpt lat="14.381847859676554" lon="120.98967359792874"><ele>54.5</ele><time>2026-04-17T12:40:17.001Z</time></trkpt><trkpt lat="14.381879876942508" lon="120.9895483568715"><ele>53.25</ele><time>2026-04-17T12:40:18.001Z</time></trkpt><trkpt lat="14.381894455706615" lon="120.98940800802893"><ele>52.0</ele><time>2026-04-17T12:40:19.001Z</time></trkpt><trkpt lat="14.381902430446775" lon="120.98926166470811"><ele>50.2</ele><time>2026-04-17T12:40:20.001Z</time></trkpt><trkpt lat="14.381907549807227" lon="120.98916689944157"><ele>48.400000000000006</ele><time>2026-04-17T12:40:21.001Z</time></trkpt><trkpt lat="14.381907419064063" lon="120.98904370488353"><ele>46.599999999999994</ele><time>2026-04-17T12:40:22.001Z</time></trkpt><trkpt lat="14.381908333286438" lon="120.98892231512615"><ele>44.8</ele><time>2026-04-17T12:40:23.001Z</time></trkpt><trkpt lat="14.381909063427708" lon="120.98879838750047"><ele>43.0</ele><time>2026-04-17T12:40:24.001Z</time></trkpt><trkpt lat="14.381894582290627" lon="120.98869261035404"><ele>43.0</ele><time>2026-04-17T12:40:25.001Z</time></trkpt><trkpt lat="14.381910352368045" lon="120.98857961471317"><ele>43.0</ele><time>2026-04-17T12:40:26.001Z</time></trkpt><trkpt lat="14.381910559273335" lon="120.9884639137559"><ele>43.0</ele><time>2026-04-17T12:40:27.001Z</time></trkpt><trkpt lat="14.381910433573346" lon="120.98834792036368"><ele>43.0</ele><time>2026-04-17T12:40:28.001Z</time></trkpt><trkpt lat="14.38191567852024" lon="120.98826812672826"><ele>43.0</ele><time>2026-04-17T12:40:29.001Z</time></trkpt><trkpt lat="14.381937240920948" lon="120.98819930496228"><ele>43.0</ele><time>2026-04-17T12:40:30.001Z</time></trkpt><trkpt lat="14.381945757033458" lon="120.98807962702442"><ele>43.0</ele><time>2026-04-17T12:40:31.001Z</time></trkpt><trkpt lat="14.381956084972897" lon="120.98796435872181"><ele>43.0</ele><time>2026-04-17T12:40:32.001Z</time></trkpt><trkpt lat="14.381994428625987" lon="120.98788317327052"><ele>43.0</ele><time>2026-04-17T12:40:33.001Z</time></trkpt><trkpt lat="14.3820332269598" lon="120.98777438450115"><ele>43.0</ele><time>2026-04-17T12:40:34.001Z</time></trkpt><trkpt lat="14.382082379685347" lon="120.98766495744987"><ele>43.0</ele><time>2026-04-17T12:40:35.001Z</time></trkpt><trkpt lat="14.38213448181073" lon="120.98755390113686"><ele>43.0</ele><time>2026-04-17T12:40:36.001Z</time></trkpt><trkpt lat="14.382187454304422" lon="120.98743904367731"><ele>43.0</ele><time>2026-04-17T12:40:37.001Z</time></trkpt><trkpt lat="14.382246524996761" lon="120.9873310466668"><ele>43.0</ele><time>2026-04-17T12:40:38.001Z</time></trkpt><trkpt lat="14.38229740726889" lon="120.98720728115725"><ele>43.75</ele><time>2026-04-17T12:40:39.001Z</time></trkpt><trkpt lat="14.382348250148631" lon="120.98708626912524"><ele>44.5</ele><time>2026-04-17T12:40:40.001Z</time></trkpt><trkpt lat="14.382397963558617" lon="120.9869646238175"><ele>45.25</ele><time>2026-04-17T12:40:41.001Z</time></trkpt><trkpt lat="14.382460816080041" lon="120.9868467962895"><ele>46.0</ele><time>2026-04-17T12:40:42.001Z</time></trkpt><trkpt lat="14.38251416189572" lon="120.98672569296662"><ele>45.75</ele><time>2026-04-17T12:40:43.001Z</time></trkpt><trkpt lat="14.382570463656693" lon="120.98660447044176"><ele>45.5</ele><time>2026-04-17T12:40:44.001Z</time></trkpt><trkpt lat="14.382626265114796" lon="120.98647949841752"><ele>45.25</ele><time>2026-04-17T12:40:45.001Z</time></trkpt><trkpt lat="14.382687285325519" lon="120.98635678319167"><ele>45.0</ele><time>2026-04-17T12:40:46.001Z</time></trkpt><trkpt lat="14.382742400235344" lon="120.98622840082811"><ele>45.0</ele><time>2026-04-17T12:40:47.001Z</time></trkpt><trkpt lat="14.382807175079378" lon="120.98610932081664"><ele>45.0</ele><time>2026-04-17T12:40:48.001Z</time></trkpt><trkpt lat="14.382860878530334" lon="120.9859777396338"><ele>45.0</ele><time>2026-04-17T12:40:49.001Z</time></trkpt><trkpt lat="14.382919504128113" lon="120.98585361780526"><ele>45.0</ele><time>2026-04-17T12:40:50.001Z</time></trkpt><trkpt lat="14.382971841061138" lon="120.98572247994632"><ele>45.5</ele><time>2026-04-17T12:40:51.001Z</time></trkpt><trkpt lat="14.383029561472988" lon="120.98559749911297"><ele>46.0</ele><time>2026-04-17T12:40:52.001Z</time></trkpt><trkpt lat="14.383088199134992" lon="120.98546922214197"><ele>46.5</ele><time>2026-04-17T12:40:53.001Z</time></trkpt><trkpt lat="14.383149396897903" lon="120.98534413019625"><ele>47.0</ele><time>2026-04-17T12:40:54.001Z</time></trkpt><trkpt lat="14.38320290334653" lon="120.9852118486488"><ele>47.0</ele><time>2026-04-17T12:40:55.001Z</time></trkpt><trkpt lat="14.383255219353348" lon="120.98508785309835"><ele>47.0</ele><time>2026-04-17T12:40:56.001Z</time></trkpt><trkpt lat="14.383320188259773" lon="120.98496994850463"><ele>47.0</ele><time>2026-04-17T12:40:57.001Z</time></trkpt><trkpt lat="14.383380195510034" lon="120.9848378188456"><ele>47.0</ele><time>2026-04-17T12:40:58.001Z</time></trkpt><trkpt lat="14.383421296803578" lon="120.98471186479026"><ele>45.75</ele><time>2026-04-17T12:40:59.001Z</time></trkpt><trkpt lat="14.383467618067927" lon="120.9845699142386"><ele>44.5</ele><time>2026-04-17T12:41:00.001Z</time></trkpt><trkpt lat="14.383497318817525" lon="120.98443997859725"><ele>43.25</ele><time>2026-04-17T12:41:01.001Z</time></trkpt><trkpt lat="14.383523872659339" lon="120.98432439519605"><ele>42.0</ele><time>2026-04-17T12:41:02.001Z</time></trkpt><trkpt lat="14.383542506168535" lon="120.98421149383239"><ele>43.666666666666664</ele><time>2026-04-17T12:41:03.001Z</time></trkpt><trkpt lat="14.383565179256202" lon="120.98403897664895"><ele>45.33333333333333</ele><time>2026-04-17T12:41:04.001Z</time></trkpt><trkpt lat="14.38358097502926" lon="120.98389072158992"><ele>47.0</ele><time>2026-04-17T12:41:05.001Z</time></trkpt><trkpt lat="14.383584983635815" lon="120.98374931691448"><ele>47.0</ele><time>2026-04-17T12:41:06.001Z</time></trkpt><trkpt lat="14.383588940347362" lon="120.98361189721481"><ele>47.0</ele><time>2026-04-17T12:41:07.001Z</time></trkpt><trkpt lat="14.383585109874138" lon="120.98348118499439"><ele>47.0</ele><time>2026-04-17T12:41:08.001Z</time></trkpt><trkpt lat="14.383579640215281" lon="120.98335632958405"><ele>47.0</ele><time>2026-04-17T12:41:09.001Z</time></trkpt><trkpt lat="14.3835748026276" lon="120.98323789375169"><ele>46.75</ele><time>2026-04-17T12:41:10.001Z</time></trkpt><trkpt lat="14.383570358399815" lon="120.98311072033637"><ele>46.5</ele><time>2026-04-17T12:41:11.001Z</time></trkpt><trkpt lat="14.383565237577129" lon="120.98298593796858"><ele>46.25</ele><time>2026-04-17T12:41:12.001Z</time></trkpt><trkpt lat="14.383560717230218" lon="120.98286034193232"><ele>46.0</ele><time>2026-04-17T12:41:13.001Z</time></trkpt><trkpt lat="14.383556813470154" lon="120.98275187751334"><ele>46.0</ele><time>2026-04-17T12:41:14.001Z</time></trkpt><trkpt lat="14.383551945604006" lon="120.9826166257693"><ele>46.0</ele><time>2026-04-17T12:41:15.001Z</time></trkpt><trkpt lat="14.383547444160806" lon="120.98249155497089"><ele>46.0</ele><time>2026-04-17T12:41:16.001Z</time></trkpt><trkpt lat="14.38354284823589" lon="120.98236536477931"><ele>46.0</ele><time>2026-04-17T12:41:17.001Z</time></trkpt><trkpt lat="14.383538023183041" lon="120.98223416956"><ele>45.75</ele><time>2026-04-17T12:41:18.001Z</time></trkpt><trkpt lat="14.383521685816829" lon="120.98211459775221"><ele>45.5</ele><time>2026-04-17T12:41:19.001Z</time></trkpt><trkpt lat="14.38352672394726" lon="120.98200118311719"><ele>45.25</ele><time>2026-04-17T12:41:20.001Z</time></trkpt><trkpt lat="14.383520651813633" lon="120.98188559336415"><ele>45.0</ele><time>2026-04-17T12:41:21.001Z</time></trkpt><trkpt lat="14.383517873544216" lon="120.98176831289628"><ele>44.6</ele><time>2026-04-17T12:41:22.001Z</time></trkpt><trkpt lat="14.383518354017117" lon="120.98165168305118"><ele>44.2</ele><time>2026-04-17T12:41:23.001Z</time></trkpt><trkpt lat="14.383516841941416" lon="120.98153326498321"><ele>43.8</ele><time>2026-04-17T12:41:24.001Z</time></trkpt><trkpt lat="14.383510122068548" lon="120.9814239251267"><ele>43.4</ele><time>2026-04-17T12:41:25.001Z</time></trkpt><trkpt lat="14.38350967086074" lon="120.98131864969153"><ele>43.0</ele><time>2026-04-17T12:41:26.001Z</time></trkpt><trkpt lat="14.38351134567555" lon="120.98122502100661"><ele>43.0</ele><time>2026-04-17T12:41:27.001Z</time></trkpt><trkpt lat="14.383525694790759" lon="120.98115538106627"><ele>43.0</ele><time>2026-04-17T12:41:28.001Z</time></trkpt><trkpt lat="14.383519001848489" lon="120.98107138044357"><ele>43.0</ele><time>2026-04-17T12:41:29.001Z</time></trkpt><trkpt lat="14.383518192417789" lon="120.98093401375029"><ele>43.0</ele><time>2026-04-17T12:41:31.001Z</time></trkpt><trkpt lat="14.3835139118202" lon="120.9808077835949"><ele>43.0</ele><time>2026-04-17T12:41:33.001Z</time></trkpt><trkpt lat="14.383532589361698" lon="120.98073889424437"><ele>43.2</ele><time>2026-04-17T12:41:34.001Z</time></trkpt><trkpt lat="14.383558059150209" lon="120.98065867942323"><ele>43.4</ele><time>2026-04-17T12:41:35.001Z</time></trkpt><trkpt lat="14.383618736147252" lon="120.98058408598388"><ele>43.6</ele><time>2026-04-17T12:41:36.001Z</time></trkpt><trkpt lat="14.383678428725158" lon="120.9805248250446"><ele>43.800000000000004</ele><time>2026-04-17T12:41:37.001Z</time></trkpt><trkpt lat="14.383757082179097" lon="120.98046941503407"><ele>44.0</ele><time>2026-04-17T12:41:38.001Z</time></trkpt><trkpt lat="14.383841690260754" lon="120.98042237623321"><ele>43.75</ele><time>2026-04-17T12:41:39.001Z</time></trkpt><trkpt lat="14.383933371778893" lon="120.98037872232466"><ele>43.5</ele><time>2026-04-17T12:41:40.001Z</time></trkpt><trkpt lat="14.384037066563039" lon="120.98033440689805"><ele>43.25</ele><time>2026-04-17T12:41:41.001Z</time></trkpt><trkpt lat="14.38415268532476" lon="120.9802937881471"><ele>43.0</ele><time>2026-04-17T12:41:42.001Z</time></trkpt><trkpt lat="14.384267568433142" lon="120.98025242362664"><ele>43.0</ele><time>2026-04-17T12:41:43.001Z</time></trkpt><trkpt lat="14.384379799284591" lon="120.98020974584118"><ele>43.0</ele><time>2026-04-17T12:41:44.001Z</time></trkpt><trkpt lat="14.384485982610247" lon="120.98016862693342"><ele>43.0</ele><time>2026-04-17T12:41:45.001Z</time></trkpt><trkpt lat="14.384587784182356" lon="120.9801335090047"><ele>43.0</ele><time>2026-04-17T12:41:46.001Z</time></trkpt><trkpt lat="14.384679038071264" lon="120.98008924770923"><ele>43.0</ele><time>2026-04-17T12:41:47.001Z</time></trkpt><trkpt lat="14.38474343990207" lon="120.98006050891134"><ele>43.0</ele><time>2026-04-17T12:41:48.001Z</time></trkpt><trkpt lat="14.38480491915561" lon="120.98003084978963"><ele>43.0</ele><time>2026-04-17T12:41:49.001Z</time></trkpt><trkpt lat="14.384870866406796" lon="120.98000172833677"><ele>43.0</ele><time>2026-04-17T12:41:50.001Z</time></trkpt><trkpt lat="14.38496049554706" lon="120.97996672825413"><ele>43.0</ele><time>2026-04-17T12:41:51.001Z</time></trkpt><trkpt lat="14.385062130247018" lon="120.97993187945681"><ele>43.0</ele><time>2026-04-17T12:41:52.001Z</time></trkpt><trkpt lat="14.38516037828512" lon="120.97989912910278"><ele>43.0</ele><time>2026-04-17T12:41:53.001Z</time></trkpt><trkpt lat="14.38526992373729" lon="120.9798559005898"><ele>43.0</ele><time>2026-04-17T12:41:54.001Z</time></trkpt><trkpt lat="14.385373193215509" lon="120.97981436672511"><ele>43.0</ele><time>2026-04-17T12:41:55.001Z</time></trkpt><trkpt lat="14.385479757545745" lon="120.9797598509047"><ele>43.0</ele><time>2026-04-17T12:41:56.001Z</time></trkpt><trkpt lat="14.385582401275652" lon="120.97968289459688"><ele>43.0</ele><time>2026-04-17T12:41:57.001Z</time></trkpt><trkpt lat="14.385673495515803" lon="120.97959021377392"><ele>43.25</ele><time>2026-04-17T12:41:58.001Z</time></trkpt><trkpt lat="14.385742277620734" lon="120.97949429583045"><ele>43.5</ele><time>2026-04-17T12:41:59.001Z</time></trkpt><trkpt lat="14.385796667311546" lon="120.97938875840367"><ele>43.75</ele><time>2026-04-17T12:42:00.001Z</time></trkpt><trkpt lat="14.385839274244933" lon="120.97927800455997"><ele>44.0</ele><time>2026-04-17T12:42:01.001Z</time></trkpt><trkpt lat="14.385871335290275" lon="120.97917290572757"><ele>44.0</ele><time>2026-04-17T12:42:02.001Z</time></trkpt><trkpt lat="14.385889582179985" lon="120.97908794676422"><ele>44.0</ele><time>2026-04-17T12:42:03.001Z</time></trkpt><trkpt lat="14.385926107833669" lon="120.97898684450173"><ele>44.0</ele><time>2026-04-17T12:42:05.001Z</time></trkpt><trkpt lat="14.385942095080322" lon="120.9788763327832"><ele>44.0</ele><time>2026-04-17T12:42:07.001Z</time></trkpt><trkpt lat="14.385948455599895" lon="120.97880263187349"><ele>44.0</ele><time>2026-04-17T12:42:08.001Z</time></trkpt><trkpt lat="14.385959259884885" lon="120.97873231751"><ele>44.0</ele><time>2026-04-17T12:42:09.001Z</time></trkpt><trkpt lat="14.385972931520692" lon="120.97866026222421"><ele>44.0</ele><time>2026-04-17T12:42:10.001Z</time></trkpt><trkpt lat="14.385982755629577" lon="120.97859142256003"><ele>44.0</ele><time>2026-04-17T12:42:11.001Z</time></trkpt><trkpt lat="14.385994478681988" lon="120.9784881832165"><ele>44.0</ele><time>2026-04-17T12:42:13.001Z</time></trkpt><trkpt lat="14.38600555940038" lon="120.97841906595895"><ele>44.0</ele><time>2026-04-17T12:42:16.001Z</time></trkpt><trkpt lat="14.386067675596731" lon="120.97838007633389"><ele>44.0</ele><time>2026-04-17T12:43:11Z</time></trkpt><trkpt lat="14.386027007892503" lon="120.97830102858586"><ele>44.0</ele><time>2026-04-17T12:43:43.001Z</time></trkpt><trkpt lat="14.386035011058986" lon="120.97821550382378"><ele>44.57142857142857</ele><time>2026-04-17T12:43:45.001Z</time></trkpt><trkpt lat="14.386046276637286" lon="120.97814981433713"><ele>45.14285714285714</ele><time>2026-04-17T12:43:46.001Z</time></trkpt><trkpt lat="14.386051299688841" lon="120.978068168718"><ele>45.71428571428571</ele><time>2026-04-17T12:43:47.001Z</time></trkpt><trkpt lat="14.386055381458192" lon="120.97799112675239"><ele>46.285714285714285</ele><time>2026-04-17T12:43:48.001Z</time></trkpt><trkpt lat="14.386058634594292" lon="120.97791848938778"><ele>46.857142857142854</ele><time>2026-04-17T12:43:49.001Z</time></trkpt><trkpt lat="14.386061445757518" lon="120.97784318661984"><ele>47.42857142857142</ele><time>2026-04-17T12:43:50.001Z</time></trkpt><trkpt lat="14.386067400813072" lon="120.97777478136746"><ele>48.0</ele><time>2026-04-17T12:43:51.001Z</time></trkpt><trkpt lat="14.386083782669065" lon="120.97769851256629"><ele>48.0</ele><time>2026-04-17T12:43:52.001Z</time></trkpt><trkpt lat="14.386086133969297" lon="120.97761969084992"><ele>48.0</ele><time>2026-04-17T12:43:53.001Z</time></trkpt><trkpt lat="14.386091766385851" lon="120.9775325818002"><ele>48.0</ele><time>2026-04-17T12:43:54.001Z</time></trkpt><trkpt lat="14.386106837488592" lon="120.97744514241114"><ele>48.0</ele><time>2026-04-17T12:43:55.001Z</time></trkpt><trkpt lat="14.386135249980548" lon="120.9773707432844"><ele>48.0</ele><time>2026-04-17T12:43:56.001Z</time></trkpt><trkpt lat="14.386145970411498" lon="120.97726804141921"><ele>48.0</ele><time>2026-04-17T12:43:57.001Z</time></trkpt><trkpt lat="14.386177472027962" lon="120.97717571613181"><ele>47.666666666666664</ele><time>2026-04-17T12:43:58.001Z</time></trkpt><trkpt lat="14.386195281428899" lon="120.97707573877032"><ele>47.333333333333336</ele><time>2026-04-17T12:43:59.001Z</time></trkpt><trkpt lat="14.38621759575383" lon="120.976983661253"><ele>47.0</ele><time>2026-04-17T12:44:00.001Z</time></trkpt><trkpt lat="14.386239166218997" lon="120.97689749998509"><ele>46.66666666666667</ele><time>2026-04-17T12:44:01.001Z</time></trkpt><trkpt lat="14.386268081017507" lon="120.97683587969553"><ele>46.333333333333336</ele><time>2026-04-17T12:44:02.001Z</time></trkpt><trkpt lat="14.386286062300707" lon="120.9767531101863"><ele>46.0</ele><time>2026-04-17T12:44:03Z</time></trkpt><trkpt lat="14.386305942624508" lon="120.97666152891371"><ele>46.16666666666667</ele><time>2026-04-17T12:44:04Z</time></trkpt><trkpt lat="14.386329372415826" lon="120.97656813044459"><ele>46.333333333333336</ele><time>2026-04-17T12:44:05Z</time></trkpt><trkpt lat="14.386366349938006" lon="120.97649688432658"><ele>46.5</ele><time>2026-04-17T12:44:06Z</time></trkpt><trkpt lat="14.386382350723144" lon="120.97640845449831"><ele>46.666666666666664</ele><time>2026-04-17T12:44:07Z</time></trkpt><trkpt lat="14.386407482992809" lon="120.97631918372971"><ele>46.83333333333333</ele><time>2026-04-17T12:44:08Z</time></trkpt><trkpt lat="14.386434189600939" lon="120.97623006636861"><ele>47.0</ele><time>2026-04-17T12:44:09Z</time></trkpt><trkpt lat="14.386462046276165" lon="120.97614517578779"><ele>47.0</ele><time>2026-04-17T12:44:10Z</time></trkpt><trkpt lat="14.38648944551369" lon="120.97604566521613"><ele>47.0</ele><time>2026-04-17T12:44:11Z</time></trkpt><trkpt lat="14.386531315824726" lon="120.9759601955983"><ele>47.0</ele><time>2026-04-17T12:44:12Z</time></trkpt><trkpt lat="14.386548769571851" lon="120.9758495898339"><ele>47.0</ele><time>2026-04-17T12:44:13Z</time></trkpt><trkpt lat="14.386587988298691" lon="120.97576758239042"><ele>47.0</ele><time>2026-04-17T12:44:14Z</time></trkpt><trkpt lat="14.38660487810484" lon="120.97566480563522"><ele>46.33333333333333</ele><time>2026-04-17T12:44:15Z</time></trkpt><trkpt lat="14.386639438208896" lon="120.9755950536376"><ele>45.666666666666664</ele><time>2026-04-17T12:44:16Z</time></trkpt><trkpt lat="14.386650387212011" lon="120.9754935190941"><ele>45.0</ele><time>2026-04-17T12:44:17Z</time></trkpt><trkpt lat="14.386675644069253" lon="120.97540108980758"><ele>44.333333333333336</ele><time>2026-04-17T12:44:18Z</time></trkpt><trkpt lat="14.386695888484436" lon="120.97531070994371"><ele>43.66666666666667</ele><time>2026-04-17T12:44:19Z</time></trkpt><trkpt lat="14.386725873321117" lon="120.97523904290468"><ele>43.0</ele><time>2026-04-17T12:44:20Z</time></trkpt><trkpt lat="14.386737872002264" lon="120.97515742624078"><ele>43.0</ele><time>2026-04-17T12:44:21Z</time></trkpt><trkpt lat="14.386763505231198" lon="120.9750896975037"><ele>43.0</ele><time>2026-04-17T12:44:22Z</time></trkpt><trkpt lat="14.386783621064849" lon="120.97501203036443"><ele>43.0</ele><time>2026-04-17T12:44:23Z</time></trkpt><trkpt lat="14.386820049454506" lon="120.97495734583823"><ele>43.0</ele><time>2026-04-17T12:44:24Z</time></trkpt><trkpt lat="14.386830325533591" lon="120.97487055569479"><ele>43.0</ele><time>2026-04-17T12:44:25Z</time></trkpt><trkpt lat="14.386864058261665" lon="120.97479930234604"><ele>43.0</ele><time>2026-04-17T12:44:26Z</time></trkpt><trkpt lat="14.386876301959447" lon="120.97470510945963"><ele>43.8</ele><time>2026-04-17T12:44:27Z</time></trkpt><trkpt lat="14.386890147350957" lon="120.97460980728296"><ele>44.599999999999994</ele><time>2026-04-17T12:44:28Z</time></trkpt><trkpt lat="14.386905053325211" lon="120.97450848522486"><ele>45.400000000000006</ele><time>2026-04-17T12:44:29Z</time></trkpt><trkpt lat="14.386921924171785" lon="120.97440736386216"><ele>46.2</ele><time>2026-04-17T12:44:30Z</time></trkpt><trkpt lat="14.386927740026248" lon="120.97429640638124"><ele>47.0</ele><time>2026-04-17T12:44:31Z</time></trkpt><trkpt lat="14.386947225291767" lon="120.97419674086122"><ele>46.6</ele><time>2026-04-17T12:44:32Z</time></trkpt><trkpt lat="14.386959176487977" lon="120.97408695654572"><ele>46.2</ele><time>2026-04-17T12:44:33Z</time></trkpt><trkpt lat="14.387002469050723" lon="120.97399559317465"><ele>45.8</ele><time>2026-04-17T12:44:34Z</time></trkpt><trkpt lat="14.387026134525616" lon="120.97388410092968"><ele>45.4</ele><time>2026-04-17T12:44:35Z</time></trkpt><trkpt lat="14.38705755697519" lon="120.97378240108387"><ele>45.0</ele><time>2026-04-17T12:44:36Z</time></trkpt><trkpt lat="14.38708098227743" lon="120.97369139666768"><ele>45.0</ele><time>2026-04-17T12:44:37Z</time></trkpt><trkpt lat="14.3871055676895" lon="120.97361431284193"><ele>45.0</ele><time>2026-04-17T12:44:38Z</time></trkpt><trkpt lat="14.387144325896134" lon="120.97353430079914"><ele>45.0</ele><time>2026-04-17T12:44:40Z</time></trkpt><trkpt lat="14.387156936777393" lon="120.97343698082526"><ele>45.0</ele><time>2026-04-17T12:45:03Z</time></trkpt><trkpt lat="14.38719149832754" lon="120.97330059809963"><ele>45.0</ele><time>2026-04-17T12:45:05Z</time></trkpt><trkpt lat="14.3872077280766" lon="120.97322898936443"><ele>44.8</ele><time>2026-04-17T12:45:06Z</time></trkpt><trkpt lat="14.38723197731187" lon="120.97313980483952"><ele>44.6</ele><time>2026-04-17T12:45:07Z</time></trkpt><trkpt lat="14.387262733596835" lon="120.97306136505172"><ele>44.400000000000006</ele><time>2026-04-17T12:45:08Z</time></trkpt><trkpt lat="14.387280566306073" lon="120.97294484434195"><ele>44.2</ele><time>2026-04-17T12:45:09Z</time></trkpt><trkpt lat="14.387306102124015" lon="120.97283835469476"><ele>44.0</ele><time>2026-04-17T12:45:10Z</time></trkpt><trkpt lat="14.38731861821976" lon="120.97274223393792"><ele>44.0</ele><time>2026-04-17T12:45:11Z</time></trkpt><trkpt lat="14.387334758004796" lon="120.97265195841854"><ele>44.0</ele><time>2026-04-17T12:45:12Z</time></trkpt><trkpt lat="14.387363831400245" lon="120.97255011702993"><ele>44.0</ele><time>2026-04-17T12:45:13Z</time></trkpt><trkpt lat="14.387391246172381" lon="120.97246012507861"><ele>44.0</ele><time>2026-04-17T12:45:14Z</time></trkpt><trkpt lat="14.38741217411026" lon="120.97237601389054"><ele>44.0</ele><time>2026-04-17T12:45:15Z</time></trkpt><trkpt lat="14.387435792837513" lon="120.97229782189811"><ele>44.0</ele><time>2026-04-17T12:45:16Z</time></trkpt><trkpt lat="14.387467536426769" lon="120.97217532724568"><ele>43.6</ele><time>2026-04-17T12:45:17Z</time></trkpt><trkpt lat="14.387496585187401" lon="120.97206631545228"><ele>43.2</ele><time>2026-04-17T12:45:18Z</time></trkpt><trkpt lat="14.387528488587334" lon="120.97195326567567"><ele>42.800000000000004</ele><time>2026-04-17T12:45:19Z</time></trkpt><trkpt lat="14.387560844255267" lon="120.97183842905446"><ele>42.400000000000006</ele><time>2026-04-17T12:45:20Z</time></trkpt><trkpt lat="14.387582437154798" lon="120.9717328626502"><ele>42.0</ele><time>2026-04-17T12:45:21Z</time></trkpt><trkpt lat="14.387609300466524" lon="120.97162269562477"><ele>42.0</ele><time>2026-04-17T12:45:22Z</time></trkpt><trkpt lat="14.38763496039992" lon="120.97152023317622"><ele>42.0</ele><time>2026-04-17T12:45:23Z</time></trkpt><trkpt lat="14.38766263764663" lon="120.97142821722296"><ele>42.0</ele><time>2026-04-17T12:45:24Z</time></trkpt><trkpt lat="14.38768935480958" lon="120.97133073378356"><ele>42.0</ele><time>2026-04-17T12:45:25Z</time></trkpt><trkpt lat="14.38772582658993" lon="120.97125403234034"><ele>42.0</ele><time>2026-04-17T12:45:26Z</time></trkpt><trkpt lat="14.387734766026492" lon="120.97116884116366"><ele>42.0</ele><time>2026-04-17T12:45:27Z</time></trkpt><trkpt lat="14.38777474445386" lon="120.97103370350432"><ele>42.0</ele><time>2026-04-17T12:45:29Z</time></trkpt><trkpt lat="14.387800466732683" lon="120.97097099368385"><ele>42.0</ele><time>2026-04-17T12:45:30Z</time></trkpt><trkpt lat="14.387816365271094" lon="120.97087738915859"><ele>42.0</ele><time>2026-04-17T12:45:33Z</time></trkpt><trkpt lat="14.387855079581492" lon="120.97076859323346"><ele>42.0</ele><time>2026-04-17T12:45:35Z</time></trkpt><trkpt lat="14.38790091142238" lon="120.970671402368"><ele>42.5</ele><time>2026-04-17T12:45:37Z</time></trkpt><trkpt lat="14.387940309189363" lon="120.97058418844058"><ele>43.0</ele><time>2026-04-17T12:45:39Z</time></trkpt><trkpt lat="14.387979321866661" lon="120.97050332291435"><ele>43.5</ele><time>2026-04-17T12:45:41Z</time></trkpt><trkpt lat="14.388013140477007" lon="120.97044330461742"><ele>44.0</ele><time>2026-04-17T12:45:42Z</time></trkpt><trkpt lat="14.388051739582133" lon="120.97038102193657"><ele>44.5</ele><time>2026-04-17T12:45:43Z</time></trkpt><trkpt lat="14.388097887619061" lon="120.97031841090437"><ele>45.0</ele><time>2026-04-17T12:45:44Z</time></trkpt><trkpt lat="14.388145059393171" lon="120.97025582200405"><ele>45.0</ele><time>2026-04-17T12:45:45Z</time></trkpt><trkpt lat="14.388193082030657" lon="120.97019607844024"><ele>45.0</ele><time>2026-04-17T12:45:46Z</time></trkpt><trkpt lat="14.388237501576265" lon="120.97012239954726"><ele>45.0</ele><time>2026-04-17T12:45:47Z</time></trkpt><trkpt lat="14.388285728255509" lon="120.97003511343136"><ele>45.0</ele><time>2026-04-17T12:45:48Z</time></trkpt><trkpt lat="14.388345144626092" lon="120.96995430220858"><ele>45.0</ele><time>2026-04-17T12:45:49Z</time></trkpt><trkpt lat="14.388385382640196" lon="120.96985797703864"><ele>45.0</ele><time>2026-04-17T12:45:50Z</time></trkpt><trkpt lat="14.388437431860686" lon="120.9697533796799"><ele>45.0</ele><time>2026-04-17T12:45:51Z</time></trkpt><trkpt lat="14.388458274338669" lon="120.96963915797093"><ele>45.0</ele><time>2026-04-17T12:45:52Z</time></trkpt><trkpt lat="14.38850058066632" lon="120.96952808317297"><ele>45.0</ele><time>2026-04-17T12:45:53Z</time></trkpt><trkpt lat="14.388546720115505" lon="120.9694213755729"><ele>45.0</ele><time>2026-04-17T12:45:54Z</time></trkpt><trkpt lat="14.388578323437878" lon="120.96928623599364"><ele>45.0</ele><time>2026-04-17T12:45:55Z</time></trkpt><trkpt lat="14.388616153061077" lon="120.96916784674747"><ele>45.0</ele><time>2026-04-17T12:45:56Z</time></trkpt><trkpt lat="14.388660758212954" lon="120.96904573780421"><ele>45.0</ele><time>2026-04-17T12:45:57Z</time></trkpt><trkpt lat="14.388705849959981" lon="120.96893079121358"><ele>44.5</ele><time>2026-04-17T12:45:58Z</time></trkpt><trkpt lat="14.38873904079777" lon="120.96880320702407"><ele>44.0</ele><time>2026-04-17T12:45:59Z</time></trkpt><trkpt lat="14.38876673062344" lon="120.96868552137373"><ele>43.5</ele><time>2026-04-17T12:46:00Z</time></trkpt><trkpt lat="14.388788711973959" lon="120.96856317496213"><ele>43.0</ele><time>2026-04-17T12:46:01Z</time></trkpt><trkpt lat="14.388811306635917" lon="120.96844614676117"><ele>43.4</ele><time>2026-04-17T12:46:02Z</time></trkpt><trkpt lat="14.3888196696308" lon="120.96832031339896"><ele>43.8</ele><time>2026-04-17T12:46:03Z</time></trkpt><trkpt lat="14.388823775865635" lon="120.96822634979864"><ele>44.2</ele><time>2026-04-17T12:46:04Z</time></trkpt><trkpt lat="14.388831718090287" lon="120.96811517533068"><ele>44.6</ele><time>2026-04-17T12:46:05Z</time></trkpt><trkpt lat="14.388835239225287" lon="120.96802330599158"><ele>45.0</ele><time>2026-04-17T12:46:06Z</time></trkpt><trkpt lat="14.388833485401388" lon="120.96794183052869"><ele>45.0</ele><time>2026-04-17T12:46:07Z</time></trkpt><trkpt lat="14.388834985635471" lon="120.96786702847184"><ele>45.0</ele><time>2026-04-17T12:46:08Z</time></trkpt><trkpt lat="14.3888393604039" lon="120.96775579009615"><ele>45.0</ele><time>2026-04-17T12:46:10Z</time></trkpt><trkpt lat="14.388839042893956" lon="120.96768743276196"><ele>45.0</ele><time>2026-04-17T12:46:12Z</time></trkpt><trkpt lat="14.388871410221572" lon="120.96762972966168"><ele>45.0</ele><time>2026-04-17T12:46:15Z</time></trkpt><trkpt lat="14.388961261225326" lon="120.96763125899855"><ele>45.0</ele><time>2026-04-17T12:46:19Z</time></trkpt><trkpt lat="14.389041682570614" lon="120.96765456781597"><ele>44.2</ele><time>2026-04-17T12:46:21Z</time></trkpt><trkpt lat="14.389152341129297" lon="120.9676775546932"><ele>43.4</ele><time>2026-04-17T12:46:23Z</time></trkpt><trkpt lat="14.389239439307016" lon="120.96769209810043"><ele>42.599999999999994</ele><time>2026-04-17T12:46:24Z</time></trkpt><trkpt lat="14.389337651940284" lon="120.96771570774484"><ele>41.8</ele><time>2026-04-17T12:46:25Z</time></trkpt><trkpt lat="14.38942816571478" lon="120.96773882210097"><ele>41.0</ele><time>2026-04-17T12:46:26Z</time></trkpt><trkpt lat="14.389510863285848" lon="120.96775268502238"><ele>41.0</ele><time>2026-04-17T12:46:27Z</time></trkpt><trkpt lat="14.38958334783775" lon="120.96777344387364"><ele>41.0</ele><time>2026-04-17T12:46:28Z</time></trkpt><trkpt lat="14.389701132876278" lon="120.96780632099072"><ele>41.0</ele><time>2026-04-17T12:46:30Z</time></trkpt><trkpt lat="14.389814864251326" lon="120.96782262998093"><ele>41.0</ele><time>2026-04-17T12:46:32Z</time></trkpt><trkpt lat="14.389921561680891" lon="120.96783965631997"><ele>41.0</ele><time>2026-04-17T12:46:34Z</time></trkpt><trkpt lat="14.390059976096685" lon="120.96785648946543"><ele>41.599999999999994</ele><time>2026-04-17T12:46:36Z</time></trkpt><trkpt lat="14.390144577791581" lon="120.96787122064819"><ele>42.2</ele><time>2026-04-17T12:46:37Z</time></trkpt><trkpt lat="14.390239242233724" lon="120.96789103221577"><ele>42.8</ele><time>2026-04-17T12:46:38Z</time></trkpt><trkpt lat="14.390330906217917" lon="120.96790990198807"><ele>43.400000000000006</ele><time>2026-04-17T12:46:39Z</time></trkpt><trkpt lat="14.390402833083742" lon="120.96792384982163"><ele>44.0</ele><time>2026-04-17T12:46:40Z</time></trkpt><trkpt lat="14.390504936461065" lon="120.96793154636993"><ele>44.0</ele><time>2026-04-17T12:46:42Z</time></trkpt><trkpt lat="14.390602372744304" lon="120.9679470628313"><ele>44.0</ele><time>2026-04-17T12:46:44Z</time></trkpt><trkpt lat="14.39068945879756" lon="120.96794664441124"><ele>44.0</ele><time>2026-04-17T12:46:46Z</time></trkpt><trkpt lat="14.390780898300516" lon="120.96793973535787"><ele>44.0</ele><time>2026-04-17T12:46:48Z</time></trkpt><trkpt lat="14.390884970265322" lon="120.96792402689056"><ele>44.0</ele><time>2026-04-17T12:46:50Z</time></trkpt><trkpt lat="14.390989396030312" lon="120.96792314951547"><ele>44.0</ele><time>2026-04-17T12:46:52Z</time></trkpt><trkpt lat="14.39106424978953" lon="120.96789336446625"><ele>44.0</ele><time>2026-04-17T12:46:54Z</time></trkpt><trkpt lat="14.391153906128544" lon="120.96786977899964"><ele>44.0</ele><time>2026-04-17T12:46:56Z</time></trkpt><trkpt lat="14.391221331539933" lon="120.96783373371876"><ele>44.0</ele><time>2026-04-17T12:46:58Z</time></trkpt><trkpt lat="14.391288483743127" lon="120.9678067269126"><ele>44.0</ele><time>2026-04-17T12:47:02Z</time></trkpt><trkpt lat="14.391351911645767" lon="120.96777836362696"><ele>44.0</ele><time>2026-04-17T12:47:11Z</time></trkpt><trkpt lat="14.391427775573112" lon="120.96775194144533"><ele>43.83333333333333</ele><time>2026-04-17T12:47:14Z</time></trkpt><trkpt lat="14.391496368642906" lon="120.96771967692437"><ele>43.666666666666664</ele><time>2026-04-17T12:47:16Z</time></trkpt><trkpt lat="14.391598640947194" lon="120.96765931725288"><ele>43.5</ele><time>2026-04-17T12:47:18Z</time></trkpt><trkpt lat="14.391667910114547" lon="120.96762291564467"><ele>43.333333333333336</ele><time>2026-04-17T12:47:19Z</time></trkpt><trkpt lat="14.391726007498077" lon="120.96759241910414"><ele>43.16666666666667</ele><time>2026-04-17T12:47:20Z</time></trkpt><trkpt lat="14.39181058516866" lon="120.96754800258422"><ele>43.0</ele><time>2026-04-17T12:47:22Z</time></trkpt><trkpt lat="14.391879156390015" lon="120.9675274694634"><ele>43.0</ele><time>2026-04-17T12:47:29Z</time></trkpt><trkpt lat="14.391938604768942" lon="120.9674811236254"><ele>43.0</ele><time>2026-04-17T12:47:33Z</time></trkpt><trkpt lat="14.3920003430488" lon="120.96744834132994"><ele>43.0</ele><time>2026-04-17T12:47:37Z</time></trkpt><trkpt lat="14.392080779059832" lon="120.96740036039657"><ele>43.0</ele><time>2026-04-17T12:47:41Z</time></trkpt><trkpt lat="14.392160410788774" lon="120.96735494777508"><ele>43.0</ele><time>2026-04-17T12:47:44Z</time></trkpt><trkpt lat="14.392232087739334" lon="120.96731438854445"><ele>43.0</ele><time>2026-04-17T12:47:46Z</time></trkpt><trkpt lat="14.392291589828439" lon="120.9672807185934"><ele>42.66666666666667</ele><time>2026-04-17T12:47:47Z</time></trkpt><trkpt lat="14.39233678864086" lon="120.9672267434252"><ele>42.333333333333336</ele><time>2026-04-17T12:47:48Z</time></trkpt><trkpt lat="14.392398715365852" lon="120.96718623203739"><ele>42.0</ele><time>2026-04-17T12:47:49Z</time></trkpt><trkpt lat="14.392473674788535" lon="120.96714329008685"><ele>41.666666666666664</ele><time>2026-04-17T12:47:50Z</time></trkpt><trkpt lat="14.392555413318942" lon="120.96709306008573"><ele>41.33333333333333</ele><time>2026-04-17T12:47:51Z</time></trkpt><trkpt lat="14.39266832269023" lon="120.96705978566204"><ele>41.0</ele><time>2026-04-17T12:47:52Z</time></trkpt><trkpt lat="14.392743391202618" lon="120.96699420815634"><ele>41.0</ele><time>2026-04-17T12:47:53Z</time></trkpt><trkpt lat="14.392842376525017" lon="120.96696699470495"><ele>41.0</ele><time>2026-04-17T12:47:54Z</time></trkpt><trkpt lat="14.392925952099429" lon="120.96691961571827"><ele>41.0</ele><time>2026-04-17T12:47:55Z</time></trkpt><trkpt lat="14.393000681895492" lon="120.96687725140988"><ele>41.0</ele><time>2026-04-17T12:47:56Z</time></trkpt><trkpt lat="14.39305185979427" lon="120.96683801325261"><ele>41.0</ele><time>2026-04-17T12:47:57Z</time></trkpt><trkpt lat="14.393144825559379" lon="120.96678755822656"><ele>40.599999999999994</ele><time>2026-04-17T12:47:59Z</time></trkpt><trkpt lat="14.393237838753047" lon="120.96673989119103"><ele>40.199999999999996</ele><time>2026-04-17T12:48:01Z</time></trkpt><trkpt lat="14.393301797197148" lon="120.96672364756363"><ele>39.8</ele><time>2026-04-17T12:48:02Z</time></trkpt><trkpt lat="14.393396293970538" lon="120.96666703411776"><ele>39.4</ele><time>2026-04-17T12:48:04Z</time></trkpt><trkpt lat="14.393500073391031" lon="120.96662467059504"><ele>39.0</ele><time>2026-04-17T12:48:06Z</time></trkpt><trkpt lat="14.393590775112132" lon="120.96657601593257"><ele>39.0</ele><time>2026-04-17T12:48:08Z</time></trkpt><trkpt lat="14.39364885396983" lon="120.96654439300738"><ele>39.0</ele><time>2026-04-17T12:48:10Z</time></trkpt><trkpt lat="14.393726323983534" lon="120.96650630142166"><ele>39.0</ele><time>2026-04-17T12:48:13Z</time></trkpt><trkpt lat="14.393807792337117" lon="120.966482381569"><ele>39.0</ele><time>2026-04-17T12:48:17Z</time></trkpt><trkpt lat="14.393875133118518" lon="120.96655605878169"><ele>39.0</ele><time>2026-04-17T12:48:20Z</time></trkpt><trkpt lat="14.393917703720671" lon="120.96668098453635"><ele>38.666666666666664</ele><time>2026-04-17T12:48:22Z</time></trkpt><trkpt lat="14.393933455310794" lon="120.9667526141699"><ele>38.333333333333336</ele><time>2026-04-17T12:48:23Z</time></trkpt><trkpt lat="14.393960275085197" lon="120.96682989025635"><ele>38.0</ele><time>2026-04-17T12:48:24Z</time></trkpt><trkpt lat="14.393985315729687" lon="120.96690628165966"><ele>37.66666666666667</ele><time>2026-04-17T12:48:25Z</time></trkpt><trkpt lat="14.394009516853918" lon="120.96697182570638"><ele>37.333333333333336</ele><time>2026-04-17T12:48:26Z</time></trkpt><trkpt lat="14.394049998021114" lon="120.96708991966842"><ele>37.0</ele><time>2026-04-17T12:48:28Z</time></trkpt><trkpt lat="14.394086751352582" lon="120.96720491969465"><ele>37.0</ele><time>2026-04-17T12:48:30Z</time></trkpt><trkpt lat="14.394121298171418" lon="120.96729942485639"><ele>37.0</ele><time>2026-04-17T12:48:32Z</time></trkpt><trkpt lat="14.394181632056391" lon="120.96734739725896"><ele>37.0</ele><time>2026-04-17T12:48:34Z</time></trkpt><trkpt lat="14.394281498719305" lon="120.96732747808093"><ele>37.0</ele><time>2026-04-17T12:48:36Z</time></trkpt><trkpt lat="14.394381667478896" lon="120.96728429321733"><ele>37.0</ele><time>2026-04-17T12:48:38Z</time></trkpt><trkpt lat="14.3944766820761" lon="120.96723238569129"><ele>37.0</ele><time>2026-04-17T12:48:40Z</time></trkpt><trkpt lat="14.394559311408345" lon="120.96716981266317"><ele>37.0</ele><time>2026-04-17T12:48:42Z</time></trkpt><trkpt lat="14.394635012721649" lon="120.96709706141779"><ele>37.0</ele><time>2026-04-17T12:48:44Z</time></trkpt><trkpt lat="14.394692546942288" lon="120.96702005302352"><ele>37.0</ele><time>2026-04-17T12:48:46Z</time></trkpt><trkpt lat="14.394749353077136" lon="120.96691587998389"><ele>37.0</ele><time>2026-04-17T12:48:48Z</time></trkpt><trkpt lat="14.394785620718785" lon="120.9668311254112"><ele>37.2</ele><time>2026-04-17T12:48:50Z</time></trkpt><trkpt lat="14.39482056685127" lon="120.96676370836308"><ele>37.400000000000006</ele><time>2026-04-17T12:48:52Z</time></trkpt><trkpt lat="14.394870111670976" lon="120.96671444685057"><ele>37.599999999999994</ele><time>2026-04-17T12:48:54Z</time></trkpt><trkpt lat="14.394953291208891" lon="120.96667100099751"><ele>37.8</ele><time>2026-04-17T12:48:56Z</time></trkpt><trkpt lat="14.395063377180891" lon="120.96666366819629"><ele>38.0</ele><time>2026-04-17T12:48:58Z</time></trkpt><trkpt lat="14.395174375598746" lon="120.9666712601539"><ele>37.6</ele><time>2026-04-17T12:49:00Z</time></trkpt><trkpt lat="14.395255910530443" lon="120.9666764903876"><ele>37.199999999999996</ele><time>2026-04-17T12:49:02Z</time></trkpt><trkpt lat="14.395326849655538" lon="120.96667946165901"><ele>36.8</ele><time>2026-04-17T12:49:05Z</time></trkpt><trkpt lat="14.395430661993228" lon="120.96667945639179"><ele>36.4</ele><time>2026-04-17T12:49:09Z</time></trkpt><trkpt lat="14.395566036882505" lon="120.96661282966994"><ele>36.0</ele><time>2026-04-17T12:49:11Z</time></trkpt><trkpt lat="14.395633264759834" lon="120.96656820886321"><ele>36.0</ele><time>2026-04-17T12:49:12Z</time></trkpt><trkpt lat="14.395746717617783" lon="120.96651828566246"><ele>36.0</ele><time>2026-04-17T12:49:14Z</time></trkpt><trkpt lat="14.395848843717415" lon="120.96645665231674"><ele>36.0</ele><time>2026-04-17T12:49:16Z</time></trkpt><trkpt lat="14.395887032835494" lon="120.96640236128565"><ele>36.0</ele><time>2026-04-17T12:49:17Z</time></trkpt><trkpt lat="14.395917582970478" lon="120.9663283124803"><ele>36.0</ele><time>2026-04-17T12:49:19Z</time></trkpt><trkpt lat="14.395917384353064" lon="120.96625738959094"><ele>36.0</ele><time>2026-04-17T12:49:21Z</time></trkpt><trkpt lat="14.395942378041427" lon="120.96614132592558"><ele>36.0</ele><time>2026-04-17T12:49:23Z</time></trkpt><trkpt lat="14.395969154083533" lon="120.96607233442333"><ele>36.0</ele><time>2026-04-17T12:49:24Z</time></trkpt><trkpt lat="14.395971548259517" lon="120.96595423441943"><ele>36.0</ele><time>2026-04-17T12:49:26Z</time></trkpt><trkpt lat="14.395922557038073" lon="120.96589125142903"><ele>36.0</ele><time>2026-04-17T12:49:27Z</time></trkpt><trkpt lat="14.39587299641233" lon="120.96580726299388"><ele>36.0</ele><time>2026-04-17T12:49:28Z</time></trkpt><trkpt lat="14.395831779192708" lon="120.96573741381039"><ele>36.0</ele><time>2026-04-17T12:49:29Z</time></trkpt><trkpt lat="14.3957889931356" lon="120.96566490597431"><ele>36.0</ele><time>2026-04-17T12:49:30Z</time></trkpt><trkpt lat="14.395744874782215" lon="120.96559014033807"><ele>36.0</ele><time>2026-04-17T12:49:31Z</time></trkpt><trkpt lat="14.395711214756858" lon="120.96553309803097"><ele>36.0</ele><time>2026-04-17T12:49:32Z</time></trkpt><trkpt lat="14.395645705340517" lon="120.96544732989726"><ele>36.0</ele><time>2026-04-17T12:49:34Z</time></trkpt><trkpt lat="14.395598712133944" lon="120.96536502501193"><ele>36.0</ele><time>2026-04-17T12:49:36Z</time></trkpt><trkpt lat="14.395557304114215" lon="120.96529606120569"><ele>36.0</ele><time>2026-04-17T12:49:38Z</time></trkpt><trkpt lat="14.395504574634707" lon="120.96520548854154"><ele>36.0</ele><time>2026-04-17T12:49:40Z</time></trkpt><trkpt lat="14.395461682351836" lon="120.96513115226551"><ele>36.0</ele><time>2026-04-17T12:49:42Z</time></trkpt><trkpt lat="14.395462347591033" lon="120.96506017443406"><ele>36.0</ele><time>2026-04-17T12:49:44Z</time></trkpt><trkpt lat="14.395497894965377" lon="120.96500629412982"><ele>36.0</ele><time>2026-04-17T12:49:46Z</time></trkpt><trkpt lat="14.39556515248886" lon="120.96492013493754"><ele>36.0</ele><time>2026-04-17T12:49:49Z</time></trkpt><trkpt lat="14.395618349671755" lon="120.96484987735883"><ele>36.0</ele><time>2026-04-17T12:49:51Z</time></trkpt><trkpt lat="14.395658668650338" lon="120.9647805502429"><ele>36.0</ele><time>2026-04-17T12:49:53Z</time></trkpt><trkpt lat="14.395702929527722" lon="120.96472522177048"><ele>36.0</ele><time>2026-04-17T12:49:55Z</time></trkpt><trkpt lat="14.395766434645655" lon="120.96465481446906"><ele>36.0</ele><time>2026-04-17T12:49:57Z</time></trkpt><trkpt lat="14.395816664893468" lon="120.96461465388592"><ele>36.0</ele><time>2026-04-17T12:49:58Z</time></trkpt><trkpt lat="14.39586811126285" lon="120.96453272752113"><ele>36.0</ele><time>2026-04-17T12:49:59Z</time></trkpt><trkpt lat="14.395916554712528" lon="120.96444872868956"><ele>36.0</ele><time>2026-04-17T12:50:00Z</time></trkpt><trkpt lat="14.39596798054391" lon="120.9643728116258"><ele>36.0</ele><time>2026-04-17T12:50:01Z</time></trkpt><trkpt lat="14.39601957003306" lon="120.96429512512047"><ele>36.0</ele><time>2026-04-17T12:50:02Z</time></trkpt><trkpt lat="14.39607058679916" lon="120.96421362067507"><ele>36.0</ele><time>2026-04-17T12:50:03Z</time></trkpt><trkpt lat="14.396120298455163" lon="120.96412728622823"><ele>36.2</ele><time>2026-04-17T12:50:04Z</time></trkpt><trkpt lat="14.396174526259106" lon="120.96404938680465"><ele>36.400000000000006</ele><time>2026-04-17T12:50:05Z</time></trkpt><trkpt lat="14.396232907539307" lon="120.96396824351339"><ele>36.6</ele><time>2026-04-17T12:50:06Z</time></trkpt><trkpt lat="14.396289162747536" lon="120.96388748407689"><ele>36.800000000000004</ele><time>2026-04-17T12:50:07Z</time></trkpt><trkpt lat="14.396344700776567" lon="120.96379650827862"><ele>37.0</ele><time>2026-04-17T12:50:08Z</time></trkpt><trkpt lat="14.396401728550613" lon="120.96370981189706"><ele>37.0</ele><time>2026-04-17T12:50:09Z</time></trkpt><trkpt lat="14.39645706238129" lon="120.96362770097072"><ele>37.0</ele><time>2026-04-17T12:50:10Z</time></trkpt><trkpt lat="14.396516463007744" lon="120.96353771342567"><ele>37.0</ele><time>2026-04-17T12:50:11Z</time></trkpt><trkpt lat="14.39658242342838" lon="120.96344241895028"><ele>37.0</ele><time>2026-04-17T12:50:12Z</time></trkpt><trkpt lat="14.396651105497348" lon="120.9633545862427"><ele>37.0</ele><time>2026-04-17T12:50:13Z</time></trkpt><trkpt lat="14.39671430511057" lon="120.96325306234633"><ele>36.75</ele><time>2026-04-17T12:50:14Z</time></trkpt><trkpt lat="14.396779284587723" lon="120.96315694858119"><ele>36.5</ele><time>2026-04-17T12:50:15Z</time></trkpt><trkpt lat="14.396854167062319" lon="120.96306322985015"><ele>36.25</ele><time>2026-04-17T12:50:16Z</time></trkpt><trkpt lat="14.39693523595061" lon="120.96296999251918"><ele>36.0</ele><time>2026-04-17T12:50:17Z</time></trkpt><trkpt lat="14.397001148874732" lon="120.9628643840944"><ele>36.0</ele><time>2026-04-17T12:50:18Z</time></trkpt><trkpt lat="14.397068867062787" lon="120.9627667635906"><ele>36.0</ele><time>2026-04-17T12:50:19Z</time></trkpt><trkpt lat="14.397133602410515" lon="120.96266007739497"><ele>36.0</ele><time>2026-04-17T12:50:20Z</time></trkpt><trkpt lat="14.397190650748637" lon="120.9625590975855"><ele>36.0</ele><time>2026-04-17T12:50:21Z</time></trkpt><trkpt lat="14.397241330180433" lon="120.96246816158886"><ele>35.6</ele><time>2026-04-17T12:50:22Z</time></trkpt><trkpt lat="14.397291260435727" lon="120.96237931955882"><ele>35.2</ele><time>2026-04-17T12:50:23Z</time></trkpt><trkpt lat="14.39733933436252" lon="120.96228414068162"><ele>34.8</ele><time>2026-04-17T12:50:24Z</time></trkpt><trkpt lat="14.397386030847255" lon="120.96218196340106"><ele>34.4</ele><time>2026-04-17T12:50:25Z</time></trkpt><trkpt lat="14.39742109999349" lon="120.9620943191996"><ele>34.0</ele><time>2026-04-17T12:50:26Z</time></trkpt><trkpt lat="14.397462466419436" lon="120.96201240363737"><ele>34.0</ele><time>2026-04-17T12:50:27Z</time></trkpt><trkpt lat="14.397528614367737" lon="120.9619442005622"><ele>34.0</ele><time>2026-04-17T12:50:28Z</time></trkpt><trkpt lat="14.397609001929862" lon="120.96188288275015"><ele>34.0</ele><time>2026-04-17T12:50:29Z</time></trkpt><trkpt lat="14.397715499397382" lon="120.96185248170043"><ele>34.0</ele><time>2026-04-17T12:50:30Z</time></trkpt><trkpt lat="14.397824309019065" lon="120.96182768715347"><ele>34.0</ele><time>2026-04-17T12:50:31Z</time></trkpt><trkpt lat="14.397932998498582" lon="120.96180528961693"><ele>33.8</ele><time>2026-04-17T12:50:32Z</time></trkpt><trkpt lat="14.398041557518674" lon="120.96179508746452"><ele>33.599999999999994</ele><time>2026-04-17T12:50:33Z</time></trkpt><trkpt lat="14.398131386170201" lon="120.96176594951686"><ele>33.4</ele><time>2026-04-17T12:50:34Z</time></trkpt><trkpt lat="14.398219750288598" lon="120.96173804578987"><ele>33.199999999999996</ele><time>2026-04-17T12:50:35Z</time></trkpt><trkpt lat="14.398295942039843" lon="120.96171055748967"><ele>33.0</ele><time>2026-04-17T12:50:36Z</time></trkpt><trkpt lat="14.398377919308285" lon="120.96167704523171"><ele>33.0</ele><time>2026-04-17T12:50:37Z</time></trkpt><trkpt lat="14.39845860993225" lon="120.96164374500124"><ele>33.0</ele><time>2026-04-17T12:50:38Z</time></trkpt><trkpt lat="14.398542948071341" lon="120.96161519193859"><ele>33.0</ele><time>2026-04-17T12:50:39Z</time></trkpt><trkpt lat="14.398629375447054" lon="120.96156053765083"><ele>33.0</ele><time>2026-04-17T12:50:40Z</time></trkpt><trkpt lat="14.398712866271172" lon="120.96149859913307"><ele>33.0</ele><time>2026-04-17T12:50:41Z</time></trkpt><trkpt lat="14.398780804219436" lon="120.96141690383384"><ele>32.5</ele><time>2026-04-17T12:50:42Z</time></trkpt><trkpt lat="14.39886092214742" lon="120.96131844958799"><ele>32.0</ele><time>2026-04-17T12:50:43Z</time></trkpt><trkpt lat="14.398937505562063" lon="120.9612094068273"><ele>31.5</ele><time>2026-04-17T12:50:44Z</time></trkpt><trkpt lat="14.399020285268435" lon="120.96109131918163"><ele>31.0</ele><time>2026-04-17T12:50:45Z</time></trkpt><trkpt lat="14.39910649554575" lon="120.96097220976357"><ele>31.25</ele><time>2026-04-17T12:50:46Z</time></trkpt><trkpt lat="14.399198004958622" lon="120.96084854556335"><ele>31.5</ele><time>2026-04-17T12:50:47Z</time></trkpt><trkpt lat="14.399282319341038" lon="120.9607321665707"><ele>31.75</ele><time>2026-04-17T12:50:48Z</time></trkpt><trkpt lat="14.399375494330277" lon="120.96061504163674"><ele>32.0</ele><time>2026-04-17T12:50:49Z</time></trkpt><trkpt lat="14.399464987219915" lon="120.96049139372235"><ele>32.0</ele><time>2026-04-17T12:50:50Z</time></trkpt><trkpt lat="14.399566247146327" lon="120.96038480881408"><ele>32.0</ele><time>2026-04-17T12:50:51Z</time></trkpt><trkpt lat="14.399664101352197" lon="120.96027866727367"><ele>32.0</ele><time>2026-04-17T12:50:52Z</time></trkpt><trkpt lat="14.399785574422616" lon="120.96019753369072"><ele>32.0</ele><time>2026-04-17T12:50:53Z</time></trkpt><trkpt lat="14.399912613139122" lon="120.9601278297784"><ele>32.0</ele><time>2026-04-17T12:50:54Z</time></trkpt><trkpt lat="14.400035526933065" lon="120.9600499315194"><ele>32.0</ele><time>2026-04-17T12:50:55Z</time></trkpt><trkpt lat="14.400147803171992" lon="120.95996698830338"><ele>32.0</ele><time>2026-04-17T12:50:56Z</time></trkpt><trkpt lat="14.400255204824186" lon="120.95989903384371"><ele>32.0</ele><time>2026-04-17T12:50:57Z</time></trkpt><trkpt lat="14.400369760353115" lon="120.95980820869597"><ele>32.0</ele><time>2026-04-17T12:50:58Z</time></trkpt><trkpt lat="14.40048012329216" lon="120.95973422826302"><ele>32.0</ele><time>2026-04-17T12:50:59Z</time></trkpt><trkpt lat="14.40057729584676" lon="120.95965518170483"><ele>32.0</ele><time>2026-04-17T12:51:00Z</time></trkpt><trkpt lat="14.400668125543907" lon="120.95958102024167"><ele>32.0</ele><time>2026-04-17T12:51:01Z</time></trkpt><trkpt lat="14.400729880013076" lon="120.95954638650252"><ele>32.0</ele><time>2026-04-17T12:51:02Z</time></trkpt><trkpt lat="14.400793234956557" lon="120.95951127541291"><ele>31.6</ele><time>2026-04-17T12:51:03Z</time></trkpt><trkpt lat="14.400887746326825" lon="120.95944249013144"><ele>31.200000000000003</ele><time>2026-04-17T12:51:04Z</time></trkpt><trkpt lat="14.400973529273658" lon="120.9593826065795"><ele>30.8</ele><time>2026-04-17T12:51:05Z</time></trkpt><trkpt lat="14.40103578585742" lon="120.95933509497625"><ele>30.4</ele><time>2026-04-17T12:51:06Z</time></trkpt><trkpt lat="14.401117654471731" lon="120.95928319856137"><ele>30.0</ele><time>2026-04-17T12:51:08Z</time></trkpt><trkpt lat="14.401165098588043" lon="120.95923824501408"><ele>29.833333333333332</ele><time>2026-04-17T12:51:10Z</time></trkpt><trkpt lat="14.401223083108643" lon="120.95918351026556"><ele>29.666666666666664</ele><time>2026-04-17T12:51:12Z</time></trkpt><trkpt lat="14.401318377108813" lon="120.9591177560545"><ele>29.5</ele><time>2026-04-17T12:51:14Z</time></trkpt><trkpt lat="14.401376400585283" lon="120.95908094715146"><ele>29.333333333333332</ele><time>2026-04-17T12:51:15Z</time></trkpt><trkpt lat="14.401436155778125" lon="120.95904903686775"><ele>29.166666666666664</ele><time>2026-04-17T12:51:16Z</time></trkpt><trkpt lat="14.401523409202506" lon="120.95902670260863"><ele>29.0</ele><time>2026-04-17T12:51:17Z</time></trkpt><trkpt lat="14.401621671738981" lon="120.95900329672558"><ele>28.999999999999996</ele><time>2026-04-17T12:51:18Z</time></trkpt><trkpt lat="14.401723519905339" lon="120.95892364440603"><ele>29.0</ele><time>2026-04-17T12:51:20Z</time></trkpt><trkpt lat="14.401796379051886" lon="120.95891300094237"><ele>29.0</ele><time>2026-04-17T12:51:21Z</time></trkpt><trkpt lat="14.401862194790677" lon="120.95890242315411"><ele>29.0</ele><time>2026-04-17T12:51:22Z</time></trkpt><trkpt lat="14.401930419454363" lon="120.95888637828543"><ele>28.999999999999996</ele><time>2026-04-17T12:51:23Z</time></trkpt><trkpt lat="14.402005861114693" lon="120.95887319089684"><ele>29.0</ele><time>2026-04-17T12:51:24Z</time></trkpt><trkpt lat="14.402085923778817" lon="120.95886464974836"><ele>28.999999999999996</ele><time>2026-04-17T12:51:25Z</time></trkpt><trkpt lat="14.402167377999012" lon="120.95885936831709"><ele>29.0</ele><time>2026-04-17T12:51:26Z</time></trkpt><trkpt lat="14.40225363343907" lon="120.95884803032276"><ele>29.0</ele><time>2026-04-17T12:51:27Z</time></trkpt><trkpt lat="14.402337602142746" lon="120.9588358979154"><ele>29.0</ele><time>2026-04-17T12:51:28Z</time></trkpt><trkpt lat="14.402430599968662" lon="120.95882687896692"><ele>28.999999999999996</ele><time>2026-04-17T12:51:29Z</time></trkpt><trkpt lat="14.402514001165748" lon="120.95880858042197"><ele>29.0</ele><time>2026-04-17T12:51:30Z</time></trkpt><trkpt lat="14.402609419960154" lon="120.95880670070771"><ele>28.999999999999996</ele><time>2026-04-17T12:51:31Z</time></trkpt><trkpt lat="14.402691042980603" lon="120.95878151768102"><ele>29.0</ele><time>2026-04-17T12:51:32Z</time></trkpt><trkpt lat="14.402785027746171" lon="120.95876516239893"><ele>29.0</ele><time>2026-04-17T12:51:33Z</time></trkpt><trkpt lat="14.402873987383234" lon="120.95874365932364"><ele>29.0</ele><time>2026-04-17T12:51:34Z</time></trkpt><trkpt lat="14.402961030973904" lon="120.9587379851243"><ele>28.999999999999996</ele><time>2026-04-17T12:51:35Z</time></trkpt><trkpt lat="14.403041976867673" lon="120.95872091429094"><ele>29.0</ele><time>2026-04-17T12:51:36Z</time></trkpt><trkpt lat="14.403144749772252" lon="120.95872482053989"><ele>28.833333333333332</ele><time>2026-04-17T12:51:37Z</time></trkpt><trkpt lat="14.403226782267144" lon="120.95870511553909"><ele>28.666666666666664</ele><time>2026-04-17T12:51:38Z</time></trkpt><trkpt lat="14.403317853852686" lon="120.9586909605135"><ele>28.5</ele><time>2026-04-17T12:51:39Z</time></trkpt><trkpt lat="14.403390689451935" lon="120.95866837774777"><ele>28.333333333333336</ele><time>2026-04-17T12:51:40Z</time></trkpt><trkpt lat="14.40348730765316" lon="120.95865854667002"><ele>28.166666666666668</ele><time>2026-04-17T12:51:41Z</time></trkpt><trkpt lat="14.403578618585147" lon="120.95865648171346"><ele>28.0</ele><time>2026-04-17T12:51:42Z</time></trkpt><trkpt lat="14.403650967882221" lon="120.95863851545784"><ele>28.0</ele><time>2026-04-17T12:51:45Z</time></trkpt><trkpt lat="14.403751441411293" lon="120.95861724606917"><ele>27.999999999999996</ele><time>2026-04-17T12:51:47Z</time></trkpt><trkpt lat="14.403864350832572" lon="120.9586077198187"><ele>27.999999999999996</ele><time>2026-04-17T12:51:49Z</time></trkpt><trkpt lat="14.403961918012786" lon="120.95859122621101"><ele>28.0</ele><time>2026-04-17T12:51:51Z</time></trkpt><trkpt lat="14.40402342012588" lon="120.95857449405489"><ele>28.0</ele><time>2026-04-17T12:51:53Z</time></trkpt><trkpt lat="14.404123649964161" lon="120.9585287045579"><ele>28.0</ele><time>2026-04-17T12:51:56Z</time></trkpt><trkpt lat="14.404242409478611" lon="120.95847477236063"><ele>27.999999999999996</ele><time>2026-04-17T12:51:58Z</time></trkpt><trkpt lat="14.404315239188353" lon="120.95845474389681"><ele>27.999999999999996</ele><time>2026-04-17T12:51:59Z</time></trkpt><trkpt lat="14.404387824531529" lon="120.95843065297318"><ele>28.0</ele><time>2026-04-17T12:52:00Z</time></trkpt><trkpt lat="14.404469212775915" lon="120.9583971281871"><ele>28.0</ele><time>2026-04-17T12:52:01Z</time></trkpt><trkpt lat="14.40455936641618" lon="120.95835714342388"><ele>28.0</ele><time>2026-04-17T12:52:02Z</time></trkpt><trkpt lat="14.404655571958665" lon="120.95832037775835"><ele>27.999999999999996</ele><time>2026-04-17T12:52:03Z</time></trkpt><trkpt lat="14.40475878353076" lon="120.95827968329647"><ele>27.999999999999996</ele><time>2026-04-17T12:52:04Z</time></trkpt><trkpt lat="14.404871697670957" lon="120.95823056610642"><ele>28.0</ele><time>2026-04-17T12:52:05Z</time></trkpt><trkpt lat="14.4049751427232" lon="120.95818523332181"><ele>28.0</ele><time>2026-04-17T12:52:06Z</time></trkpt><trkpt lat="14.405073365555316" lon="120.95815142483733"><ele>28.0</ele><time>2026-04-17T12:52:07Z</time></trkpt><trkpt lat="14.40515280946227" lon="120.95811052633427"><ele>27.999999999999996</ele><time>2026-04-17T12:52:08Z</time></trkpt><trkpt lat="14.405226995716799" lon="120.95807356952368"><ele>27.999999999999996</ele><time>2026-04-17T12:52:09Z</time></trkpt><trkpt lat="14.40532042945757" lon="120.95802763005844"><ele>28.0</ele><time>2026-04-17T12:52:10Z</time></trkpt><trkpt lat="14.40542206888117" lon="120.95799240862704"><ele>28.0</ele><time>2026-04-17T12:52:11Z</time></trkpt><trkpt lat="14.405524507857091" lon="120.95796397135962"><ele>27.333333333333336</ele><time>2026-04-17T12:52:12Z</time></trkpt><trkpt lat="14.405589610082044" lon="120.95787625488501"><ele>26.666666666666668</ele><time>2026-04-17T12:52:13Z</time></trkpt><trkpt lat="14.405662622617061" lon="120.95784417697612"><ele>26.0</ele><time>2026-04-17T12:52:14Z</time></trkpt><trkpt lat="14.405734814839935" lon="120.95781338617599"><ele>25.333333333333336</ele><time>2026-04-17T12:52:15Z</time></trkpt><trkpt lat="14.405792647359874" lon="120.95777040163298"><ele>24.666666666666668</ele><time>2026-04-17T12:52:16Z</time></trkpt><trkpt lat="14.405867619732202" lon="120.95772429837751"><ele>24.0</ele><time>2026-04-17T12:52:17Z</time></trkpt><trkpt lat="14.405932496401315" lon="120.95766130299195"><ele>24.0</ele><time>2026-04-17T12:52:18Z</time></trkpt><trkpt lat="14.406000857666765" lon="120.95759348310492"><ele>24.0</ele><time>2026-04-17T12:52:19Z</time></trkpt><trkpt lat="14.406067023099922" lon="120.95752424281804"><ele>24.0</ele><time>2026-04-17T12:52:20Z</time></trkpt><trkpt lat="14.406152501932983" lon="120.9574541707512"><ele>24.0</ele><time>2026-04-17T12:52:21Z</time></trkpt><trkpt lat="14.40623811222427" lon="120.9573845576547"><ele>24.0</ele><time>2026-04-17T12:52:22Z</time></trkpt><trkpt lat="14.406327382947625" lon="120.95731332315458"><ele>24.2</ele><time>2026-04-17T12:52:23Z</time></trkpt><trkpt lat="14.406402022916094" lon="120.9572369122084"><ele>24.4</ele><time>2026-04-17T12:52:24Z</time></trkpt><trkpt lat="14.406478783671428" lon="120.95716862085295"><ele>24.6</ele><time>2026-04-17T12:52:25Z</time></trkpt><trkpt lat="14.406545169445367" lon="120.95709774538342"><ele>24.8</ele><time>2026-04-17T12:52:26Z</time></trkpt><trkpt lat="14.406607641250108" lon="120.95703719426858"><ele>25.0</ele><time>2026-04-17T12:52:27Z</time></trkpt><trkpt lat="14.40666423075468" lon="120.9569833770989"><ele>25.000000000000004</ele><time>2026-04-17T12:52:28Z</time></trkpt><trkpt lat="14.406724473761694" lon="120.95695252831572"><ele>25.0</ele><time>2026-04-17T12:52:29Z</time></trkpt><trkpt lat="14.40680660357303" lon="120.9568584071112"><ele>25.0</ele><time>2026-04-17T12:52:31Z</time></trkpt><trkpt lat="14.406849185063427" lon="120.95680554363477"><ele>25.0</ele><time>2026-04-17T12:52:32Z</time></trkpt><trkpt lat="14.406871432447769" lon="120.95673455919062"><ele>25.000000000000004</ele><time>2026-04-17T12:52:33Z</time></trkpt><trkpt lat="14.406881415717125" lon="120.95665625532067"><ele>25.0</ele><time>2026-04-17T12:52:34Z</time></trkpt><trkpt lat="14.406884253925965" lon="120.95656674490922"><ele>25.0</ele><time>2026-04-17T12:52:35Z</time></trkpt><trkpt lat="14.406882154923142" lon="120.956478911146"><ele>25.0</ele><time>2026-04-17T12:52:36Z</time></trkpt><trkpt lat="14.406877636848483" lon="120.95639215589921"><ele>25.0</ele><time>2026-04-17T12:52:37Z</time></trkpt><trkpt lat="14.406869570470667" lon="120.95625451259191"><ele>25.0</ele><time>2026-04-17T12:52:39Z</time></trkpt><trkpt lat="14.406870038220235" lon="120.95618225552779"><ele>25.0</ele><time>2026-04-17T12:52:40Z</time></trkpt><trkpt lat="14.406870806976498" lon="120.95609649122638"><ele>25.0</ele><time>2026-04-17T12:52:41Z</time></trkpt><trkpt lat="14.406887403197697" lon="120.95600848588212"><ele>25.0</ele><time>2026-04-17T12:52:42Z</time></trkpt><trkpt lat="14.406907214281638" lon="120.95590892872681"><ele>25.0</ele><time>2026-04-17T12:52:43Z</time></trkpt><trkpt lat="14.406943371413583" lon="120.95580098567551"><ele>25.0</ele><time>2026-04-17T12:52:44Z</time></trkpt><trkpt lat="14.406993253912173" lon="120.95568760714713"><ele>25.0</ele><time>2026-04-17T12:52:45Z</time></trkpt><trkpt lat="14.407038257418346" lon="120.95557508854175"><ele>25.0</ele><time>2026-04-17T12:52:46Z</time></trkpt><trkpt lat="14.407088558869729" lon="120.955465623145"><ele>25.0</ele><time>2026-04-17T12:52:47Z</time></trkpt><trkpt lat="14.40714744750268" lon="120.95535831578303"><ele>25.0</ele><time>2026-04-17T12:52:48Z</time></trkpt><trkpt lat="14.407211243818198" lon="120.95523768273975"><ele>25.0</ele><time>2026-04-17T12:52:49Z</time></trkpt><trkpt lat="14.407295011975636" lon="120.95512141873576"><ele>24.0</ele><time>2026-04-17T12:52:50Z</time></trkpt><trkpt lat="14.407394207091635" lon="120.95501311358929"><ele>23.0</ele><time>2026-04-17T12:52:51Z</time></trkpt><trkpt lat="14.407500521553839" lon="120.95491147674325"><ele>22.0</ele><time>2026-04-17T12:52:52Z</time></trkpt><trkpt lat="14.407640378731909" lon="120.95483953739327"><ele>21.0</ele><time>2026-04-17T12:52:53Z</time></trkpt><trkpt lat="14.407766502830682" lon="120.95474556356851"><ele>21.0</ele><time>2026-04-17T12:52:54Z</time></trkpt><trkpt lat="14.407900160473059" lon="120.95465924257175"><ele>21.0</ele><time>2026-04-17T12:52:55Z</time></trkpt><trkpt lat="14.408039602177036" lon="120.9545793797639"><ele>21.0</ele><time>2026-04-17T12:52:56Z</time></trkpt><trkpt lat="14.408182125014347" lon="120.9545023992835"><ele>20.75</ele><time>2026-04-17T12:52:57Z</time></trkpt><trkpt lat="14.408320446522014" lon="120.95442498879048"><ele>20.5</ele><time>2026-04-17T12:52:58Z</time></trkpt><trkpt lat="14.40844294042334" lon="120.95435609182532"><ele>20.25</ele><time>2026-04-17T12:52:59Z</time></trkpt><trkpt lat="14.408560292305038" lon="120.95429111321357"><ele>20.0</ele><time>2026-04-17T12:53:00Z</time></trkpt><trkpt lat="14.40867399442581" lon="120.95422960665985"><ele>20.0</ele><time>2026-04-17T12:53:01Z</time></trkpt><trkpt lat="14.408778878899357" lon="120.95417412114438"><ele>20.0</ele><time>2026-04-17T12:53:02Z</time></trkpt><trkpt lat="14.408880506722387" lon="120.9541264218077"><ele>20.0</ele><time>2026-04-17T12:53:03Z</time></trkpt><trkpt lat="14.408989157536526" lon="120.95406661913498"><ele>20.0</ele><time>2026-04-17T12:53:04Z</time></trkpt><trkpt lat="14.409088887045135" lon="120.95401593847528"><ele>20.0</ele><time>2026-04-17T12:53:05Z</time></trkpt><trkpt lat="14.409188533692431" lon="120.95396857083476"><ele>20.0</ele><time>2026-04-17T12:53:06Z</time></trkpt><trkpt lat="14.409270686136693" lon="120.9539301685251"><ele>20.0</ele><time>2026-04-17T12:53:07Z</time></trkpt><trkpt lat="14.409354769080759" lon="120.95387585335942"><ele>20.0</ele><time>2026-04-17T12:53:08Z</time></trkpt><trkpt lat="14.409445497526699" lon="120.9538173034968"><ele>20.0</ele><time>2026-04-17T12:53:09Z</time></trkpt><trkpt lat="14.409535231815854" lon="120.95376575415797"><ele>20.0</ele><time>2026-04-17T12:53:10Z</time></trkpt><trkpt lat="14.409635452521398" lon="120.95369989735369"><ele>20.0</ele><time>2026-04-17T12:53:11Z</time></trkpt><trkpt lat="14.4097395103935" lon="120.95364601362827"><ele>20.0</ele><time>2026-04-17T12:53:12Z</time></trkpt><trkpt lat="14.409849212504797" lon="120.95357998409345"><ele>20.0</ele><time>2026-04-17T12:53:13Z</time></trkpt><trkpt lat="14.409961164469308" lon="120.95351575921671"><ele>20.25</ele><time>2026-04-17T12:53:14Z</time></trkpt><trkpt lat="14.410073873955438" lon="120.95344968240799"><ele>20.5</ele><time>2026-04-17T12:53:15Z</time></trkpt><trkpt lat="14.410194866635184" lon="120.95338967478207"><ele>20.75</ele><time>2026-04-17T12:53:16Z</time></trkpt><trkpt lat="14.410307701616247" lon="120.95331763813417"><ele>21.0</ele><time>2026-04-17T12:53:17Z</time></trkpt><trkpt lat="14.410430321667484" lon="120.95325473364703"><ele>21.5</ele><time>2026-04-17T12:53:18Z</time></trkpt><trkpt lat="14.410544722755237" lon="120.95318446039687"><ele>22.0</ele><time>2026-04-17T12:53:19Z</time></trkpt><trkpt lat="14.410661452507222" lon="120.95311848986948"><ele>22.5</ele><time>2026-04-17T12:53:20Z</time></trkpt><trkpt lat="14.410781007446863" lon="120.95305224615647"><ele>23.0</ele><time>2026-04-17T12:53:21Z</time></trkpt><trkpt lat="14.410900570012576" lon="120.95298939942703"><ele>23.0</ele><time>2026-04-17T12:53:22Z</time></trkpt><trkpt lat="14.411022784232019" lon="120.95292238391436"><ele>23.0</ele><time>2026-04-17T12:53:23Z</time></trkpt><trkpt lat="14.41114907624368" lon="120.95286107724561"><ele>23.0</ele><time>2026-04-17T12:53:24Z</time></trkpt><trkpt lat="14.411271420789364" lon="120.95279276884789"><ele>23.0</ele><time>2026-04-17T12:53:25Z</time></trkpt><trkpt lat="14.411399016649165" lon="120.95272893141677"><ele>22.0</ele><time>2026-04-17T12:53:26Z</time></trkpt><trkpt lat="14.411526378529834" lon="120.95265872000365"><ele>21.0</ele><time>2026-04-17T12:53:27Z</time></trkpt><trkpt lat="14.411658862720287" lon="120.95260170748405"><ele>20.0</ele><time>2026-04-17T12:53:28Z</time></trkpt><trkpt lat="14.411789743930386" lon="120.9525352995329"><ele>19.0</ele><time>2026-04-17T12:53:29Z</time></trkpt><trkpt lat="14.411925294921103" lon="120.95246572106163"><ele>18.5</ele><time>2026-04-17T12:53:30Z</time></trkpt><trkpt lat="14.41205811850192" lon="120.95240021013814"><ele>18.0</ele><time>2026-04-17T12:53:31Z</time></trkpt><trkpt lat="14.412187638127405" lon="120.95233564458391"><ele>17.5</ele><time>2026-04-17T12:53:32Z</time></trkpt><trkpt lat="14.412314619815326" lon="120.95226751004539"><ele>17.0</ele><time>2026-04-17T12:53:33Z</time></trkpt><trkpt lat="14.412442129842898" lon="120.9522010770261"><ele>17.0</ele><time>2026-04-17T12:53:34Z</time></trkpt><trkpt lat="14.41256686049727" lon="120.95213601398284"><ele>17.0</ele><time>2026-04-17T12:53:35Z</time></trkpt><trkpt lat="14.412694945302453" lon="120.95206653800403"><ele>17.0</ele><time>2026-04-17T12:53:36Z</time></trkpt><trkpt lat="14.412822079923215" lon="120.95198949192202"><ele>17.0</ele><time>2026-04-17T12:53:37Z</time></trkpt><trkpt lat="14.412943122201547" lon="120.95190093836428"><ele>17.333333333333336</ele><time>2026-04-17T12:53:38Z</time></trkpt><trkpt lat="14.4130619747569" lon="120.9518040069018"><ele>17.666666666666668</ele><time>2026-04-17T12:53:39Z</time></trkpt><trkpt lat="14.413179153443561" lon="120.95170084349597"><ele>18.0</ele><time>2026-04-17T12:53:40Z</time></trkpt><trkpt lat="14.413291402222619" lon="120.95159734568941"><ele>18.0</ele><time>2026-04-17T12:53:41Z</time></trkpt><trkpt lat="14.413405794882795" lon="120.95149191540168"><ele>18.0</ele><time>2026-04-17T12:53:42Z</time></trkpt><trkpt lat="14.413524099953406" lon="120.95138184892696"><ele>18.0</ele><time>2026-04-17T12:53:43Z</time></trkpt><trkpt lat="14.413641271266005" lon="120.9512816663667"><ele>18.0</ele><time>2026-04-17T12:53:44Z</time></trkpt><trkpt lat="14.413753246443177" lon="120.9511821453614"><ele>18.0</ele><time>2026-04-17T12:53:45Z</time></trkpt><trkpt lat="14.413858519095713" lon="120.95108752320087"><ele>18.0</ele><time>2026-04-17T12:53:46Z</time></trkpt><trkpt lat="14.413956599272877" lon="120.95099623372798"><ele>18.0</ele><time>2026-04-17T12:53:47Z</time></trkpt><trkpt lat="14.414052344227214" lon="120.95090884642823"><ele>17.75</ele><time>2026-04-17T12:53:48Z</time></trkpt><trkpt lat="14.41414688863537" lon="120.95081645734894"><ele>17.5</ele><time>2026-04-17T12:53:49Z</time></trkpt><trkpt lat="14.414258443886" lon="120.95071823673413"><ele>17.25</ele><time>2026-04-17T12:53:50Z</time></trkpt><trkpt lat="14.414339668455113" lon="120.95064082023943"><ele>17.0</ele><time>2026-04-17T12:53:51Z</time></trkpt><trkpt lat="14.414426203730445" lon="120.95056121083316"><ele>17.0</ele><time>2026-04-17T12:53:52Z</time></trkpt><trkpt lat="14.41451966663339" lon="120.95048969523647"><ele>17.0</ele><time>2026-04-17T12:53:53Z</time></trkpt><trkpt lat="14.414628905571004" lon="120.950437546585"><ele>17.0</ele><time>2026-04-17T12:53:54Z</time></trkpt><trkpt lat="14.414738433753064" lon="120.95037820001752"><ele>17.0</ele><time>2026-04-17T12:53:55Z</time></trkpt><trkpt lat="14.414854105494962" lon="120.95032671250061"><ele>16.5</ele><time>2026-04-17T12:53:56Z</time></trkpt><trkpt lat="14.414969780566404" lon="120.95027972958486"><ele>16.0</ele><time>2026-04-17T12:53:57Z</time></trkpt><trkpt lat="14.415090251092035" lon="120.9502313149172"><ele>15.5</ele><time>2026-04-17T12:53:58Z</time></trkpt><trkpt lat="14.415204985280418" lon="120.9501822769194"><ele>15.0</ele><time>2026-04-17T12:53:59Z</time></trkpt><trkpt lat="14.415315161607216" lon="120.95012425131337"><ele>15.0</ele><time>2026-04-17T12:54:00Z</time></trkpt><trkpt lat="14.415409918641101" lon="120.9500513894375"><ele>15.0</ele><time>2026-04-17T12:54:01Z</time></trkpt><trkpt lat="14.41548825953891" lon="120.94996422961457"><ele>15.0</ele><time>2026-04-17T12:54:02Z</time></trkpt><trkpt lat="14.415566086447692" lon="120.94985983639658"><ele>15.0</ele><time>2026-04-17T12:54:03Z</time></trkpt><trkpt lat="14.41562242849031" lon="120.94975510335635"><ele>15.25</ele><time>2026-04-17T12:54:04Z</time></trkpt><trkpt lat="14.415668532007459" lon="120.9496339546481"><ele>15.5</ele><time>2026-04-17T12:54:05Z</time></trkpt><trkpt lat="14.41569807023359" lon="120.94950927086286"><ele>15.75</ele><time>2026-04-17T12:54:06Z</time></trkpt><trkpt lat="14.415712778101824" lon="120.94937676687569"><ele>16.0</ele><time>2026-04-17T12:54:07Z</time></trkpt><trkpt lat="14.415728283294124" lon="120.94925385418756"><ele>16.0</ele><time>2026-04-17T12:54:08Z</time></trkpt><trkpt lat="14.415750373900481" lon="120.9491405002529"><ele>16.0</ele><time>2026-04-17T12:54:09Z</time></trkpt><trkpt lat="14.415783009479759" lon="120.94903864611156"><ele>16.0</ele><time>2026-04-17T12:54:10Z</time></trkpt><trkpt lat="14.415830927437112" lon="120.9489511780958"><ele>16.0</ele><time>2026-04-17T12:54:11Z</time></trkpt><trkpt lat="14.415888755779037" lon="120.94887298828218"><ele>16.0</ele><time>2026-04-17T12:54:12Z</time></trkpt><trkpt lat="14.415951835458394" lon="120.94879987799105"><ele>16.0</ele><time>2026-04-17T12:54:13Z</time></trkpt><trkpt lat="14.416026488649441" lon="120.94873041193863"><ele>16.0</ele><time>2026-04-17T12:54:14Z</time></trkpt><trkpt lat="14.416113340531528" lon="120.94867205373903"><ele>16.0</ele><time>2026-04-17T12:54:15Z</time></trkpt><trkpt lat="14.41620542341942" lon="120.94862349301042"><ele>16.0</ele><time>2026-04-17T12:54:16Z</time></trkpt><trkpt lat="14.416290767852557" lon="120.94858838501912"><ele>16.0</ele><time>2026-04-17T12:54:17Z</time></trkpt><trkpt lat="14.416384865801472" lon="120.94856155559806"><ele>15.4</ele><time>2026-04-17T12:54:18Z</time></trkpt><trkpt lat="14.416476532927302" lon="120.9485415498643"><ele>14.8</ele><time>2026-04-17T12:54:19Z</time></trkpt><trkpt lat="14.416568522670202" lon="120.9485260037901"><ele>14.200000000000001</ele><time>2026-04-17T12:54:20Z</time></trkpt><trkpt lat="14.416667956346924" lon="120.94850429493528"><ele>13.600000000000001</ele><time>2026-04-17T12:54:21Z</time></trkpt><trkpt lat="14.416767436275629" lon="120.94848275042729"><ele>13.0</ele><time>2026-04-17T12:54:22Z</time></trkpt><trkpt lat="14.416876554687786" lon="120.94845820087428"><ele>13.0</ele><time>2026-04-17T12:54:23Z</time></trkpt><trkpt lat="14.416989429920925" lon="120.94843885809692"><ele>13.0</ele><time>2026-04-17T12:54:24Z</time></trkpt><trkpt lat="14.417106044187198" lon="120.94841543029213"><ele>13.0</ele><time>2026-04-17T12:54:25Z</time></trkpt><trkpt lat="14.417229185684377" lon="120.94839525115158"><ele>13.0</ele><time>2026-04-17T12:54:26Z</time></trkpt><trkpt lat="14.417345735980565" lon="120.94837118880132"><ele>13.2</ele><time>2026-04-17T12:54:27Z</time></trkpt><trkpt lat="14.417449607192028" lon="120.94834958339997"><ele>13.4</ele><time>2026-04-17T12:54:28Z</time></trkpt><trkpt lat="14.41754418218637" lon="120.94833304836105"><ele>13.599999999999998</ele><time>2026-04-17T12:54:29Z</time></trkpt><trkpt lat="14.417634493290032" lon="120.94831506662445"><ele>13.799999999999999</ele><time>2026-04-17T12:54:30Z</time></trkpt><trkpt lat="14.417719105206952" lon="120.94830195391718"><ele>14.0</ele><time>2026-04-17T12:54:31Z</time></trkpt><trkpt lat="14.417802608568275" lon="120.94828883768305"><ele>14.0</ele><time>2026-04-17T12:54:32Z</time></trkpt><trkpt lat="14.417888283597145" lon="120.94827006891853"><ele>13.999999999999998</ele><time>2026-04-17T12:54:33Z</time></trkpt><trkpt lat="14.417987394744245" lon="120.94823297805755"><ele>13.999999999999998</ele><time>2026-04-17T12:54:34Z</time></trkpt><trkpt lat="14.41809447775735" lon="120.94818383297485"><ele>14.0</ele><time>2026-04-17T12:54:35Z</time></trkpt><trkpt lat="14.418208495391898" lon="120.9481335035806"><ele>14.0</ele><time>2026-04-17T12:54:36Z</time></trkpt><trkpt lat="14.418317249492027" lon="120.94807126754215"><ele>14.75</ele><time>2026-04-17T12:54:37Z</time></trkpt><trkpt lat="14.418435325536038" lon="120.94799125180147"><ele>15.5</ele><time>2026-04-17T12:54:38Z</time></trkpt><trkpt lat="14.418551825093827" lon="120.94792041310338"><ele>16.25</ele><time>2026-04-17T12:54:39Z</time></trkpt><trkpt lat="14.418678789395395" lon="120.94784922049612"><ele>17.0</ele><time>2026-04-17T12:54:40Z</time></trkpt><trkpt lat="14.418804735286669" lon="120.9477650484252"><ele>16.0</ele><time>2026-04-17T12:54:41Z</time></trkpt><trkpt lat="14.418932922022705" lon="120.94767942056153"><ele>15.0</ele><time>2026-04-17T12:54:42Z</time></trkpt><trkpt lat="14.419059054726233" lon="120.94759508677423"><ele>14.0</ele><time>2026-04-17T12:54:43Z</time></trkpt><trkpt lat="14.419186545016979" lon="120.94751028386007"><ele>13.5</ele><time>2026-04-17T12:54:44Z</time></trkpt><trkpt lat="14.419314116259814" lon="120.94742413790252"><ele>13.0</ele><time>2026-04-17T12:54:45Z</time></trkpt><trkpt lat="14.419433818576072" lon="120.9473491276391"><ele>12.5</ele><time>2026-04-17T12:54:46Z</time></trkpt><trkpt lat="14.419543407418173" lon="120.94727052410771"><ele>12.0</ele><time>2026-04-17T12:54:47Z</time></trkpt><trkpt lat="14.419649405565156" lon="120.9471941400263"><ele>12.25</ele><time>2026-04-17T12:54:48Z</time></trkpt><trkpt lat="14.41975823298819" lon="120.94712976702947"><ele>12.5</ele><time>2026-04-17T12:54:49Z</time></trkpt><trkpt lat="14.419877340298891" lon="120.94707755433714"><ele>12.75</ele><time>2026-04-17T12:54:50Z</time></trkpt><trkpt lat="14.420005015202232" lon="120.94704191926341"><ele>13.0</ele><time>2026-04-17T12:54:51Z</time></trkpt><trkpt lat="14.420133200328994" lon="120.9470186264348"><ele>13.0</ele><time>2026-04-17T12:54:52Z</time></trkpt><trkpt lat="14.420266988035113" lon="120.94699509690085"><ele>13.0</ele><time>2026-04-17T12:54:53Z</time></trkpt><trkpt lat="14.420401685847272" lon="120.94696470385114"><ele>13.0</ele><time>2026-04-17T12:54:54Z</time></trkpt><trkpt lat="14.420527636612889" lon="120.94692390938246"><ele>13.0</ele><time>2026-04-17T12:54:55Z</time></trkpt><trkpt lat="14.420665336310387" lon="120.94686958075806"><ele>13.25</ele><time>2026-04-17T12:54:56Z</time></trkpt><trkpt lat="14.420793636803353" lon="120.94681257837904"><ele>13.5</ele><time>2026-04-17T12:54:57Z</time></trkpt><trkpt lat="14.420930259630596" lon="120.94674598311511"><ele>13.75</ele><time>2026-04-17T12:54:58Z</time></trkpt><trkpt lat="14.42106700501322" lon="120.94667415874504"><ele>14.0</ele><time>2026-04-17T12:54:59Z</time></trkpt><trkpt lat="14.421202168783205" lon="120.94660578487647"><ele>13.75</ele><time>2026-04-17T12:55:00Z</time></trkpt><trkpt lat="14.421324428618387" lon="120.94653931048286"><ele>13.5</ele><time>2026-04-17T12:55:01Z</time></trkpt><trkpt lat="14.421433293787121" lon="120.94647786553362"><ele>13.25</ele><time>2026-04-17T12:55:02Z</time></trkpt><trkpt lat="14.421529719825832" lon="120.94642497279801"><ele>13.0</ele><time>2026-04-17T12:55:03Z</time></trkpt><trkpt lat="14.421609714598311" lon="120.9463919239597"><ele>13.0</ele><time>2026-04-17T12:55:04Z</time></trkpt><trkpt lat="14.42170897712844" lon="120.94633793380915"><ele>13.0</ele><time>2026-04-17T12:55:05Z</time></trkpt><trkpt lat="14.4218165911385" lon="120.94628952748596"><ele>13.0</ele><time>2026-04-17T12:55:06Z</time></trkpt><trkpt lat="14.421885042948803" lon="120.94623088198166"><ele>13.0</ele><time>2026-04-17T12:55:07Z</time></trkpt><trkpt lat="14.421980206706298" lon="120.94617596877026"><ele>13.0</ele><time>2026-04-17T12:55:08Z</time></trkpt><trkpt lat="14.42207988310977" lon="120.94612248105356"><ele>13.5</ele><time>2026-04-17T12:55:09Z</time></trkpt><trkpt lat="14.422183584910337" lon="120.94606793375422"><ele>14.0</ele><time>2026-04-17T12:55:10Z</time></trkpt><trkpt lat="14.422290517793554" lon="120.94601027934739"><ele>14.5</ele><time>2026-04-17T12:55:11Z</time></trkpt><trkpt lat="14.422402733201796" lon="120.94596330081335"><ele>15.0</ele><time>2026-04-17T12:55:12Z</time></trkpt><trkpt lat="14.422515925568996" lon="120.94591901089971"><ele>15.0</ele><time>2026-04-17T12:55:13Z</time></trkpt><trkpt lat="14.422639582674408" lon="120.94588448902678"><ele>15.0</ele><time>2026-04-17T12:55:14Z</time></trkpt><trkpt lat="14.422766441624548" lon="120.94585473507009"><ele>15.0</ele><time>2026-04-17T12:55:15Z</time></trkpt><trkpt lat="14.422905873302215" lon="120.94583295428606"><ele>15.0</ele><time>2026-04-17T12:55:16Z</time></trkpt><trkpt lat="14.423048141904303" lon="120.94582106595267"><ele>14.75</ele><time>2026-04-17T12:55:17Z</time></trkpt><trkpt lat="14.423193687415171" lon="120.94581210053394"><ele>14.5</ele><time>2026-04-17T12:55:18Z</time></trkpt><trkpt lat="14.423333679620544" lon="120.9458065682211"><ele>14.25</ele><time>2026-04-17T12:55:19Z</time></trkpt><trkpt lat="14.423473336008945" lon="120.94580425209698"><ele>14.0</ele><time>2026-04-17T12:55:20Z</time></trkpt><trkpt lat="14.423588782933933" lon="120.94579381695907"><ele>14.0</ele><time>2026-04-17T12:55:21Z</time></trkpt><trkpt lat="14.423718444111136" lon="120.94580095564822"><ele>14.0</ele><time>2026-04-17T12:55:22Z</time></trkpt><trkpt lat="14.423822160284258" lon="120.94579277893706"><ele>14.0</ele><time>2026-04-17T12:55:23Z</time></trkpt><trkpt lat="14.42393193314479" lon="120.94578839600574"><ele>14.0</ele><time>2026-04-17T12:55:24Z</time></trkpt><trkpt lat="14.42404191051638" lon="120.9457829157894"><ele>14.399999999999999</ele><time>2026-04-17T12:55:25Z</time></trkpt><trkpt lat="14.424156905151596" lon="120.94579505029395"><ele>14.799999999999999</ele><time>2026-04-17T12:55:26Z</time></trkpt><trkpt lat="14.424236174268508" lon="120.94579173706006"><ele>15.200000000000001</ele><time>2026-04-17T12:55:27Z</time></trkpt><trkpt lat="14.42432414319364" lon="120.945809490243"><ele>15.600000000000001</ele><time>2026-04-17T12:55:28Z</time></trkpt><trkpt lat="14.424421477293382" lon="120.94581208252815"><ele>16.0</ele><time>2026-04-17T12:55:30Z</time></trkpt><trkpt lat="14.424495473859192" lon="120.94582708852417"><ele>15.999999999999998</ele><time>2026-04-17T12:55:32Z</time></trkpt><trkpt lat="14.4245606454921" lon="120.9457806775192"><ele>16.0</ele><time>2026-04-17T12:55:38Z</time></trkpt><trkpt lat="14.424635033013805" lon="120.94576128192016"><ele>16.0</ele><time>2026-04-17T12:55:40Z</time></trkpt><trkpt lat="14.42472791198977" lon="120.94575444629604"><ele>16.0</ele><time>2026-04-17T12:55:42Z</time></trkpt><trkpt lat="14.424800124387538" lon="120.94575739670448"><ele>15.999999999999998</ele><time>2026-04-17T12:55:44Z</time></trkpt><trkpt lat="14.424886603614953" lon="120.94576558358587"><ele>16.0</ele><time>2026-04-17T12:55:47Z</time></trkpt><trkpt lat="14.42501206181318" lon="120.94579519623238"><ele>15.600000000000001</ele><time>2026-04-17T12:55:48Z</time></trkpt><trkpt lat="14.425084224844197" lon="120.94580592006481"><ele>15.200000000000001</ele><time>2026-04-17T12:55:49Z</time></trkpt><trkpt lat="14.425181593025465" lon="120.94581511607271"><ele>14.799999999999999</ele><time>2026-04-17T12:55:50Z</time></trkpt><trkpt lat="14.425289229211607" lon="120.9458270216184"><ele>14.399999999999999</ele><time>2026-04-17T12:55:51Z</time></trkpt><trkpt lat="14.425388724859399" lon="120.94583485608128"><ele>14.0</ele><time>2026-04-17T12:55:52Z</time></trkpt><trkpt lat="14.425484996311281" lon="120.94584198018264"><ele>14.0</ele><time>2026-04-17T12:55:53Z</time></trkpt><trkpt lat="14.425579078352847" lon="120.94584629070407"><ele>13.999999999999998</ele><time>2026-04-17T12:55:54Z</time></trkpt><trkpt lat="14.425670807140216" lon="120.94585065762631"><ele>13.999999999999998</ele><time>2026-04-17T12:55:55Z</time></trkpt><trkpt lat="14.42577676695884" lon="120.94585822516207"><ele>14.0</ele><time>2026-04-17T12:55:56Z</time></trkpt><trkpt lat="14.425880846034644" lon="120.94586944099666"><ele>14.0</ele><time>2026-04-17T12:55:57Z</time></trkpt><trkpt lat="14.42598597328737" lon="120.94588353653346"><ele>14.0</ele><time>2026-04-17T12:55:58Z</time></trkpt><trkpt lat="14.42607619877786" lon="120.94589805832746"><ele>13.999999999999998</ele><time>2026-04-17T12:55:59Z</time></trkpt><trkpt lat="14.426165853144084" lon="120.9459055292201"><ele>13.999999999999998</ele><time>2026-04-17T12:56:00Z</time></trkpt><trkpt lat="14.426245052230518" lon="120.94589483102182"><ele>14.0</ele><time>2026-04-17T12:56:01Z</time></trkpt><trkpt lat="14.426331771031776" lon="120.94587341055552"><ele>14.0</ele><time>2026-04-17T12:56:02Z</time></trkpt><trkpt lat="14.426428958738596" lon="120.94581632884595"><ele>13.6</ele><time>2026-04-17T12:56:03Z</time></trkpt><trkpt lat="14.42652601641802" lon="120.94576263371656"><ele>13.2</ele><time>2026-04-17T12:56:04Z</time></trkpt><trkpt lat="14.426621005009352" lon="120.9457092809607"><ele>12.799999999999999</ele><time>2026-04-17T12:56:05Z</time></trkpt><trkpt lat="14.426721316376735" lon="120.94565508584292"><ele>12.399999999999999</ele><time>2026-04-17T12:56:06Z</time></trkpt><trkpt lat="14.426815487979589" lon="120.94558251468872"><ele>12.0</ele><time>2026-04-17T12:56:07Z</time></trkpt><trkpt lat="14.426918635994914" lon="120.94552696078735"><ele>12.0</ele><time>2026-04-17T12:56:08Z</time></trkpt><trkpt lat="14.42700927538423" lon="120.94546872488263"><ele>12.0</ele><time>2026-04-17T12:56:09Z</time></trkpt><trkpt lat="14.427086886549539" lon="120.94541513575304"><ele>12.0</ele><time>2026-04-17T12:56:10Z</time></trkpt><trkpt lat="14.42715524919429" lon="120.9453736213981"><ele>12.0</ele><time>2026-04-17T12:56:11Z</time></trkpt><trkpt lat="14.427217117926832" lon="120.94533132552536"><ele>12.0</ele><time>2026-04-17T12:56:12Z</time></trkpt><trkpt lat="14.427292455775271" lon="120.94522420531824"><ele>11.999999999999998</ele><time>2026-04-17T12:56:14Z</time></trkpt><trkpt lat="14.42731279423234" lon="120.945158980711"><ele>12.0</ele><time>2026-04-17T12:56:15Z</time></trkpt><trkpt lat="14.427337881028091" lon="120.94508292892283"><ele>12.0</ele><time>2026-04-17T12:56:16Z</time></trkpt><trkpt lat="14.42735543393125" lon="120.94501035733109"><ele>12.0</ele><time>2026-04-17T12:56:17Z</time></trkpt><trkpt lat="14.42737034539422" lon="120.94494500456656"><ele>12.0</ele><time>2026-04-17T12:56:18Z</time></trkpt><trkpt lat="14.427393221668915" lon="120.94485572098536"><ele>11.999999999999998</ele><time>2026-04-17T12:56:20Z</time></trkpt><trkpt lat="14.427409749202907" lon="120.94478336891326"><ele>12.0</ele><time>2026-04-17T12:56:22Z</time></trkpt><trkpt lat="14.427413892209078" lon="120.94471137788622"><ele>12.0</ele><time>2026-04-17T12:56:28Z</time></trkpt><trkpt lat="14.427425981010419" lon="120.94460527412868"><ele>12.0</ele><time>2026-04-17T12:57:15Z</time></trkpt><trkpt lat="14.427399950905361" lon="120.94451089596762"><ele>12.0</ele><time>2026-04-17T12:57:17Z</time></trkpt><trkpt lat="14.427313554292486" lon="120.94443276689817"><ele>12.0</ele><time>2026-04-17T12:57:19Z</time></trkpt><trkpt lat="14.427253392959884" lon="120.94440143786002"><ele>12.0</ele><time>2026-04-17T12:57:20Z</time></trkpt><trkpt lat="14.427180321118495" lon="120.94437759883317"><ele>12.0</ele><time>2026-04-17T12:57:21Z</time></trkpt><trkpt lat="14.427035839470994" lon="120.94432439194823"><ele>12.0</ele><time>2026-04-17T12:57:23Z</time></trkpt><trkpt lat="14.426957981091498" lon="120.94429173569128"><ele>12.0</ele><time>2026-04-17T12:57:24Z</time></trkpt><trkpt lat="14.426872491898472" lon="120.94425592169166"><ele>12.0</ele><time>2026-04-17T12:57:25Z</time></trkpt><trkpt lat="14.426781707968802" lon="120.94420811345975"><ele>12.0</ele><time>2026-04-17T12:57:26Z</time></trkpt><trkpt lat="14.426689187433883" lon="120.9441583130856"><ele>12.0</ele><time>2026-04-17T12:57:27Z</time></trkpt><trkpt lat="14.42659190818099" lon="120.94410544885696"><ele>12.0</ele><time>2026-04-17T12:57:28Z</time></trkpt><trkpt lat="14.42648767629383" lon="120.94405688740673"><ele>12.0</ele><time>2026-04-17T12:57:29Z</time></trkpt><trkpt lat="14.426385940852464" lon="120.94401192214987"><ele>12.0</ele><time>2026-04-17T12:57:30Z</time></trkpt><trkpt lat="14.426271579727647" lon="120.94396096226933"><ele>12.2</ele><time>2026-04-17T12:57:31Z</time></trkpt><trkpt lat="14.426168575221233" lon="120.94391296618008"><ele>12.399999999999999</ele><time>2026-04-17T12:57:32Z</time></trkpt><trkpt lat="14.426075979227894" lon="120.94386862221462"><ele>12.600000000000001</ele><time>2026-04-17T12:57:33Z</time></trkpt><trkpt lat="14.425988564189417" lon="120.94382837342972"><ele>12.8</ele><time>2026-04-17T12:57:34Z</time></trkpt><trkpt lat="14.425909063976885" lon="120.94379287344081"><ele>13.0</ele><time>2026-04-17T12:57:35Z</time></trkpt><trkpt lat="14.425836993041631" lon="120.94375943774942"><ele>12.999999999999998</ele><time>2026-04-17T12:57:36Z</time></trkpt><trkpt lat="14.4257638327792" lon="120.94372377179624"><ele>13.0</ele><time>2026-04-17T12:57:37Z</time></trkpt><trkpt lat="14.425698330647585" lon="120.94368965156397"><ele>13.0</ele><time>2026-04-17T12:57:38Z</time></trkpt><trkpt lat="14.425627116869178" lon="120.94365296757819"><ele>13.0</ele><time>2026-04-17T12:57:39Z</time></trkpt><trkpt lat="14.425543210363827" lon="120.9436086023739"><ele>12.999999999999998</ele><time>2026-04-17T12:57:41Z</time></trkpt><trkpt lat="14.425440964037097" lon="120.94356110153608"><ele>13.0</ele><time>2026-04-17T12:57:43Z</time></trkpt><trkpt lat="14.425370573492284" lon="120.94352797333198"><ele>13.166666666666666</ele><time>2026-04-17T12:57:45Z</time></trkpt><trkpt lat="14.425271368752055" lon="120.94348746558663"><ele>13.333333333333332</ele><time>2026-04-17T12:57:47Z</time></trkpt><trkpt lat="14.425210648594925" lon="120.9434650102982"><ele>13.5</ele><time>2026-04-17T12:57:48Z</time></trkpt><trkpt lat="14.4251514624496" lon="120.94341893871452"><ele>13.666666666666668</ele><time>2026-04-17T12:57:50Z</time></trkpt><trkpt lat="14.425096341662952" lon="120.94338463435928"><ele>13.833333333333334</ele><time>2026-04-17T12:57:51Z</time></trkpt><trkpt lat="14.424987537980696" lon="120.94333685223529"><ele>14.0</ele><time>2026-04-17T12:57:53Z</time></trkpt><trkpt lat="14.424902723563067" lon="120.94330508795842"><ele>14.166666666666668</ele><time>2026-04-17T12:57:55Z</time></trkpt><trkpt lat="14.424826101568264" lon="120.94327546884512"><ele>14.333333333333334</ele><time>2026-04-17T12:57:57Z</time></trkpt><trkpt lat="14.4247564565112" lon="120.94324844497477"><ele>14.5</ele><time>2026-04-17T12:58:01Z</time></trkpt><trkpt lat="14.424701471537883" lon="120.94320891552177"><ele>14.666666666666668</ele><time>2026-04-17T12:58:05Z</time></trkpt><trkpt lat="14.424617226729682" lon="120.9431539646521"><ele>14.833333333333334</ele><time>2026-04-17T12:58:08Z</time></trkpt><trkpt lat="14.424549551621158" lon="120.94311843346965"><ele>15.0</ele><time>2026-04-17T12:58:10Z</time></trkpt><trkpt lat="14.424452923861745" lon="120.94307426939497"><ele>15.0</ele><time>2026-04-17T12:58:12Z</time></trkpt><trkpt lat="14.424376335401584" lon="120.94302694121423"><ele>15.0</ele><time>2026-04-17T12:58:13Z</time></trkpt><trkpt lat="14.42429602104509" lon="120.94298864267358"><ele>15.0</ele><time>2026-04-17T12:58:14Z</time></trkpt><trkpt lat="14.424214327902583" lon="120.9429579181208"><ele>15.0</ele><time>2026-04-17T12:58:15Z</time></trkpt><trkpt lat="14.424131467165404" lon="120.9429225835297"><ele>15.0</ele><time>2026-04-17T12:58:16Z</time></trkpt><trkpt lat="14.424056638637987" lon="120.94288832938904"><ele>15.0</ele><time>2026-04-17T12:58:17Z</time></trkpt><trkpt lat="14.423994661695838" lon="120.94285959926606"><ele>15.0</ele><time>2026-04-17T12:58:18Z</time></trkpt><trkpt lat="14.423922339377057" lon="120.94282576983332"><ele>15.0</ele><time>2026-04-17T12:58:19Z</time></trkpt><trkpt lat="14.423851357818414" lon="120.94279625853609"><ele>15.0</ele><time>2026-04-17T12:58:20Z</time></trkpt><trkpt lat="14.423778834493104" lon="120.94276614705883"><ele>15.0</ele><time>2026-04-17T12:58:21Z</time></trkpt><trkpt lat="14.423617390076593" lon="120.94269183846876"><ele>15.0</ele><time>2026-04-17T12:58:23Z</time></trkpt><trkpt lat="14.423537448272816" lon="120.94266228019227"><ele>14.75</ele><time>2026-04-17T12:58:24Z</time></trkpt><trkpt lat="14.423463815216202" lon="120.94259315758352"><ele>14.5</ele><time>2026-04-17T12:58:26Z</time></trkpt><trkpt lat="14.423280826324103" lon="120.94253229027699"><ele>14.25</ele><time>2026-04-17T12:58:28Z</time></trkpt><trkpt lat="14.423220665884427" lon="120.94250810249208"><ele>14.0</ele><time>2026-04-17T12:58:29Z</time></trkpt><trkpt lat="14.423111556498725" lon="120.942468893037"><ele>14.000000000000002</ele><time>2026-04-17T12:58:31Z</time></trkpt><trkpt lat="14.423058231593668" lon="120.94242984734396"><ele>14.0</ele><time>2026-04-17T12:58:33Z</time></trkpt><trkpt lat="14.42299861611534" lon="120.9423685849402"><ele>14.0</ele><time>2026-04-17T12:58:36Z</time></trkpt><trkpt lat="14.42295502997618" lon="120.94231428256737"><ele>14.0</ele><time>2026-04-17T12:58:39Z</time></trkpt><trkpt lat="14.423025363383168" lon="120.9422737657735"><ele>14.000000000000002</ele><time>2026-04-17T12:58:42Z</time></trkpt><trkpt lat="14.423162872107454" lon="120.94224107969146"><ele>14.0</ele><time>2026-04-17T12:58:44Z</time></trkpt><trkpt lat="14.423228950841017" lon="120.942234031315"><ele>14.0</ele><time>2026-04-17T12:58:45Z</time></trkpt><trkpt lat="14.423356014426373" lon="120.94221305585637"><ele>13.999999999999998</ele><time>2026-04-17T12:58:47Z</time></trkpt><trkpt lat="14.423460104487093" lon="120.94219191789236"><ele>13.999999999999998</ele><time>2026-04-17T12:58:49Z</time></trkpt><trkpt lat="14.423572313877703" lon="120.9421663585494"><ele>14.0</ele><time>2026-04-17T12:58:51Z</time></trkpt><trkpt lat="14.423634888714373" lon="120.94215018950833"><ele>14.0</ele><time>2026-04-17T12:58:52Z</time></trkpt><trkpt lat="14.42371704445977" lon="120.94214643248661"><ele>14.0</ele><time>2026-04-17T12:58:54Z</time></trkpt><trkpt lat="14.423636634764929" lon="120.94214999311467"><ele>13.999999999999998</ele><time>2026-04-17T12:58:59Z</time></trkpt><trkpt lat="14.42352112919766" lon="120.94219132105498"><ele>13.999999999999998</ele><time>2026-04-17T12:59:01Z</time></trkpt><trkpt lat="14.423394444656259" lon="120.94220206961408"><ele>14.0</ele><time>2026-04-17T12:59:03Z</time></trkpt><trkpt lat="14.42331505455205" lon="120.94222616349383"><ele>14.0</ele><time>2026-04-17T12:59:04Z</time></trkpt><trkpt lat="14.423239280585575" lon="120.94223629864935"><ele>14.000000000000002</ele><time>2026-04-17T12:59:05Z</time></trkpt><trkpt lat="14.423169019011459" lon="120.94224787645437"><ele>14.0</ele><time>2026-04-17T12:59:06Z</time></trkpt><trkpt lat="14.423064710394582" lon="120.94227901929916"><ele>14.0</ele><time>2026-04-17T12:59:08Z</time></trkpt><trkpt lat="14.42297684915826" lon="120.94230367632679"><ele>14.0</ele><time>2026-04-17T12:59:10Z</time></trkpt><trkpt lat="14.422904575425711" lon="120.94231177224182"><ele>14.000000000000002</ele><time>2026-04-17T12:59:12Z</time></trkpt><trkpt lat="14.422842817872455" lon="120.94227679435505"><ele>14.0</ele><time>2026-04-17T12:59:16Z</time></trkpt><trkpt lat="14.422785603610764" lon="120.94223083486295"><ele>14.500000000000002</ele><time>2026-04-17T12:59:20Z</time></trkpt><trkpt lat="14.422685332950753" lon="120.94218619429877"><ele>15.0</ele><time>2026-04-17T12:59:22Z</time></trkpt><trkpt lat="14.42265490000283" lon="120.94210886446562"><ele>15.5</ele><time>2026-04-17T12:59:24Z</time></trkpt><trkpt lat="14.422738751688943" lon="120.94201768899836"><ele>16.0</ele><time>2026-04-17T12:59:26Z</time></trkpt><trkpt lat="14.422793968069259" lon="120.94197363670753"><ele>16.5</ele><time>2026-04-17T12:59:27Z</time></trkpt><trkpt lat="14.422842552859292" lon="120.94192512719428"><ele>17.0</ele><time>2026-04-17T12:59:28Z</time></trkpt><trkpt lat="14.422887390368718" lon="120.9418745165898"><ele>17.0</ele><time>2026-04-17T12:59:29Z</time></trkpt><trkpt lat="14.422942210875764" lon="120.94181615608045"><ele>17.0</ele><time>2026-04-17T12:59:31Z</time></trkpt><trkpt lat="14.422995098095956" lon="120.94177019993438"><ele>17.0</ele><time>2026-04-17T12:59:33Z</time></trkpt><trkpt lat="14.423073495012781" lon="120.94168547874048"><ele>17.0</ele><time>2026-04-17T12:59:35Z</time></trkpt><trkpt lat="14.423143270189577" lon="120.94161199706177"><ele>17.0</ele><time>2026-04-17T12:59:37Z</time></trkpt><trkpt lat="14.423203469643235" lon="120.94155532063533"><ele>17.0</ele><time>2026-04-17T12:59:39Z</time></trkpt><trkpt lat="14.423282643948564" lon="120.9414721982663"><ele>16.5</ele><time>2026-04-17T12:59:41Z</time></trkpt><trkpt lat="14.423335439249659" lon="120.94143004780271"><ele>16.0</ele><time>2026-04-17T12:59:42Z</time></trkpt><trkpt lat="14.423386821011269" lon="120.9413717266574"><ele>15.5</ele><time>2026-04-17T12:59:43Z</time></trkpt><trkpt lat="14.42344290315117" lon="120.94131158895522"><ele>15.0</ele><time>2026-04-17T12:59:44Z</time></trkpt><trkpt lat="14.423508865763656" lon="120.94124403046057"><ele>14.500000000000002</ele><time>2026-04-17T12:59:45Z</time></trkpt><trkpt lat="14.423571533695716" lon="120.94118528654163"><ele>14.0</ele><time>2026-04-17T12:59:46Z</time></trkpt><trkpt lat="14.423631165361881" lon="120.94113472434442"><ele>14.000000000000002</ele><time>2026-04-17T12:59:47Z</time></trkpt><trkpt lat="14.42368703329222" lon="120.94108444816199"><ele>14.0</ele><time>2026-04-17T12:59:48Z</time></trkpt><trkpt lat="14.423739891428017" lon="120.94103496713767"><ele>14.0</ele><time>2026-04-17T12:59:49Z</time></trkpt><trkpt lat="14.423784649167082" lon="120.94098810451422"><ele>14.0</ele><time>2026-04-17T12:59:50Z</time></trkpt><trkpt lat="14.423872703810133" lon="120.94091269871146"><ele>14.000000000000002</ele><time>2026-04-17T12:59:52Z</time></trkpt><trkpt lat="14.423937528903087" lon="120.94085544116129"><ele>14.0</ele><time>2026-04-17T12:59:54Z</time></trkpt><trkpt lat="14.423985583274574" lon="120.94080048335744"><ele>14.000000000000002</ele><time>2026-04-17T12:59:56Z</time></trkpt><trkpt lat="14.424039969687874" lon="120.94073231394955"><ele>14.0</ele><time>2026-04-17T12:59:58Z</time></trkpt><trkpt lat="14.424084254494195" lon="120.94067884009466"><ele>14.0</ele><time>2026-04-17T12:59:59Z</time></trkpt><trkpt lat="14.424135978546815" lon="120.94061640341397"><ele>14.0</ele><time>2026-04-17T13:00:00Z</time></trkpt><trkpt lat="14.42419604053236" lon="120.94055567827559"><ele>14.000000000000002</ele><time>2026-04-17T13:00:01Z</time></trkpt><trkpt lat="14.42427755268733" lon="120.94048063878463"><ele>14.0</ele><time>2026-04-17T13:00:02Z</time></trkpt><trkpt lat="14.42435504511864" lon="120.9404119674553"><ele>14.000000000000002</ele><time>2026-04-17T13:00:03Z</time></trkpt><trkpt lat="14.42443359181121" lon="120.94033615148166"><ele>14.0</ele><time>2026-04-17T13:00:04Z</time></trkpt><trkpt lat="14.424506760847176" lon="120.94027127314172"><ele>14.0</ele><time>2026-04-17T13:00:05Z</time></trkpt><trkpt lat="14.42457362988936" lon="120.94021210874928"><ele>14.0</ele><time>2026-04-17T13:00:06Z</time></trkpt><trkpt lat="14.424633123792034" lon="120.94015672229297"><ele>14.000000000000002</ele><time>2026-04-17T13:00:07Z</time></trkpt><trkpt lat="14.424685957970055" lon="120.94010264355992"><ele>14.0</ele><time>2026-04-17T13:00:08Z</time></trkpt><trkpt lat="14.424743262258346" lon="120.94004663414847"><ele>13.6</ele><time>2026-04-17T13:00:09Z</time></trkpt><trkpt lat="14.424798855488461" lon="120.93999086607397"><ele>13.2</ele><time>2026-04-17T13:00:10Z</time></trkpt><trkpt lat="14.424885638616917" lon="120.93991552347465"><ele>12.799999999999999</ele><time>2026-04-17T13:00:12Z</time></trkpt><trkpt lat="14.424955848235829" lon="120.93984645267203"><ele>12.399999999999999</ele><time>2026-04-17T13:00:14Z</time></trkpt><trkpt lat="14.425040029582924" lon="120.93976900703613"><ele>12.0</ele><time>2026-04-17T13:00:16Z</time></trkpt><trkpt lat="14.425086859635195" lon="120.93972200655723"><ele>11.999999999999998</ele><time>2026-04-17T13:00:17Z</time></trkpt><trkpt lat="14.425140259797448" lon="120.9396683504517"><ele>12.0</ele><time>2026-04-17T13:00:18Z</time></trkpt><trkpt lat="14.425195087386157" lon="120.93961329080942"><ele>12.0</ele><time>2026-04-17T13:00:19Z</time></trkpt><trkpt lat="14.425247822169533" lon="120.93956152250676"><ele>12.0</ele><time>2026-04-17T13:00:20Z</time></trkpt><trkpt lat="14.425298624251297" lon="120.93951770764984"><ele>12.0</ele><time>2026-04-17T13:00:21Z</time></trkpt><trkpt lat="14.425349473110142" lon="120.93947017827735"><ele>11.999999999999998</ele><time>2026-04-17T13:00:22Z</time></trkpt><trkpt lat="14.425402059869727" lon="120.93942122222218"><ele>12.0</ele><time>2026-04-17T13:00:23Z</time></trkpt><trkpt lat="14.425456013340334" lon="120.93936685346137"><ele>12.0</ele><time>2026-04-17T13:00:24Z</time></trkpt><trkpt lat="14.425518463855608" lon="120.93931465359945"><ele>12.0</ele><time>2026-04-17T13:00:25Z</time></trkpt><trkpt lat="14.425565462622751" lon="120.9392615733954"><ele>12.0</ele><time>2026-04-17T13:00:26Z</time></trkpt><trkpt lat="14.42561721916026" lon="120.93920533307616"><ele>12.0</ele><time>2026-04-17T13:00:27Z</time></trkpt><trkpt lat="14.4256688286006" lon="120.93916258507667"><ele>12.0</ele><time>2026-04-17T13:00:28Z</time></trkpt><trkpt lat="14.425755896881197" lon="120.93907095513397"><ele>12.0</ele><time>2026-04-17T13:00:30Z</time></trkpt><trkpt lat="14.425852167733963" lon="120.93897666945328"><ele>12.0</ele><time>2026-04-17T13:00:32Z</time></trkpt><trkpt lat="14.425903544526095" lon="120.9389320665521"><ele>12.0</ele><time>2026-04-17T13:00:33Z</time></trkpt><trkpt lat="14.425956656047878" lon="120.9388818977791"><ele>12.0</ele><time>2026-04-17T13:00:34Z</time></trkpt><trkpt lat="14.426011460417538" lon="120.93882843715626"><ele>12.0</ele><time>2026-04-17T13:00:35Z</time></trkpt><trkpt lat="14.426072008561421" lon="120.93875291962597"><ele>12.0</ele><time>2026-04-17T13:00:36Z</time></trkpt><trkpt lat="14.426150527820846" lon="120.93868071069306"><ele>12.0</ele><time>2026-04-17T13:00:37Z</time></trkpt><trkpt lat="14.426233104655925" lon="120.93860268532787"><ele>12.0</ele><time>2026-04-17T13:00:38Z</time></trkpt><trkpt lat="14.426321282401524" lon="120.93851058009241"><ele>12.0</ele><time>2026-04-17T13:00:39Z</time></trkpt><trkpt lat="14.426415486454522" lon="120.93842735895089"><ele>12.0</ele><time>2026-04-17T13:00:40Z</time></trkpt><trkpt lat="14.426512412620893" lon="120.938345692932"><ele>12.0</ele><time>2026-04-17T13:00:41Z</time></trkpt><trkpt lat="14.426606990750367" lon="120.9382597685578"><ele>12.25</ele><time>2026-04-17T13:00:42Z</time></trkpt><trkpt lat="14.426698783982772" lon="120.93817751392469"><ele>12.5</ele><time>2026-04-17T13:00:43Z</time></trkpt><trkpt lat="14.426789123799903" lon="120.938089257547"><ele>12.75</ele><time>2026-04-17T13:00:44Z</time></trkpt><trkpt lat="14.426884004019334" lon="120.93800609667588"><ele>13.0</ele><time>2026-04-17T13:00:45Z</time></trkpt><trkpt lat="14.42696546438082" lon="120.93791782296903"><ele>13.0</ele><time>2026-04-17T13:00:46Z</time></trkpt><trkpt lat="14.427053455496397" lon="120.93783408714872"><ele>13.0</ele><time>2026-04-17T13:00:47Z</time></trkpt><trkpt lat="14.427135767786202" lon="120.93774988408788"><ele>13.0</ele><time>2026-04-17T13:00:48Z</time></trkpt><trkpt lat="14.427212427845143" lon="120.93767858920332"><ele>13.0</ele><time>2026-04-17T13:00:49Z</time></trkpt><trkpt lat="14.427278605696497" lon="120.93760756989111"><ele>13.0</ele><time>2026-04-17T13:00:50Z</time></trkpt><trkpt lat="14.427337339859644" lon="120.93755183796402"><ele>12.833333333333332</ele><time>2026-04-17T13:00:51Z</time></trkpt><trkpt lat="14.427383935153298" lon="120.93750268675825"><ele>12.666666666666666</ele><time>2026-04-17T13:00:52Z</time></trkpt><trkpt lat="14.427459423226438" lon="120.93743068133311"><ele>12.5</ele><time>2026-04-17T13:00:54Z</time></trkpt><trkpt lat="14.427516843683637" lon="120.93737044218541"><ele>12.333333333333332</ele><time>2026-04-17T13:00:56Z</time></trkpt><trkpt lat="14.427572764235387" lon="120.93732253408183"><ele>12.166666666666666</ele><time>2026-04-17T13:00:59Z</time></trkpt><trkpt lat="14.427653307971697" lon="120.93726805490743"><ele>12.0</ele><time>2026-04-17T13:01:02Z</time></trkpt><trkpt lat="14.427696120403995" lon="120.93722025029538"><ele>12.0</ele><time>2026-04-17T13:01:04Z</time></trkpt><trkpt lat="14.427767828471907" lon="120.93717200853808"><ele>12.0</ele><time>2026-04-17T13:01:06Z</time></trkpt><trkpt lat="14.427851666427205" lon="120.93711924197703"><ele>12.0</ele><time>2026-04-17T13:01:08Z</time></trkpt><trkpt lat="14.427936034695687" lon="120.93706998872942"><ele>12.0</ele><time>2026-04-17T13:01:10Z</time></trkpt><trkpt lat="14.42802942188358" lon="120.93701356599651"><ele>12.0</ele><time>2026-04-17T13:01:12Z</time></trkpt><trkpt lat="14.428103728941489" lon="120.93696398856963"><ele>11.857142857142856</ele><time>2026-04-17T13:01:14Z</time></trkpt><trkpt lat="14.428172138444104" lon="120.9369224835813"><ele>11.714285714285714</ele><time>2026-04-17T13:01:16Z</time></trkpt><trkpt lat="14.42823383049591" lon="120.93689037640242"><ele>11.571428571428571</ele><time>2026-04-17T13:01:18Z</time></trkpt><trkpt lat="14.428263305341131" lon="120.93682459846178"><ele>11.428571428571427</ele><time>2026-04-17T13:01:21Z</time></trkpt><trkpt lat="14.428221362503928" lon="120.9367586246654"><ele>11.285714285714285</ele><time>2026-04-17T13:01:23Z</time></trkpt><trkpt lat="14.42818171266021" lon="120.9366970267246"><ele>11.142857142857142</ele><time>2026-04-17T13:01:25Z</time></trkpt><trkpt lat="14.428165161756533" lon="120.93663278858263"><ele>11.0</ele><time>2026-04-17T13:01:27Z</time></trkpt><trkpt lat="14.428130419581645" lon="120.93655698357504"><ele>11.0</ele><time>2026-04-17T13:01:30Z</time></trkpt><trkpt lat="14.428092147653205" lon="120.93648019185082"><ele>11.0</ele><time>2026-04-17T13:01:34Z</time></trkpt><trkpt lat="14.428056240843489" lon="120.93642252184527"><ele>11.0</ele><time>2026-04-17T13:01:36Z</time></trkpt><trkpt lat="14.428001405480785" lon="120.93630401410724"><ele>11.0</ele><time>2026-04-17T13:01:38Z</time></trkpt><trkpt lat="14.42797190191245" lon="120.93621038490814"><ele>11.0</ele><time>2026-04-17T13:01:39Z</time></trkpt><trkpt lat="14.427939816493716" lon="120.93610647109148"><ele>11.0</ele><time>2026-04-17T13:01:40Z</time></trkpt><trkpt lat="14.427889105163493" lon="120.93606010498166"><ele>11.0</ele><time>2026-04-17T13:01:42Z</time></trkpt><trkpt lat="14.42785981294665" lon="120.93598835878211"><ele>11.0</ele><time>2026-04-17T13:01:43Z</time></trkpt><trkpt lat="14.427836768377396" lon="120.93591002404769"><ele>11.0</ele><time>2026-04-17T13:01:44Z</time></trkpt><trkpt lat="14.427795925815962" lon="120.93583608218788"><ele>11.0</ele><time>2026-04-17T13:01:45Z</time></trkpt><trkpt lat="14.427751969709847" lon="120.9357637478961"><ele>11.0</ele><time>2026-04-17T13:01:46Z</time></trkpt><trkpt lat="14.427714685800344" lon="120.93569594396378"><ele>11.0</ele><time>2026-04-17T13:01:47Z</time></trkpt><trkpt lat="14.427687610443883" lon="120.93563541550756"><ele>11.0</ele><time>2026-04-17T13:01:48Z</time></trkpt><trkpt lat="14.427661472221956" lon="120.93557118974215"><ele>11.0</ele><time>2026-04-17T13:01:49Z</time></trkpt><trkpt lat="14.42760178768932" lon="120.93546089603358"><ele>11.0</ele><time>2026-04-17T13:01:51Z</time></trkpt><trkpt lat="14.427567630815892" lon="120.93539472188579"><ele>11.0</ele><time>2026-04-17T13:01:52Z</time></trkpt><trkpt lat="14.427535981795783" lon="120.93530227628027"><ele>11.0</ele><time>2026-04-17T13:01:56Z</time></trkpt><trkpt lat="14.42750110648846" lon="120.935239312413"><ele>11.0</ele><time>2026-04-17T13:01:57Z</time></trkpt><trkpt lat="14.427453804297556" lon="120.93513771782536"><ele>11.0</ele><time>2026-04-17T13:01:59Z</time></trkpt><trkpt lat="14.427401841142846" lon="120.93503262474893"><ele>11.0</ele><time>2026-04-17T13:02:01Z</time></trkpt><trkpt lat="14.427379876120181" lon="120.93496572892586"><ele>11.0</ele><time>2026-04-17T13:02:02Z</time></trkpt><trkpt lat="14.427352391457381" lon="120.93489440787405"><ele>11.0</ele><time>2026-04-17T13:02:03Z</time></trkpt><trkpt lat="14.427296661219913" lon="120.93476847575992"><ele>11.0</ele><time>2026-04-17T13:02:05Z</time></trkpt><trkpt lat="14.427256625273039" lon="120.93470932166964"><ele>11.0</ele><time>2026-04-17T13:02:08Z</time></trkpt><trkpt lat="14.427220034985169" lon="120.93459628265975"><ele>11.0</ele><time>2026-04-17T13:02:11Z</time></trkpt><trkpt lat="14.427139794855966" lon="120.93447681019857"><ele>11.0</ele><time>2026-04-17T13:02:13Z</time></trkpt><trkpt lat="14.427085268142285" lon="120.93435176135135"><ele>11.0</ele><time>2026-04-17T13:02:15Z</time></trkpt><trkpt lat="14.427049787008247" lon="120.93427932147365"><ele>11.0</ele><time>2026-04-17T13:02:16Z</time></trkpt><trkpt lat="14.427016385940556" lon="120.93420622367637"><ele>11.0</ele><time>2026-04-17T13:02:17Z</time></trkpt><trkpt lat="14.42696823654155" lon="120.9340948446954"><ele>11.0</ele><time>2026-04-17T13:02:19Z</time></trkpt><trkpt lat="14.426926802631861" lon="120.93401113823587"><ele>11.0</ele><time>2026-04-17T13:02:21Z</time></trkpt><trkpt lat="14.426902371676027" lon="120.93392738026489"><ele>11.0</ele><time>2026-04-17T13:02:23Z</time></trkpt><trkpt lat="14.426888067213419" lon="120.93385705637495"><ele>11.0</ele><time>2026-04-17T13:02:25Z</time></trkpt><trkpt lat="14.426858556044905" lon="120.93378101570178"><ele>11.0</ele><time>2026-04-17T13:02:29Z</time></trkpt><trkpt lat="14.426901832295613" lon="120.93373126138025"><ele>11.0</ele><time>2026-04-17T13:02:31Z</time></trkpt><trkpt lat="14.427013278408984" lon="120.93365682331059"><ele>11.0</ele><time>2026-04-17T13:02:33Z</time></trkpt><trkpt lat="14.427082717522705" lon="120.93361545083884"><ele>11.0</ele><time>2026-04-17T13:02:34Z</time></trkpt><trkpt lat="14.427153059693891" lon="120.93357166681261"><ele>10.833333333333332</ele><time>2026-04-17T13:02:35Z</time></trkpt><trkpt lat="14.427222958999666" lon="120.93352393777863"><ele>10.666666666666666</ele><time>2026-04-17T13:02:36Z</time></trkpt><trkpt lat="14.427291265193736" lon="120.93348398883296"><ele>10.5</ele><time>2026-04-17T13:02:37Z</time></trkpt><trkpt lat="14.427355030879712" lon="120.93344535538573"><ele>10.333333333333334</ele><time>2026-04-17T13:02:38Z</time></trkpt><trkpt lat="14.427412582118302" lon="120.933406653515"><ele>10.166666666666668</ele><time>2026-04-17T13:02:39Z</time></trkpt><trkpt lat="14.42753264600386" lon="120.93334283381161"><ele>10.0</ele><time>2026-04-17T13:02:41Z</time></trkpt><trkpt lat="14.427611984149076" lon="120.93329500745519"><ele>10.333333333333334</ele><time>2026-04-17T13:02:42Z</time></trkpt><trkpt lat="14.427695677304012" lon="120.93325154800314"><ele>10.666666666666668</ele><time>2026-04-17T13:02:43Z</time></trkpt><trkpt lat="14.427759594705238" lon="120.93321928576431"><ele>11.0</ele><time>2026-04-17T13:02:44Z</time></trkpt><trkpt lat="14.427817201940973" lon="120.93318272237501"><ele>11.333333333333334</ele><time>2026-04-17T13:02:45Z</time></trkpt><trkpt lat="14.427885477139274" lon="120.93315381648767"><ele>11.666666666666666</ele><time>2026-04-17T13:02:46Z</time></trkpt><trkpt lat="14.427938247461874" lon="120.93310296469915"><ele>12.0</ele><time>2026-04-17T13:02:47Z</time></trkpt><trkpt lat="14.427997075757277" lon="120.93304813365762"><ele>12.285714285714285</ele><time>2026-04-17T13:02:48Z</time></trkpt><trkpt lat="14.42806018245183" lon="120.93299591115186"><ele>12.571428571428571</ele><time>2026-04-17T13:02:49Z</time></trkpt><trkpt lat="14.428127736158993" lon="120.93296006754304"><ele>12.857142857142858</ele><time>2026-04-17T13:02:50Z</time></trkpt><trkpt lat="14.428181153886872" lon="120.93291435827605"><ele>13.142857142857142</ele><time>2026-04-17T13:02:51Z</time></trkpt><trkpt lat="14.428243157077423" lon="120.93287399546412"><ele>13.428571428571429</ele><time>2026-04-17T13:02:52Z</time></trkpt><trkpt lat="14.428306527302707" lon="120.93283981259209"><ele>13.714285714285714</ele><time>2026-04-17T13:02:53Z</time></trkpt><trkpt lat="14.428380627042847" lon="120.93281438051388"><ele>14.0</ele><time>2026-04-17T13:02:54Z</time></trkpt><trkpt lat="14.428437977227746" lon="120.93278184177801"><ele>14.0</ele><time>2026-04-17T13:02:55Z</time></trkpt><trkpt lat="14.428496477250334" lon="120.93274830741332"><ele>14.0</ele><time>2026-04-17T13:02:56Z</time></trkpt><trkpt lat="14.428549280948772" lon="120.93271199746164"><ele>14.0</ele><time>2026-04-17T13:02:57Z</time></trkpt><trkpt lat="14.428609302059622" lon="120.93268314979167"><ele>14.0</ele><time>2026-04-17T13:02:58Z</time></trkpt><trkpt lat="14.42866329200798" lon="120.93264792989713"><ele>14.0</ele><time>2026-04-17T13:02:59Z</time></trkpt><trkpt lat="14.428719128991121" lon="120.93261756507493"><ele>14.0</ele><time>2026-04-17T13:03:00Z</time></trkpt><trkpt lat="14.428829663028932" lon="120.9325611517628"><ele>14.0</ele><time>2026-04-17T13:03:02Z</time></trkpt><trkpt lat="14.428881698223874" lon="120.93252257138933"><ele>13.6</ele><time>2026-04-17T13:03:03Z</time></trkpt><trkpt lat="14.428960553812477" lon="120.93251771031973"><ele>13.2</ele><time>2026-04-17T13:03:04Z</time></trkpt><trkpt lat="14.42904389872378" lon="120.9324700631714"><ele>12.799999999999999</ele><time>2026-04-17T13:03:06Z</time></trkpt><trkpt lat="14.429135718218394" lon="120.9324123672027"><ele>12.399999999999999</ele><time>2026-04-17T13:03:08Z</time></trkpt><trkpt lat="14.429212581432314" lon="120.93235940432933"><ele>12.0</ele><time>2026-04-17T13:03:10Z</time></trkpt><trkpt lat="14.429236501292506" lon="120.93228491038109"><ele>12.0</ele><time>2026-04-17T13:03:12Z</time></trkpt><trkpt lat="14.42921124219228" lon="120.93214429027724"><ele>12.0</ele><time>2026-04-17T13:03:14Z</time></trkpt><trkpt lat="14.429201990897127" lon="120.93206870058057"><ele>12.0</ele><time>2026-04-17T13:03:15Z</time></trkpt><trkpt lat="14.429196878108268" lon="120.93199049969044"><ele>12.0</ele><time>2026-04-17T13:03:16Z</time></trkpt><trkpt lat="14.42918666508751" lon="120.93191956390956"><ele>12.0</ele><time>2026-04-17T13:03:17Z</time></trkpt><trkpt lat="14.42917942329279" lon="120.93184235764114"><ele>12.0</ele><time>2026-04-17T13:03:18Z</time></trkpt><trkpt lat="14.429174815373155" lon="120.93176247794415"><ele>12.142857142857142</ele><time>2026-04-17T13:03:19Z</time></trkpt><trkpt lat="14.429170263291196" lon="120.93167522614702"><ele>12.285714285714285</ele><time>2026-04-17T13:03:20Z</time></trkpt><trkpt lat="14.429174033820564" lon="120.93159863980436"><ele>12.428571428571427</ele><time>2026-04-17T13:03:21Z</time></trkpt><trkpt lat="14.429166577821267" lon="120.93153243330985"><ele>12.571428571428571</ele><time>2026-04-17T13:03:22Z</time></trkpt><trkpt lat="14.429163316787417" lon="120.93146398656127"><ele>12.714285714285715</ele><time>2026-04-17T13:03:23Z</time></trkpt><trkpt lat="14.429153726478283" lon="120.93139543763489"><ele>12.857142857142856</ele><time>2026-04-17T13:03:24Z</time></trkpt><trkpt lat="14.42915530278865" lon="120.93132348143949"><ele>13.0</ele><time>2026-04-17T13:03:25Z</time></trkpt><trkpt lat="14.429148830989389" lon="120.93124850915544"><ele>12.999999999999998</ele><time>2026-04-17T13:03:26Z</time></trkpt><trkpt lat="14.429139496604297" lon="120.93117611095859"><ele>13.0</ele><time>2026-04-17T13:03:27Z</time></trkpt><trkpt lat="14.429123627643275" lon="120.93109264503313"><ele>13.0</ele><time>2026-04-17T13:03:28Z</time></trkpt><trkpt lat="14.429120822131296" lon="120.93101086976971"><ele>13.0</ele><time>2026-04-17T13:03:29Z</time></trkpt><trkpt lat="14.429103182801231" lon="120.93090855725289"><ele>12.999999999999998</ele><time>2026-04-17T13:03:30Z</time></trkpt><trkpt lat="14.429096178774126" lon="120.93081819705145"><ele>13.0</ele><time>2026-04-17T13:03:31Z</time></trkpt><trkpt lat="14.42908683412651" lon="120.93072316581376"><ele>12.999999999999998</ele><time>2026-04-17T13:03:32Z</time></trkpt><trkpt lat="14.429086267654574" lon="120.93063268003237"><ele>13.0</ele><time>2026-04-17T13:03:33Z</time></trkpt><trkpt lat="14.429070650176735" lon="120.93055826644601"><ele>13.0</ele><time>2026-04-17T13:03:34Z</time></trkpt><trkpt lat="14.4290598160548" lon="120.930485624007"><ele>13.0</ele><time>2026-04-17T13:03:35Z</time></trkpt><trkpt lat="14.429055125831006" lon="120.93041734846138"><ele>12.999999999999998</ele><time>2026-04-17T13:03:36Z</time></trkpt><trkpt lat="14.429045590595225" lon="120.93029404621964"><ele>13.0</ele><time>2026-04-17T13:03:38Z</time></trkpt><trkpt lat="14.42903477382665" lon="120.93017330759781"><ele>12.25</ele><time>2026-04-17T13:03:40Z</time></trkpt><trkpt lat="14.42901811804475" lon="120.93005657812711"><ele>11.5</ele><time>2026-04-17T13:03:42Z</time></trkpt><trkpt lat="14.429007824134999" lon="120.92994264185936"><ele>10.75</ele><time>2026-04-17T13:03:44Z</time></trkpt><trkpt lat="14.428987593425193" lon="120.92982299547835"><ele>10.0</ele><time>2026-04-17T13:03:46Z</time></trkpt><trkpt lat="14.428983910642835" lon="120.92969761786166"><ele>10.0</ele><time>2026-04-17T13:03:48Z</time></trkpt><trkpt lat="14.428967458212083" lon="120.92962292037974"><ele>10.0</ele><time>2026-04-17T13:03:49Z</time></trkpt><trkpt lat="14.42896052134911" lon="120.92954894266053"><ele>10.0</ele><time>2026-04-17T13:03:50Z</time></trkpt><trkpt lat="14.428955019490486" lon="120.92947565090567"><ele>10.0</ele><time>2026-04-17T13:03:51Z</time></trkpt><trkpt lat="14.42894369110854" lon="120.92939216312551"><ele>10.0</ele><time>2026-04-17T13:03:52Z</time></trkpt><trkpt lat="14.42894315278717" lon="120.92931056851216"><ele>10.0</ele><time>2026-04-17T13:03:53Z</time></trkpt><trkpt lat="14.428926488176387" lon="120.92921756364883"><ele>10.0</ele><time>2026-04-17T13:03:54Z</time></trkpt><trkpt lat="14.428919000811446" lon="120.92912802239029"><ele>10.0</ele><time>2026-04-17T13:03:55Z</time></trkpt><trkpt lat="14.428909513586582" lon="120.9290520869701"><ele>10.0</ele><time>2026-04-17T13:03:56Z</time></trkpt><trkpt lat="14.428899868175739" lon="120.92892749034613"><ele>10.0</ele><time>2026-04-17T13:03:58Z</time></trkpt><trkpt lat="14.428897002066758" lon="120.92883497994025"><ele>10.0</ele><time>2026-04-17T13:04:00Z</time></trkpt><trkpt lat="14.428887533199863" lon="120.92873854118518"><ele>10.0</ele><time>2026-04-17T13:04:02Z</time></trkpt><trkpt lat="14.428879980611404" lon="120.92865565683694"><ele>10.0</ele><time>2026-04-17T13:04:04Z</time></trkpt><trkpt lat="14.428876287316971" lon="120.92857810604944"><ele>10.0</ele><time>2026-04-17T13:04:09Z</time></trkpt><trkpt lat="14.428868314666904" lon="120.92846674413441"><ele>10.0</ele><time>2026-04-17T13:04:11Z</time></trkpt><trkpt lat="14.428856572432117" lon="120.92840138959288"><ele>10.0</ele><time>2026-04-17T13:04:12Z</time></trkpt><trkpt lat="14.428851557213045" lon="120.92832498324972"><ele>10.0</ele><time>2026-04-17T13:04:13Z</time></trkpt><trkpt lat="14.428841973888401" lon="120.92824818365604"><ele>10.333333333333334</ele><time>2026-04-17T13:04:14Z</time></trkpt><trkpt lat="14.428827366065699" lon="120.92811717162019"><ele>10.666666666666668</ele><time>2026-04-17T13:04:16Z</time></trkpt><trkpt lat="14.428818755716042" lon="120.92802470707174"><ele>11.0</ele><time>2026-04-17T13:04:18Z</time></trkpt><trkpt lat="14.428810171333645" lon="120.92795133806165"><ele>11.333333333333334</ele><time>2026-04-17T13:04:21Z</time></trkpt><trkpt lat="14.42880088354637" lon="120.92786001928047"><ele>11.666666666666666</ele><time>2026-04-17T13:04:23Z</time></trkpt><trkpt lat="14.428800649578555" lon="120.92779033629758"><ele>12.0</ele><time>2026-04-17T13:04:25Z</time></trkpt><trkpt lat="14.428790690609128" lon="120.92771761174157"><ele>12.166666666666666</ele><time>2026-04-17T13:04:28Z</time></trkpt><trkpt lat="14.42877844756877" lon="120.92759292367394"><ele>12.333333333333332</ele><time>2026-04-17T13:04:30Z</time></trkpt><trkpt lat="14.428772706099064" lon="120.92751891083066"><ele>12.5</ele><time>2026-04-17T13:04:31Z</time></trkpt><trkpt lat="14.428761984216894" lon="120.92743408236684"><ele>12.666666666666666</ele><time>2026-04-17T13:04:32Z</time></trkpt><trkpt lat="14.428755226974529" lon="120.92734979149802"><ele>12.833333333333332</ele><time>2026-04-17T13:04:33Z</time></trkpt><trkpt lat="14.428744356047659" lon="120.9272575628587"><ele>13.0</ele><time>2026-04-17T13:04:34Z</time></trkpt><trkpt lat="14.428738855488723" lon="120.92717559987537"><ele>12.666666666666666</ele><time>2026-04-17T13:04:35Z</time></trkpt><trkpt lat="14.428733903883208" lon="120.92709638087254"><ele>12.333333333333332</ele><time>2026-04-17T13:04:36Z</time></trkpt><trkpt lat="14.428732928580636" lon="120.92700412587024"><ele>12.0</ele><time>2026-04-17T13:04:38Z</time></trkpt><trkpt lat="14.428717190491664" lon="120.92693228434166"><ele>11.666666666666666</ele><time>2026-04-17T13:04:42Z</time></trkpt><trkpt lat="14.428707386673784" lon="120.92685588580734"><ele>11.333333333333332</ele><time>2026-04-17T13:04:44Z</time></trkpt><trkpt lat="14.42870316757694" lon="120.92679083841789"><ele>11.0</ele><time>2026-04-17T13:04:46Z</time></trkpt><trkpt lat="14.428698043518628" lon="120.92669979218007"><ele>11.0</ele><time>2026-04-17T13:04:48Z</time></trkpt><trkpt lat="14.428689345294105" lon="120.92660711742789"><ele>11.0</ele><time>2026-04-17T13:04:50Z</time></trkpt><trkpt lat="14.428674099052378" lon="120.92650262210091"><ele>11.0</ele><time>2026-04-17T13:04:52Z</time></trkpt><trkpt lat="14.428667296352401" lon="120.92638174710629"><ele>11.0</ele><time>2026-04-17T13:04:54Z</time></trkpt><trkpt lat="14.428662946169728" lon="120.92631635442656"><ele>11.0</ele><time>2026-04-17T13:04:55Z</time></trkpt><trkpt lat="14.428657695628456" lon="120.92625130825134"><ele>11.0</ele><time>2026-04-17T13:04:56Z</time></trkpt><trkpt lat="14.428647728847885" lon="120.92613582668012"><ele>11.0</ele><time>2026-04-17T13:04:58Z</time></trkpt><trkpt lat="14.428635808679504" lon="120.92600475904094"><ele>11.0</ele><time>2026-04-17T13:05:00Z</time></trkpt><trkpt lat="14.428634671968519" lon="120.9259327422787"><ele>11.0</ele><time>2026-04-17T13:05:01Z</time></trkpt><trkpt lat="14.428629708590536" lon="120.92585918911901"><ele>11.0</ele><time>2026-04-17T13:05:02Z</time></trkpt><trkpt lat="14.42862437723396" lon="120.9257531878736"><ele>11.0</ele><time>2026-04-17T13:05:04Z</time></trkpt><trkpt lat="14.428621770384352" lon="120.92568527053815"><ele>11.0</ele><time>2026-04-17T13:05:05Z</time></trkpt><trkpt lat="14.428617860083738" lon="120.92561683564817"><ele>10.833333333333332</ele><time>2026-04-17T13:05:06Z</time></trkpt><trkpt lat="14.428605447019551" lon="120.92547310702132"><ele>10.666666666666666</ele><time>2026-04-17T13:05:08Z</time></trkpt><trkpt lat="14.428600255297727" lon="120.9254002697075"><ele>10.5</ele><time>2026-04-17T13:05:09Z</time></trkpt><trkpt lat="14.428591610461893" lon="120.92532188539349"><ele>10.333333333333334</ele><time>2026-04-17T13:05:10Z</time></trkpt><trkpt lat="14.42858693397583" lon="120.92523598243108"><ele>10.166666666666668</ele><time>2026-04-17T13:05:11Z</time></trkpt><trkpt lat="14.428579437014909" lon="120.92515997746894"><ele>10.0</ele><time>2026-04-17T13:05:12Z</time></trkpt><trkpt lat="14.428582575472714" lon="120.92508107914088"><ele>10.0</ele><time>2026-04-17T13:05:13Z</time></trkpt><trkpt lat="14.4285670793938" lon="120.92499282725996"><ele>10.0</ele><time>2026-04-17T13:05:14Z</time></trkpt><trkpt lat="14.428553764870985" lon="120.92490044931517"><ele>10.0</ele><time>2026-04-17T13:05:15Z</time></trkpt><trkpt lat="14.428536409477166" lon="120.92478905008515"><ele>10.0</ele><time>2026-04-17T13:05:16Z</time></trkpt><trkpt lat="14.428516874949429" lon="120.92467218982847"><ele>10.0</ele><time>2026-04-17T13:05:17Z</time></trkpt><trkpt lat="14.428511040941151" lon="120.92455515907437"><ele>10.0</ele><time>2026-04-17T13:05:18Z</time></trkpt><trkpt lat="14.428520222766183" lon="120.9244586730879"><ele>10.0</ele><time>2026-04-17T13:05:19Z</time></trkpt><trkpt lat="14.428533910675805" lon="120.92437552815358"><ele>10.0</ele><time>2026-04-17T13:05:20Z</time></trkpt><trkpt lat="14.428525478459418" lon="120.92425867629595"><ele>10.0</ele><time>2026-04-17T13:05:21Z</time></trkpt><trkpt lat="14.42851686726012" lon="120.92416789431284"><ele>10.0</ele><time>2026-04-17T13:05:22Z</time></trkpt><trkpt lat="14.428509522653764" lon="120.92406755894774"><ele>10.0</ele><time>2026-04-17T13:05:23Z</time></trkpt><trkpt lat="14.428514411966159" lon="120.92398324349439"><ele>10.0</ele><time>2026-04-17T13:05:24Z</time></trkpt><trkpt lat="14.42852521820721" lon="120.92388390596614"><ele>10.0</ele><time>2026-04-17T13:05:25Z</time></trkpt><trkpt lat="14.428520129417063" lon="120.92378574216512"><ele>10.0</ele><time>2026-04-17T13:05:26Z</time></trkpt><trkpt lat="14.428521126425832" lon="120.92369014543198"><ele>10.0</ele><time>2026-04-17T13:05:27Z</time></trkpt><trkpt lat="14.42852320911229" lon="120.92360274826643"><ele>10.0</ele><time>2026-04-17T13:05:28Z</time></trkpt><trkpt lat="14.428524784312835" lon="120.92350930341664"><ele>10.0</ele><time>2026-04-17T13:05:29Z</time></trkpt><trkpt lat="14.428528469299078" lon="120.92341503342988"><ele>10.0</ele><time>2026-04-17T13:05:30Z</time></trkpt><trkpt lat="14.428540638618069" lon="120.92332870164752"><ele>10.0</ele><time>2026-04-17T13:05:31Z</time></trkpt><trkpt lat="14.428536715856955" lon="120.92324763407393"><ele>10.0</ele><time>2026-04-17T13:05:32Z</time></trkpt><trkpt lat="14.428540975734702" lon="120.92317082085971"><ele>10.0</ele><time>2026-04-17T13:05:33Z</time></trkpt><trkpt lat="14.42854024307363" lon="120.92310496183222"><ele>10.333333333333334</ele><time>2026-04-17T13:05:34Z</time></trkpt><trkpt lat="14.428543887366434" lon="120.92300844090045"><ele>10.666666666666668</ele><time>2026-04-17T13:05:36Z</time></trkpt><trkpt lat="14.428546091104414" lon="120.922927623144"><ele>11.0</ele><time>2026-04-17T13:05:38Z</time></trkpt><trkpt lat="14.428596448231199" lon="120.92285401767695"><ele>11.333333333333334</ele><time>2026-04-17T13:05:40Z</time></trkpt><trkpt lat="14.428553317526335" lon="120.92277545151883"><ele>11.666666666666666</ele><time>2026-04-17T13:05:41Z</time></trkpt><trkpt lat="14.428561749733738" lon="120.92268821219875"><ele>12.0</ele><time>2026-04-17T13:05:43Z</time></trkpt><trkpt lat="14.428568448801565" lon="120.92261771417475"><ele>11.666666666666666</ele><time>2026-04-17T13:05:45Z</time></trkpt><trkpt lat="14.42856972803798" lon="120.92255104761715"><ele>11.333333333333334</ele><time>2026-04-17T13:05:47Z</time></trkpt><trkpt lat="14.428566457937233" lon="120.92247558027726"><ele>11.0</ele><time>2026-04-17T13:05:50Z</time></trkpt><trkpt lat="14.428570342476775" lon="120.92240781341715"><ele>10.666666666666668</ele><time>2026-04-17T13:06:01Z</time></trkpt><trkpt lat="14.4285054663981" lon="120.92232601105657"><ele>10.333333333333334</ele><time>2026-04-17T13:06:07Z</time></trkpt><trkpt lat="14.428401085692002" lon="120.92230918542637"><ele>10.0</ele><time>2026-04-17T13:06:09Z</time></trkpt><trkpt lat="14.428329878926375" lon="120.92229819184006"><ele>10.0</ele><time>2026-04-17T13:06:10Z</time></trkpt><trkpt lat="14.428213866236847" lon="120.92230711553592"><ele>10.0</ele><time>2026-04-17T13:06:12Z</time></trkpt><trkpt lat="14.428147847849164" lon="120.92231770700877"><ele>10.0</ele><time>2026-04-17T13:06:13Z</time></trkpt><trkpt lat="14.428085327063693" lon="120.92234089491646"><ele>10.0</ele><time>2026-04-17T13:06:14Z</time></trkpt><trkpt lat="14.428026756113665" lon="120.92237271464718"><ele>10.0</ele><time>2026-04-17T13:06:15Z</time></trkpt><trkpt lat="14.427959659171927" lon="120.92241053487876"><ele>10.0</ele><time>2026-04-17T13:06:16Z</time></trkpt><trkpt lat="14.427898887840312" lon="120.9224550527323"><ele>10.0</ele><time>2026-04-17T13:06:17Z</time></trkpt><trkpt lat="14.427822483269683" lon="120.92249987295867"><ele>10.0</ele><time>2026-04-17T13:06:18Z</time></trkpt><trkpt lat="14.427741489580068" lon="120.92254771379754"><ele>10.0</ele><time>2026-04-17T13:06:19Z</time></trkpt><trkpt lat="14.427665664335963" lon="120.92259414364898"><ele>10.0</ele><time>2026-04-17T13:06:20Z</time></trkpt><trkpt lat="14.427596489018747" lon="120.92264241165142"><ele>10.0</ele><time>2026-04-17T13:06:21Z</time></trkpt><trkpt lat="14.427527734631838" lon="120.92268935661993"><ele>10.0</ele><time>2026-04-17T13:06:22Z</time></trkpt><trkpt lat="14.427436928939604" lon="120.92273919457753"><ele>10.0</ele><time>2026-04-17T13:06:23Z</time></trkpt><trkpt lat="14.42735143042738" lon="120.9227903362231"><ele>10.0</ele><time>2026-04-17T13:06:24Z</time></trkpt><trkpt lat="14.427272822144573" lon="120.9228441377463"><ele>10.0</ele><time>2026-04-17T13:06:25Z</time></trkpt><trkpt lat="14.427202494820687" lon="120.92290879213702"><ele>10.0</ele><time>2026-04-17T13:06:26Z</time></trkpt><trkpt lat="14.427116616080145" lon="120.92295748895555"><ele>10.0</ele><time>2026-04-17T13:06:27Z</time></trkpt><trkpt lat="14.42704778746296" lon="120.92300157376462"><ele>10.0</ele><time>2026-04-17T13:06:28Z</time></trkpt><trkpt lat="14.426976474620277" lon="120.9230459317677"><ele>10.0</ele><time>2026-04-17T13:06:29Z</time></trkpt><trkpt lat="14.426908410258784" lon="120.92308884984486"><ele>10.0</ele><time>2026-04-17T13:06:30Z</time></trkpt><trkpt lat="14.426844347818674" lon="120.92312884176253"><ele>10.0</ele><time>2026-04-17T13:06:31Z</time></trkpt><trkpt lat="14.426738448958043" lon="120.92318753143958"><ele>10.0</ele><time>2026-04-17T13:06:33Z</time></trkpt><trkpt lat="14.426681205899857" lon="120.92321724371187"><ele>10.0</ele><time>2026-04-17T13:06:34Z</time></trkpt><trkpt lat="14.426617897340376" lon="120.9232267867906"><ele>10.0</ele><time>2026-04-17T13:06:35Z</time></trkpt><trkpt lat="14.426553024081187" lon="120.92323127202673"><ele>10.0</ele><time>2026-04-17T13:06:36Z</time></trkpt><trkpt lat="14.426484537704921" lon="120.92322787240151"><ele>10.0</ele><time>2026-04-17T13:06:37Z</time></trkpt><trkpt lat="14.42640572717795" lon="120.92322995459021"><ele>10.0</ele><time>2026-04-17T13:06:38Z</time></trkpt><trkpt lat="14.426309491661513" lon="120.9232280629515"><ele>10.0</ele><time>2026-04-17T13:06:39Z</time></trkpt><trkpt lat="14.426225548214672" lon="120.92323147020242"><ele>10.0</ele><time>2026-04-17T13:06:40Z</time></trkpt><trkpt lat="14.426133588726682" lon="120.92322786773208"><ele>10.0</ele><time>2026-04-17T13:06:41Z</time></trkpt><trkpt lat="14.4260487311956" lon="120.92321958603381"><ele>10.0</ele><time>2026-04-17T13:06:42Z</time></trkpt><trkpt lat="14.425944749668133" lon="120.92321599463581"><ele>10.0</ele><time>2026-04-17T13:06:43Z</time></trkpt><trkpt lat="14.425860022241686" lon="120.9232147791932"><ele>10.0</ele><time>2026-04-17T13:06:44Z</time></trkpt><trkpt lat="14.425784282091891" lon="120.92321538782289"><ele>10.0</ele><time>2026-04-17T13:06:45Z</time></trkpt><trkpt lat="14.425696948861953" lon="120.92321825669207"><ele>10.0</ele><time>2026-04-17T13:06:46Z</time></trkpt><trkpt lat="14.425603708151055" lon="120.92322126582427"><ele>10.0</ele><time>2026-04-17T13:06:47Z</time></trkpt><trkpt lat="14.42551549624697" lon="120.92322651096676"><ele>10.0</ele><time>2026-04-17T13:06:48Z</time></trkpt><trkpt lat="14.425402257719549" lon="120.92322335266859"><ele>10.0</ele><time>2026-04-17T13:06:49Z</time></trkpt><trkpt lat="14.425290339747072" lon="120.92320576168899"><ele>10.0</ele><time>2026-04-17T13:06:50Z</time></trkpt><trkpt lat="14.425209989909108" lon="120.92321707263665"><ele>10.0</ele><time>2026-04-17T13:06:51Z</time></trkpt><trkpt lat="14.425109151785549" lon="120.92321792747268"><ele>10.5</ele><time>2026-04-17T13:06:52Z</time></trkpt><trkpt lat="14.424997005933431" lon="120.92321616245376"><ele>11.0</ele><time>2026-04-17T13:06:53Z</time></trkpt><trkpt lat="14.424881902749538" lon="120.92321448547825"><ele>11.5</ele><time>2026-04-17T13:06:54Z</time></trkpt><trkpt lat="14.424772770760992" lon="120.92321070273499"><ele>12.0</ele><time>2026-04-17T13:06:55Z</time></trkpt><trkpt lat="14.424655305447988" lon="120.92321347823446"><ele>12.0</ele><time>2026-04-17T13:06:56Z</time></trkpt><trkpt lat="14.424543689110216" lon="120.92321297559745"><ele>12.0</ele><time>2026-04-17T13:06:57Z</time></trkpt><trkpt lat="14.424441775461204" lon="120.9232170110632"><ele>12.0</ele><time>2026-04-17T13:06:58Z</time></trkpt><trkpt lat="14.424351463426108" lon="120.92321564439344"><ele>12.0</ele><time>2026-04-17T13:06:59Z</time></trkpt><trkpt lat="14.42425221320778" lon="120.92321606099775"><ele>12.0</ele><time>2026-04-17T13:07:00Z</time></trkpt><trkpt lat="14.424131356671689" lon="120.92323328607634"><ele>12.0</ele><time>2026-04-17T13:07:01Z</time></trkpt><trkpt lat="14.424005510593657" lon="120.92326116210313"><ele>12.0</ele><time>2026-04-17T13:07:02Z</time></trkpt><trkpt lat="14.423922326820307" lon="120.9232391083187"><ele>12.0</ele><time>2026-04-17T13:07:03Z</time></trkpt><trkpt lat="14.423822557492734" lon="120.92324303045072"><ele>12.0</ele><time>2026-04-17T13:07:04Z</time></trkpt><trkpt lat="14.423732495679822" lon="120.92324640917933"><ele>12.0</ele><time>2026-04-17T13:07:05Z</time></trkpt><trkpt lat="14.423634370135558" lon="120.92326457198016"><ele>11.833333333333334</ele><time>2026-04-17T13:07:06Z</time></trkpt><trkpt lat="14.423548212984803" lon="120.92327306663493"><ele>11.666666666666666</ele><time>2026-04-17T13:07:07Z</time></trkpt><trkpt lat="14.423467324990055" lon="120.9232777776775"><ele>11.5</ele><time>2026-04-17T13:07:08Z</time></trkpt><trkpt lat="14.423386965486522" lon="120.92328184126224"><ele>11.333333333333332</ele><time>2026-04-17T13:07:09Z</time></trkpt><trkpt lat="14.423311522024818" lon="120.92328267857783"><ele>11.166666666666666</ele><time>2026-04-17T13:07:10Z</time></trkpt><trkpt lat="14.423241510759107" lon="120.92328684800063"><ele>11.0</ele><time>2026-04-17T13:07:11Z</time></trkpt><trkpt lat="14.423140121557875" lon="120.92328849414007"><ele>11.0</ele><time>2026-04-17T13:07:13Z</time></trkpt><trkpt lat="14.423061560024184" lon="120.92328508919051"><ele>11.0</ele><time>2026-04-17T13:07:16Z</time></trkpt><trkpt lat="14.423111678699348" lon="120.923240493191"><ele>11.0</ele><time>2026-04-17T13:12:44Z</time></trkpt><trkpt lat="14.423027219428729" lon="120.92325256250331"><ele>11.0</ele><time>2026-04-17T13:26:20Z</time></trkpt><trkpt lat="14.423067328583613" lon="120.92331244708026"><ele>11.0</ele><time>2026-04-17T13:27:44.999Z</time></trkpt><trkpt lat="14.423186813453178" lon="120.92331469673238"><ele>11.0</ele><time>2026-04-17T13:27:46.999Z</time></trkpt><trkpt lat="14.42325555731621" lon="120.9233182228408"><ele>11.0</ele><time>2026-04-17T13:27:47.999Z</time></trkpt><trkpt lat="14.42332845304556" lon="120.92331303674322"><ele>11.0</ele><time>2026-04-17T13:27:48.999Z</time></trkpt><trkpt lat="14.42339976393197" lon="120.92330687134738"><ele>11.0</ele><time>2026-04-17T13:27:49.999Z</time></trkpt><trkpt lat="14.423476698750308" lon="120.92329695737789"><ele>11.0</ele><time>2026-04-17T13:27:50.999Z</time></trkpt><trkpt lat="14.423546840547353" lon="120.92328738190251"><ele>11.0</ele><time>2026-04-17T13:27:51.999Z</time></trkpt><trkpt lat="14.423614737588673" lon="120.9232789554259"><ele>11.0</ele><time>2026-04-17T13:27:52.999Z</time></trkpt><trkpt lat="14.423688381350583" lon="120.92327259123684"><ele>11.0</ele><time>2026-04-17T13:27:53.999Z</time></trkpt><trkpt lat="14.423771639971628" lon="120.9232646442043"><ele>11.166666666666666</ele><time>2026-04-17T13:27:54.999Z</time></trkpt><trkpt lat="14.42384293760837" lon="120.92326319356025"><ele>11.333333333333332</ele><time>2026-04-17T13:27:55.999Z</time></trkpt><trkpt lat="14.423924342626597" lon="120.92325785429021"><ele>11.5</ele><time>2026-04-17T13:27:56.999Z</time></trkpt><trkpt lat="14.42400122307539" lon="120.92325416271672"><ele>11.666666666666666</ele><time>2026-04-17T13:27:57.999Z</time></trkpt><trkpt lat="14.424091684409179" lon="120.92324884538309"><ele>11.833333333333334</ele><time>2026-04-17T13:27:58.999Z</time></trkpt><trkpt lat="14.424179641709559" lon="120.92324610122515"><ele>12.0</ele><time>2026-04-17T13:27:59.999Z</time></trkpt><trkpt lat="14.424268792315647" lon="120.92324657193069"><ele>12.0</ele><time>2026-04-17T13:28:00.999Z</time></trkpt><trkpt lat="14.424357215005552" lon="120.92324951256664"><ele>12.0</ele><time>2026-04-17T13:28:01.999Z</time></trkpt><trkpt lat="14.424450844230806" lon="120.92324899179904"><ele>12.0</ele><time>2026-04-17T13:28:02.999Z</time></trkpt><trkpt lat="14.42455210565029" lon="120.92324466623634"><ele>12.0</ele><time>2026-04-17T13:28:03.999Z</time></trkpt><trkpt lat="14.424670325995107" lon="120.9232425933166"><ele>12.0</ele><time>2026-04-17T13:28:04.999Z</time></trkpt><trkpt lat="14.424745455195932" lon="120.92324772849776"><ele>12.0</ele><time>2026-04-17T13:28:05.999Z</time></trkpt><trkpt lat="14.424846370499788" lon="120.923243587013"><ele>12.0</ele><time>2026-04-17T13:28:06.999Z</time></trkpt><trkpt lat="14.42494726679978" lon="120.92323990260726"><ele>12.0</ele><time>2026-04-17T13:28:07.999Z</time></trkpt><trkpt lat="14.425046700757933" lon="120.92323708250068"><ele>12.0</ele><time>2026-04-17T13:28:08.999Z</time></trkpt><trkpt lat="14.425140408919804" lon="120.92325412657024"><ele>12.0</ele><time>2026-04-17T13:28:09.999Z</time></trkpt><trkpt lat="14.425236589020349" lon="120.92325478840024"><ele>12.0</ele><time>2026-04-17T13:28:10.999Z</time></trkpt><trkpt lat="14.425320393755767" lon="120.9232553650701"><ele>12.0</ele><time>2026-04-17T13:28:11.999Z</time></trkpt><trkpt lat="14.425404169474355" lon="120.92324021244413"><ele>12.0</ele><time>2026-04-17T13:28:12.999Z</time></trkpt><trkpt lat="14.42548986650206" lon="120.9232401881658"><ele>12.0</ele><time>2026-04-17T13:28:13.999Z</time></trkpt><trkpt lat="14.425587855900208" lon="120.92325749275811"><ele>12.0</ele><time>2026-04-17T13:28:14.999Z</time></trkpt><trkpt lat="14.425673968911477" lon="120.92325846351265"><ele>12.0</ele><time>2026-04-17T13:28:15.999Z</time></trkpt><trkpt lat="14.425768921066712" lon="120.92325953391048"><ele>11.6</ele><time>2026-04-17T13:28:16.999Z</time></trkpt><trkpt lat="14.42586193730458" lon="120.92324649831902"><ele>11.2</ele><time>2026-04-17T13:28:17.999Z</time></trkpt><trkpt lat="14.425964747727631" lon="120.92324478480529"><ele>10.8</ele><time>2026-04-17T13:28:18.999Z</time></trkpt><trkpt lat="14.426049435305972" lon="120.92325828263556"><ele>10.4</ele><time>2026-04-17T13:28:19.999Z</time></trkpt><trkpt lat="14.426151325953665" lon="120.92327601276999"><ele>10.0</ele><time>2026-04-17T13:28:20.999Z</time></trkpt><trkpt lat="14.426231450248434" lon="120.92325182089729"><ele>10.0</ele><time>2026-04-17T13:28:21.999Z</time></trkpt><trkpt lat="14.426321480090614" lon="120.92324334801307"><ele>10.0</ele><time>2026-04-17T13:28:22.999Z</time></trkpt><trkpt lat="14.426408019322265" lon="120.92324258581706"><ele>10.0</ele><time>2026-04-17T13:28:23.999Z</time></trkpt><trkpt lat="14.426496765780357" lon="120.92324205155101"><ele>10.0</ele><time>2026-04-17T13:28:24.999Z</time></trkpt><trkpt lat="14.426574525337116" lon="120.92323605278459"><ele>10.0</ele><time>2026-04-17T13:28:25.999Z</time></trkpt><trkpt lat="14.42665769536326" lon="120.92325084941825"><ele>10.0</ele><time>2026-04-17T13:28:26.999Z</time></trkpt><trkpt lat="14.426744938239512" lon="120.92317940040807"><ele>10.0</ele><time>2026-04-17T13:28:27.999Z</time></trkpt><trkpt lat="14.42683246545487" lon="120.92313426762685"><ele>10.0</ele><time>2026-04-17T13:28:28.999Z</time></trkpt><trkpt lat="14.4269268542106" lon="120.92309308010441"><ele>10.0</ele><time>2026-04-17T13:28:29.999Z</time></trkpt><trkpt lat="14.427014135440645" lon="120.92302855431471"><ele>10.0</ele><time>2026-04-17T13:28:30.999Z</time></trkpt><trkpt lat="14.427088365191233" lon="120.92297080366846"><ele>10.0</ele><time>2026-04-17T13:28:31.999Z</time></trkpt><trkpt lat="14.42717101808881" lon="120.92292227626653"><ele>10.2</ele><time>2026-04-17T13:28:32.999Z</time></trkpt><trkpt lat="14.427252037384184" lon="120.92287267397528"><ele>10.4</ele><time>2026-04-17T13:28:33.999Z</time></trkpt><trkpt lat="14.427338825128981" lon="120.92282129927639"><ele>10.600000000000001</ele><time>2026-04-17T13:28:34.999Z</time></trkpt><trkpt lat="14.427423362319685" lon="120.92276871843534"><ele>10.8</ele><time>2026-04-17T13:28:35.999Z</time></trkpt><trkpt lat="14.427509927156715" lon="120.92271531865049"><ele>11.0</ele><time>2026-04-17T13:28:36.999Z</time></trkpt><trkpt lat="14.427590190298444" lon="120.92266584605468"><ele>11.0</ele><time>2026-04-17T13:28:37.999Z</time></trkpt><trkpt lat="14.427674230603843" lon="120.9226156702727"><ele>11.0</ele><time>2026-04-17T13:28:38.999Z</time></trkpt><trkpt lat="14.427756099331944" lon="120.92256488815295"><ele>11.0</ele><time>2026-04-17T13:28:39.999Z</time></trkpt><trkpt lat="14.427839044308707" lon="120.92252214341372"><ele>11.0</ele><time>2026-04-17T13:28:40.999Z</time></trkpt><trkpt lat="14.427916588270184" lon="120.92247210426775"><ele>11.0</ele><time>2026-04-17T13:28:41.999Z</time></trkpt><trkpt lat="14.427985705516482" lon="120.92243066751777"><ele>10.833333333333332</ele><time>2026-04-17T13:28:42.999Z</time></trkpt><trkpt lat="14.42804753308498" lon="120.92239481555832"><ele>10.666666666666666</ele><time>2026-04-17T13:28:43.999Z</time></trkpt><trkpt lat="14.428106785012545" lon="120.92236015372713"><ele>10.5</ele><time>2026-04-17T13:28:44.999Z</time></trkpt><trkpt lat="14.428203310616684" lon="120.9223096306078"><ele>10.333333333333334</ele><time>2026-04-17T13:28:46.999Z</time></trkpt><trkpt lat="14.428303124207886" lon="120.9222861026136"><ele>10.166666666666668</ele><time>2026-04-17T13:28:48.999Z</time></trkpt><trkpt lat="14.428398587012975" lon="120.92229271639472"><ele>10.0</ele><time>2026-04-17T13:28:50.999Z</time></trkpt><trkpt lat="14.428474784196636" lon="120.92230428164696"><ele>10.0</ele><time>2026-04-17T13:28:52.999Z</time></trkpt><trkpt lat="14.428539719955719" lon="120.92230431310338"><ele>10.0</ele><time>2026-04-17T13:28:59.999Z</time></trkpt><trkpt lat="14.428618543579233" lon="120.92229536087271"><ele>10.0</ele><time>2026-04-17T13:29:05.999Z</time></trkpt><trkpt lat="14.428719539228252" lon="120.92231477866065"><ele>10.0</ele><time>2026-04-17T13:29:08.999Z</time></trkpt><trkpt lat="14.428822819049728" lon="120.92232810360014"><ele>10.0</ele><time>2026-04-17T13:29:10.999Z</time></trkpt><trkpt lat="14.428893859638327" lon="120.9223298885414"><ele>10.0</ele><time>2026-04-17T13:29:11.999Z</time></trkpt><trkpt lat="14.42896561052448" lon="120.92233844295241"><ele>9.833333333333334</ele><time>2026-04-17T13:29:12.999Z</time></trkpt><trkpt lat="14.42903179070675" lon="120.92234853287113"><ele>9.666666666666668</ele><time>2026-04-17T13:29:13.999Z</time></trkpt><trkpt lat="14.429112007141715" lon="120.92235639082817"><ele>9.5</ele><time>2026-04-17T13:29:14.999Z</time></trkpt><trkpt lat="14.429201124749289" lon="120.92236324086502"><ele>9.333333333333334</ele><time>2026-04-17T13:29:15.999Z</time></trkpt><trkpt lat="14.429279789069795" lon="120.92237400421394"><ele>9.166666666666666</ele><time>2026-04-17T13:29:16.999Z</time></trkpt><trkpt lat="14.429369476770093" lon="120.9223839726674"><ele>9.0</ele><time>2026-04-17T13:29:17.999Z</time></trkpt><trkpt lat="14.42945272114803" lon="120.92239395728906"><ele>9.0</ele><time>2026-04-17T13:29:18.999Z</time></trkpt><trkpt lat="14.429527162272132" lon="120.92240397610858"><ele>9.0</ele><time>2026-04-17T13:29:19.999Z</time></trkpt><trkpt lat="14.429619617655403" lon="120.92241294642945"><ele>9.0</ele><time>2026-04-17T13:29:20.999Z</time></trkpt><trkpt lat="14.429708918313992" lon="120.92242489992077"><ele>9.0</ele><time>2026-04-17T13:29:21.999Z</time></trkpt><trkpt lat="14.429799195985451" lon="120.92243624647418"><ele>9.0</ele><time>2026-04-17T13:29:22.999Z</time></trkpt><trkpt lat="14.429883232109729" lon="120.92245035241544"><ele>9.0</ele><time>2026-04-17T13:29:23.999Z</time></trkpt><trkpt lat="14.429989242349658" lon="120.92246294940267"><ele>9.0</ele><time>2026-04-17T13:29:24.999Z</time></trkpt><trkpt lat="14.430077626850244" lon="120.92247657598563"><ele>9.0</ele><time>2026-04-17T13:29:25.999Z</time></trkpt><trkpt lat="14.430180115271437" lon="120.92248728009554"><ele>9.0</ele><time>2026-04-17T13:29:26.999Z</time></trkpt><trkpt lat="14.430273281064679" lon="120.92249714694591"><ele>9.0</ele><time>2026-04-17T13:29:27.999Z</time></trkpt><trkpt lat="14.430369134603747" lon="120.92250733891723"><ele>9.0</ele><time>2026-04-17T13:29:28.999Z</time></trkpt><trkpt lat="14.430461038838649" lon="120.92252153081908"><ele>9.2</ele><time>2026-04-17T13:29:29.999Z</time></trkpt><trkpt lat="14.430559437531475" lon="120.92252980691666"><ele>9.4</ele><time>2026-04-17T13:29:30.999Z</time></trkpt><trkpt lat="14.430663862922222" lon="120.92253438069558"><ele>9.6</ele><time>2026-04-17T13:29:31.999Z</time></trkpt><trkpt lat="14.430768770596082" lon="120.92254037337524"><ele>9.8</ele><time>2026-04-17T13:29:32.999Z</time></trkpt><trkpt lat="14.430860370652578" lon="120.92254466361751"><ele>10.0</ele><time>2026-04-17T13:29:33.999Z</time></trkpt><trkpt lat="14.430959086851512" lon="120.92254733822627"><ele>10.0</ele><time>2026-04-17T13:29:34.999Z</time></trkpt><trkpt lat="14.4310517977856" lon="120.92255677519081"><ele>10.0</ele><time>2026-04-17T13:29:35.999Z</time></trkpt><trkpt lat="14.431156264499412" lon="120.92254825725179"><ele>10.0</ele><time>2026-04-17T13:29:36.999Z</time></trkpt><trkpt lat="14.431245295240243" lon="120.92254346922216"><ele>10.0</ele><time>2026-04-17T13:29:37.999Z</time></trkpt><trkpt lat="14.431339711822298" lon="120.92254265050103"><ele>10.0</ele><time>2026-04-17T13:29:38.999Z</time></trkpt><trkpt lat="14.43143283259201" lon="120.9225398325537"><ele>9.833333333333334</ele><time>2026-04-17T13:29:39.999Z</time></trkpt><trkpt lat="14.43152959762947" lon="120.92254013756744"><ele>9.666666666666668</ele><time>2026-04-17T13:29:40.999Z</time></trkpt><trkpt lat="14.431615023788849" lon="120.92253834457996"><ele>9.5</ele><time>2026-04-17T13:29:41.999Z</time></trkpt><trkpt lat="14.431698623842506" lon="120.92254694283791"><ele>9.333333333333334</ele><time>2026-04-17T13:29:42.999Z</time></trkpt><trkpt lat="14.431768690604935" lon="120.92254938778052"><ele>9.166666666666666</ele><time>2026-04-17T13:29:43.999Z</time></trkpt><trkpt lat="14.431838016813572" lon="120.9225607378488"><ele>9.0</ele><time>2026-04-17T13:29:44.999Z</time></trkpt><trkpt lat="14.431901654705575" lon="120.92257335767913"><ele>8.833333333333334</ele><time>2026-04-17T13:29:45.999Z</time></trkpt><trkpt lat="14.431969259684955" lon="120.92260052814231"><ele>8.666666666666666</ele><time>2026-04-17T13:29:46.999Z</time></trkpt><trkpt lat="14.432049872729982" lon="120.92261482984948"><ele>8.5</ele><time>2026-04-17T13:29:47.999Z</time></trkpt><trkpt lat="14.432140128513582" lon="120.92262042553092"><ele>8.333333333333332</ele><time>2026-04-17T13:29:48.999Z</time></trkpt><trkpt lat="14.432238517697725" lon="120.92263410357198"><ele>8.166666666666666</ele><time>2026-04-17T13:29:49.999Z</time></trkpt><trkpt lat="14.432340798935464" lon="120.92264753676476"><ele>8.0</ele><time>2026-04-17T13:29:50.999Z</time></trkpt><trkpt lat="14.432450325276896" lon="120.92265892149912"><ele>7.75</ele><time>2026-04-17T13:29:51.999Z</time></trkpt><trkpt lat="14.432560899403514" lon="120.92267408822299"><ele>7.5</ele><time>2026-04-17T13:29:52.999Z</time></trkpt><trkpt lat="14.432674411826799" lon="120.92268861516114"><ele>7.25</ele><time>2026-04-17T13:29:53.999Z</time></trkpt><trkpt lat="14.432789323111676" lon="120.92270329499816"><ele>7.0</ele><time>2026-04-17T13:29:54.999Z</time></trkpt><trkpt lat="14.43290444282707" lon="120.922718041547"><ele>7.25</ele><time>2026-04-17T13:29:55.999Z</time></trkpt><trkpt lat="14.433018230285793" lon="120.9227337200344"><ele>7.5</ele><time>2026-04-17T13:29:56.999Z</time></trkpt><trkpt lat="14.433130444624936" lon="120.92274714273822"><ele>7.75</ele><time>2026-04-17T13:29:57.999Z</time></trkpt><trkpt lat="14.433245477028834" lon="120.92276596515362"><ele>8.0</ele><time>2026-04-17T13:29:58.999Z</time></trkpt><trkpt lat="14.433359189761074" lon="120.9227787780235"><ele>8.0</ele><time>2026-04-17T13:29:59.999Z</time></trkpt><trkpt lat="14.433473146790064" lon="120.92279384043769"><ele>8.0</ele><time>2026-04-17T13:30:00.999Z</time></trkpt><trkpt lat="14.433585654348299" lon="120.92280124217987"><ele>8.0</ele><time>2026-04-17T13:30:01.999Z</time></trkpt><trkpt lat="14.433695829642547" lon="120.92280749922186"><ele>8.0</ele><time>2026-04-17T13:30:02.999Z</time></trkpt><trkpt lat="14.433786719670051" lon="120.9227987520793"><ele>8.0</ele><time>2026-04-17T13:30:03.999Z</time></trkpt><trkpt lat="14.433887961301641" lon="120.92279323421104"><ele>7.6000000000000005</ele><time>2026-04-17T13:30:04.999Z</time></trkpt><trkpt lat="14.433997307423468" lon="120.92279042270307"><ele>7.200000000000001</ele><time>2026-04-17T13:30:05.999Z</time></trkpt><trkpt lat="14.434107223413985" lon="120.92279306771295"><ele>6.8</ele><time>2026-04-17T13:30:06.999Z</time></trkpt><trkpt lat="14.434221740615863" lon="120.92279788542635"><ele>6.4</ele><time>2026-04-17T13:30:07.999Z</time></trkpt><trkpt lat="14.434334982385803" lon="120.92280580896669"><ele>6.0</ele><time>2026-04-17T13:30:08.999Z</time></trkpt><trkpt lat="14.434443552230169" lon="120.92281556038195"><ele>6.0</ele><time>2026-04-17T13:30:09.999Z</time></trkpt><trkpt lat="14.434554540344655" lon="120.92283053426176"><ele>6.0</ele><time>2026-04-17T13:30:10.999Z</time></trkpt><trkpt lat="14.434660087823382" lon="120.92285432194734"><ele>6.0</ele><time>2026-04-17T13:30:11.999Z</time></trkpt><trkpt lat="14.434771065719433" lon="120.92286746120146"><ele>6.0</ele><time>2026-04-17T13:30:12.999Z</time></trkpt><trkpt lat="14.434863921095513" lon="120.92288455714528"><ele>6.0</ele><time>2026-04-17T13:30:13.999Z</time></trkpt><trkpt lat="14.434955702670269" lon="120.92290567838916"><ele>6.4</ele><time>2026-04-17T13:30:14.999Z</time></trkpt><trkpt lat="14.43505167526384" lon="120.92293270222657"><ele>6.8</ele><time>2026-04-17T13:30:15.999Z</time></trkpt><trkpt lat="14.435148362605391" lon="120.92296374487148"><ele>7.200000000000001</ele><time>2026-04-17T13:30:16.999Z</time></trkpt><trkpt lat="14.435237654292083" lon="120.92298285073184"><ele>7.6000000000000005</ele><time>2026-04-17T13:30:17.999Z</time></trkpt><trkpt lat="14.435328485398484" lon="120.92300309912555"><ele>8.0</ele><time>2026-04-17T13:30:18.999Z</time></trkpt><trkpt lat="14.435423682212544" lon="120.92303026748222"><ele>8.0</ele><time>2026-04-17T13:30:19.999Z</time></trkpt><trkpt lat="14.435524121155721" lon="120.92305297393453"><ele>8.0</ele><time>2026-04-17T13:30:20.999Z</time></trkpt><trkpt lat="14.435606707541261" lon="120.92307165399282"><ele>8.0</ele><time>2026-04-17T13:30:21.999Z</time></trkpt><trkpt lat="14.435702808952701" lon="120.92308476764697"><ele>8.0</ele><time>2026-04-17T13:30:22.999Z</time></trkpt><trkpt lat="14.435784898713505" lon="120.92310716385124"><ele>8.0</ele><time>2026-04-17T13:30:23.999Z</time></trkpt><trkpt lat="14.435865209201324" lon="120.9231244362965"><ele>8.0</ele><time>2026-04-17T13:30:24.999Z</time></trkpt><trkpt lat="14.435926115601468" lon="120.92314348865591"><ele>7.999999999999999</ele><time>2026-04-17T13:30:25.999Z</time></trkpt><trkpt lat="14.435995994061726" lon="120.92315288915424"><ele>8.0</ele><time>2026-04-17T13:30:26.999Z</time></trkpt><trkpt lat="14.436066418661753" lon="120.92316926943658"><ele>8.0</ele><time>2026-04-17T13:30:27.999Z</time></trkpt><trkpt lat="14.436129915049879" lon="120.92318421750456"><ele>7.999999999999999</ele><time>2026-04-17T13:30:28.999Z</time></trkpt><trkpt lat="14.436236343155189" lon="120.92321006509634"><ele>8.0</ele><time>2026-04-17T13:30:30.999Z</time></trkpt><trkpt lat="14.436299844694487" lon="120.92322374147086"><ele>8.0</ele><time>2026-04-17T13:30:31.999Z</time></trkpt><trkpt lat="14.436367284506176" lon="120.92323634190267"><ele>7.666666666666666</ele><time>2026-04-17T13:30:32.999Z</time></trkpt><trkpt lat="14.43643889742739" lon="120.92324407846127"><ele>7.333333333333333</ele><time>2026-04-17T13:30:33.999Z</time></trkpt><trkpt lat="14.436512627514547" lon="120.92326467460221"><ele>7.0</ele><time>2026-04-17T13:30:34.999Z</time></trkpt><trkpt lat="14.436590981789507" lon="120.92328052402587"><ele>6.666666666666666</ele><time>2026-04-17T13:30:35.999Z</time></trkpt><trkpt lat="14.436669090727372" lon="120.92329115107634"><ele>6.333333333333333</ele><time>2026-04-17T13:30:36.999Z</time></trkpt><trkpt lat="14.436744019780981" lon="120.92330267013102"><ele>6.0</ele><time>2026-04-17T13:30:37.999Z</time></trkpt><trkpt lat="14.436824302366858" lon="120.92331401885123"><ele>6.0</ele><time>2026-04-17T13:30:38.999Z</time></trkpt><trkpt lat="14.436909513569297" lon="120.92331853411754"><ele>6.0</ele><time>2026-04-17T13:30:39.999Z</time></trkpt><trkpt lat="14.43700308920412" lon="120.92332912876748"><ele>6.0</ele><time>2026-04-17T13:30:40.999Z</time></trkpt><trkpt lat="14.43710445737843" lon="120.92333189262389"><ele>6.0</ele><time>2026-04-17T13:30:41.999Z</time></trkpt><trkpt lat="14.437200473656633" lon="120.92335158946753"><ele>6.0</ele><time>2026-04-17T13:30:42.999Z</time></trkpt><trkpt lat="14.437284262353414" lon="120.92336217360915"><ele>5.833333333333333</ele><time>2026-04-17T13:30:43.999Z</time></trkpt><trkpt lat="14.437349165561521" lon="120.92335516227507"><ele>5.666666666666667</ele><time>2026-04-17T13:30:46.999Z</time></trkpt><trkpt lat="14.437452965952602" lon="120.923377596614"><ele>5.5</ele><time>2026-04-17T13:30:48.999Z</time></trkpt><trkpt lat="14.437522686413402" lon="120.92338121755945"><ele>5.333333333333334</ele><time>2026-04-17T13:30:49.999Z</time></trkpt><trkpt lat="14.437593622770642" lon="120.92338616567503"><ele>5.166666666666667</ele><time>2026-04-17T13:30:50.999Z</time></trkpt><trkpt lat="14.437667459267804" lon="120.92339400178442"><ele>5.0</ele><time>2026-04-17T13:30:51.999Z</time></trkpt><trkpt lat="14.437739224099023" lon="120.92340090929602"><ele>5.0</ele><time>2026-04-17T13:30:52.999Z</time></trkpt><trkpt lat="14.437812832085388" lon="120.92341082941478"><ele>5.0</ele><time>2026-04-17T13:30:53.999Z</time></trkpt><trkpt lat="14.43791380046235" lon="120.92342489696378"><ele>5.0</ele><time>2026-04-17T13:30:55.999Z</time></trkpt><trkpt lat="14.437990070249079" lon="120.9234226434356"><ele>5.0</ele><time>2026-04-17T13:30:58.999Z</time></trkpt><trkpt lat="14.438066687819973" lon="120.92343981920442"><ele>5.0</ele><time>2026-04-17T13:31:02.999Z</time></trkpt><trkpt lat="14.438144770964216" lon="120.92345416328945"><ele>5.0</ele><time>2026-04-17T13:31:06.999Z</time></trkpt><trkpt lat="14.438212636182225" lon="120.92344463513498"><ele>5.166666666666667</ele><time>2026-04-17T13:31:09.999Z</time></trkpt><trkpt lat="14.438297334684155" lon="120.92345195072473"><ele>5.333333333333334</ele><time>2026-04-17T13:31:13.999Z</time></trkpt><trkpt lat="14.43836485134271" lon="120.92346659410725"><ele>5.5</ele><time>2026-04-17T13:31:15.999Z</time></trkpt><trkpt lat="14.438449824539767" lon="120.92347534457565"><ele>5.666666666666667</ele><time>2026-04-17T13:31:17.999Z</time></trkpt><trkpt lat="14.438522150696476" lon="120.92349492563795"><ele>5.833333333333333</ele><time>2026-04-17T13:31:19.999Z</time></trkpt><trkpt lat="14.438602243395337" lon="120.92348981950435"><ele>6.0</ele><time>2026-04-17T13:31:21.999Z</time></trkpt><trkpt lat="14.43868007640077" lon="120.92351466240561"><ele>5.999999999999999</ele><time>2026-04-17T13:31:24.999Z</time></trkpt><trkpt lat="14.43877191263683" lon="120.92351982606199"><ele>6.0</ele><time>2026-04-17T13:31:30.999Z</time></trkpt><trkpt lat="14.438840696012885" lon="120.92353576300563"><ele>6.0</ele><time>2026-04-17T13:31:32.999Z</time></trkpt><trkpt lat="14.438917572564781" lon="120.92353026650495"><ele>6.0</ele><time>2026-04-17T13:31:34.999Z</time></trkpt><trkpt lat="14.438985577365454" lon="120.92352023694727"><ele>6.0</ele><time>2026-04-17T13:31:38.999Z</time></trkpt><trkpt lat="14.43891929984925" lon="120.92352682747865"><ele>5.999999999999999</ele><time>2026-04-17T13:32:16.001Z</time></trkpt><trkpt lat="14.438853460587309" lon="120.9235132771052"><ele>6.0</ele><time>2026-04-17T13:32:19.001Z</time></trkpt><trkpt lat="14.438780818157127" lon="120.92352497424059"><ele>6.0</ele><time>2026-04-17T13:32:23.001Z</time></trkpt><trkpt lat="14.43882949189284" lon="120.92358434596731"><ele>6.0</ele><time>2026-04-17T13:32:41.001Z</time></trkpt><trkpt lat="14.43886969224162" lon="120.92368322859758"><ele>6.0</ele><time>2026-04-17T13:32:42.001Z</time></trkpt><trkpt lat="14.43891727752114" lon="120.92373080127531"><ele>6.0</ele><time>2026-04-17T13:32:43.001Z</time></trkpt><trkpt lat="14.438995466090596" lon="120.92383971458604"><ele>6.0</ele><time>2026-04-17T13:32:45.001Z</time></trkpt><trkpt lat="14.439041074476506" lon="120.92389131780217"><ele>6.0</ele><time>2026-04-17T13:32:46Z</time></trkpt><trkpt lat="14.439078570321206" lon="120.92394732912746"><ele>6.0</ele><time>2026-04-17T13:32:47Z</time></trkpt><trkpt lat="14.439138595506375" lon="120.92401248420497"><ele>6.0</ele><time>2026-04-17T13:32:48Z</time></trkpt><trkpt lat="14.439186439532673" lon="120.9240662332314"><ele>6.0</ele><time>2026-04-17T13:32:49Z</time></trkpt><trkpt lat="14.43926762256739" lon="120.92416216870062"><ele>6.0</ele><time>2026-04-17T13:32:51Z</time></trkpt><trkpt lat="14.439311623776916" lon="120.92421980829498"><ele>6.0</ele><time>2026-04-17T13:32:52Z</time></trkpt><trkpt lat="14.439350344354073" lon="120.92427725791966"><ele>6.0</ele><time>2026-04-17T13:32:53Z</time></trkpt><trkpt lat="14.439390956615448" lon="120.92433244515372"><ele>5.833333333333333</ele><time>2026-04-17T13:32:54Z</time></trkpt><trkpt lat="14.439434194460146" lon="120.92438940746523"><ele>5.666666666666667</ele><time>2026-04-17T13:32:55Z</time></trkpt><trkpt lat="14.43951599885383" lon="120.92448848114547"><ele>5.5</ele><time>2026-04-17T13:32:57Z</time></trkpt><trkpt lat="14.439558354073199" lon="120.92454360265548"><ele>5.333333333333334</ele><time>2026-04-17T13:32:58Z</time></trkpt><trkpt lat="14.439599144805392" lon="120.92460010495759"><ele>5.166666666666667</ele><time>2026-04-17T13:32:59Z</time></trkpt><trkpt lat="14.439647477205083" lon="120.92465855887244"><ele>5.0</ele><time>2026-04-17T13:33:00Z</time></trkpt><trkpt lat="14.439696976585141" lon="120.92471610214004"><ele>5.285714285714286</ele><time>2026-04-17T13:33:01Z</time></trkpt><trkpt lat="14.439745768197843" lon="120.9247756790254"><ele>5.571428571428571</ele><time>2026-04-17T13:33:02Z</time></trkpt><trkpt lat="14.439784154609107" lon="120.92483476945868"><ele>5.857142857142858</ele><time>2026-04-17T13:33:03Z</time></trkpt><trkpt lat="14.439826696317256" lon="120.9248927484716"><ele>6.142857142857142</ele><time>2026-04-17T13:33:04Z</time></trkpt><trkpt lat="14.439865349882991" lon="120.9249480253415"><ele>6.428571428571429</ele><time>2026-04-17T13:33:05Z</time></trkpt><trkpt lat="14.439911832923237" lon="120.92500842077165"><ele>6.714285714285714</ele><time>2026-04-17T13:33:06Z</time></trkpt><trkpt lat="14.439951650452505" lon="120.92506424568398"><ele>7.0</ele><time>2026-04-17T13:33:07Z</time></trkpt><trkpt lat="14.439991839625135" lon="120.92511816203701"><ele>7.333333333333334</ele><time>2026-04-17T13:33:08Z</time></trkpt><trkpt lat="14.440059171789766" lon="120.92521640540264"><ele>7.666666666666667</ele><time>2026-04-17T13:33:10Z</time></trkpt><trkpt lat="14.440094765783051" lon="120.92527839218421"><ele>8.0</ele><time>2026-04-17T13:33:11Z</time></trkpt><trkpt lat="14.440145677734082" lon="120.92535563834252"><ele>8.333333333333334</ele><time>2026-04-17T13:33:13Z</time></trkpt><trkpt lat="14.440186555243956" lon="120.92541736863535"><ele>8.666666666666666</ele><time>2026-04-17T13:33:15Z</time></trkpt><trkpt lat="14.440234836622876" lon="120.92548113933748"><ele>9.0</ele><time>2026-04-17T13:33:17Z</time></trkpt><trkpt lat="14.440292653748173" lon="120.9255328003277"><ele>9.0</ele><time>2026-04-17T13:33:23Z</time></trkpt><trkpt lat="14.44036546391671" lon="120.9254874032862"><ele>9.0</ele><time>2026-04-17T13:33:24Z</time></trkpt><trkpt lat="14.440434172932926" lon="120.92543563174198"><ele>9.0</ele><time>2026-04-17T13:33:25Z</time></trkpt><trkpt lat="14.4405115645119" lon="120.92541295894611"><ele>9.0</ele><time>2026-04-17T13:33:26Z</time></trkpt><trkpt lat="14.440569912230472" lon="120.92536218527768"><ele>9.0</ele><time>2026-04-17T13:33:27Z</time></trkpt><trkpt lat="14.440639782655357" lon="120.92532318455811"><ele>9.0</ele><time>2026-04-17T13:33:28Z</time></trkpt><trkpt lat="14.440702679984287" lon="120.92528686511527"><ele>8.833333333333334</ele><time>2026-04-17T13:33:29Z</time></trkpt><trkpt lat="14.440775148451099" lon="120.92524760460374"><ele>8.666666666666666</ele><time>2026-04-17T13:33:30Z</time></trkpt><trkpt lat="14.440851703465412" lon="120.92522397891727"><ele>8.5</ele><time>2026-04-17T13:33:31Z</time></trkpt><trkpt lat="14.440918247296993" lon="120.92518735122958"><ele>8.333333333333332</ele><time>2026-04-17T13:33:32Z</time></trkpt><trkpt lat="14.440991140819218" lon="120.92515265163526"><ele>8.166666666666666</ele><time>2026-04-17T13:33:33Z</time></trkpt><trkpt lat="14.441062930490908" lon="120.92511859884692"><ele>8.0</ele><time>2026-04-17T13:33:34Z</time></trkpt><trkpt lat="14.441135046282557" lon="120.92507925611058"><ele>7.999999999999999</ele><time>2026-04-17T13:33:35Z</time></trkpt><trkpt lat="14.441207951658257" lon="120.925039401212"><ele>8.0</ele><time>2026-04-17T13:33:36Z</time></trkpt><trkpt lat="14.441279430111832" lon="120.92500166751596"><ele>8.0</ele><time>2026-04-17T13:33:37Z</time></trkpt><trkpt lat="14.441355256032372" lon="120.92496148643387"><ele>8.0</ele><time>2026-04-17T13:33:38Z</time></trkpt><trkpt lat="14.441427498104662" lon="120.92492177423978"><ele>7.999999999999999</ele><time>2026-04-17T13:33:39Z</time></trkpt><trkpt lat="14.441505857726673" lon="120.9248794177396"><ele>8.0</ele><time>2026-04-17T13:33:40Z</time></trkpt><trkpt lat="14.441580437664435" lon="120.92484058429136"><ele>8.0</ele><time>2026-04-17T13:33:41Z</time></trkpt><trkpt lat="14.441660748914538" lon="120.92479847282011"><ele>8.0</ele><time>2026-04-17T13:33:42Z</time></trkpt><trkpt lat="14.441744047501567" lon="120.92475270347913"><ele>8.0</ele><time>2026-04-17T13:33:43Z</time></trkpt><trkpt lat="14.441833126738203" lon="120.92470389421338"><ele>8.0</ele><time>2026-04-17T13:33:44Z</time></trkpt><trkpt lat="14.441923906003167" lon="120.92465415345767"><ele>8.0</ele><time>2026-04-17T13:33:45Z</time></trkpt><trkpt lat="14.442018016095844" lon="120.92460258763181"><ele>8.0</ele><time>2026-04-17T13:33:46Z</time></trkpt><trkpt lat="14.442115693526846" lon="120.92455127734428"><ele>8.0</ele><time>2026-04-17T13:33:47Z</time></trkpt><trkpt lat="14.442213133882051" lon="120.92450173850546"><ele>8.0</ele><time>2026-04-17T13:33:48Z</time></trkpt><trkpt lat="14.442311332988984" lon="120.92445181391699"><ele>8.0</ele><time>2026-04-17T13:33:49Z</time></trkpt><trkpt lat="14.442405261343685" lon="120.92440249682974"><ele>8.0</ele><time>2026-04-17T13:33:50Z</time></trkpt><trkpt lat="14.442496077016227" lon="120.92435460519162"><ele>8.0</ele><time>2026-04-17T13:33:51Z</time></trkpt><trkpt lat="14.442587142333789" lon="120.92430820628076"><ele>8.0</ele><time>2026-04-17T13:33:52Z</time></trkpt><trkpt lat="14.442680559248736" lon="120.92425820067218"><ele>8.0</ele><time>2026-04-17T13:33:53Z</time></trkpt><trkpt lat="14.442765751766464" lon="120.92421210338576"><ele>8.0</ele><time>2026-04-17T13:33:54Z</time></trkpt><trkpt lat="14.442853443109856" lon="120.92416448584916"><ele>8.0</ele><time>2026-04-17T13:33:55Z</time></trkpt><trkpt lat="14.442940683010729" lon="120.92411711344363"><ele>8.0</ele><time>2026-04-17T13:33:56Z</time></trkpt><trkpt lat="14.443029198666418" lon="120.92406904828457"><ele>8.0</ele><time>2026-04-17T13:33:57Z</time></trkpt><trkpt lat="14.443116594198626" lon="120.92402159137416"><ele>8.0</ele><time>2026-04-17T13:33:58Z</time></trkpt><trkpt lat="14.44320099025658" lon="120.92397706987848"><ele>8.0</ele><time>2026-04-17T13:33:59Z</time></trkpt><trkpt lat="14.44327702836993" lon="120.92393956444054"><ele>8.0</ele><time>2026-04-17T13:34:00Z</time></trkpt><trkpt lat="14.443346225499155" lon="120.92390543327222"><ele>7.999999999999999</ele><time>2026-04-17T13:34:01Z</time></trkpt><trkpt lat="14.443408914842726" lon="120.92387451204559"><ele>8.0</ele><time>2026-04-17T13:34:02Z</time></trkpt><trkpt lat="14.443515574271107" lon="120.92382190286163"><ele>8.0</ele><time>2026-04-17T13:34:04Z</time></trkpt><trkpt lat="14.443616890696909" lon="120.92378512949593"><ele>8.0</ele><time>2026-04-17T13:34:06Z</time></trkpt><trkpt lat="14.443685534751834" lon="120.92375878864956"><ele>7.999999999999999</ele><time>2026-04-17T13:34:07Z</time></trkpt><trkpt lat="14.443751462660776" lon="120.92373491007014"><ele>8.0</ele><time>2026-04-17T13:34:08Z</time></trkpt><trkpt lat="14.443817342566385" lon="120.92371726525325"><ele>7.833333333333333</ele><time>2026-04-17T13:34:09Z</time></trkpt><trkpt lat="14.443905166504283" lon="120.92369899519787"><ele>7.666666666666666</ele><time>2026-04-17T13:34:10Z</time></trkpt><trkpt lat="14.44399154339082" lon="120.92368186763349"><ele>7.5</ele><time>2026-04-17T13:34:11Z</time></trkpt><trkpt lat="14.444074295298975" lon="120.92367073550817"><ele>7.333333333333334</ele><time>2026-04-17T13:34:12Z</time></trkpt><trkpt lat="14.44415076561314" lon="120.92365852231228"><ele>7.166666666666667</ele><time>2026-04-17T13:34:13Z</time></trkpt><trkpt lat="14.444217118505456" lon="120.92364756745465"><ele>7.0</ele><time>2026-04-17T13:34:14Z</time></trkpt><trkpt lat="14.444330851527873" lon="120.92362788590401"><ele>7.0</ele><time>2026-04-17T13:34:16Z</time></trkpt><trkpt lat="14.444428819337338" lon="120.92361003561801"><ele>6.999999999999999</ele><time>2026-04-17T13:34:18.001Z</time></trkpt><trkpt lat="14.444546267875435" lon="120.92358863583225"><ele>6.999999999999999</ele><time>2026-04-17T13:34:20.001Z</time></trkpt><trkpt lat="14.444615955203849" lon="120.92357593840588"><ele>7.0</ele><time>2026-04-17T13:34:21.001Z</time></trkpt><trkpt lat="14.444726527179071" lon="120.92355599559579"><ele>7.0</ele><time>2026-04-17T13:34:23.001Z</time></trkpt><trkpt lat="14.444809201231296" lon="120.92354116289552"><ele>6.833333333333334</ele><time>2026-04-17T13:34:25.001Z</time></trkpt><trkpt lat="14.444889689224876" lon="120.92352672240268"><ele>6.666666666666667</ele><time>2026-04-17T13:34:27.001Z</time></trkpt><trkpt lat="14.444965948252586" lon="120.9235130406348"><ele>6.5</ele><time>2026-04-17T13:34:29.001Z</time></trkpt><trkpt lat="14.445066088162935" lon="120.92349525178166"><ele>6.333333333333334</ele><time>2026-04-17T13:34:31.001Z</time></trkpt><trkpt lat="14.445143362043554" lon="120.92348174271194"><ele>6.166666666666667</ele><time>2026-04-17T13:34:33.001Z</time></trkpt><trkpt lat="14.445221415637162" lon="120.92346711144599"><ele>6.0</ele><time>2026-04-17T13:34:35.001Z</time></trkpt><trkpt lat="14.445287275303683" lon="120.92345399532623"><ele>6.0</ele><time>2026-04-17T13:34:37.001Z</time></trkpt><trkpt lat="14.445362571217656" lon="120.92343890666284"><ele>6.0</ele><time>2026-04-17T13:34:39.001Z</time></trkpt><trkpt lat="14.445447653667383" lon="120.92342449844635"><ele>6.0</ele><time>2026-04-17T13:34:41.001Z</time></trkpt><trkpt lat="14.44555553429122" lon="120.92340488615926"><ele>6.0</ele><time>2026-04-17T13:34:43.001Z</time></trkpt><trkpt lat="14.445672741528586" lon="120.9233835783319"><ele>6.0</ele><time>2026-04-17T13:34:45Z</time></trkpt><trkpt lat="14.445770834836553" lon="120.92336574534309"><ele>6.0</ele><time>2026-04-17T13:34:47Z</time></trkpt><trkpt lat="14.44587290010858" lon="120.92334719035223"><ele>6.0</ele><time>2026-04-17T13:34:49Z</time></trkpt><trkpt lat="14.44596714306351" lon="120.92334444873515"><ele>6.0</ele><time>2026-04-17T13:34:51Z</time></trkpt><trkpt lat="14.446046155866675" lon="120.92333617839385"><ele>6.0</ele><time>2026-04-17T13:34:53Z</time></trkpt><trkpt lat="14.44612889576107" lon="120.92334945641757"><ele>6.0</ele><time>2026-04-17T13:34:55Z</time></trkpt><trkpt lat="14.446214505649518" lon="120.92336734488063"><ele>6.0</ele><time>2026-04-17T13:34:57Z</time></trkpt><trkpt lat="14.446289762826634" lon="120.92338477855458"><ele>6.333333333333333</ele><time>2026-04-17T13:34:59Z</time></trkpt><trkpt lat="14.446358445936685" lon="120.92339969100703"><ele>6.666666666666666</ele><time>2026-04-17T13:35:01Z</time></trkpt><trkpt lat="14.446424153264608" lon="120.92341340977619"><ele>7.0</ele><time>2026-04-17T13:35:03Z</time></trkpt><trkpt lat="14.446521468093758" lon="120.9234337277526"><ele>7.333333333333333</ele><time>2026-04-17T13:35:05Z</time></trkpt><trkpt lat="14.44660283222662" lon="120.92344640058639"><ele>7.666666666666666</ele><time>2026-04-17T13:35:07Z</time></trkpt><trkpt lat="14.446696471313452" lon="120.92346061547973"><ele>8.0</ele><time>2026-04-17T13:35:11Z</time></trkpt><trkpt lat="14.446780600642658" lon="120.92347240022515"><ele>8.0</ele><time>2026-04-17T13:35:13Z</time></trkpt><trkpt lat="14.446871028364447" lon="120.92348221607915"><ele>8.0</ele><time>2026-04-17T13:35:15Z</time></trkpt><trkpt lat="14.446945707592786" lon="120.9234903221432"><ele>8.0</ele><time>2026-04-17T13:35:17Z</time></trkpt><trkpt lat="14.447035878723186" lon="120.92350010980181"><ele>8.0</ele><time>2026-04-17T13:35:23Z</time></trkpt><trkpt lat="14.447137309460281" lon="120.92350313425669"><ele>8.0</ele><time>2026-04-17T13:35:25Z</time></trkpt><trkpt lat="14.447248225861506" lon="120.92350566363882"><ele>8.142857142857142</ele><time>2026-04-17T13:35:27Z</time></trkpt><trkpt lat="14.447316205908956" lon="120.92350450561878"><ele>8.285714285714285</ele><time>2026-04-17T13:35:28Z</time></trkpt><trkpt lat="14.447384614283548" lon="120.92350304665831"><ele>8.428571428571429</ele><time>2026-04-17T13:35:29Z</time></trkpt><trkpt lat="14.447459594725109" lon="120.92350000015202"><ele>8.571428571428571</ele><time>2026-04-17T13:35:30Z</time></trkpt><trkpt lat="14.447535347340951" lon="120.92349692227013"><ele>8.714285714285715</ele><time>2026-04-17T13:35:31Z</time></trkpt><trkpt lat="14.447608178079069" lon="120.92349396305262"><ele>8.857142857142858</ele><time>2026-04-17T13:35:32Z</time></trkpt><trkpt lat="14.447679829075735" lon="120.92349116828976"><ele>9.0</ele><time>2026-04-17T13:35:33Z</time></trkpt><trkpt lat="14.447790653673438" lon="120.92348675589754"><ele>9.0</ele><time>2026-04-17T13:35:35Z</time></trkpt><trkpt lat="14.447900577008287" lon="120.92348195356284"><ele>9.0</ele><time>2026-04-17T13:35:37Z</time></trkpt><trkpt lat="14.448020638751727" lon="120.9234763470993"><ele>9.0</ele><time>2026-04-17T13:35:39Z</time></trkpt><trkpt lat="14.448142031199023" lon="120.92347067850325"><ele>9.0</ele><time>2026-04-17T13:35:41Z</time></trkpt><trkpt lat="14.44824019436887" lon="120.92346609463237"><ele>8.6</ele><time>2026-04-17T13:35:43Z</time></trkpt><trkpt lat="14.448309834164998" lon="120.92346042458772"><ele>8.2</ele><time>2026-04-17T13:35:44Z</time></trkpt><trkpt lat="14.448413879395936" lon="120.92345187626819"><ele>7.799999999999999</ele><time>2026-04-17T13:35:46Z</time></trkpt><trkpt lat="14.448541392238774" lon="120.92344519954777"><ele>7.3999999999999995</ele><time>2026-04-17T13:35:48Z</time></trkpt><trkpt lat="14.448639634033528" lon="120.92344142799924"><ele>7.0</ele><time>2026-04-17T13:35:50Z</time></trkpt><trkpt lat="14.448719804319078" lon="120.92343835022264"><ele>7.000000000000001</ele><time>2026-04-17T13:35:52Z</time></trkpt><trkpt lat="14.448801952982924" lon="120.92343519649701"><ele>7.0</ele><time>2026-04-17T13:35:55Z</time></trkpt><trkpt lat="14.44887324623154" lon="120.92343245951214"><ele>7.0</ele><time>2026-04-17T13:35:57Z</time></trkpt><trkpt lat="14.448952127571436" lon="120.9234294312279"><ele>7.0</ele><time>2026-04-17T13:35:58Z</time></trkpt><trkpt lat="14.449021671715798" lon="120.9234222057827"><ele>7.000000000000001</ele><time>2026-04-17T13:35:59Z</time></trkpt><trkpt lat="14.449100198888537" lon="120.92341471287398"><ele>7.0</ele><time>2026-04-17T13:36:00Z</time></trkpt><trkpt lat="14.449172892803137" lon="120.92340777657674"><ele>7.0</ele><time>2026-04-17T13:36:01Z</time></trkpt><trkpt lat="14.44925285479162" lon="120.92338753145987"><ele>6.999999999999999</ele><time>2026-04-17T13:36:02Z</time></trkpt><trkpt lat="14.449376362650163" lon="120.9233514932568"><ele>6.999999999999999</ele><time>2026-04-17T13:36:04Z</time></trkpt><trkpt lat="14.449443369001653" lon="120.92332865122816"><ele>7.0</ele><time>2026-04-17T13:36:05Z</time></trkpt><trkpt lat="14.44952591422722" lon="120.92329886784276"><ele>7.0</ele><time>2026-04-17T13:36:07Z</time></trkpt><trkpt lat="14.44961171704739" lon="120.92326586740315"><ele>6.833333333333334</ele><time>2026-04-17T13:36:09Z</time></trkpt><trkpt lat="14.449674715077578" lon="120.92323947988167"><ele>6.666666666666667</ele><time>2026-04-17T13:36:11Z</time></trkpt><trkpt lat="14.44975426721939" lon="120.9232061578727"><ele>6.5</ele><time>2026-04-17T13:36:14Z</time></trkpt><trkpt lat="14.449838355769089" lon="120.92326707602416"><ele>6.333333333333334</ele><time>2026-04-17T13:36:18Z</time></trkpt><trkpt lat="14.449855910550028" lon="120.92333229353821"><ele>6.166666666666667</ele><time>2026-04-17T13:36:19Z</time></trkpt><trkpt lat="14.449873094684351" lon="120.92340997254706"><ele>6.0</ele><time>2026-04-17T13:36:20Z</time></trkpt><trkpt lat="14.449887427427514" lon="120.92349232171412"><ele>5.8</ele><time>2026-04-17T13:36:21Z</time></trkpt><trkpt lat="14.44991015858474" lon="120.92359205000831"><ele>5.6</ele><time>2026-04-17T13:36:22Z</time></trkpt><trkpt lat="14.449928195612332" lon="120.92368699755775"><ele>5.4</ele><time>2026-04-17T13:36:23Z</time></trkpt><trkpt lat="14.449944281613368" lon="120.92378062861378"><ele>5.2</ele><time>2026-04-17T13:36:24Z</time></trkpt><trkpt lat="14.449966302248674" lon="120.92388470368162"><ele>5.0</ele><time>2026-04-17T13:36:25Z</time></trkpt><trkpt lat="14.449989030824327" lon="120.92397724642115"><ele>5.0</ele><time>2026-04-17T13:36:26Z</time></trkpt><trkpt lat="14.45001158851183" lon="120.92406799566604"><ele>5.0</ele><time>2026-04-17T13:36:27Z</time></trkpt><trkpt lat="14.450031548697176" lon="120.92416149617625"><ele>5.0</ele><time>2026-04-17T13:36:28Z</time></trkpt><trkpt lat="14.450054966865066" lon="120.92425672370025"><ele>5.0</ele><time>2026-04-17T13:36:29Z</time></trkpt><trkpt lat="14.450076197765004" lon="120.92434759555431"><ele>5.0</ele><time>2026-04-17T13:36:30Z</time></trkpt><trkpt lat="14.450101494711493" lon="120.92443963699831"><ele>5.2</ele><time>2026-04-17T13:36:31Z</time></trkpt><trkpt lat="14.45011627811137" lon="120.92453266995915"><ele>5.4</ele><time>2026-04-17T13:36:32Z</time></trkpt><trkpt lat="14.450131866911825" lon="120.92461890378334"><ele>5.6</ele><time>2026-04-17T13:36:33Z</time></trkpt><trkpt lat="14.450149907438995" lon="120.92472216716652"><ele>5.8</ele><time>2026-04-17T13:36:34Z</time></trkpt><trkpt lat="14.450171519949697" lon="120.92481891992524"><ele>6.0</ele><time>2026-04-17T13:36:35Z</time></trkpt><trkpt lat="14.450195600906095" lon="120.92492310065177"><ele>6.0</ele><time>2026-04-17T13:36:36Z</time></trkpt><trkpt lat="14.450217378597197" lon="120.9250144565851"><ele>6.0</ele><time>2026-04-17T13:36:37Z</time></trkpt><trkpt lat="14.450234282395067" lon="120.92510445812032"><ele>6.0</ele><time>2026-04-17T13:36:38Z</time></trkpt><trkpt lat="14.45025923832397" lon="120.92520062559751"><ele>6.0</ele><time>2026-04-17T13:36:39Z</time></trkpt><trkpt lat="14.450275701763918" lon="120.92528944289324"><ele>6.0</ele><time>2026-04-17T13:36:40Z</time></trkpt><trkpt lat="14.450300795853648" lon="120.92539114836367"><ele>6.25</ele><time>2026-04-17T13:36:41Z</time></trkpt><trkpt lat="14.450322988787192" lon="120.9254944347141"><ele>6.5</ele><time>2026-04-17T13:36:42Z</time></trkpt><trkpt lat="14.4503465987472" lon="120.92561011605613"><ele>6.75</ele><time>2026-04-17T13:36:43Z</time></trkpt><trkpt lat="14.450372701508334" lon="120.92574108962962"><ele>7.0</ele><time>2026-04-17T13:36:44Z</time></trkpt><trkpt lat="14.450394459153841" lon="120.92586026298467"><ele>6.8</ele><time>2026-04-17T13:36:45Z</time></trkpt><trkpt lat="14.450423348380015" lon="120.92597425135644"><ele>6.6</ele><time>2026-04-17T13:36:46Z</time></trkpt><trkpt lat="14.450440756558699" lon="120.92607233591988"><ele>6.3999999999999995</ele><time>2026-04-17T13:36:47Z</time></trkpt><trkpt lat="14.45045756637497" lon="120.9261654984944"><ele>6.199999999999999</ele><time>2026-04-17T13:36:48Z</time></trkpt><trkpt lat="14.450475865708" lon="120.92626153354156"><ele>6.0</ele><time>2026-04-17T13:36:49Z</time></trkpt><trkpt lat="14.450491812422097" lon="120.92635358737348"><ele>6.0</ele><time>2026-04-17T13:36:50Z</time></trkpt><trkpt lat="14.450506700594563" lon="120.92644406935092"><ele>6.0</ele><time>2026-04-17T13:36:51Z</time></trkpt><trkpt lat="14.450518830759398" lon="120.92651096413279"><ele>6.0</ele><time>2026-04-17T13:36:52Z</time></trkpt><trkpt lat="14.450532135309953" lon="120.92659720588082"><ele>6.0</ele><time>2026-04-17T13:36:53Z</time></trkpt><trkpt lat="14.450548569765413" lon="120.92669230505919"><ele>6.0</ele><time>2026-04-17T13:36:54Z</time></trkpt><trkpt lat="14.450569306664578" lon="120.92679604425253"><ele>6.0</ele><time>2026-04-17T13:36:55Z</time></trkpt><trkpt lat="14.45057699699172" lon="120.92688448688254"><ele>6.0</ele><time>2026-04-17T13:36:56Z</time></trkpt><trkpt lat="14.450595370273465" lon="120.92697459790996"><ele>6.0</ele><time>2026-04-17T13:36:57Z</time></trkpt><trkpt lat="14.450608829070877" lon="120.92707022885477"><ele>6.0</ele><time>2026-04-17T13:36:58Z</time></trkpt><trkpt lat="14.450624545978721" lon="120.92716168024711"><ele>6.0</ele><time>2026-04-17T13:36:59Z</time></trkpt><trkpt lat="14.450625002433682" lon="120.92725200193394"><ele>6.0</ele><time>2026-04-17T13:37:00Z</time></trkpt><trkpt lat="14.45062270995507" lon="120.92733013687246"><ele>6.0</ele><time>2026-04-17T13:37:01Z</time></trkpt><trkpt lat="14.450602649959938" lon="120.92741852420048"><ele>6.0</ele><time>2026-04-17T13:37:02Z</time></trkpt><trkpt lat="14.450581770958381" lon="120.92750445115819"><ele>6.0</ele><time>2026-04-17T13:37:03Z</time></trkpt><trkpt lat="14.450560035384939" lon="120.92759586746969"><ele>6.0</ele><time>2026-04-17T13:37:04Z</time></trkpt><trkpt lat="14.450540120465215" lon="120.92768242824974"><ele>6.0</ele><time>2026-04-17T13:37:05Z</time></trkpt><trkpt lat="14.450521354338417" lon="120.92777726194842"><ele>6.0</ele><time>2026-04-17T13:37:06Z</time></trkpt><trkpt lat="14.450506932818888" lon="120.92787121494607"><ele>6.0</ele><time>2026-04-17T13:37:07Z</time></trkpt><trkpt lat="14.450486489743714" lon="120.92794535803321"><ele>6.0</ele><time>2026-04-17T13:37:08Z</time></trkpt><trkpt lat="14.450471700304625" lon="120.928014199199"><ele>6.0</ele><time>2026-04-17T13:37:09Z</time></trkpt><trkpt lat="14.450456751814595" lon="120.92811395700063"><ele>6.0</ele><time>2026-04-17T13:37:11Z</time></trkpt><trkpt lat="14.450464601179226" lon="120.92820032623267"><ele>6.0</ele><time>2026-04-17T13:37:13Z</time></trkpt><trkpt lat="14.450508671838548" lon="120.92828127120478"><ele>6.0</ele><time>2026-04-17T13:37:15Z</time></trkpt><trkpt lat="14.450554796896878" lon="120.9283320495304"><ele>6.0</ele><time>2026-04-17T13:37:17Z</time></trkpt><trkpt lat="14.45066192679158" lon="120.92841883071868"><ele>6.333333333333333</ele><time>2026-04-17T13:37:19Z</time></trkpt><trkpt lat="14.450763876552864" lon="120.928436882054"><ele>6.666666666666666</ele><time>2026-04-17T13:37:21Z</time></trkpt><trkpt lat="14.450830586448795" lon="120.92842935502851"><ele>7.0</ele><time>2026-04-17T13:37:22Z</time></trkpt><trkpt lat="14.45089612462816" lon="120.92842071863245"><ele>7.333333333333333</ele><time>2026-04-17T13:37:23Z</time></trkpt><trkpt lat="14.450984974090563" lon="120.92840786316394"><ele>7.666666666666666</ele><time>2026-04-17T13:37:24Z</time></trkpt><trkpt lat="14.451069962068612" lon="120.92839398671721"><ele>8.0</ele><time>2026-04-17T13:37:25Z</time></trkpt><trkpt lat="14.451161342267802" lon="120.92838375233495"><ele>7.999999999999999</ele><time>2026-04-17T13:37:26Z</time></trkpt><trkpt lat="14.451242447066502" lon="120.92837002171625"><ele>8.0</ele><time>2026-04-17T13:37:27Z</time></trkpt><trkpt lat="14.451330007737653" lon="120.92835786261912"><ele>8.0</ele><time>2026-04-17T13:37:28Z</time></trkpt><trkpt lat="14.451410716480554" lon="120.92834665518923"><ele>8.0</ele><time>2026-04-17T13:37:29Z</time></trkpt><trkpt lat="14.451504788831587" lon="120.92833611025107"><ele>7.999999999999999</ele><time>2026-04-17T13:37:30Z</time></trkpt><trkpt lat="14.451586648110581" lon="120.9283386696908"><ele>8.0</ele><time>2026-04-17T13:37:31Z</time></trkpt><trkpt lat="14.4516856908428" lon="120.9283355735322"><ele>7.833333333333333</ele><time>2026-04-17T13:37:32Z</time></trkpt><trkpt lat="14.451782397960752" lon="120.92832968458553"><ele>7.666666666666666</ele><time>2026-04-17T13:37:33Z</time></trkpt><trkpt lat="14.451883218102493" lon="120.92832283637506"><ele>7.5</ele><time>2026-04-17T13:37:34Z</time></trkpt><trkpt lat="14.451956967862964" lon="120.92831660699501"><ele>7.333333333333334</ele><time>2026-04-17T13:37:35Z</time></trkpt><trkpt lat="14.452030752736524" lon="120.92832184386191"><ele>7.166666666666667</ele><time>2026-04-17T13:37:36Z</time></trkpt><trkpt lat="14.452113753605131" lon="120.92832249139678"><ele>7.0</ele><time>2026-04-17T13:37:37Z</time></trkpt><trkpt lat="14.45219345224018" lon="120.92832676795315"><ele>6.666666666666667</ele><time>2026-04-17T13:37:38Z</time></trkpt><trkpt lat="14.452267053227695" lon="120.92834103696289"><ele>6.333333333333334</ele><time>2026-04-17T13:37:39Z</time></trkpt><trkpt lat="14.452362216965996" lon="120.92836076189339"><ele>6.0</ele><time>2026-04-17T13:37:40Z</time></trkpt><trkpt lat="14.45243448228452" lon="120.9283896181938"><ele>5.666666666666667</ele><time>2026-04-17T13:37:41Z</time></trkpt><trkpt lat="14.452501511432558" lon="120.92842868436486"><ele>5.333333333333334</ele><time>2026-04-17T13:37:42Z</time></trkpt><trkpt lat="14.452570664149118" lon="120.92846433419965"><ele>5.0</ele><time>2026-04-17T13:37:43Z</time></trkpt><trkpt lat="14.45264832804314" lon="120.92849881315183"><ele>5.0</ele><time>2026-04-17T13:37:44Z</time></trkpt><trkpt lat="14.452721035778852" lon="120.92853927782932"><ele>5.0</ele><time>2026-04-17T13:37:45Z</time></trkpt><trkpt lat="14.4527829394843" lon="120.92857292923883"><ele>5.0</ele><time>2026-04-17T13:37:46Z</time></trkpt><trkpt lat="14.452869183774782" lon="120.92866150772653"><ele>5.0</ele><time>2026-04-17T13:37:48Z</time></trkpt><trkpt lat="14.452926334120926" lon="120.928759532334"><ele>5.0</ele><time>2026-04-17T13:37:50Z</time></trkpt><trkpt lat="14.453048198315207" lon="120.92879879779773"><ele>5.0</ele><time>2026-04-17T13:37:51Z</time></trkpt><trkpt lat="14.453101884368332" lon="120.92885270904237"><ele>5.0</ele><time>2026-04-17T13:37:52Z</time></trkpt><trkpt lat="14.453155522596424" lon="120.92890814849474"><ele>5.0</ele><time>2026-04-17T13:37:53Z</time></trkpt><trkpt lat="14.453212406926633" lon="120.92896473919636"><ele>5.0</ele><time>2026-04-17T13:37:54Z</time></trkpt><trkpt lat="14.453270529468565" lon="120.92902373648106"><ele>5.0</ele><time>2026-04-17T13:37:55Z</time></trkpt><trkpt lat="14.453328920961598" lon="120.92907776088437"><ele>5.0</ele><time>2026-04-17T13:37:56Z</time></trkpt><trkpt lat="14.453388297802759" lon="120.92913049125983"><ele>5.0</ele><time>2026-04-17T13:37:57Z</time></trkpt><trkpt lat="14.453455326691452" lon="120.92918991204968"><ele>5.0</ele><time>2026-04-17T13:37:58Z</time></trkpt><trkpt lat="14.453525237360958" lon="120.92925400417231"><ele>5.0</ele><time>2026-04-17T13:37:59Z</time></trkpt><trkpt lat="14.453596629146892" lon="120.9293164949817"><ele>5.0</ele><time>2026-04-17T13:38:00Z</time></trkpt><trkpt lat="14.45367109212294" lon="120.92938221278987"><ele>5.0</ele><time>2026-04-17T13:38:01Z</time></trkpt><trkpt lat="14.453748287989598" lon="120.929456280617"><ele>5.0</ele><time>2026-04-17T13:38:02Z</time></trkpt><trkpt lat="14.453827649079626" lon="120.92953238307409"><ele>5.0</ele><time>2026-04-17T13:38:03Z</time></trkpt><trkpt lat="14.45390957680667" lon="120.92960545564578"><ele>5.0</ele><time>2026-04-17T13:38:04Z</time></trkpt><trkpt lat="14.45398195365206" lon="120.92966644984276"><ele>5.0</ele><time>2026-04-17T13:38:05Z</time></trkpt><trkpt lat="14.454066231006982" lon="120.92972092216185"><ele>5.0</ele><time>2026-04-17T13:38:06Z</time></trkpt><trkpt lat="14.454153587990062" lon="120.9297711097002"><ele>5.0</ele><time>2026-04-17T13:38:07Z</time></trkpt><trkpt lat="14.454235432270739" lon="120.92982754985788"><ele>5.0</ele><time>2026-04-17T13:38:08Z</time></trkpt><trkpt lat="14.45433390353568" lon="120.92986868295611"><ele>5.0</ele><time>2026-04-17T13:38:09Z</time></trkpt><trkpt lat="14.454432442790882" lon="120.92990785256495"><ele>5.0</ele><time>2026-04-17T13:38:10Z</time></trkpt><trkpt lat="14.454536865806489" lon="120.92993728685465"><ele>5.0</ele><time>2026-04-17T13:38:11Z</time></trkpt><trkpt lat="14.454641081615467" lon="120.9299483694856"><ele>5.166666666666667</ele><time>2026-04-17T13:38:12Z</time></trkpt><trkpt lat="14.454731097620702" lon="120.92998030621209"><ele>5.333333333333334</ele><time>2026-04-17T13:38:13Z</time></trkpt><trkpt lat="14.454810111458254" lon="120.92999814094962"><ele>5.5</ele><time>2026-04-17T13:38:14Z</time></trkpt><trkpt lat="14.454884128816031" lon="120.93001360003801"><ele>5.666666666666667</ele><time>2026-04-17T13:38:15Z</time></trkpt><trkpt lat="14.45497528624728" lon="120.93003263894938"><ele>5.833333333333333</ele><time>2026-04-17T13:38:16Z</time></trkpt><trkpt lat="14.45505781649731" lon="120.93005137135894"><ele>6.0</ele><time>2026-04-17T13:38:17Z</time></trkpt><trkpt lat="14.455145160280697" lon="120.93006779199311"><ele>5.6</ele><time>2026-04-17T13:38:18Z</time></trkpt><trkpt lat="14.455239300438798" lon="120.93008549033576"><ele>5.199999999999999</ele><time>2026-04-17T13:38:19Z</time></trkpt><trkpt lat="14.455338324042877" lon="120.93010356592846"><ele>4.800000000000001</ele><time>2026-04-17T13:38:20Z</time></trkpt><trkpt lat="14.45543020888131" lon="120.93012031602146"><ele>4.4</ele><time>2026-04-17T13:38:21Z</time></trkpt><trkpt lat="14.455526160516085" lon="120.93014007864751"><ele>4.0</ele><time>2026-04-17T13:38:22Z</time></trkpt><trkpt lat="14.455618784887967" lon="120.93015623167447"><ele>4.666666666666666</ele><time>2026-04-17T13:38:23Z</time></trkpt><trkpt lat="14.45569981698446" lon="120.93013294589294"><ele>5.333333333333333</ele><time>2026-04-17T13:38:24Z</time></trkpt><trkpt lat="14.45577322690857" lon="120.9301422484306"><ele>6.0</ele><time>2026-04-17T13:38:25Z</time></trkpt><trkpt lat="14.455891531912574" lon="120.93016837955456"><ele>6.666666666666666</ele><time>2026-04-17T13:38:27Z</time></trkpt><trkpt lat="14.455958774671249" lon="120.93017713024297"><ele>7.333333333333333</ele><time>2026-04-17T13:38:28Z</time></trkpt><trkpt lat="14.456025979533521" lon="120.93019092626335"><ele>8.0</ele><time>2026-04-17T13:38:29Z</time></trkpt><trkpt lat="14.456094182909005" lon="120.93020610148922"><ele>8.0</ele><time>2026-04-17T13:38:30Z</time></trkpt><trkpt lat="14.456165310041204" lon="120.93022162382836"><ele>8.0</ele><time>2026-04-17T13:38:31Z</time></trkpt><trkpt lat="14.45623322842927" lon="120.93023390528506"><ele>8.0</ele><time>2026-04-17T13:38:32Z</time></trkpt><trkpt lat="14.456347490987586" lon="120.93026491288443"><ele>8.0</ele><time>2026-04-17T13:38:34Z</time></trkpt><trkpt lat="14.45644766133043" lon="120.93026980065264"><ele>8.0</ele><time>2026-04-17T13:38:36Z</time></trkpt><trkpt lat="14.456561325028611" lon="120.93029519575823"><ele>8.0</ele><time>2026-04-17T13:38:38Z</time></trkpt><trkpt lat="14.456660527038773" lon="120.93033460359864"><ele>8.0</ele><time>2026-04-17T13:38:40Z</time></trkpt><trkpt lat="14.456751137517111" lon="120.93035603742112"><ele>8.0</ele><time>2026-04-17T13:38:42Z</time></trkpt><trkpt lat="14.456840432537044" lon="120.93038112920769"><ele>8.0</ele><time>2026-04-17T13:38:44Z</time></trkpt><trkpt lat="14.456966828984626" lon="120.93042719978078"><ele>8.0</ele><time>2026-04-17T13:38:46Z</time></trkpt><trkpt lat="14.457040879917448" lon="120.9304647309261"><ele>8.0</ele><time>2026-04-17T13:38:47Z</time></trkpt><trkpt lat="14.457072845054624" lon="120.93054768753278"><ele>8.0</ele><time>2026-04-17T13:38:49Z</time></trkpt><trkpt lat="14.457128168797281" lon="120.9306529291106"><ele>8.0</ele><time>2026-04-17T13:38:51Z</time></trkpt><trkpt lat="14.457152773176446" lon="120.93071740663088"><ele>8.0</ele><time>2026-04-17T13:38:52Z</time></trkpt><trkpt lat="14.457207547396548" lon="120.93083377698451"><ele>8.0</ele><time>2026-04-17T13:38:54Z</time></trkpt><trkpt lat="14.457253258834564" lon="120.93092723506038"><ele>7.833333333333333</ele><time>2026-04-17T13:38:56Z</time></trkpt><trkpt lat="14.457275549831834" lon="120.93100757531629"><ele>7.666666666666666</ele><time>2026-04-17T13:38:58Z</time></trkpt><trkpt lat="14.457301213596864" lon="120.93106877059795"><ele>7.5</ele><time>2026-04-17T13:39:00Z</time></trkpt><trkpt lat="14.457335930616464" lon="120.93113293487161"><ele>7.333333333333334</ele><time>2026-04-17T13:39:02Z</time></trkpt><trkpt lat="14.457373732651256" lon="120.93123776453348"><ele>7.166666666666667</ele><time>2026-04-17T13:39:04Z</time></trkpt><trkpt lat="14.457395256124972" lon="120.93131756757776"><ele>7.0</ele><time>2026-04-17T13:39:05Z</time></trkpt><trkpt lat="14.457414467243566" lon="120.93140193241265"><ele>7.000000000000001</ele><time>2026-04-17T13:39:06Z</time></trkpt><trkpt lat="14.457430664363711" lon="120.93147161499095"><ele>7.0</ele><time>2026-04-17T13:39:07Z</time></trkpt><trkpt lat="14.457455651055636" lon="120.93158295187686"><ele>7.0</ele><time>2026-04-17T13:39:09Z</time></trkpt><trkpt lat="14.457506270016385" lon="120.93167537946134"><ele>7.0</ele><time>2026-04-17T13:39:11Z</time></trkpt><trkpt lat="14.457531033750774" lon="120.93174129426372"><ele>7.000000000000001</ele><time>2026-04-17T13:39:12Z</time></trkpt><trkpt lat="14.457556961725658" lon="120.93180756108104"><ele>7.0</ele><time>2026-04-17T13:39:13Z</time></trkpt><trkpt lat="14.45758839689124" lon="120.9318867607888"><ele>6.833333333333334</ele><time>2026-04-17T13:39:14Z</time></trkpt><trkpt lat="14.457611575492399" lon="120.93195984129663"><ele>6.666666666666667</ele><time>2026-04-17T13:39:15Z</time></trkpt><trkpt lat="14.457634066388763" lon="120.9320344020473"><ele>6.5</ele><time>2026-04-17T13:39:16Z</time></trkpt><trkpt lat="14.45765010954058" lon="120.9320984759635"><ele>6.333333333333334</ele><time>2026-04-17T13:39:17Z</time></trkpt><trkpt lat="14.457683716959185" lon="120.93220981426789"><ele>6.166666666666667</ele><time>2026-04-17T13:39:19Z</time></trkpt><trkpt lat="14.457715878020991" lon="120.93230332776989"><ele>6.0</ele><time>2026-04-17T13:39:21Z</time></trkpt><trkpt lat="14.457742500449688" lon="120.93240818375486"><ele>6.0</ele><time>2026-04-17T13:39:23Z</time></trkpt><trkpt lat="14.457774042041704" lon="120.93252679216418"><ele>6.0</ele><time>2026-04-17T13:39:25Z</time></trkpt><trkpt lat="14.45779782682872" lon="120.93264535640783"><ele>6.0</ele><time>2026-04-17T13:39:27Z</time></trkpt><trkpt lat="14.457817582474616" lon="120.93275757129452"><ele>6.0</ele><time>2026-04-17T13:39:29Z</time></trkpt><trkpt lat="14.457833716179804" lon="120.93288262176621"><ele>6.0</ele><time>2026-04-17T13:39:31Z</time></trkpt><trkpt lat="14.457835459105393" lon="120.9329481743874"><ele>6.0</ele><time>2026-04-17T13:39:32Z</time></trkpt><trkpt lat="14.457848582081184" lon="120.93301233063279"><ele>6.0</ele><time>2026-04-17T13:39:33Z</time></trkpt><trkpt lat="14.457848541325635" lon="120.93312043833055"><ele>6.0</ele><time>2026-04-17T13:39:35Z</time></trkpt><trkpt lat="14.457856281339081" lon="120.93322213374586"><ele>6.0</ele><time>2026-04-17T13:39:37Z</time></trkpt><trkpt lat="14.457865399062332" lon="120.93334954559901"><ele>6.4</ele><time>2026-04-17T13:39:39Z</time></trkpt><trkpt lat="14.457890534647944" lon="120.93349760044457"><ele>6.8</ele><time>2026-04-17T13:39:41Z</time></trkpt><trkpt lat="14.45790924419453" lon="120.93359222651917"><ele>7.200000000000001</ele><time>2026-04-17T13:39:42Z</time></trkpt><trkpt lat="14.457926180023357" lon="120.93369984133852"><ele>7.6000000000000005</ele><time>2026-04-17T13:39:43Z</time></trkpt><trkpt lat="14.457936627143052" lon="120.93379779128585"><ele>8.0</ele><time>2026-04-17T13:39:44Z</time></trkpt><trkpt lat="14.457948065199307" lon="120.93390453534374"><ele>7.6000000000000005</ele><time>2026-04-17T13:39:45Z</time></trkpt><trkpt lat="14.457968883015901" lon="120.93401035859644"><ele>7.200000000000001</ele><time>2026-04-17T13:39:46Z</time></trkpt><trkpt lat="14.457982207258414" lon="120.93411279270818"><ele>6.8</ele><time>2026-04-17T13:39:47Z</time></trkpt><trkpt lat="14.4579947230331" lon="120.93420232893952"><ele>6.4</ele><time>2026-04-17T13:39:48Z</time></trkpt><trkpt lat="14.45800573005455" lon="120.93429131148608"><ele>6.0</ele><time>2026-04-17T13:39:49Z</time></trkpt><trkpt lat="14.458015554243266" lon="120.93437293921355"><ele>6.0</ele><time>2026-04-17T13:39:50Z</time></trkpt><trkpt lat="14.45802362007427" lon="120.93447526654903"><ele>6.0</ele><time>2026-04-17T13:39:52Z</time></trkpt><trkpt lat="14.458025272346477" lon="120.93455857491051"><ele>6.0</ele><time>2026-04-17T13:39:55Z</time></trkpt><trkpt lat="14.458036887385678" lon="120.93463537937862"><ele>6.0</ele><time>2026-04-17T13:39:57Z</time></trkpt><trkpt lat="14.458071108337304" lon="120.93476336813006"><ele>6.0</ele><time>2026-04-17T13:39:59Z</time></trkpt><trkpt lat="14.458100914277246" lon="120.93484972362754"><ele>6.0</ele><time>2026-04-17T13:40:00Z</time></trkpt><trkpt lat="14.458110158189621" lon="120.93494660089102"><ele>6.0</ele><time>2026-04-17T13:40:01Z</time></trkpt><trkpt lat="14.458141449684833" lon="120.93506598729823"><ele>6.0</ele><time>2026-04-17T13:40:02Z</time></trkpt><trkpt lat="14.458167185174108" lon="120.93517725402403"><ele>6.0</ele><time>2026-04-17T13:40:03Z</time></trkpt><trkpt lat="14.458190508368668" lon="120.93528559629583"><ele>6.0</ele><time>2026-04-17T13:40:04Z</time></trkpt><trkpt lat="14.458217374634573" lon="120.93539469704565"><ele>5.5</ele><time>2026-04-17T13:40:05Z</time></trkpt><trkpt lat="14.458244901701248" lon="120.93551406533537"><ele>5.0</ele><time>2026-04-17T13:40:06Z</time></trkpt><trkpt lat="14.458273636852432" lon="120.93563951264966"><ele>4.5</ele><time>2026-04-17T13:40:07Z</time></trkpt><trkpt lat="14.458298338770753" lon="120.93576079818037"><ele>4.0</ele><time>2026-04-17T13:40:08Z</time></trkpt><trkpt lat="14.458330410027193" lon="120.9358792490145"><ele>4.25</ele><time>2026-04-17T13:40:09Z</time></trkpt><trkpt lat="14.45835788556554" lon="120.93599788910265"><ele>4.5</ele><time>2026-04-17T13:40:10Z</time></trkpt><trkpt lat="14.45838286294633" lon="120.93610929544248"><ele>4.75</ele><time>2026-04-17T13:40:11Z</time></trkpt><trkpt lat="14.458416274523998" lon="120.93624445465014"><ele>5.0</ele><time>2026-04-17T13:40:12Z</time></trkpt><trkpt lat="14.458450431429641" lon="120.93638723542074"><ele>5.0</ele><time>2026-04-17T13:40:13Z</time></trkpt><trkpt lat="14.458474011020034" lon="120.93647598004667"><ele>5.0</ele><time>2026-04-17T13:40:14Z</time></trkpt><trkpt lat="14.458502952188617" lon="120.93659942322084"><ele>5.0</ele><time>2026-04-17T13:40:15Z</time></trkpt><trkpt lat="14.45853052654067" lon="120.93672178307688"><ele>5.0</ele><time>2026-04-17T13:40:16Z</time></trkpt><trkpt lat="14.458557191732085" lon="120.93684402457902"><ele>5.5</ele><time>2026-04-17T13:40:17Z</time></trkpt><trkpt lat="14.45857882121963" lon="120.93696441405892"><ele>6.0</ele><time>2026-04-17T13:40:18Z</time></trkpt><trkpt lat="14.458603711819032" lon="120.93708188983683"><ele>6.5</ele><time>2026-04-17T13:40:19Z</time></trkpt><trkpt lat="14.458627996088463" lon="120.93719436060702"><ele>7.0</ele><time>2026-04-17T13:40:20Z</time></trkpt><trkpt lat="14.458651915374977" lon="120.9373103068614"><ele>7.0</ele><time>2026-04-17T13:40:21Z</time></trkpt><trkpt lat="14.458678311537556" lon="120.93742523056979"><ele>6.999999999999999</ele><time>2026-04-17T13:40:22Z</time></trkpt><trkpt lat="14.458700269828629" lon="120.93753078769059"><ele>6.999999999999999</ele><time>2026-04-17T13:40:23Z</time></trkpt><trkpt lat="14.458725805497762" lon="120.93763184416864"><ele>7.0</ele><time>2026-04-17T13:40:24Z</time></trkpt><trkpt lat="14.458742950399321" lon="120.93771991138811"><ele>7.0</ele><time>2026-04-17T13:40:25Z</time></trkpt><trkpt lat="14.458767805463541" lon="120.93780083705056"><ele>6.833333333333334</ele><time>2026-04-17T13:40:26Z</time></trkpt><trkpt lat="14.458781064697062" lon="120.93788208244342"><ele>6.666666666666667</ele><time>2026-04-17T13:40:27Z</time></trkpt><trkpt lat="14.458797363260512" lon="120.93795698467662"><ele>6.5</ele><time>2026-04-17T13:40:28Z</time></trkpt><trkpt lat="14.45880954707033" lon="120.93802528882036"><ele>6.333333333333334</ele><time>2026-04-17T13:40:29Z</time></trkpt><trkpt lat="14.458827961498152" lon="120.93809046299442"><ele>6.166666666666667</ele><time>2026-04-17T13:40:30Z</time></trkpt><trkpt lat="14.45886158200445" lon="120.93820808780079"><ele>6.0</ele><time>2026-04-17T13:40:32Z</time></trkpt><trkpt lat="14.458892023998958" lon="120.93829908872326"><ele>6.4</ele><time>2026-04-17T13:40:34Z</time></trkpt><trkpt lat="14.458918221350668" lon="120.93838812837213"><ele>6.8</ele><time>2026-04-17T13:40:36Z</time></trkpt><trkpt lat="14.458945202716286" lon="120.93852321246952"><ele>7.200000000000001</ele><time>2026-04-17T13:40:38Z</time></trkpt><trkpt lat="14.458960196784123" lon="120.93859849015382"><ele>7.6000000000000005</ele><time>2026-04-17T13:40:39Z</time></trkpt><trkpt lat="14.458977613593012" lon="120.93867781850426"><ele>8.0</ele><time>2026-04-17T13:40:40Z</time></trkpt><trkpt lat="14.459009239436407" lon="120.93876917256871"><ele>7.999999999999999</ele><time>2026-04-17T13:40:41Z</time></trkpt><trkpt lat="14.459031097827925" lon="120.93886446562941"><ele>8.0</ele><time>2026-04-17T13:40:42Z</time></trkpt><trkpt lat="14.459054070314453" lon="120.93895776076553"><ele>8.0</ele><time>2026-04-17T13:40:43Z</time></trkpt><trkpt lat="14.459071954493796" lon="120.93904616431155"><ele>8.0</ele><time>2026-04-17T13:40:44Z</time></trkpt><trkpt lat="14.459091863602506" lon="120.9391306915578"><ele>7.999999999999999</ele><time>2026-04-17T13:40:45Z</time></trkpt><trkpt lat="14.459110234128788" lon="120.93920639871813"><ele>8.0</ele><time>2026-04-17T13:40:46Z</time></trkpt><trkpt lat="14.459131016124775" lon="120.9392805575607"><ele>7.999999999999999</ele><time>2026-04-17T13:40:47Z</time></trkpt><trkpt lat="14.459148550700553" lon="120.93935467489818"><ele>8.0</ele><time>2026-04-17T13:40:48Z</time></trkpt><trkpt lat="14.459171046238142" lon="120.939428346121"><ele>8.0</ele><time>2026-04-17T13:40:49Z</time></trkpt><trkpt lat="14.459184815207184" lon="120.93949788022601"><ele>8.0</ele><time>2026-04-17T13:40:50Z</time></trkpt><trkpt lat="14.459205937339057" lon="120.93956561446517"><ele>7.999999999999999</ele><time>2026-04-17T13:40:51Z</time></trkpt><trkpt lat="14.459221723561297" lon="120.93963194562781"><ele>8.0</ele><time>2026-04-17T13:40:52Z</time></trkpt><trkpt lat="14.459249353292034" lon="120.93973021858062"><ele>8.0</ele><time>2026-04-17T13:40:54Z</time></trkpt><trkpt lat="14.459265050729382" lon="120.93982061784276"><ele>8.0</ele><time>2026-04-17T13:40:56Z</time></trkpt><trkpt lat="14.459282270587787" lon="120.93991165359074"><ele>8.0</ele><time>2026-04-17T13:40:58Z</time></trkpt><trkpt lat="14.459289404270088" lon="120.94001344242012"><ele>8.0</ele><time>2026-04-17T13:41:00Z</time></trkpt><trkpt lat="14.459296026680347" lon="120.9401050403666"><ele>8.0</ele><time>2026-04-17T13:41:02Z</time></trkpt><trkpt lat="14.459300538069492" lon="120.94019748270856"><ele>7.999999999999999</ele><time>2026-04-17T13:41:05Z</time></trkpt><trkpt lat="14.459313750947274" lon="120.94026121869051"><ele>8.0</ele><time>2026-04-17T13:41:07Z</time></trkpt><trkpt lat="14.459322630065829" lon="120.94035451485655"><ele>8.0</ele><time>2026-04-17T13:41:09Z</time></trkpt><trkpt lat="14.459326276810296" lon="120.94042263849956"><ele>8.0</ele><time>2026-04-17T13:41:10Z</time></trkpt><trkpt lat="14.459330139714838" lon="120.94051566638433"><ele>7.999999999999999</ele><time>2026-04-17T13:41:11Z</time></trkpt><trkpt lat="14.459336073355743" lon="120.94060725096314"><ele>8.0</ele><time>2026-04-17T13:41:12Z</time></trkpt><trkpt lat="14.459341137306495" lon="120.9406836887222"><ele>7.999999999999999</ele><time>2026-04-17T13:41:13Z</time></trkpt><trkpt lat="14.459344336099873" lon="120.94076390370789"><ele>8.0</ele><time>2026-04-17T13:41:14Z</time></trkpt><trkpt lat="14.459348654924788" lon="120.94084510183924"><ele>8.0</ele><time>2026-04-17T13:41:15Z</time></trkpt><trkpt lat="14.459350365757128" lon="120.94092290958733"><ele>8.0</ele><time>2026-04-17T13:41:16Z</time></trkpt><trkpt lat="14.459360858125367" lon="120.94099427042701"><ele>7.999999999999999</ele><time>2026-04-17T13:41:17Z</time></trkpt><trkpt lat="14.459376813858018" lon="120.94111994611256"><ele>8.0</ele><time>2026-04-17T13:41:19Z</time></trkpt><trkpt lat="14.45939319721305" lon="120.94125398951078"><ele>8.0</ele><time>2026-04-17T13:41:21Z</time></trkpt><trkpt lat="14.459410385388049" lon="120.94136985179364"><ele>8.0</ele><time>2026-04-17T13:41:23Z</time></trkpt><trkpt lat="14.459420254662367" lon="120.94148309073422"><ele>8.0</ele><time>2026-04-17T13:41:25Z</time></trkpt><trkpt lat="14.459428439289285" lon="120.94159981354578"><ele>8.0</ele><time>2026-04-17T13:41:27Z</time></trkpt><trkpt lat="14.459444997402365" lon="120.94172349700142"><ele>8.0</ele><time>2026-04-17T13:41:29Z</time></trkpt><trkpt lat="14.459435550045056" lon="120.94179214184734"><ele>8.0</ele><time>2026-04-17T13:41:30Z</time></trkpt><trkpt lat="14.459465275870516" lon="120.94192676414313"><ele>8.0</ele><time>2026-04-17T13:41:32Z</time></trkpt><trkpt lat="14.459456746331249" lon="120.942011990093"><ele>8.0</ele><time>2026-04-17T13:41:33Z</time></trkpt><trkpt lat="14.459464604987922" lon="120.9420935002293"><ele>8.0</ele><time>2026-04-17T13:41:34Z</time></trkpt><trkpt lat="14.459476745976184" lon="120.94221942675253"><ele>7.999999999999999</ele><time>2026-04-17T13:41:36Z</time></trkpt><trkpt lat="14.459502495372613" lon="120.94231399581078"><ele>8.0</ele><time>2026-04-17T13:41:38Z</time></trkpt><trkpt lat="14.459510227564264" lon="120.9424347074465"><ele>8.0</ele><time>2026-04-17T13:41:40Z</time></trkpt><trkpt lat="14.45951786305073" lon="120.94250351593806"><ele>8.0</ele><time>2026-04-17T13:41:41Z</time></trkpt><trkpt lat="14.459524360548835" lon="120.94257310131319"><ele>7.999999999999999</ele><time>2026-04-17T13:41:42Z</time></trkpt><trkpt lat="14.459529811358903" lon="120.94264698268981"><ele>8.0</ele><time>2026-04-17T13:41:43Z</time></trkpt><trkpt lat="14.459535349599415" lon="120.94271890191334"><ele>8.0</ele><time>2026-04-17T13:41:44Z</time></trkpt><trkpt lat="14.459543217051348" lon="120.94279350802807"><ele>7.999999999999999</ele><time>2026-04-17T13:41:45Z</time></trkpt><trkpt lat="14.459549245867613" lon="120.94286568070709"><ele>8.0</ele><time>2026-04-17T13:41:46Z</time></trkpt><trkpt lat="14.459554376708079" lon="120.94293991159097"><ele>8.0</ele><time>2026-04-17T13:41:47Z</time></trkpt><trkpt lat="14.45956015888233" lon="120.94301459281442"><ele>7.999999999999999</ele><time>2026-04-17T13:41:48Z</time></trkpt><trkpt lat="14.459563938181123" lon="120.94308619152785"><ele>8.0</ele><time>2026-04-17T13:41:49Z</time></trkpt><trkpt lat="14.459573436486489" lon="120.94316220390861"><ele>8.0</ele><time>2026-04-17T13:41:50Z</time></trkpt><trkpt lat="14.459582764618782" lon="120.94328392112257"><ele>7.999999999999999</ele><time>2026-04-17T13:41:52Z</time></trkpt><trkpt lat="14.459587518464069" lon="120.94335005904476"><ele>8.0</ele><time>2026-04-17T13:41:53Z</time></trkpt><trkpt lat="14.459591952638196" lon="120.94341956027009"><ele>8.0</ele><time>2026-04-17T13:41:54Z</time></trkpt><trkpt lat="14.45959879689341" lon="120.94349204869137"><ele>8.0</ele><time>2026-04-17T13:41:55Z</time></trkpt><trkpt lat="14.459604706559121" lon="120.94356449559666"><ele>7.999999999999999</ele><time>2026-04-17T13:41:56Z</time></trkpt><trkpt lat="14.459611034397476" lon="120.94363710719371"><ele>8.0</ele><time>2026-04-17T13:41:57Z</time></trkpt><trkpt lat="14.459617417662228" lon="120.94375601942812"><ele>8.0</ele><time>2026-04-17T13:41:59Z</time></trkpt><trkpt lat="14.459626219437927" lon="120.94385794239142"><ele>8.0</ele><time>2026-04-17T13:42:01Z</time></trkpt><trkpt lat="14.4596347273678" lon="120.94399058531393"><ele>8.0</ele><time>2026-04-17T13:42:03Z</time></trkpt><trkpt lat="14.459642253857403" lon="120.94406577707582"><ele>8.0</ele><time>2026-04-17T13:42:04Z</time></trkpt><trkpt lat="14.459652113031028" lon="120.94415400686147"><ele>8.0</ele><time>2026-04-17T13:42:05Z</time></trkpt><trkpt lat="14.459653644579134" lon="120.94422927355734"><ele>7.6000000000000005</ele><time>2026-04-17T13:42:06Z</time></trkpt><trkpt lat="14.459666257543761" lon="120.9443199843739"><ele>7.200000000000001</ele><time>2026-04-17T13:42:07Z</time></trkpt><trkpt lat="14.459673356435427" lon="120.94440103512456"><ele>6.8</ele><time>2026-04-17T13:42:08Z</time></trkpt><trkpt lat="14.459675890557683" lon="120.94448340885876"><ele>6.4</ele><time>2026-04-17T13:42:09Z</time></trkpt><trkpt lat="14.459686028485363" lon="120.94458714081125"><ele>6.0</ele><time>2026-04-17T13:42:10Z</time></trkpt><trkpt lat="14.459700874901344" lon="120.94471399934537"><ele>6.0</ele><time>2026-04-17T13:42:11Z</time></trkpt><trkpt lat="14.45969800600398" lon="120.94483787570228"><ele>6.0</ele><time>2026-04-17T13:42:12Z</time></trkpt><trkpt lat="14.459699314984599" lon="120.94492239018959"><ele>6.0</ele><time>2026-04-17T13:42:13Z</time></trkpt><trkpt lat="14.45969970928565" lon="120.94503045423632"><ele>6.0</ele><time>2026-04-17T13:42:14Z</time></trkpt><trkpt lat="14.459703673312275" lon="120.94511596024014"><ele>6.0</ele><time>2026-04-17T13:42:15Z</time></trkpt><trkpt lat="14.459706745104734" lon="120.94519544434544"><ele>6.166666666666667</ele><time>2026-04-17T13:42:16Z</time></trkpt><trkpt lat="14.459706357369347" lon="120.94527057152584"><ele>6.333333333333334</ele><time>2026-04-17T13:42:17Z</time></trkpt><trkpt lat="14.459709123844636" lon="120.94533734918653"><ele>6.5</ele><time>2026-04-17T13:42:18Z</time></trkpt><trkpt lat="14.459711847049922" lon="120.94544143529578"><ele>6.666666666666667</ele><time>2026-04-17T13:42:20Z</time></trkpt><trkpt lat="14.45971091928397" lon="120.94552396978351"><ele>6.833333333333334</ele><time>2026-04-17T13:42:23Z</time></trkpt><trkpt lat="14.459717728443092" lon="120.94562497769992"><ele>7.0</ele><time>2026-04-17T13:42:26Z</time></trkpt><trkpt lat="14.45972086023288" lon="120.94573319021549"><ele>7.000000000000001</ele><time>2026-04-17T13:42:29Z</time></trkpt><trkpt lat="14.459722938522813" lon="120.94581959442498"><ele>7.0</ele><time>2026-04-17T13:42:31Z</time></trkpt><trkpt lat="14.45972570568655" lon="120.9459036553954"><ele>7.0</ele><time>2026-04-17T13:42:33Z</time></trkpt><trkpt lat="14.459730964027926" lon="120.9460123988919"><ele>7.0</ele><time>2026-04-17T13:42:35Z</time></trkpt><trkpt lat="14.45973235446747" lon="120.9460835811783"><ele>7.000000000000001</ele><time>2026-04-17T13:42:36Z</time></trkpt><trkpt lat="14.459732896452628" lon="120.94615579988846"><ele>7.0</ele><time>2026-04-17T13:42:37Z</time></trkpt><trkpt lat="14.459735762543426" lon="120.94624330160018"><ele>7.166666666666667</ele><time>2026-04-17T13:42:38Z</time></trkpt><trkpt lat="14.45973828310047" lon="120.94632335318818"><ele>7.333333333333334</ele><time>2026-04-17T13:42:39Z</time></trkpt><trkpt lat="14.459740964944451" lon="120.94640907217173"><ele>7.5</ele><time>2026-04-17T13:42:40Z</time></trkpt><trkpt lat="14.459739899870751" lon="120.94649582351532"><ele>7.666666666666666</ele><time>2026-04-17T13:42:41Z</time></trkpt><trkpt lat="14.459742672423546" lon="120.94659116644378"><ele>7.833333333333333</ele><time>2026-04-17T13:42:42Z</time></trkpt><trkpt lat="14.45974611756313" lon="120.94668749038333"><ele>8.0</ele><time>2026-04-17T13:42:43Z</time></trkpt><trkpt lat="14.4597541746606" lon="120.94677082348691"><ele>7.999999999999999</ele><time>2026-04-17T13:42:44Z</time></trkpt><trkpt lat="14.459760403905785" lon="120.94684297121195"><ele>8.0</ele><time>2026-04-17T13:42:45Z</time></trkpt><trkpt lat="14.459769091005997" lon="120.94695234161492"><ele>8.0</ele><time>2026-04-17T13:42:46Z</time></trkpt><trkpt lat="14.459776309570701" lon="120.94705016628284"><ele>8.0</ele><time>2026-04-17T13:42:47Z</time></trkpt><trkpt lat="14.45978442433715" lon="120.94713400662177"><ele>7.999999999999999</ele><time>2026-04-17T13:42:48Z</time></trkpt><trkpt lat="14.45978967983649" lon="120.94721594923097"><ele>8.0</ele><time>2026-04-17T13:42:49Z</time></trkpt><trkpt lat="14.459792697499234" lon="120.94729437678278"><ele>7.999999999999999</ele><time>2026-04-17T13:42:50Z</time></trkpt><trkpt lat="14.459800501380021" lon="120.94736404001925"><ele>8.0</ele><time>2026-04-17T13:42:51Z</time></trkpt><trkpt lat="14.459809864607678" lon="120.94748521787074"><ele>8.0</ele><time>2026-04-17T13:42:53Z</time></trkpt><trkpt lat="14.459814206492423" lon="120.94755524373622"><ele>8.0</ele><time>2026-04-17T13:42:54Z</time></trkpt><trkpt lat="14.459822269766548" lon="120.94763005295049"><ele>7.999999999999999</ele><time>2026-04-17T13:42:55Z</time></trkpt><trkpt lat="14.459830614534956" lon="120.94770396964488"><ele>8.0</ele><time>2026-04-17T13:42:56Z</time></trkpt><trkpt lat="14.459836516732551" lon="120.94777336424156"><ele>7.833333333333333</ele><time>2026-04-17T13:42:57Z</time></trkpt><trkpt lat="14.459843102929772" lon="120.94784898825455"><ele>7.666666666666666</ele><time>2026-04-17T13:42:58Z</time></trkpt><trkpt lat="14.459851456155578" lon="120.94792450020967"><ele>7.5</ele><time>2026-04-17T13:42:59Z</time></trkpt><trkpt lat="14.45986282186203" lon="120.94806337766622"><ele>7.333333333333334</ele><time>2026-04-17T13:43:01Z</time></trkpt><trkpt lat="14.459867664910677" lon="120.9481418673416"><ele>7.166666666666667</ele><time>2026-04-17T13:43:02Z</time></trkpt><trkpt lat="14.459866975387191" lon="120.94822286423141"><ele>7.0</ele><time>2026-04-17T13:43:03Z</time></trkpt><trkpt lat="14.459866461279066" lon="120.94830038933931"><ele>7.000000000000001</ele><time>2026-04-17T13:43:04Z</time></trkpt><trkpt lat="14.459870257680835" lon="120.94838454320559"><ele>7.0</ele><time>2026-04-17T13:43:05Z</time></trkpt><trkpt lat="14.459872550878703" lon="120.94846673227131"><ele>7.0</ele><time>2026-04-17T13:43:06Z</time></trkpt><trkpt lat="14.459884421720242" lon="120.9485604759932"><ele>7.0</ele><time>2026-04-17T13:43:07Z</time></trkpt><trkpt lat="14.459898988764492" lon="120.94865909348317"><ele>7.000000000000001</ele><time>2026-04-17T13:43:08Z</time></trkpt><trkpt lat="14.45990979325015" lon="120.94875448098841"><ele>7.0</ele><time>2026-04-17T13:43:09Z</time></trkpt><trkpt lat="14.459925887298896" lon="120.94885265008479"><ele>7.000000000000001</ele><time>2026-04-17T13:43:10Z</time></trkpt><trkpt lat="14.459940471034132" lon="120.94894134790715"><ele>7.0</ele><time>2026-04-17T13:43:11Z</time></trkpt><trkpt lat="14.459951162846945" lon="120.9490211494348"><ele>7.0</ele><time>2026-04-17T13:43:12Z</time></trkpt><trkpt lat="14.459956087940007" lon="120.94911385922019"><ele>7.0</ele><time>2026-04-17T13:43:13Z</time></trkpt><trkpt lat="14.459961656810643" lon="120.94918961708987"><ele>7.000000000000001</ele><time>2026-04-17T13:43:14Z</time></trkpt><trkpt lat="14.459967542658905" lon="120.94926231732342"><ele>7.0</ele><time>2026-04-17T13:43:15Z</time></trkpt><trkpt lat="14.459976876195604" lon="120.94933035967372"><ele>7.0</ele><time>2026-04-17T13:43:16Z</time></trkpt><trkpt lat="14.45999932767919" lon="120.94945880922361"><ele>7.0</ele><time>2026-04-17T13:43:18Z</time></trkpt><trkpt lat="14.460010920942949" lon="120.94958664477385"><ele>7.0</ele><time>2026-04-17T13:43:20Z</time></trkpt><trkpt lat="14.460025218469779" lon="120.94969779756651"><ele>7.0</ele><time>2026-04-17T13:43:22Z</time></trkpt><trkpt lat="14.460032573740326" lon="120.94980909809553"><ele>7.000000000000001</ele><time>2026-04-17T13:43:24Z</time></trkpt><trkpt lat="14.460042589816899" lon="120.94990386407112"><ele>7.0</ele><time>2026-04-17T13:43:26Z</time></trkpt><trkpt lat="14.460053408437803" lon="120.94998740918366"><ele>7.0</ele><time>2026-04-17T13:43:28Z</time></trkpt><trkpt lat="14.460072665725386" lon="120.9500615242574"><ele>7.0</ele><time>2026-04-17T13:43:31Z</time></trkpt><trkpt lat="14.460072239628191" lon="120.95013064233018"><ele>7.000000000000001</ele><time>2026-04-17T13:43:38Z</time></trkpt><trkpt lat="14.460084659524146" lon="120.95020564396991"><ele>7.0</ele><time>2026-04-17T13:43:44Z</time></trkpt><trkpt lat="14.460094639322113" lon="120.95029264812925"><ele>7.333333333333334</ele><time>2026-04-17T13:43:50Z</time></trkpt><trkpt lat="14.460098049740012" lon="120.9503654479603"><ele>7.666666666666667</ele><time>2026-04-17T13:43:53Z</time></trkpt><trkpt lat="14.460102454288972" lon="120.95043929040621"><ele>8.0</ele><time>2026-04-17T13:43:55Z</time></trkpt><trkpt lat="14.460109287501853" lon="120.95051369787502"><ele>8.333333333333334</ele><time>2026-04-17T13:43:57Z</time></trkpt><trkpt lat="14.460119944155654" lon="120.95059742698098"><ele>8.666666666666666</ele><time>2026-04-17T13:43:59Z</time></trkpt><trkpt lat="14.460124185082595" lon="120.95068428625518"><ele>9.0</ele><time>2026-04-17T13:44:01Z</time></trkpt><trkpt lat="14.460135103049781" lon="120.9507574087615"><ele>9.0</ele><time>2026-04-17T13:44:03Z</time></trkpt><trkpt lat="14.460149025811026" lon="120.95083800457752"><ele>9.0</ele><time>2026-04-17T13:44:06Z</time></trkpt><trkpt lat="14.460155035188995" lon="120.95092114729913"><ele>9.0</ele><time>2026-04-17T13:44:08Z</time></trkpt><trkpt lat="14.460154543254488" lon="120.95101734299197"><ele>9.0</ele><time>2026-04-17T13:44:10Z</time></trkpt><trkpt lat="14.460158510405682" lon="120.95109613975333"><ele>9.0</ele><time>2026-04-17T13:44:12Z</time></trkpt><trkpt lat="14.460160479865307" lon="120.9511885058548"><ele>9.0</ele><time>2026-04-17T13:44:14Z</time></trkpt><trkpt lat="14.460160358163822" lon="120.9512626304916"><ele>8.8</ele><time>2026-04-17T13:44:15Z</time></trkpt><trkpt lat="14.460163049148145" lon="120.95135322804505"><ele>8.600000000000001</ele><time>2026-04-17T13:44:16Z</time></trkpt><trkpt lat="14.460174220182344" lon="120.95144635202502"><ele>8.4</ele><time>2026-04-17T13:44:17Z</time></trkpt><trkpt lat="14.460197741543949" lon="120.95154726644132"><ele>8.200000000000001</ele><time>2026-04-17T13:44:18Z</time></trkpt><trkpt lat="14.460218259497834" lon="120.95165867007123"><ele>8.0</ele><time>2026-04-17T13:44:19Z</time></trkpt><trkpt lat="14.460222654461878" lon="120.9517555738497"><ele>7.800000000000001</ele><time>2026-04-17T13:44:20Z</time></trkpt><trkpt lat="14.460232969203357" lon="120.95185442536474"><ele>7.6000000000000005</ele><time>2026-04-17T13:44:21Z</time></trkpt><trkpt lat="14.460244055725816" lon="120.95194628156213"><ele>7.3999999999999995</ele><time>2026-04-17T13:44:22Z</time></trkpt><trkpt lat="14.460252716271293" lon="120.95202190541612"><ele>7.199999999999999</ele><time>2026-04-17T13:44:23Z</time></trkpt><trkpt lat="14.46026183063832" lon="120.95212074062024"><ele>7.0</ele><time>2026-04-17T13:44:24Z</time></trkpt><trkpt lat="14.460273153528245" lon="120.95221868930726"><ele>7.0</ele><time>2026-04-17T13:44:25Z</time></trkpt><trkpt lat="14.460282760292923" lon="120.95232936514705"><ele>7.0</ele><time>2026-04-17T13:44:26Z</time></trkpt><trkpt lat="14.460291633085376" lon="120.95244001605757"><ele>7.0</ele><time>2026-04-17T13:44:27Z</time></trkpt><trkpt lat="14.460308313416672" lon="120.95256313098312"><ele>7.0</ele><time>2026-04-17T13:44:28Z</time></trkpt><trkpt lat="14.460321243145165" lon="120.95268427176403"><ele>7.25</ele><time>2026-04-17T13:44:29Z</time></trkpt><trkpt lat="14.460331827045835" lon="120.95279728861172"><ele>7.5</ele><time>2026-04-17T13:44:30Z</time></trkpt><trkpt lat="14.460337686148286" lon="120.9529019022941"><ele>7.75</ele><time>2026-04-17T13:44:31Z</time></trkpt><trkpt lat="14.460365499127315" lon="120.95304634246622"><ele>8.0</ele><time>2026-04-17T13:44:32Z</time></trkpt><trkpt lat="14.46038804047187" lon="120.95316620413429"><ele>8.0</ele><time>2026-04-17T13:44:33Z</time></trkpt><trkpt lat="14.460418926705696" lon="120.95327305188538"><ele>8.0</ele><time>2026-04-17T13:44:34Z</time></trkpt><trkpt lat="14.460441791409345" lon="120.95335994114224"><ele>8.0</ele><time>2026-04-17T13:44:35Z</time></trkpt><trkpt lat="14.46047297247521" lon="120.95347172361771"><ele>8.0</ele><time>2026-04-17T13:44:37Z</time></trkpt><trkpt lat="14.460510804839688" lon="120.95355336970621"><ele>8.0</ele><time>2026-04-17T13:44:39Z</time></trkpt><trkpt lat="14.460549709505141" lon="120.95367501237969"><ele>8.0</ele><time>2026-04-17T13:44:41Z</time></trkpt><trkpt lat="14.460567195681792" lon="120.95375723188282"><ele>8.0</ele><time>2026-04-17T13:44:42Z</time></trkpt><trkpt lat="14.46058206778503" lon="120.95384174471032"><ele>8.0</ele><time>2026-04-17T13:44:43Z</time></trkpt><trkpt lat="14.460611691538032" lon="120.95394037596728"><ele>8.0</ele><time>2026-04-17T13:44:44Z</time></trkpt><trkpt lat="14.460641595362793" lon="120.95404478815126"><ele>8.0</ele><time>2026-04-17T13:44:45Z</time></trkpt><trkpt lat="14.460667517970347" lon="120.95415152814837"><ele>8.0</ele><time>2026-04-17T13:44:46Z</time></trkpt><trkpt lat="14.460700373281423" lon="120.95425695412645"><ele>8.0</ele><time>2026-04-17T13:44:47Z</time></trkpt><trkpt lat="14.46073191596342" lon="120.95436577313393"><ele>8.0</ele><time>2026-04-17T13:44:48Z</time></trkpt><trkpt lat="14.460761970011554" lon="120.95447040874957"><ele>8.0</ele><time>2026-04-17T13:44:49Z</time></trkpt><trkpt lat="14.460786358656115" lon="120.95458198224883"><ele>8.0</ele><time>2026-04-17T13:44:50Z</time></trkpt><trkpt lat="14.460813017494965" lon="120.9546917676433"><ele>8.0</ele><time>2026-04-17T13:44:51Z</time></trkpt><trkpt lat="14.460844827295292" lon="120.95480189649346"><ele>8.0</ele><time>2026-04-17T13:44:52Z</time></trkpt><trkpt lat="14.460872003513298" lon="120.95491947276616"><ele>8.0</ele><time>2026-04-17T13:44:53Z</time></trkpt><trkpt lat="14.460901423696855" lon="120.95503600606699"><ele>8.0</ele><time>2026-04-17T13:44:54Z</time></trkpt><trkpt lat="14.46093410254597" lon="120.95515120977454"><ele>8.4</ele><time>2026-04-17T13:44:55Z</time></trkpt><trkpt lat="14.46096667822523" lon="120.9552503439634"><ele>8.8</ele><time>2026-04-17T13:44:56Z</time></trkpt><trkpt lat="14.460991892903301" lon="120.95534457483525"><ele>9.2</ele><time>2026-04-17T13:44:57Z</time></trkpt><trkpt lat="14.461011907479946" lon="120.95543305882308"><ele>9.6</ele><time>2026-04-17T13:44:58Z</time></trkpt><trkpt lat="14.46103378022877" lon="120.95552141982971"><ele>10.0</ele><time>2026-04-17T13:44:59Z</time></trkpt><trkpt lat="14.461059123941174" lon="120.95561108307454"><ele>10.0</ele><time>2026-04-17T13:45:00Z</time></trkpt><trkpt lat="14.461082848962786" lon="120.9557068165912"><ele>10.0</ele><time>2026-04-17T13:45:01Z</time></trkpt><trkpt lat="14.461111951376147" lon="120.95579906188712"><ele>10.0</ele><time>2026-04-17T13:45:02Z</time></trkpt><trkpt lat="14.461139762856426" lon="120.95590129239405"><ele>10.0</ele><time>2026-04-17T13:45:03Z</time></trkpt><trkpt lat="14.46116897744775" lon="120.95600670684087"><ele>10.0</ele><time>2026-04-17T13:45:04Z</time></trkpt><trkpt lat="14.461209757827362" lon="120.9561157971131"><ele>9.0</ele><time>2026-04-17T13:45:05Z</time></trkpt><trkpt lat="14.461236436992882" lon="120.95621812435199"><ele>8.0</ele><time>2026-04-17T13:45:06Z</time></trkpt><trkpt lat="14.461254723893736" lon="120.95632369912431"><ele>7.0</ele><time>2026-04-17T13:45:07Z</time></trkpt><trkpt lat="14.461278286135192" lon="120.95644493729786"><ele>6.0</ele><time>2026-04-17T13:45:08Z</time></trkpt><trkpt lat="14.461321810155365" lon="120.95656911943247"><ele>6.0</ele><time>2026-04-17T13:45:09Z</time></trkpt><trkpt lat="14.461353050394914" lon="120.95668620365616"><ele>6.0</ele><time>2026-04-17T13:45:10Z</time></trkpt><trkpt lat="14.461387100677525" lon="120.9568161884855"><ele>6.0</ele><time>2026-04-17T13:45:11Z</time></trkpt><trkpt lat="14.461418050026811" lon="120.9569456507616"><ele>6.0</ele><time>2026-04-17T13:45:12Z</time></trkpt><trkpt lat="14.461448404087164" lon="120.95707363917825"><ele>6.0</ele><time>2026-04-17T13:45:13Z</time></trkpt><trkpt lat="14.461480928308616" lon="120.95718946425576"><ele>6.0</ele><time>2026-04-17T13:45:14Z</time></trkpt><trkpt lat="14.461514573520452" lon="120.95731119428335"><ele>6.0</ele><time>2026-04-17T13:45:15Z</time></trkpt><trkpt lat="14.461551797603162" lon="120.95744338267882"><ele>6.0</ele><time>2026-04-17T13:45:16Z</time></trkpt><trkpt lat="14.461588664273656" lon="120.95755821910377"><ele>6.25</ele><time>2026-04-17T13:45:17Z</time></trkpt><trkpt lat="14.461620995201702" lon="120.95766628296875"><ele>6.5</ele><time>2026-04-17T13:45:18Z</time></trkpt><trkpt lat="14.461653703442456" lon="120.95778296755842"><ele>6.75</ele><time>2026-04-17T13:45:19Z</time></trkpt><trkpt lat="14.461682747608819" lon="120.9578992494695"><ele>7.0</ele><time>2026-04-17T13:45:20Z</time></trkpt><trkpt lat="14.461715174705805" lon="120.958020575747"><ele>7.0</ele><time>2026-04-17T13:45:21Z</time></trkpt><trkpt lat="14.461741915232174" lon="120.95813523224865"><ele>6.999999999999999</ele><time>2026-04-17T13:45:22Z</time></trkpt><trkpt lat="14.461771805052814" lon="120.95824375858543"><ele>6.999999999999999</ele><time>2026-04-17T13:45:23Z</time></trkpt><trkpt lat="14.461797507233701" lon="120.95833408837017"><ele>7.0</ele><time>2026-04-17T13:45:24Z</time></trkpt><trkpt lat="14.461822423199267" lon="120.95841848174595"><ele>7.0</ele><time>2026-04-17T13:45:25Z</time></trkpt><trkpt lat="14.46185106963599" lon="120.9585146616652"><ele>7.166666666666667</ele><time>2026-04-17T13:45:26Z</time></trkpt><trkpt lat="14.461877682591872" lon="120.9586188312909"><ele>7.333333333333334</ele><time>2026-04-17T13:45:27Z</time></trkpt><trkpt lat="14.461903798351562" lon="120.95872166876168"><ele>7.5</ele><time>2026-04-17T13:45:28Z</time></trkpt><trkpt lat="14.461930544501463" lon="120.95880174700301"><ele>7.666666666666666</ele><time>2026-04-17T13:45:29Z</time></trkpt><trkpt lat="14.46195049060497" lon="120.95887069950302"><ele>7.833333333333333</ele><time>2026-04-17T13:45:30Z</time></trkpt><trkpt lat="14.461968267048887" lon="120.95893424220351"><ele>8.0</ele><time>2026-04-17T13:45:31Z</time></trkpt><trkpt lat="14.462003334157759" lon="120.95908135787394"><ele>7.999999999999999</ele><time>2026-04-17T13:45:33Z</time></trkpt><trkpt lat="14.462024531909815" lon="120.95919102143128"><ele>8.0</ele><time>2026-04-17T13:45:35Z</time></trkpt><trkpt lat="14.462046131039122" lon="120.95927917537564"><ele>8.0</ele><time>2026-04-17T13:45:38Z</time></trkpt><trkpt lat="14.462057869027744" lon="120.95934610792015"><ele>8.0</ele><time>2026-04-17T13:45:41Z</time></trkpt><trkpt lat="14.462078409235497" lon="120.95943838057967"><ele>7.999999999999999</ele><time>2026-04-17T13:46:18Z</time></trkpt><trkpt lat="14.462110241836049" lon="120.95952873703011"><ele>8.0</ele><time>2026-04-17T13:46:21Z</time></trkpt><trkpt lat="14.46214018178387" lon="120.95961469795337"><ele>7.4</ele><time>2026-04-17T13:46:23Z</time></trkpt><trkpt lat="14.462183878594248" lon="120.95974298254116"><ele>6.800000000000001</ele><time>2026-04-17T13:46:25Z</time></trkpt><trkpt lat="14.46221376965859" lon="120.959815495259"><ele>6.2</ele><time>2026-04-17T13:46:26Z</time></trkpt><trkpt lat="14.462248276783601" lon="120.95989712350212"><ele>5.6</ele><time>2026-04-17T13:46:27Z</time></trkpt><trkpt lat="14.462277341092767" lon="120.96004908239003"><ele>5.0</ele><time>2026-04-17T13:46:29Z</time></trkpt><trkpt lat="14.462305973147544" lon="120.9601447968012"><ele>5.0</ele><time>2026-04-17T13:46:30Z</time></trkpt><trkpt lat="14.46232646549591" lon="120.96023929426768"><ele>5.0</ele><time>2026-04-17T13:46:31Z</time></trkpt><trkpt lat="14.462344846554087" lon="120.9603202652749"><ele>5.0</ele><time>2026-04-17T13:46:32Z</time></trkpt><trkpt lat="14.462366727948996" lon="120.96039896866893"><ele>5.0</ele><time>2026-04-17T13:46:33Z</time></trkpt><trkpt lat="14.46238759600186" lon="120.96048346576293"><ele>5.0</ele><time>2026-04-17T13:46:34Z</time></trkpt><trkpt lat="14.462410494657524" lon="120.96057434373871"><ele>5.0</ele><time>2026-04-17T13:46:35Z</time></trkpt><trkpt lat="14.462423760307265" lon="120.9606527658142"><ele>5.0</ele><time>2026-04-17T13:46:36Z</time></trkpt><trkpt lat="14.462436747091044" lon="120.96073109055003"><ele>5.0</ele><time>2026-04-17T13:46:37Z</time></trkpt><trkpt lat="14.46245241289401" lon="120.96081274183312"><ele>5.0</ele><time>2026-04-17T13:46:38Z</time></trkpt><trkpt lat="14.462464652066368" lon="120.96088965763389"><ele>5.0</ele><time>2026-04-17T13:46:39Z</time></trkpt><trkpt lat="14.462473554563834" lon="120.96095623561554"><ele>5.0</ele><time>2026-04-17T13:46:40Z</time></trkpt><trkpt lat="14.462472924558755" lon="120.96102630349966"><ele>5.0</ele><time>2026-04-17T13:46:41Z</time></trkpt><trkpt lat="14.462469136066815" lon="120.96110234858385"><ele>5.0</ele><time>2026-04-17T13:46:42Z</time></trkpt><trkpt lat="14.462461270646408" lon="120.96118860304706"><ele>5.5</ele><time>2026-04-17T13:46:43Z</time></trkpt><trkpt lat="14.462458048941587" lon="120.96127577335544"><ele>6.0</ele><time>2026-04-17T13:46:44Z</time></trkpt><trkpt lat="14.46244307879956" lon="120.96136781605651"><ele>6.5</ele><time>2026-04-17T13:46:45Z</time></trkpt><trkpt lat="14.462428268674607" lon="120.9614433183385"><ele>7.0</ele><time>2026-04-17T13:46:46Z</time></trkpt><trkpt lat="14.46241084163463" lon="120.96151885293592"><ele>7.499999999999999</ele><time>2026-04-17T13:46:47Z</time></trkpt><trkpt lat="14.462388090214064" lon="120.96159516496515"><ele>8.0</ele><time>2026-04-17T13:46:48Z</time></trkpt><trkpt lat="14.462357117657955" lon="120.96166707691371"><ele>8.5</ele><time>2026-04-17T13:46:49Z</time></trkpt><trkpt lat="14.462321698255895" lon="120.9617416506589"><ele>9.0</ele><time>2026-04-17T13:46:50Z</time></trkpt><trkpt lat="14.462292681094915" lon="120.9618159037151"><ele>9.5</ele><time>2026-04-17T13:46:51Z</time></trkpt><trkpt lat="14.462267114382518" lon="120.96188924172067"><ele>10.0</ele><time>2026-04-17T13:46:52Z</time></trkpt><trkpt lat="14.462243538433468" lon="120.96197220179425"><ele>10.5</ele><time>2026-04-17T13:46:53Z</time></trkpt><trkpt lat="14.462222583924747" lon="120.96203723598899"><ele>11.0</ele><time>2026-04-17T13:46:54Z</time></trkpt><trkpt lat="14.462203274574117" lon="120.96211671141585"><ele>11.0</ele><time>2026-04-17T13:46:55Z</time></trkpt><trkpt lat="14.462175358617722" lon="120.9621817779877"><ele>11.0</ele><time>2026-04-17T13:46:56Z</time></trkpt><trkpt lat="14.462148054087669" lon="120.96225626204911"><ele>11.0</ele><time>2026-04-17T13:46:57Z</time></trkpt><trkpt lat="14.462121808458939" lon="120.9623250632656"><ele>11.0</ele><time>2026-04-17T13:46:58Z</time></trkpt><trkpt lat="14.462096553955268" lon="120.96239774454858"><ele>11.0</ele><time>2026-04-17T13:46:59Z</time></trkpt><trkpt lat="14.462068745811953" lon="120.96246246573106"><ele>11.0</ele><time>2026-04-17T13:47:00Z</time></trkpt><trkpt lat="14.462040294382524" lon="120.96253201495723"><ele>11.0</ele><time>2026-04-17T13:47:01Z</time></trkpt><trkpt lat="14.462016568295624" lon="120.96259509815374"><ele>10.4</ele><time>2026-04-17T13:47:02Z</time></trkpt><trkpt lat="14.461979268811033" lon="120.96268176732309"><ele>9.8</ele><time>2026-04-17T13:47:04Z</time></trkpt><trkpt lat="14.461919286570456" lon="120.96274968120355"><ele>9.200000000000001</ele><time>2026-04-17T13:47:06Z</time></trkpt><trkpt lat="14.461873220732414" lon="120.96280178258635"><ele>8.600000000000001</ele><time>2026-04-17T13:47:10Z</time></trkpt><trkpt lat="14.461821942339188" lon="120.96287226324719"><ele>8.0</ele><time>2026-04-17T13:47:17Z</time></trkpt><trkpt lat="14.461913807929212" lon="120.96299850183016"><ele>7.999999999999999</ele><time>2026-04-17T13:47:18Z</time></trkpt><trkpt lat="14.461946630850955" lon="120.9630781119602"><ele>8.0</ele><time>2026-04-17T13:47:20Z</time></trkpt><trkpt lat="14.461980161025977" lon="120.96314051479588"><ele>8.0</ele><time>2026-04-17T13:47:24Z</time></trkpt><trkpt lat="14.462013288673525" lon="120.96320555968464"><ele>8.0</ele><time>2026-04-17T13:47:26Z</time></trkpt><trkpt lat="14.462077719855724" lon="120.96331692261488"><ele>7.999999999999999</ele><time>2026-04-17T13:47:28Z</time></trkpt><trkpt lat="14.462112394717671" lon="120.96337351154386"><ele>8.0</ele><time>2026-04-17T13:47:29Z</time></trkpt><trkpt lat="14.462188452101744" lon="120.96348282821022"><ele>8.200000000000001</ele><time>2026-04-17T13:47:31Z</time></trkpt><trkpt lat="14.462270145330542" lon="120.96360083805656"><ele>8.4</ele><time>2026-04-17T13:47:33Z</time></trkpt><trkpt lat="14.462305958862725" lon="120.96365756124598"><ele>8.600000000000001</ele><time>2026-04-17T13:47:34Z</time></trkpt><trkpt lat="14.462349245495313" lon="120.96371983858408"><ele>8.8</ele><time>2026-04-17T13:47:35Z</time></trkpt><trkpt lat="14.462403408017453" lon="120.96379218528097"><ele>9.0</ele><time>2026-04-17T13:47:36Z</time></trkpt><trkpt lat="14.462450321775306" lon="120.96386224658251"><ele>9.0</ele><time>2026-04-17T13:47:37Z</time></trkpt><trkpt lat="14.462491859846565" lon="120.96392031687812"><ele>9.0</ele><time>2026-04-17T13:47:38Z</time></trkpt><trkpt lat="14.462540384195494" lon="120.9639993794337"><ele>9.0</ele><time>2026-04-17T13:47:40Z</time></trkpt><trkpt lat="14.46257542726649" lon="120.96406252003351"><ele>9.0</ele><time>2026-04-17T13:47:42Z</time></trkpt><trkpt lat="14.46261664966791" lon="120.964151770797"><ele>9.0</ele><time>2026-04-17T13:47:45Z</time></trkpt><trkpt lat="14.462651587870138" lon="120.96423150056987"><ele>9.0</ele><time>2026-04-17T13:47:47Z</time></trkpt><trkpt lat="14.462719703582518" lon="120.96433030260025"><ele>8.8</ele><time>2026-04-17T13:47:49Z</time></trkpt><trkpt lat="14.462780813073588" lon="120.96440352342293"><ele>8.600000000000001</ele><time>2026-04-17T13:47:51Z</time></trkpt><trkpt lat="14.462854392903774" lon="120.96451346967082"><ele>8.4</ele><time>2026-04-17T13:47:53Z</time></trkpt><trkpt lat="14.462896102876313" lon="120.96458010863851"><ele>8.200000000000001</ele><time>2026-04-17T13:47:54Z</time></trkpt><trkpt lat="14.462944718131249" lon="120.96465814712063"><ele>8.0</ele><time>2026-04-17T13:47:55Z</time></trkpt><trkpt lat="14.462984575574714" lon="120.9647356968495"><ele>8.0</ele><time>2026-04-17T13:47:56Z</time></trkpt><trkpt lat="14.463036187836565" lon="120.96481768459861"><ele>8.0</ele><time>2026-04-17T13:47:57Z</time></trkpt><trkpt lat="14.463096198121194" lon="120.96490336812613"><ele>8.0</ele><time>2026-04-17T13:47:58Z</time></trkpt><trkpt lat="14.463149344137362" lon="120.96497947850978"><ele>8.0</ele><time>2026-04-17T13:47:59Z</time></trkpt><trkpt lat="14.463213405206046" lon="120.965060149415"><ele>8.0</ele><time>2026-04-17T13:48:00Z</time></trkpt><trkpt lat="14.463269738338894" lon="120.96513188736259"><ele>8.166666666666666</ele><time>2026-04-17T13:48:01Z</time></trkpt><trkpt lat="14.463313540091201" lon="120.96518998395723"><ele>8.333333333333332</ele><time>2026-04-17T13:48:02Z</time></trkpt><trkpt lat="14.463350326668298" lon="120.96524421892018"><ele>8.5</ele><time>2026-04-17T13:48:03Z</time></trkpt><trkpt lat="14.463397799547945" lon="120.96531504375584"><ele>8.666666666666666</ele><time>2026-04-17T13:48:04Z</time></trkpt><trkpt lat="14.463448636884452" lon="120.96539495356585"><ele>8.833333333333334</ele><time>2026-04-17T13:48:05Z</time></trkpt><trkpt lat="14.463508977824205" lon="120.96548665620794"><ele>9.0</ele><time>2026-04-17T13:48:06Z</time></trkpt><trkpt lat="14.463568441795571" lon="120.96557406103489"><ele>9.0</ele><time>2026-04-17T13:48:07Z</time></trkpt><trkpt lat="14.463632613248688" lon="120.96566965712154"><ele>9.0</ele><time>2026-04-17T13:48:08Z</time></trkpt><trkpt lat="14.46369723648903" lon="120.96576885392817"><ele>9.0</ele><time>2026-04-17T13:48:09Z</time></trkpt><trkpt lat="14.463763532140538" lon="120.96586933278557"><ele>9.0</ele><time>2026-04-17T13:48:10Z</time></trkpt><trkpt lat="14.463832549260019" lon="120.9659715767566"><ele>9.0</ele><time>2026-04-17T13:48:11Z</time></trkpt><trkpt lat="14.463900189221846" lon="120.96606928921044"><ele>9.0</ele><time>2026-04-17T13:48:12Z</time></trkpt><trkpt lat="14.463962513431296" lon="120.966169410892"><ele>9.0</ele><time>2026-04-17T13:48:13Z</time></trkpt><trkpt lat="14.464017149086166" lon="120.96626092112322"><ele>9.0</ele><time>2026-04-17T13:48:14Z</time></trkpt><trkpt lat="14.464064610885943" lon="120.96634216506055"><ele>9.0</ele><time>2026-04-17T13:48:15Z</time></trkpt><trkpt lat="14.464108086674663" lon="120.96641891601175"><ele>9.0</ele><time>2026-04-17T13:48:16Z</time></trkpt><trkpt lat="14.464158976381412" lon="120.96649953599706"><ele>9.0</ele><time>2026-04-17T13:48:17Z</time></trkpt><trkpt lat="14.46421143811775" lon="120.9665834123949"><ele>9.0</ele><time>2026-04-17T13:48:18Z</time></trkpt><trkpt lat="14.464255547539924" lon="120.96665572402596"><ele>9.0</ele><time>2026-04-17T13:48:19Z</time></trkpt><trkpt lat="14.464298001147759" lon="120.96672948347596"><ele>9.0</ele><time>2026-04-17T13:48:20Z</time></trkpt><trkpt lat="14.464341173581083" lon="120.96680121755148"><ele>9.0</ele><time>2026-04-17T13:48:21Z</time></trkpt><trkpt lat="14.464385520528719" lon="120.9668725488276"><ele>8.833333333333334</ele><time>2026-04-17T13:48:22Z</time></trkpt><trkpt lat="14.464428335299434" lon="120.96693165028266"><ele>8.666666666666666</ele><time>2026-04-17T13:48:23Z</time></trkpt><trkpt lat="14.464469570624976" lon="120.96698369057067"><ele>8.5</ele><time>2026-04-17T13:48:24Z</time></trkpt><trkpt lat="14.4645502320622" lon="120.96708411711607"><ele>8.333333333333332</ele><time>2026-04-17T13:48:26Z</time></trkpt><trkpt lat="14.464601372935268" lon="120.96713694933723"><ele>8.166666666666666</ele><time>2026-04-17T13:48:27Z</time></trkpt><trkpt lat="14.464660468946422" lon="120.96719319181086"><ele>8.0</ele><time>2026-04-17T13:48:28Z</time></trkpt><trkpt lat="14.464721496736956" lon="120.96724674115725"><ele>8.4</ele><time>2026-04-17T13:48:29Z</time></trkpt><trkpt lat="14.464791815393735" lon="120.96730208680144"><ele>8.8</ele><time>2026-04-17T13:48:30Z</time></trkpt><trkpt lat="14.46486695081287" lon="120.96736075574333"><ele>9.2</ele><time>2026-04-17T13:48:31Z</time></trkpt><trkpt lat="14.464946802309056" lon="120.96741948104444"><ele>9.6</ele><time>2026-04-17T13:48:32Z</time></trkpt><trkpt lat="14.465030337228072" lon="120.96747865172465"><ele>10.0</ele><time>2026-04-17T13:48:33Z</time></trkpt><trkpt lat="14.46510910192616" lon="120.96753895985053"><ele>10.0</ele><time>2026-04-17T13:48:34Z</time></trkpt><trkpt lat="14.465182230689843" lon="120.96759366087602"><ele>10.0</ele><time>2026-04-17T13:48:35Z</time></trkpt><trkpt lat="14.465253138518587" lon="120.96764764633738"><ele>10.0</ele><time>2026-04-17T13:48:36Z</time></trkpt><trkpt lat="14.465319078937126" lon="120.9676960084532"><ele>10.0</ele><time>2026-04-17T13:48:37Z</time></trkpt><trkpt lat="14.465377085183336" lon="120.96773848371264"><ele>10.0</ele><time>2026-04-17T13:48:38Z</time></trkpt><trkpt lat="14.465472464346282" lon="120.96780339716581"><ele>10.0</ele><time>2026-04-17T13:48:40Z</time></trkpt><trkpt lat="14.465531717743257" lon="120.96784446753686"><ele>9.5</ele><time>2026-04-17T13:48:42Z</time></trkpt><trkpt lat="14.465605253509983" lon="120.96789626414993"><ele>9.0</ele><time>2026-04-17T13:50:12Z</time></trkpt><trkpt lat="14.465687552678503" lon="120.96795642446682"><ele>8.5</ele><time>2026-04-17T13:50:14Z</time></trkpt><trkpt lat="14.46576318311537" lon="120.96801930717027"><ele>8.0</ele><time>2026-04-17T13:50:16Z</time></trkpt><trkpt lat="14.465815703762821" lon="120.96805873411478"><ele>7.500000000000001</ele><time>2026-04-17T13:50:17Z</time></trkpt><trkpt lat="14.465871779119377" lon="120.96809720754523"><ele>7.0</ele><time>2026-04-17T13:50:18Z</time></trkpt><trkpt lat="14.465916404001058" lon="120.9681487412549"><ele>7.000000000000001</ele><time>2026-04-17T13:50:19Z</time></trkpt><trkpt lat="14.46598294813578" lon="120.96820945852815"><ele>7.0</ele><time>2026-04-17T13:50:20Z</time></trkpt><trkpt lat="14.46604798391145" lon="120.96826223747809"><ele>7.0</ele><time>2026-04-17T13:50:21Z</time></trkpt><trkpt lat="14.466118202422258" lon="120.96831451824949"><ele>7.0</ele><time>2026-04-17T13:50:22Z</time></trkpt><trkpt lat="14.466186511995593" lon="120.96836740986316"><ele>7.000000000000001</ele><time>2026-04-17T13:50:23Z</time></trkpt><trkpt lat="14.466263813496884" lon="120.9684315823426"><ele>7.0</ele><time>2026-04-17T13:50:24Z</time></trkpt><trkpt lat="14.466344466838528" lon="120.96849676985086"><ele>7.166666666666667</ele><time>2026-04-17T13:50:25Z</time></trkpt><trkpt lat="14.466422162226182" lon="120.96855817613182"><ele>7.333333333333334</ele><time>2026-04-17T13:50:26Z</time></trkpt><trkpt lat="14.466490302480814" lon="120.96861737954944"><ele>7.5</ele><time>2026-04-17T13:50:27Z</time></trkpt><trkpt lat="14.466544254396277" lon="120.96866878191751"><ele>7.666666666666666</ele><time>2026-04-17T13:50:28Z</time></trkpt><trkpt lat="14.46662677788213" lon="120.96873283645901"><ele>7.833333333333333</ele><time>2026-04-17T13:50:30Z</time></trkpt><trkpt lat="14.46667979563857" lon="120.9687780668551"><ele>8.0</ele><time>2026-04-17T13:50:33Z</time></trkpt><trkpt lat="14.466723250276095" lon="120.96882794613354"><ele>8.0</ele><time>2026-04-17T13:50:41Z</time></trkpt><trkpt lat="14.466965020847654" lon="120.96885410566877"><ele>8.0</ele><time>2026-04-17T13:50:52Z</time></trkpt><trkpt lat="14.46677540854212" lon="120.96883323544961"><ele>8.0</ele><time>2026-04-17T13:50:55Z</time></trkpt><trkpt lat="14.466860913978525" lon="120.96878331424013"><ele>7.999999999999999</ele><time>2026-04-17T13:54:42Z</time></trkpt><trkpt lat="14.466901132319855" lon="120.96885723279507"><ele>8.0</ele><time>2026-04-17T13:54:45Z</time></trkpt><trkpt lat="14.466888354060687" lon="120.968940021298"><ele>8.0</ele><time>2026-04-17T13:55:02Z</time></trkpt><trkpt lat="14.46689862285557" lon="120.96901036607044"><ele>8.0</ele><time>2026-04-17T13:55:06Z</time></trkpt><trkpt lat="14.46698891237053" lon="120.9690848271306"><ele>7.999999999999999</ele><time>2026-04-17T13:55:08Z</time></trkpt><trkpt lat="14.467044601093685" lon="120.96912493090915"><ele>8.0</ele><time>2026-04-17T13:55:09Z</time></trkpt><trkpt lat="14.467107359560325" lon="120.96917532105815"><ele>7.833333333333333</ele><time>2026-04-17T13:55:10Z</time></trkpt><trkpt lat="14.467169393672547" lon="120.96922551365662"><ele>7.666666666666666</ele><time>2026-04-17T13:55:11Z</time></trkpt><trkpt lat="14.467231866324836" lon="120.96927563123809"><ele>7.5</ele><time>2026-04-17T13:55:12Z</time></trkpt><trkpt lat="14.46729205360867" lon="120.96932561175554"><ele>7.333333333333334</ele><time>2026-04-17T13:55:13Z</time></trkpt><trkpt lat="14.467358191549362" lon="120.9693784677778"><ele>7.166666666666667</ele><time>2026-04-17T13:55:14Z</time></trkpt><trkpt lat="14.467414234804638" lon="120.96943112242512"><ele>7.0</ele><time>2026-04-17T13:55:15Z</time></trkpt><trkpt lat="14.467510924810957" lon="120.96947754899541"><ele>7.0</ele><time>2026-04-17T13:55:16Z</time></trkpt><trkpt lat="14.467583893780251" lon="120.96953486888432"><ele>6.999999999999999</ele><time>2026-04-17T13:55:17Z</time></trkpt><trkpt lat="14.46765897577172" lon="120.96959280035401"><ele>6.999999999999999</ele><time>2026-04-17T13:55:18Z</time></trkpt><trkpt lat="14.467732500899483" lon="120.96964674114346"><ele>7.0</ele><time>2026-04-17T13:55:19Z</time></trkpt><trkpt lat="14.467810793924562" lon="120.96969952058855"><ele>7.0</ele><time>2026-04-17T13:55:20Z</time></trkpt><trkpt lat="14.467882176082203" lon="120.96975931367945"><ele>7.000000000000001</ele><time>2026-04-17T13:55:21Z</time></trkpt><trkpt lat="14.46794905411033" lon="120.96980422592787"><ele>7.0</ele><time>2026-04-17T13:55:22Z</time></trkpt><trkpt lat="14.468017265895378" lon="120.96984587513846"><ele>7.0</ele><time>2026-04-17T13:55:23Z</time></trkpt><trkpt lat="14.46808586186049" lon="120.96988812960366"><ele>7.0</ele><time>2026-04-17T13:55:24Z</time></trkpt><trkpt lat="14.468161141908519" lon="120.96993097232944"><ele>7.000000000000001</ele><time>2026-04-17T13:55:25Z</time></trkpt><trkpt lat="14.468237138997607" lon="120.96997046343994"><ele>7.0</ele><time>2026-04-17T13:55:26Z</time></trkpt><trkpt lat="14.468318231098554" lon="120.97000123981893"><ele>7.166666666666667</ele><time>2026-04-17T13:55:27Z</time></trkpt><trkpt lat="14.468395737812765" lon="120.97002890233219"><ele>7.333333333333334</ele><time>2026-04-17T13:55:28Z</time></trkpt><trkpt lat="14.468468613708831" lon="120.97004962100748"><ele>7.5</ele><time>2026-04-17T13:55:29Z</time></trkpt><trkpt lat="14.468539575147522" lon="120.97007158728968"><ele>7.666666666666666</ele><time>2026-04-17T13:55:30Z</time></trkpt><trkpt lat="14.468611280322465" lon="120.97010032045407"><ele>7.833333333333333</ele><time>2026-04-17T13:55:31Z</time></trkpt><trkpt lat="14.46868428684985" lon="120.97012894638563"><ele>8.0</ele><time>2026-04-17T13:55:32Z</time></trkpt><trkpt lat="14.468759651204026" lon="120.97015808053973"><ele>7.999999999999999</ele><time>2026-04-17T13:55:33Z</time></trkpt><trkpt lat="14.468825692255793" lon="120.97019804731991"><ele>8.0</ele><time>2026-04-17T13:55:34Z</time></trkpt><trkpt lat="14.468882053344041" lon="120.97024375605793"><ele>8.0</ele><time>2026-04-17T13:55:35Z</time></trkpt><trkpt lat="14.468944362095172" lon="120.97029837914083"><ele>8.0</ele><time>2026-04-17T13:55:36Z</time></trkpt><trkpt lat="14.469015942762448" lon="120.97035163617058"><ele>7.999999999999999</ele><time>2026-04-17T13:55:37Z</time></trkpt><trkpt lat="14.469077598660842" lon="120.97042325653959"><ele>8.0</ele><time>2026-04-17T13:55:38Z</time></trkpt><trkpt lat="14.469143628858866" lon="120.97049620818792"><ele>8.0</ele><time>2026-04-17T13:55:39Z</time></trkpt><trkpt lat="14.469208872317907" lon="120.97057173340436"><ele>8.0</ele><time>2026-04-17T13:55:40Z</time></trkpt><trkpt lat="14.469273639461692" lon="120.97064885906177"><ele>8.0</ele><time>2026-04-17T13:55:41Z</time></trkpt><trkpt lat="14.469346488402296" lon="120.97072940135189"><ele>8.0</ele><time>2026-04-17T13:55:42Z</time></trkpt><trkpt lat="14.469420528462505" lon="120.97080980262125"><ele>8.0</ele><time>2026-04-17T13:55:43Z</time></trkpt><trkpt lat="14.469491184552949" lon="120.97088492606483"><ele>7.800000000000001</ele><time>2026-04-17T13:55:44Z</time></trkpt><trkpt lat="14.469556201858426" lon="120.97095631577717"><ele>7.6000000000000005</ele><time>2026-04-17T13:55:45Z</time></trkpt><trkpt lat="14.469623753200548" lon="120.97103490281566"><ele>7.3999999999999995</ele><time>2026-04-17T13:55:46Z</time></trkpt><trkpt lat="14.469686153879191" lon="120.97111042373717"><ele>7.199999999999999</ele><time>2026-04-17T13:55:47Z</time></trkpt><trkpt lat="14.469748748229426" lon="120.9711879650814"><ele>7.0</ele><time>2026-04-17T13:55:48Z</time></trkpt><trkpt lat="14.469813203192079" lon="120.9712677728849"><ele>7.0</ele><time>2026-04-17T13:55:49Z</time></trkpt><trkpt lat="14.46987585461307" lon="120.971342607827"><ele>6.999999999999999</ele><time>2026-04-17T13:55:50Z</time></trkpt><trkpt lat="14.469944463111602" lon="120.97141997155882"><ele>6.999999999999999</ele><time>2026-04-17T13:55:51Z</time></trkpt><trkpt lat="14.470008162418189" lon="120.97150127268479"><ele>7.0</ele><time>2026-04-17T13:55:52Z</time></trkpt><trkpt lat="14.470072408656748" lon="120.97159520585387"><ele>7.0</ele><time>2026-04-17T13:55:53Z</time></trkpt><trkpt lat="14.470142117830697" lon="120.97169021375838"><ele>7.0</ele><time>2026-04-17T13:55:54Z</time></trkpt><trkpt lat="14.470207348227602" lon="120.97177615863228"><ele>6.999999999999999</ele><time>2026-04-17T13:55:55Z</time></trkpt><trkpt lat="14.470267771643346" lon="120.97186125241838"><ele>6.999999999999999</ele><time>2026-04-17T13:55:56Z</time></trkpt><trkpt lat="14.470324444291332" lon="120.97195549686809"><ele>7.0</ele><time>2026-04-17T13:55:57Z</time></trkpt><trkpt lat="14.470372276736807" lon="120.97202635609699"><ele>7.0</ele><time>2026-04-17T13:55:58Z</time></trkpt><trkpt lat="14.470422153562522" lon="120.97210399517893"><ele>7.000000000000001</ele><time>2026-04-17T13:55:59Z</time></trkpt><trkpt lat="14.470470559411654" lon="120.97217540423439"><ele>7.0</ele><time>2026-04-17T13:56:00Z</time></trkpt><trkpt lat="14.470513834540762" lon="120.97223686422512"><ele>7.0</ele><time>2026-04-17T13:56:01Z</time></trkpt><trkpt lat="14.470553814312776" lon="120.97230173230676"><ele>7.0</ele><time>2026-04-17T13:56:02Z</time></trkpt><trkpt lat="14.470593434176775" lon="120.97236915296475"><ele>7.000000000000001</ele><time>2026-04-17T13:56:03Z</time></trkpt><trkpt lat="14.470634629513134" lon="120.97243271101277"><ele>7.0</ele><time>2026-04-17T13:56:04Z</time></trkpt><trkpt lat="14.47067541685189" lon="120.97249973461632"><ele>7.000000000000001</ele><time>2026-04-17T13:56:05Z</time></trkpt><trkpt lat="14.470717220900827" lon="120.97257016115519"><ele>7.0</ele><time>2026-04-17T13:56:06Z</time></trkpt><trkpt lat="14.470753178109584" lon="120.97263365251371"><ele>7.0</ele><time>2026-04-17T13:56:07Z</time></trkpt><trkpt lat="14.470787465072691" lon="120.97270174727593"><ele>7.0</ele><time>2026-04-17T13:56:08Z</time></trkpt><trkpt lat="14.470823099059047" lon="120.97276189090024"><ele>7.000000000000001</ele><time>2026-04-17T13:56:09Z</time></trkpt><trkpt lat="14.470857797917246" lon="120.97282320608541"><ele>7.0</ele><time>2026-04-17T13:56:10Z</time></trkpt><trkpt lat="14.4709197709304" lon="120.97293431831702"><ele>7.0</ele><time>2026-04-17T13:56:12Z</time></trkpt><trkpt lat="14.470980182135973" lon="120.97303866643071"><ele>6.999999999999999</ele><time>2026-04-17T13:56:14Z</time></trkpt><trkpt lat="14.4710380474453" lon="120.97314909467012"><ele>6.999999999999999</ele><time>2026-04-17T13:56:16Z</time></trkpt><trkpt lat="14.471083824557248" lon="120.97325104545327"><ele>7.0</ele><time>2026-04-17T13:56:18Z</time></trkpt><trkpt lat="14.47111810314608" lon="120.97333935053479"><ele>7.0</ele><time>2026-04-17T13:56:20Z</time></trkpt><trkpt lat="14.4711664575445" lon="120.97344338558688"><ele>6.8</ele><time>2026-04-17T13:56:22Z</time></trkpt><trkpt lat="14.471223718765705" lon="120.97355045731489"><ele>6.6</ele><time>2026-04-17T13:56:24Z</time></trkpt><trkpt lat="14.471259501359315" lon="120.9736293994031"><ele>6.3999999999999995</ele><time>2026-04-17T13:56:26Z</time></trkpt><trkpt lat="14.471303038242207" lon="120.97370583211013"><ele>6.199999999999999</ele><time>2026-04-17T13:56:28Z</time></trkpt><trkpt lat="14.471346064871561" lon="120.97380409611569"><ele>6.0</ele><time>2026-04-17T13:56:30Z</time></trkpt><trkpt lat="14.471372613589393" lon="120.97386321402335"><ele>6.0</ele><time>2026-04-17T13:56:31Z</time></trkpt><trkpt lat="14.471421678279835" lon="120.97395930809157"><ele>6.0</ele><time>2026-04-17T13:56:33Z</time></trkpt><trkpt lat="14.4714560514915" lon="120.97402273791701"><ele>6.0</ele><time>2026-04-17T13:56:35Z</time></trkpt><trkpt lat="14.471501391319377" lon="120.9741149968628"><ele>6.0</ele><time>2026-04-17T13:56:37Z</time></trkpt><trkpt lat="14.471548034551159" lon="120.97421325403614"><ele>6.0</ele><time>2026-04-17T13:56:39Z</time></trkpt><trkpt lat="14.47158784511512" lon="120.97427851904638"><ele>6.199999999999999</ele><time>2026-04-17T13:56:40Z</time></trkpt><trkpt lat="14.471628895395714" lon="120.97434044528498"><ele>6.3999999999999995</ele><time>2026-04-17T13:56:41Z</time></trkpt><trkpt lat="14.471683429428657" lon="120.97442527511785"><ele>6.6</ele><time>2026-04-17T13:56:43Z</time></trkpt><trkpt lat="14.471736468325794" lon="120.97452725833551"><ele>6.8</ele><time>2026-04-17T13:56:45Z</time></trkpt><trkpt lat="14.471792250567828" lon="120.97463514524455"><ele>7.0</ele><time>2026-04-17T13:56:47Z</time></trkpt><trkpt lat="14.47184295908886" lon="120.97474617327771"><ele>7.0</ele><time>2026-04-17T13:56:49Z</time></trkpt><trkpt lat="14.471885514424512" lon="120.97483572037092"><ele>6.999999999999999</ele><time>2026-04-17T13:56:51Z</time></trkpt><trkpt lat="14.471933751616271" lon="120.97490785951264"><ele>6.999999999999999</ele><time>2026-04-17T13:56:55Z</time></trkpt><trkpt lat="14.471989339929067" lon="120.97497434112785"><ele>7.0</ele><time>2026-04-17T13:56:57Z</time></trkpt><trkpt lat="14.472056173549834" lon="120.9750847796797"><ele>7.0</ele><time>2026-04-17T13:56:59Z</time></trkpt><trkpt lat="14.472095081984882" lon="120.97514390213989"><ele>7.000000000000001</ele><time>2026-04-17T13:57:00Z</time></trkpt><trkpt lat="14.472137525597267" lon="120.97521226679785"><ele>7.0</ele><time>2026-04-17T13:57:01Z</time></trkpt><trkpt lat="14.47217841623027" lon="120.975277493391"><ele>7.0</ele><time>2026-04-17T13:57:02Z</time></trkpt><trkpt lat="14.472230470573587" lon="120.97535043659282"><ele>7.0</ele><time>2026-04-17T13:57:03Z</time></trkpt><trkpt lat="14.472276687118011" lon="120.97541898490866"><ele>7.000000000000001</ele><time>2026-04-17T13:57:04Z</time></trkpt><trkpt lat="14.472323512751231" lon="120.97548884801039"><ele>7.0</ele><time>2026-04-17T13:57:05Z</time></trkpt><trkpt lat="14.472359941487113" lon="120.97554436975602"><ele>7.000000000000001</ele><time>2026-04-17T13:57:06Z</time></trkpt><trkpt lat="14.472397893710738" lon="120.97559731359986"><ele>7.0</ele><time>2026-04-17T13:57:07Z</time></trkpt><trkpt lat="14.472466955423636" lon="120.97568501438468"><ele>7.0</ele><time>2026-04-17T13:57:09Z</time></trkpt><trkpt lat="14.472508428619006" lon="120.97573548158698"><ele>7.0</ele><time>2026-04-17T13:57:10Z</time></trkpt><trkpt lat="14.472584576135603" lon="120.97583023052275"><ele>7.000000000000001</ele><time>2026-04-17T13:57:12Z</time></trkpt><trkpt lat="14.472622319104687" lon="120.9758866059437"><ele>7.0</ele><time>2026-04-17T13:57:13Z</time></trkpt><trkpt lat="14.472705922086341" lon="120.97599465978286"><ele>7.0</ele><time>2026-04-17T13:57:15Z</time></trkpt><trkpt lat="14.472752388258657" lon="120.97605479789515"><ele>7.0</ele><time>2026-04-17T13:57:16Z</time></trkpt><trkpt lat="14.472792020230507" lon="120.9761054206086"><ele>7.0</ele><time>2026-04-17T13:57:17Z</time></trkpt><trkpt lat="14.47283611929864" lon="120.97615979872029"><ele>7.0</ele><time>2026-04-17T13:57:18Z</time></trkpt><trkpt lat="14.472877449691529" lon="120.97621252501804"><ele>7.0</ele><time>2026-04-17T13:57:19Z</time></trkpt><trkpt lat="14.472925726760632" lon="120.97627518320502"><ele>7.0</ele><time>2026-04-17T13:57:20Z</time></trkpt><trkpt lat="14.47297178989798" lon="120.97633319511849"><ele>7.0</ele><time>2026-04-17T13:57:21Z</time></trkpt><trkpt lat="14.473042949145631" lon="120.97642771890057"><ele>7.0</ele><time>2026-04-17T13:57:23Z</time></trkpt><trkpt lat="14.473109307759202" lon="120.9765164887138"><ele>6.999999999999999</ele><time>2026-04-17T13:57:25Z</time></trkpt><trkpt lat="14.473178256493243" lon="120.97660165299874"><ele>6.999999999999999</ele><time>2026-04-17T13:57:27Z</time></trkpt><trkpt lat="14.47324388560741" lon="120.9766809888081"><ele>7.0</ele><time>2026-04-17T13:57:29Z</time></trkpt><trkpt lat="14.473300348501478" lon="120.97675741250067"><ele>7.0</ele><time>2026-04-17T13:57:31Z</time></trkpt><trkpt lat="14.473348702507382" lon="120.9768295244834"><ele>6.8</ele><time>2026-04-17T13:57:33Z</time></trkpt><trkpt lat="14.473403891985802" lon="120.97691425852597"><ele>6.6</ele><time>2026-04-17T13:57:35Z</time></trkpt><trkpt lat="14.473467865399051" lon="120.97701675139041"><ele>6.3999999999999995</ele><time>2026-04-17T13:57:37Z</time></trkpt><trkpt lat="14.473515050730176" lon="120.9770975548883"><ele>6.199999999999999</ele><time>2026-04-17T13:57:39Z</time></trkpt><trkpt lat="14.473563269534969" lon="120.97717636546754"><ele>6.0</ele><time>2026-04-17T13:57:42Z</time></trkpt><trkpt lat="14.473587378592763" lon="120.97723652321997"><ele>6.0</ele><time>2026-04-17T13:57:46Z</time></trkpt><trkpt lat="14.473628574764103" lon="120.97729991588882"><ele>6.0</ele><time>2026-04-17T13:57:49Z</time></trkpt><trkpt lat="14.473668639124318" lon="120.97736014997216"><ele>6.0</ele><time>2026-04-17T13:57:53Z</time></trkpt><trkpt lat="14.473711527455547" lon="120.97742745398956"><ele>6.0</ele><time>2026-04-17T13:57:56Z</time></trkpt><trkpt lat="14.473735724843324" lon="120.97749712552088"><ele>6.0</ele><time>2026-04-17T13:58:00Z</time></trkpt><trkpt lat="14.473781536312803" lon="120.97756598663558"><ele>6.0</ele><time>2026-04-17T13:58:03Z</time></trkpt><trkpt lat="14.47383499301493" lon="120.97765035238498"><ele>6.0</ele><time>2026-04-17T13:58:05Z</time></trkpt><trkpt lat="14.47388396265735" lon="120.97773665017144"><ele>6.0</ele><time>2026-04-17T13:58:08Z</time></trkpt><trkpt lat="14.473937323646181" lon="120.97783090138695"><ele>6.0</ele><time>2026-04-17T13:58:10Z</time></trkpt><trkpt lat="14.473983056743997" lon="120.97794866801048"><ele>6.0</ele><time>2026-04-17T13:58:12Z</time></trkpt><trkpt lat="14.473946398266156" lon="120.97811293560768"><ele>6.0</ele><time>2026-04-17T13:58:14Z</time></trkpt><trkpt lat="14.473903511331189" lon="120.97819046620123"><ele>6.0</ele><time>2026-04-17T13:58:15Z</time></trkpt><trkpt lat="14.473860343393092" lon="120.9782669331971"><ele>6.0</ele><time>2026-04-17T13:58:16Z</time></trkpt><trkpt lat="14.473820736877569" lon="120.9783431811621"><ele>6.0</ele><time>2026-04-17T13:58:17Z</time></trkpt><trkpt lat="14.473787899299905" lon="120.97841956425522"><ele>6.0</ele><time>2026-04-17T13:58:18Z</time></trkpt><trkpt lat="14.473762339833893" lon="120.97848641214271"><ele>6.0</ele><time>2026-04-17T13:58:19Z</time></trkpt><trkpt lat="14.47371961928859" lon="120.97858771214611"><ele>6.5</ele><time>2026-04-17T13:58:21Z</time></trkpt><trkpt lat="14.47368811983379" lon="120.97869590396115"><ele>7.0</ele><time>2026-04-17T13:58:23Z</time></trkpt><trkpt lat="14.473664336011739" lon="120.97875885658374"><ele>7.5</ele><time>2026-04-17T13:58:24Z</time></trkpt><trkpt lat="14.473649942323899" lon="120.97882789382275"><ele>8.0</ele><time>2026-04-17T13:58:25Z</time></trkpt><trkpt lat="14.473667823617046" lon="120.97890928487001"><ele>8.5</ele><time>2026-04-17T13:58:26Z</time></trkpt><trkpt lat="14.473664514732615" lon="120.97898265187044"><ele>9.0</ele><time>2026-04-17T13:58:27Z</time></trkpt><trkpt lat="14.473690757479973" lon="120.97906802934983"><ele>9.0</ele><time>2026-04-17T13:58:28Z</time></trkpt><trkpt lat="14.473705410935402" lon="120.9791820332108"><ele>9.0</ele><time>2026-04-17T13:58:29Z</time></trkpt><trkpt lat="14.473722158927774" lon="120.97931233240585"><ele>9.0</ele><time>2026-04-17T13:58:30Z</time></trkpt><trkpt lat="14.47370191829449" lon="120.97945301739253"><ele>9.0</ele><time>2026-04-17T13:58:31Z</time></trkpt><trkpt lat="14.473719630161776" lon="120.97957522108237"><ele>8.4</ele><time>2026-04-17T13:58:32Z</time></trkpt><trkpt lat="14.473739197792103" lon="120.97969150004292"><ele>7.800000000000001</ele><time>2026-04-17T13:58:33Z</time></trkpt><trkpt lat="14.47375329328955" lon="120.9797961770441"><ele>7.199999999999999</ele><time>2026-04-17T13:58:34Z</time></trkpt><trkpt lat="14.473768971170946" lon="120.97990004907821"><ele>6.6</ele><time>2026-04-17T13:58:35Z</time></trkpt><trkpt lat="14.473808459687998" lon="120.97999967312153"><ele>6.0</ele><time>2026-04-17T13:58:36Z</time></trkpt><trkpt lat="14.473827500680365" lon="120.98010183203314"><ele>5.8</ele><time>2026-04-17T13:58:37Z</time></trkpt><trkpt lat="14.473853694652718" lon="120.98019633659928"><ele>5.6</ele><time>2026-04-17T13:58:38Z</time></trkpt><trkpt lat="14.473885639560354" lon="120.98027742950254"><ele>5.4</ele><time>2026-04-17T13:58:39Z</time></trkpt><trkpt lat="14.47390544877711" lon="120.98037855963824"><ele>5.2</ele><time>2026-04-17T13:58:40Z</time></trkpt><trkpt lat="14.473958446458607" lon="120.9804688952437"><ele>5.0</ele><time>2026-04-17T13:58:41Z</time></trkpt><trkpt lat="14.474023118188857" lon="120.98056733141313"><ele>5.0</ele><time>2026-04-17T13:58:42Z</time></trkpt><trkpt lat="14.474080660111133" lon="120.98067203031472"><ele>5.0</ele><time>2026-04-17T13:58:43Z</time></trkpt><trkpt lat="14.474135485590317" lon="120.98077846059641"><ele>5.0</ele><time>2026-04-17T13:58:44Z</time></trkpt><trkpt lat="14.47419885254093" lon="120.98088677858375"><ele>5.0</ele><time>2026-04-17T13:58:45Z</time></trkpt><trkpt lat="14.474262718653335" lon="120.98099197476496"><ele>5.666666666666667</ele><time>2026-04-17T13:58:46Z</time></trkpt><trkpt lat="14.47432720955129" lon="120.98108482751421"><ele>6.333333333333334</ele><time>2026-04-17T13:58:47Z</time></trkpt><trkpt lat="14.474384754436365" lon="120.98116758264715"><ele>7.0</ele><time>2026-04-17T13:58:48Z</time></trkpt><trkpt lat="14.474435581565137" lon="120.98123658058869"><ele>7.666666666666667</ele><time>2026-04-17T13:58:49Z</time></trkpt><trkpt lat="14.474482417787419" lon="120.98129269765258"><ele>8.333333333333334</ele><time>2026-04-17T13:58:50Z</time></trkpt><trkpt lat="14.474526077085416" lon="120.98134375852713"><ele>9.0</ele><time>2026-04-17T13:58:51Z</time></trkpt><trkpt lat="14.47457146914746" lon="120.98139618925056"><ele>8.8</ele><time>2026-04-17T13:58:52Z</time></trkpt><trkpt lat="14.474609138919176" lon="120.98145003839855"><ele>8.600000000000001</ele><time>2026-04-17T13:58:53Z</time></trkpt><trkpt lat="14.474669075464444" lon="120.98151063461991"><ele>8.4</ele><time>2026-04-17T13:58:54Z</time></trkpt><trkpt lat="14.474738122082357" lon="120.9815768343711"><ele>8.200000000000001</ele><time>2026-04-17T13:58:55Z</time></trkpt><trkpt lat="14.474814512878554" lon="120.98164969932783"><ele>8.0</ele><time>2026-04-17T13:58:56Z</time></trkpt><trkpt lat="14.474900656842296" lon="120.98173600498107"><ele>8.0</ele><time>2026-04-17T13:58:57Z</time></trkpt><trkpt lat="14.474990039715555" lon="120.98183107883193"><ele>8.0</ele><time>2026-04-17T13:58:58Z</time></trkpt><trkpt lat="14.475105871858322" lon="120.98191333605524"><ele>8.0</ele><time>2026-04-17T13:58:59Z</time></trkpt><trkpt lat="14.475204986809688" lon="120.98201530559577"><ele>8.0</ele><time>2026-04-17T13:59:00Z</time></trkpt><trkpt lat="14.475312693954448" lon="120.98212596345064"><ele>8.0</ele><time>2026-04-17T13:59:01Z</time></trkpt><trkpt lat="14.47542715856287" lon="120.98224327399821"><ele>8.0</ele><time>2026-04-17T13:59:02Z</time></trkpt><trkpt lat="14.47554447359269" lon="120.98236654789352"><ele>8.0</ele><time>2026-04-17T13:59:03Z</time></trkpt><trkpt lat="14.475666050215102" lon="120.98249465393384"><ele>7.333333333333333</ele><time>2026-04-17T13:59:04Z</time></trkpt><trkpt lat="14.475780789855971" lon="120.98263842985854"><ele>6.666666666666666</ele><time>2026-04-17T13:59:05Z</time></trkpt><trkpt lat="14.475908541235905" lon="120.98276760819574"><ele>6.0</ele><time>2026-04-17T13:59:06Z</time></trkpt><trkpt lat="14.476032829093299" lon="120.98289380793918"><ele>6.0</ele><time>2026-04-17T13:59:07Z</time></trkpt><trkpt lat="14.476161112156307" lon="120.98302409126055"><ele>6.0</ele><time>2026-04-17T13:59:08Z</time></trkpt><trkpt lat="14.476285212149707" lon="120.98314839135764"><ele>6.0</ele><time>2026-04-17T13:59:09Z</time></trkpt><trkpt lat="14.476405869174782" lon="120.98327201445757"><ele>6.75</ele><time>2026-04-17T13:59:10Z</time></trkpt><trkpt lat="14.476512357696189" lon="120.98338581555105"><ele>7.5</ele><time>2026-04-17T13:59:11Z</time></trkpt><trkpt lat="14.476607324729438" lon="120.9834853210808"><ele>8.25</ele><time>2026-04-17T13:59:12Z</time></trkpt><trkpt lat="14.476703035890433" lon="120.98358677903467"><ele>9.0</ele><time>2026-04-17T13:59:13Z</time></trkpt><trkpt lat="14.476812105187705" lon="120.98368651838092"><ele>9.0</ele><time>2026-04-17T13:59:14Z</time></trkpt><trkpt lat="14.476921709200155" lon="120.98379559401337"><ele>9.0</ele><time>2026-04-17T13:59:15Z</time></trkpt><trkpt lat="14.477038348691234" lon="120.98390597529747"><ele>9.0</ele><time>2026-04-17T13:59:16Z</time></trkpt><trkpt lat="14.477156021231602" lon="120.9840232191871"><ele>6.666666666666667</ele><time>2026-04-17T13:59:17Z</time></trkpt><trkpt lat="14.477272723167776" lon="120.984137758258"><ele>4.333333333333333</ele><time>2026-04-17T13:59:18Z</time></trkpt><trkpt lat="14.477394425739098" lon="120.98425706906441"><ele>2.0</ele><time>2026-04-17T13:59:19Z</time></trkpt><trkpt lat="14.47751820541048" lon="120.98438175854237"><ele>2.0</ele><time>2026-04-17T13:59:20Z</time></trkpt><trkpt lat="14.477641912950514" lon="120.98450937950876"><ele>2.0</ele><time>2026-04-17T13:59:21Z</time></trkpt><trkpt lat="14.47776806860129" lon="120.98464020039057"><ele>2.0</ele><time>2026-04-17T13:59:22Z</time></trkpt><trkpt lat="14.477898841140513" lon="120.9847741150332"><ele>3.666666666666667</ele><time>2026-04-17T13:59:23Z</time></trkpt><trkpt lat="14.47802417060091" lon="120.98490590847179"><ele>5.333333333333334</ele><time>2026-04-17T13:59:24Z</time></trkpt><trkpt lat="14.478153537821214" lon="120.98503780785101"><ele>7.0</ele><time>2026-04-17T13:59:25Z</time></trkpt><trkpt lat="14.478279022619658" lon="120.9851676624328"><ele>8.333333333333334</ele><time>2026-04-17T13:59:26Z</time></trkpt><trkpt lat="14.478398532695584" lon="120.98529199755482"><ele>9.666666666666666</ele><time>2026-04-17T13:59:27Z</time></trkpt><trkpt lat="14.478507390906797" lon="120.98540633742616"><ele>11.0</ele><time>2026-04-17T13:59:28.001Z</time></trkpt><trkpt lat="14.478612866679397" lon="120.98551240033328"><ele>11.0</ele><time>2026-04-17T13:59:29.001Z</time></trkpt><trkpt lat="14.4787070158752" lon="120.98560997645255"><ele>11.0</ele><time>2026-04-17T13:59:30.001Z</time></trkpt><trkpt lat="14.478780977712416" lon="120.98568905252274"><ele>11.0</ele><time>2026-04-17T13:59:31.001Z</time></trkpt><trkpt lat="14.478833506473181" lon="120.98574258171858"><ele>11.0</ele><time>2026-04-17T13:59:32.001Z</time></trkpt><trkpt lat="14.478892317029034" lon="120.98580066401604"><ele>11.0</ele><time>2026-04-17T13:59:33.001Z</time></trkpt><trkpt lat="14.478956291975312" lon="120.9858677297601"><ele>8.75</ele><time>2026-04-17T13:59:34.001Z</time></trkpt><trkpt lat="14.479032048353503" lon="120.98594650547363"><ele>6.5</ele><time>2026-04-17T13:59:35.001Z</time></trkpt><trkpt lat="14.479117457831855" lon="120.98603314675987"><ele>4.25</ele><time>2026-04-17T13:59:36.001Z</time></trkpt><trkpt lat="14.479202817457509" lon="120.98612080174378"><ele>2.0</ele><time>2026-04-17T13:59:37.001Z</time></trkpt><trkpt lat="14.479292591440776" lon="120.9862133295568"><ele>2.0</ele><time>2026-04-17T13:59:38.001Z</time></trkpt><trkpt lat="14.479386634090382" lon="120.98630772418407"><ele>2.0</ele><time>2026-04-17T13:59:39.001Z</time></trkpt><trkpt lat="14.479482566594609" lon="120.98640887383304"><ele>2.0</ele><time>2026-04-17T13:59:40.001Z</time></trkpt><trkpt lat="14.47958117202805" lon="120.98651335483152"><ele>2.0</ele><time>2026-04-17T13:59:41.001Z</time></trkpt><trkpt lat="14.479685757070952" lon="120.98661620513495"><ele>2.5</ele><time>2026-04-17T13:59:42.001Z</time></trkpt><trkpt lat="14.479793033530658" lon="120.98672136491872"><ele>3.0</ele><time>2026-04-17T13:59:43.001Z</time></trkpt><trkpt lat="14.479898577099759" lon="120.98683022171221"><ele>3.5</ele><time>2026-04-17T13:59:44.001Z</time></trkpt><trkpt lat="14.480004678362121" lon="120.98693952232304"><ele>4.0</ele><time>2026-04-17T13:59:45.001Z</time></trkpt><trkpt lat="14.480102545735887" lon="120.98703814637155"><ele>4.0</ele><time>2026-04-17T13:59:46.001Z</time></trkpt><trkpt lat="14.480184675852163" lon="120.98712155780814"><ele>4.0</ele><time>2026-04-17T13:59:47.001Z</time></trkpt><trkpt lat="14.480251520856092" lon="120.9871851849193"><ele>4.0</ele><time>2026-04-17T13:59:48.001Z</time></trkpt><trkpt lat="14.480325884981223" lon="120.98724465995934"><ele>4.0</ele><time>2026-04-17T13:59:49.001Z</time></trkpt><trkpt lat="14.480404692444015" lon="120.98729939139838"><ele>4.0</ele><time>2026-04-17T13:59:50.001Z</time></trkpt><trkpt lat="14.480487862021674" lon="120.98735305757305"><ele>3.8000000000000003</ele><time>2026-04-17T13:59:51.001Z</time></trkpt><trkpt lat="14.48058186533259" lon="120.9874101691065"><ele>3.6000000000000005</ele><time>2026-04-17T13:59:52.001Z</time></trkpt><trkpt lat="14.48067164914116" lon="120.98746733630088"><ele>3.4</ele><time>2026-04-17T13:59:53.001Z</time></trkpt><trkpt lat="14.480772496675453" lon="120.98751729880938"><ele>3.2</ele><time>2026-04-17T13:59:54.001Z</time></trkpt><trkpt lat="14.480865098260725" lon="120.98756532257491"><ele>3.0</ele><time>2026-04-17T13:59:55.001Z</time></trkpt><trkpt lat="14.480969880469194" lon="120.98761655104732"><ele>3.0</ele><time>2026-04-17T13:59:56.001Z</time></trkpt><trkpt lat="14.481078855179582" lon="120.98766938051571"><ele>3.0</ele><time>2026-04-17T13:59:57.001Z</time></trkpt><trkpt lat="14.481186455223954" lon="120.98772259044424"><ele>3.0</ele><time>2026-04-17T13:59:58.001Z</time></trkpt><trkpt lat="14.481294283474295" lon="120.98777711892379"><ele>3.0</ele><time>2026-04-17T13:59:59.001Z</time></trkpt><trkpt lat="14.481411413341855" lon="120.98784116470412"><ele>1.25</ele><time>2026-04-17T14:00:00Z</time></trkpt><trkpt lat="14.481533360290431" lon="120.98790561211096"><ele>-0.5</ele><time>2026-04-17T14:00:01Z</time></trkpt><trkpt lat="14.481658732280389" lon="120.98797042805582"><ele>-2.25</ele><time>2026-04-17T14:00:02Z</time></trkpt><trkpt lat="14.481788620906192" lon="120.98803653928292"><ele>-4.0</ele><time>2026-04-17T14:00:03Z</time></trkpt><trkpt lat="14.481919329789411" lon="120.98810097474306"><ele>-4.0</ele><time>2026-04-17T14:00:04Z</time></trkpt><trkpt lat="14.482038632876794" lon="120.98816121328798"><ele>-4.0</ele><time>2026-04-17T14:00:05Z</time></trkpt><trkpt lat="14.482146597532187" lon="120.98821629474989"><ele>-4.0</ele><time>2026-04-17T14:00:06Z</time></trkpt><trkpt lat="14.482250932907402" lon="120.9882712645108"><ele>-4.0</ele><time>2026-04-17T14:00:07Z</time></trkpt><trkpt lat="14.482361756182668" lon="120.98832729927183"><ele>-2.6</ele><time>2026-04-17T14:00:08Z</time></trkpt><trkpt lat="14.482463155034315" lon="120.98837812279443"><ele>-1.2000000000000004</ele><time>2026-04-17T14:00:09Z</time></trkpt><trkpt lat="14.482556282279516" lon="120.98842433448456"><ele>0.19999999999999973</ele><time>2026-04-17T14:00:10Z</time></trkpt><trkpt lat="14.482649844946232" lon="120.98847361604298"><ele>1.5999999999999999</ele><time>2026-04-17T14:00:11Z</time></trkpt><trkpt lat="14.482727606762829" lon="120.98853172405167"><ele>3.0</ele><time>2026-04-17T14:00:12Z</time></trkpt><trkpt lat="14.482795027330718" lon="120.98860434861096"><ele>3.0</ele><time>2026-04-17T14:00:13Z</time></trkpt><trkpt lat="14.482859936607444" lon="120.9886868165136"><ele>3.0</ele><time>2026-04-17T14:00:14Z</time></trkpt><trkpt lat="14.482910761917921" lon="120.98877455978624"><ele>3.0</ele><time>2026-04-17T14:00:15Z</time></trkpt><trkpt lat="14.482956461613975" lon="120.98886045002854"><ele>3.0</ele><time>2026-04-17T14:00:16Z</time></trkpt><trkpt lat="14.482991468944558" lon="120.98893561860892"><ele>3.0</ele><time>2026-04-17T14:00:17Z</time></trkpt><trkpt lat="14.48301969599164" lon="120.98900673719585"><ele>3.0</ele><time>2026-04-17T14:00:18Z</time></trkpt><trkpt lat="14.48307878893824" lon="120.9891139134328"><ele>3.0</ele><time>2026-04-17T14:00:19Z</time></trkpt><trkpt lat="14.483131988245841" lon="120.98921384430292"><ele>3.0</ele><time>2026-04-17T14:00:20Z</time></trkpt><trkpt lat="14.483187024969743" lon="120.98931584075584"><ele>3.0</ele><time>2026-04-17T14:00:21Z</time></trkpt><trkpt lat="14.483237734283815" lon="120.98939212919849"><ele>3.0</ele><time>2026-04-17T14:00:22Z</time></trkpt><trkpt lat="14.483273983847699" lon="120.98948746709601"><ele>3.0</ele><time>2026-04-17T14:00:23Z</time></trkpt><trkpt lat="14.483324430218602" lon="120.98957590034325"><ele>3.0</ele><time>2026-04-17T14:00:24Z</time></trkpt><trkpt lat="14.483367953817773" lon="120.9896579486873"><ele>3.0</ele><time>2026-04-17T14:00:25Z</time></trkpt><trkpt lat="14.483417508573371" lon="120.98975360982405"><ele>3.0</ele><time>2026-04-17T14:00:26Z</time></trkpt><trkpt lat="14.483442566483676" lon="120.98984554210372"><ele>3.0</ele><time>2026-04-17T14:00:27Z</time></trkpt><trkpt lat="14.483460891356389" lon="120.98994253696245"><ele>4.0</ele><time>2026-04-17T14:00:28Z</time></trkpt><trkpt lat="14.483466418931698" lon="120.99005081138797"><ele>5.0</ele><time>2026-04-17T14:00:29Z</time></trkpt><trkpt lat="14.483442003267724" lon="120.99016333043562"><ele>6.0</ele><time>2026-04-17T14:00:30Z</time></trkpt><trkpt lat="14.48339940649819" lon="120.99028615661814"><ele>7.0</ele><time>2026-04-17T14:00:31Z</time></trkpt><trkpt lat="14.483334311217913" lon="120.99040856369967"><ele>7.0</ele><time>2026-04-17T14:00:32Z</time></trkpt><trkpt lat="14.48326606301246" lon="120.9905391216386"><ele>7.0</ele><time>2026-04-17T14:00:33Z</time></trkpt><trkpt lat="14.483210533585027" lon="120.99068418691755"><ele>7.0</ele><time>2026-04-17T14:00:34Z</time></trkpt><trkpt lat="14.483171740304835" lon="120.99083977052328"><ele>7.0</ele><time>2026-04-17T14:00:35Z</time></trkpt><trkpt lat="14.483132474271155" lon="120.99098399638598"><ele>7.0</ele><time>2026-04-17T14:00:36Z</time></trkpt><trkpt lat="14.483104063284694" lon="120.9911178685797"><ele>7.0</ele><time>2026-04-17T14:00:37Z</time></trkpt><trkpt lat="14.483095495045132" lon="120.99126256294846"><ele>7.0</ele><time>2026-04-17T14:00:38Z</time></trkpt><trkpt lat="14.483112274037987" lon="120.99140518420191"><ele>7.0</ele><time>2026-04-17T14:00:39Z</time></trkpt><trkpt lat="14.483151247921576" lon="120.99154671705014"><ele>7.0</ele><time>2026-04-17T14:00:40Z</time></trkpt><trkpt lat="14.48320145157323" lon="120.99168911084962"><ele>7.0</ele><time>2026-04-17T14:00:41Z</time></trkpt><trkpt lat="14.483258378407852" lon="120.99181865228441"><ele>7.0</ele><time>2026-04-17T14:00:42Z</time></trkpt><trkpt lat="14.48330986070922" lon="120.99194792672387"><ele>6.0</ele><time>2026-04-17T14:00:43Z</time></trkpt><trkpt lat="14.483348992810205" lon="120.99205889556819"><ele>4.999999999999999</ele><time>2026-04-17T14:00:44Z</time></trkpt><trkpt lat="14.483385122007938" lon="120.99216169584363"><ele>4.0</ele><time>2026-04-17T14:00:45Z</time></trkpt><trkpt lat="14.483425465153404" lon="120.99225398449694"><ele>3.0</ele><time>2026-04-17T14:00:46Z</time></trkpt><trkpt lat="14.483471720278397" lon="120.99233161612547"><ele>2.0</ele><time>2026-04-17T14:00:47Z</time></trkpt><trkpt lat="14.483520300278533" lon="120.99239661278787"><ele>2.0</ele><time>2026-04-17T14:00:48Z</time></trkpt><trkpt lat="14.483567880136558" lon="120.99246362467669"><ele>2.0</ele><time>2026-04-17T14:00:49Z</time></trkpt><trkpt lat="14.48366917927936" lon="120.99255156892734"><ele>2.0</ele><time>2026-04-17T14:00:50Z</time></trkpt><trkpt lat="14.483783995848759" lon="120.99260053446976"><ele>2.0</ele><time>2026-04-17T14:00:51Z</time></trkpt><trkpt lat="14.483907086287427" lon="120.99266052156317"><ele>3.0</ele><time>2026-04-17T14:00:52Z</time></trkpt><trkpt lat="14.484026101216529" lon="120.99272465975957"><ele>4.0</ele><time>2026-04-17T14:00:53Z</time></trkpt><trkpt lat="14.484150508876981" lon="120.99279835307986"><ele>5.0</ele><time>2026-04-17T14:00:54Z</time></trkpt><trkpt lat="14.484273942134035" lon="120.9928703767351"><ele>6.0</ele><time>2026-04-17T14:00:55Z</time></trkpt><trkpt lat="14.484400474521726" lon="120.99294688235805"><ele>6.0</ele><time>2026-04-17T14:00:56Z</time></trkpt><trkpt lat="14.484526309999563" lon="120.99302733139794"><ele>6.0</ele><time>2026-04-17T14:00:57Z</time></trkpt><trkpt lat="14.484618538105492" lon="120.9931645948036"><ele>6.0</ele><time>2026-04-17T14:00:58Z</time></trkpt><trkpt lat="14.484778830402382" lon="120.99319939326735"><ele>6.333333333333334</ele><time>2026-04-17T14:00:59Z</time></trkpt><trkpt lat="14.484912709430564" lon="120.99328526569862"><ele>6.666666666666667</ele><time>2026-04-17T14:01:00Z</time></trkpt><trkpt lat="14.485049697049208" lon="120.99336960242904"><ele>7.0</ele><time>2026-04-17T14:01:01Z</time></trkpt><trkpt lat="14.48517821339884" lon="120.9934637353052"><ele>6.0</ele><time>2026-04-17T14:01:02Z</time></trkpt><trkpt lat="14.485297777743721" lon="120.9935648708503"><ele>5.0</ele><time>2026-04-17T14:01:03Z</time></trkpt><trkpt lat="14.48541667470804" lon="120.99367252110235"><ele>4.0</ele><time>2026-04-17T14:01:04Z</time></trkpt><trkpt lat="14.485535452022749" lon="120.99378741810335"><ele>4.0</ele><time>2026-04-17T14:01:05Z</time></trkpt><trkpt lat="14.485644719341474" lon="120.99390638461657"><ele>4.0</ele><time>2026-04-17T14:01:06Z</time></trkpt><trkpt lat="14.485751214196114" lon="120.99402060065627"><ele>4.0</ele><time>2026-04-17T14:01:07Z</time></trkpt><trkpt lat="14.4858512191501" lon="120.99413603902785"><ele>4.0</ele><time>2026-04-17T14:01:08Z</time></trkpt><trkpt lat="14.485953103296335" lon="120.99426275116532"><ele>4.0</ele><time>2026-04-17T14:01:09Z</time></trkpt><trkpt lat="14.48604507736094" lon="120.99438305025656"><ele>4.0</ele><time>2026-04-17T14:01:10Z</time></trkpt><trkpt lat="14.486122173329946" lon="120.99450787066012"><ele>4.0</ele><time>2026-04-17T14:01:11Z</time></trkpt><trkpt lat="14.486159869954966" lon="120.99462598813093"><ele>4.0</ele><time>2026-04-17T14:01:12Z</time></trkpt><trkpt lat="14.486200453487244" lon="120.99475218268408"><ele>4.0</ele><time>2026-04-17T14:01:13Z</time></trkpt><trkpt lat="14.48622296592922" lon="120.99487061779725"><ele>4.0</ele><time>2026-04-17T14:01:14Z</time></trkpt><trkpt lat="14.486238626713167" lon="120.99499869519562"><ele>4.25</ele><time>2026-04-17T14:01:15Z</time></trkpt><trkpt lat="14.486242687536727" lon="120.99512741265096"><ele>4.5</ele><time>2026-04-17T14:01:16Z</time></trkpt><trkpt lat="14.48623325842341" lon="120.99524420202962"><ele>4.75</ele><time>2026-04-17T14:01:17Z</time></trkpt><trkpt lat="14.486213775236047" lon="120.99535701793893"><ele>5.0</ele><time>2026-04-17T14:01:18Z</time></trkpt><trkpt lat="14.486182747287623" lon="120.99547570107781"><ele>5.0</ele><time>2026-04-17T14:01:19.001Z</time></trkpt><trkpt lat="14.486143783170418" lon="120.9955961323453"><ele>5.0</ele><time>2026-04-17T14:01:20.001Z</time></trkpt><trkpt lat="14.486104041202458" lon="120.99571493448536"><ele>5.0</ele><time>2026-04-17T14:01:21.001Z</time></trkpt><trkpt lat="14.486068776796504" lon="120.99584501617795"><ele>5.0</ele><time>2026-04-17T14:01:22.001Z</time></trkpt><trkpt lat="14.48601981979849" lon="120.9959758101989"><ele>4.75</ele><time>2026-04-17T14:01:23.001Z</time></trkpt><trkpt lat="14.485970055547451" lon="120.99610876089122"><ele>4.5</ele><time>2026-04-17T14:01:24.001Z</time></trkpt><trkpt lat="14.48592633747639" lon="120.99624464214843"><ele>4.25</ele><time>2026-04-17T14:01:25.001Z</time></trkpt><trkpt lat="14.485886363536776" lon="120.99638088558126"><ele>4.0</ele><time>2026-04-17T14:01:26.001Z</time></trkpt><trkpt lat="14.48586160376311" lon="120.9965178331512"><ele>4.0</ele><time>2026-04-17T14:01:27.001Z</time></trkpt><trkpt lat="14.485851529827656" lon="120.99665588280433"><ele>4.0</ele><time>2026-04-17T14:01:28.001Z</time></trkpt><trkpt lat="14.485858885129447" lon="120.99679510579459"><ele>4.0</ele><time>2026-04-17T14:01:29.001Z</time></trkpt><trkpt lat="14.485878821563203" lon="120.99693315298359"><ele>4.0</ele><time>2026-04-17T14:01:30.001Z</time></trkpt><trkpt lat="14.485900133736534" lon="120.99708367379274"><ele>4.75</ele><time>2026-04-17T14:01:31.001Z</time></trkpt><trkpt lat="14.485953730550817" lon="120.99721984464298"><ele>5.5</ele><time>2026-04-17T14:01:32.001Z</time></trkpt><trkpt lat="14.486026523347885" lon="120.99735290283898"><ele>6.25</ele><time>2026-04-17T14:01:33.001Z</time></trkpt><trkpt lat="14.486132376033359" lon="120.99747132377026"><ele>7.0</ele><time>2026-04-17T14:01:34.001Z</time></trkpt><trkpt lat="14.486230389120461" lon="120.99760679801153"><ele>7.333333333333334</ele><time>2026-04-17T14:01:35.001Z</time></trkpt><trkpt lat="14.486356758111631" lon="120.99772837740704"><ele>7.666666666666666</ele><time>2026-04-17T14:01:36.001Z</time></trkpt><trkpt lat="14.486483485311897" lon="120.99785475495375"><ele>8.0</ele><time>2026-04-17T14:01:37.001Z</time></trkpt><trkpt lat="14.486604978179427" lon="120.9979921915481"><ele>8.0</ele><time>2026-04-17T14:01:38.001Z</time></trkpt><trkpt lat="14.48671741669695" lon="120.99813430737855"><ele>8.0</ele><time>2026-04-17T14:01:39.001Z</time></trkpt><trkpt lat="14.486829351237313" lon="120.99827431582503"><ele>8.0</ele><time>2026-04-17T14:01:40.001Z</time></trkpt><trkpt lat="14.48693897036225" lon="120.99840463126463"><ele>7.75</ele><time>2026-04-17T14:01:41.001Z</time></trkpt><trkpt lat="14.487032286253196" lon="120.99852025210303"><ele>7.5</ele><time>2026-04-17T14:01:42.001Z</time></trkpt><trkpt lat="14.487109221683436" lon="120.99862080096277"><ele>7.25</ele><time>2026-04-17T14:01:43.001Z</time></trkpt><trkpt lat="14.487180514795865" lon="120.99871064915057"><ele>7.0</ele><time>2026-04-17T14:01:44.001Z</time></trkpt><trkpt lat="14.487269891710014" lon="120.99878809681526"><ele>6.5</ele><time>2026-04-17T14:01:45.001Z</time></trkpt><trkpt lat="14.487347255001808" lon="120.99887717713989"><ele>6.0</ele><time>2026-04-17T14:01:46.001Z</time></trkpt><trkpt lat="14.487427908356523" lon="120.99897004582203"><ele>5.5</ele><time>2026-04-17T14:01:47.001Z</time></trkpt><trkpt lat="14.487506003601569" lon="120.9990599689608"><ele>5.0</ele><time>2026-04-17T14:01:48.001Z</time></trkpt><trkpt lat="14.487573951086102" lon="120.99916307623377"><ele>5.75</ele><time>2026-04-17T14:01:49.001Z</time></trkpt><trkpt lat="14.48766331075643" lon="120.9992462242325"><ele>6.5</ele><time>2026-04-17T14:01:50.001Z</time></trkpt><trkpt lat="14.487748615868277" lon="120.99932361194088"><ele>7.25</ele><time>2026-04-17T14:01:51.001Z</time></trkpt><trkpt lat="14.48783627279511" lon="120.99939923283965"><ele>8.0</ele><time>2026-04-17T14:01:52.001Z</time></trkpt><trkpt lat="14.487933582164754" lon="120.99946812913379"><ele>8.0</ele><time>2026-04-17T14:01:53.001Z</time></trkpt><trkpt lat="14.488038442263015" lon="120.99952994056495"><ele>8.0</ele><time>2026-04-17T14:01:54.001Z</time></trkpt><trkpt lat="14.4881611664443" lon="120.9995846915111"><ele>8.0</ele><time>2026-04-17T14:01:55.001Z</time></trkpt><trkpt lat="14.488293377471656" lon="120.99963044796112"><ele>8.0</ele><time>2026-04-17T14:01:56.001Z</time></trkpt><trkpt lat="14.488430035609824" lon="120.99967898543602"><ele>8.0</ele><time>2026-04-17T14:01:57.001Z</time></trkpt><trkpt lat="14.48851073455516" lon="120.99969817014518"><ele>8.0</ele><time>2026-04-17T14:01:58.001Z</time></trkpt><trkpt lat="14.488626347053257" lon="120.99970938628896"><ele>8.0</ele><time>2026-04-17T14:01:59.001Z</time></trkpt><trkpt lat="14.488737608286673" lon="120.99970794650082"><ele>8.0</ele><time>2026-04-17T14:02:00.001Z</time></trkpt><trkpt lat="14.488860019569136" lon="120.9997005973691"><ele>8.0</ele><time>2026-04-17T14:02:01.001Z</time></trkpt><trkpt lat="14.488988702723482" lon="120.99968358359736"><ele>6.75</ele><time>2026-04-17T14:02:02.001Z</time></trkpt><trkpt lat="14.489128691908467" lon="120.99965129426072"><ele>5.5</ele><time>2026-04-17T14:02:03.001Z</time></trkpt><trkpt lat="14.48926042668616" lon="120.9996182723549"><ele>4.25</ele><time>2026-04-17T14:02:04.001Z</time></trkpt><trkpt lat="14.48939482535786" lon="120.99955972883427"><ele>3.0</ele><time>2026-04-17T14:02:05.001Z</time></trkpt><trkpt lat="14.489520094959124" lon="120.99948632438934"><ele>3.0</ele><time>2026-04-17T14:02:06.001Z</time></trkpt><trkpt lat="14.489642358555953" lon="120.99940107789244"><ele>3.0</ele><time>2026-04-17T14:02:07.001Z</time></trkpt><trkpt lat="14.489759583684501" lon="120.99929767318022"><ele>3.0</ele><time>2026-04-17T14:02:08.001Z</time></trkpt><trkpt lat="14.489874432430081" lon="120.99918803247428"><ele>1.6666666666666667</ele><time>2026-04-17T14:02:09.001Z</time></trkpt><trkpt lat="14.490001676941585" lon="120.9990912899902"><ele>0.33333333333333337</ele><time>2026-04-17T14:02:10Z</time></trkpt><trkpt lat="14.490118891323592" lon="120.99898124116511"><ele>-1.0</ele><time>2026-04-17T14:02:11Z</time></trkpt><trkpt lat="14.490236921475665" lon="120.99887064254182"><ele>-1.0</ele><time>2026-04-17T14:02:12Z</time></trkpt><trkpt lat="14.490350608010322" lon="120.99876171400615"><ele>-1.0</ele><time>2026-04-17T14:02:13Z</time></trkpt><trkpt lat="14.490474130751878" lon="120.99864317144717"><ele>-1.0</ele><time>2026-04-17T14:02:14Z</time></trkpt><trkpt lat="14.490585214373427" lon="120.99853721446725"><ele>-1.6666666666666665</ele><time>2026-04-17T14:02:15Z</time></trkpt><trkpt lat="14.490704622549009" lon="120.99842341300089"><ele>-2.3333333333333335</ele><time>2026-04-17T14:02:16Z</time></trkpt><trkpt lat="14.490825682102603" lon="120.99830164342819"><ele>-3.0</ele><time>2026-04-17T14:02:17Z</time></trkpt><trkpt lat="14.490934617356476" lon="120.99818617593621"><ele>-1.6666666666666667</ele><time>2026-04-17T14:02:18Z</time></trkpt><trkpt lat="14.491034239550512" lon="120.99806123831164"><ele>-0.33333333333333337</ele><time>2026-04-17T14:02:19Z</time></trkpt><trkpt lat="14.491116199661485" lon="120.9979175733093"><ele>1.0</ele><time>2026-04-17T14:02:20Z</time></trkpt><trkpt lat="14.491190105087963" lon="120.99776128328132"><ele>1.0</ele><time>2026-04-17T14:02:21Z</time></trkpt><trkpt lat="14.49125281774559" lon="120.99760760113429"><ele>1.0</ele><time>2026-04-17T14:02:22Z</time></trkpt><trkpt lat="14.491300839739395" lon="120.9974411036081"><ele>1.0</ele><time>2026-04-17T14:02:23Z</time></trkpt><trkpt lat="14.491347561669967" lon="120.99728477269994"><ele>0.75</ele><time>2026-04-17T14:02:24Z</time></trkpt><trkpt lat="14.491391088771012" lon="120.99713902801307"><ele>0.5</ele><time>2026-04-17T14:02:25Z</time></trkpt><trkpt lat="14.491431953876795" lon="120.99700219662299"><ele>0.25</ele><time>2026-04-17T14:02:26Z</time></trkpt><trkpt lat="14.491470696767415" lon="120.99687086267632"><ele>0.0</ele><time>2026-04-17T14:02:27Z</time></trkpt><trkpt lat="14.491519787207265" lon="120.99676597185979"><ele>1.25</ele><time>2026-04-17T14:02:28Z</time></trkpt><trkpt lat="14.491577081117521" lon="120.99665684701539"><ele>2.5</ele><time>2026-04-17T14:02:29Z</time></trkpt><trkpt lat="14.491645751571145" lon="120.9965547488787"><ele>3.75</ele><time>2026-04-17T14:02:30Z</time></trkpt><trkpt lat="14.491731395578476" lon="120.99645095740063"><ele>5.0</ele><time>2026-04-17T14:02:31Z</time></trkpt><trkpt lat="14.491808158124023" lon="120.99637674239061"><ele>5.0</ele><time>2026-04-17T14:02:32Z</time></trkpt><trkpt lat="14.49190083987449" lon="120.9963131704461"><ele>5.0</ele><time>2026-04-17T14:02:33Z</time></trkpt><trkpt lat="14.491994071786307" lon="120.99624222128332"><ele>5.0</ele><time>2026-04-17T14:02:34Z</time></trkpt><trkpt lat="14.492104481933508" lon="120.99621343756195"><ele>5.0</ele><time>2026-04-17T14:02:35Z</time></trkpt><trkpt lat="14.492226213238235" lon="120.99620327714241"><ele>6.25</ele><time>2026-04-17T14:02:36Z</time></trkpt><trkpt lat="14.492347860093995" lon="120.99620866839308"><ele>7.5</ele><time>2026-04-17T14:02:37Z</time></trkpt><trkpt lat="14.492476897666794" lon="120.99622226291997"><ele>8.75</ele><time>2026-04-17T14:02:38Z</time></trkpt><trkpt lat="14.492607376583637" lon="120.99622902202174"><ele>10.0</ele><time>2026-04-17T14:02:39Z</time></trkpt><trkpt lat="14.492747522004432" lon="120.99623543972042"><ele>10.0</ele><time>2026-04-17T14:02:40Z</time></trkpt><trkpt lat="14.492888670684694" lon="120.99623630940205"><ele>10.0</ele><time>2026-04-17T14:02:41Z</time></trkpt><trkpt lat="14.493036783630147" lon="120.99624519034764"><ele>10.0</ele><time>2026-04-17T14:02:42Z</time></trkpt><trkpt lat="14.493179286038234" lon="120.99625283798952"><ele>10.0</ele><time>2026-04-17T14:02:43Z</time></trkpt><trkpt lat="14.493311645456954" lon="120.99625955468925"><ele>9.75</ele><time>2026-04-17T14:02:44Z</time></trkpt><trkpt lat="14.49343548955091" lon="120.99626390840345"><ele>9.5</ele><time>2026-04-17T14:02:45Z</time></trkpt><trkpt lat="14.493557109031599" lon="120.99626940109945"><ele>9.25</ele><time>2026-04-17T14:02:46Z</time></trkpt><trkpt lat="14.493681089523701" lon="120.99627781321655"><ele>9.0</ele><time>2026-04-17T14:02:47Z</time></trkpt><trkpt lat="14.493805559585843" lon="120.99630008709904"><ele>7.75</ele><time>2026-04-17T14:02:48Z</time></trkpt><trkpt lat="14.49392053847783" lon="120.99634490862178"><ele>6.5</ele><time>2026-04-17T14:02:49Z</time></trkpt><trkpt lat="14.494017022611128" lon="120.99641526473559"><ele>5.25</ele><time>2026-04-17T14:02:50Z</time></trkpt><trkpt lat="14.49410877192943" lon="120.9965058645624"><ele>4.0</ele><time>2026-04-17T14:02:51Z</time></trkpt><trkpt lat="14.494180146417493" lon="120.99661138628217"><ele>5.0</ele><time>2026-04-17T14:02:52Z</time></trkpt><trkpt lat="14.494244923899908" lon="120.99672807741213"><ele>6.0</ele><time>2026-04-17T14:02:53Z</time></trkpt><trkpt lat="14.494298049783408" lon="120.99685267846493"><ele>7.0</ele><time>2026-04-17T14:02:54Z</time></trkpt><trkpt lat="14.494347730258879" lon="120.99698168327583"><ele>8.0</ele><time>2026-04-17T14:02:55Z</time></trkpt><trkpt lat="14.494406890415075" lon="120.99711214558928"><ele>8.0</ele><time>2026-04-17T14:02:56Z</time></trkpt><trkpt lat="14.494466046639335" lon="120.99724167353992"><ele>8.0</ele><time>2026-04-17T14:02:57Z</time></trkpt><trkpt lat="14.494529771339737" lon="120.99738437918391"><ele>8.0</ele><time>2026-04-17T14:02:58Z</time></trkpt><trkpt lat="14.494593293362422" lon="120.99753118711385"><ele>8.0</ele><time>2026-04-17T14:02:59Z</time></trkpt><trkpt lat="14.494656822316427" lon="120.99768089420333"><ele>6.333333333333333</ele><time>2026-04-17T14:03:00Z</time></trkpt><trkpt lat="14.49472299523418" lon="120.99782862897308"><ele>4.666666666666666</ele><time>2026-04-17T14:03:01Z</time></trkpt><trkpt lat="14.494791378809412" lon="120.99797344744553"><ele>3.0</ele><time>2026-04-17T14:03:02Z</time></trkpt><trkpt lat="14.494860926839742" lon="120.99811509375185"><ele>3.0</ele><time>2026-04-17T14:03:03Z</time></trkpt><trkpt lat="14.494932365937522" lon="120.99825658042586"><ele>3.0</ele><time>2026-04-17T14:03:04Z</time></trkpt><trkpt lat="14.495004417869175" lon="120.99839217792639"><ele>3.0</ele><time>2026-04-17T14:03:05Z</time></trkpt><trkpt lat="14.495076263277687" lon="120.99852690314361"><ele>4.666666666666666</ele><time>2026-04-17T14:03:06Z</time></trkpt><trkpt lat="14.49515231051861" lon="120.99866878283252"><ele>6.333333333333333</ele><time>2026-04-17T14:03:07Z</time></trkpt><trkpt lat="14.49522825485687" lon="120.99881269640412"><ele>8.0</ele><time>2026-04-17T14:03:08Z</time></trkpt><trkpt lat="14.495305042193737" lon="120.99895335426426"><ele>8.0</ele><time>2026-04-17T14:03:09Z</time></trkpt><trkpt lat="14.49538460679744" lon="120.99910042621454"><ele>8.0</ele><time>2026-04-17T14:03:10Z</time></trkpt><trkpt lat="14.49546628855248" lon="120.99924551384318"><ele>8.0</ele><time>2026-04-17T14:03:11Z</time></trkpt><trkpt lat="14.495543246638347" lon="120.99938640861394"><ele>7.25</ele><time>2026-04-17T14:03:12Z</time></trkpt><trkpt lat="14.495610370347444" lon="120.99950832916217"><ele>6.5</ele><time>2026-04-17T14:03:13Z</time></trkpt><trkpt lat="14.49567549926957" lon="120.99962421187244"><ele>5.75</ele><time>2026-04-17T14:03:14Z</time></trkpt><trkpt lat="14.495733022504707" lon="120.99972918649338"><ele>5.0</ele><time>2026-04-17T14:03:15Z</time></trkpt><trkpt lat="14.49578677854821" lon="120.9998174037871"><ele>5.0</ele><time>2026-04-17T14:03:16Z</time></trkpt><trkpt lat="14.495840191348002" lon="120.99989693025026"><ele>5.0</ele><time>2026-04-17T14:03:17Z</time></trkpt><trkpt lat="14.495887327971248" lon="120.9999677952766"><ele>5.0</ele><time>2026-04-17T14:03:18Z</time></trkpt><trkpt lat="14.495925984439351" lon="121.00002799549091"><ele>5.0</ele><time>2026-04-17T14:03:19Z</time></trkpt><trkpt lat="14.495968255477672" lon="121.00009952742117"><ele>5.0</ele><time>2026-04-17T14:03:21Z</time></trkpt><trkpt lat="14.496018934508115" lon="121.00017178867466"><ele>5.0</ele><time>2026-04-17T14:03:24Z</time></trkpt><trkpt lat="14.49606381469834" lon="121.00021993835341"><ele>5.0</ele><time>2026-04-17T14:03:28Z</time></trkpt><trkpt lat="14.496196521654275" lon="121.0002313622848"><ele>5.0</ele><time>2026-04-17T14:03:35Z</time></trkpt><trkpt lat="14.496259719803822" lon="121.0002013960375"><ele>5.0</ele><time>2026-04-17T14:03:37Z</time></trkpt><trkpt lat="14.496281539297835" lon="121.00012281220961"><ele>5.0</ele><time>2026-04-17T14:03:38Z</time></trkpt><trkpt lat="14.496324867987436" lon="121.0000750528953"><ele>5.0</ele><time>2026-04-17T14:03:39Z</time></trkpt><trkpt lat="14.496369679834409" lon="121.00002565874041"><ele>5.0</ele><time>2026-04-17T14:03:40.001Z</time></trkpt><trkpt lat="14.496420355214365" lon="120.99996980150101"><ele>4.833333333333334</ele><time>2026-04-17T14:03:41.001Z</time></trkpt><trkpt lat="14.496473959995233" lon="120.99991071528476"><ele>4.666666666666667</ele><time>2026-04-17T14:03:42.001Z</time></trkpt><trkpt lat="14.496529010578648" lon="120.99985003543844"><ele>4.5</ele><time>2026-04-17T14:03:43.001Z</time></trkpt><trkpt lat="14.496586592240124" lon="120.99978656568553"><ele>4.333333333333333</ele><time>2026-04-17T14:03:44.001Z</time></trkpt><trkpt lat="14.496648042708639" lon="120.99971883152013"><ele>4.166666666666666</ele><time>2026-04-17T14:03:45.001Z</time></trkpt><trkpt lat="14.496707169789724" lon="120.99965403216137"><ele>4.0</ele><time>2026-04-17T14:03:46.001Z</time></trkpt><trkpt lat="14.496757321304324" lon="120.99959913532622"><ele>3.9999999999999996</ele><time>2026-04-17T14:03:47.001Z</time></trkpt><trkpt lat="14.49680187873555" lon="120.99953396392328"><ele>4.0</ele><time>2026-04-17T14:03:48.001Z</time></trkpt><trkpt lat="14.496839949655621" lon="120.99947439860374"><ele>4.0</ele><time>2026-04-17T14:03:49.001Z</time></trkpt><trkpt lat="14.496864977961222" lon="120.99939205198399"><ele>4.0</ele><time>2026-04-17T14:03:50.001Z</time></trkpt><trkpt lat="14.496879013606895" lon="120.99930002946628"><ele>3.9999999999999996</ele><time>2026-04-17T14:03:51.001Z</time></trkpt><trkpt lat="14.49689724271615" lon="120.99922437378507"><ele>4.0</ele><time>2026-04-17T14:03:52.001Z</time></trkpt><trkpt lat="14.496914570977678" lon="120.99915292880875"><ele>3.9999999999999996</ele><time>2026-04-17T14:03:53.001Z</time></trkpt><trkpt lat="14.496929992646674" lon="120.99908947019222"><ele>4.0</ele><time>2026-04-17T14:03:54.001Z</time></trkpt><trkpt lat="14.496959536787157" lon="120.99896789904342"><ele>4.0</ele><time>2026-04-17T14:03:56.001Z</time></trkpt><trkpt lat="14.49697597125571" lon="120.99890027286723"><ele>4.0</ele><time>2026-04-17T14:03:57.001Z</time></trkpt><trkpt lat="14.496992888243293" lon="120.99883214087744"><ele>3.9999999999999996</ele><time>2026-04-17T14:03:58.001Z</time></trkpt><trkpt lat="14.497033341646251" lon="120.99870573898758"><ele>4.0</ele><time>2026-04-17T14:04:00.001Z</time></trkpt><trkpt lat="14.497057198140755" lon="120.99863939231356"><ele>4.166666666666666</ele><time>2026-04-17T14:04:01.001Z</time></trkpt><trkpt lat="14.497130470143105" lon="120.99854986628624"><ele>4.333333333333333</ele><time>2026-04-17T14:04:03.001Z</time></trkpt><trkpt lat="14.49716639396706" lon="120.99849607278121"><ele>4.5</ele><time>2026-04-17T14:04:04Z</time></trkpt><trkpt lat="14.49724107526791" lon="120.9983914135233"><ele>4.666666666666667</ele><time>2026-04-17T14:04:06Z</time></trkpt><trkpt lat="14.497283279826842" lon="120.99833490561028"><ele>4.833333333333334</ele><time>2026-04-17T14:04:07Z</time></trkpt><trkpt lat="14.497326575750602" lon="120.99827693644248"><ele>5.0</ele><time>2026-04-17T14:04:08Z</time></trkpt><trkpt lat="14.497369619973144" lon="120.99821930428958"><ele>5.0</ele><time>2026-04-17T14:04:09Z</time></trkpt><trkpt lat="14.497445268118796" lon="120.99814257753007"><ele>5.0</ele><time>2026-04-17T14:04:11Z</time></trkpt><trkpt lat="14.497524872667833" lon="120.99809263896343"><ele>5.0</ele><time>2026-04-17T14:04:13Z</time></trkpt><trkpt lat="14.49757882945525" lon="120.99805877682742"><ele>5.0</ele><time>2026-04-17T14:04:14Z</time></trkpt><trkpt lat="14.497643050487937" lon="120.99804944420481"><ele>5.0</ele><time>2026-04-17T14:04:15Z</time></trkpt><trkpt lat="14.497708610294364" lon="120.99803748463471"><ele>5.0</ele><time>2026-04-17T14:04:16Z</time></trkpt><trkpt lat="14.497781344373578" lon="120.99802055156513"><ele>5.0</ele><time>2026-04-17T14:04:17Z</time></trkpt><trkpt lat="14.497857390744493" lon="120.99800627644868"><ele>5.0</ele><time>2026-04-17T14:04:18Z</time></trkpt><trkpt lat="14.49792763662883" lon="120.99799238356246"><ele>5.0</ele><time>2026-04-17T14:04:19Z</time></trkpt><trkpt lat="14.497990339187202" lon="120.99798121609652"><ele>5.0</ele><time>2026-04-17T14:04:20Z</time></trkpt><trkpt lat="14.498090587556808" lon="120.99797620476379"><ele>5.0</ele><time>2026-04-17T14:04:22Z</time></trkpt><trkpt lat="14.498160967893785" lon="120.99796238029262"><ele>5.0</ele><time>2026-04-17T14:04:24Z</time></trkpt><trkpt lat="14.498229966659022" lon="120.99794882719993"><ele>5.0</ele><time>2026-04-17T14:04:26Z</time></trkpt><trkpt lat="14.498263002841295" lon="120.9978135382703"><ele>5.0</ele><time>2026-04-17T14:06:25Z</time></trkpt><trkpt lat="14.498255525038948" lon="120.99789072407658"><ele>5.0</ele><time>2026-04-17T14:09:50Z</time></trkpt><trkpt lat="14.498351759754508" lon="120.99787734271248"><ele>5.0</ele><time>2026-04-17T14:14:48Z</time></trkpt><trkpt lat="14.498473735483671" lon="120.99785941306273"><ele>5.0</ele><time>2026-04-17T14:14:50Z</time></trkpt><trkpt lat="14.498549722362814" lon="120.99784823993494"><ele>5.0</ele><time>2026-04-17T14:14:51Z</time></trkpt><trkpt lat="14.498627586682842" lon="120.9978357653306"><ele>5.0</ele><time>2026-04-17T14:14:52Z</time></trkpt><trkpt lat="14.498708484545347" lon="120.997823133007"><ele>5.0</ele><time>2026-04-17T14:14:53Z</time></trkpt><trkpt lat="14.498793943991664" lon="120.99782740887558"><ele>5.0</ele><time>2026-04-17T14:14:54Z</time></trkpt><trkpt lat="14.498873267019155" lon="120.99781014813692"><ele>5.0</ele><time>2026-04-17T14:14:55Z</time></trkpt><trkpt lat="14.498952640006591" lon="120.99779238516409"><ele>5.0</ele><time>2026-04-17T14:14:56Z</time></trkpt><trkpt lat="14.49904158691707" lon="120.99777247963108"><ele>4.666666666666667</ele><time>2026-04-17T14:14:57Z</time></trkpt><trkpt lat="14.499112663133465" lon="120.99775657340021"><ele>4.333333333333334</ele><time>2026-04-17T14:14:58Z</time></trkpt><trkpt lat="14.499200285328367" lon="120.99773696432405"><ele>4.0</ele><time>2026-04-17T14:14:59Z</time></trkpt><trkpt lat="14.499288582391356" lon="120.99771728189299"><ele>3.666666666666667</ele><time>2026-04-17T14:15:00Z</time></trkpt><trkpt lat="14.499368930838443" lon="120.99769940669952"><ele>3.3333333333333335</ele><time>2026-04-17T14:15:01Z</time></trkpt><trkpt lat="14.499435430534454" lon="120.9976846124499"><ele>3.0</ele><time>2026-04-17T14:15:02Z</time></trkpt><trkpt lat="14.499502983343758" lon="120.99765204710303"><ele>2.9999999999999996</ele><time>2026-04-17T14:15:03Z</time></trkpt><trkpt lat="14.499568677945696" lon="120.9976451997914"><ele>3.0</ele><time>2026-04-17T14:15:04Z</time></trkpt><trkpt lat="14.499646406192223" lon="120.99762823700065"><ele>3.0</ele><time>2026-04-17T14:15:05Z</time></trkpt><trkpt lat="14.499717851314307" lon="120.99761781982397"><ele>3.0</ele><time>2026-04-17T14:15:06Z</time></trkpt><trkpt lat="14.499794222165553" lon="120.9976001689669"><ele>3.0</ele><time>2026-04-17T14:15:07Z</time></trkpt><trkpt lat="14.499865737801182" lon="120.99758443193831"><ele>2.9999999999999996</ele><time>2026-04-17T14:15:08Z</time></trkpt><trkpt lat="14.499929855967457" lon="120.99756795912032"><ele>3.0</ele><time>2026-04-17T14:15:09Z</time></trkpt><trkpt lat="14.50003019646754" lon="120.99753841806074"><ele>3.1666666666666665</ele><time>2026-04-17T14:15:11Z</time></trkpt><trkpt lat="14.500121254719165" lon="120.99752106255058"><ele>3.333333333333333</ele><time>2026-04-17T14:15:13Z</time></trkpt><trkpt lat="14.500192069486138" lon="120.99746792480391"><ele>3.5</ele><time>2026-04-17T14:15:15Z</time></trkpt><trkpt lat="14.500252691228056" lon="120.99743811311714"><ele>3.6666666666666665</ele><time>2026-04-17T14:15:17Z</time></trkpt><trkpt lat="14.50035748428478" lon="120.99745965483339"><ele>3.833333333333333</ele><time>2026-04-17T14:15:20Z</time></trkpt><trkpt lat="14.50043728663226" lon="120.9975027383835"><ele>4.0</ele><time>2026-04-17T14:15:22Z</time></trkpt><trkpt lat="14.500511453952754" lon="120.99757125189765"><ele>4.2</ele><time>2026-04-17T14:15:24Z</time></trkpt><trkpt lat="14.500566084454789" lon="120.99761921762915"><ele>4.4</ele><time>2026-04-17T14:15:25Z</time></trkpt><trkpt lat="14.500638624484049" lon="120.99767896821338"><ele>4.6</ele><time>2026-04-17T14:15:26Z</time></trkpt><trkpt lat="14.500720264427231" lon="120.99773423849824"><ele>4.8</ele><time>2026-04-17T14:15:27Z</time></trkpt><trkpt lat="14.500803889668575" lon="120.99779066016514"><ele>5.0</ele><time>2026-04-17T14:15:28Z</time></trkpt><trkpt lat="14.500875827128139" lon="120.9978425198815"><ele>5.0</ele><time>2026-04-17T14:15:29Z</time></trkpt><trkpt lat="14.500957570925504" lon="120.99789494502501"><ele>5.0</ele><time>2026-04-17T14:15:30Z</time></trkpt><trkpt lat="14.501042670822454" lon="120.99795186958004"><ele>5.0</ele><time>2026-04-17T14:15:31Z</time></trkpt><trkpt lat="14.501134905130447" lon="120.99800805457502"><ele>5.0</ele><time>2026-04-17T14:15:32Z</time></trkpt><trkpt lat="14.501229418579781" lon="120.99806508393712"><ele>5.0</ele><time>2026-04-17T14:15:33Z</time></trkpt><trkpt lat="14.501328063657759" lon="120.9981199421004"><ele>5.2</ele><time>2026-04-17T14:15:34Z</time></trkpt><trkpt lat="14.501410757734137" lon="120.9981648354554"><ele>5.4</ele><time>2026-04-17T14:15:35Z</time></trkpt><trkpt lat="14.501497004193432" lon="120.99822534942685"><ele>5.6</ele><time>2026-04-17T14:15:36Z</time></trkpt><trkpt lat="14.501580730328811" lon="120.99827129674556"><ele>5.8</ele><time>2026-04-17T14:15:37Z</time></trkpt><trkpt lat="14.50165414402674" lon="120.9983205360603"><ele>6.0</ele><time>2026-04-17T14:15:38Z</time></trkpt><trkpt lat="14.501717680146717" lon="120.998364916845"><ele>6.5</ele><time>2026-04-17T14:15:39Z</time></trkpt><trkpt lat="14.501783226060176" lon="120.9984069463345"><ele>7.0</ele><time>2026-04-17T14:15:40Z</time></trkpt><trkpt lat="14.501851112652703" lon="120.99845324962833"><ele>7.5</ele><time>2026-04-17T14:15:41Z</time></trkpt><trkpt lat="14.50192790948038" lon="120.99848269437352"><ele>8.0</ele><time>2026-04-17T14:15:42Z</time></trkpt><trkpt lat="14.501994388865441" lon="120.998523333922"><ele>8.5</ele><time>2026-04-17T14:15:43Z</time></trkpt><trkpt lat="14.502058478059116" lon="120.99856053639184"><ele>9.0</ele><time>2026-04-17T14:15:44Z</time></trkpt><trkpt lat="14.502117093886767" lon="120.99859598578293"><ele>9.0</ele><time>2026-04-17T14:15:45Z</time></trkpt><trkpt lat="14.502227896146845" lon="120.99866372492848"><ele>9.0</ele><time>2026-04-17T14:15:47Z</time></trkpt><trkpt lat="14.502282265580108" lon="120.99869693193116"><ele>9.0</ele><time>2026-04-17T14:15:48Z</time></trkpt><trkpt lat="14.502347463945632" lon="120.99873675287938"><ele>9.0</ele><time>2026-04-17T14:15:49Z</time></trkpt><trkpt lat="14.502410872112444" lon="120.99877661794845"><ele>9.0</ele><time>2026-04-17T14:15:50Z</time></trkpt><trkpt lat="14.502466805571704" lon="120.99881178444602"><ele>9.0</ele><time>2026-04-17T14:15:51Z</time></trkpt><trkpt lat="14.502521653492416" lon="120.99886637110498"><ele>9.0</ele><time>2026-04-17T14:15:52Z</time></trkpt><trkpt lat="14.502609665921769" lon="120.99890160363768"><ele>9.0</ele><time>2026-04-17T14:15:54Z</time></trkpt><trkpt lat="14.502670236741496" lon="120.99893968582087"><ele>9.0</ele><time>2026-04-17T14:15:55Z</time></trkpt><trkpt lat="14.502720966676629" lon="120.99899339284725"><ele>9.0</ele><time>2026-04-17T14:15:56Z</time></trkpt><trkpt lat="14.502787663562263" lon="120.99903067641905"><ele>9.0</ele><time>2026-04-17T14:15:57Z</time></trkpt><trkpt lat="14.50286605535099" lon="120.99907046635371"><ele>9.0</ele><time>2026-04-17T14:15:58Z</time></trkpt><trkpt lat="14.50292723645456" lon="120.99910122939762"><ele>9.0</ele><time>2026-04-17T14:15:59Z</time></trkpt><trkpt lat="14.502986985710107" lon="120.99913743290186"><ele>9.0</ele><time>2026-04-17T14:16:00Z</time></trkpt><trkpt lat="14.50306015028155" lon="120.9991782579658"><ele>9.0</ele><time>2026-04-17T14:16:01Z</time></trkpt><trkpt lat="14.503140224311062" lon="120.99922483675057"><ele>9.0</ele><time>2026-04-17T14:16:02Z</time></trkpt><trkpt lat="14.503211962620389" lon="120.99925927212192"><ele>9.0</ele><time>2026-04-17T14:16:03Z</time></trkpt><trkpt lat="14.503288519678405" lon="120.99929745442488"><ele>9.0</ele><time>2026-04-17T14:16:04Z</time></trkpt><trkpt lat="14.503375773899386" lon="120.99934641900903"><ele>9.0</ele><time>2026-04-17T14:16:05Z</time></trkpt><trkpt lat="14.503471060359553" lon="120.99940077518802"><ele>9.0</ele><time>2026-04-17T14:16:06Z</time></trkpt><trkpt lat="14.50358537311497" lon="120.99946939137645"><ele>9.0</ele><time>2026-04-17T14:16:07Z</time></trkpt><trkpt lat="14.503705129682274" lon="120.99954431959418"><ele>9.0</ele><time>2026-04-17T14:16:08Z</time></trkpt><trkpt lat="14.503836458231266" lon="120.99962491169882"><ele>9.333333333333334</ele><time>2026-04-17T14:16:09Z</time></trkpt><trkpt lat="14.503968576434543" lon="120.99970598996582"><ele>9.666666666666668</ele><time>2026-04-17T14:16:10Z</time></trkpt><trkpt lat="14.504110809718489" lon="120.9997910592138"><ele>10.0</ele><time>2026-04-17T14:16:11Z</time></trkpt><trkpt lat="14.504231380886583" lon="120.9998869620126"><ele>10.0</ele><time>2026-04-17T14:16:12Z</time></trkpt><trkpt lat="14.504358405898868" lon="120.99999011789649"><ele>10.0</ele><time>2026-04-17T14:16:13Z</time></trkpt><trkpt lat="14.504485017839388" lon="121.0000873061679"><ele>10.0</ele><time>2026-04-17T14:16:14Z</time></trkpt><trkpt lat="14.504604239912599" lon="121.00017116983136"><ele>9.25</ele><time>2026-04-17T14:16:15Z</time></trkpt><trkpt lat="14.504722428564234" lon="121.00024605173199"><ele>8.5</ele><time>2026-04-17T14:16:16Z</time></trkpt><trkpt lat="14.504836466334751" lon="121.00031711156089"><ele>7.75</ele><time>2026-04-17T14:16:17Z</time></trkpt><trkpt lat="14.504944499435087" lon="121.00038666624334"><ele>7.0</ele><time>2026-04-17T14:16:18Z</time></trkpt><trkpt lat="14.505052435269588" lon="121.0004592627582"><ele>7.0</ele><time>2026-04-17T14:16:19Z</time></trkpt><trkpt lat="14.505148430055579" lon="121.00052612546209"><ele>7.0</ele><time>2026-04-17T14:16:20Z</time></trkpt><trkpt lat="14.505251304304583" lon="121.00059156093621"><ele>7.0</ele><time>2026-04-17T14:16:21Z</time></trkpt><trkpt lat="14.505360664491123" lon="121.0006555552792"><ele>7.0</ele><time>2026-04-17T14:16:22Z</time></trkpt><trkpt lat="14.505476555219165" lon="121.00071483351604"><ele>7.75</ele><time>2026-04-17T14:16:23Z</time></trkpt><trkpt lat="14.505603518460314" lon="121.00077255337627"><ele>8.5</ele><time>2026-04-17T14:16:24Z</time></trkpt><trkpt lat="14.505734545150707" lon="121.00082859435035"><ele>9.25</ele><time>2026-04-17T14:16:25Z</time></trkpt><trkpt lat="14.505874310891382" lon="121.00088315785953"><ele>10.0</ele><time>2026-04-17T14:16:26Z</time></trkpt><trkpt lat="14.506013858442849" lon="121.00093952575274"><ele>10.0</ele><time>2026-04-17T14:16:27Z</time></trkpt><trkpt lat="14.506153535260784" lon="121.00099502643259"><ele>10.0</ele><time>2026-04-17T14:16:28Z</time></trkpt><trkpt lat="14.506304103870667" lon="121.00104681349431"><ele>10.0</ele><time>2026-04-17T14:16:29Z</time></trkpt><trkpt lat="14.506451996716658" lon="121.00109686727883"><ele>10.0</ele><time>2026-04-17T14:16:30Z</time></trkpt><trkpt lat="14.506597878641223" lon="121.00114495200225"><ele>10.0</ele><time>2026-04-17T14:16:31Z</time></trkpt><trkpt lat="14.506727813846583" lon="121.00119142532095"><ele>10.0</ele><time>2026-04-17T14:16:32Z</time></trkpt><trkpt lat="14.506856266593434" lon="121.0012348899204"><ele>10.0</ele><time>2026-04-17T14:16:33Z</time></trkpt><trkpt lat="14.506972241193461" lon="121.00127700275962"><ele>9.6</ele><time>2026-04-17T14:16:34Z</time></trkpt><trkpt lat="14.50708435585061" lon="121.00132346110249"><ele>9.2</ele><time>2026-04-17T14:16:35Z</time></trkpt><trkpt lat="14.507183238992521" lon="121.00136834291152"><ele>8.8</ele><time>2026-04-17T14:16:36Z</time></trkpt><trkpt lat="14.50728084394989" lon="121.00139877774308"><ele>8.4</ele><time>2026-04-17T14:16:37Z</time></trkpt><trkpt lat="14.507380294415166" lon="121.00144761646396"><ele>8.0</ele><time>2026-04-17T14:16:38Z</time></trkpt><trkpt lat="14.507469431037233" lon="121.00148125698476"><ele>8.0</ele><time>2026-04-17T14:16:39Z</time></trkpt><trkpt lat="14.507557070200246" lon="121.00151903753762"><ele>8.0</ele><time>2026-04-17T14:16:40Z</time></trkpt><trkpt lat="14.507632336558114" lon="121.0015650658748"><ele>8.0</ele><time>2026-04-17T14:16:41Z</time></trkpt><trkpt lat="14.507712067237371" lon="121.0016138240394"><ele>8.0</ele><time>2026-04-17T14:16:42Z</time></trkpt><trkpt lat="14.507801670713636" lon="121.00166131226254"><ele>8.0</ele><time>2026-04-17T14:16:43Z</time></trkpt><trkpt lat="14.507876277654129" lon="121.00170592868655"><ele>8.166666666666666</ele><time>2026-04-17T14:16:44Z</time></trkpt><trkpt lat="14.507946631768379" lon="121.00174312756147"><ele>8.333333333333332</ele><time>2026-04-17T14:16:45Z</time></trkpt><trkpt lat="14.50801431707653" lon="121.00177266778732"><ele>8.5</ele><time>2026-04-17T14:16:46Z</time></trkpt><trkpt lat="14.50808454541725" lon="121.00179620731365"><ele>8.666666666666666</ele><time>2026-04-17T14:16:47Z</time></trkpt><trkpt lat="14.508169835882597" lon="121.00182212401765"><ele>8.833333333333334</ele><time>2026-04-17T14:16:48Z</time></trkpt><trkpt lat="14.508244615242424" lon="121.00185354902688"><ele>9.0</ele><time>2026-04-17T14:16:49Z</time></trkpt><trkpt lat="14.508336793828065" lon="121.00189303661399"><ele>9.0</ele><time>2026-04-17T14:16:50Z</time></trkpt><trkpt lat="14.508427843241467" lon="121.00192572615039"><ele>9.0</ele><time>2026-04-17T14:16:51Z</time></trkpt><trkpt lat="14.508519239915241" lon="121.00196138042492"><ele>9.0</ele><time>2026-04-17T14:16:52Z</time></trkpt><trkpt lat="14.508620274898103" lon="121.00199609256848"><ele>9.0</ele><time>2026-04-17T14:16:53Z</time></trkpt><trkpt lat="14.508723039254491" lon="121.00203070010646"><ele>9.0</ele><time>2026-04-17T14:16:54Z</time></trkpt><trkpt lat="14.508824356949209" lon="121.00205128518051"><ele>8.6</ele><time>2026-04-17T14:16:55Z</time></trkpt><trkpt lat="14.50892907372243" lon="121.0020636146718"><ele>8.2</ele><time>2026-04-17T14:16:56Z</time></trkpt><trkpt lat="14.50903056553503" lon="121.00207740193977"><ele>7.799999999999999</ele><time>2026-04-17T14:16:57Z</time></trkpt><trkpt lat="14.509141695075549" lon="121.0020869317805"><ele>7.3999999999999995</ele><time>2026-04-17T14:16:58Z</time></trkpt><trkpt lat="14.509261474156077" lon="121.0021144801982"><ele>7.0</ele><time>2026-04-17T14:16:59Z</time></trkpt><trkpt lat="14.509388378732762" lon="121.00215985436265"><ele>7.0</ele><time>2026-04-17T14:17:00Z</time></trkpt><trkpt lat="14.509510196386183" lon="121.00221460199722"><ele>7.0</ele><time>2026-04-17T14:17:01Z</time></trkpt><trkpt lat="14.50963779105103" lon="121.00226404301064"><ele>7.0</ele><time>2026-04-17T14:17:02Z</time></trkpt><trkpt lat="14.50975187827249" lon="121.00230667397162"><ele>7.0</ele><time>2026-04-17T14:17:03Z</time></trkpt><trkpt lat="14.509853345560511" lon="121.00234233679275"><ele>6.5</ele><time>2026-04-17T14:17:04Z</time></trkpt><trkpt lat="14.509956481835964" lon="121.00238045755384"><ele>6.0</ele><time>2026-04-17T14:17:05Z</time></trkpt><trkpt lat="14.510066681598925" lon="121.00242749892037"><ele>5.5</ele><time>2026-04-17T14:17:06Z</time></trkpt><trkpt lat="14.510180312747996" lon="121.00248084087661"><ele>5.0</ele><time>2026-04-17T14:17:07Z</time></trkpt><trkpt lat="14.510305256171176" lon="121.00254043810698"><ele>5.333333333333334</ele><time>2026-04-17T14:17:08Z</time></trkpt><trkpt lat="14.51045139129134" lon="121.00259623329673"><ele>5.666666666666667</ele><time>2026-04-17T14:17:09Z</time></trkpt><trkpt lat="14.510593452531634" lon="121.00264690564435"><ele>6.0</ele><time>2026-04-17T14:17:10Z</time></trkpt><trkpt lat="14.510733568274583" lon="121.00269097562149"><ele>6.0</ele><time>2026-04-17T14:17:11Z</time></trkpt><trkpt lat="14.510876683874605" lon="121.00273490766048"><ele>6.0</ele><time>2026-04-17T14:17:12Z</time></trkpt><trkpt lat="14.51101442346529" lon="121.00277497942255"><ele>6.0</ele><time>2026-04-17T14:17:13Z</time></trkpt><trkpt lat="14.511141942414234" lon="121.00281516471985"><ele>6.0</ele><time>2026-04-17T14:17:14Z</time></trkpt><trkpt lat="14.51126013634532" lon="121.0028583349831"><ele>6.0</ele><time>2026-04-17T14:17:15Z</time></trkpt><trkpt lat="14.511386827478443" lon="121.00290087972658"><ele>6.0</ele><time>2026-04-17T14:17:16Z</time></trkpt><trkpt lat="14.511510616789796" lon="121.00294626156871"><ele>6.0</ele><time>2026-04-17T14:17:17Z</time></trkpt><trkpt lat="14.51164002363913" lon="121.00299384686852"><ele>6.0</ele><time>2026-04-17T14:17:18Z</time></trkpt><trkpt lat="14.511776749599285" lon="121.00304184697423"><ele>6.0</ele><time>2026-04-17T14:17:19Z</time></trkpt><trkpt lat="14.511911935076396" lon="121.00309290660255"><ele>6.0</ele><time>2026-04-17T14:17:20Z</time></trkpt><trkpt lat="14.51205332031292" lon="121.00314487350246"><ele>6.0</ele><time>2026-04-17T14:17:21Z</time></trkpt><trkpt lat="14.51219519371313" lon="121.00319972582416"><ele>6.0</ele><time>2026-04-17T14:17:22Z</time></trkpt><trkpt lat="14.512338294581792" lon="121.00325347419009"><ele>6.333333333333334</ele><time>2026-04-17T14:17:23Z</time></trkpt><trkpt lat="14.512480606065612" lon="121.00330473243365"><ele>6.666666666666667</ele><time>2026-04-17T14:17:24Z</time></trkpt><trkpt lat="14.512623852999472" lon="121.00335141637059"><ele>7.0</ele><time>2026-04-17T14:17:25Z</time></trkpt><trkpt lat="14.512768359029764" lon="121.0034017207806"><ele>7.333333333333334</ele><time>2026-04-17T14:17:26Z</time></trkpt><trkpt lat="14.512910844553529" lon="121.00345382880732"><ele>7.666666666666666</ele><time>2026-04-17T14:17:27Z</time></trkpt><trkpt lat="14.513059128424482" lon="121.00350543927722"><ele>8.0</ele><time>2026-04-17T14:17:28Z</time></trkpt><trkpt lat="14.513199933084747" lon="121.00355153973914"><ele>8.0</ele><time>2026-04-17T14:17:29Z</time></trkpt><trkpt lat="14.51333011720088" lon="121.00359682728963"><ele>8.0</ele><time>2026-04-17T14:17:30Z</time></trkpt><trkpt lat="14.51345354513938" lon="121.00363850299833"><ele>8.0</ele><time>2026-04-17T14:17:31Z</time></trkpt><trkpt lat="14.513565542872756" lon="121.00367328906736"><ele>8.0</ele><time>2026-04-17T14:17:32Z</time></trkpt><trkpt lat="14.51367522694682" lon="121.00371106024136"><ele>8.666666666666666</ele><time>2026-04-17T14:17:33Z</time></trkpt><trkpt lat="14.513773804853457" lon="121.00374336563306"><ele>9.333333333333332</ele><time>2026-04-17T14:17:34Z</time></trkpt><trkpt lat="14.513867163667085" lon="121.00377638841645"><ele>10.0</ele><time>2026-04-17T14:17:35Z</time></trkpt><trkpt lat="14.51395323620925" lon="121.00380835429557"><ele>10.666666666666666</ele><time>2026-04-17T14:17:36Z</time></trkpt><trkpt lat="14.514028286989301" lon="121.00383264306731"><ele>11.333333333333334</ele><time>2026-04-17T14:17:37Z</time></trkpt><trkpt lat="14.514088641270284" lon="121.00385157757964"><ele>12.0</ele><time>2026-04-17T14:17:38Z</time></trkpt><trkpt lat="14.514158405292932" lon="121.003876706002"><ele>11.999999999999998</ele><time>2026-04-17T14:17:40Z</time></trkpt><trkpt lat="14.514220602404514" lon="121.00389609138138"><ele>12.0</ele><time>2026-04-17T14:17:43Z</time></trkpt><trkpt lat="14.514295695047508" lon="121.0039208148111"><ele>12.0</ele><time>2026-04-17T14:17:46Z</time></trkpt><trkpt lat="14.514365808713853" lon="121.00394447623863"><ele>12.0</ele><time>2026-04-17T14:18:05Z</time></trkpt><trkpt lat="14.514449725795807" lon="121.0039777584093"><ele>12.0</ele><time>2026-04-17T14:18:16Z</time></trkpt><trkpt lat="14.51451051315927" lon="121.00399571483783"><ele>11.999999999999998</ele><time>2026-04-17T14:18:18Z</time></trkpt><trkpt lat="14.514572593994693" lon="121.00401491554831"><ele>12.0</ele><time>2026-04-17T14:18:20Z</time></trkpt><trkpt lat="14.514658294762976" lon="121.00404904147892"><ele>11.571428571428571</ele><time>2026-04-17T14:18:23.001Z</time></trkpt><trkpt lat="14.514728954680093" lon="121.00407566704092"><ele>11.142857142857142</ele><time>2026-04-17T14:18:25.001Z</time></trkpt><trkpt lat="14.514793304319879" lon="121.00409208388092"><ele>10.714285714285715</ele><time>2026-04-17T14:18:27.001Z</time></trkpt><trkpt lat="14.514854669820625" lon="121.00411370914684"><ele>10.285714285714285</ele><time>2026-04-17T14:18:29.001Z</time></trkpt><trkpt lat="14.514917666937043" lon="121.00413636278076"><ele>9.857142857142858</ele><time>2026-04-17T14:18:31.001Z</time></trkpt><trkpt lat="14.514983074488804" lon="121.00416150233364"><ele>9.428571428571429</ele><time>2026-04-17T14:18:34.001Z</time></trkpt><trkpt lat="14.515051765096027" lon="121.00418115313495"><ele>9.0</ele><time>2026-04-17T14:18:37Z</time></trkpt><trkpt lat="14.515106297808503" lon="121.00421702654855"><ele>9.0</ele><time>2026-04-17T14:18:39Z</time></trkpt><trkpt lat="14.515165637619692" lon="121.0042402215525"><ele>9.0</ele><time>2026-04-17T14:18:41Z</time></trkpt><trkpt lat="14.515232866743009" lon="121.00426510405522"><ele>9.0</ele><time>2026-04-17T14:18:44Z</time></trkpt><trkpt lat="14.515433167645666" lon="121.0041272528637"><ele>9.0</ele><time>2026-04-17T14:18:48Z</time></trkpt><trkpt lat="14.515468067341992" lon="121.00405277194902"><ele>8.8</ele><time>2026-04-17T14:18:49Z</time></trkpt><trkpt lat="14.515508945907362" lon="121.00396783161918"><ele>8.600000000000001</ele><time>2026-04-17T14:18:50Z</time></trkpt><trkpt lat="14.515552135565214" lon="121.00387792456257"><ele>8.4</ele><time>2026-04-17T14:18:51Z</time></trkpt><trkpt lat="14.515598526161597" lon="121.0037798518982"><ele>8.200000000000001</ele><time>2026-04-17T14:18:52Z</time></trkpt><trkpt lat="14.51564073556452" lon="121.00369015691331"><ele>8.0</ele><time>2026-04-17T14:18:53Z</time></trkpt><trkpt lat="14.515680227178871" lon="121.00360520060296"><ele>8.0</ele><time>2026-04-17T14:18:54Z</time></trkpt><trkpt lat="14.515726819129146" lon="121.00350349036475"><ele>8.0</ele><time>2026-04-17T14:18:55Z</time></trkpt><trkpt lat="14.515774363059423" lon="121.0034076218738"><ele>8.0</ele><time>2026-04-17T14:18:56Z</time></trkpt><trkpt lat="14.515823664504452" lon="121.00331039926228"><ele>8.0</ele><time>2026-04-17T14:18:57Z</time></trkpt><trkpt lat="14.515875028568768" lon="121.00320910914093"><ele>8.0</ele><time>2026-04-17T14:18:58Z</time></trkpt><trkpt lat="14.515923429747609" lon="121.00311370636852"><ele>7.5</ele><time>2026-04-17T14:18:59Z</time></trkpt><trkpt lat="14.51598175499556" lon="121.00299876996002"><ele>7.0</ele><time>2026-04-17T14:19:00Z</time></trkpt><trkpt lat="14.516037425268195" lon="121.0028940258539"><ele>6.5</ele><time>2026-04-17T14:19:01Z</time></trkpt><trkpt lat="14.516096119751722" lon="121.00277987109236"><ele>6.0</ele><time>2026-04-17T14:19:02Z</time></trkpt><trkpt lat="14.516156088982648" lon="121.00266119651103"><ele>6.0</ele><time>2026-04-17T14:19:03Z</time></trkpt><trkpt lat="14.516204725583552" lon="121.00256547803433"><ele>6.0</ele><time>2026-04-17T14:19:04Z</time></trkpt><trkpt lat="14.516255565389308" lon="121.00246606826279"><ele>6.0</ele><time>2026-04-17T14:19:05Z</time></trkpt><trkpt lat="14.516316725796816" lon="121.00234647807511"><ele>6.0</ele><time>2026-04-17T14:19:06Z</time></trkpt><trkpt lat="14.516368549634702" lon="121.0022451441699"><ele>6.25</ele><time>2026-04-17T14:19:07Z</time></trkpt><trkpt lat="14.516418525447618" lon="121.00214710576009"><ele>6.5</ele><time>2026-04-17T14:19:08Z</time></trkpt><trkpt lat="14.516472069077158" lon="121.00204139330042"><ele>6.75</ele><time>2026-04-17T14:19:09Z</time></trkpt><trkpt lat="14.516434670070364" lon="121.00189481518669"><ele>7.0</ele><time>2026-04-17T14:19:10Z</time></trkpt><trkpt lat="14.516488445633993" lon="121.00178360639123"><ele>7.0</ele><time>2026-04-17T14:19:11Z</time></trkpt><trkpt lat="14.516541472717089" lon="121.00167331920996"><ele>7.0</ele><time>2026-04-17T14:19:12Z</time></trkpt><trkpt lat="14.516597221744517" lon="121.00156774320466"><ele>7.0</ele><time>2026-04-17T14:19:13Z</time></trkpt><trkpt lat="14.516654198989716" lon="121.00146022467311"><ele>7.0</ele><time>2026-04-17T14:19:14Z</time></trkpt><trkpt lat="14.516704998927068" lon="121.0013228419894"><ele>6.75</ele><time>2026-04-17T14:19:15Z</time></trkpt><trkpt lat="14.516751950352432" lon="121.00119046571672"><ele>6.5</ele><time>2026-04-17T14:19:16Z</time></trkpt><trkpt lat="14.516793260309264" lon="121.0010686227592"><ele>6.25</ele><time>2026-04-17T14:19:17Z</time></trkpt><trkpt lat="14.516829278589887" lon="121.0009442362544"><ele>6.0</ele><time>2026-04-17T14:19:18Z</time></trkpt><trkpt lat="14.516859377853942" lon="121.00082088055062"><ele>5.75</ele><time>2026-04-17T14:19:19Z</time></trkpt><trkpt lat="14.5168758256645" lon="121.00068717310673"><ele>5.5</ele><time>2026-04-17T14:19:20Z</time></trkpt><trkpt lat="14.516890675711224" lon="121.00055411289479"><ele>5.25</ele><time>2026-04-17T14:19:21Z</time></trkpt><trkpt lat="14.516909815654877" lon="121.00041570367102"><ele>5.0</ele><time>2026-04-17T14:19:22Z</time></trkpt><trkpt lat="14.516920962388584" lon="121.00029645592375"><ele>5.0</ele><time>2026-04-17T14:19:23Z</time></trkpt><trkpt lat="14.51692054725809" lon="121.00016029452895"><ele>5.0</ele><time>2026-04-17T14:19:24Z</time></trkpt><trkpt lat="14.516919810289156" lon="121.00000356330281"><ele>5.0</ele><time>2026-04-17T14:19:25Z</time></trkpt><trkpt lat="14.516927520598378" lon="120.9998544541433"><ele>5.0</ele><time>2026-04-17T14:19:26Z</time></trkpt><trkpt lat="14.516987876843844" lon="120.9997172793816"><ele>5.0</ele><time>2026-04-17T14:19:27Z</time></trkpt><trkpt lat="14.516987147864045" lon="120.99958547884768"><ele>5.0</ele><time>2026-04-17T14:19:28Z</time></trkpt><trkpt lat="14.516985802322186" lon="120.99945162719078"><ele>5.0</ele><time>2026-04-17T14:19:29Z</time></trkpt><trkpt lat="14.516985035406556" lon="120.99931552959384"><ele>5.0</ele><time>2026-04-17T14:19:30Z</time></trkpt><trkpt lat="14.516986052324748" lon="120.99918430469737"><ele>5.25</ele><time>2026-04-17T14:19:31Z</time></trkpt><trkpt lat="14.516987580255776" lon="120.99905662563707"><ele>5.5</ele><time>2026-04-17T14:19:32Z</time></trkpt><trkpt lat="14.51699085982844" lon="120.99892039320514"><ele>5.75</ele><time>2026-04-17T14:19:33Z</time></trkpt><trkpt lat="14.516998904132427" lon="120.99877905135963"><ele>6.0</ele><time>2026-04-17T14:19:34Z</time></trkpt><trkpt lat="14.517007458279274" lon="120.99863221496928"><ele>6.0</ele><time>2026-04-17T14:19:35Z</time></trkpt><trkpt lat="14.517015941620128" lon="120.9984897776037"><ele>6.0</ele><time>2026-04-17T14:19:36Z</time></trkpt><trkpt lat="14.517016180591648" lon="120.99836770182446"><ele>6.0</ele><time>2026-04-17T14:19:37Z</time></trkpt><trkpt lat="14.51702559963017" lon="120.99826082944209"><ele>6.0</ele><time>2026-04-17T14:19:38Z</time></trkpt><trkpt lat="14.517025897270106" lon="120.99814766589343"><ele>5.8</ele><time>2026-04-17T14:19:39Z</time></trkpt><trkpt lat="14.517026045114411" lon="120.99803976948242"><ele>5.6</ele><time>2026-04-17T14:19:40Z</time></trkpt><trkpt lat="14.517033279403261" lon="120.99794482307487"><ele>5.4</ele><time>2026-04-17T14:19:41Z</time></trkpt><trkpt lat="14.517040159319588" lon="120.99785748569295"><ele>5.2</ele><time>2026-04-17T14:19:42Z</time></trkpt><trkpt lat="14.517041884093532" lon="120.99777548048269"><ele>5.0</ele><time>2026-04-17T14:19:43Z</time></trkpt><trkpt lat="14.517035578078918" lon="120.99767924478093"><ele>5.0</ele><time>2026-04-17T14:19:44Z</time></trkpt><trkpt lat="14.517042192768772" lon="120.99758645957792"><ele>5.0</ele><time>2026-04-17T14:19:45Z</time></trkpt><trkpt lat="14.517052973717046" lon="120.9975075169638"><ele>5.0</ele><time>2026-04-17T14:19:46Z</time></trkpt><trkpt lat="14.517058322697668" lon="120.99741696778294"><ele>5.0</ele><time>2026-04-17T14:19:47Z</time></trkpt><trkpt lat="14.517074224990706" lon="120.99731786681555"><ele>5.0</ele><time>2026-04-17T14:19:48Z</time></trkpt><trkpt lat="14.51708872087756" lon="120.99720711818885"><ele>4.75</ele><time>2026-04-17T14:19:49Z</time></trkpt><trkpt lat="14.517112362935428" lon="120.99709085449192"><ele>4.5</ele><time>2026-04-17T14:19:50Z</time></trkpt><trkpt lat="14.517119060866575" lon="120.99698327993882"><ele>4.25</ele><time>2026-04-17T14:19:51Z</time></trkpt><trkpt lat="14.51711926610865" lon="120.9968440591408"><ele>4.0</ele><time>2026-04-17T14:19:52Z</time></trkpt><trkpt lat="14.517129360584134" lon="120.99672998625319"><ele>4.5</ele><time>2026-04-17T14:19:53Z</time></trkpt><trkpt lat="14.517137275241534" lon="120.99662961063737"><ele>5.0</ele><time>2026-04-17T14:19:54Z</time></trkpt><trkpt lat="14.517137213934696" lon="120.99654725958712"><ele>5.5</ele><time>2026-04-17T14:19:55Z</time></trkpt><trkpt lat="14.517152755525" lon="120.99647709107232"><ele>6.0</ele><time>2026-04-17T14:19:56Z</time></trkpt><trkpt lat="14.517132833022787" lon="120.99641458255395"><ele>6.500000000000001</ele><time>2026-04-17T14:20:08Z</time></trkpt><trkpt lat="14.517158257570859" lon="120.99634142256971"><ele>7.0</ele><time>2026-04-17T14:22:02Z</time></trkpt><trkpt lat="14.517173536665842" lon="120.99623252876063"><ele>7.0</ele><time>2026-04-17T14:22:04Z</time></trkpt><trkpt lat="14.517182124287919" lon="120.9961517487183"><ele>6.999999999999999</ele><time>2026-04-17T14:22:05Z</time></trkpt><trkpt lat="14.517191882265026" lon="120.9960725378085"><ele>6.999999999999999</ele><time>2026-04-17T14:22:06Z</time></trkpt><trkpt lat="14.51720381761886" lon="120.99597716243915"><ele>7.0</ele><time>2026-04-17T14:22:07Z</time></trkpt><trkpt lat="14.517218194910004" lon="120.99585965229143"><ele>7.0</ele><time>2026-04-17T14:22:08Z</time></trkpt><trkpt lat="14.517233917621505" lon="120.99573114556017"><ele>7.0</ele><time>2026-04-17T14:22:09Z</time></trkpt><trkpt lat="14.517247757085055" lon="120.99561803128708"><ele>7.0</ele><time>2026-04-17T14:22:10Z</time></trkpt><trkpt lat="14.517263324957094" lon="120.99549079014328"><ele>7.0</ele><time>2026-04-17T14:22:11Z</time></trkpt><trkpt lat="14.517278682273945" lon="120.99535922662088"><ele>7.0</ele><time>2026-04-17T14:22:12Z</time></trkpt><trkpt lat="14.517285980293602" lon="120.9952266599633"><ele>7.0</ele><time>2026-04-17T14:22:13Z</time></trkpt><trkpt lat="14.517304096013635" lon="120.99509177623817"><ele>7.0</ele><time>2026-04-17T14:22:14Z</time></trkpt><trkpt lat="14.517324877065333" lon="120.9949560929797"><ele>7.0</ele><time>2026-04-17T14:22:15Z</time></trkpt><trkpt lat="14.517342574147104" lon="120.99482930222688"><ele>7.0</ele><time>2026-04-17T14:22:16Z</time></trkpt><trkpt lat="14.517352774929556" lon="120.99471387479926"><ele>7.199999999999999</ele><time>2026-04-17T14:22:17Z</time></trkpt><trkpt lat="14.517384822896084" lon="120.99459689091297"><ele>7.3999999999999995</ele><time>2026-04-17T14:22:18Z</time></trkpt><trkpt lat="14.517406856606943" lon="120.99447848305715"><ele>7.6000000000000005</ele><time>2026-04-17T14:22:19Z</time></trkpt><trkpt lat="14.51743808074577" lon="120.99438089446615"><ele>7.800000000000001</ele><time>2026-04-17T14:22:20Z</time></trkpt><trkpt lat="14.517441512515255" lon="120.99426894089245"><ele>8.0</ele><time>2026-04-17T14:22:21Z</time></trkpt><trkpt lat="14.517446667197067" lon="120.99415237790625"><ele>8.200000000000001</ele><time>2026-04-17T14:22:22Z</time></trkpt><trkpt lat="14.517456468214728" lon="120.99404015582792"><ele>8.4</ele><time>2026-04-17T14:22:23Z</time></trkpt><trkpt lat="14.517467695737409" lon="120.99391838901225"><ele>8.600000000000001</ele><time>2026-04-17T14:22:24Z</time></trkpt><trkpt lat="14.517479358478461" lon="120.99381515888349"><ele>8.8</ele><time>2026-04-17T14:22:25Z</time></trkpt><trkpt lat="14.517491591519239" lon="120.99372441723756"><ele>9.0</ele><time>2026-04-17T14:22:26Z</time></trkpt><trkpt lat="14.517517748428673" lon="120.99363194500471"><ele>9.0</ele><time>2026-04-17T14:22:27Z</time></trkpt><trkpt lat="14.517555520718467" lon="120.99356001024687"><ele>9.0</ele><time>2026-04-17T14:22:28Z</time></trkpt><trkpt lat="14.517608617398974" lon="120.99349351004446"><ele>9.0</ele><time>2026-04-17T14:22:29Z</time></trkpt><trkpt lat="14.517672331875588" lon="120.99348617062404"><ele>9.0</ele><time>2026-04-17T14:22:30Z</time></trkpt><trkpt lat="14.517734525336676" lon="120.99345642462268"><ele>9.0</ele><time>2026-04-17T14:22:31Z</time></trkpt><trkpt lat="14.517837663578108" lon="120.99345494414437"><ele>9.0</ele><time>2026-04-17T14:22:32Z</time></trkpt><trkpt lat="14.517938963053064" lon="120.99343870108235"><ele>12.0</ele><time>2026-04-17T14:22:33Z</time></trkpt><trkpt lat="14.518054918455988" lon="120.99344484776577"><ele>15.0</ele><time>2026-04-17T14:22:34.001Z</time></trkpt><trkpt lat="14.518185676982506" lon="120.99344805037398"><ele>18.0</ele><time>2026-04-17T14:22:35.001Z</time></trkpt><trkpt lat="14.51832573620695" lon="120.99345679006096"><ele>21.0</ele><time>2026-04-17T14:22:36.001Z</time></trkpt><trkpt lat="14.518475248209477" lon="120.99347095030953"><ele>21.0</ele><time>2026-04-17T14:22:37.001Z</time></trkpt><trkpt lat="14.518633296999406" lon="120.99348407157362"><ele>21.0</ele><time>2026-04-17T14:22:38.001Z</time></trkpt><trkpt lat="14.51879074528675" lon="120.99351656614732"><ele>21.0</ele><time>2026-04-17T14:22:39.001Z</time></trkpt><trkpt lat="14.518959709478807" lon="120.99353240654278"><ele>23.0</ele><time>2026-04-17T14:22:40.001Z</time></trkpt><trkpt lat="14.51913584946008" lon="120.99354591630156"><ele>25.0</ele><time>2026-04-17T14:22:41.001Z</time></trkpt><trkpt lat="14.519325077196372" lon="120.99355883506114"><ele>27.0</ele><time>2026-04-17T14:22:42.001Z</time></trkpt><trkpt lat="14.519507372867" lon="120.99357128162842"><ele>20.666666666666668</ele><time>2026-04-17T14:22:43.001Z</time></trkpt><trkpt lat="14.519702790602203" lon="120.99358462412688"><ele>14.333333333333332</ele><time>2026-04-17T14:22:44.001Z</time></trkpt><trkpt lat="14.51989496145628" lon="120.99359784918691"><ele>8.0</ele><time>2026-04-17T14:22:45.001Z</time></trkpt><trkpt lat="14.520089895731461" lon="120.9936118205199"><ele>8.0</ele><time>2026-04-17T14:22:46.001Z</time></trkpt><trkpt lat="14.5202867983063" lon="120.9936260704397"><ele>8.0</ele><time>2026-04-17T14:22:47.001Z</time></trkpt><trkpt lat="14.520491945337675" lon="120.99364091701314"><ele>8.0</ele><time>2026-04-17T14:22:48.001Z</time></trkpt><trkpt lat="14.520699242480436" lon="120.99365577772934"><ele>7.0</ele><time>2026-04-17T14:22:49.001Z</time></trkpt><trkpt lat="14.520913879242038" lon="120.99367098721878"><ele>6.0</ele><time>2026-04-17T14:22:50.001Z</time></trkpt><trkpt lat="14.521122617436005" lon="120.99368481345954"><ele>5.0</ele><time>2026-04-17T14:22:51.001Z</time></trkpt><trkpt lat="14.521340912201246" lon="120.9936990930059"><ele>5.0</ele><time>2026-04-17T14:22:52.001Z</time></trkpt><trkpt lat="14.521549189751477" lon="120.9937170319825"><ele>5.0</ele><time>2026-04-17T14:22:53.001Z</time></trkpt><trkpt lat="14.521774145875245" lon="120.99372528912785"><ele>5.0</ele><time>2026-04-17T14:22:54.001Z</time></trkpt><trkpt lat="14.521987156992685" lon="120.99373578666805"><ele>5.0</ele><time>2026-04-17T14:22:55.001Z</time></trkpt><trkpt lat="14.522208273932225" lon="120.99374483477513"><ele>5.0</ele><time>2026-04-17T14:22:56.001Z</time></trkpt><trkpt lat="14.522428587513058" lon="120.99374820951763"><ele>5.0</ele><time>2026-04-17T14:22:57Z</time></trkpt><trkpt lat="14.522646090010504" lon="120.99374820951658"><ele>5.0</ele><time>2026-04-17T14:22:58Z</time></trkpt><trkpt lat="14.522858775229333" lon="120.99375326355786"><ele>5.0</ele><time>2026-04-17T14:22:59Z</time></trkpt><trkpt lat="14.523099011656772" lon="120.99375742376502"><ele>6.5</ele><time>2026-04-17T14:23:00Z</time></trkpt><trkpt lat="14.523351104213615" lon="120.9937617892652"><ele>8.0</ele><time>2026-04-17T14:23:01Z</time></trkpt><trkpt lat="14.523608319173047" lon="120.9937771097871"><ele>8.0</ele><time>2026-04-17T14:23:02Z</time></trkpt><trkpt lat="14.523810324126112" lon="120.99376521494018"><ele>8.0</ele><time>2026-04-17T14:23:03Z</time></trkpt><trkpt lat="14.524013676479672" lon="120.99375469339142"><ele>8.0</ele><time>2026-04-17T14:23:04Z</time></trkpt><trkpt lat="14.524244213545826" lon="120.99375611921973"><ele>8.0</ele><time>2026-04-17T14:23:05Z</time></trkpt><trkpt lat="14.52446531005103" lon="120.99376700839458"><ele>8.0</ele><time>2026-04-17T14:23:06Z</time></trkpt><trkpt lat="14.5246963793515" lon="120.99375127522505"><ele>8.5</ele><time>2026-04-17T14:23:07Z</time></trkpt><trkpt lat="14.524931757572043" lon="120.99375543207003"><ele>9.0</ele><time>2026-04-17T14:23:08Z</time></trkpt><trkpt lat="14.525155511840188" lon="120.99376117425567"><ele>9.0</ele><time>2026-04-17T14:23:09Z</time></trkpt><trkpt lat="14.525354877546114" lon="120.99375556395921"><ele>9.0</ele><time>2026-04-17T14:23:10Z</time></trkpt><trkpt lat="14.525538326650604" lon="120.99376180173124"><ele>9.0</ele><time>2026-04-17T14:23:11Z</time></trkpt><trkpt lat="14.525684984902465" lon="120.99376914196897"><ele>10.5</ele><time>2026-04-17T14:23:12Z</time></trkpt><trkpt lat="14.525825256553974" lon="120.9937809225117"><ele>12.0</ele><time>2026-04-17T14:23:13Z</time></trkpt><trkpt lat="14.525948513788961" lon="120.99378683439068"><ele>13.5</ele><time>2026-04-17T14:23:14Z</time></trkpt><trkpt lat="14.526081682034986" lon="120.99377814501982"><ele>15.0</ele><time>2026-04-17T14:23:15Z</time></trkpt><trkpt lat="14.5261913204603" lon="120.99377702928584"><ele>13.666666666666666</ele><time>2026-04-17T14:23:16Z</time></trkpt><trkpt lat="14.526288450446177" lon="120.99377478962381"><ele>12.333333333333334</ele><time>2026-04-17T14:23:17Z</time></trkpt><trkpt lat="14.526369357751593" lon="120.99377524431387"><ele>11.0</ele><time>2026-04-17T14:23:18Z</time></trkpt><trkpt lat="14.526439729142812" lon="120.99377544211262"><ele>9.666666666666668</ele><time>2026-04-17T14:23:19Z</time></trkpt><trkpt lat="14.52653861551932" lon="120.99376826454092"><ele>8.333333333333334</ele><time>2026-04-17T14:23:21Z</time></trkpt><trkpt lat="14.526616233073636" lon="120.99375951159195"><ele>7.0</ele><time>2026-04-17T14:23:23Z</time></trkpt><trkpt lat="14.526695782894086" lon="120.99375453222754"><ele>7.000000000000001</ele><time>2026-04-17T14:23:25Z</time></trkpt><trkpt lat="14.526785452850667" lon="120.99375692619236"><ele>7.0</ele><time>2026-04-17T14:23:28Z</time></trkpt><trkpt lat="14.526857038685451" lon="120.9937537823459"><ele>7.0</ele><time>2026-04-17T14:23:31Z</time></trkpt><trkpt lat="14.526922280428037" lon="120.99374665515766"><ele>7.0</ele><time>2026-04-17T14:23:34Z</time></trkpt><trkpt lat="14.527002625368063" lon="120.99369964906069"><ele>7.000000000000001</ele><time>2026-04-17T14:24:27Z</time></trkpt><trkpt lat="14.527109313884969" lon="120.99369210422076"><ele>7.0</ele><time>2026-04-17T14:24:29Z</time></trkpt><trkpt lat="14.527192077206273" lon="120.99368189771683"><ele>7.6</ele><time>2026-04-17T14:24:30Z</time></trkpt><trkpt lat="14.527287132344288" lon="120.99366854168453"><ele>8.2</ele><time>2026-04-17T14:24:31Z</time></trkpt><trkpt lat="14.527386210138776" lon="120.99365462050075"><ele>8.8</ele><time>2026-04-17T14:24:32Z</time></trkpt><trkpt lat="14.527503987961643" lon="120.99363990673507"><ele>9.4</ele><time>2026-04-17T14:24:33Z</time></trkpt><trkpt lat="14.527614047867225" lon="120.99362662871246"><ele>10.0</ele><time>2026-04-17T14:24:34Z</time></trkpt><trkpt lat="14.527711698772277" lon="120.99361505516076"><ele>10.0</ele><time>2026-04-17T14:24:35Z</time></trkpt><trkpt lat="14.527835433666198" lon="120.99360039013298"><ele>10.0</ele><time>2026-04-17T14:24:36Z</time></trkpt><trkpt lat="14.527976797715517" lon="120.99358363570161"><ele>10.0</ele><time>2026-04-17T14:24:37Z</time></trkpt><trkpt lat="14.528115620143202" lon="120.99356718250118"><ele>10.0</ele><time>2026-04-17T14:24:38Z</time></trkpt><trkpt lat="14.528248510048636" lon="120.99355206559653"><ele>9.75</ele><time>2026-04-17T14:24:39Z</time></trkpt><trkpt lat="14.528381646585544" lon="120.99353696591103"><ele>9.5</ele><time>2026-04-17T14:24:40.001Z</time></trkpt><trkpt lat="14.528531385686472" lon="120.99351816261846"><ele>9.25</ele><time>2026-04-17T14:24:41.001Z</time></trkpt><trkpt lat="14.528678197175832" lon="120.99349994751343"><ele>9.0</ele><time>2026-04-17T14:24:42.001Z</time></trkpt><trkpt lat="14.528836136865674" lon="120.99348035170966"><ele>8.333333333333334</ele><time>2026-04-17T14:24:43.001Z</time></trkpt><trkpt lat="14.529009677315447" lon="120.99345882030141"><ele>7.666666666666667</ele><time>2026-04-17T14:24:44.001Z</time></trkpt><trkpt lat="14.529180090778082" lon="120.99343775849741"><ele>7.0</ele><time>2026-04-17T14:24:45.001Z</time></trkpt><trkpt lat="14.529358689482018" lon="120.99341587788491"><ele>7.0</ele><time>2026-04-17T14:24:46.001Z</time></trkpt><trkpt lat="14.529514059713335" lon="120.99339684306464"><ele>7.0</ele><time>2026-04-17T14:24:47.001Z</time></trkpt><trkpt lat="14.529691268278162" lon="120.99337513276613"><ele>7.0</ele><time>2026-04-17T14:24:48.001Z</time></trkpt><trkpt lat="14.529865544432788" lon="120.99335378172567"><ele>7.0</ele><time>2026-04-17T14:24:49.001Z</time></trkpt><trkpt lat="14.530019691780225" lon="120.99333489672321"><ele>7.0</ele><time>2026-04-17T14:24:50.001Z</time></trkpt><trkpt lat="14.53018257604527" lon="120.9933149413288"><ele>7.0</ele><time>2026-04-17T14:24:51.001Z</time></trkpt><trkpt lat="14.530361826764826" lon="120.99328091446868"><ele>5.666666666666667</ele><time>2026-04-17T14:24:52.001Z</time></trkpt><trkpt lat="14.530558604442021" lon="120.99325977494239"><ele>4.333333333333334</ele><time>2026-04-17T14:24:53Z</time></trkpt><trkpt lat="14.530755473416216" lon="120.99323771412067"><ele>3.0</ele><time>2026-04-17T14:24:54Z</time></trkpt><trkpt lat="14.530959113396294" lon="120.99321073148224"><ele>3.0</ele><time>2026-04-17T14:24:55Z</time></trkpt><trkpt lat="14.531150875278062" lon="120.99319805929476"><ele>3.0</ele><time>2026-04-17T14:24:56Z</time></trkpt><trkpt lat="14.531355070480947" lon="120.99318389912321"><ele>3.0</ele><time>2026-04-17T14:24:57Z</time></trkpt><trkpt lat="14.531556164489473" lon="120.99315216338216"><ele>4.0</ele><time>2026-04-17T14:24:58Z</time></trkpt><trkpt lat="14.531759933039785" lon="120.9931323331145"><ele>5.0</ele><time>2026-04-17T14:24:59Z</time></trkpt><trkpt lat="14.531960137749481" lon="120.99310800812006"><ele>6.0</ele><time>2026-04-17T14:25:00Z</time></trkpt><trkpt lat="14.532153374734454" lon="120.99309408450027"><ele>6.666666666666666</ele><time>2026-04-17T14:25:01Z</time></trkpt><trkpt lat="14.532363355175997" lon="120.99304770833267"><ele>7.333333333333333</ele><time>2026-04-17T14:25:02Z</time></trkpt><trkpt lat="14.532565702095887" lon="120.99301730548947"><ele>8.0</ele><time>2026-04-17T14:25:03Z</time></trkpt><trkpt lat="14.532769505302545" lon="120.99298760530819"><ele>9.666666666666666</ele><time>2026-04-17T14:25:04Z</time></trkpt><trkpt lat="14.532972539677367" lon="120.99296607127239"><ele>11.333333333333332</ele><time>2026-04-17T14:25:05Z</time></trkpt><trkpt lat="14.533170886423106" lon="120.99295527420419"><ele>13.0</ele><time>2026-04-17T14:25:06Z</time></trkpt><trkpt lat="14.533365011553263" lon="120.9929315058985"><ele>13.0</ele><time>2026-04-17T14:25:07Z</time></trkpt><trkpt lat="14.533554558489923" lon="120.99289897842812"><ele>13.0</ele><time>2026-04-17T14:25:08Z</time></trkpt><trkpt lat="14.533749057281044" lon="120.99288986890558"><ele>13.0</ele><time>2026-04-17T14:25:09Z</time></trkpt><trkpt lat="14.533945664964216" lon="120.99286648806039"><ele>11.0</ele><time>2026-04-17T14:25:10Z</time></trkpt><trkpt lat="14.53414029755695" lon="120.99285085720234"><ele>9.0</ele><time>2026-04-17T14:25:11Z</time></trkpt><trkpt lat="14.534327112373624" lon="120.9928299398736"><ele>7.0</ele><time>2026-04-17T14:25:12Z</time></trkpt><trkpt lat="14.53450726803251" lon="120.99283521694082"><ele>7.666666666666667</ele><time>2026-04-17T14:25:13Z</time></trkpt><trkpt lat="14.534700297285108" lon="120.9928314472518"><ele>8.333333333333334</ele><time>2026-04-17T14:25:14Z</time></trkpt><trkpt lat="14.534893967212565" lon="120.99281781891423"><ele>9.0</ele><time>2026-04-17T14:25:15Z</time></trkpt><trkpt lat="14.535095941440451" lon="120.9928017215901"><ele>9.0</ele><time>2026-04-17T14:25:16Z</time></trkpt><trkpt lat="14.535308057656668" lon="120.99277390174987"><ele>9.0</ele><time>2026-04-17T14:25:17Z</time></trkpt><trkpt lat="14.535541810918142" lon="120.99274346379082"><ele>9.0</ele><time>2026-04-17T14:25:18Z</time></trkpt><trkpt lat="14.535705743316589" lon="120.99272216386323"><ele>9.0</ele><time>2026-04-17T14:25:19Z</time></trkpt><trkpt lat="14.535906926339687" lon="120.99269547345452"><ele>9.0</ele><time>2026-04-17T14:25:20Z</time></trkpt><trkpt lat="14.536103482066556" lon="120.99260147023797"><ele>9.0</ele><time>2026-04-17T14:25:21Z</time></trkpt><trkpt lat="14.53629835114609" lon="120.99258352620744"><ele>10.666666666666668</ele><time>2026-04-17T14:25:22Z</time></trkpt><trkpt lat="14.53648494970489" lon="120.9925605774612"><ele>12.333333333333334</ele><time>2026-04-17T14:25:23Z</time></trkpt><trkpt lat="14.536654460620365" lon="120.99254402075026"><ele>14.0</ele><time>2026-04-17T14:25:24Z</time></trkpt><trkpt lat="14.536817614361487" lon="120.99253368388426"><ele>14.0</ele><time>2026-04-17T14:25:25Z</time></trkpt><trkpt lat="14.5369966483786" lon="120.99256612018868"><ele>14.0</ele><time>2026-04-17T14:25:26Z</time></trkpt><trkpt lat="14.537171016167932" lon="120.99250697326461"><ele>14.0</ele><time>2026-04-17T14:25:27Z</time></trkpt><trkpt lat="14.537358408760792" lon="120.99248663014983"><ele>12.333333333333334</ele><time>2026-04-17T14:25:28Z</time></trkpt><trkpt lat="14.537553605981048" lon="120.99246184764466"><ele>10.666666666666668</ele><time>2026-04-17T14:25:29Z</time></trkpt><trkpt lat="14.537750219454557" lon="120.99243683468858"><ele>9.0</ele><time>2026-04-17T14:25:30Z</time></trkpt><trkpt lat="14.53795309793927" lon="120.99241487041422"><ele>9.0</ele><time>2026-04-17T14:25:31Z</time></trkpt><trkpt lat="14.538161672017607" lon="120.99239139576619"><ele>9.0</ele><time>2026-04-17T14:25:32Z</time></trkpt><trkpt lat="14.53837425266049" lon="120.9923661984663"><ele>9.0</ele><time>2026-04-17T14:25:33Z</time></trkpt><trkpt lat="14.538584568898104" lon="120.99234646762199"><ele>8.0</ele><time>2026-04-17T14:25:34Z</time></trkpt><trkpt lat="14.53880004138837" lon="120.99232175119646"><ele>7.0</ele><time>2026-04-17T14:25:35Z</time></trkpt><trkpt lat="14.539018926674723" lon="120.9922972381048"><ele>6.0</ele><time>2026-04-17T14:25:36Z</time></trkpt><trkpt lat="14.539227182273539" lon="120.99227775459762"><ele>6.0</ele><time>2026-04-17T14:25:37Z</time></trkpt><trkpt lat="14.5394389549493" lon="120.99225511722689"><ele>6.0</ele><time>2026-04-17T14:25:38Z</time></trkpt><trkpt lat="14.539658618757933" lon="120.992235499907"><ele>6.0</ele><time>2026-04-17T14:25:39Z</time></trkpt><trkpt lat="14.539857102117319" lon="120.99219642520063"><ele>7.0</ele><time>2026-04-17T14:25:40Z</time></trkpt><trkpt lat="14.540062866000115" lon="120.99216407228963"><ele>8.0</ele><time>2026-04-17T14:25:41Z</time></trkpt><trkpt lat="14.540266852764647" lon="120.99213210198012"><ele>9.0</ele><time>2026-04-17T14:25:42Z</time></trkpt><trkpt lat="14.540453041511206" lon="120.99210949025856"><ele>12.666666666666668</ele><time>2026-04-17T14:25:43Z</time></trkpt><trkpt lat="14.540633677730208" lon="120.99210100889239"><ele>16.333333333333336</ele><time>2026-04-17T14:25:44Z</time></trkpt><trkpt lat="14.54080621089657" lon="120.99205767941446"><ele>20.0</ele><time>2026-04-17T14:25:45Z</time></trkpt><trkpt lat="14.540955110323573" lon="120.99203532807628"><ele>20.0</ele><time>2026-04-17T14:25:46Z</time></trkpt><trkpt lat="14.541120494622454" lon="120.99200767161102"><ele>20.0</ele><time>2026-04-17T14:25:47Z</time></trkpt><trkpt lat="14.54127828564596" lon="120.99198225395281"><ele>20.0</ele><time>2026-04-17T14:25:48Z</time></trkpt><trkpt lat="14.541443337844388" lon="120.99195769312595"><ele>15.666666666666668</ele><time>2026-04-17T14:25:49Z</time></trkpt><trkpt lat="14.541634617281932" lon="120.99191702649834"><ele>11.333333333333334</ele><time>2026-04-17T14:25:50Z</time></trkpt><trkpt lat="14.541830645565701" lon="120.99189532340334"><ele>7.0</ele><time>2026-04-17T14:25:51Z</time></trkpt><trkpt lat="14.541990834360904" lon="120.9918518281327"><ele>7.333333333333334</ele><time>2026-04-17T14:25:52Z</time></trkpt><trkpt lat="14.542173020056973" lon="120.99183979381228"><ele>7.666666666666666</ele><time>2026-04-17T14:25:53Z</time></trkpt><trkpt lat="14.542373406568634" lon="120.99180960336983"><ele>8.0</ele><time>2026-04-17T14:25:54Z</time></trkpt><trkpt lat="14.54257594335839" lon="120.99175906951486"><ele>8.0</ele><time>2026-04-17T14:25:55Z</time></trkpt><trkpt lat="14.54278394661902" lon="120.9917131127064"><ele>8.0</ele><time>2026-04-17T14:25:56Z</time></trkpt><trkpt lat="14.542996321127246" lon="120.99167634302836"><ele>8.0</ele><time>2026-04-17T14:25:57Z</time></trkpt><trkpt lat="14.543188086530359" lon="120.99165333225439"><ele>8.0</ele><time>2026-04-17T14:25:58Z</time></trkpt><trkpt lat="14.543385396384721" lon="120.99163761424009"><ele>8.0</ele><time>2026-04-17T14:25:59Z</time></trkpt><trkpt lat="14.543615737022531" lon="120.99157877170323"><ele>8.0</ele><time>2026-04-17T14:26:00Z</time></trkpt><trkpt lat="14.54382971059258" lon="120.9915390891191"><ele>8.0</ele><time>2026-04-17T14:26:01Z</time></trkpt><trkpt lat="14.544050187202542" lon="120.9914946876142"><ele>8.0</ele><time>2026-04-17T14:26:02Z</time></trkpt><trkpt lat="14.544280556605996" lon="120.99143975325768"><ele>8.0</ele><time>2026-04-17T14:26:03Z</time></trkpt><trkpt lat="14.54451024364914" lon="120.99139746339263"><ele>8.0</ele><time>2026-04-17T14:26:04Z</time></trkpt><trkpt lat="14.544705239072231" lon="120.991381528297"><ele>8.0</ele><time>2026-04-17T14:26:05Z</time></trkpt><trkpt lat="14.544917296152478" lon="120.99135011161479"><ele>7.666666666666666</ele><time>2026-04-17T14:26:06Z</time></trkpt><trkpt lat="14.545133267412227" lon="120.99130575541163"><ele>7.333333333333334</ele><time>2026-04-17T14:26:07Z</time></trkpt><trkpt lat="14.545343703141205" lon="120.99126632816139"><ele>7.0</ele><time>2026-04-17T14:26:08Z</time></trkpt><trkpt lat="14.54556012181605" lon="120.99120810884777"><ele>7.0</ele><time>2026-04-17T14:26:09Z</time></trkpt><trkpt lat="14.545772888630278" lon="120.99116151903183"><ele>7.0</ele><time>2026-04-17T14:26:10Z</time></trkpt><trkpt lat="14.54598870231052" lon="120.99110534421024"><ele>7.0</ele><time>2026-04-17T14:26:11Z</time></trkpt><trkpt lat="14.54620780668938" lon="120.99105544858483"><ele>8.666666666666668</ele><time>2026-04-17T14:26:12Z</time></trkpt><trkpt lat="14.546432295569696" lon="120.99099774048862"><ele>10.333333333333334</ele><time>2026-04-17T14:26:13Z</time></trkpt><trkpt lat="14.5466319743168" lon="120.99096682169318"><ele>12.0</ele><time>2026-04-17T14:26:14Z</time></trkpt><trkpt lat="14.546845368657525" lon="120.99093579085674"><ele>11.0</ele><time>2026-04-17T14:26:15Z</time></trkpt><trkpt lat="14.547047505632472" lon="120.99087544901204"><ele>10.0</ele><time>2026-04-17T14:26:16Z</time></trkpt><trkpt lat="14.54724895299994" lon="120.99081316476135"><ele>9.0</ele><time>2026-04-17T14:26:17Z</time></trkpt><trkpt lat="14.547453313307184" lon="120.99075478245977"><ele>8.666666666666666</ele><time>2026-04-17T14:26:18Z</time></trkpt><trkpt lat="14.547635534309174" lon="120.99072066024965"><ele>8.333333333333332</ele><time>2026-04-17T14:26:19Z</time></trkpt><trkpt lat="14.547807234298391" lon="120.99067972562545"><ele>8.0</ele><time>2026-04-17T14:26:20Z</time></trkpt><trkpt lat="14.547971377985903" lon="120.99063832210415"><ele>10.333333333333332</ele><time>2026-04-17T14:26:21Z</time></trkpt><trkpt lat="14.548130498975818" lon="120.99059708005079"><ele>12.666666666666666</ele><time>2026-04-17T14:26:22Z</time></trkpt><trkpt lat="14.548287154077553" lon="120.99056066753523"><ele>15.0</ele><time>2026-04-17T14:26:23Z</time></trkpt><trkpt lat="14.548442027304791" lon="120.99052780980732"><ele>15.0</ele><time>2026-04-17T14:26:24Z</time></trkpt><trkpt lat="14.54859191781921" lon="120.99049241860645"><ele>15.0</ele><time>2026-04-17T14:26:25Z</time></trkpt><trkpt lat="14.548737892081734" lon="120.99045479250805"><ele>15.0</ele><time>2026-04-17T14:26:26Z</time></trkpt><trkpt lat="14.548893398680612" lon="120.99041648044985"><ele>13.25</ele><time>2026-04-17T14:26:27Z</time></trkpt><trkpt lat="14.54904453239396" lon="120.99037715713533"><ele>11.5</ele><time>2026-04-17T14:26:28Z</time></trkpt><trkpt lat="14.549187506039123" lon="120.99033918196773"><ele>9.75</ele><time>2026-04-17T14:26:29Z</time></trkpt><trkpt lat="14.549321383409612" lon="120.99030455686814"><ele>8.0</ele><time>2026-04-17T14:26:30Z</time></trkpt><trkpt lat="14.54945022070134" lon="120.99027616149554"><ele>8.25</ele><time>2026-04-17T14:26:31Z</time></trkpt><trkpt lat="14.549584607855726" lon="120.99024478120398"><ele>8.5</ele><time>2026-04-17T14:26:32Z</time></trkpt><trkpt lat="14.549727760065082" lon="120.99021493864618"><ele>8.75</ele><time>2026-04-17T14:26:33Z</time></trkpt><trkpt lat="14.549870794867719" lon="120.99018328523786"><ele>9.0</ele><time>2026-04-17T14:26:34Z</time></trkpt><trkpt lat="14.550018708689997" lon="120.99015159536856"><ele>9.0</ele><time>2026-04-17T14:26:35Z</time></trkpt><trkpt lat="14.550167763554024" lon="120.99011907196412"><ele>9.0</ele><time>2026-04-17T14:26:36Z</time></trkpt><trkpt lat="14.550318089011745" lon="120.9900881286275"><ele>9.0</ele><time>2026-04-17T14:26:37Z</time></trkpt><trkpt lat="14.550473971794784" lon="120.99005221399216"><ele>9.0</ele><time>2026-04-17T14:26:38Z</time></trkpt><trkpt lat="14.55062183455513" lon="120.99001933991052"><ele>9.0</ele><time>2026-04-17T14:26:39Z</time></trkpt><trkpt lat="14.550754857143428" lon="120.98998818221554"><ele>9.0</ele><time>2026-04-17T14:26:40Z</time></trkpt><trkpt lat="14.550881055395577" lon="120.98996408821525"><ele>9.0</ele><time>2026-04-17T14:26:41Z</time></trkpt><trkpt lat="14.551004813721848" lon="120.98992953206547"><ele>9.0</ele><time>2026-04-17T14:26:42Z</time></trkpt><trkpt lat="14.551137461439428" lon="120.98990434416554"><ele>9.0</ele><time>2026-04-17T14:26:43Z</time></trkpt><trkpt lat="14.551247074421191" lon="120.98987397146652"><ele>9.0</ele><time>2026-04-17T14:26:44Z</time></trkpt><trkpt lat="14.551351607218917" lon="120.98984400113844"><ele>9.0</ele><time>2026-04-17T14:26:45Z</time></trkpt><trkpt lat="14.551460376370628" lon="120.98982453015955"><ele>9.0</ele><time>2026-04-17T14:26:46Z</time></trkpt><trkpt lat="14.551558080090029" lon="120.98980232749366"><ele>9.0</ele><time>2026-04-17T14:26:47Z</time></trkpt><trkpt lat="14.551649165523383" lon="120.98978026114804"><ele>9.0</ele><time>2026-04-17T14:26:48Z</time></trkpt><trkpt lat="14.551737545966475" lon="120.98976258101307"><ele>9.0</ele><time>2026-04-17T14:26:49Z</time></trkpt><trkpt lat="14.551814555162663" lon="120.98974301738876"><ele>9.0</ele><time>2026-04-17T14:26:50Z</time></trkpt><trkpt lat="14.551895102658126" lon="120.98973174092318"><ele>9.0</ele><time>2026-04-17T14:26:51Z</time></trkpt><trkpt lat="14.551964469649315" lon="120.9897177940662"><ele>9.166666666666666</ele><time>2026-04-17T14:26:52Z</time></trkpt><trkpt lat="14.552062207442757" lon="120.98969957363244"><ele>9.333333333333334</ele><time>2026-04-17T14:26:54Z</time></trkpt><trkpt lat="14.552162314462537" lon="120.98975216177074"><ele>9.5</ele><time>2026-04-17T14:26:56Z</time></trkpt><trkpt lat="14.552222388704065" lon="120.98980940936339"><ele>9.666666666666668</ele><time>2026-04-17T14:26:57Z</time></trkpt><trkpt lat="14.55224227412393" lon="120.9898836424157"><ele>9.833333333333334</ele><time>2026-04-17T14:26:58Z</time></trkpt><trkpt lat="14.552263176215718" lon="120.98995790389716"><ele>10.0</ele><time>2026-04-17T14:26:59Z</time></trkpt><trkpt lat="14.552287797165974" lon="120.9900402946285"><ele>10.0</ele><time>2026-04-17T14:27:00Z</time></trkpt><trkpt lat="14.552306601443355" lon="120.99011951034258"><ele>10.0</ele><time>2026-04-17T14:27:01Z</time></trkpt><trkpt lat="14.552354660531883" lon="120.99025422684458"><ele>10.0</ele><time>2026-04-17T14:27:02Z</time></trkpt><trkpt lat="14.552395734625561" lon="120.99037295864836"><ele>10.0</ele><time>2026-04-17T14:27:03Z</time></trkpt><trkpt lat="14.552431450920725" lon="120.99049472818868"><ele>10.0</ele><time>2026-04-17T14:27:04Z</time></trkpt><trkpt lat="14.55247732972732" lon="120.99062096904103"><ele>10.0</ele><time>2026-04-17T14:27:05Z</time></trkpt><trkpt lat="14.552518789740247" lon="120.99074605998743"><ele>10.0</ele><time>2026-04-17T14:27:06Z</time></trkpt><trkpt lat="14.552564259307529" lon="120.99087451966875"><ele>10.0</ele><time>2026-04-17T14:27:07Z</time></trkpt><trkpt lat="14.552611028871384" lon="120.99100541968865"><ele>10.0</ele><time>2026-04-17T14:27:08Z</time></trkpt><trkpt lat="14.552654308304513" lon="120.99113944032777"><ele>10.0</ele><time>2026-04-17T14:27:09Z</time></trkpt><trkpt lat="14.552695610426154" lon="120.99127705384477"><ele>10.0</ele><time>2026-04-17T14:27:10Z</time></trkpt><trkpt lat="14.552739717550905" lon="120.99141428493131"><ele>10.0</ele><time>2026-04-17T14:27:11Z</time></trkpt><trkpt lat="14.552787941315287" lon="120.99155173496774"><ele>10.0</ele><time>2026-04-17T14:27:12Z</time></trkpt><trkpt lat="14.552829678680416" lon="120.99168763441465"><ele>10.0</ele><time>2026-04-17T14:27:13Z</time></trkpt><trkpt lat="14.552866460967838" lon="120.99182387484858"><ele>10.0</ele><time>2026-04-17T14:27:14Z</time></trkpt><trkpt lat="14.55291125377047" lon="120.99196245655959"><ele>10.0</ele><time>2026-04-17T14:27:15Z</time></trkpt><trkpt lat="14.552948653361986" lon="120.99210262305056"><ele>10.0</ele><time>2026-04-17T14:27:16Z</time></trkpt><trkpt lat="14.552983369951576" lon="120.99224458969017"><ele>10.0</ele><time>2026-04-17T14:27:17Z</time></trkpt><trkpt lat="14.553029903866072" lon="120.9923960155078"><ele>10.0</ele><time>2026-04-17T14:27:18Z</time></trkpt><trkpt lat="14.553074447240169" lon="120.99254786604018"><ele>10.0</ele><time>2026-04-17T14:27:19Z</time></trkpt><trkpt lat="14.553115705820403" lon="120.99270562804863"><ele>9.75</ele><time>2026-04-17T14:27:20Z</time></trkpt><trkpt lat="14.553153954975118" lon="120.99286910317318"><ele>9.5</ele><time>2026-04-17T14:27:21Z</time></trkpt><trkpt lat="14.553181370825653" lon="120.99301528916638"><ele>9.25</ele><time>2026-04-17T14:27:22Z</time></trkpt><trkpt lat="14.553205809880827" lon="120.99315467688983"><ele>9.0</ele><time>2026-04-17T14:27:23Z</time></trkpt><trkpt lat="14.553227079635876" lon="120.99328499462707"><ele>9.25</ele><time>2026-04-17T14:27:24Z</time></trkpt><trkpt lat="14.553244253905481" lon="120.99341108292774"><ele>9.5</ele><time>2026-04-17T14:27:25Z</time></trkpt><trkpt lat="14.553260010686035" lon="120.99352988982179"><ele>9.75</ele><time>2026-04-17T14:27:26Z</time></trkpt><trkpt lat="14.553278111108977" lon="120.99364491622242"><ele>10.0</ele><time>2026-04-17T14:27:27Z</time></trkpt><trkpt lat="14.553291617676619" lon="120.99375148210856"><ele>10.0</ele><time>2026-04-17T14:27:28Z</time></trkpt><trkpt lat="14.553307559383052" lon="120.99386417199017"><ele>10.0</ele><time>2026-04-17T14:27:29Z</time></trkpt><trkpt lat="14.553317239025695" lon="120.99395826329815"><ele>10.0</ele><time>2026-04-17T14:27:30Z</time></trkpt><trkpt lat="14.553330493035961" lon="120.99404928267137"><ele>10.0</ele><time>2026-04-17T14:27:31Z</time></trkpt><trkpt lat="14.553340821836706" lon="120.99413302234301"><ele>10.0</ele><time>2026-04-17T14:27:32Z</time></trkpt><trkpt lat="14.553353562605785" lon="120.99420929964363"><ele>10.0</ele><time>2026-04-17T14:27:33Z</time></trkpt><trkpt lat="14.553363081181509" lon="120.99428720596016"><ele>9.4</ele><time>2026-04-17T14:27:34Z</time></trkpt><trkpt lat="14.553379457120677" lon="120.99435265279996"><ele>8.8</ele><time>2026-04-17T14:27:35Z</time></trkpt><trkpt lat="14.553410862114355" lon="120.99447354368563"><ele>8.2</ele><time>2026-04-17T14:27:37Z</time></trkpt><trkpt lat="14.553418499791645" lon="120.99456214393837"><ele>7.6</ele><time>2026-04-17T14:27:38Z</time></trkpt><trkpt lat="14.553426893412317" lon="120.99467109346436"><ele>7.0</ele><time>2026-04-17T14:27:39Z</time></trkpt><trkpt lat="14.553439221837257" lon="120.99480020877022"><ele>7.0</ele><time>2026-04-17T14:27:40Z</time></trkpt><trkpt lat="14.553455367695786" lon="120.99493852627592"><ele>7.0</ele><time>2026-04-17T14:27:41Z</time></trkpt><trkpt lat="14.553470316390637" lon="120.99505531140241"><ele>7.0</ele><time>2026-04-17T14:27:42Z</time></trkpt><trkpt lat="14.553492720696795" lon="120.99517725985841"><ele>7.0</ele><time>2026-04-17T14:27:43Z</time></trkpt><trkpt lat="14.553506271393655" lon="120.99528577628263"><ele>8.2</ele><time>2026-04-17T14:27:44Z</time></trkpt><trkpt lat="14.553526492868203" lon="120.99539103124977"><ele>9.399999999999999</ele><time>2026-04-17T14:27:45Z</time></trkpt><trkpt lat="14.553550358003438" lon="120.99550579217446"><ele>10.600000000000001</ele><time>2026-04-17T14:27:46Z</time></trkpt><trkpt lat="14.553575548262963" lon="120.99562324412683"><ele>11.8</ele><time>2026-04-17T14:27:47Z</time></trkpt><trkpt lat="14.553600758049194" lon="120.99573620387993"><ele>13.0</ele><time>2026-04-17T14:27:48Z</time></trkpt><trkpt lat="14.553627413645135" lon="120.99585540985808"><ele>13.600000000000001</ele><time>2026-04-17T14:27:49Z</time></trkpt><trkpt lat="14.553652244668879" lon="120.9959693163515"><ele>14.200000000000001</ele><time>2026-04-17T14:27:50Z</time></trkpt><trkpt lat="14.553673760885365" lon="120.99607571715133"><ele>14.8</ele><time>2026-04-17T14:27:51Z</time></trkpt><trkpt lat="14.553697485868913" lon="120.99618163754556"><ele>15.4</ele><time>2026-04-17T14:27:52Z</time></trkpt><trkpt lat="14.553722371004403" lon="120.99629029885827"><ele>16.0</ele><time>2026-04-17T14:27:53Z</time></trkpt><trkpt lat="14.55374684082762" lon="120.99640110208863"><ele>14.600000000000001</ele><time>2026-04-17T14:27:54Z</time></trkpt><trkpt lat="14.553771328092543" lon="120.99650690479619"><ele>13.200000000000001</ele><time>2026-04-17T14:27:55Z</time></trkpt><trkpt lat="14.553799684706279" lon="120.99661520303113"><ele>11.8</ele><time>2026-04-17T14:27:56Z</time></trkpt><trkpt lat="14.553826337694554" lon="120.99670984829388"><ele>10.4</ele><time>2026-04-17T14:27:57Z</time></trkpt><trkpt lat="14.553849869496602" lon="120.99679739197954"><ele>9.0</ele><time>2026-04-17T14:27:58Z</time></trkpt><trkpt lat="14.553875284844551" lon="120.99687848891762"><ele>8.4</ele><time>2026-04-17T14:27:59Z</time></trkpt><trkpt lat="14.5539020348564" lon="120.99699062721501"><ele>7.800000000000001</ele><time>2026-04-17T14:28:01Z</time></trkpt><trkpt lat="14.55393035737762" lon="120.99705389740005"><ele>7.199999999999999</ele><time>2026-04-17T14:28:03Z</time></trkpt><trkpt lat="14.554066350238585" lon="120.99711393518174"><ele>6.6</ele><time>2026-04-17T14:29:00Z</time></trkpt><trkpt lat="14.554136470450564" lon="120.99712716922782"><ele>6.0</ele><time>2026-04-17T14:29:01Z</time></trkpt><trkpt lat="14.554241607255417" lon="120.99710776434102"><ele>6.0</ele><time>2026-04-17T14:29:03Z</time></trkpt><trkpt lat="14.554333210292258" lon="120.99710323549293"><ele>6.0</ele><time>2026-04-17T14:29:06Z</time></trkpt><trkpt lat="14.554415395791432" lon="120.99708234927877"><ele>6.0</ele><time>2026-04-17T14:29:09Z</time></trkpt><trkpt lat="14.554483597847174" lon="120.99706662401368"><ele>6.0</ele><time>2026-04-17T14:29:10Z</time></trkpt><trkpt lat="14.554560740100422" lon="120.99706717507202"><ele>6.0</ele><time>2026-04-17T14:29:12Z</time></trkpt><trkpt lat="14.554717338760957" lon="120.99705153355201"><ele>6.6</ele><time>2026-04-17T14:29:14Z</time></trkpt><trkpt lat="14.55482118406233" lon="120.9970211058393"><ele>7.199999999999999</ele><time>2026-04-17T14:29:15Z</time></trkpt><trkpt lat="14.554918113341296" lon="120.99699200180709"><ele>7.800000000000001</ele><time>2026-04-17T14:29:16Z</time></trkpt><trkpt lat="14.55501895235137" lon="120.99697500441785"><ele>8.4</ele><time>2026-04-17T14:29:17Z</time></trkpt><trkpt lat="14.555122147101162" lon="120.99695812034739"><ele>9.0</ele><time>2026-04-17T14:29:18Z</time></trkpt><trkpt lat="14.555221770280514" lon="120.9969366881386"><ele>9.0</ele><time>2026-04-17T14:29:19Z</time></trkpt><trkpt lat="14.555328241827754" lon="120.99691606527477"><ele>9.0</ele><time>2026-04-17T14:29:20Z</time></trkpt><trkpt lat="14.555410841448918" lon="120.99689186273957"><ele>9.0</ele><time>2026-04-17T14:29:21Z</time></trkpt><trkpt lat="14.555484436741283" lon="120.99687966836323"><ele>9.0</ele><time>2026-04-17T14:29:22Z</time></trkpt><trkpt lat="14.555547627814791" lon="120.99687228635992"><ele>9.0</ele><time>2026-04-17T14:29:23Z</time></trkpt><trkpt lat="14.555611679062848" lon="120.99685832831489"><ele>9.0</ele><time>2026-04-17T14:29:24Z</time></trkpt><trkpt lat="14.555701274928154" lon="120.99683484805239"><ele>9.0</ele><time>2026-04-17T14:29:26Z</time></trkpt><trkpt lat="14.55580532884967" lon="120.99682081504945"><ele>9.0</ele><time>2026-04-17T14:29:28Z</time></trkpt><trkpt lat="14.555882542932082" lon="120.99678861580088"><ele>9.0</ele><time>2026-04-17T14:29:30Z</time></trkpt><trkpt lat="14.555933051736233" lon="120.99674965204679"><ele>9.0</ele><time>2026-04-17T14:29:48Z</time></trkpt><trkpt lat="14.555996490152717" lon="120.99673150321607"><ele>9.0</ele><time>2026-04-17T14:30:21Z</time></trkpt><trkpt lat="14.556060714175164" lon="120.99671693677236"><ele>9.0</ele><time>2026-04-17T14:30:24Z</time></trkpt><trkpt lat="14.556139191586595" lon="120.99670486687609"><ele>9.166666666666666</ele><time>2026-04-17T14:32:12Z</time></trkpt><trkpt lat="14.55620861455066" lon="120.99668986294006"><ele>9.333333333333334</ele><time>2026-04-17T14:32:20Z</time></trkpt><trkpt lat="14.556285888519497" lon="120.99666270127948"><ele>9.5</ele><time>2026-04-17T14:32:24Z</time></trkpt><trkpt lat="14.556368480358945" lon="120.99664224373711"><ele>9.666666666666668</ele><time>2026-04-17T14:32:26Z</time></trkpt><trkpt lat="14.556447559564441" lon="120.99662438980066"><ele>9.833333333333334</ele><time>2026-04-17T14:32:28Z</time></trkpt><trkpt lat="14.556536120318345" lon="120.99660361642007"><ele>10.0</ele><time>2026-04-17T14:32:30Z</time></trkpt><trkpt lat="14.556648577259956" lon="120.9966225880849"><ele>10.166666666666668</ele><time>2026-04-17T14:32:32Z</time></trkpt><trkpt lat="14.556714235762634" lon="120.99662149070883"><ele>10.333333333333334</ele><time>2026-04-17T14:32:33Z</time></trkpt><trkpt lat="14.556783864754934" lon="120.99662084439767"><ele>10.5</ele><time>2026-04-17T14:32:34Z</time></trkpt><trkpt lat="14.556851917099655" lon="120.9966102643224"><ele>10.666666666666666</ele><time>2026-04-17T14:32:35Z</time></trkpt><trkpt lat="14.556957114905204" lon="120.99659983030998"><ele>10.833333333333332</ele><time>2026-04-17T14:32:37Z</time></trkpt><trkpt lat="14.557064745633589" lon="120.99657958428293"><ele>11.0</ele><time>2026-04-17T14:32:39Z</time></trkpt><trkpt lat="14.55713049836174" lon="120.99656091532543"><ele>11.0</ele><time>2026-04-17T14:32:41Z</time></trkpt><trkpt lat="14.557209051734645" lon="120.99652882131889"><ele>11.0</ele><time>2026-04-17T14:32:48Z</time></trkpt><trkpt lat="14.557280408273018" lon="120.99651210199924"><ele>11.0</ele><time>2026-04-17T14:32:50Z</time></trkpt><trkpt lat="14.557388237002527" lon="120.99648683700019"><ele>11.0</ele><time>2026-04-17T14:32:52Z</time></trkpt><trkpt lat="14.557510006273626" lon="120.99645996658575"><ele>11.0</ele><time>2026-04-17T14:32:54Z</time></trkpt><trkpt lat="14.557578278786728" lon="120.99644385330399"><ele>11.0</ele><time>2026-04-17T14:32:55Z</time></trkpt><trkpt lat="14.557674340726786" lon="120.99642118031593"><ele>11.0</ele><time>2026-04-17T14:32:57Z</time></trkpt><trkpt lat="14.55776686831539" lon="120.9963993414938"><ele>11.0</ele><time>2026-04-17T14:32:59Z</time></trkpt><trkpt lat="14.557854362420409" lon="120.99637869071246"><ele>11.0</ele><time>2026-04-17T14:33:01Z</time></trkpt><trkpt lat="14.557947624922432" lon="120.99637747529559"><ele>11.0</ele><time>2026-04-17T14:33:03Z</time></trkpt><trkpt lat="14.558042799453144" lon="120.99635536422647"><ele>10.5</ele><time>2026-04-17T14:33:05Z</time></trkpt><trkpt lat="14.558114454294456" lon="120.9963382443458"><ele>10.0</ele><time>2026-04-17T14:33:09Z</time></trkpt><trkpt lat="14.558142644098321" lon="120.99627199239394"><ele>9.5</ele><time>2026-04-17T14:33:17Z</time></trkpt><trkpt lat="14.558175820397405" lon="120.99621128066825"><ele>9.0</ele><time>2026-04-17T14:33:27Z</time></trkpt><trkpt lat="14.55806869883922" lon="120.99594891715776"><ele>9.0</ele><time>2026-04-17T14:33:30Z</time></trkpt><trkpt lat="14.558103006282153" lon="120.99584160612349"><ele>9.0</ele><time>2026-04-17T14:33:33Z</time></trkpt><trkpt lat="14.55815262229348" lon="120.99573484274214"><ele>9.0</ele><time>2026-04-17T14:33:35Z</time></trkpt><trkpt lat="14.558173222958347" lon="120.99563456152745"><ele>9.0</ele><time>2026-04-17T14:33:37Z</time></trkpt><trkpt lat="14.558172941572549" lon="120.9955426460971"><ele>9.0</ele><time>2026-04-17T14:33:39Z</time></trkpt><trkpt lat="14.558196891826494" lon="120.99544061454738"><ele>9.0</ele><time>2026-04-17T14:33:41Z</time></trkpt><trkpt lat="14.55824626357808" lon="120.99538471587705"><ele>9.0</ele><time>2026-04-17T14:33:43Z</time></trkpt><trkpt lat="14.558273676148037" lon="120.9953080651621"><ele>9.0</ele><time>2026-04-17T14:33:45.045Z</time></trkpt><trkpt lat="14.55830698054626" lon="120.99524204772007"><ele>9.0</ele><time>2026-04-17T14:33:47.041Z</time></trkpt><trkpt lat="14.55827018425983" lon="120.99511042637954"><ele>9.0</ele><time>2026-04-17T14:33:49.035Z</time></trkpt><trkpt lat="14.558239918034213" lon="120.99504567210779"><ele>9.0</ele><time>2026-04-17T14:33:51.04Z</time></trkpt><trkpt lat="14.558270847533855" lon="120.99495839501422"><ele>9.0</ele><time>2026-04-17T14:33:54.032Z</time></trkpt><trkpt lat="14.558306529011748" lon="120.99488079428734"><ele>9.0</ele><time>2026-04-17T14:33:56.032Z</time></trkpt><trkpt lat="14.558366215741817" lon="120.99478877638178"><ele>9.0</ele><time>2026-04-17T14:33:57.032Z</time></trkpt><trkpt lat="14.558415329349932" lon="120.99473590614217"><ele>9.0</ele><time>2026-04-17T14:33:58.03Z</time></trkpt><trkpt lat="14.558466973763538" lon="120.9946721935591"><ele>9.0</ele><time>2026-04-17T14:34:00.029Z</time></trkpt><trkpt lat="14.558492019921031" lon="120.99458973002282"><ele>9.0</ele><time>2026-04-17T14:34:01.033Z</time></trkpt><trkpt lat="14.55821714725948" lon="120.99535321435773"><ele>9.0</ele><time>2026-04-17T14:36:21Z</time></trkpt><trkpt lat="14.558264324497841" lon="120.99530158880258"><ele>9.0</ele><time>2026-04-17T14:39:17Z</time></trkpt></trkseg></trk></gpx>